<?xml version="1.0" encoding="UTF-8" standalone="no" ?>
<gpx xmlns="http://www.topografix.com/GPX/1/1" xmlns:xsi="http://www.w3.org/2001/XMLSchema-instance" xsi:schemaLocation="http://www.topografix.com/GPX/1/1 http://www.topografix.com/GPX/1/1/gpx.xsd" version="1.1" creator="VisuGPX - https://www.visugpx.com">
  <metadata>
    <name>rando du 27/05/11</name>
    <desc><![CDATA[Rando au depart de la francheville]]></desc>
  </metadata>
  <trk>
    <name><![CDATA[rando du 27/05/11_1]]></name>
    <trkseg>
      <trkpt lat="49.72767" lon="4.72023">
        <ele>167</ele>
        <time>2011-05-27T12:15:50Z</time>
      </trkpt>
      <trkpt lat="49.72746" lon="4.71993">
        <ele>166</ele>
        <time>2011-05-27T12:16:07Z</time>
      </trkpt>
      <trkpt lat="49.72743" lon="4.7199">
        <ele>166</ele>
        <time>2011-05-27T12:16:08Z</time>
      </trkpt>
      <trkpt lat="49.7274" lon="4.71986">
        <ele>166</ele>
        <time>2011-05-27T12:16:09Z</time>
      </trkpt>
      <trkpt lat="49.72738" lon="4.71982">
        <ele>166</ele>
        <time>2011-05-27T12:16:10Z</time>
      </trkpt>
      <trkpt lat="49.72735" lon="4.71979">
        <ele>166</ele>
        <time>2011-05-27T12:16:11Z</time>
      </trkpt>
      <trkpt lat="49.72733" lon="4.71975">
        <ele>166</ele>
        <time>2011-05-27T12:16:12Z</time>
      </trkpt>
      <trkpt lat="49.7273" lon="4.71972">
        <ele>166</ele>
        <time>2011-05-27T12:16:13Z</time>
      </trkpt>
      <trkpt lat="49.72727" lon="4.71969">
        <ele>166</ele>
        <time>2011-05-27T12:16:14Z</time>
      </trkpt>
      <trkpt lat="49.72724" lon="4.71965">
        <ele>166</ele>
        <time>2011-05-27T12:16:15Z</time>
      </trkpt>
      <trkpt lat="49.72721" lon="4.71961">
        <ele>166</ele>
        <time>2011-05-27T12:16:16Z</time>
      </trkpt>
      <trkpt lat="49.72718" lon="4.71958">
        <ele>166</ele>
        <time>2011-05-27T12:16:17Z</time>
      </trkpt>
      <trkpt lat="49.72715" lon="4.71954">
        <ele>166</ele>
        <time>2011-05-27T12:16:18Z</time>
      </trkpt>
      <trkpt lat="49.72712" lon="4.71951">
        <ele>166</ele>
        <time>2011-05-27T12:16:19Z</time>
      </trkpt>
      <trkpt lat="49.72709" lon="4.71947">
        <ele>166</ele>
        <time>2011-05-27T12:16:20Z</time>
      </trkpt>
      <trkpt lat="49.72705" lon="4.71943">
        <ele>166</ele>
        <time>2011-05-27T12:16:21Z</time>
      </trkpt>
      <trkpt lat="49.72702" lon="4.7194">
        <ele>166</ele>
        <time>2011-05-27T12:16:22Z</time>
      </trkpt>
      <trkpt lat="49.72698" lon="4.71936">
        <ele>166</ele>
        <time>2011-05-27T12:16:23Z</time>
      </trkpt>
      <trkpt lat="49.72695" lon="4.71932">
        <ele>166</ele>
        <time>2011-05-27T12:16:24Z</time>
      </trkpt>
      <trkpt lat="49.72691" lon="4.71928">
        <ele>166</ele>
        <time>2011-05-27T12:16:25Z</time>
      </trkpt>
      <trkpt lat="49.72688" lon="4.71924">
        <ele>166</ele>
        <time>2011-05-27T12:16:26Z</time>
      </trkpt>
      <trkpt lat="49.72684" lon="4.71921">
        <ele>166</ele>
        <time>2011-05-27T12:16:27Z</time>
      </trkpt>
      <trkpt lat="49.72681" lon="4.71917">
        <ele>166</ele>
        <time>2011-05-27T12:16:28Z</time>
      </trkpt>
      <trkpt lat="49.72676" lon="4.71913">
        <ele>166</ele>
        <time>2011-05-27T12:16:29Z</time>
      </trkpt>
      <trkpt lat="49.72672" lon="4.7191">
        <ele>166</ele>
        <time>2011-05-27T12:16:30Z</time>
      </trkpt>
      <trkpt lat="49.72668" lon="4.71908">
        <ele>166</ele>
        <time>2011-05-27T12:16:31Z</time>
      </trkpt>
      <trkpt lat="49.72663" lon="4.71906">
        <ele>166</ele>
        <time>2011-05-27T12:16:32Z</time>
      </trkpt>
      <trkpt lat="49.72659" lon="4.71904">
        <ele>166</ele>
        <time>2011-05-27T12:16:33Z</time>
      </trkpt>
      <trkpt lat="49.72654" lon="4.71904">
        <ele>166</ele>
        <time>2011-05-27T12:16:34Z</time>
      </trkpt>
      <trkpt lat="49.72649" lon="4.71903">
        <ele>166</ele>
        <time>2011-05-27T12:16:35Z</time>
      </trkpt>
      <trkpt lat="49.72644" lon="4.71903">
        <ele>166</ele>
        <time>2011-05-27T12:16:36Z</time>
      </trkpt>
      <trkpt lat="49.7264" lon="4.71903">
        <ele>166</ele>
        <time>2011-05-27T12:16:37Z</time>
      </trkpt>
      <trkpt lat="49.72635" lon="4.71903">
        <ele>166</ele>
        <time>2011-05-27T12:16:38Z</time>
      </trkpt>
      <trkpt lat="49.7263" lon="4.71903">
        <ele>166</ele>
        <time>2011-05-27T12:16:39Z</time>
      </trkpt>
      <trkpt lat="49.72626" lon="4.71904">
        <ele>166</ele>
        <time>2011-05-27T12:16:40Z</time>
      </trkpt>
      <trkpt lat="49.72622" lon="4.71904">
        <ele>166</ele>
        <time>2011-05-27T12:16:41Z</time>
      </trkpt>
      <trkpt lat="49.72617" lon="4.71904">
        <ele>166</ele>
        <time>2011-05-27T12:16:42Z</time>
      </trkpt>
      <trkpt lat="49.72613" lon="4.71903">
        <ele>166</ele>
        <time>2011-05-27T12:16:43Z</time>
      </trkpt>
      <trkpt lat="49.72609" lon="4.71903">
        <ele>166</ele>
        <time>2011-05-27T12:16:44Z</time>
      </trkpt>
      <trkpt lat="49.72605" lon="4.71902">
        <ele>166</ele>
        <time>2011-05-27T12:16:45Z</time>
      </trkpt>
      <trkpt lat="49.72602" lon="4.71899">
        <ele>166</ele>
        <time>2011-05-27T12:16:46Z</time>
      </trkpt>
      <trkpt lat="49.72599" lon="4.71896">
        <ele>166</ele>
        <time>2011-05-27T12:16:47Z</time>
      </trkpt>
      <trkpt lat="49.72597" lon="4.71891">
        <ele>166</ele>
        <time>2011-05-27T12:16:48Z</time>
      </trkpt>
      <trkpt lat="49.72596" lon="4.71886">
        <ele>166</ele>
        <time>2011-05-27T12:16:49Z</time>
      </trkpt>
      <trkpt lat="49.72594" lon="4.71881">
        <ele>166</ele>
        <time>2011-05-27T12:16:50Z</time>
      </trkpt>
      <trkpt lat="49.72592" lon="4.71874">
        <ele>166</ele>
        <time>2011-05-27T12:16:51Z</time>
      </trkpt>
      <trkpt lat="49.7259" lon="4.71868">
        <ele>165</ele>
        <time>2011-05-27T12:16:52Z</time>
      </trkpt>
      <trkpt lat="49.72588" lon="4.71861">
        <ele>165</ele>
        <time>2011-05-27T12:16:53Z</time>
      </trkpt>
      <trkpt lat="49.72586" lon="4.71854">
        <ele>165</ele>
        <time>2011-05-27T12:16:54Z</time>
      </trkpt>
      <trkpt lat="49.72584" lon="4.71847">
        <ele>164</ele>
        <time>2011-05-27T12:16:55Z</time>
      </trkpt>
      <trkpt lat="49.72581" lon="4.71842">
        <ele>164</ele>
        <time>2011-05-27T12:16:56Z</time>
      </trkpt>
      <trkpt lat="49.72578" lon="4.71837">
        <ele>164</ele>
        <time>2011-05-27T12:16:57Z</time>
      </trkpt>
      <trkpt lat="49.72575" lon="4.71833">
        <ele>164</ele>
        <time>2011-05-27T12:16:58Z</time>
      </trkpt>
      <trkpt lat="49.72574" lon="4.71826">
        <ele>163</ele>
        <time>2011-05-27T12:16:59Z</time>
      </trkpt>
      <trkpt lat="49.72573" lon="4.71819">
        <ele>163</ele>
        <time>2011-05-27T12:17:00Z</time>
      </trkpt>
      <trkpt lat="49.72574" lon="4.7181">
        <ele>163</ele>
        <time>2011-05-27T12:17:01Z</time>
      </trkpt>
      <trkpt lat="49.72576" lon="4.71802">
        <ele>162</ele>
        <time>2011-05-27T12:17:02Z</time>
      </trkpt>
      <trkpt lat="49.72578" lon="4.71792">
        <ele>162</ele>
        <time>2011-05-27T12:17:03Z</time>
      </trkpt>
      <trkpt lat="49.7258" lon="4.71783">
        <ele>162</ele>
        <time>2011-05-27T12:17:04Z</time>
      </trkpt>
      <trkpt lat="49.72583" lon="4.71773">
        <ele>161</ele>
        <time>2011-05-27T12:17:05Z</time>
      </trkpt>
      <trkpt lat="49.72586" lon="4.71764">
        <ele>161</ele>
        <time>2011-05-27T12:17:06Z</time>
      </trkpt>
      <trkpt lat="49.72589" lon="4.71755">
        <ele>160</ele>
        <time>2011-05-27T12:17:07Z</time>
      </trkpt>
      <trkpt lat="49.72593" lon="4.71745">
        <ele>160</ele>
        <time>2011-05-27T12:17:08Z</time>
      </trkpt>
      <trkpt lat="49.72596" lon="4.71736">
        <ele>159</ele>
        <time>2011-05-27T12:17:09Z</time>
      </trkpt>
      <trkpt lat="49.72601" lon="4.71726">
        <ele>159</ele>
        <time>2011-05-27T12:17:10Z</time>
      </trkpt>
      <trkpt lat="49.72605" lon="4.71716">
        <ele>159</ele>
        <time>2011-05-27T12:17:11Z</time>
      </trkpt>
      <trkpt lat="49.72609" lon="4.71706">
        <ele>158</ele>
        <time>2011-05-27T12:17:12Z</time>
      </trkpt>
      <trkpt lat="49.72615" lon="4.71697">
        <ele>158</ele>
        <time>2011-05-27T12:17:13Z</time>
      </trkpt>
      <trkpt lat="49.7262" lon="4.71687">
        <ele>157</ele>
        <time>2011-05-27T12:17:14Z</time>
      </trkpt>
      <trkpt lat="49.72624" lon="4.71677">
        <ele>157</ele>
        <time>2011-05-27T12:17:15Z</time>
      </trkpt>
      <trkpt lat="49.7263" lon="4.71667">
        <ele>156</ele>
        <time>2011-05-27T12:17:16Z</time>
      </trkpt>
      <trkpt lat="49.72635" lon="4.71658">
        <ele>156</ele>
        <time>2011-05-27T12:17:17Z</time>
      </trkpt>
      <trkpt lat="49.7264" lon="4.71649">
        <ele>156</ele>
        <time>2011-05-27T12:17:18Z</time>
      </trkpt>
      <trkpt lat="49.72645" lon="4.71639">
        <ele>156</ele>
        <time>2011-05-27T12:17:19Z</time>
      </trkpt>
      <trkpt lat="49.7265" lon="4.7163">
        <ele>155</ele>
        <time>2011-05-27T12:17:20Z</time>
      </trkpt>
      <trkpt lat="49.72655" lon="4.71621">
        <ele>155</ele>
        <time>2011-05-27T12:17:21Z</time>
      </trkpt>
      <trkpt lat="49.7266" lon="4.71612">
        <ele>155</ele>
        <time>2011-05-27T12:17:22Z</time>
      </trkpt>
      <trkpt lat="49.72664" lon="4.71603">
        <ele>155</ele>
        <time>2011-05-27T12:17:23Z</time>
      </trkpt>
      <trkpt lat="49.72668" lon="4.71595">
        <ele>155</ele>
        <time>2011-05-27T12:17:24Z</time>
      </trkpt>
      <trkpt lat="49.72672" lon="4.71587">
        <ele>155</ele>
        <time>2011-05-27T12:17:25Z</time>
      </trkpt>
      <trkpt lat="49.72676" lon="4.71579">
        <ele>155</ele>
        <time>2011-05-27T12:17:26Z</time>
      </trkpt>
      <trkpt lat="49.72679" lon="4.71572">
        <ele>155</ele>
        <time>2011-05-27T12:17:27Z</time>
      </trkpt>
      <trkpt lat="49.72681" lon="4.71566">
        <ele>155</ele>
        <time>2011-05-27T12:17:28Z</time>
      </trkpt>
      <trkpt lat="49.72684" lon="4.71562">
        <ele>155</ele>
        <time>2011-05-27T12:17:29Z</time>
      </trkpt>
      <trkpt lat="49.72686" lon="4.71559">
        <ele>155</ele>
        <time>2011-05-27T12:17:30Z</time>
      </trkpt>
      <trkpt lat="49.72688" lon="4.71557">
        <ele>155</ele>
        <time>2011-05-27T12:17:31Z</time>
      </trkpt>
      <trkpt lat="49.7269" lon="4.71555">
        <ele>155</ele>
        <time>2011-05-27T12:17:32Z</time>
      </trkpt>
      <trkpt lat="49.72692" lon="4.71554">
        <ele>155</ele>
        <time>2011-05-27T12:17:33Z</time>
      </trkpt>
      <trkpt lat="49.72694" lon="4.71552">
        <ele>155</ele>
        <time>2011-05-27T12:17:34Z</time>
      </trkpt>
      <trkpt lat="49.72698" lon="4.7155">
        <ele>155</ele>
        <time>2011-05-27T12:17:35Z</time>
      </trkpt>
      <trkpt lat="49.72702" lon="4.71547">
        <ele>155</ele>
        <time>2011-05-27T12:17:36Z</time>
      </trkpt>
      <trkpt lat="49.72706" lon="4.71542">
        <ele>155</ele>
        <time>2011-05-27T12:17:37Z</time>
      </trkpt>
      <trkpt lat="49.72709" lon="4.71537">
        <ele>155</ele>
        <time>2011-05-27T12:17:38Z</time>
      </trkpt>
      <trkpt lat="49.72711" lon="4.71531">
        <ele>155</ele>
        <time>2011-05-27T12:17:39Z</time>
      </trkpt>
      <trkpt lat="49.72713" lon="4.71524">
        <ele>155</ele>
        <time>2011-05-27T12:17:40Z</time>
      </trkpt>
      <trkpt lat="49.72715" lon="4.71517">
        <ele>155</ele>
        <time>2011-05-27T12:17:41Z</time>
      </trkpt>
      <trkpt lat="49.72716" lon="4.7151">
        <ele>155</ele>
        <time>2011-05-27T12:17:42Z</time>
      </trkpt>
      <trkpt lat="49.72719" lon="4.71503">
        <ele>155</ele>
        <time>2011-05-27T12:17:43Z</time>
      </trkpt>
      <trkpt lat="49.72723" lon="4.71497">
        <ele>155</ele>
        <time>2011-05-27T12:17:44Z</time>
      </trkpt>
      <trkpt lat="49.72727" lon="4.71491">
        <ele>155</ele>
        <time>2011-05-27T12:17:45Z</time>
      </trkpt>
      <trkpt lat="49.72731" lon="4.71486">
        <ele>155</ele>
        <time>2011-05-27T12:17:46Z</time>
      </trkpt>
      <trkpt lat="49.72742" lon="4.71464">
        <ele>155</ele>
        <time>2011-05-27T12:17:49Z</time>
      </trkpt>
      <trkpt lat="49.72745" lon="4.71457">
        <ele>155</ele>
        <time>2011-05-27T12:17:50Z</time>
      </trkpt>
      <trkpt lat="49.72751" lon="4.71451">
        <ele>155</ele>
        <time>2011-05-27T12:17:51Z</time>
      </trkpt>
      <trkpt lat="49.72756" lon="4.71446">
        <ele>155</ele>
        <time>2011-05-27T12:17:52Z</time>
      </trkpt>
      <trkpt lat="49.72762" lon="4.71441">
        <ele>155</ele>
        <time>2011-05-27T12:17:53Z</time>
      </trkpt>
      <trkpt lat="49.72767" lon="4.71435">
        <ele>155</ele>
        <time>2011-05-27T12:17:54Z</time>
      </trkpt>
      <trkpt lat="49.72771" lon="4.71429">
        <ele>155</ele>
        <time>2011-05-27T12:17:55Z</time>
      </trkpt>
      <trkpt lat="49.72776" lon="4.71422">
        <ele>155</ele>
        <time>2011-05-27T12:17:56Z</time>
      </trkpt>
      <trkpt lat="49.7278" lon="4.71416">
        <ele>155</ele>
        <time>2011-05-27T12:17:57Z</time>
      </trkpt>
      <trkpt lat="49.72784" lon="4.7141">
        <ele>155</ele>
        <time>2011-05-27T12:17:58Z</time>
      </trkpt>
      <trkpt lat="49.72788" lon="4.71403">
        <ele>155</ele>
        <time>2011-05-27T12:17:59Z</time>
      </trkpt>
      <trkpt lat="49.72793" lon="4.71397">
        <ele>155</ele>
        <time>2011-05-27T12:18:00Z</time>
      </trkpt>
      <trkpt lat="49.72798" lon="4.71391">
        <ele>155</ele>
        <time>2011-05-27T12:18:01Z</time>
      </trkpt>
      <trkpt lat="49.72802" lon="4.71385">
        <ele>155</ele>
        <time>2011-05-27T12:18:02Z</time>
      </trkpt>
      <trkpt lat="49.72807" lon="4.71378">
        <ele>155</ele>
        <time>2011-05-27T12:18:03Z</time>
      </trkpt>
      <trkpt lat="49.72811" lon="4.71372">
        <ele>155</ele>
        <time>2011-05-27T12:18:04Z</time>
      </trkpt>
      <trkpt lat="49.72816" lon="4.71366">
        <ele>155</ele>
        <time>2011-05-27T12:18:05Z</time>
      </trkpt>
      <trkpt lat="49.7282" lon="4.71359">
        <ele>155</ele>
        <time>2011-05-27T12:18:06Z</time>
      </trkpt>
      <trkpt lat="49.72825" lon="4.71352">
        <ele>155</ele>
        <time>2011-05-27T12:18:07Z</time>
      </trkpt>
      <trkpt lat="49.7283" lon="4.71346">
        <ele>155</ele>
        <time>2011-05-27T12:18:08Z</time>
      </trkpt>
      <trkpt lat="49.72834" lon="4.71339">
        <ele>155</ele>
        <time>2011-05-27T12:18:09Z</time>
      </trkpt>
      <trkpt lat="49.72839" lon="4.71332">
        <ele>155</ele>
        <time>2011-05-27T12:18:10Z</time>
      </trkpt>
      <trkpt lat="49.72843" lon="4.71325">
        <ele>155</ele>
        <time>2011-05-27T12:18:11Z</time>
      </trkpt>
      <trkpt lat="49.72848" lon="4.71319">
        <ele>155</ele>
        <time>2011-05-27T12:18:12Z</time>
      </trkpt>
      <trkpt lat="49.72852" lon="4.71313">
        <ele>155</ele>
        <time>2011-05-27T12:18:13Z</time>
      </trkpt>
      <trkpt lat="49.72857" lon="4.71307">
        <ele>155</ele>
        <time>2011-05-27T12:18:14Z</time>
      </trkpt>
      <trkpt lat="49.72862" lon="4.71302">
        <ele>155</ele>
        <time>2011-05-27T12:18:15Z</time>
      </trkpt>
      <trkpt lat="49.72867" lon="4.71298">
        <ele>155</ele>
        <time>2011-05-27T12:18:16Z</time>
      </trkpt>
      <trkpt lat="49.72873" lon="4.71297">
        <ele>155</ele>
        <time>2011-05-27T12:18:17Z</time>
      </trkpt>
      <trkpt lat="49.72878" lon="4.71296">
        <ele>155</ele>
        <time>2011-05-27T12:18:18Z</time>
      </trkpt>
      <trkpt lat="49.72883" lon="4.71295">
        <ele>155</ele>
        <time>2011-05-27T12:18:19Z</time>
      </trkpt>
      <trkpt lat="49.72887" lon="4.7129">
        <ele>155</ele>
        <time>2011-05-27T12:18:20Z</time>
      </trkpt>
      <trkpt lat="49.72888" lon="4.71283">
        <ele>155</ele>
        <time>2011-05-27T12:18:21Z</time>
      </trkpt>
      <trkpt lat="49.72888" lon="4.71276">
        <ele>155</ele>
        <time>2011-05-27T12:18:22Z</time>
      </trkpt>
      <trkpt lat="49.72887" lon="4.71269">
        <ele>155</ele>
        <time>2011-05-27T12:18:23Z</time>
      </trkpt>
      <trkpt lat="49.72885" lon="4.71262">
        <ele>155</ele>
        <time>2011-05-27T12:18:24Z</time>
      </trkpt>
      <trkpt lat="49.72883" lon="4.71255">
        <ele>155</ele>
        <time>2011-05-27T12:18:25Z</time>
      </trkpt>
      <trkpt lat="49.7288" lon="4.71248">
        <ele>155</ele>
        <time>2011-05-27T12:18:26Z</time>
      </trkpt>
      <trkpt lat="49.72878" lon="4.71241">
        <ele>155</ele>
        <time>2011-05-27T12:18:27Z</time>
      </trkpt>
      <trkpt lat="49.72875" lon="4.71234">
        <ele>155</ele>
        <time>2011-05-27T12:18:28Z</time>
      </trkpt>
      <trkpt lat="49.72872" lon="4.71227">
        <ele>155</ele>
        <time>2011-05-27T12:18:29Z</time>
      </trkpt>
      <trkpt lat="49.72869" lon="4.7122">
        <ele>155</ele>
        <time>2011-05-27T12:18:30Z</time>
      </trkpt>
      <trkpt lat="49.72867" lon="4.71213">
        <ele>155</ele>
        <time>2011-05-27T12:18:31Z</time>
      </trkpt>
      <trkpt lat="49.72864" lon="4.71205">
        <ele>155</ele>
        <time>2011-05-27T12:18:32Z</time>
      </trkpt>
      <trkpt lat="49.72861" lon="4.71198">
        <ele>155</ele>
        <time>2011-05-27T12:18:33Z</time>
      </trkpt>
      <trkpt lat="49.72858" lon="4.7119">
        <ele>155</ele>
        <time>2011-05-27T12:18:34Z</time>
      </trkpt>
      <trkpt lat="49.72855" lon="4.71182">
        <ele>155</ele>
        <time>2011-05-27T12:18:35Z</time>
      </trkpt>
      <trkpt lat="49.72853" lon="4.71175">
        <ele>155</ele>
        <time>2011-05-27T12:18:36Z</time>
      </trkpt>
      <trkpt lat="49.7285" lon="4.71167">
        <ele>155</ele>
        <time>2011-05-27T12:18:37Z</time>
      </trkpt>
      <trkpt lat="49.72847" lon="4.7116">
        <ele>155</ele>
        <time>2011-05-27T12:18:38Z</time>
      </trkpt>
      <trkpt lat="49.72844" lon="4.71152">
        <ele>155</ele>
        <time>2011-05-27T12:18:39Z</time>
      </trkpt>
      <trkpt lat="49.72842" lon="4.71144">
        <ele>155</ele>
        <time>2011-05-27T12:18:40Z</time>
      </trkpt>
      <trkpt lat="49.72839" lon="4.71137">
        <ele>155</ele>
        <time>2011-05-27T12:18:41Z</time>
      </trkpt>
      <trkpt lat="49.72836" lon="4.71129">
        <ele>155</ele>
        <time>2011-05-27T12:18:42Z</time>
      </trkpt>
      <trkpt lat="49.72833" lon="4.71122">
        <ele>155</ele>
        <time>2011-05-27T12:18:43Z</time>
      </trkpt>
      <trkpt lat="49.7283" lon="4.71114">
        <ele>155</ele>
        <time>2011-05-27T12:18:44Z</time>
      </trkpt>
      <trkpt lat="49.72828" lon="4.71107">
        <ele>155</ele>
        <time>2011-05-27T12:18:45Z</time>
      </trkpt>
      <trkpt lat="49.72825" lon="4.71099">
        <ele>155</ele>
        <time>2011-05-27T12:18:46Z</time>
      </trkpt>
      <trkpt lat="49.72822" lon="4.71092">
        <ele>155</ele>
        <time>2011-05-27T12:18:47Z</time>
      </trkpt>
      <trkpt lat="49.72819" lon="4.71084">
        <ele>155</ele>
        <time>2011-05-27T12:18:48Z</time>
      </trkpt>
      <trkpt lat="49.72816" lon="4.71077">
        <ele>155</ele>
        <time>2011-05-27T12:18:49Z</time>
      </trkpt>
      <trkpt lat="49.72813" lon="4.71071">
        <ele>155</ele>
        <time>2011-05-27T12:18:50Z</time>
      </trkpt>
      <trkpt lat="49.72808" lon="4.71065">
        <ele>155</ele>
        <time>2011-05-27T12:18:51Z</time>
      </trkpt>
      <trkpt lat="49.72804" lon="4.71061">
        <ele>155</ele>
        <time>2011-05-27T12:18:52Z</time>
      </trkpt>
      <trkpt lat="49.72799" lon="4.71057">
        <ele>155</ele>
        <time>2011-05-27T12:18:53Z</time>
      </trkpt>
      <trkpt lat="49.72794" lon="4.71054">
        <ele>155</ele>
        <time>2011-05-27T12:18:54Z</time>
      </trkpt>
      <trkpt lat="49.72788" lon="4.71052">
        <ele>155</ele>
        <time>2011-05-27T12:18:55Z</time>
      </trkpt>
      <trkpt lat="49.72782" lon="4.71049">
        <ele>155</ele>
        <time>2011-05-27T12:18:56Z</time>
      </trkpt>
      <trkpt lat="49.72777" lon="4.71048">
        <ele>155</ele>
        <time>2011-05-27T12:18:57Z</time>
      </trkpt>
      <trkpt lat="49.72771" lon="4.71045">
        <ele>155</ele>
        <time>2011-05-27T12:18:58Z</time>
      </trkpt>
      <trkpt lat="49.72766" lon="4.71043">
        <ele>155</ele>
        <time>2011-05-27T12:18:59Z</time>
      </trkpt>
      <trkpt lat="49.72761" lon="4.71038">
        <ele>155</ele>
        <time>2011-05-27T12:19:00Z</time>
      </trkpt>
      <trkpt lat="49.72757" lon="4.71033">
        <ele>155</ele>
        <time>2011-05-27T12:19:01Z</time>
      </trkpt>
      <trkpt lat="49.72752" lon="4.71028">
        <ele>155</ele>
        <time>2011-05-27T12:19:02Z</time>
      </trkpt>
      <trkpt lat="49.72748" lon="4.71022">
        <ele>155</ele>
        <time>2011-05-27T12:19:03Z</time>
      </trkpt>
      <trkpt lat="49.72745" lon="4.71017">
        <ele>155</ele>
        <time>2011-05-27T12:19:04Z</time>
      </trkpt>
      <trkpt lat="49.72741" lon="4.71011">
        <ele>155</ele>
        <time>2011-05-27T12:19:05Z</time>
      </trkpt>
      <trkpt lat="49.72738" lon="4.71005">
        <ele>155</ele>
        <time>2011-05-27T12:19:06Z</time>
      </trkpt>
      <trkpt lat="49.72736" lon="4.71001">
        <ele>155</ele>
        <time>2011-05-27T12:19:07Z</time>
      </trkpt>
      <trkpt lat="49.72733" lon="4.70997">
        <ele>156</ele>
        <time>2011-05-27T12:19:08Z</time>
      </trkpt>
      <trkpt lat="49.72731" lon="4.70993">
        <ele>156</ele>
        <time>2011-05-27T12:19:09Z</time>
      </trkpt>
      <trkpt lat="49.7273" lon="4.70988">
        <ele>156</ele>
        <time>2011-05-27T12:19:10Z</time>
      </trkpt>
      <trkpt lat="49.72731" lon="4.70984">
        <ele>156</ele>
        <time>2011-05-27T12:19:11Z</time>
      </trkpt>
      <trkpt lat="49.72733" lon="4.7098">
        <ele>156</ele>
        <time>2011-05-27T12:19:12Z</time>
      </trkpt>
      <trkpt lat="49.72736" lon="4.70977">
        <ele>157</ele>
        <time>2011-05-27T12:19:13Z</time>
      </trkpt>
      <trkpt lat="49.72739" lon="4.70974">
        <ele>157</ele>
        <time>2011-05-27T12:19:14Z</time>
      </trkpt>
      <trkpt lat="49.72741" lon="4.7097">
        <ele>157</ele>
        <time>2011-05-27T12:19:15Z</time>
      </trkpt>
      <trkpt lat="49.72744" lon="4.70967">
        <ele>158</ele>
        <time>2011-05-27T12:19:16Z</time>
      </trkpt>
      <trkpt lat="49.72746" lon="4.70963">
        <ele>158</ele>
        <time>2011-05-27T12:19:17Z</time>
      </trkpt>
      <trkpt lat="49.72749" lon="4.7096">
        <ele>158</ele>
        <time>2011-05-27T12:19:18Z</time>
      </trkpt>
      <trkpt lat="49.72751" lon="4.70957">
        <ele>158</ele>
        <time>2011-05-27T12:19:19Z</time>
      </trkpt>
      <trkpt lat="49.72754" lon="4.70953">
        <ele>159</ele>
        <time>2011-05-27T12:19:20Z</time>
      </trkpt>
      <trkpt lat="49.72756" lon="4.70948">
        <ele>159</ele>
        <time>2011-05-27T12:19:21Z</time>
      </trkpt>
      <trkpt lat="49.72758" lon="4.70944">
        <ele>159</ele>
        <time>2011-05-27T12:19:22Z</time>
      </trkpt>
      <trkpt lat="49.72761" lon="4.70939">
        <ele>159</ele>
        <time>2011-05-27T12:19:23Z</time>
      </trkpt>
      <trkpt lat="49.72763" lon="4.70934">
        <ele>159</ele>
        <time>2011-05-27T12:19:24Z</time>
      </trkpt>
      <trkpt lat="49.72765" lon="4.70929">
        <ele>159</ele>
        <time>2011-05-27T12:19:25Z</time>
      </trkpt>
      <trkpt lat="49.72768" lon="4.70925">
        <ele>160</ele>
        <time>2011-05-27T12:19:26Z</time>
      </trkpt>
      <trkpt lat="49.7277" lon="4.7092">
        <ele>160</ele>
        <time>2011-05-27T12:19:27Z</time>
      </trkpt>
      <trkpt lat="49.72772" lon="4.70915">
        <ele>160</ele>
        <time>2011-05-27T12:19:28Z</time>
      </trkpt>
      <trkpt lat="49.72774" lon="4.7091">
        <ele>160</ele>
        <time>2011-05-27T12:19:29Z</time>
      </trkpt>
      <trkpt lat="49.72776" lon="4.70904">
        <ele>160</ele>
        <time>2011-05-27T12:19:30Z</time>
      </trkpt>
      <trkpt lat="49.72778" lon="4.70899">
        <ele>161</ele>
        <time>2011-05-27T12:19:31Z</time>
      </trkpt>
      <trkpt lat="49.7278" lon="4.70894">
        <ele>161</ele>
        <time>2011-05-27T12:19:32Z</time>
      </trkpt>
      <trkpt lat="49.72782" lon="4.70889">
        <ele>161</ele>
        <time>2011-05-27T12:19:33Z</time>
      </trkpt>
      <trkpt lat="49.72784" lon="4.70884">
        <ele>161</ele>
        <time>2011-05-27T12:19:34Z</time>
      </trkpt>
      <trkpt lat="49.72786" lon="4.70879">
        <ele>161</ele>
        <time>2011-05-27T12:19:35Z</time>
      </trkpt>
      <trkpt lat="49.72789" lon="4.70874">
        <ele>162</ele>
        <time>2011-05-27T12:19:36Z</time>
      </trkpt>
      <trkpt lat="49.72791" lon="4.70869">
        <ele>162</ele>
        <time>2011-05-27T12:19:37Z</time>
      </trkpt>
      <trkpt lat="49.72792" lon="4.70864">
        <ele>162</ele>
        <time>2011-05-27T12:19:38Z</time>
      </trkpt>
      <trkpt lat="49.72794" lon="4.70859">
        <ele>162</ele>
        <time>2011-05-27T12:19:39Z</time>
      </trkpt>
      <trkpt lat="49.72797" lon="4.70855">
        <ele>162</ele>
        <time>2011-05-27T12:19:40Z</time>
      </trkpt>
      <trkpt lat="49.72799" lon="4.7085">
        <ele>163</ele>
        <time>2011-05-27T12:19:41Z</time>
      </trkpt>
      <trkpt lat="49.72801" lon="4.70845">
        <ele>163</ele>
        <time>2011-05-27T12:19:42Z</time>
      </trkpt>
      <trkpt lat="49.72803" lon="4.7084">
        <ele>163</ele>
        <time>2011-05-27T12:19:43Z</time>
      </trkpt>
      <trkpt lat="49.72805" lon="4.70835">
        <ele>163</ele>
        <time>2011-05-27T12:19:44Z</time>
      </trkpt>
      <trkpt lat="49.72807" lon="4.7083">
        <ele>164</ele>
        <time>2011-05-27T12:19:45Z</time>
      </trkpt>
      <trkpt lat="49.7281" lon="4.70826">
        <ele>164</ele>
        <time>2011-05-27T12:19:46Z</time>
      </trkpt>
      <trkpt lat="49.72812" lon="4.70821">
        <ele>164</ele>
        <time>2011-05-27T12:19:47Z</time>
      </trkpt>
      <trkpt lat="49.72814" lon="4.70816">
        <ele>165</ele>
        <time>2011-05-27T12:19:48Z</time>
      </trkpt>
      <trkpt lat="49.72816" lon="4.70812">
        <ele>165</ele>
        <time>2011-05-27T12:19:49Z</time>
      </trkpt>
      <trkpt lat="49.72818" lon="4.70807">
        <ele>165</ele>
        <time>2011-05-27T12:19:50Z</time>
      </trkpt>
      <trkpt lat="49.7282" lon="4.70802">
        <ele>165</ele>
        <time>2011-05-27T12:19:51Z</time>
      </trkpt>
      <trkpt lat="49.72822" lon="4.70797">
        <ele>166</ele>
        <time>2011-05-27T12:19:52Z</time>
      </trkpt>
      <trkpt lat="49.72824" lon="4.70793">
        <ele>166</ele>
        <time>2011-05-27T12:19:53Z</time>
      </trkpt>
      <trkpt lat="49.72826" lon="4.70789">
        <ele>166</ele>
        <time>2011-05-27T12:19:54Z</time>
      </trkpt>
      <trkpt lat="49.72828" lon="4.70784">
        <ele>166</ele>
        <time>2011-05-27T12:19:55Z</time>
      </trkpt>
      <trkpt lat="49.7283" lon="4.7078">
        <ele>166</ele>
        <time>2011-05-27T12:19:56Z</time>
      </trkpt>
      <trkpt lat="49.72832" lon="4.70776">
        <ele>166</ele>
        <time>2011-05-27T12:19:57Z</time>
      </trkpt>
      <trkpt lat="49.72834" lon="4.70772">
        <ele>166</ele>
        <time>2011-05-27T12:19:58Z</time>
      </trkpt>
      <trkpt lat="49.72835" lon="4.70767">
        <ele>167</ele>
        <time>2011-05-27T12:19:59Z</time>
      </trkpt>
      <trkpt lat="49.72837" lon="4.70763">
        <ele>167</ele>
        <time>2011-05-27T12:20:00Z</time>
      </trkpt>
      <trkpt lat="49.72839" lon="4.70758">
        <ele>167</ele>
        <time>2011-05-27T12:20:01Z</time>
      </trkpt>
      <trkpt lat="49.72841" lon="4.70753">
        <ele>167</ele>
        <time>2011-05-27T12:20:02Z</time>
      </trkpt>
      <trkpt lat="49.72842" lon="4.70748">
        <ele>168</ele>
        <time>2011-05-27T12:20:03Z</time>
      </trkpt>
      <trkpt lat="49.72844" lon="4.70744">
        <ele>168</ele>
        <time>2011-05-27T12:20:04Z</time>
      </trkpt>
      <trkpt lat="49.72846" lon="4.70739">
        <ele>168</ele>
        <time>2011-05-27T12:20:05Z</time>
      </trkpt>
      <trkpt lat="49.72848" lon="4.70734">
        <ele>168</ele>
        <time>2011-05-27T12:20:06Z</time>
      </trkpt>
      <trkpt lat="49.7285" lon="4.70728">
        <ele>168</ele>
        <time>2011-05-27T12:20:07Z</time>
      </trkpt>
      <trkpt lat="49.72852" lon="4.70723">
        <ele>168</ele>
        <time>2011-05-27T12:20:08Z</time>
      </trkpt>
      <trkpt lat="49.72854" lon="4.70718">
        <ele>168</ele>
        <time>2011-05-27T12:20:09Z</time>
      </trkpt>
      <trkpt lat="49.72856" lon="4.70713">
        <ele>168</ele>
        <time>2011-05-27T12:20:10Z</time>
      </trkpt>
      <trkpt lat="49.72858" lon="4.70708">
        <ele>168</ele>
        <time>2011-05-27T12:20:11Z</time>
      </trkpt>
      <trkpt lat="49.7286" lon="4.70702">
        <ele>169</ele>
        <time>2011-05-27T12:20:12Z</time>
      </trkpt>
      <trkpt lat="49.72862" lon="4.70697">
        <ele>169</ele>
        <time>2011-05-27T12:20:13Z</time>
      </trkpt>
      <trkpt lat="49.72864" lon="4.70692">
        <ele>169</ele>
        <time>2011-05-27T12:20:14Z</time>
      </trkpt>
      <trkpt lat="49.72866" lon="4.70687">
        <ele>169</ele>
        <time>2011-05-27T12:20:15Z</time>
      </trkpt>
      <trkpt lat="49.72867" lon="4.70682">
        <ele>169</ele>
        <time>2011-05-27T12:20:16Z</time>
      </trkpt>
      <trkpt lat="49.72869" lon="4.70677">
        <ele>170</ele>
        <time>2011-05-27T12:20:17Z</time>
      </trkpt>
      <trkpt lat="49.7287" lon="4.70672">
        <ele>170</ele>
        <time>2011-05-27T12:20:18Z</time>
      </trkpt>
      <trkpt lat="49.72872" lon="4.70668">
        <ele>170</ele>
        <time>2011-05-27T12:20:19Z</time>
      </trkpt>
      <trkpt lat="49.72873" lon="4.70663">
        <ele>170</ele>
        <time>2011-05-27T12:20:20Z</time>
      </trkpt>
      <trkpt lat="49.72874" lon="4.70658">
        <ele>171</ele>
        <time>2011-05-27T12:20:21Z</time>
      </trkpt>
      <trkpt lat="49.72876" lon="4.70653">
        <ele>171</ele>
        <time>2011-05-27T12:20:22Z</time>
      </trkpt>
      <trkpt lat="49.72877" lon="4.70648">
        <ele>171</ele>
        <time>2011-05-27T12:20:23Z</time>
      </trkpt>
      <trkpt lat="49.72878" lon="4.70644">
        <ele>172</ele>
        <time>2011-05-27T12:20:24Z</time>
      </trkpt>
      <trkpt lat="49.7288" lon="4.70639">
        <ele>172</ele>
        <time>2011-05-27T12:20:25Z</time>
      </trkpt>
      <trkpt lat="49.72881" lon="4.70634">
        <ele>172</ele>
        <time>2011-05-27T12:20:26Z</time>
      </trkpt>
      <trkpt lat="49.72883" lon="4.70628">
        <ele>173</ele>
        <time>2011-05-27T12:20:27Z</time>
      </trkpt>
      <trkpt lat="49.72884" lon="4.70623">
        <ele>173</ele>
        <time>2011-05-27T12:20:28Z</time>
      </trkpt>
      <trkpt lat="49.72886" lon="4.70618">
        <ele>173</ele>
        <time>2011-05-27T12:20:29Z</time>
      </trkpt>
      <trkpt lat="49.72887" lon="4.70614">
        <ele>173</ele>
        <time>2011-05-27T12:20:30Z</time>
      </trkpt>
      <trkpt lat="49.72889" lon="4.70609">
        <ele>174</ele>
        <time>2011-05-27T12:20:31Z</time>
      </trkpt>
      <trkpt lat="49.72891" lon="4.70604">
        <ele>174</ele>
        <time>2011-05-27T12:20:32Z</time>
      </trkpt>
      <trkpt lat="49.72892" lon="4.706">
        <ele>174</ele>
        <time>2011-05-27T12:20:33Z</time>
      </trkpt>
      <trkpt lat="49.72895" lon="4.70595">
        <ele>175</ele>
        <time>2011-05-27T12:20:34Z</time>
      </trkpt>
      <trkpt lat="49.72897" lon="4.70591">
        <ele>175</ele>
        <time>2011-05-27T12:20:35Z</time>
      </trkpt>
      <trkpt lat="49.72899" lon="4.70586">
        <ele>175</ele>
        <time>2011-05-27T12:20:36Z</time>
      </trkpt>
      <trkpt lat="49.72901" lon="4.70582">
        <ele>175</ele>
        <time>2011-05-27T12:20:37Z</time>
      </trkpt>
      <trkpt lat="49.72903" lon="4.70577">
        <ele>176</ele>
        <time>2011-05-27T12:20:38Z</time>
      </trkpt>
      <trkpt lat="49.72905" lon="4.70573">
        <ele>176</ele>
        <time>2011-05-27T12:20:39Z</time>
      </trkpt>
      <trkpt lat="49.72908" lon="4.70569">
        <ele>176</ele>
        <time>2011-05-27T12:20:40Z</time>
      </trkpt>
      <trkpt lat="49.7291" lon="4.70564">
        <ele>176</ele>
        <time>2011-05-27T12:20:41Z</time>
      </trkpt>
      <trkpt lat="49.72913" lon="4.7056">
        <ele>177</ele>
        <time>2011-05-27T12:20:42Z</time>
      </trkpt>
      <trkpt lat="49.72915" lon="4.70555">
        <ele>177</ele>
        <time>2011-05-27T12:20:43Z</time>
      </trkpt>
      <trkpt lat="49.72918" lon="4.70551">
        <ele>177</ele>
        <time>2011-05-27T12:20:44Z</time>
      </trkpt>
      <trkpt lat="49.72921" lon="4.70547">
        <ele>177</ele>
        <time>2011-05-27T12:20:45Z</time>
      </trkpt>
      <trkpt lat="49.72923" lon="4.70542">
        <ele>177</ele>
        <time>2011-05-27T12:20:46Z</time>
      </trkpt>
      <trkpt lat="49.72926" lon="4.70538">
        <ele>178</ele>
        <time>2011-05-27T12:20:47Z</time>
      </trkpt>
      <trkpt lat="49.72928" lon="4.70534">
        <ele>178</ele>
        <time>2011-05-27T12:20:48Z</time>
      </trkpt>
      <trkpt lat="49.72931" lon="4.7053">
        <ele>178</ele>
        <time>2011-05-27T12:20:49Z</time>
      </trkpt>
      <trkpt lat="49.72934" lon="4.70526">
        <ele>178</ele>
        <time>2011-05-27T12:20:50Z</time>
      </trkpt>
      <trkpt lat="49.72936" lon="4.70522">
        <ele>178</ele>
        <time>2011-05-27T12:20:51Z</time>
      </trkpt>
      <trkpt lat="49.72938" lon="4.70518">
        <ele>178</ele>
        <time>2011-05-27T12:20:52Z</time>
      </trkpt>
      <trkpt lat="49.7294" lon="4.70514">
        <ele>178</ele>
        <time>2011-05-27T12:20:53Z</time>
      </trkpt>
      <trkpt lat="49.72943" lon="4.7051">
        <ele>178</ele>
        <time>2011-05-27T12:20:54Z</time>
      </trkpt>
      <trkpt lat="49.72945" lon="4.70506">
        <ele>178</ele>
        <time>2011-05-27T12:20:55Z</time>
      </trkpt>
      <trkpt lat="49.72947" lon="4.70502">
        <ele>178</ele>
        <time>2011-05-27T12:20:56Z</time>
      </trkpt>
      <trkpt lat="49.7295" lon="4.70498">
        <ele>179</ele>
        <time>2011-05-27T12:20:57Z</time>
      </trkpt>
      <trkpt lat="49.72952" lon="4.70494">
        <ele>179</ele>
        <time>2011-05-27T12:20:58Z</time>
      </trkpt>
      <trkpt lat="49.72954" lon="4.7049">
        <ele>179</ele>
        <time>2011-05-27T12:20:59Z</time>
      </trkpt>
      <trkpt lat="49.72956" lon="4.70486">
        <ele>179</ele>
        <time>2011-05-27T12:21:00Z</time>
      </trkpt>
      <trkpt lat="49.72958" lon="4.70482">
        <ele>179</ele>
        <time>2011-05-27T12:21:01Z</time>
      </trkpt>
      <trkpt lat="49.72961" lon="4.70478">
        <ele>179</ele>
        <time>2011-05-27T12:21:02Z</time>
      </trkpt>
      <trkpt lat="49.72963" lon="4.70474">
        <ele>179</ele>
        <time>2011-05-27T12:21:03Z</time>
      </trkpt>
      <trkpt lat="49.72965" lon="4.7047">
        <ele>179</ele>
        <time>2011-05-27T12:21:04Z</time>
      </trkpt>
      <trkpt lat="49.72968" lon="4.70466">
        <ele>179</ele>
        <time>2011-05-27T12:21:05Z</time>
      </trkpt>
      <trkpt lat="49.7297" lon="4.70462">
        <ele>179</ele>
        <time>2011-05-27T12:21:06Z</time>
      </trkpt>
      <trkpt lat="49.72972" lon="4.70458">
        <ele>179</ele>
        <time>2011-05-27T12:21:07Z</time>
      </trkpt>
      <trkpt lat="49.72974" lon="4.70454">
        <ele>179</ele>
        <time>2011-05-27T12:21:08Z</time>
      </trkpt>
      <trkpt lat="49.72977" lon="4.70449">
        <ele>179</ele>
        <time>2011-05-27T12:21:09Z</time>
      </trkpt>
      <trkpt lat="49.72979" lon="4.70446">
        <ele>179</ele>
        <time>2011-05-27T12:21:10Z</time>
      </trkpt>
      <trkpt lat="49.72982" lon="4.70442">
        <ele>180</ele>
        <time>2011-05-27T12:21:11Z</time>
      </trkpt>
      <trkpt lat="49.72984" lon="4.70439">
        <ele>180</ele>
        <time>2011-05-27T12:21:12Z</time>
      </trkpt>
      <trkpt lat="49.72987" lon="4.70435">
        <ele>180</ele>
        <time>2011-05-27T12:21:13Z</time>
      </trkpt>
      <trkpt lat="49.72989" lon="4.70433">
        <ele>180</ele>
        <time>2011-05-27T12:21:14Z</time>
      </trkpt>
      <trkpt lat="49.72991" lon="4.70429">
        <ele>180</ele>
        <time>2011-05-27T12:21:15Z</time>
      </trkpt>
      <trkpt lat="49.72994" lon="4.70426">
        <ele>180</ele>
        <time>2011-05-27T12:21:16Z</time>
      </trkpt>
      <trkpt lat="49.72997" lon="4.70424">
        <ele>180</ele>
        <time>2011-05-27T12:21:17Z</time>
      </trkpt>
      <trkpt lat="49.73" lon="4.70421">
        <ele>180</ele>
        <time>2011-05-27T12:21:18Z</time>
      </trkpt>
      <trkpt lat="49.73002" lon="4.70419">
        <ele>180</ele>
        <time>2011-05-27T12:21:19Z</time>
      </trkpt>
      <trkpt lat="49.73005" lon="4.70416">
        <ele>181</ele>
        <time>2011-05-27T12:21:20Z</time>
      </trkpt>
      <trkpt lat="49.73008" lon="4.70413">
        <ele>181</ele>
        <time>2011-05-27T12:21:21Z</time>
      </trkpt>
      <trkpt lat="49.7301" lon="4.7041">
        <ele>181</ele>
        <time>2011-05-27T12:21:22Z</time>
      </trkpt>
      <trkpt lat="49.73013" lon="4.70407">
        <ele>181</ele>
        <time>2011-05-27T12:21:23Z</time>
      </trkpt>
      <trkpt lat="49.73016" lon="4.70405">
        <ele>181</ele>
        <time>2011-05-27T12:21:24Z</time>
      </trkpt>
      <trkpt lat="49.73018" lon="4.70402">
        <ele>181</ele>
        <time>2011-05-27T12:21:25Z</time>
      </trkpt>
      <trkpt lat="49.73021" lon="4.704">
        <ele>182</ele>
        <time>2011-05-27T12:21:26Z</time>
      </trkpt>
      <trkpt lat="49.73024" lon="4.70397">
        <ele>182</ele>
        <time>2011-05-27T12:21:27Z</time>
      </trkpt>
      <trkpt lat="49.73026" lon="4.70395">
        <ele>182</ele>
        <time>2011-05-27T12:21:28Z</time>
      </trkpt>
      <trkpt lat="49.73029" lon="4.70392">
        <ele>182</ele>
        <time>2011-05-27T12:21:29Z</time>
      </trkpt>
      <trkpt lat="49.73031" lon="4.7039">
        <ele>182</ele>
        <time>2011-05-27T12:21:30Z</time>
      </trkpt>
      <trkpt lat="49.73034" lon="4.70387">
        <ele>182</ele>
        <time>2011-05-27T12:21:31Z</time>
      </trkpt>
      <trkpt lat="49.73037" lon="4.70384">
        <ele>182</ele>
        <time>2011-05-27T12:21:32Z</time>
      </trkpt>
      <trkpt lat="49.7304" lon="4.70382">
        <ele>182</ele>
        <time>2011-05-27T12:21:33Z</time>
      </trkpt>
      <trkpt lat="49.73042" lon="4.70379">
        <ele>182</ele>
        <time>2011-05-27T12:21:34Z</time>
      </trkpt>
      <trkpt lat="49.73045" lon="4.70377">
        <ele>182</ele>
        <time>2011-05-27T12:21:35Z</time>
      </trkpt>
      <trkpt lat="49.73047" lon="4.70374">
        <ele>182</ele>
        <time>2011-05-27T12:21:36Z</time>
      </trkpt>
      <trkpt lat="49.7305" lon="4.70372">
        <ele>182</ele>
        <time>2011-05-27T12:21:37Z</time>
      </trkpt>
      <trkpt lat="49.73051" lon="4.70369">
        <ele>182</ele>
        <time>2011-05-27T12:21:38Z</time>
      </trkpt>
      <trkpt lat="49.73053" lon="4.70365">
        <ele>182</ele>
        <time>2011-05-27T12:21:39Z</time>
      </trkpt>
      <trkpt lat="49.73053" lon="4.7036">
        <ele>182</ele>
        <time>2011-05-27T12:21:40Z</time>
      </trkpt>
      <trkpt lat="49.73052" lon="4.70356">
        <ele>182</ele>
        <time>2011-05-27T12:21:41Z</time>
      </trkpt>
      <trkpt lat="49.7305" lon="4.70351">
        <ele>182</ele>
        <time>2011-05-27T12:21:42Z</time>
      </trkpt>
      <trkpt lat="49.73047" lon="4.70348">
        <ele>182</ele>
        <time>2011-05-27T12:21:43Z</time>
      </trkpt>
      <trkpt lat="49.73043" lon="4.70346">
        <ele>182</ele>
        <time>2011-05-27T12:21:44Z</time>
      </trkpt>
      <trkpt lat="49.7304" lon="4.70344">
        <ele>182</ele>
        <time>2011-05-27T12:21:45Z</time>
      </trkpt>
      <trkpt lat="49.73035" lon="4.70342">
        <ele>182</ele>
        <time>2011-05-27T12:21:46Z</time>
      </trkpt>
      <trkpt lat="49.73031" lon="4.7034">
        <ele>182</ele>
        <time>2011-05-27T12:21:47Z</time>
      </trkpt>
      <trkpt lat="49.73027" lon="4.70338">
        <ele>182</ele>
        <time>2011-05-27T12:21:48Z</time>
      </trkpt>
      <trkpt lat="49.73022" lon="4.70335">
        <ele>182</ele>
        <time>2011-05-27T12:21:49Z</time>
      </trkpt>
      <trkpt lat="49.73017" lon="4.70332">
        <ele>182</ele>
        <time>2011-05-27T12:21:50Z</time>
      </trkpt>
      <trkpt lat="49.73012" lon="4.7033">
        <ele>182</ele>
        <time>2011-05-27T12:21:51Z</time>
      </trkpt>
      <trkpt lat="49.73007" lon="4.70327">
        <ele>182</ele>
        <time>2011-05-27T12:21:52Z</time>
      </trkpt>
      <trkpt lat="49.73002" lon="4.70324">
        <ele>182</ele>
        <time>2011-05-27T12:21:53Z</time>
      </trkpt>
      <trkpt lat="49.72997" lon="4.70321">
        <ele>182</ele>
        <time>2011-05-27T12:21:54Z</time>
      </trkpt>
      <trkpt lat="49.72992" lon="4.70318">
        <ele>182</ele>
        <time>2011-05-27T12:21:55Z</time>
      </trkpt>
      <trkpt lat="49.72986" lon="4.70315">
        <ele>182</ele>
        <time>2011-05-27T12:21:56Z</time>
      </trkpt>
      <trkpt lat="49.7298" lon="4.70312">
        <ele>182</ele>
        <time>2011-05-27T12:21:57Z</time>
      </trkpt>
      <trkpt lat="49.72975" lon="4.70309">
        <ele>182</ele>
        <time>2011-05-27T12:21:58Z</time>
      </trkpt>
      <trkpt lat="49.72969" lon="4.70305">
        <ele>182</ele>
        <time>2011-05-27T12:21:59Z</time>
      </trkpt>
      <trkpt lat="49.72963" lon="4.70302">
        <ele>182</ele>
        <time>2011-05-27T12:22:00Z</time>
      </trkpt>
      <trkpt lat="49.72957" lon="4.70298">
        <ele>182</ele>
        <time>2011-05-27T12:22:01Z</time>
      </trkpt>
      <trkpt lat="49.72952" lon="4.70295">
        <ele>182</ele>
        <time>2011-05-27T12:22:02Z</time>
      </trkpt>
      <trkpt lat="49.72946" lon="4.70292">
        <ele>182</ele>
        <time>2011-05-27T12:22:03Z</time>
      </trkpt>
      <trkpt lat="49.7294" lon="4.70289">
        <ele>181</ele>
        <time>2011-05-27T12:22:04Z</time>
      </trkpt>
      <trkpt lat="49.72934" lon="4.70285">
        <ele>181</ele>
        <time>2011-05-27T12:22:05Z</time>
      </trkpt>
      <trkpt lat="49.72928" lon="4.70282">
        <ele>181</ele>
        <time>2011-05-27T12:22:06Z</time>
      </trkpt>
      <trkpt lat="49.72923" lon="4.70278">
        <ele>180</ele>
        <time>2011-05-27T12:22:07Z</time>
      </trkpt>
      <trkpt lat="49.72916" lon="4.70275">
        <ele>180</ele>
        <time>2011-05-27T12:22:08Z</time>
      </trkpt>
      <trkpt lat="49.7291" lon="4.70272">
        <ele>180</ele>
        <time>2011-05-27T12:22:09Z</time>
      </trkpt>
      <trkpt lat="49.72903" lon="4.70268">
        <ele>179</ele>
        <time>2011-05-27T12:22:10Z</time>
      </trkpt>
      <trkpt lat="49.72896" lon="4.70265">
        <ele>179</ele>
        <time>2011-05-27T12:22:11Z</time>
      </trkpt>
      <trkpt lat="49.72889" lon="4.70261">
        <ele>178</ele>
        <time>2011-05-27T12:22:12Z</time>
      </trkpt>
      <trkpt lat="49.72881" lon="4.70258">
        <ele>178</ele>
        <time>2011-05-27T12:22:13Z</time>
      </trkpt>
      <trkpt lat="49.72873" lon="4.70255">
        <ele>177</ele>
        <time>2011-05-27T12:22:14Z</time>
      </trkpt>
      <trkpt lat="49.72865" lon="4.70253">
        <ele>177</ele>
        <time>2011-05-27T12:22:15Z</time>
      </trkpt>
      <trkpt lat="49.72858" lon="4.7025">
        <ele>176</ele>
        <time>2011-05-27T12:22:16Z</time>
      </trkpt>
      <trkpt lat="49.7285" lon="4.70248">
        <ele>176</ele>
        <time>2011-05-27T12:22:17Z</time>
      </trkpt>
      <trkpt lat="49.72842" lon="4.70246">
        <ele>175</ele>
        <time>2011-05-27T12:22:18Z</time>
      </trkpt>
      <trkpt lat="49.72835" lon="4.70244">
        <ele>175</ele>
        <time>2011-05-27T12:22:19Z</time>
      </trkpt>
      <trkpt lat="49.72827" lon="4.70241">
        <ele>174</ele>
        <time>2011-05-27T12:22:20Z</time>
      </trkpt>
      <trkpt lat="49.72819" lon="4.70239">
        <ele>174</ele>
        <time>2011-05-27T12:22:21Z</time>
      </trkpt>
      <trkpt lat="49.72811" lon="4.70236">
        <ele>173</ele>
        <time>2011-05-27T12:22:22Z</time>
      </trkpt>
      <trkpt lat="49.72803" lon="4.70233">
        <ele>173</ele>
        <time>2011-05-27T12:22:23Z</time>
      </trkpt>
      <trkpt lat="49.72797" lon="4.7023">
        <ele>172</ele>
        <time>2011-05-27T12:22:24Z</time>
      </trkpt>
      <trkpt lat="49.72791" lon="4.70227">
        <ele>171</ele>
        <time>2011-05-27T12:22:25Z</time>
      </trkpt>
      <trkpt lat="49.72786" lon="4.70226">
        <ele>171</ele>
        <time>2011-05-27T12:22:26Z</time>
      </trkpt>
      <trkpt lat="49.72782" lon="4.70226">
        <ele>170</ele>
        <time>2011-05-27T12:22:27Z</time>
      </trkpt>
      <trkpt lat="49.7278" lon="4.70226">
        <ele>170</ele>
        <time>2011-05-27T12:22:28Z</time>
      </trkpt>
      <trkpt lat="49.72778" lon="4.70226">
        <ele>169</ele>
        <time>2011-05-27T12:22:29Z</time>
      </trkpt>
      <trkpt lat="49.72776" lon="4.70226">
        <ele>169</ele>
        <time>2011-05-27T12:22:31Z</time>
      </trkpt>
      <trkpt lat="49.72774" lon="4.70226">
        <ele>169</ele>
        <time>2011-05-27T12:22:32Z</time>
      </trkpt>
      <trkpt lat="49.72772" lon="4.70226">
        <ele>169</ele>
        <time>2011-05-27T12:22:33Z</time>
      </trkpt>
      <trkpt lat="49.72768" lon="4.70226">
        <ele>169</ele>
        <time>2011-05-27T12:22:34Z</time>
      </trkpt>
      <trkpt lat="49.72764" lon="4.70227">
        <ele>169</ele>
        <time>2011-05-27T12:22:35Z</time>
      </trkpt>
      <trkpt lat="49.72759" lon="4.70227">
        <ele>168</ele>
        <time>2011-05-27T12:22:36Z</time>
      </trkpt>
      <trkpt lat="49.72754" lon="4.70226">
        <ele>168</ele>
        <time>2011-05-27T12:22:37Z</time>
      </trkpt>
      <trkpt lat="49.72748" lon="4.70226">
        <ele>168</ele>
        <time>2011-05-27T12:22:38Z</time>
      </trkpt>
      <trkpt lat="49.72743" lon="4.70225">
        <ele>167</ele>
        <time>2011-05-27T12:22:39Z</time>
      </trkpt>
      <trkpt lat="49.72739" lon="4.70224">
        <ele>167</ele>
        <time>2011-05-27T12:22:40Z</time>
      </trkpt>
      <trkpt lat="49.72735" lon="4.70223">
        <ele>167</ele>
        <time>2011-05-27T12:22:41Z</time>
      </trkpt>
      <trkpt lat="49.72731" lon="4.70222">
        <ele>167</ele>
        <time>2011-05-27T12:22:42Z</time>
      </trkpt>
      <trkpt lat="49.72726" lon="4.70222">
        <ele>167</ele>
        <time>2011-05-27T12:22:43Z</time>
      </trkpt>
      <trkpt lat="49.72722" lon="4.70222">
        <ele>167</ele>
        <time>2011-05-27T12:22:44Z</time>
      </trkpt>
      <trkpt lat="49.72718" lon="4.70221">
        <ele>167</ele>
        <time>2011-05-27T12:22:45Z</time>
      </trkpt>
      <trkpt lat="49.72713" lon="4.7022">
        <ele>167</ele>
        <time>2011-05-27T12:22:46Z</time>
      </trkpt>
      <trkpt lat="49.72709" lon="4.70219">
        <ele>167</ele>
        <time>2011-05-27T12:22:47Z</time>
      </trkpt>
      <trkpt lat="49.72704" lon="4.70217">
        <ele>167</ele>
        <time>2011-05-27T12:22:48Z</time>
      </trkpt>
      <trkpt lat="49.727" lon="4.70216">
        <ele>167</ele>
        <time>2011-05-27T12:22:49Z</time>
      </trkpt>
      <trkpt lat="49.72697" lon="4.70215">
        <ele>167</ele>
        <time>2011-05-27T12:22:50Z</time>
      </trkpt>
      <trkpt lat="49.72693" lon="4.70215">
        <ele>167</ele>
        <time>2011-05-27T12:22:51Z</time>
      </trkpt>
      <trkpt lat="49.7269" lon="4.70215">
        <ele>167</ele>
        <time>2011-05-27T12:22:52Z</time>
      </trkpt>
      <trkpt lat="49.72686" lon="4.70216">
        <ele>167</ele>
        <time>2011-05-27T12:22:53Z</time>
      </trkpt>
      <trkpt lat="49.72683" lon="4.70215">
        <ele>167</ele>
        <time>2011-05-27T12:22:54Z</time>
      </trkpt>
      <trkpt lat="49.72681" lon="4.70215">
        <ele>167</ele>
        <time>2011-05-27T12:22:55Z</time>
      </trkpt>
      <trkpt lat="49.72677" lon="4.70215">
        <ele>167</ele>
        <time>2011-05-27T12:22:56Z</time>
      </trkpt>
      <trkpt lat="49.72673" lon="4.70217">
        <ele>167</ele>
        <time>2011-05-27T12:22:57Z</time>
      </trkpt>
      <trkpt lat="49.72669" lon="4.70218">
        <ele>167</ele>
        <time>2011-05-27T12:22:58Z</time>
      </trkpt>
      <trkpt lat="49.72665" lon="4.70219">
        <ele>167</ele>
        <time>2011-05-27T12:22:59Z</time>
      </trkpt>
      <trkpt lat="49.72661" lon="4.70219">
        <ele>167</ele>
        <time>2011-05-27T12:23:00Z</time>
      </trkpt>
      <trkpt lat="49.72658" lon="4.70218">
        <ele>167</ele>
        <time>2011-05-27T12:23:01Z</time>
      </trkpt>
      <trkpt lat="49.72654" lon="4.70218">
        <ele>167</ele>
        <time>2011-05-27T12:23:02Z</time>
      </trkpt>
      <trkpt lat="49.72651" lon="4.70218">
        <ele>167</ele>
        <time>2011-05-27T12:23:03Z</time>
      </trkpt>
      <trkpt lat="49.72647" lon="4.70218">
        <ele>167</ele>
        <time>2011-05-27T12:23:04Z</time>
      </trkpt>
      <trkpt lat="49.72643" lon="4.70219">
        <ele>167</ele>
        <time>2011-05-27T12:23:05Z</time>
      </trkpt>
      <trkpt lat="49.72639" lon="4.7022">
        <ele>167</ele>
        <time>2011-05-27T12:23:06Z</time>
      </trkpt>
      <trkpt lat="49.72635" lon="4.7022">
        <ele>167</ele>
        <time>2011-05-27T12:23:07Z</time>
      </trkpt>
      <trkpt lat="49.72631" lon="4.70218">
        <ele>167</ele>
        <time>2011-05-27T12:23:08Z</time>
      </trkpt>
      <trkpt lat="49.72627" lon="4.70217">
        <ele>167</ele>
        <time>2011-05-27T12:23:09Z</time>
      </trkpt>
      <trkpt lat="49.72623" lon="4.70216">
        <ele>167</ele>
        <time>2011-05-27T12:23:10Z</time>
      </trkpt>
      <trkpt lat="49.7262" lon="4.70214">
        <ele>167</ele>
        <time>2011-05-27T12:23:11Z</time>
      </trkpt>
      <trkpt lat="49.72617" lon="4.70214">
        <ele>167</ele>
        <time>2011-05-27T12:23:12Z</time>
      </trkpt>
      <trkpt lat="49.72612" lon="4.70215">
        <ele>167</ele>
        <time>2011-05-27T12:23:13Z</time>
      </trkpt>
      <trkpt lat="49.72607" lon="4.70215">
        <ele>167</ele>
        <time>2011-05-27T12:23:14Z</time>
      </trkpt>
      <trkpt lat="49.72602" lon="4.70215">
        <ele>167</ele>
        <time>2011-05-27T12:23:15Z</time>
      </trkpt>
      <trkpt lat="49.72598" lon="4.70214">
        <ele>167</ele>
        <time>2011-05-27T12:23:16Z</time>
      </trkpt>
      <trkpt lat="49.72593" lon="4.70213">
        <ele>167</ele>
        <time>2011-05-27T12:23:17Z</time>
      </trkpt>
      <trkpt lat="49.72587" lon="4.70211">
        <ele>167</ele>
        <time>2011-05-27T12:23:18Z</time>
      </trkpt>
      <trkpt lat="49.72583" lon="4.70211">
        <ele>167</ele>
        <time>2011-05-27T12:23:19Z</time>
      </trkpt>
      <trkpt lat="49.72579" lon="4.7021">
        <ele>167</ele>
        <time>2011-05-27T12:23:20Z</time>
      </trkpt>
      <trkpt lat="49.72576" lon="4.7021">
        <ele>167</ele>
        <time>2011-05-27T12:23:21Z</time>
      </trkpt>
      <trkpt lat="49.72573" lon="4.70209">
        <ele>167</ele>
        <time>2011-05-27T12:23:22Z</time>
      </trkpt>
      <trkpt lat="49.7257" lon="4.70209">
        <ele>167</ele>
        <time>2011-05-27T12:23:23Z</time>
      </trkpt>
      <trkpt lat="49.72568" lon="4.70207">
        <ele>167</ele>
        <time>2011-05-27T12:23:24Z</time>
      </trkpt>
      <trkpt lat="49.72566" lon="4.70206">
        <ele>167</ele>
        <time>2011-05-27T12:23:25Z</time>
      </trkpt>
      <trkpt lat="49.72562" lon="4.70204">
        <ele>167</ele>
        <time>2011-05-27T12:23:26Z</time>
      </trkpt>
      <trkpt lat="49.72558" lon="4.70203">
        <ele>167</ele>
        <time>2011-05-27T12:23:27Z</time>
      </trkpt>
      <trkpt lat="49.72554" lon="4.70201">
        <ele>167</ele>
        <time>2011-05-27T12:23:28Z</time>
      </trkpt>
      <trkpt lat="49.72551" lon="4.70201">
        <ele>167</ele>
        <time>2011-05-27T12:23:29Z</time>
      </trkpt>
      <trkpt lat="49.72547" lon="4.702">
        <ele>167</ele>
        <time>2011-05-27T12:23:30Z</time>
      </trkpt>
      <trkpt lat="49.72543" lon="4.702">
        <ele>167</ele>
        <time>2011-05-27T12:23:31Z</time>
      </trkpt>
      <trkpt lat="49.7254" lon="4.70199">
        <ele>167</ele>
        <time>2011-05-27T12:23:32Z</time>
      </trkpt>
      <trkpt lat="49.72536" lon="4.70197">
        <ele>167</ele>
        <time>2011-05-27T12:23:33Z</time>
      </trkpt>
      <trkpt lat="49.72532" lon="4.70195">
        <ele>167</ele>
        <time>2011-05-27T12:23:34Z</time>
      </trkpt>
      <trkpt lat="49.72527" lon="4.70194">
        <ele>167</ele>
        <time>2011-05-27T12:23:35Z</time>
      </trkpt>
      <trkpt lat="49.72523" lon="4.70192">
        <ele>167</ele>
        <time>2011-05-27T12:23:36Z</time>
      </trkpt>
      <trkpt lat="49.72518" lon="4.70191">
        <ele>167</ele>
        <time>2011-05-27T12:23:37Z</time>
      </trkpt>
      <trkpt lat="49.72514" lon="4.7019">
        <ele>167</ele>
        <time>2011-05-27T12:23:38Z</time>
      </trkpt>
      <trkpt lat="49.72509" lon="4.70188">
        <ele>167</ele>
        <time>2011-05-27T12:23:39Z</time>
      </trkpt>
      <trkpt lat="49.72504" lon="4.70186">
        <ele>167</ele>
        <time>2011-05-27T12:23:40Z</time>
      </trkpt>
      <trkpt lat="49.72498" lon="4.70182">
        <ele>167</ele>
        <time>2011-05-27T12:23:41Z</time>
      </trkpt>
      <trkpt lat="49.72493" lon="4.70179">
        <ele>167</ele>
        <time>2011-05-27T12:23:42Z</time>
      </trkpt>
      <trkpt lat="49.72487" lon="4.70178">
        <ele>167</ele>
        <time>2011-05-27T12:23:43Z</time>
      </trkpt>
      <trkpt lat="49.72481" lon="4.70178">
        <ele>167</ele>
        <time>2011-05-27T12:23:44Z</time>
      </trkpt>
      <trkpt lat="49.72475" lon="4.70177">
        <ele>167</ele>
        <time>2011-05-27T12:23:45Z</time>
      </trkpt>
      <trkpt lat="49.72469" lon="4.70174">
        <ele>167</ele>
        <time>2011-05-27T12:23:46Z</time>
      </trkpt>
      <trkpt lat="49.72461" lon="4.70171">
        <ele>167</ele>
        <time>2011-05-27T12:23:47Z</time>
      </trkpt>
      <trkpt lat="49.72455" lon="4.70169">
        <ele>167</ele>
        <time>2011-05-27T12:23:48Z</time>
      </trkpt>
      <trkpt lat="49.72448" lon="4.70167">
        <ele>167</ele>
        <time>2011-05-27T12:23:49Z</time>
      </trkpt>
      <trkpt lat="49.72441" lon="4.70165">
        <ele>167</ele>
        <time>2011-05-27T12:23:50Z</time>
      </trkpt>
      <trkpt lat="49.72434" lon="4.7016">
        <ele>167</ele>
        <time>2011-05-27T12:23:51Z</time>
      </trkpt>
      <trkpt lat="49.72427" lon="4.70156">
        <ele>167</ele>
        <time>2011-05-27T12:23:52Z</time>
      </trkpt>
      <trkpt lat="49.72421" lon="4.70153">
        <ele>167</ele>
        <time>2011-05-27T12:23:53Z</time>
      </trkpt>
      <trkpt lat="49.72414" lon="4.7015">
        <ele>167</ele>
        <time>2011-05-27T12:23:54Z</time>
      </trkpt>
      <trkpt lat="49.72406" lon="4.70148">
        <ele>167</ele>
        <time>2011-05-27T12:23:55Z</time>
      </trkpt>
      <trkpt lat="49.724" lon="4.70143">
        <ele>167</ele>
        <time>2011-05-27T12:23:56Z</time>
      </trkpt>
      <trkpt lat="49.72393" lon="4.70138">
        <ele>167</ele>
        <time>2011-05-27T12:23:57Z</time>
      </trkpt>
      <trkpt lat="49.72385" lon="4.70132">
        <ele>167</ele>
        <time>2011-05-27T12:23:58Z</time>
      </trkpt>
      <trkpt lat="49.72379" lon="4.70126">
        <ele>167</ele>
        <time>2011-05-27T12:23:59Z</time>
      </trkpt>
      <trkpt lat="49.72374" lon="4.7012">
        <ele>167</ele>
        <time>2011-05-27T12:24:00Z</time>
      </trkpt>
      <trkpt lat="49.72369" lon="4.70114">
        <ele>167</ele>
        <time>2011-05-27T12:24:01Z</time>
      </trkpt>
      <trkpt lat="49.72364" lon="4.70107">
        <ele>167</ele>
        <time>2011-05-27T12:24:02Z</time>
      </trkpt>
      <trkpt lat="49.72361" lon="4.701">
        <ele>166</ele>
        <time>2011-05-27T12:24:03Z</time>
      </trkpt>
      <trkpt lat="49.72358" lon="4.70091">
        <ele>165</ele>
        <time>2011-05-27T12:24:04Z</time>
      </trkpt>
      <trkpt lat="49.72356" lon="4.70084">
        <ele>164</ele>
        <time>2011-05-27T12:24:05Z</time>
      </trkpt>
      <trkpt lat="49.72353" lon="4.70078">
        <ele>164</ele>
        <time>2011-05-27T12:24:06Z</time>
      </trkpt>
      <trkpt lat="49.72349" lon="4.70072">
        <ele>163</ele>
        <time>2011-05-27T12:24:07Z</time>
      </trkpt>
      <trkpt lat="49.72345" lon="4.70066">
        <ele>163</ele>
        <time>2011-05-27T12:24:08Z</time>
      </trkpt>
      <trkpt lat="49.72341" lon="4.7006">
        <ele>163</ele>
        <time>2011-05-27T12:24:09Z</time>
      </trkpt>
      <trkpt lat="49.72337" lon="4.70053">
        <ele>162</ele>
        <time>2011-05-27T12:24:10Z</time>
      </trkpt>
      <trkpt lat="49.72333" lon="4.70047">
        <ele>162</ele>
        <time>2011-05-27T12:24:11Z</time>
      </trkpt>
      <trkpt lat="49.72329" lon="4.70041">
        <ele>162</ele>
        <time>2011-05-27T12:24:12Z</time>
      </trkpt>
      <trkpt lat="49.72325" lon="4.70035">
        <ele>162</ele>
        <time>2011-05-27T12:24:13Z</time>
      </trkpt>
      <trkpt lat="49.72321" lon="4.70029">
        <ele>162</ele>
        <time>2011-05-27T12:24:14Z</time>
      </trkpt>
      <trkpt lat="49.72317" lon="4.70023">
        <ele>162</ele>
        <time>2011-05-27T12:24:15Z</time>
      </trkpt>
      <trkpt lat="49.72313" lon="4.70017">
        <ele>162</ele>
        <time>2011-05-27T12:24:16Z</time>
      </trkpt>
      <trkpt lat="49.72308" lon="4.70012">
        <ele>162</ele>
        <time>2011-05-27T12:24:17Z</time>
      </trkpt>
      <trkpt lat="49.72304" lon="4.70006">
        <ele>162</ele>
        <time>2011-05-27T12:24:18Z</time>
      </trkpt>
      <trkpt lat="49.723" lon="4.70001">
        <ele>162</ele>
        <time>2011-05-27T12:24:19Z</time>
      </trkpt>
      <trkpt lat="49.72296" lon="4.69995">
        <ele>162</ele>
        <time>2011-05-27T12:24:20Z</time>
      </trkpt>
      <trkpt lat="49.72291" lon="4.6999">
        <ele>162</ele>
        <time>2011-05-27T12:24:21Z</time>
      </trkpt>
      <trkpt lat="49.72287" lon="4.69985">
        <ele>162</ele>
        <time>2011-05-27T12:24:22Z</time>
      </trkpt>
      <trkpt lat="49.72282" lon="4.6998">
        <ele>162</ele>
        <time>2011-05-27T12:24:23Z</time>
      </trkpt>
      <trkpt lat="49.72278" lon="4.69975">
        <ele>162</ele>
        <time>2011-05-27T12:24:24Z</time>
      </trkpt>
      <trkpt lat="49.72274" lon="4.6997">
        <ele>162</ele>
        <time>2011-05-27T12:24:25Z</time>
      </trkpt>
      <trkpt lat="49.72269" lon="4.69966">
        <ele>162</ele>
        <time>2011-05-27T12:24:26Z</time>
      </trkpt>
      <trkpt lat="49.72264" lon="4.69961">
        <ele>162</ele>
        <time>2011-05-27T12:24:27Z</time>
      </trkpt>
      <trkpt lat="49.7226" lon="4.69957">
        <ele>162</ele>
        <time>2011-05-27T12:24:28Z</time>
      </trkpt>
      <trkpt lat="49.72255" lon="4.69953">
        <ele>162</ele>
        <time>2011-05-27T12:24:29Z</time>
      </trkpt>
      <trkpt lat="49.72251" lon="4.69949">
        <ele>162</ele>
        <time>2011-05-27T12:24:30Z</time>
      </trkpt>
      <trkpt lat="49.72247" lon="4.69945">
        <ele>162</ele>
        <time>2011-05-27T12:24:31Z</time>
      </trkpt>
      <trkpt lat="49.72242" lon="4.69941">
        <ele>162</ele>
        <time>2011-05-27T12:24:32Z</time>
      </trkpt>
      <trkpt lat="49.72238" lon="4.69938">
        <ele>162</ele>
        <time>2011-05-27T12:24:33Z</time>
      </trkpt>
      <trkpt lat="49.72234" lon="4.69934">
        <ele>162</ele>
        <time>2011-05-27T12:24:34Z</time>
      </trkpt>
      <trkpt lat="49.72229" lon="4.6993">
        <ele>162</ele>
        <time>2011-05-27T12:24:35Z</time>
      </trkpt>
      <trkpt lat="49.72226" lon="4.69927">
        <ele>162</ele>
        <time>2011-05-27T12:24:36Z</time>
      </trkpt>
      <trkpt lat="49.72222" lon="4.69924">
        <ele>162</ele>
        <time>2011-05-27T12:24:37Z</time>
      </trkpt>
      <trkpt lat="49.72218" lon="4.69921">
        <ele>162</ele>
        <time>2011-05-27T12:24:38Z</time>
      </trkpt>
      <trkpt lat="49.72214" lon="4.69918">
        <ele>162</ele>
        <time>2011-05-27T12:24:39Z</time>
      </trkpt>
      <trkpt lat="49.72211" lon="4.69915">
        <ele>162</ele>
        <time>2011-05-27T12:24:40Z</time>
      </trkpt>
      <trkpt lat="49.72207" lon="4.69912">
        <ele>162</ele>
        <time>2011-05-27T12:24:41Z</time>
      </trkpt>
      <trkpt lat="49.72203" lon="4.69909">
        <ele>162</ele>
        <time>2011-05-27T12:24:42Z</time>
      </trkpt>
      <trkpt lat="49.722" lon="4.69906">
        <ele>162</ele>
        <time>2011-05-27T12:24:43Z</time>
      </trkpt>
      <trkpt lat="49.72197" lon="4.69903">
        <ele>162</ele>
        <time>2011-05-27T12:24:44Z</time>
      </trkpt>
      <trkpt lat="49.72193" lon="4.699">
        <ele>162</ele>
        <time>2011-05-27T12:24:45Z</time>
      </trkpt>
      <trkpt lat="49.7219" lon="4.69897">
        <ele>163</ele>
        <time>2011-05-27T12:24:46Z</time>
      </trkpt>
      <trkpt lat="49.72186" lon="4.69893">
        <ele>163</ele>
        <time>2011-05-27T12:24:47Z</time>
      </trkpt>
      <trkpt lat="49.72183" lon="4.6989">
        <ele>163</ele>
        <time>2011-05-27T12:24:48Z</time>
      </trkpt>
      <trkpt lat="49.7218" lon="4.69886">
        <ele>164</ele>
        <time>2011-05-27T12:24:49Z</time>
      </trkpt>
      <trkpt lat="49.72177" lon="4.69883">
        <ele>164</ele>
        <time>2011-05-27T12:24:50Z</time>
      </trkpt>
      <trkpt lat="49.72174" lon="4.69879">
        <ele>164</ele>
        <time>2011-05-27T12:24:51Z</time>
      </trkpt>
      <trkpt lat="49.72171" lon="4.69875">
        <ele>164</ele>
        <time>2011-05-27T12:24:52Z</time>
      </trkpt>
      <trkpt lat="49.72168" lon="4.69872">
        <ele>165</ele>
        <time>2011-05-27T12:24:53Z</time>
      </trkpt>
      <trkpt lat="49.72166" lon="4.69868">
        <ele>165</ele>
        <time>2011-05-27T12:24:54Z</time>
      </trkpt>
      <trkpt lat="49.72163" lon="4.69864">
        <ele>165</ele>
        <time>2011-05-27T12:24:55Z</time>
      </trkpt>
      <trkpt lat="49.72161" lon="4.69861">
        <ele>165</ele>
        <time>2011-05-27T12:24:56Z</time>
      </trkpt>
      <trkpt lat="49.72159" lon="4.69858">
        <ele>166</ele>
        <time>2011-05-27T12:24:57Z</time>
      </trkpt>
      <trkpt lat="49.72156" lon="4.69855">
        <ele>166</ele>
        <time>2011-05-27T12:24:58Z</time>
      </trkpt>
      <trkpt lat="49.72154" lon="4.69851">
        <ele>166</ele>
        <time>2011-05-27T12:24:59Z</time>
      </trkpt>
      <trkpt lat="49.72151" lon="4.69848">
        <ele>166</ele>
        <time>2011-05-27T12:25:00Z</time>
      </trkpt>
      <trkpt lat="49.72148" lon="4.69844">
        <ele>167</ele>
        <time>2011-05-27T12:25:01Z</time>
      </trkpt>
      <trkpt lat="49.72145" lon="4.6984">
        <ele>167</ele>
        <time>2011-05-27T12:25:02Z</time>
      </trkpt>
      <trkpt lat="49.72142" lon="4.69836">
        <ele>167</ele>
        <time>2011-05-27T12:25:03Z</time>
      </trkpt>
      <trkpt lat="49.72139" lon="4.69832">
        <ele>167</ele>
        <time>2011-05-27T12:25:04Z</time>
      </trkpt>
      <trkpt lat="49.72136" lon="4.69828">
        <ele>167</ele>
        <time>2011-05-27T12:25:05Z</time>
      </trkpt>
      <trkpt lat="49.72133" lon="4.69824">
        <ele>168</ele>
        <time>2011-05-27T12:25:06Z</time>
      </trkpt>
      <trkpt lat="49.72129" lon="4.6982">
        <ele>168</ele>
        <time>2011-05-27T12:25:07Z</time>
      </trkpt>
      <trkpt lat="49.72126" lon="4.69816">
        <ele>168</ele>
        <time>2011-05-27T12:25:08Z</time>
      </trkpt>
      <trkpt lat="49.72123" lon="4.69811">
        <ele>168</ele>
        <time>2011-05-27T12:25:09Z</time>
      </trkpt>
      <trkpt lat="49.7212" lon="4.69806">
        <ele>168</ele>
        <time>2011-05-27T12:25:10Z</time>
      </trkpt>
      <trkpt lat="49.72117" lon="4.69801">
        <ele>168</ele>
        <time>2011-05-27T12:25:11Z</time>
      </trkpt>
      <trkpt lat="49.72115" lon="4.69795">
        <ele>169</ele>
        <time>2011-05-27T12:25:12Z</time>
      </trkpt>
      <trkpt lat="49.72112" lon="4.69789">
        <ele>169</ele>
        <time>2011-05-27T12:25:13Z</time>
      </trkpt>
      <trkpt lat="49.7211" lon="4.69783">
        <ele>169</ele>
        <time>2011-05-27T12:25:14Z</time>
      </trkpt>
      <trkpt lat="49.72109" lon="4.69777">
        <ele>170</ele>
        <time>2011-05-27T12:25:15Z</time>
      </trkpt>
      <trkpt lat="49.72107" lon="4.69772">
        <ele>171</ele>
        <time>2011-05-27T12:25:16Z</time>
      </trkpt>
      <trkpt lat="49.72105" lon="4.69765">
        <ele>172</ele>
        <time>2011-05-27T12:25:17Z</time>
      </trkpt>
      <trkpt lat="49.72103" lon="4.69758">
        <ele>172</ele>
        <time>2011-05-27T12:25:18Z</time>
      </trkpt>
      <trkpt lat="49.72102" lon="4.69752">
        <ele>173</ele>
        <time>2011-05-27T12:25:19Z</time>
      </trkpt>
      <trkpt lat="49.721" lon="4.69745">
        <ele>174</ele>
        <time>2011-05-27T12:25:20Z</time>
      </trkpt>
      <trkpt lat="49.72098" lon="4.69739">
        <ele>175</ele>
        <time>2011-05-27T12:25:21Z</time>
      </trkpt>
      <trkpt lat="49.72096" lon="4.69734">
        <ele>175</ele>
        <time>2011-05-27T12:25:22Z</time>
      </trkpt>
      <trkpt lat="49.72094" lon="4.69728">
        <ele>176</ele>
        <time>2011-05-27T12:25:23Z</time>
      </trkpt>
      <trkpt lat="49.72092" lon="4.69721">
        <ele>176</ele>
        <time>2011-05-27T12:25:24Z</time>
      </trkpt>
      <trkpt lat="49.7209" lon="4.69715">
        <ele>176</ele>
        <time>2011-05-27T12:25:25Z</time>
      </trkpt>
      <trkpt lat="49.72088" lon="4.69708">
        <ele>176</ele>
        <time>2011-05-27T12:25:26Z</time>
      </trkpt>
      <trkpt lat="49.72085" lon="4.69702">
        <ele>177</ele>
        <time>2011-05-27T12:25:27Z</time>
      </trkpt>
      <trkpt lat="49.72083" lon="4.69695">
        <ele>177</ele>
        <time>2011-05-27T12:25:28Z</time>
      </trkpt>
      <trkpt lat="49.7208" lon="4.69689">
        <ele>177</ele>
        <time>2011-05-27T12:25:29Z</time>
      </trkpt>
      <trkpt lat="49.72078" lon="4.69682">
        <ele>177</ele>
        <time>2011-05-27T12:25:30Z</time>
      </trkpt>
      <trkpt lat="49.72076" lon="4.69676">
        <ele>177</ele>
        <time>2011-05-27T12:25:31Z</time>
      </trkpt>
      <trkpt lat="49.72073" lon="4.6967">
        <ele>177</ele>
        <time>2011-05-27T12:25:32Z</time>
      </trkpt>
      <trkpt lat="49.72071" lon="4.69664">
        <ele>177</ele>
        <time>2011-05-27T12:25:33Z</time>
      </trkpt>
      <trkpt lat="49.72068" lon="4.69659">
        <ele>177</ele>
        <time>2011-05-27T12:25:34Z</time>
      </trkpt>
      <trkpt lat="49.72066" lon="4.69653">
        <ele>177</ele>
        <time>2011-05-27T12:25:35Z</time>
      </trkpt>
      <trkpt lat="49.72063" lon="4.69646">
        <ele>177</ele>
        <time>2011-05-27T12:25:36Z</time>
      </trkpt>
      <trkpt lat="49.72061" lon="4.6964">
        <ele>177</ele>
        <time>2011-05-27T12:25:37Z</time>
      </trkpt>
      <trkpt lat="49.72058" lon="4.69633">
        <ele>177</ele>
        <time>2011-05-27T12:25:38Z</time>
      </trkpt>
      <trkpt lat="49.72056" lon="4.69626">
        <ele>177</ele>
        <time>2011-05-27T12:25:39Z</time>
      </trkpt>
      <trkpt lat="49.72054" lon="4.6962">
        <ele>178</ele>
        <time>2011-05-27T12:25:40Z</time>
      </trkpt>
      <trkpt lat="49.72051" lon="4.69613">
        <ele>178</ele>
        <time>2011-05-27T12:25:41Z</time>
      </trkpt>
      <trkpt lat="49.72049" lon="4.69605">
        <ele>178</ele>
        <time>2011-05-27T12:25:42Z</time>
      </trkpt>
      <trkpt lat="49.72046" lon="4.69598">
        <ele>178</ele>
        <time>2011-05-27T12:25:43Z</time>
      </trkpt>
      <trkpt lat="49.72044" lon="4.69591">
        <ele>178</ele>
        <time>2011-05-27T12:25:44Z</time>
      </trkpt>
      <trkpt lat="49.72041" lon="4.69584">
        <ele>178</ele>
        <time>2011-05-27T12:25:45Z</time>
      </trkpt>
      <trkpt lat="49.72039" lon="4.69577">
        <ele>178</ele>
        <time>2011-05-27T12:25:46Z</time>
      </trkpt>
      <trkpt lat="49.72037" lon="4.6957">
        <ele>178</ele>
        <time>2011-05-27T12:25:47Z</time>
      </trkpt>
      <trkpt lat="49.72035" lon="4.69563">
        <ele>178</ele>
        <time>2011-05-27T12:25:48Z</time>
      </trkpt>
      <trkpt lat="49.72033" lon="4.69557">
        <ele>178</ele>
        <time>2011-05-27T12:25:49Z</time>
      </trkpt>
      <trkpt lat="49.7203" lon="4.6955">
        <ele>178</ele>
        <time>2011-05-27T12:25:50Z</time>
      </trkpt>
      <trkpt lat="49.72029" lon="4.69543">
        <ele>178</ele>
        <time>2011-05-27T12:25:51Z</time>
      </trkpt>
      <trkpt lat="49.72026" lon="4.69536">
        <ele>178</ele>
        <time>2011-05-27T12:25:52Z</time>
      </trkpt>
      <trkpt lat="49.72024" lon="4.6953">
        <ele>178</ele>
        <time>2011-05-27T12:25:53Z</time>
      </trkpt>
      <trkpt lat="49.72022" lon="4.69522">
        <ele>178</ele>
        <time>2011-05-27T12:25:54Z</time>
      </trkpt>
      <trkpt lat="49.7202" lon="4.69516">
        <ele>179</ele>
        <time>2011-05-27T12:25:55Z</time>
      </trkpt>
      <trkpt lat="49.72017" lon="4.69508">
        <ele>179</ele>
        <time>2011-05-27T12:25:56Z</time>
      </trkpt>
      <trkpt lat="49.72015" lon="4.69501">
        <ele>179</ele>
        <time>2011-05-27T12:25:57Z</time>
      </trkpt>
      <trkpt lat="49.72012" lon="4.69494">
        <ele>179</ele>
        <time>2011-05-27T12:25:58Z</time>
      </trkpt>
      <trkpt lat="49.7201" lon="4.69487">
        <ele>180</ele>
        <time>2011-05-27T12:25:59Z</time>
      </trkpt>
      <trkpt lat="49.72009" lon="4.69481">
        <ele>180</ele>
        <time>2011-05-27T12:26:00Z</time>
      </trkpt>
      <trkpt lat="49.72007" lon="4.69474">
        <ele>180</ele>
        <time>2011-05-27T12:26:01Z</time>
      </trkpt>
      <trkpt lat="49.72004" lon="4.69466">
        <ele>180</ele>
        <time>2011-05-27T12:26:02Z</time>
      </trkpt>
      <trkpt lat="49.72001" lon="4.6946">
        <ele>180</ele>
        <time>2011-05-27T12:26:03Z</time>
      </trkpt>
      <trkpt lat="49.71999" lon="4.69453">
        <ele>180</ele>
        <time>2011-05-27T12:26:04Z</time>
      </trkpt>
      <trkpt lat="49.71996" lon="4.69445">
        <ele>180</ele>
        <time>2011-05-27T12:26:05Z</time>
      </trkpt>
      <trkpt lat="49.71993" lon="4.69438">
        <ele>181</ele>
        <time>2011-05-27T12:26:06Z</time>
      </trkpt>
      <trkpt lat="49.71991" lon="4.6943">
        <ele>181</ele>
        <time>2011-05-27T12:26:07Z</time>
      </trkpt>
      <trkpt lat="49.71988" lon="4.69423">
        <ele>181</ele>
        <time>2011-05-27T12:26:08Z</time>
      </trkpt>
      <trkpt lat="49.71986" lon="4.69416">
        <ele>181</ele>
        <time>2011-05-27T12:26:09Z</time>
      </trkpt>
      <trkpt lat="49.71983" lon="4.69408">
        <ele>181</ele>
        <time>2011-05-27T12:26:10Z</time>
      </trkpt>
      <trkpt lat="49.7198" lon="4.69401">
        <ele>181</ele>
        <time>2011-05-27T12:26:11Z</time>
      </trkpt>
      <trkpt lat="49.71978" lon="4.69393">
        <ele>181</ele>
        <time>2011-05-27T12:26:12Z</time>
      </trkpt>
      <trkpt lat="49.71975" lon="4.69386">
        <ele>181</ele>
        <time>2011-05-27T12:26:13Z</time>
      </trkpt>
      <trkpt lat="49.71972" lon="4.69379">
        <ele>181</ele>
        <time>2011-05-27T12:26:14Z</time>
      </trkpt>
      <trkpt lat="49.7197" lon="4.69371">
        <ele>181</ele>
        <time>2011-05-27T12:26:15Z</time>
      </trkpt>
      <trkpt lat="49.71967" lon="4.69363">
        <ele>181</ele>
        <time>2011-05-27T12:26:16Z</time>
      </trkpt>
      <trkpt lat="49.71964" lon="4.69356">
        <ele>181</ele>
        <time>2011-05-27T12:26:17Z</time>
      </trkpt>
      <trkpt lat="49.71961" lon="4.69348">
        <ele>181</ele>
        <time>2011-05-27T12:26:18Z</time>
      </trkpt>
      <trkpt lat="49.71959" lon="4.6934">
        <ele>181</ele>
        <time>2011-05-27T12:26:19Z</time>
      </trkpt>
      <trkpt lat="49.71956" lon="4.69333">
        <ele>181</ele>
        <time>2011-05-27T12:26:20Z</time>
      </trkpt>
      <trkpt lat="49.71953" lon="4.69325">
        <ele>181</ele>
        <time>2011-05-27T12:26:21Z</time>
      </trkpt>
      <trkpt lat="49.7195" lon="4.69317">
        <ele>181</ele>
        <time>2011-05-27T12:26:22Z</time>
      </trkpt>
      <trkpt lat="49.71947" lon="4.69309">
        <ele>181</ele>
        <time>2011-05-27T12:26:23Z</time>
      </trkpt>
      <trkpt lat="49.71945" lon="4.69301">
        <ele>181</ele>
        <time>2011-05-27T12:26:24Z</time>
      </trkpt>
      <trkpt lat="49.71942" lon="4.69293">
        <ele>181</ele>
        <time>2011-05-27T12:26:25Z</time>
      </trkpt>
      <trkpt lat="49.71939" lon="4.69285">
        <ele>181</ele>
        <time>2011-05-27T12:26:26Z</time>
      </trkpt>
      <trkpt lat="49.71936" lon="4.69278">
        <ele>181</ele>
        <time>2011-05-27T12:26:27Z</time>
      </trkpt>
      <trkpt lat="49.71933" lon="4.6927">
        <ele>181</ele>
        <time>2011-05-27T12:26:28Z</time>
      </trkpt>
      <trkpt lat="49.7193" lon="4.69262">
        <ele>181</ele>
        <time>2011-05-27T12:26:29Z</time>
      </trkpt>
      <trkpt lat="49.71927" lon="4.69254">
        <ele>181</ele>
        <time>2011-05-27T12:26:30Z</time>
      </trkpt>
      <trkpt lat="49.71924" lon="4.69247">
        <ele>181</ele>
        <time>2011-05-27T12:26:31Z</time>
      </trkpt>
      <trkpt lat="49.71921" lon="4.69239">
        <ele>181</ele>
        <time>2011-05-27T12:26:32Z</time>
      </trkpt>
      <trkpt lat="49.71918" lon="4.69231">
        <ele>181</ele>
        <time>2011-05-27T12:26:33Z</time>
      </trkpt>
      <trkpt lat="49.71916" lon="4.69223">
        <ele>181</ele>
        <time>2011-05-27T12:26:34Z</time>
      </trkpt>
      <trkpt lat="49.71913" lon="4.69215">
        <ele>181</ele>
        <time>2011-05-27T12:26:35Z</time>
      </trkpt>
      <trkpt lat="49.7191" lon="4.69208">
        <ele>181</ele>
        <time>2011-05-27T12:26:36Z</time>
      </trkpt>
      <trkpt lat="49.71907" lon="4.692">
        <ele>181</ele>
        <time>2011-05-27T12:26:37Z</time>
      </trkpt>
      <trkpt lat="49.71904" lon="4.69192">
        <ele>181</ele>
        <time>2011-05-27T12:26:38Z</time>
      </trkpt>
      <trkpt lat="49.71902" lon="4.69184">
        <ele>181</ele>
        <time>2011-05-27T12:26:39Z</time>
      </trkpt>
      <trkpt lat="49.71899" lon="4.69176">
        <ele>181</ele>
        <time>2011-05-27T12:26:40Z</time>
      </trkpt>
      <trkpt lat="49.71896" lon="4.69169">
        <ele>181</ele>
        <time>2011-05-27T12:26:41Z</time>
      </trkpt>
      <trkpt lat="49.71893" lon="4.6916">
        <ele>181</ele>
        <time>2011-05-27T12:26:42Z</time>
      </trkpt>
      <trkpt lat="49.71891" lon="4.69152">
        <ele>181</ele>
        <time>2011-05-27T12:26:43Z</time>
      </trkpt>
      <trkpt lat="49.71888" lon="4.69143">
        <ele>181</ele>
        <time>2011-05-27T12:26:44Z</time>
      </trkpt>
      <trkpt lat="49.71885" lon="4.69135">
        <ele>181</ele>
        <time>2011-05-27T12:26:45Z</time>
      </trkpt>
      <trkpt lat="49.71882" lon="4.69127">
        <ele>181</ele>
        <time>2011-05-27T12:26:46Z</time>
      </trkpt>
      <trkpt lat="49.71879" lon="4.69118">
        <ele>181</ele>
        <time>2011-05-27T12:26:47Z</time>
      </trkpt>
      <trkpt lat="49.71876" lon="4.6911">
        <ele>181</ele>
        <time>2011-05-27T12:26:48Z</time>
      </trkpt>
      <trkpt lat="49.71873" lon="4.69101">
        <ele>181</ele>
        <time>2011-05-27T12:26:49Z</time>
      </trkpt>
      <trkpt lat="49.7187" lon="4.69093">
        <ele>181</ele>
        <time>2011-05-27T12:26:50Z</time>
      </trkpt>
      <trkpt lat="49.71867" lon="4.69085">
        <ele>181</ele>
        <time>2011-05-27T12:26:51Z</time>
      </trkpt>
      <trkpt lat="49.71864" lon="4.69076">
        <ele>181</ele>
        <time>2011-05-27T12:26:52Z</time>
      </trkpt>
      <trkpt lat="49.71861" lon="4.69068">
        <ele>181</ele>
        <time>2011-05-27T12:26:53Z</time>
      </trkpt>
      <trkpt lat="49.71857" lon="4.6906">
        <ele>181</ele>
        <time>2011-05-27T12:26:54Z</time>
      </trkpt>
      <trkpt lat="49.71854" lon="4.69052">
        <ele>181</ele>
        <time>2011-05-27T12:26:55Z</time>
      </trkpt>
      <trkpt lat="49.71852" lon="4.69044">
        <ele>181</ele>
        <time>2011-05-27T12:26:56Z</time>
      </trkpt>
      <trkpt lat="49.71849" lon="4.69036">
        <ele>181</ele>
        <time>2011-05-27T12:26:57Z</time>
      </trkpt>
      <trkpt lat="49.71846" lon="4.69029">
        <ele>181</ele>
        <time>2011-05-27T12:26:58Z</time>
      </trkpt>
      <trkpt lat="49.71844" lon="4.69021">
        <ele>181</ele>
        <time>2011-05-27T12:26:59Z</time>
      </trkpt>
      <trkpt lat="49.71841" lon="4.69013">
        <ele>181</ele>
        <time>2011-05-27T12:27:00Z</time>
      </trkpt>
      <trkpt lat="49.71838" lon="4.69005">
        <ele>181</ele>
        <time>2011-05-27T12:27:01Z</time>
      </trkpt>
      <trkpt lat="49.71835" lon="4.68998">
        <ele>181</ele>
        <time>2011-05-27T12:27:02Z</time>
      </trkpt>
      <trkpt lat="49.71833" lon="4.6899">
        <ele>181</ele>
        <time>2011-05-27T12:27:03Z</time>
      </trkpt>
      <trkpt lat="49.7183" lon="4.68983">
        <ele>181</ele>
        <time>2011-05-27T12:27:04Z</time>
      </trkpt>
      <trkpt lat="49.71828" lon="4.68975">
        <ele>181</ele>
        <time>2011-05-27T12:27:05Z</time>
      </trkpt>
      <trkpt lat="49.71825" lon="4.68968">
        <ele>181</ele>
        <time>2011-05-27T12:27:06Z</time>
      </trkpt>
      <trkpt lat="49.71822" lon="4.68961">
        <ele>181</ele>
        <time>2011-05-27T12:27:07Z</time>
      </trkpt>
      <trkpt lat="49.7182" lon="4.68953">
        <ele>181</ele>
        <time>2011-05-27T12:27:08Z</time>
      </trkpt>
      <trkpt lat="49.71817" lon="4.68946">
        <ele>181</ele>
        <time>2011-05-27T12:27:09Z</time>
      </trkpt>
      <trkpt lat="49.71815" lon="4.68939">
        <ele>181</ele>
        <time>2011-05-27T12:27:10Z</time>
      </trkpt>
      <trkpt lat="49.71812" lon="4.68932">
        <ele>181</ele>
        <time>2011-05-27T12:27:11Z</time>
      </trkpt>
      <trkpt lat="49.7181" lon="4.68925">
        <ele>181</ele>
        <time>2011-05-27T12:27:12Z</time>
      </trkpt>
      <trkpt lat="49.71807" lon="4.68918">
        <ele>181</ele>
        <time>2011-05-27T12:27:13Z</time>
      </trkpt>
      <trkpt lat="49.71805" lon="4.6891">
        <ele>181</ele>
        <time>2011-05-27T12:27:14Z</time>
      </trkpt>
      <trkpt lat="49.71802" lon="4.68903">
        <ele>181</ele>
        <time>2011-05-27T12:27:15Z</time>
      </trkpt>
      <trkpt lat="49.71799" lon="4.68896">
        <ele>181</ele>
        <time>2011-05-27T12:27:16Z</time>
      </trkpt>
      <trkpt lat="49.71797" lon="4.68889">
        <ele>181</ele>
        <time>2011-05-27T12:27:17Z</time>
      </trkpt>
      <trkpt lat="49.71794" lon="4.68882">
        <ele>181</ele>
        <time>2011-05-27T12:27:18Z</time>
      </trkpt>
      <trkpt lat="49.71792" lon="4.68875">
        <ele>182</ele>
        <time>2011-05-27T12:27:19Z</time>
      </trkpt>
      <trkpt lat="49.71789" lon="4.68867">
        <ele>182</ele>
        <time>2011-05-27T12:27:20Z</time>
      </trkpt>
      <trkpt lat="49.71787" lon="4.6886">
        <ele>182</ele>
        <time>2011-05-27T12:27:21Z</time>
      </trkpt>
      <trkpt lat="49.71784" lon="4.68853">
        <ele>182</ele>
        <time>2011-05-27T12:27:22Z</time>
      </trkpt>
      <trkpt lat="49.71782" lon="4.68845">
        <ele>183</ele>
        <time>2011-05-27T12:27:23Z</time>
      </trkpt>
      <trkpt lat="49.71779" lon="4.68838">
        <ele>183</ele>
        <time>2011-05-27T12:27:24Z</time>
      </trkpt>
      <trkpt lat="49.71776" lon="4.68831">
        <ele>183</ele>
        <time>2011-05-27T12:27:25Z</time>
      </trkpt>
      <trkpt lat="49.71774" lon="4.68823">
        <ele>183</ele>
        <time>2011-05-27T12:27:26Z</time>
      </trkpt>
      <trkpt lat="49.71771" lon="4.68816">
        <ele>184</ele>
        <time>2011-05-27T12:27:27Z</time>
      </trkpt>
      <trkpt lat="49.71769" lon="4.68809">
        <ele>184</ele>
        <time>2011-05-27T12:27:28Z</time>
      </trkpt>
      <trkpt lat="49.71767" lon="4.68802">
        <ele>184</ele>
        <time>2011-05-27T12:27:29Z</time>
      </trkpt>
      <trkpt lat="49.71764" lon="4.68794">
        <ele>184</ele>
        <time>2011-05-27T12:27:30Z</time>
      </trkpt>
      <trkpt lat="49.71762" lon="4.68787">
        <ele>184</ele>
        <time>2011-05-27T12:27:31Z</time>
      </trkpt>
      <trkpt lat="49.71759" lon="4.6878">
        <ele>184</ele>
        <time>2011-05-27T12:27:32Z</time>
      </trkpt>
      <trkpt lat="49.71757" lon="4.68772">
        <ele>184</ele>
        <time>2011-05-27T12:27:33Z</time>
      </trkpt>
      <trkpt lat="49.71755" lon="4.68764">
        <ele>185</ele>
        <time>2011-05-27T12:27:34Z</time>
      </trkpt>
      <trkpt lat="49.71753" lon="4.68757">
        <ele>185</ele>
        <time>2011-05-27T12:27:35Z</time>
      </trkpt>
      <trkpt lat="49.71751" lon="4.68749">
        <ele>185</ele>
        <time>2011-05-27T12:27:36Z</time>
      </trkpt>
      <trkpt lat="49.7175" lon="4.68741">
        <ele>185</ele>
        <time>2011-05-27T12:27:37Z</time>
      </trkpt>
      <trkpt lat="49.71749" lon="4.68734">
        <ele>185</ele>
        <time>2011-05-27T12:27:38Z</time>
      </trkpt>
      <trkpt lat="49.71747" lon="4.68725">
        <ele>185</ele>
        <time>2011-05-27T12:27:39Z</time>
      </trkpt>
      <trkpt lat="49.71746" lon="4.68718">
        <ele>185</ele>
        <time>2011-05-27T12:27:40Z</time>
      </trkpt>
      <trkpt lat="49.71745" lon="4.6871">
        <ele>185</ele>
        <time>2011-05-27T12:27:41Z</time>
      </trkpt>
      <trkpt lat="49.71744" lon="4.68702">
        <ele>185</ele>
        <time>2011-05-27T12:27:42Z</time>
      </trkpt>
      <trkpt lat="49.71743" lon="4.68693">
        <ele>185</ele>
        <time>2011-05-27T12:27:43Z</time>
      </trkpt>
      <trkpt lat="49.71742" lon="4.68685">
        <ele>185</ele>
        <time>2011-05-27T12:27:44Z</time>
      </trkpt>
      <trkpt lat="49.7174" lon="4.68678">
        <ele>185</ele>
        <time>2011-05-27T12:27:45Z</time>
      </trkpt>
      <trkpt lat="49.7174" lon="4.6867">
        <ele>185</ele>
        <time>2011-05-27T12:27:46Z</time>
      </trkpt>
      <trkpt lat="49.71738" lon="4.68661">
        <ele>185</ele>
        <time>2011-05-27T12:27:47Z</time>
      </trkpt>
      <trkpt lat="49.71738" lon="4.68654">
        <ele>186</ele>
        <time>2011-05-27T12:27:48Z</time>
      </trkpt>
      <trkpt lat="49.71736" lon="4.68646">
        <ele>186</ele>
        <time>2011-05-27T12:27:49Z</time>
      </trkpt>
      <trkpt lat="49.71735" lon="4.68639">
        <ele>186</ele>
        <time>2011-05-27T12:27:50Z</time>
      </trkpt>
      <trkpt lat="49.71734" lon="4.68631">
        <ele>186</ele>
        <time>2011-05-27T12:27:51Z</time>
      </trkpt>
      <trkpt lat="49.71733" lon="4.68623">
        <ele>186</ele>
        <time>2011-05-27T12:27:52Z</time>
      </trkpt>
      <trkpt lat="49.71732" lon="4.68616">
        <ele>186</ele>
        <time>2011-05-27T12:27:53Z</time>
      </trkpt>
      <trkpt lat="49.71731" lon="4.68608">
        <ele>186</ele>
        <time>2011-05-27T12:27:54Z</time>
      </trkpt>
      <trkpt lat="49.7173" lon="4.68601">
        <ele>187</ele>
        <time>2011-05-27T12:27:55Z</time>
      </trkpt>
      <trkpt lat="49.71729" lon="4.68594">
        <ele>187</ele>
        <time>2011-05-27T12:27:56Z</time>
      </trkpt>
      <trkpt lat="49.71729" lon="4.68587">
        <ele>187</ele>
        <time>2011-05-27T12:27:57Z</time>
      </trkpt>
      <trkpt lat="49.71728" lon="4.6858">
        <ele>187</ele>
        <time>2011-05-27T12:27:58Z</time>
      </trkpt>
      <trkpt lat="49.71727" lon="4.68574">
        <ele>187</ele>
        <time>2011-05-27T12:27:59Z</time>
      </trkpt>
      <trkpt lat="49.71726" lon="4.68567">
        <ele>188</ele>
        <time>2011-05-27T12:28:00Z</time>
      </trkpt>
      <trkpt lat="49.71725" lon="4.6856">
        <ele>188</ele>
        <time>2011-05-27T12:28:01Z</time>
      </trkpt>
      <trkpt lat="49.71724" lon="4.68554">
        <ele>188</ele>
        <time>2011-05-27T12:28:02Z</time>
      </trkpt>
      <trkpt lat="49.71723" lon="4.68547">
        <ele>188</ele>
        <time>2011-05-27T12:28:03Z</time>
      </trkpt>
      <trkpt lat="49.71722" lon="4.68541">
        <ele>188</ele>
        <time>2011-05-27T12:28:04Z</time>
      </trkpt>
      <trkpt lat="49.71721" lon="4.68535">
        <ele>189</ele>
        <time>2011-05-27T12:28:05Z</time>
      </trkpt>
      <trkpt lat="49.7172" lon="4.68529">
        <ele>189</ele>
        <time>2011-05-27T12:28:06Z</time>
      </trkpt>
      <trkpt lat="49.71719" lon="4.68523">
        <ele>189</ele>
        <time>2011-05-27T12:28:07Z</time>
      </trkpt>
      <trkpt lat="49.71718" lon="4.68517">
        <ele>189</ele>
        <time>2011-05-27T12:28:08Z</time>
      </trkpt>
      <trkpt lat="49.71718" lon="4.68511">
        <ele>190</ele>
        <time>2011-05-27T12:28:09Z</time>
      </trkpt>
      <trkpt lat="49.71717" lon="4.68505">
        <ele>190</ele>
        <time>2011-05-27T12:28:10Z</time>
      </trkpt>
      <trkpt lat="49.71716" lon="4.68499">
        <ele>190</ele>
        <time>2011-05-27T12:28:11Z</time>
      </trkpt>
      <trkpt lat="49.71715" lon="4.68493">
        <ele>190</ele>
        <time>2011-05-27T12:28:12Z</time>
      </trkpt>
      <trkpt lat="49.71714" lon="4.68487">
        <ele>191</ele>
        <time>2011-05-27T12:28:13Z</time>
      </trkpt>
      <trkpt lat="49.71713" lon="4.68481">
        <ele>191</ele>
        <time>2011-05-27T12:28:14Z</time>
      </trkpt>
      <trkpt lat="49.71712" lon="4.68474">
        <ele>191</ele>
        <time>2011-05-27T12:28:15Z</time>
      </trkpt>
      <trkpt lat="49.71711" lon="4.68469">
        <ele>191</ele>
        <time>2011-05-27T12:28:16Z</time>
      </trkpt>
      <trkpt lat="49.7171" lon="4.68462">
        <ele>192</ele>
        <time>2011-05-27T12:28:17Z</time>
      </trkpt>
      <trkpt lat="49.7171" lon="4.68456">
        <ele>192</ele>
        <time>2011-05-27T12:28:18Z</time>
      </trkpt>
      <trkpt lat="49.71709" lon="4.6845">
        <ele>192</ele>
        <time>2011-05-27T12:28:19Z</time>
      </trkpt>
      <trkpt lat="49.71708" lon="4.68444">
        <ele>192</ele>
        <time>2011-05-27T12:28:20Z</time>
      </trkpt>
      <trkpt lat="49.71707" lon="4.68438">
        <ele>193</ele>
        <time>2011-05-27T12:28:21Z</time>
      </trkpt>
      <trkpt lat="49.71706" lon="4.68432">
        <ele>193</ele>
        <time>2011-05-27T12:28:22Z</time>
      </trkpt>
      <trkpt lat="49.71705" lon="4.68425">
        <ele>193</ele>
        <time>2011-05-27T12:28:23Z</time>
      </trkpt>
      <trkpt lat="49.71704" lon="4.68419">
        <ele>193</ele>
        <time>2011-05-27T12:28:24Z</time>
      </trkpt>
      <trkpt lat="49.71703" lon="4.68413">
        <ele>193</ele>
        <time>2011-05-27T12:28:25Z</time>
      </trkpt>
      <trkpt lat="49.71702" lon="4.68407">
        <ele>194</ele>
        <time>2011-05-27T12:28:26Z</time>
      </trkpt>
      <trkpt lat="49.71701" lon="4.684">
        <ele>194</ele>
        <time>2011-05-27T12:28:27Z</time>
      </trkpt>
      <trkpt lat="49.717" lon="4.68394">
        <ele>194</ele>
        <time>2011-05-27T12:28:28Z</time>
      </trkpt>
      <trkpt lat="49.71699" lon="4.68388">
        <ele>194</ele>
        <time>2011-05-27T12:28:29Z</time>
      </trkpt>
      <trkpt lat="49.71698" lon="4.68382">
        <ele>194</ele>
        <time>2011-05-27T12:28:30Z</time>
      </trkpt>
      <trkpt lat="49.71697" lon="4.68375">
        <ele>194</ele>
        <time>2011-05-27T12:28:31Z</time>
      </trkpt>
      <trkpt lat="49.71696" lon="4.68368">
        <ele>195</ele>
        <time>2011-05-27T12:28:32Z</time>
      </trkpt>
      <trkpt lat="49.71695" lon="4.68361">
        <ele>195</ele>
        <time>2011-05-27T12:28:33Z</time>
      </trkpt>
      <trkpt lat="49.71694" lon="4.68354">
        <ele>195</ele>
        <time>2011-05-27T12:28:34Z</time>
      </trkpt>
      <trkpt lat="49.71693" lon="4.68348">
        <ele>195</ele>
        <time>2011-05-27T12:28:35Z</time>
      </trkpt>
      <trkpt lat="49.71692" lon="4.68342">
        <ele>196</ele>
        <time>2011-05-27T12:28:36Z</time>
      </trkpt>
      <trkpt lat="49.71691" lon="4.68336">
        <ele>196</ele>
        <time>2011-05-27T12:28:37Z</time>
      </trkpt>
      <trkpt lat="49.7169" lon="4.6833">
        <ele>196</ele>
        <time>2011-05-27T12:28:38Z</time>
      </trkpt>
      <trkpt lat="49.71689" lon="4.68324">
        <ele>196</ele>
        <time>2011-05-27T12:28:39Z</time>
      </trkpt>
      <trkpt lat="49.71688" lon="4.68318">
        <ele>196</ele>
        <time>2011-05-27T12:28:40Z</time>
      </trkpt>
      <trkpt lat="49.71687" lon="4.68311">
        <ele>197</ele>
        <time>2011-05-27T12:28:41Z</time>
      </trkpt>
      <trkpt lat="49.71687" lon="4.68305">
        <ele>197</ele>
        <time>2011-05-27T12:28:42Z</time>
      </trkpt>
      <trkpt lat="49.71686" lon="4.68299">
        <ele>197</ele>
        <time>2011-05-27T12:28:43Z</time>
      </trkpt>
      <trkpt lat="49.71685" lon="4.68293">
        <ele>197</ele>
        <time>2011-05-27T12:28:44Z</time>
      </trkpt>
      <trkpt lat="49.71684" lon="4.68287">
        <ele>198</ele>
        <time>2011-05-27T12:28:45Z</time>
      </trkpt>
      <trkpt lat="49.71684" lon="4.68281">
        <ele>198</ele>
        <time>2011-05-27T12:28:46Z</time>
      </trkpt>
      <trkpt lat="49.71683" lon="4.68274">
        <ele>198</ele>
        <time>2011-05-27T12:28:47Z</time>
      </trkpt>
      <trkpt lat="49.71682" lon="4.68268">
        <ele>198</ele>
        <time>2011-05-27T12:28:48Z</time>
      </trkpt>
      <trkpt lat="49.71681" lon="4.68262">
        <ele>199</ele>
        <time>2011-05-27T12:28:49Z</time>
      </trkpt>
      <trkpt lat="49.7168" lon="4.68256">
        <ele>199</ele>
        <time>2011-05-27T12:28:50Z</time>
      </trkpt>
      <trkpt lat="49.7168" lon="4.68249">
        <ele>199</ele>
        <time>2011-05-27T12:28:51Z</time>
      </trkpt>
      <trkpt lat="49.71679" lon="4.68243">
        <ele>199</ele>
        <time>2011-05-27T12:28:52Z</time>
      </trkpt>
      <trkpt lat="49.71678" lon="4.68236">
        <ele>199</ele>
        <time>2011-05-27T12:28:53Z</time>
      </trkpt>
      <trkpt lat="49.71677" lon="4.68229">
        <ele>199</ele>
        <time>2011-05-27T12:28:54Z</time>
      </trkpt>
      <trkpt lat="49.71676" lon="4.68222">
        <ele>199</ele>
        <time>2011-05-27T12:28:55Z</time>
      </trkpt>
      <trkpt lat="49.71675" lon="4.68215">
        <ele>199</ele>
        <time>2011-05-27T12:28:56Z</time>
      </trkpt>
      <trkpt lat="49.71674" lon="4.68208">
        <ele>199</ele>
        <time>2011-05-27T12:28:57Z</time>
      </trkpt>
      <trkpt lat="49.71673" lon="4.68201">
        <ele>199</ele>
        <time>2011-05-27T12:28:58Z</time>
      </trkpt>
      <trkpt lat="49.71672" lon="4.68194">
        <ele>199</ele>
        <time>2011-05-27T12:28:59Z</time>
      </trkpt>
      <trkpt lat="49.71671" lon="4.68187">
        <ele>199</ele>
        <time>2011-05-27T12:29:00Z</time>
      </trkpt>
      <trkpt lat="49.71669" lon="4.6818">
        <ele>199</ele>
        <time>2011-05-27T12:29:01Z</time>
      </trkpt>
      <trkpt lat="49.71667" lon="4.68173">
        <ele>199</ele>
        <time>2011-05-27T12:29:02Z</time>
      </trkpt>
      <trkpt lat="49.71664" lon="4.68166">
        <ele>199</ele>
        <time>2011-05-27T12:29:03Z</time>
      </trkpt>
      <trkpt lat="49.71661" lon="4.68158">
        <ele>199</ele>
        <time>2011-05-27T12:29:04Z</time>
      </trkpt>
      <trkpt lat="49.71658" lon="4.68151">
        <ele>199</ele>
        <time>2011-05-27T12:29:05Z</time>
      </trkpt>
      <trkpt lat="49.71653" lon="4.68144">
        <ele>199</ele>
        <time>2011-05-27T12:29:06Z</time>
      </trkpt>
      <trkpt lat="49.71649" lon="4.68137">
        <ele>199</ele>
        <time>2011-05-27T12:29:07Z</time>
      </trkpt>
      <trkpt lat="49.71643" lon="4.6813">
        <ele>199</ele>
        <time>2011-05-27T12:29:08Z</time>
      </trkpt>
      <trkpt lat="49.71637" lon="4.68124">
        <ele>199</ele>
        <time>2011-05-27T12:29:09Z</time>
      </trkpt>
      <trkpt lat="49.71631" lon="4.68118">
        <ele>199</ele>
        <time>2011-05-27T12:29:10Z</time>
      </trkpt>
      <trkpt lat="49.71624" lon="4.68114">
        <ele>199</ele>
        <time>2011-05-27T12:29:11Z</time>
      </trkpt>
      <trkpt lat="49.71617" lon="4.68109">
        <ele>199</ele>
        <time>2011-05-27T12:29:12Z</time>
      </trkpt>
      <trkpt lat="49.7161" lon="4.68103">
        <ele>198</ele>
        <time>2011-05-27T12:29:13Z</time>
      </trkpt>
      <trkpt lat="49.71603" lon="4.68096">
        <ele>197</ele>
        <time>2011-05-27T12:29:14Z</time>
      </trkpt>
      <trkpt lat="49.71597" lon="4.6809">
        <ele>197</ele>
        <time>2011-05-27T12:29:15Z</time>
      </trkpt>
      <trkpt lat="49.7159" lon="4.68084">
        <ele>196</ele>
        <time>2011-05-27T12:29:16Z</time>
      </trkpt>
      <trkpt lat="49.71583" lon="4.68079">
        <ele>195</ele>
        <time>2011-05-27T12:29:17Z</time>
      </trkpt>
      <trkpt lat="49.71576" lon="4.68073">
        <ele>194</ele>
        <time>2011-05-27T12:29:18Z</time>
      </trkpt>
      <trkpt lat="49.71567" lon="4.68066">
        <ele>193</ele>
        <time>2011-05-27T12:29:19Z</time>
      </trkpt>
      <trkpt lat="49.71559" lon="4.68058">
        <ele>192</ele>
        <time>2011-05-27T12:29:20Z</time>
      </trkpt>
      <trkpt lat="49.7155" lon="4.6805">
        <ele>191</ele>
        <time>2011-05-27T12:29:21Z</time>
      </trkpt>
      <trkpt lat="49.71543" lon="4.6804">
        <ele>191</ele>
        <time>2011-05-27T12:29:22Z</time>
      </trkpt>
      <trkpt lat="49.71536" lon="4.68029">
        <ele>190</ele>
        <time>2011-05-27T12:29:23Z</time>
      </trkpt>
      <trkpt lat="49.71531" lon="4.68017">
        <ele>190</ele>
        <time>2011-05-27T12:29:24Z</time>
      </trkpt>
      <trkpt lat="49.71526" lon="4.68004">
        <ele>190</ele>
        <time>2011-05-27T12:29:25Z</time>
      </trkpt>
      <trkpt lat="49.71523" lon="4.67991">
        <ele>189</ele>
        <time>2011-05-27T12:29:26Z</time>
      </trkpt>
      <trkpt lat="49.71519" lon="4.67979">
        <ele>189</ele>
        <time>2011-05-27T12:29:27Z</time>
      </trkpt>
      <trkpt lat="49.71515" lon="4.67968">
        <ele>189</ele>
        <time>2011-05-27T12:29:28Z</time>
      </trkpt>
      <trkpt lat="49.71509" lon="4.67959">
        <ele>188</ele>
        <time>2011-05-27T12:29:29Z</time>
      </trkpt>
      <trkpt lat="49.71503" lon="4.67952">
        <ele>188</ele>
        <time>2011-05-27T12:29:30Z</time>
      </trkpt>
      <trkpt lat="49.71495" lon="4.67948">
        <ele>188</ele>
        <time>2011-05-27T12:29:31Z</time>
      </trkpt>
      <trkpt lat="49.71488" lon="4.67946">
        <ele>188</ele>
        <time>2011-05-27T12:29:32Z</time>
      </trkpt>
      <trkpt lat="49.71481" lon="4.67944">
        <ele>188</ele>
        <time>2011-05-27T12:29:33Z</time>
      </trkpt>
      <trkpt lat="49.71476" lon="4.67944">
        <ele>188</ele>
        <time>2011-05-27T12:29:34Z</time>
      </trkpt>
      <trkpt lat="49.7147" lon="4.67944">
        <ele>188</ele>
        <time>2011-05-27T12:29:35Z</time>
      </trkpt>
      <trkpt lat="49.71465" lon="4.67943">
        <ele>188</ele>
        <time>2011-05-27T12:29:36Z</time>
      </trkpt>
      <trkpt lat="49.71461" lon="4.67943">
        <ele>188</ele>
        <time>2011-05-27T12:29:37Z</time>
      </trkpt>
      <trkpt lat="49.71457" lon="4.67942">
        <ele>188</ele>
        <time>2011-05-27T12:29:38Z</time>
      </trkpt>
      <trkpt lat="49.71452" lon="4.67941">
        <ele>188</ele>
        <time>2011-05-27T12:29:39Z</time>
      </trkpt>
      <trkpt lat="49.71448" lon="4.67941">
        <ele>188</ele>
        <time>2011-05-27T12:29:40Z</time>
      </trkpt>
      <trkpt lat="49.71444" lon="4.67941">
        <ele>188</ele>
        <time>2011-05-27T12:29:41Z</time>
      </trkpt>
      <trkpt lat="49.71441" lon="4.67944">
        <ele>188</ele>
        <time>2011-05-27T12:29:42Z</time>
      </trkpt>
      <trkpt lat="49.71437" lon="4.67948">
        <ele>188</ele>
        <time>2011-05-27T12:29:43Z</time>
      </trkpt>
      <trkpt lat="49.71434" lon="4.67954">
        <ele>188</ele>
        <time>2011-05-27T12:29:44Z</time>
      </trkpt>
      <trkpt lat="49.71431" lon="4.67959">
        <ele>188</ele>
        <time>2011-05-27T12:29:45Z</time>
      </trkpt>
      <trkpt lat="49.71428" lon="4.67964">
        <ele>188</ele>
        <time>2011-05-27T12:29:46Z</time>
      </trkpt>
      <trkpt lat="49.71425" lon="4.67968">
        <ele>188</ele>
        <time>2011-05-27T12:29:47Z</time>
      </trkpt>
      <trkpt lat="49.71421" lon="4.67974">
        <ele>188</ele>
        <time>2011-05-27T12:29:48Z</time>
      </trkpt>
      <trkpt lat="49.71419" lon="4.67979">
        <ele>188</ele>
        <time>2011-05-27T12:29:49Z</time>
      </trkpt>
      <trkpt lat="49.71416" lon="4.67985">
        <ele>188</ele>
        <time>2011-05-27T12:29:50Z</time>
      </trkpt>
      <trkpt lat="49.71413" lon="4.67992">
        <ele>188</ele>
        <time>2011-05-27T12:29:51Z</time>
      </trkpt>
      <trkpt lat="49.7141" lon="4.68">
        <ele>188</ele>
        <time>2011-05-27T12:29:52Z</time>
      </trkpt>
      <trkpt lat="49.71407" lon="4.68009">
        <ele>188</ele>
        <time>2011-05-27T12:29:53Z</time>
      </trkpt>
      <trkpt lat="49.71404" lon="4.68018">
        <ele>188</ele>
        <time>2011-05-27T12:29:54Z</time>
      </trkpt>
      <trkpt lat="49.71401" lon="4.68028">
        <ele>188</ele>
        <time>2011-05-27T12:29:55Z</time>
      </trkpt>
      <trkpt lat="49.71398" lon="4.68038">
        <ele>188</ele>
        <time>2011-05-27T12:29:56Z</time>
      </trkpt>
      <trkpt lat="49.71395" lon="4.68049">
        <ele>187</ele>
        <time>2011-05-27T12:29:57Z</time>
      </trkpt>
      <trkpt lat="49.71393" lon="4.68061">
        <ele>187</ele>
        <time>2011-05-27T12:29:58Z</time>
      </trkpt>
      <trkpt lat="49.7139" lon="4.68072">
        <ele>187</ele>
        <time>2011-05-27T12:29:59Z</time>
      </trkpt>
      <trkpt lat="49.71388" lon="4.68083">
        <ele>186</ele>
        <time>2011-05-27T12:30:00Z</time>
      </trkpt>
      <trkpt lat="49.71386" lon="4.68095">
        <ele>185</ele>
        <time>2011-05-27T12:30:01Z</time>
      </trkpt>
      <trkpt lat="49.71384" lon="4.68106">
        <ele>185</ele>
        <time>2011-05-27T12:30:02Z</time>
      </trkpt>
      <trkpt lat="49.71382" lon="4.68117">
        <ele>185</ele>
        <time>2011-05-27T12:30:03Z</time>
      </trkpt>
      <trkpt lat="49.7138" lon="4.68127">
        <ele>185</ele>
        <time>2011-05-27T12:30:04Z</time>
      </trkpt>
      <trkpt lat="49.71378" lon="4.68138">
        <ele>185</ele>
        <time>2011-05-27T12:30:05Z</time>
      </trkpt>
      <trkpt lat="49.71377" lon="4.68148">
        <ele>185</ele>
        <time>2011-05-27T12:30:06Z</time>
      </trkpt>
      <trkpt lat="49.71376" lon="4.68158">
        <ele>185</ele>
        <time>2011-05-27T12:30:07Z</time>
      </trkpt>
      <trkpt lat="49.71375" lon="4.68168">
        <ele>185</ele>
        <time>2011-05-27T12:30:08Z</time>
      </trkpt>
      <trkpt lat="49.71374" lon="4.68178">
        <ele>185</ele>
        <time>2011-05-27T12:30:09Z</time>
      </trkpt>
      <trkpt lat="49.71373" lon="4.68187">
        <ele>185</ele>
        <time>2011-05-27T12:30:10Z</time>
      </trkpt>
      <trkpt lat="49.71372" lon="4.68196">
        <ele>185</ele>
        <time>2011-05-27T12:30:11Z</time>
      </trkpt>
      <trkpt lat="49.71371" lon="4.68205">
        <ele>185</ele>
        <time>2011-05-27T12:30:12Z</time>
      </trkpt>
      <trkpt lat="49.7137" lon="4.68214">
        <ele>185</ele>
        <time>2011-05-27T12:30:13Z</time>
      </trkpt>
      <trkpt lat="49.71368" lon="4.68223">
        <ele>185</ele>
        <time>2011-05-27T12:30:14Z</time>
      </trkpt>
      <trkpt lat="49.71367" lon="4.68231">
        <ele>185</ele>
        <time>2011-05-27T12:30:15Z</time>
      </trkpt>
      <trkpt lat="49.71365" lon="4.68239">
        <ele>185</ele>
        <time>2011-05-27T12:30:16Z</time>
      </trkpt>
      <trkpt lat="49.71363" lon="4.68248">
        <ele>185</ele>
        <time>2011-05-27T12:30:17Z</time>
      </trkpt>
      <trkpt lat="49.71361" lon="4.68256">
        <ele>185</ele>
        <time>2011-05-27T12:30:18Z</time>
      </trkpt>
      <trkpt lat="49.71359" lon="4.68264">
        <ele>185</ele>
        <time>2011-05-27T12:30:19Z</time>
      </trkpt>
      <trkpt lat="49.71357" lon="4.68272">
        <ele>185</ele>
        <time>2011-05-27T12:30:20Z</time>
      </trkpt>
      <trkpt lat="49.71354" lon="4.6828">
        <ele>185</ele>
        <time>2011-05-27T12:30:21Z</time>
      </trkpt>
      <trkpt lat="49.71352" lon="4.68288">
        <ele>185</ele>
        <time>2011-05-27T12:30:22Z</time>
      </trkpt>
      <trkpt lat="49.71349" lon="4.68296">
        <ele>185</ele>
        <time>2011-05-27T12:30:23Z</time>
      </trkpt>
      <trkpt lat="49.71346" lon="4.68303">
        <ele>185</ele>
        <time>2011-05-27T12:30:24Z</time>
      </trkpt>
      <trkpt lat="49.71343" lon="4.68311">
        <ele>185</ele>
        <time>2011-05-27T12:30:25Z</time>
      </trkpt>
      <trkpt lat="49.7134" lon="4.68319">
        <ele>185</ele>
        <time>2011-05-27T12:30:26Z</time>
      </trkpt>
      <trkpt lat="49.71336" lon="4.68326">
        <ele>185</ele>
        <time>2011-05-27T12:30:27Z</time>
      </trkpt>
      <trkpt lat="49.71333" lon="4.68333">
        <ele>185</ele>
        <time>2011-05-27T12:30:28Z</time>
      </trkpt>
      <trkpt lat="49.71329" lon="4.6834">
        <ele>185</ele>
        <time>2011-05-27T12:30:29Z</time>
      </trkpt>
      <trkpt lat="49.71326" lon="4.68347">
        <ele>185</ele>
        <time>2011-05-27T12:30:30Z</time>
      </trkpt>
      <trkpt lat="49.71322" lon="4.68353">
        <ele>185</ele>
        <time>2011-05-27T12:30:31Z</time>
      </trkpt>
      <trkpt lat="49.71318" lon="4.68359">
        <ele>185</ele>
        <time>2011-05-27T12:30:32Z</time>
      </trkpt>
      <trkpt lat="49.71313" lon="4.68364">
        <ele>185</ele>
        <time>2011-05-27T12:30:33Z</time>
      </trkpt>
      <trkpt lat="49.71309" lon="4.6837">
        <ele>185</ele>
        <time>2011-05-27T12:30:34Z</time>
      </trkpt>
      <trkpt lat="49.71305" lon="4.68375">
        <ele>185</ele>
        <time>2011-05-27T12:30:35Z</time>
      </trkpt>
      <trkpt lat="49.71301" lon="4.6838">
        <ele>185</ele>
        <time>2011-05-27T12:30:36Z</time>
      </trkpt>
      <trkpt lat="49.71296" lon="4.68385">
        <ele>185</ele>
        <time>2011-05-27T12:30:37Z</time>
      </trkpt>
      <trkpt lat="49.71292" lon="4.68389">
        <ele>185</ele>
        <time>2011-05-27T12:30:38Z</time>
      </trkpt>
      <trkpt lat="49.71288" lon="4.68393">
        <ele>185</ele>
        <time>2011-05-27T12:30:39Z</time>
      </trkpt>
      <trkpt lat="49.71283" lon="4.68397">
        <ele>185</ele>
        <time>2011-05-27T12:30:40Z</time>
      </trkpt>
      <trkpt lat="49.71279" lon="4.684">
        <ele>185</ele>
        <time>2011-05-27T12:30:41Z</time>
      </trkpt>
      <trkpt lat="49.71274" lon="4.68404">
        <ele>185</ele>
        <time>2011-05-27T12:30:42Z</time>
      </trkpt>
      <trkpt lat="49.7127" lon="4.68407">
        <ele>185</ele>
        <time>2011-05-27T12:30:43Z</time>
      </trkpt>
      <trkpt lat="49.71267" lon="4.68409">
        <ele>185</ele>
        <time>2011-05-27T12:30:44Z</time>
      </trkpt>
      <trkpt lat="49.71264" lon="4.68411">
        <ele>185</ele>
        <time>2011-05-27T12:30:45Z</time>
      </trkpt>
      <trkpt lat="49.7126" lon="4.68412">
        <ele>185</ele>
        <time>2011-05-27T12:30:46Z</time>
      </trkpt>
      <trkpt lat="49.71257" lon="4.68415">
        <ele>185</ele>
        <time>2011-05-27T12:30:47Z</time>
      </trkpt>
      <trkpt lat="49.71252" lon="4.68417">
        <ele>185</ele>
        <time>2011-05-27T12:30:48Z</time>
      </trkpt>
      <trkpt lat="49.71248" lon="4.68419">
        <ele>185</ele>
        <time>2011-05-27T12:30:49Z</time>
      </trkpt>
      <trkpt lat="49.71244" lon="4.68422">
        <ele>185</ele>
        <time>2011-05-27T12:30:50Z</time>
      </trkpt>
      <trkpt lat="49.71239" lon="4.68424">
        <ele>185</ele>
        <time>2011-05-27T12:30:51Z</time>
      </trkpt>
      <trkpt lat="49.71234" lon="4.68425">
        <ele>185</ele>
        <time>2011-05-27T12:30:52Z</time>
      </trkpt>
      <trkpt lat="49.71229" lon="4.68428">
        <ele>185</ele>
        <time>2011-05-27T12:30:53Z</time>
      </trkpt>
      <trkpt lat="49.71225" lon="4.6843">
        <ele>185</ele>
        <time>2011-05-27T12:30:54Z</time>
      </trkpt>
      <trkpt lat="49.7122" lon="4.68432">
        <ele>185</ele>
        <time>2011-05-27T12:30:55Z</time>
      </trkpt>
      <trkpt lat="49.71215" lon="4.68434">
        <ele>185</ele>
        <time>2011-05-27T12:30:56Z</time>
      </trkpt>
      <trkpt lat="49.71209" lon="4.68436">
        <ele>185</ele>
        <time>2011-05-27T12:30:57Z</time>
      </trkpt>
      <trkpt lat="49.71204" lon="4.68439">
        <ele>185</ele>
        <time>2011-05-27T12:30:58Z</time>
      </trkpt>
      <trkpt lat="49.71199" lon="4.68441">
        <ele>185</ele>
        <time>2011-05-27T12:30:59Z</time>
      </trkpt>
      <trkpt lat="49.71195" lon="4.68443">
        <ele>185</ele>
        <time>2011-05-27T12:31:00Z</time>
      </trkpt>
      <trkpt lat="49.7119" lon="4.68446">
        <ele>185</ele>
        <time>2011-05-27T12:31:01Z</time>
      </trkpt>
      <trkpt lat="49.71186" lon="4.68448">
        <ele>185</ele>
        <time>2011-05-27T12:31:02Z</time>
      </trkpt>
      <trkpt lat="49.71181" lon="4.68451">
        <ele>185</ele>
        <time>2011-05-27T12:31:03Z</time>
      </trkpt>
      <trkpt lat="49.71177" lon="4.68453">
        <ele>185</ele>
        <time>2011-05-27T12:31:04Z</time>
      </trkpt>
      <trkpt lat="49.71172" lon="4.68456">
        <ele>185</ele>
        <time>2011-05-27T12:31:05Z</time>
      </trkpt>
      <trkpt lat="49.71167" lon="4.68458">
        <ele>185</ele>
        <time>2011-05-27T12:31:06Z</time>
      </trkpt>
      <trkpt lat="49.71163" lon="4.68461">
        <ele>185</ele>
        <time>2011-05-27T12:31:07Z</time>
      </trkpt>
      <trkpt lat="49.71158" lon="4.68464">
        <ele>185</ele>
        <time>2011-05-27T12:31:08Z</time>
      </trkpt>
      <trkpt lat="49.71154" lon="4.68467">
        <ele>185</ele>
        <time>2011-05-27T12:31:09Z</time>
      </trkpt>
      <trkpt lat="49.7115" lon="4.68469">
        <ele>185</ele>
        <time>2011-05-27T12:31:10Z</time>
      </trkpt>
      <trkpt lat="49.71146" lon="4.68472">
        <ele>185</ele>
        <time>2011-05-27T12:31:11Z</time>
      </trkpt>
      <trkpt lat="49.71142" lon="4.68476">
        <ele>185</ele>
        <time>2011-05-27T12:31:12Z</time>
      </trkpt>
      <trkpt lat="49.71138" lon="4.68479">
        <ele>185</ele>
        <time>2011-05-27T12:31:13Z</time>
      </trkpt>
      <trkpt lat="49.71134" lon="4.68482">
        <ele>185</ele>
        <time>2011-05-27T12:31:14Z</time>
      </trkpt>
      <trkpt lat="49.71131" lon="4.68485">
        <ele>185</ele>
        <time>2011-05-27T12:31:15Z</time>
      </trkpt>
      <trkpt lat="49.71127" lon="4.68488">
        <ele>185</ele>
        <time>2011-05-27T12:31:16Z</time>
      </trkpt>
      <trkpt lat="49.71124" lon="4.68492">
        <ele>185</ele>
        <time>2011-05-27T12:31:17Z</time>
      </trkpt>
      <trkpt lat="49.7112" lon="4.68495">
        <ele>185</ele>
        <time>2011-05-27T12:31:18Z</time>
      </trkpt>
      <trkpt lat="49.71117" lon="4.68499">
        <ele>185</ele>
        <time>2011-05-27T12:31:19Z</time>
      </trkpt>
      <trkpt lat="49.71114" lon="4.68502">
        <ele>185</ele>
        <time>2011-05-27T12:31:20Z</time>
      </trkpt>
      <trkpt lat="49.7111" lon="4.68505">
        <ele>185</ele>
        <time>2011-05-27T12:31:21Z</time>
      </trkpt>
      <trkpt lat="49.71107" lon="4.68508">
        <ele>185</ele>
        <time>2011-05-27T12:31:21Z</time>
      </trkpt>
      <trkpt lat="49.71104" lon="4.68511">
        <ele>185</ele>
        <time>2011-05-27T12:31:23Z</time>
      </trkpt>
      <trkpt lat="49.71101" lon="4.68514">
        <ele>185</ele>
        <time>2011-05-27T12:31:24Z</time>
      </trkpt>
      <trkpt lat="49.71099" lon="4.68517">
        <ele>185</ele>
        <time>2011-05-27T12:31:25Z</time>
      </trkpt>
      <trkpt lat="49.71097" lon="4.68519">
        <ele>185</ele>
        <time>2011-05-27T12:31:26Z</time>
      </trkpt>
      <trkpt lat="49.71095" lon="4.68523">
        <ele>185</ele>
        <time>2011-05-27T12:31:27Z</time>
      </trkpt>
      <trkpt lat="49.71093" lon="4.68526">
        <ele>185</ele>
        <time>2011-05-27T12:31:28Z</time>
      </trkpt>
      <trkpt lat="49.7109" lon="4.68528">
        <ele>185</ele>
        <time>2011-05-27T12:31:29Z</time>
      </trkpt>
      <trkpt lat="49.71088" lon="4.68532">
        <ele>186</ele>
        <time>2011-05-27T12:31:30Z</time>
      </trkpt>
      <trkpt lat="49.71087" lon="4.68535">
        <ele>186</ele>
        <time>2011-05-27T12:31:30Z</time>
      </trkpt>
      <trkpt lat="49.71085" lon="4.68538">
        <ele>186</ele>
        <time>2011-05-27T12:31:31Z</time>
      </trkpt>
      <trkpt lat="49.71082" lon="4.68541">
        <ele>186</ele>
        <time>2011-05-27T12:31:33Z</time>
      </trkpt>
      <trkpt lat="49.7108" lon="4.68545">
        <ele>186</ele>
        <time>2011-05-27T12:31:33Z</time>
      </trkpt>
      <trkpt lat="49.71078" lon="4.68548">
        <ele>187</ele>
        <time>2011-05-27T12:31:35Z</time>
      </trkpt>
      <trkpt lat="49.71076" lon="4.68551">
        <ele>187</ele>
        <time>2011-05-27T12:31:36Z</time>
      </trkpt>
      <trkpt lat="49.71074" lon="4.68555">
        <ele>188</ele>
        <time>2011-05-27T12:31:37Z</time>
      </trkpt>
      <trkpt lat="49.71072" lon="4.68559">
        <ele>188</ele>
        <time>2011-05-27T12:31:38Z</time>
      </trkpt>
      <trkpt lat="49.7107" lon="4.68563">
        <ele>189</ele>
        <time>2011-05-27T12:31:39Z</time>
      </trkpt>
      <trkpt lat="49.71068" lon="4.68567">
        <ele>189</ele>
        <time>2011-05-27T12:31:40Z</time>
      </trkpt>
      <trkpt lat="49.71066" lon="4.68571">
        <ele>190</ele>
        <time>2011-05-27T12:31:41Z</time>
      </trkpt>
      <trkpt lat="49.71065" lon="4.68575">
        <ele>190</ele>
        <time>2011-05-27T12:31:42Z</time>
      </trkpt>
      <trkpt lat="49.71064" lon="4.68578">
        <ele>190</ele>
        <time>2011-05-27T12:31:43Z</time>
      </trkpt>
      <trkpt lat="49.71062" lon="4.68582">
        <ele>191</ele>
        <time>2011-05-27T12:31:44Z</time>
      </trkpt>
      <trkpt lat="49.71061" lon="4.68586">
        <ele>191</ele>
        <time>2011-05-27T12:31:45Z</time>
      </trkpt>
      <trkpt lat="49.71059" lon="4.68591">
        <ele>191</ele>
        <time>2011-05-27T12:31:46Z</time>
      </trkpt>
      <trkpt lat="49.71058" lon="4.68596">
        <ele>191</ele>
        <time>2011-05-27T12:31:47Z</time>
      </trkpt>
      <trkpt lat="49.71056" lon="4.68599">
        <ele>192</ele>
        <time>2011-05-27T12:31:48Z</time>
      </trkpt>
      <trkpt lat="49.71055" lon="4.68603">
        <ele>192</ele>
        <time>2011-05-27T12:31:49Z</time>
      </trkpt>
      <trkpt lat="49.71054" lon="4.68607">
        <ele>192</ele>
        <time>2011-05-27T12:31:50Z</time>
      </trkpt>
      <trkpt lat="49.71053" lon="4.68612">
        <ele>193</ele>
        <time>2011-05-27T12:31:51Z</time>
      </trkpt>
      <trkpt lat="49.71053" lon="4.68617">
        <ele>193</ele>
        <time>2011-05-27T12:31:52Z</time>
      </trkpt>
      <trkpt lat="49.71052" lon="4.68621">
        <ele>193</ele>
        <time>2011-05-27T12:31:53Z</time>
      </trkpt>
      <trkpt lat="49.71051" lon="4.68624">
        <ele>193</ele>
        <time>2011-05-27T12:31:54Z</time>
      </trkpt>
      <trkpt lat="49.71051" lon="4.68628">
        <ele>194</ele>
        <time>2011-05-27T12:31:55Z</time>
      </trkpt>
      <trkpt lat="49.7105" lon="4.68631">
        <ele>194</ele>
        <time>2011-05-27T12:31:56Z</time>
      </trkpt>
      <trkpt lat="49.71049" lon="4.68635">
        <ele>195</ele>
        <time>2011-05-27T12:31:57Z</time>
      </trkpt>
      <trkpt lat="49.71049" lon="4.6864">
        <ele>196</ele>
        <time>2011-05-27T12:31:58Z</time>
      </trkpt>
      <trkpt lat="49.71048" lon="4.68645">
        <ele>196</ele>
        <time>2011-05-27T12:31:59Z</time>
      </trkpt>
      <trkpt lat="49.71046" lon="4.6865">
        <ele>197</ele>
        <time>2011-05-27T12:32:00Z</time>
      </trkpt>
      <trkpt lat="49.71043" lon="4.68654">
        <ele>197</ele>
        <time>2011-05-27T12:32:00Z</time>
      </trkpt>
      <trkpt lat="49.71041" lon="4.6866">
        <ele>198</ele>
        <time>2011-05-27T12:32:02Z</time>
      </trkpt>
      <trkpt lat="49.71038" lon="4.68666">
        <ele>198</ele>
        <time>2011-05-27T12:32:03Z</time>
      </trkpt>
      <trkpt lat="49.71035" lon="4.68671">
        <ele>198</ele>
        <time>2011-05-27T12:32:04Z</time>
      </trkpt>
      <trkpt lat="49.71032" lon="4.68677">
        <ele>198</ele>
        <time>2011-05-27T12:32:05Z</time>
      </trkpt>
      <trkpt lat="49.71029" lon="4.68681">
        <ele>198</ele>
        <time>2011-05-27T12:32:06Z</time>
      </trkpt>
      <trkpt lat="49.71026" lon="4.68686">
        <ele>198</ele>
        <time>2011-05-27T12:32:07Z</time>
      </trkpt>
      <trkpt lat="49.71023" lon="4.68692">
        <ele>198</ele>
        <time>2011-05-27T12:32:08Z</time>
      </trkpt>
      <trkpt lat="49.7102" lon="4.68696">
        <ele>198</ele>
        <time>2011-05-27T12:32:08Z</time>
      </trkpt>
      <trkpt lat="49.71017" lon="4.68702">
        <ele>198</ele>
        <time>2011-05-27T12:32:10Z</time>
      </trkpt>
      <trkpt lat="49.71013" lon="4.68706">
        <ele>198</ele>
        <time>2011-05-27T12:32:11Z</time>
      </trkpt>
      <trkpt lat="49.71009" lon="4.6871">
        <ele>198</ele>
        <time>2011-05-27T12:32:12Z</time>
      </trkpt>
      <trkpt lat="49.71006" lon="4.68715">
        <ele>198</ele>
        <time>2011-05-27T12:32:13Z</time>
      </trkpt>
      <trkpt lat="49.71001" lon="4.6872">
        <ele>198</ele>
        <time>2011-05-27T12:32:14Z</time>
      </trkpt>
      <trkpt lat="49.70997" lon="4.68725">
        <ele>198</ele>
        <time>2011-05-27T12:32:15Z</time>
      </trkpt>
      <trkpt lat="49.70992" lon="4.68729">
        <ele>198</ele>
        <time>2011-05-27T12:32:16Z</time>
      </trkpt>
      <trkpt lat="49.70986" lon="4.68734">
        <ele>198</ele>
        <time>2011-05-27T12:32:17Z</time>
      </trkpt>
      <trkpt lat="49.7098" lon="4.68738">
        <ele>198</ele>
        <time>2011-05-27T12:32:18Z</time>
      </trkpt>
      <trkpt lat="49.70974" lon="4.68742">
        <ele>198</ele>
        <time>2011-05-27T12:32:18Z</time>
      </trkpt>
      <trkpt lat="49.70968" lon="4.68746">
        <ele>198</ele>
        <time>2011-05-27T12:32:20Z</time>
      </trkpt>
      <trkpt lat="49.70961" lon="4.6875">
        <ele>198</ele>
        <time>2011-05-27T12:32:21Z</time>
      </trkpt>
      <trkpt lat="49.70954" lon="4.68754">
        <ele>198</ele>
        <time>2011-05-27T12:32:22Z</time>
      </trkpt>
      <trkpt lat="49.70948" lon="4.68758">
        <ele>197</ele>
        <time>2011-05-27T12:32:23Z</time>
      </trkpt>
      <trkpt lat="49.70942" lon="4.68762">
        <ele>197</ele>
        <time>2011-05-27T12:32:24Z</time>
      </trkpt>
      <trkpt lat="49.70936" lon="4.68766">
        <ele>196</ele>
        <time>2011-05-27T12:32:25Z</time>
      </trkpt>
      <trkpt lat="49.70931" lon="4.6877">
        <ele>196</ele>
        <time>2011-05-27T12:32:26Z</time>
      </trkpt>
      <trkpt lat="49.70927" lon="4.68774">
        <ele>196</ele>
        <time>2011-05-27T12:32:27Z</time>
      </trkpt>
      <trkpt lat="49.70922" lon="4.68778">
        <ele>196</ele>
        <time>2011-05-27T12:32:28Z</time>
      </trkpt>
      <trkpt lat="49.70918" lon="4.68782">
        <ele>196</ele>
        <time>2011-05-27T12:32:29Z</time>
      </trkpt>
      <trkpt lat="49.70913" lon="4.68785">
        <ele>196</ele>
        <time>2011-05-27T12:32:30Z</time>
      </trkpt>
      <trkpt lat="49.70908" lon="4.68789">
        <ele>195</ele>
        <time>2011-05-27T12:32:31Z</time>
      </trkpt>
      <trkpt lat="49.70902" lon="4.68793">
        <ele>195</ele>
        <time>2011-05-27T12:32:32Z</time>
      </trkpt>
      <trkpt lat="49.70896" lon="4.68796">
        <ele>194</ele>
        <time>2011-05-27T12:32:33Z</time>
      </trkpt>
      <trkpt lat="49.70891" lon="4.68798">
        <ele>194</ele>
        <time>2011-05-27T12:32:34Z</time>
      </trkpt>
      <trkpt lat="49.70887" lon="4.68801">
        <ele>193</ele>
        <time>2011-05-27T12:32:35Z</time>
      </trkpt>
      <trkpt lat="49.70884" lon="4.68804">
        <ele>193</ele>
        <time>2011-05-27T12:32:36Z</time>
      </trkpt>
      <trkpt lat="49.70882" lon="4.68807">
        <ele>193</ele>
        <time>2011-05-27T12:32:37Z</time>
      </trkpt>
      <trkpt lat="49.70878" lon="4.6881">
        <ele>193</ele>
        <time>2011-05-27T12:32:38Z</time>
      </trkpt>
      <trkpt lat="49.70873" lon="4.68815">
        <ele>193</ele>
        <time>2011-05-27T12:32:39Z</time>
      </trkpt>
      <trkpt lat="49.70869" lon="4.68819">
        <ele>193</ele>
        <time>2011-05-27T12:32:40Z</time>
      </trkpt>
      <trkpt lat="49.70865" lon="4.68824">
        <ele>193</ele>
        <time>2011-05-27T12:32:41Z</time>
      </trkpt>
      <trkpt lat="49.70861" lon="4.68829">
        <ele>193</ele>
        <time>2011-05-27T12:32:42Z</time>
      </trkpt>
      <trkpt lat="49.70858" lon="4.68833">
        <ele>193</ele>
        <time>2011-05-27T12:32:43Z</time>
      </trkpt>
      <trkpt lat="49.70854" lon="4.68836">
        <ele>193</ele>
        <time>2011-05-27T12:32:44Z</time>
      </trkpt>
      <trkpt lat="49.7085" lon="4.68838">
        <ele>193</ele>
        <time>2011-05-27T12:32:45Z</time>
      </trkpt>
      <trkpt lat="49.70846" lon="4.68841">
        <ele>193</ele>
        <time>2011-05-27T12:32:45Z</time>
      </trkpt>
      <trkpt lat="49.70842" lon="4.68843">
        <ele>193</ele>
        <time>2011-05-27T12:32:46Z</time>
      </trkpt>
      <trkpt lat="49.70839" lon="4.68846">
        <ele>193</ele>
        <time>2011-05-27T12:32:48Z</time>
      </trkpt>
      <trkpt lat="49.70835" lon="4.68849">
        <ele>193</ele>
        <time>2011-05-27T12:32:49Z</time>
      </trkpt>
      <trkpt lat="49.70832" lon="4.68851">
        <ele>193</ele>
        <time>2011-05-27T12:32:50Z</time>
      </trkpt>
      <trkpt lat="49.70829" lon="4.68853">
        <ele>193</ele>
        <time>2011-05-27T12:32:51Z</time>
      </trkpt>
      <trkpt lat="49.70826" lon="4.68856">
        <ele>193</ele>
        <time>2011-05-27T12:32:52Z</time>
      </trkpt>
      <trkpt lat="49.70823" lon="4.68858">
        <ele>193</ele>
        <time>2011-05-27T12:32:52Z</time>
      </trkpt>
      <trkpt lat="49.70819" lon="4.6886">
        <ele>193</ele>
        <time>2011-05-27T12:32:54Z</time>
      </trkpt>
      <trkpt lat="49.70815" lon="4.6886">
        <ele>193</ele>
        <time>2011-05-27T12:32:54Z</time>
      </trkpt>
      <trkpt lat="49.70811" lon="4.68861">
        <ele>193</ele>
        <time>2011-05-27T12:32:56Z</time>
      </trkpt>
      <trkpt lat="49.70808" lon="4.68861">
        <ele>193</ele>
        <time>2011-05-27T12:32:57Z</time>
      </trkpt>
      <trkpt lat="49.70804" lon="4.68862">
        <ele>193</ele>
        <time>2011-05-27T12:32:58Z</time>
      </trkpt>
      <trkpt lat="49.70801" lon="4.68863">
        <ele>193</ele>
        <time>2011-05-27T12:32:59Z</time>
      </trkpt>
      <trkpt lat="49.70798" lon="4.68864">
        <ele>193</ele>
        <time>2011-05-27T12:33:00Z</time>
      </trkpt>
      <trkpt lat="49.70794" lon="4.68865">
        <ele>193</ele>
        <time>2011-05-27T12:33:01Z</time>
      </trkpt>
      <trkpt lat="49.70791" lon="4.68865">
        <ele>193</ele>
        <time>2011-05-27T12:33:02Z</time>
      </trkpt>
      <trkpt lat="49.70788" lon="4.68866">
        <ele>193</ele>
        <time>2011-05-27T12:33:03Z</time>
      </trkpt>
      <trkpt lat="49.70785" lon="4.68866">
        <ele>193</ele>
        <time>2011-05-27T12:33:04Z</time>
      </trkpt>
      <trkpt lat="49.70781" lon="4.68867">
        <ele>193</ele>
        <time>2011-05-27T12:33:04Z</time>
      </trkpt>
      <trkpt lat="49.70777" lon="4.68867">
        <ele>193</ele>
        <time>2011-05-27T12:33:06Z</time>
      </trkpt>
      <trkpt lat="49.70773" lon="4.68868">
        <ele>193</ele>
        <time>2011-05-27T12:33:07Z</time>
      </trkpt>
      <trkpt lat="49.70769" lon="4.68869">
        <ele>193</ele>
        <time>2011-05-27T12:33:08Z</time>
      </trkpt>
      <trkpt lat="49.70766" lon="4.6887">
        <ele>193</ele>
        <time>2011-05-27T12:33:09Z</time>
      </trkpt>
      <trkpt lat="49.70763" lon="4.6887">
        <ele>193</ele>
        <time>2011-05-27T12:33:10Z</time>
      </trkpt>
      <trkpt lat="49.70759" lon="4.68871">
        <ele>193</ele>
        <time>2011-05-27T12:33:11Z</time>
      </trkpt>
      <trkpt lat="49.70755" lon="4.68872">
        <ele>193</ele>
        <time>2011-05-27T12:33:12Z</time>
      </trkpt>
      <trkpt lat="49.7075" lon="4.68874">
        <ele>193</ele>
        <time>2011-05-27T12:33:12Z</time>
      </trkpt>
      <trkpt lat="49.70747" lon="4.68875">
        <ele>193</ele>
        <time>2011-05-27T12:33:14Z</time>
      </trkpt>
      <trkpt lat="49.70743" lon="4.68877">
        <ele>193</ele>
        <time>2011-05-27T12:33:15Z</time>
      </trkpt>
      <trkpt lat="49.70739" lon="4.68879">
        <ele>193</ele>
        <time>2011-05-27T12:33:16Z</time>
      </trkpt>
      <trkpt lat="49.70735" lon="4.6888">
        <ele>193</ele>
        <time>2011-05-27T12:33:16Z</time>
      </trkpt>
      <trkpt lat="49.70731" lon="4.68882">
        <ele>193</ele>
        <time>2011-05-27T12:33:17Z</time>
      </trkpt>
      <trkpt lat="49.70728" lon="4.68885">
        <ele>193</ele>
        <time>2011-05-27T12:33:19Z</time>
      </trkpt>
      <trkpt lat="49.70724" lon="4.68887">
        <ele>193</ele>
        <time>2011-05-27T12:33:20Z</time>
      </trkpt>
      <trkpt lat="49.70721" lon="4.68889">
        <ele>193</ele>
        <time>2011-05-27T12:33:20Z</time>
      </trkpt>
      <trkpt lat="49.70717" lon="4.68891">
        <ele>193</ele>
        <time>2011-05-27T12:33:22Z</time>
      </trkpt>
      <trkpt lat="49.70714" lon="4.68893">
        <ele>193</ele>
        <time>2011-05-27T12:33:22Z</time>
      </trkpt>
      <trkpt lat="49.7071" lon="4.68895">
        <ele>193</ele>
        <time>2011-05-27T12:33:23Z</time>
      </trkpt>
      <trkpt lat="49.70707" lon="4.68898">
        <ele>193</ele>
        <time>2011-05-27T12:33:25Z</time>
      </trkpt>
      <trkpt lat="49.70704" lon="4.68901">
        <ele>193</ele>
        <time>2011-05-27T12:33:26Z</time>
      </trkpt>
      <trkpt lat="49.707" lon="4.68904">
        <ele>193</ele>
        <time>2011-05-27T12:33:27Z</time>
      </trkpt>
      <trkpt lat="49.70697" lon="4.68908">
        <ele>193</ele>
        <time>2011-05-27T12:33:28Z</time>
      </trkpt>
      <trkpt lat="49.70693" lon="4.68912">
        <ele>193</ele>
        <time>2011-05-27T12:33:29Z</time>
      </trkpt>
      <trkpt lat="49.7069" lon="4.68916">
        <ele>193</ele>
        <time>2011-05-27T12:33:30Z</time>
      </trkpt>
      <trkpt lat="49.70686" lon="4.68919">
        <ele>194</ele>
        <time>2011-05-27T12:33:31Z</time>
      </trkpt>
      <trkpt lat="49.70682" lon="4.68923">
        <ele>194</ele>
        <time>2011-05-27T12:33:32Z</time>
      </trkpt>
      <trkpt lat="49.70678" lon="4.68926">
        <ele>194</ele>
        <time>2011-05-27T12:33:33Z</time>
      </trkpt>
      <trkpt lat="49.70675" lon="4.6893">
        <ele>194</ele>
        <time>2011-05-27T12:33:34Z</time>
      </trkpt>
      <trkpt lat="49.70671" lon="4.68933">
        <ele>194</ele>
        <time>2011-05-27T12:33:35Z</time>
      </trkpt>
      <trkpt lat="49.70668" lon="4.68937">
        <ele>194</ele>
        <time>2011-05-27T12:33:36Z</time>
      </trkpt>
      <trkpt lat="49.70664" lon="4.6894">
        <ele>194</ele>
        <time>2011-05-27T12:33:37Z</time>
      </trkpt>
      <trkpt lat="49.70661" lon="4.68944">
        <ele>194</ele>
        <time>2011-05-27T12:33:38Z</time>
      </trkpt>
      <trkpt lat="49.70657" lon="4.68947">
        <ele>195</ele>
        <time>2011-05-27T12:33:39Z</time>
      </trkpt>
      <trkpt lat="49.70654" lon="4.68951">
        <ele>195</ele>
        <time>2011-05-27T12:33:40Z</time>
      </trkpt>
      <trkpt lat="49.7065" lon="4.68954">
        <ele>195</ele>
        <time>2011-05-27T12:33:41Z</time>
      </trkpt>
      <trkpt lat="49.70647" lon="4.68958">
        <ele>195</ele>
        <time>2011-05-27T12:33:42Z</time>
      </trkpt>
      <trkpt lat="49.70644" lon="4.68961">
        <ele>195</ele>
        <time>2011-05-27T12:33:43Z</time>
      </trkpt>
      <trkpt lat="49.7064" lon="4.68964">
        <ele>195</ele>
        <time>2011-05-27T12:33:44Z</time>
      </trkpt>
      <trkpt lat="49.70637" lon="4.68967">
        <ele>195</ele>
        <time>2011-05-27T12:33:44Z</time>
      </trkpt>
      <trkpt lat="49.70634" lon="4.68971">
        <ele>196</ele>
        <time>2011-05-27T12:33:46Z</time>
      </trkpt>
      <trkpt lat="49.70631" lon="4.68974">
        <ele>196</ele>
        <time>2011-05-27T12:33:47Z</time>
      </trkpt>
      <trkpt lat="49.70628" lon="4.68976">
        <ele>196</ele>
        <time>2011-05-27T12:33:48Z</time>
      </trkpt>
      <trkpt lat="49.70625" lon="4.68976">
        <ele>196</ele>
        <time>2011-05-27T12:33:49Z</time>
      </trkpt>
      <trkpt lat="49.70622" lon="4.68974">
        <ele>196</ele>
        <time>2011-05-27T12:33:50Z</time>
      </trkpt>
      <trkpt lat="49.7062" lon="4.6897">
        <ele>196</ele>
        <time>2011-05-27T12:33:51Z</time>
      </trkpt>
      <trkpt lat="49.70618" lon="4.68964">
        <ele>196</ele>
        <time>2011-05-27T12:33:52Z</time>
      </trkpt>
      <trkpt lat="49.70615" lon="4.68959">
        <ele>197</ele>
        <time>2011-05-27T12:33:52Z</time>
      </trkpt>
      <trkpt lat="49.70613" lon="4.68954">
        <ele>197</ele>
        <time>2011-05-27T12:33:53Z</time>
      </trkpt>
      <trkpt lat="49.70612" lon="4.68949">
        <ele>197</ele>
        <time>2011-05-27T12:33:55Z</time>
      </trkpt>
      <trkpt lat="49.7061" lon="4.68943">
        <ele>197</ele>
        <time>2011-05-27T12:33:56Z</time>
      </trkpt>
      <trkpt lat="49.70609" lon="4.68938">
        <ele>197</ele>
        <time>2011-05-27T12:33:57Z</time>
      </trkpt>
      <trkpt lat="49.70607" lon="4.68933">
        <ele>197</ele>
        <time>2011-05-27T12:33:58Z</time>
      </trkpt>
      <trkpt lat="49.70606" lon="4.68928">
        <ele>197</ele>
        <time>2011-05-27T12:33:59Z</time>
      </trkpt>
      <trkpt lat="49.70604" lon="4.68923">
        <ele>197</ele>
        <time>2011-05-27T12:34:00Z</time>
      </trkpt>
      <trkpt lat="49.70603" lon="4.68918">
        <ele>197</ele>
        <time>2011-05-27T12:34:00Z</time>
      </trkpt>
      <trkpt lat="49.70602" lon="4.68913">
        <ele>197</ele>
        <time>2011-05-27T12:34:01Z</time>
      </trkpt>
      <trkpt lat="49.70601" lon="4.68908">
        <ele>197</ele>
        <time>2011-05-27T12:34:03Z</time>
      </trkpt>
      <trkpt lat="49.706" lon="4.68903">
        <ele>197</ele>
        <time>2011-05-27T12:34:03Z</time>
      </trkpt>
      <trkpt lat="49.70599" lon="4.68898">
        <ele>197</ele>
        <time>2011-05-27T12:34:04Z</time>
      </trkpt>
      <trkpt lat="49.70597" lon="4.68894">
        <ele>197</ele>
        <time>2011-05-27T12:34:06Z</time>
      </trkpt>
      <trkpt lat="49.70596" lon="4.6889">
        <ele>198</ele>
        <time>2011-05-27T12:34:07Z</time>
      </trkpt>
      <trkpt lat="49.70595" lon="4.68885">
        <ele>198</ele>
        <time>2011-05-27T12:34:08Z</time>
      </trkpt>
      <trkpt lat="49.70594" lon="4.68881">
        <ele>198</ele>
        <time>2011-05-27T12:34:09Z</time>
      </trkpt>
      <trkpt lat="49.70592" lon="4.68877">
        <ele>198</ele>
        <time>2011-05-27T12:34:10Z</time>
      </trkpt>
      <trkpt lat="49.70591" lon="4.68872">
        <ele>198</ele>
        <time>2011-05-27T12:34:10Z</time>
      </trkpt>
      <trkpt lat="49.70589" lon="4.68868">
        <ele>198</ele>
        <time>2011-05-27T12:34:12Z</time>
      </trkpt>
      <trkpt lat="49.70588" lon="4.68865">
        <ele>198</ele>
        <time>2011-05-27T12:34:12Z</time>
      </trkpt>
      <trkpt lat="49.70587" lon="4.68861">
        <ele>199</ele>
        <time>2011-05-27T12:34:14Z</time>
      </trkpt>
      <trkpt lat="49.70586" lon="4.68857">
        <ele>199</ele>
        <time>2011-05-27T12:34:15Z</time>
      </trkpt>
      <trkpt lat="49.70584" lon="4.68853">
        <ele>199</ele>
        <time>2011-05-27T12:34:15Z</time>
      </trkpt>
      <trkpt lat="49.70583" lon="4.68849">
        <ele>199</ele>
        <time>2011-05-27T12:34:17Z</time>
      </trkpt>
      <trkpt lat="49.70581" lon="4.68845">
        <ele>199</ele>
        <time>2011-05-27T12:34:18Z</time>
      </trkpt>
      <trkpt lat="49.7058" lon="4.68841">
        <ele>199</ele>
        <time>2011-05-27T12:34:19Z</time>
      </trkpt>
      <trkpt lat="49.70578" lon="4.68837">
        <ele>199</ele>
        <time>2011-05-27T12:34:20Z</time>
      </trkpt>
      <trkpt lat="49.70576" lon="4.68833">
        <ele>200</ele>
        <time>2011-05-27T12:34:20Z</time>
      </trkpt>
      <trkpt lat="49.70575" lon="4.68828">
        <ele>200</ele>
        <time>2011-05-27T12:34:22Z</time>
      </trkpt>
      <trkpt lat="49.70574" lon="4.68824">
        <ele>200</ele>
        <time>2011-05-27T12:34:22Z</time>
      </trkpt>
      <trkpt lat="49.70572" lon="4.6882">
        <ele>200</ele>
        <time>2011-05-27T12:34:23Z</time>
      </trkpt>
      <trkpt lat="49.70571" lon="4.68816">
        <ele>201</ele>
        <time>2011-05-27T12:34:25Z</time>
      </trkpt>
      <trkpt lat="49.70569" lon="4.68812">
        <ele>201</ele>
        <time>2011-05-27T12:34:26Z</time>
      </trkpt>
      <trkpt lat="49.70568" lon="4.68808">
        <ele>201</ele>
        <time>2011-05-27T12:34:27Z</time>
      </trkpt>
      <trkpt lat="49.70567" lon="4.68804">
        <ele>202</ele>
        <time>2011-05-27T12:34:27Z</time>
      </trkpt>
      <trkpt lat="49.70566" lon="4.688">
        <ele>202</ele>
        <time>2011-05-27T12:34:29Z</time>
      </trkpt>
      <trkpt lat="49.70565" lon="4.68796">
        <ele>202</ele>
        <time>2011-05-27T12:34:30Z</time>
      </trkpt>
      <trkpt lat="49.70564" lon="4.68793">
        <ele>202</ele>
        <time>2011-05-27T12:34:31Z</time>
      </trkpt>
      <trkpt lat="49.70563" lon="4.68789">
        <ele>203</ele>
        <time>2011-05-27T12:34:32Z</time>
      </trkpt>
      <trkpt lat="49.70562" lon="4.68786">
        <ele>203</ele>
        <time>2011-05-27T12:34:33Z</time>
      </trkpt>
      <trkpt lat="49.70561" lon="4.68783">
        <ele>203</ele>
        <time>2011-05-27T12:34:34Z</time>
      </trkpt>
      <trkpt lat="49.7056" lon="4.6878">
        <ele>203</ele>
        <time>2011-05-27T12:34:35Z</time>
      </trkpt>
      <trkpt lat="49.70559" lon="4.68776">
        <ele>204</ele>
        <time>2011-05-27T12:34:36Z</time>
      </trkpt>
      <trkpt lat="49.70558" lon="4.68773">
        <ele>204</ele>
        <time>2011-05-27T12:34:37Z</time>
      </trkpt>
      <trkpt lat="49.70557" lon="4.68769">
        <ele>204</ele>
        <time>2011-05-27T12:34:38Z</time>
      </trkpt>
      <trkpt lat="49.70556" lon="4.68765">
        <ele>204</ele>
        <time>2011-05-27T12:34:39Z</time>
      </trkpt>
      <trkpt lat="49.70555" lon="4.68762">
        <ele>204</ele>
        <time>2011-05-27T12:34:40Z</time>
      </trkpt>
      <trkpt lat="49.70555" lon="4.68758">
        <ele>205</ele>
        <time>2011-05-27T12:34:41Z</time>
      </trkpt>
      <trkpt lat="49.70554" lon="4.68754">
        <ele>205</ele>
        <time>2011-05-27T12:34:42Z</time>
      </trkpt>
      <trkpt lat="49.70554" lon="4.6875">
        <ele>205</ele>
        <time>2011-05-27T12:34:42Z</time>
      </trkpt>
      <trkpt lat="49.70554" lon="4.68746">
        <ele>205</ele>
        <time>2011-05-27T12:34:43Z</time>
      </trkpt>
      <trkpt lat="49.70554" lon="4.68742">
        <ele>205</ele>
        <time>2011-05-27T12:34:45Z</time>
      </trkpt>
      <trkpt lat="49.70554" lon="4.68738">
        <ele>205</ele>
        <time>2011-05-27T12:34:46Z</time>
      </trkpt>
      <trkpt lat="49.70555" lon="4.68734">
        <ele>205</ele>
        <time>2011-05-27T12:34:47Z</time>
      </trkpt>
      <trkpt lat="49.70556" lon="4.6873">
        <ele>205</ele>
        <time>2011-05-27T12:34:48Z</time>
      </trkpt>
      <trkpt lat="49.70557" lon="4.68726">
        <ele>206</ele>
        <time>2011-05-27T12:34:48Z</time>
      </trkpt>
      <trkpt lat="49.70558" lon="4.68722">
        <ele>206</ele>
        <time>2011-05-27T12:34:50Z</time>
      </trkpt>
      <trkpt lat="49.70559" lon="4.68718">
        <ele>206</ele>
        <time>2011-05-27T12:34:51Z</time>
      </trkpt>
      <trkpt lat="49.70559" lon="4.68714">
        <ele>206</ele>
        <time>2011-05-27T12:34:52Z</time>
      </trkpt>
      <trkpt lat="49.7056" lon="4.6871">
        <ele>206</ele>
        <time>2011-05-27T12:34:53Z</time>
      </trkpt>
      <trkpt lat="49.70561" lon="4.68707">
        <ele>206</ele>
        <time>2011-05-27T12:34:53Z</time>
      </trkpt>
      <trkpt lat="49.70562" lon="4.68703">
        <ele>206</ele>
        <time>2011-05-27T12:34:54Z</time>
      </trkpt>
      <trkpt lat="49.70564" lon="4.687">
        <ele>206</ele>
        <time>2011-05-27T12:34:56Z</time>
      </trkpt>
      <trkpt lat="49.70565" lon="4.68696">
        <ele>207</ele>
        <time>2011-05-27T12:34:57Z</time>
      </trkpt>
      <trkpt lat="49.70566" lon="4.68692">
        <ele>207</ele>
        <time>2011-05-27T12:34:57Z</time>
      </trkpt>
      <trkpt lat="49.70567" lon="4.68689">
        <ele>207</ele>
        <time>2011-05-27T12:34:58Z</time>
      </trkpt>
      <trkpt lat="49.70568" lon="4.68685">
        <ele>207</ele>
        <time>2011-05-27T12:34:59Z</time>
      </trkpt>
      <trkpt lat="49.7057" lon="4.68682">
        <ele>207</ele>
        <time>2011-05-27T12:35:00Z</time>
      </trkpt>
      <trkpt lat="49.70571" lon="4.68679">
        <ele>207</ele>
        <time>2011-05-27T12:35:02Z</time>
      </trkpt>
      <trkpt lat="49.70572" lon="4.68675">
        <ele>208</ele>
        <time>2011-05-27T12:35:03Z</time>
      </trkpt>
      <trkpt lat="49.70573" lon="4.68671">
        <ele>208</ele>
        <time>2011-05-27T12:35:04Z</time>
      </trkpt>
      <trkpt lat="49.70574" lon="4.68668">
        <ele>208</ele>
        <time>2011-05-27T12:35:05Z</time>
      </trkpt>
      <trkpt lat="49.70575" lon="4.68665">
        <ele>208</ele>
        <time>2011-05-27T12:35:06Z</time>
      </trkpt>
      <trkpt lat="49.70576" lon="4.68661">
        <ele>208</ele>
        <time>2011-05-27T12:35:07Z</time>
      </trkpt>
      <trkpt lat="49.70577" lon="4.68658">
        <ele>208</ele>
        <time>2011-05-27T12:35:08Z</time>
      </trkpt>
      <trkpt lat="49.70578" lon="4.68654">
        <ele>208</ele>
        <time>2011-05-27T12:35:08Z</time>
      </trkpt>
      <trkpt lat="49.70579" lon="4.6865">
        <ele>209</ele>
        <time>2011-05-27T12:35:10Z</time>
      </trkpt>
      <trkpt lat="49.7058" lon="4.68647">
        <ele>209</ele>
        <time>2011-05-27T12:35:11Z</time>
      </trkpt>
      <trkpt lat="49.70581" lon="4.68644">
        <ele>209</ele>
        <time>2011-05-27T12:35:11Z</time>
      </trkpt>
      <trkpt lat="49.70582" lon="4.68641">
        <ele>209</ele>
        <time>2011-05-27T12:35:13Z</time>
      </trkpt>
      <trkpt lat="49.70583" lon="4.68637">
        <ele>209</ele>
        <time>2011-05-27T12:35:14Z</time>
      </trkpt>
      <trkpt lat="49.70585" lon="4.68634">
        <ele>209</ele>
        <time>2011-05-27T12:35:14Z</time>
      </trkpt>
      <trkpt lat="49.70586" lon="4.68631">
        <ele>209</ele>
        <time>2011-05-27T12:35:15Z</time>
      </trkpt>
      <trkpt lat="49.70587" lon="4.68627">
        <ele>210</ele>
        <time>2011-05-27T12:35:16Z</time>
      </trkpt>
      <trkpt lat="49.70588" lon="4.68623">
        <ele>210</ele>
        <time>2011-05-27T12:35:17Z</time>
      </trkpt>
      <trkpt lat="49.70589" lon="4.6862">
        <ele>210</ele>
        <time>2011-05-27T12:35:19Z</time>
      </trkpt>
      <trkpt lat="49.7059" lon="4.68617">
        <ele>210</ele>
        <time>2011-05-27T12:35:20Z</time>
      </trkpt>
      <trkpt lat="49.70591" lon="4.68613">
        <ele>210</ele>
        <time>2011-05-27T12:35:21Z</time>
      </trkpt>
      <trkpt lat="49.70592" lon="4.6861">
        <ele>210</ele>
        <time>2011-05-27T12:35:21Z</time>
      </trkpt>
      <trkpt lat="49.70593" lon="4.68607">
        <ele>210</ele>
        <time>2011-05-27T12:35:22Z</time>
      </trkpt>
      <trkpt lat="49.70594" lon="4.68604">
        <ele>211</ele>
        <time>2011-05-27T12:35:23Z</time>
      </trkpt>
      <trkpt lat="49.70596" lon="4.68601">
        <ele>211</ele>
        <time>2011-05-27T12:35:25Z</time>
      </trkpt>
      <trkpt lat="49.70596" lon="4.68597">
        <ele>211</ele>
        <time>2011-05-27T12:35:26Z</time>
      </trkpt>
      <trkpt lat="49.70597" lon="4.68594">
        <ele>211</ele>
        <time>2011-05-27T12:35:27Z</time>
      </trkpt>
      <trkpt lat="49.70598" lon="4.6859">
        <ele>211</ele>
        <time>2011-05-27T12:35:28Z</time>
      </trkpt>
      <trkpt lat="49.70599" lon="4.68587">
        <ele>211</ele>
        <time>2011-05-27T12:35:28Z</time>
      </trkpt>
      <trkpt lat="49.70601" lon="4.68585">
        <ele>211</ele>
        <time>2011-05-27T12:35:30Z</time>
      </trkpt>
      <trkpt lat="49.70601" lon="4.68582">
        <ele>212</ele>
        <time>2011-05-27T12:35:30Z</time>
      </trkpt>
      <trkpt lat="49.70602" lon="4.68579">
        <ele>212</ele>
        <time>2011-05-27T12:35:32Z</time>
      </trkpt>
      <trkpt lat="49.70603" lon="4.68576">
        <ele>212</ele>
        <time>2011-05-27T12:35:33Z</time>
      </trkpt>
      <trkpt lat="49.70604" lon="4.68572">
        <ele>212</ele>
        <time>2011-05-27T12:35:34Z</time>
      </trkpt>
      <trkpt lat="49.70605" lon="4.68569">
        <ele>212</ele>
        <time>2011-05-27T12:35:35Z</time>
      </trkpt>
      <trkpt lat="49.70607" lon="4.68565">
        <ele>212</ele>
        <time>2011-05-27T12:35:36Z</time>
      </trkpt>
      <trkpt lat="49.70607" lon="4.68562">
        <ele>213</ele>
        <time>2011-05-27T12:35:36Z</time>
      </trkpt>
      <trkpt lat="49.70609" lon="4.68558">
        <ele>213</ele>
        <time>2011-05-27T12:35:38Z</time>
      </trkpt>
      <trkpt lat="49.7061" lon="4.68555">
        <ele>213</ele>
        <time>2011-05-27T12:35:39Z</time>
      </trkpt>
      <trkpt lat="49.7061" lon="4.68552">
        <ele>213</ele>
        <time>2011-05-27T12:35:40Z</time>
      </trkpt>
      <trkpt lat="49.70611" lon="4.68548">
        <ele>214</ele>
        <time>2011-05-27T12:35:40Z</time>
      </trkpt>
      <trkpt lat="49.70612" lon="4.68545">
        <ele>214</ele>
        <time>2011-05-27T12:35:42Z</time>
      </trkpt>
      <trkpt lat="49.70613" lon="4.68542">
        <ele>214</ele>
        <time>2011-05-27T12:35:43Z</time>
      </trkpt>
      <trkpt lat="49.70614" lon="4.68539">
        <ele>214</ele>
        <time>2011-05-27T12:35:44Z</time>
      </trkpt>
      <trkpt lat="49.70615" lon="4.68536">
        <ele>215</ele>
        <time>2011-05-27T12:35:45Z</time>
      </trkpt>
      <trkpt lat="49.70616" lon="4.68533">
        <ele>215</ele>
        <time>2011-05-27T12:35:46Z</time>
      </trkpt>
      <trkpt lat="49.70617" lon="4.68529">
        <ele>215</ele>
        <time>2011-05-27T12:35:47Z</time>
      </trkpt>
      <trkpt lat="49.70618" lon="4.68526">
        <ele>215</ele>
        <time>2011-05-27T12:35:47Z</time>
      </trkpt>
      <trkpt lat="49.70619" lon="4.68522">
        <ele>216</ele>
        <time>2011-05-27T12:35:49Z</time>
      </trkpt>
      <trkpt lat="49.70619" lon="4.68518">
        <ele>216</ele>
        <time>2011-05-27T12:35:49Z</time>
      </trkpt>
      <trkpt lat="49.7062" lon="4.68515">
        <ele>216</ele>
        <time>2011-05-27T12:35:51Z</time>
      </trkpt>
      <trkpt lat="49.70621" lon="4.68512">
        <ele>216</ele>
        <time>2011-05-27T12:35:52Z</time>
      </trkpt>
      <trkpt lat="49.70621" lon="4.68508">
        <ele>217</ele>
        <time>2011-05-27T12:35:52Z</time>
      </trkpt>
      <trkpt lat="49.70622" lon="4.68505">
        <ele>217</ele>
        <time>2011-05-27T12:35:53Z</time>
      </trkpt>
      <trkpt lat="49.70622" lon="4.68502">
        <ele>217</ele>
        <time>2011-05-27T12:35:55Z</time>
      </trkpt>
      <trkpt lat="49.70623" lon="4.68498">
        <ele>218</ele>
        <time>2011-05-27T12:35:56Z</time>
      </trkpt>
      <trkpt lat="49.70623" lon="4.68495">
        <ele>218</ele>
        <time>2011-05-27T12:35:56Z</time>
      </trkpt>
      <trkpt lat="49.70624" lon="4.68491">
        <ele>218</ele>
        <time>2011-05-27T12:35:58Z</time>
      </trkpt>
      <trkpt lat="49.70624" lon="4.68488">
        <ele>218</ele>
        <time>2011-05-27T12:35:58Z</time>
      </trkpt>
      <trkpt lat="49.70625" lon="4.68484">
        <ele>219</ele>
        <time>2011-05-27T12:36:00Z</time>
      </trkpt>
      <trkpt lat="49.70626" lon="4.68481">
        <ele>219</ele>
        <time>2011-05-27T12:36:00Z</time>
      </trkpt>
      <trkpt lat="49.70627" lon="4.68478">
        <ele>219</ele>
        <time>2011-05-27T12:36:02Z</time>
      </trkpt>
      <trkpt lat="49.70628" lon="4.68474">
        <ele>219</ele>
        <time>2011-05-27T12:36:02Z</time>
      </trkpt>
      <trkpt lat="49.70628" lon="4.68471">
        <ele>219</ele>
        <time>2011-05-27T12:36:04Z</time>
      </trkpt>
      <trkpt lat="49.7063" lon="4.68468">
        <ele>219</ele>
        <time>2011-05-27T12:36:04Z</time>
      </trkpt>
      <trkpt lat="49.7063" lon="4.68464">
        <ele>220</ele>
        <time>2011-05-27T12:36:06Z</time>
      </trkpt>
      <trkpt lat="49.70631" lon="4.6846">
        <ele>220</ele>
        <time>2011-05-27T12:36:07Z</time>
      </trkpt>
      <trkpt lat="49.70632" lon="4.68457">
        <ele>220</ele>
        <time>2011-05-27T12:36:08Z</time>
      </trkpt>
      <trkpt lat="49.70633" lon="4.68454">
        <ele>220</ele>
        <time>2011-05-27T12:36:08Z</time>
      </trkpt>
      <trkpt lat="49.70634" lon="4.6845">
        <ele>220</ele>
        <time>2011-05-27T12:36:10Z</time>
      </trkpt>
      <trkpt lat="49.70635" lon="4.68447">
        <ele>220</ele>
        <time>2011-05-27T12:36:10Z</time>
      </trkpt>
      <trkpt lat="49.70636" lon="4.68444">
        <ele>221</ele>
        <time>2011-05-27T12:36:12Z</time>
      </trkpt>
      <trkpt lat="49.70637" lon="4.6844">
        <ele>221</ele>
        <time>2011-05-27T12:36:12Z</time>
      </trkpt>
      <trkpt lat="49.70638" lon="4.68437">
        <ele>221</ele>
        <time>2011-05-27T12:36:14Z</time>
      </trkpt>
      <trkpt lat="49.70639" lon="4.68434">
        <ele>221</ele>
        <time>2011-05-27T12:36:15Z</time>
      </trkpt>
      <trkpt lat="49.70639" lon="4.6843">
        <ele>221</ele>
        <time>2011-05-27T12:36:15Z</time>
      </trkpt>
      <trkpt lat="49.7064" lon="4.68427">
        <ele>221</ele>
        <time>2011-05-27T12:36:16Z</time>
      </trkpt>
      <trkpt lat="49.70641" lon="4.68424">
        <ele>222</ele>
        <time>2011-05-27T12:36:18Z</time>
      </trkpt>
      <trkpt lat="49.70642" lon="4.6842">
        <ele>222</ele>
        <time>2011-05-27T12:36:19Z</time>
      </trkpt>
      <trkpt lat="49.70643" lon="4.68417">
        <ele>222</ele>
        <time>2011-05-27T12:36:20Z</time>
      </trkpt>
      <trkpt lat="49.70644" lon="4.68414">
        <ele>222</ele>
        <time>2011-05-27T12:36:20Z</time>
      </trkpt>
      <trkpt lat="49.70645" lon="4.6841">
        <ele>222</ele>
        <time>2011-05-27T12:36:21Z</time>
      </trkpt>
      <trkpt lat="49.70647" lon="4.68407">
        <ele>223</ele>
        <time>2011-05-27T12:36:23Z</time>
      </trkpt>
      <trkpt lat="49.70648" lon="4.68404">
        <ele>223</ele>
        <time>2011-05-27T12:36:23Z</time>
      </trkpt>
      <trkpt lat="49.70649" lon="4.68401">
        <ele>223</ele>
        <time>2011-05-27T12:36:24Z</time>
      </trkpt>
      <trkpt lat="49.7065" lon="4.68398">
        <ele>223</ele>
        <time>2011-05-27T12:36:26Z</time>
      </trkpt>
      <trkpt lat="49.7065" lon="4.68394">
        <ele>223</ele>
        <time>2011-05-27T12:36:26Z</time>
      </trkpt>
      <trkpt lat="49.70652" lon="4.68391">
        <ele>223</ele>
        <time>2011-05-27T12:36:28Z</time>
      </trkpt>
      <trkpt lat="49.70652" lon="4.68388">
        <ele>224</ele>
        <time>2011-05-27T12:36:28Z</time>
      </trkpt>
      <trkpt lat="49.70653" lon="4.68384">
        <ele>224</ele>
        <time>2011-05-27T12:36:29Z</time>
      </trkpt>
      <trkpt lat="49.70654" lon="4.68381">
        <ele>224</ele>
        <time>2011-05-27T12:36:31Z</time>
      </trkpt>
      <trkpt lat="49.70655" lon="4.68377">
        <ele>224</ele>
        <time>2011-05-27T12:36:32Z</time>
      </trkpt>
      <trkpt lat="49.70656" lon="4.68374">
        <ele>224</ele>
        <time>2011-05-27T12:36:33Z</time>
      </trkpt>
      <trkpt lat="49.70657" lon="4.68371">
        <ele>225</ele>
        <time>2011-05-27T12:36:33Z</time>
      </trkpt>
      <trkpt lat="49.70658" lon="4.68368">
        <ele>225</ele>
        <time>2011-05-27T12:36:34Z</time>
      </trkpt>
      <trkpt lat="49.70658" lon="4.68365">
        <ele>225</ele>
        <time>2011-05-27T12:36:35Z</time>
      </trkpt>
      <trkpt lat="49.70659" lon="4.68362">
        <ele>225</ele>
        <time>2011-05-27T12:36:36Z</time>
      </trkpt>
      <trkpt lat="49.7066" lon="4.68359">
        <ele>225</ele>
        <time>2011-05-27T12:36:38Z</time>
      </trkpt>
      <trkpt lat="49.70661" lon="4.68356">
        <ele>225</ele>
        <time>2011-05-27T12:36:39Z</time>
      </trkpt>
      <trkpt lat="49.70662" lon="4.68352">
        <ele>226</ele>
        <time>2011-05-27T12:36:39Z</time>
      </trkpt>
      <trkpt lat="49.70663" lon="4.68349">
        <ele>226</ele>
        <time>2011-05-27T12:36:40Z</time>
      </trkpt>
      <trkpt lat="49.70664" lon="4.68346">
        <ele>226</ele>
        <time>2011-05-27T12:36:41Z</time>
      </trkpt>
      <trkpt lat="49.70665" lon="4.68342">
        <ele>226</ele>
        <time>2011-05-27T12:36:43Z</time>
      </trkpt>
      <trkpt lat="49.70666" lon="4.68339">
        <ele>226</ele>
        <time>2011-05-27T12:36:43Z</time>
      </trkpt>
      <trkpt lat="49.70667" lon="4.68336">
        <ele>227</ele>
        <time>2011-05-27T12:36:44Z</time>
      </trkpt>
      <trkpt lat="49.70668" lon="4.68333">
        <ele>227</ele>
        <time>2011-05-27T12:36:45Z</time>
      </trkpt>
      <trkpt lat="49.70669" lon="4.68329">
        <ele>227</ele>
        <time>2011-05-27T12:36:46Z</time>
      </trkpt>
      <trkpt lat="49.70669" lon="4.68326">
        <ele>227</ele>
        <time>2011-05-27T12:36:48Z</time>
      </trkpt>
      <trkpt lat="49.7067" lon="4.68323">
        <ele>227</ele>
        <time>2011-05-27T12:36:48Z</time>
      </trkpt>
      <trkpt lat="49.70671" lon="4.6832">
        <ele>227</ele>
        <time>2011-05-27T12:36:49Z</time>
      </trkpt>
      <trkpt lat="49.70672" lon="4.68317">
        <ele>228</ele>
        <time>2011-05-27T12:36:50Z</time>
      </trkpt>
      <trkpt lat="49.70673" lon="4.68314">
        <ele>228</ele>
        <time>2011-05-27T12:36:51Z</time>
      </trkpt>
      <trkpt lat="49.70675" lon="4.68311">
        <ele>228</ele>
        <time>2011-05-27T12:36:53Z</time>
      </trkpt>
      <trkpt lat="49.70675" lon="4.68308">
        <ele>228</ele>
        <time>2011-05-27T12:36:53Z</time>
      </trkpt>
      <trkpt lat="49.70676" lon="4.68305">
        <ele>228</ele>
        <time>2011-05-27T12:36:54Z</time>
      </trkpt>
      <trkpt lat="49.70678" lon="4.68301">
        <ele>228</ele>
        <time>2011-05-27T12:36:55Z</time>
      </trkpt>
      <trkpt lat="49.70678" lon="4.68298">
        <ele>228</ele>
        <time>2011-05-27T12:36:56Z</time>
      </trkpt>
      <trkpt lat="49.70679" lon="4.68295">
        <ele>228</ele>
        <time>2011-05-27T12:36:58Z</time>
      </trkpt>
      <trkpt lat="49.7068" lon="4.68292">
        <ele>228</ele>
        <time>2011-05-27T12:36:58Z</time>
      </trkpt>
      <trkpt lat="49.70681" lon="4.68289">
        <ele>228</ele>
        <time>2011-05-27T12:36:59Z</time>
      </trkpt>
      <trkpt lat="49.70682" lon="4.68285">
        <ele>228</ele>
        <time>2011-05-27T12:37:00Z</time>
      </trkpt>
      <trkpt lat="49.70683" lon="4.68282">
        <ele>228</ele>
        <time>2011-05-27T12:37:02Z</time>
      </trkpt>
      <trkpt lat="49.70684" lon="4.68279">
        <ele>229</ele>
        <time>2011-05-27T12:37:03Z</time>
      </trkpt>
      <trkpt lat="49.70686" lon="4.68276">
        <ele>229</ele>
        <time>2011-05-27T12:37:03Z</time>
      </trkpt>
      <trkpt lat="49.70687" lon="4.68273">
        <ele>229</ele>
        <time>2011-05-27T12:37:04Z</time>
      </trkpt>
      <trkpt lat="49.70688" lon="4.6827">
        <ele>229</ele>
        <time>2011-05-27T12:37:05Z</time>
      </trkpt>
      <trkpt lat="49.70689" lon="4.68267">
        <ele>229</ele>
        <time>2011-05-27T12:37:06Z</time>
      </trkpt>
      <trkpt lat="49.7069" lon="4.68264">
        <ele>229</ele>
        <time>2011-05-27T12:37:08Z</time>
      </trkpt>
      <trkpt lat="49.70691" lon="4.68261">
        <ele>229</ele>
        <time>2011-05-27T12:37:08Z</time>
      </trkpt>
      <trkpt lat="49.70692" lon="4.68257">
        <ele>229</ele>
        <time>2011-05-27T12:37:09Z</time>
      </trkpt>
      <trkpt lat="49.70693" lon="4.68254">
        <ele>230</ele>
        <time>2011-05-27T12:37:10Z</time>
      </trkpt>
      <trkpt lat="49.70694" lon="4.68251">
        <ele>230</ele>
        <time>2011-05-27T12:37:11Z</time>
      </trkpt>
      <trkpt lat="49.70695" lon="4.68248">
        <ele>230</ele>
        <time>2011-05-27T12:37:13Z</time>
      </trkpt>
      <trkpt lat="49.70696" lon="4.68244">
        <ele>230</ele>
        <time>2011-05-27T12:37:13Z</time>
      </trkpt>
      <trkpt lat="49.70697" lon="4.68241">
        <ele>230</ele>
        <time>2011-05-27T12:37:14Z</time>
      </trkpt>
      <trkpt lat="49.70699" lon="4.68238">
        <ele>231</ele>
        <time>2011-05-27T12:37:15Z</time>
      </trkpt>
      <trkpt lat="49.707" lon="4.68235">
        <ele>231</ele>
        <time>2011-05-27T12:37:16Z</time>
      </trkpt>
      <trkpt lat="49.70701" lon="4.68231">
        <ele>231</ele>
        <time>2011-05-27T12:37:18Z</time>
      </trkpt>
      <trkpt lat="49.70702" lon="4.68228">
        <ele>231</ele>
        <time>2011-05-27T12:37:18Z</time>
      </trkpt>
      <trkpt lat="49.70703" lon="4.68225">
        <ele>231</ele>
        <time>2011-05-27T12:37:19Z</time>
      </trkpt>
      <trkpt lat="49.70704" lon="4.68222">
        <ele>231</ele>
        <time>2011-05-27T12:37:20Z</time>
      </trkpt>
      <trkpt lat="49.70705" lon="4.68219">
        <ele>231</ele>
        <time>2011-05-27T12:37:21Z</time>
      </trkpt>
      <trkpt lat="49.70706" lon="4.68215">
        <ele>231</ele>
        <time>2011-05-27T12:37:23Z</time>
      </trkpt>
      <trkpt lat="49.70707" lon="4.68212">
        <ele>231</ele>
        <time>2011-05-27T12:37:23Z</time>
      </trkpt>
      <trkpt lat="49.70708" lon="4.68209">
        <ele>232</ele>
        <time>2011-05-27T12:37:24Z</time>
      </trkpt>
      <trkpt lat="49.7071" lon="4.68205">
        <ele>232</ele>
        <time>2011-05-27T12:37:25Z</time>
      </trkpt>
      <trkpt lat="49.70711" lon="4.68202">
        <ele>232</ele>
        <time>2011-05-27T12:37:26Z</time>
      </trkpt>
      <trkpt lat="49.70712" lon="4.68199">
        <ele>232</ele>
        <time>2011-05-27T12:37:27Z</time>
      </trkpt>
      <trkpt lat="49.70714" lon="4.68196">
        <ele>233</ele>
        <time>2011-05-27T12:37:28Z</time>
      </trkpt>
      <trkpt lat="49.70715" lon="4.68193">
        <ele>233</ele>
        <time>2011-05-27T12:37:29Z</time>
      </trkpt>
      <trkpt lat="49.70716" lon="4.6819">
        <ele>233</ele>
        <time>2011-05-27T12:37:30Z</time>
      </trkpt>
      <trkpt lat="49.70718" lon="4.68187">
        <ele>233</ele>
        <time>2011-05-27T12:37:31Z</time>
      </trkpt>
      <trkpt lat="49.70719" lon="4.68184">
        <ele>234</ele>
        <time>2011-05-27T12:37:32Z</time>
      </trkpt>
      <trkpt lat="49.70721" lon="4.68181">
        <ele>234</ele>
        <time>2011-05-27T12:37:33Z</time>
      </trkpt>
      <trkpt lat="49.70722" lon="4.68178">
        <ele>234</ele>
        <time>2011-05-27T12:37:34Z</time>
      </trkpt>
      <trkpt lat="49.70724" lon="4.68175">
        <ele>235</ele>
        <time>2011-05-27T12:37:35Z</time>
      </trkpt>
      <trkpt lat="49.70725" lon="4.68172">
        <ele>235</ele>
        <time>2011-05-27T12:37:36Z</time>
      </trkpt>
      <trkpt lat="49.70726" lon="4.68169">
        <ele>235</ele>
        <time>2011-05-27T12:37:38Z</time>
      </trkpt>
      <trkpt lat="49.70728" lon="4.68166">
        <ele>236</ele>
        <time>2011-05-27T12:37:38Z</time>
      </trkpt>
      <trkpt lat="49.70729" lon="4.68163">
        <ele>236</ele>
        <time>2011-05-27T12:37:39Z</time>
      </trkpt>
      <trkpt lat="49.70731" lon="4.6816">
        <ele>236</ele>
        <time>2011-05-27T12:37:40Z</time>
      </trkpt>
      <trkpt lat="49.70732" lon="4.68157">
        <ele>236</ele>
        <time>2011-05-27T12:37:41Z</time>
      </trkpt>
      <trkpt lat="49.70734" lon="4.68154">
        <ele>237</ele>
        <time>2011-05-27T12:37:43Z</time>
      </trkpt>
      <trkpt lat="49.70735" lon="4.68151">
        <ele>237</ele>
        <time>2011-05-27T12:37:43Z</time>
      </trkpt>
      <trkpt lat="49.70736" lon="4.68148">
        <ele>237</ele>
        <time>2011-05-27T12:37:44Z</time>
      </trkpt>
      <trkpt lat="49.70737" lon="4.68145">
        <ele>237</ele>
        <time>2011-05-27T12:37:45Z</time>
      </trkpt>
      <trkpt lat="49.70739" lon="4.68143">
        <ele>238</ele>
        <time>2011-05-27T12:37:46Z</time>
      </trkpt>
      <trkpt lat="49.70741" lon="4.6814">
        <ele>238</ele>
        <time>2011-05-27T12:37:47Z</time>
      </trkpt>
      <trkpt lat="49.70742" lon="4.68137">
        <ele>238</ele>
        <time>2011-05-27T12:37:48Z</time>
      </trkpt>
      <trkpt lat="49.70744" lon="4.68134">
        <ele>238</ele>
        <time>2011-05-27T12:37:49Z</time>
      </trkpt>
      <trkpt lat="49.70745" lon="4.68131">
        <ele>238</ele>
        <time>2011-05-27T12:37:50Z</time>
      </trkpt>
      <trkpt lat="49.70747" lon="4.68129">
        <ele>239</ele>
        <time>2011-05-27T12:37:51Z</time>
      </trkpt>
      <trkpt lat="49.70749" lon="4.68126">
        <ele>239</ele>
        <time>2011-05-27T12:37:52Z</time>
      </trkpt>
      <trkpt lat="49.7075" lon="4.68123">
        <ele>239</ele>
        <time>2011-05-27T12:37:53Z</time>
      </trkpt>
      <trkpt lat="49.70752" lon="4.68121">
        <ele>239</ele>
        <time>2011-05-27T12:37:54Z</time>
      </trkpt>
      <trkpt lat="49.70753" lon="4.68118">
        <ele>240</ele>
        <time>2011-05-27T12:37:55Z</time>
      </trkpt>
      <trkpt lat="49.70755" lon="4.68115">
        <ele>240</ele>
        <time>2011-05-27T12:37:56Z</time>
      </trkpt>
      <trkpt lat="49.70756" lon="4.68113">
        <ele>240</ele>
        <time>2011-05-27T12:37:57Z</time>
      </trkpt>
      <trkpt lat="49.70758" lon="4.6811">
        <ele>240</ele>
        <time>2011-05-27T12:37:58Z</time>
      </trkpt>
      <trkpt lat="49.70759" lon="4.68107">
        <ele>240</ele>
        <time>2011-05-27T12:37:59Z</time>
      </trkpt>
      <trkpt lat="49.70761" lon="4.68104">
        <ele>240</ele>
        <time>2011-05-27T12:38:00Z</time>
      </trkpt>
      <trkpt lat="49.70762" lon="4.68101">
        <ele>240</ele>
        <time>2011-05-27T12:38:01Z</time>
      </trkpt>
      <trkpt lat="49.70764" lon="4.68098">
        <ele>241</ele>
        <time>2011-05-27T12:38:02Z</time>
      </trkpt>
      <trkpt lat="49.70765" lon="4.68096">
        <ele>241</ele>
        <time>2011-05-27T12:38:03Z</time>
      </trkpt>
      <trkpt lat="49.70767" lon="4.68093">
        <ele>241</ele>
        <time>2011-05-27T12:38:04Z</time>
      </trkpt>
      <trkpt lat="49.70768" lon="4.6809">
        <ele>241</ele>
        <time>2011-05-27T12:38:05Z</time>
      </trkpt>
      <trkpt lat="49.7077" lon="4.68087">
        <ele>241</ele>
        <time>2011-05-27T12:38:06Z</time>
      </trkpt>
      <trkpt lat="49.70771" lon="4.68084">
        <ele>241</ele>
        <time>2011-05-27T12:38:07Z</time>
      </trkpt>
      <trkpt lat="49.70773" lon="4.68082">
        <ele>241</ele>
        <time>2011-05-27T12:38:08Z</time>
      </trkpt>
      <trkpt lat="49.70774" lon="4.68079">
        <ele>242</ele>
        <time>2011-05-27T12:38:09Z</time>
      </trkpt>
      <trkpt lat="49.70776" lon="4.68076">
        <ele>242</ele>
        <time>2011-05-27T12:38:10Z</time>
      </trkpt>
      <trkpt lat="49.70777" lon="4.68073">
        <ele>242</ele>
        <time>2011-05-27T12:38:11Z</time>
      </trkpt>
      <trkpt lat="49.70779" lon="4.68071">
        <ele>242</ele>
        <time>2011-05-27T12:38:12Z</time>
      </trkpt>
      <trkpt lat="49.7078" lon="4.68068">
        <ele>242</ele>
        <time>2011-05-27T12:38:13Z</time>
      </trkpt>
      <trkpt lat="49.70781" lon="4.68066">
        <ele>242</ele>
        <time>2011-05-27T12:38:14Z</time>
      </trkpt>
      <trkpt lat="49.70783" lon="4.68063">
        <ele>242</ele>
        <time>2011-05-27T12:38:15Z</time>
      </trkpt>
      <trkpt lat="49.70785" lon="4.6806">
        <ele>243</ele>
        <time>2011-05-27T12:38:16Z</time>
      </trkpt>
      <trkpt lat="49.70786" lon="4.68057">
        <ele>243</ele>
        <time>2011-05-27T12:38:17Z</time>
      </trkpt>
      <trkpt lat="49.70788" lon="4.68055">
        <ele>243</ele>
        <time>2011-05-27T12:38:19Z</time>
      </trkpt>
      <trkpt lat="49.70789" lon="4.68052">
        <ele>243</ele>
        <time>2011-05-27T12:38:19Z</time>
      </trkpt>
      <trkpt lat="49.70792" lon="4.68049">
        <ele>243</ele>
        <time>2011-05-27T12:38:20Z</time>
      </trkpt>
      <trkpt lat="49.70793" lon="4.68047">
        <ele>243</ele>
        <time>2011-05-27T12:38:21Z</time>
      </trkpt>
      <trkpt lat="49.70795" lon="4.68044">
        <ele>244</ele>
        <time>2011-05-27T12:38:22Z</time>
      </trkpt>
      <trkpt lat="49.70796" lon="4.68041">
        <ele>244</ele>
        <time>2011-05-27T12:38:23Z</time>
      </trkpt>
      <trkpt lat="49.70798" lon="4.68039">
        <ele>244</ele>
        <time>2011-05-27T12:38:24Z</time>
      </trkpt>
      <trkpt lat="49.70799" lon="4.68036">
        <ele>244</ele>
        <time>2011-05-27T12:38:25Z</time>
      </trkpt>
      <trkpt lat="49.70801" lon="4.68033">
        <ele>244</ele>
        <time>2011-05-27T12:38:26Z</time>
      </trkpt>
      <trkpt lat="49.70803" lon="4.6803">
        <ele>245</ele>
        <time>2011-05-27T12:38:27Z</time>
      </trkpt>
      <trkpt lat="49.70804" lon="4.68026">
        <ele>245</ele>
        <time>2011-05-27T12:38:28Z</time>
      </trkpt>
      <trkpt lat="49.70806" lon="4.68023">
        <ele>245</ele>
        <time>2011-05-27T12:38:29Z</time>
      </trkpt>
      <trkpt lat="49.70807" lon="4.6802">
        <ele>245</ele>
        <time>2011-05-27T12:38:30Z</time>
      </trkpt>
      <trkpt lat="49.70809" lon="4.68017">
        <ele>245</ele>
        <time>2011-05-27T12:38:31Z</time>
      </trkpt>
      <trkpt lat="49.7081" lon="4.68014">
        <ele>246</ele>
        <time>2011-05-27T12:38:32Z</time>
      </trkpt>
      <trkpt lat="49.70811" lon="4.68011">
        <ele>246</ele>
        <time>2011-05-27T12:38:33Z</time>
      </trkpt>
      <trkpt lat="49.70813" lon="4.68007">
        <ele>246</ele>
        <time>2011-05-27T12:38:34Z</time>
      </trkpt>
      <trkpt lat="49.70814" lon="4.68004">
        <ele>246</ele>
        <time>2011-05-27T12:38:35Z</time>
      </trkpt>
      <trkpt lat="49.70816" lon="4.68001">
        <ele>246</ele>
        <time>2011-05-27T12:38:36Z</time>
      </trkpt>
      <trkpt lat="49.70817" lon="4.67998">
        <ele>246</ele>
        <time>2011-05-27T12:38:37Z</time>
      </trkpt>
      <trkpt lat="49.70818" lon="4.67994">
        <ele>246</ele>
        <time>2011-05-27T12:38:38Z</time>
      </trkpt>
      <trkpt lat="49.7082" lon="4.67991">
        <ele>247</ele>
        <time>2011-05-27T12:38:39Z</time>
      </trkpt>
      <trkpt lat="49.70821" lon="4.67988">
        <ele>247</ele>
        <time>2011-05-27T12:38:40Z</time>
      </trkpt>
      <trkpt lat="49.70823" lon="4.67985">
        <ele>247</ele>
        <time>2011-05-27T12:38:41Z</time>
      </trkpt>
      <trkpt lat="49.70824" lon="4.67981">
        <ele>247</ele>
        <time>2011-05-27T12:38:42Z</time>
      </trkpt>
      <trkpt lat="49.70825" lon="4.67978">
        <ele>247</ele>
        <time>2011-05-27T12:38:43Z</time>
      </trkpt>
      <trkpt lat="49.70826" lon="4.67975">
        <ele>247</ele>
        <time>2011-05-27T12:38:44Z</time>
      </trkpt>
      <trkpt lat="49.70828" lon="4.67971">
        <ele>248</ele>
        <time>2011-05-27T12:38:45Z</time>
      </trkpt>
      <trkpt lat="49.70829" lon="4.67968">
        <ele>248</ele>
        <time>2011-05-27T12:38:46Z</time>
      </trkpt>
      <trkpt lat="49.7083" lon="4.67965">
        <ele>248</ele>
        <time>2011-05-27T12:38:47Z</time>
      </trkpt>
      <trkpt lat="49.70831" lon="4.67961">
        <ele>248</ele>
        <time>2011-05-27T12:38:48Z</time>
      </trkpt>
      <trkpt lat="49.70832" lon="4.67958">
        <ele>248</ele>
        <time>2011-05-27T12:38:49Z</time>
      </trkpt>
      <trkpt lat="49.70834" lon="4.67954">
        <ele>248</ele>
        <time>2011-05-27T12:38:50Z</time>
      </trkpt>
      <trkpt lat="49.70835" lon="4.67951">
        <ele>248</ele>
        <time>2011-05-27T12:38:51Z</time>
      </trkpt>
      <trkpt lat="49.70836" lon="4.67947">
        <ele>248</ele>
        <time>2011-05-27T12:38:52Z</time>
      </trkpt>
      <trkpt lat="49.70837" lon="4.67944">
        <ele>248</ele>
        <time>2011-05-27T12:38:53Z</time>
      </trkpt>
      <trkpt lat="49.70838" lon="4.6794">
        <ele>249</ele>
        <time>2011-05-27T12:38:54Z</time>
      </trkpt>
      <trkpt lat="49.7084" lon="4.67937">
        <ele>249</ele>
        <time>2011-05-27T12:38:55Z</time>
      </trkpt>
      <trkpt lat="49.70841" lon="4.67934">
        <ele>249</ele>
        <time>2011-05-27T12:38:56Z</time>
      </trkpt>
      <trkpt lat="49.70842" lon="4.6793">
        <ele>249</ele>
        <time>2011-05-27T12:38:58Z</time>
      </trkpt>
      <trkpt lat="49.70843" lon="4.67927">
        <ele>249</ele>
        <time>2011-05-27T12:38:58Z</time>
      </trkpt>
      <trkpt lat="49.70844" lon="4.67923">
        <ele>249</ele>
        <time>2011-05-27T12:38:59Z</time>
      </trkpt>
      <trkpt lat="49.70845" lon="4.67919">
        <ele>249</ele>
        <time>2011-05-27T12:39:00Z</time>
      </trkpt>
      <trkpt lat="49.70846" lon="4.67915">
        <ele>249</ele>
        <time>2011-05-27T12:39:01Z</time>
      </trkpt>
      <trkpt lat="49.70847" lon="4.67912">
        <ele>249</ele>
        <time>2011-05-27T12:39:03Z</time>
      </trkpt>
      <trkpt lat="49.70847" lon="4.67908">
        <ele>249</ele>
        <time>2011-05-27T12:39:03Z</time>
      </trkpt>
      <trkpt lat="49.70848" lon="4.67904">
        <ele>249</ele>
        <time>2011-05-27T12:39:04Z</time>
      </trkpt>
      <trkpt lat="49.70849" lon="4.67901">
        <ele>250</ele>
        <time>2011-05-27T12:39:05Z</time>
      </trkpt>
      <trkpt lat="49.7085" lon="4.67896">
        <ele>250</ele>
        <time>2011-05-27T12:39:06Z</time>
      </trkpt>
      <trkpt lat="49.70851" lon="4.67892">
        <ele>250</ele>
        <time>2011-05-27T12:39:07Z</time>
      </trkpt>
      <trkpt lat="49.70852" lon="4.67888">
        <ele>250</ele>
        <time>2011-05-27T12:39:08Z</time>
      </trkpt>
      <trkpt lat="49.70853" lon="4.67883">
        <ele>250</ele>
        <time>2011-05-27T12:39:09Z</time>
      </trkpt>
      <trkpt lat="49.70853" lon="4.67879">
        <ele>250</ele>
        <time>2011-05-27T12:39:10Z</time>
      </trkpt>
      <trkpt lat="49.70854" lon="4.67874">
        <ele>250</ele>
        <time>2011-05-27T12:39:11Z</time>
      </trkpt>
      <trkpt lat="49.70854" lon="4.6787">
        <ele>250</ele>
        <time>2011-05-27T12:39:12Z</time>
      </trkpt>
      <trkpt lat="49.70855" lon="4.67865">
        <ele>250</ele>
        <time>2011-05-27T12:39:13Z</time>
      </trkpt>
      <trkpt lat="49.70856" lon="4.67861">
        <ele>250</ele>
        <time>2011-05-27T12:39:14Z</time>
      </trkpt>
      <trkpt lat="49.70856" lon="4.67856">
        <ele>250</ele>
        <time>2011-05-27T12:39:15Z</time>
      </trkpt>
      <trkpt lat="49.70857" lon="4.67851">
        <ele>250</ele>
        <time>2011-05-27T12:39:16Z</time>
      </trkpt>
      <trkpt lat="49.70857" lon="4.67846">
        <ele>250</ele>
        <time>2011-05-27T12:39:17Z</time>
      </trkpt>
      <trkpt lat="49.70858" lon="4.67841">
        <ele>250</ele>
        <time>2011-05-27T12:39:18Z</time>
      </trkpt>
      <trkpt lat="49.70858" lon="4.67836">
        <ele>251</ele>
        <time>2011-05-27T12:39:19Z</time>
      </trkpt>
      <trkpt lat="49.70858" lon="4.67832">
        <ele>251</ele>
        <time>2011-05-27T12:39:20Z</time>
      </trkpt>
      <trkpt lat="49.70859" lon="4.67827">
        <ele>251</ele>
        <time>2011-05-27T12:39:21Z</time>
      </trkpt>
      <trkpt lat="49.7086" lon="4.67822">
        <ele>251</ele>
        <time>2011-05-27T12:39:22Z</time>
      </trkpt>
      <trkpt lat="49.7086" lon="4.67817">
        <ele>251</ele>
        <time>2011-05-27T12:39:23Z</time>
      </trkpt>
      <trkpt lat="49.7086" lon="4.67812">
        <ele>251</ele>
        <time>2011-05-27T12:39:24Z</time>
      </trkpt>
      <trkpt lat="49.70861" lon="4.67807">
        <ele>251</ele>
        <time>2011-05-27T12:39:25Z</time>
      </trkpt>
      <trkpt lat="49.70861" lon="4.67802">
        <ele>251</ele>
        <time>2011-05-27T12:39:26Z</time>
      </trkpt>
      <trkpt lat="49.70861" lon="4.67798">
        <ele>251</ele>
        <time>2011-05-27T12:39:27Z</time>
      </trkpt>
      <trkpt lat="49.70862" lon="4.67793">
        <ele>251</ele>
        <time>2011-05-27T12:39:28Z</time>
      </trkpt>
      <trkpt lat="49.70862" lon="4.67788">
        <ele>251</ele>
        <time>2011-05-27T12:39:29Z</time>
      </trkpt>
      <trkpt lat="49.70863" lon="4.67783">
        <ele>251</ele>
        <time>2011-05-27T12:39:30Z</time>
      </trkpt>
      <trkpt lat="49.70863" lon="4.67778">
        <ele>251</ele>
        <time>2011-05-27T12:39:31Z</time>
      </trkpt>
      <trkpt lat="49.70864" lon="4.67773">
        <ele>252</ele>
        <time>2011-05-27T12:39:32Z</time>
      </trkpt>
      <trkpt lat="49.70864" lon="4.67768">
        <ele>252</ele>
        <time>2011-05-27T12:39:33Z</time>
      </trkpt>
      <trkpt lat="49.70864" lon="4.67763">
        <ele>252</ele>
        <time>2011-05-27T12:39:34Z</time>
      </trkpt>
      <trkpt lat="49.70865" lon="4.67758">
        <ele>252</ele>
        <time>2011-05-27T12:39:35Z</time>
      </trkpt>
      <trkpt lat="49.70865" lon="4.67753">
        <ele>252</ele>
        <time>2011-05-27T12:39:36Z</time>
      </trkpt>
      <trkpt lat="49.70866" lon="4.67748">
        <ele>252</ele>
        <time>2011-05-27T12:39:38Z</time>
      </trkpt>
      <trkpt lat="49.70866" lon="4.67743">
        <ele>252</ele>
        <time>2011-05-27T12:39:38Z</time>
      </trkpt>
      <trkpt lat="49.70866" lon="4.67738">
        <ele>252</ele>
        <time>2011-05-27T12:39:39Z</time>
      </trkpt>
      <trkpt lat="49.70867" lon="4.67733">
        <ele>252</ele>
        <time>2011-05-27T12:39:40Z</time>
      </trkpt>
      <trkpt lat="49.70868" lon="4.67728">
        <ele>253</ele>
        <time>2011-05-27T12:39:41Z</time>
      </trkpt>
      <trkpt lat="49.70868" lon="4.67723">
        <ele>253</ele>
        <time>2011-05-27T12:39:42Z</time>
      </trkpt>
      <trkpt lat="49.70869" lon="4.67718">
        <ele>253</ele>
        <time>2011-05-27T12:39:43Z</time>
      </trkpt>
      <trkpt lat="49.70869" lon="4.67713">
        <ele>253</ele>
        <time>2011-05-27T12:39:44Z</time>
      </trkpt>
      <trkpt lat="49.70869" lon="4.67708">
        <ele>253</ele>
        <time>2011-05-27T12:39:45Z</time>
      </trkpt>
      <trkpt lat="49.7087" lon="4.67703">
        <ele>253</ele>
        <time>2011-05-27T12:39:46Z</time>
      </trkpt>
      <trkpt lat="49.7087" lon="4.67697">
        <ele>253</ele>
        <time>2011-05-27T12:39:47Z</time>
      </trkpt>
      <trkpt lat="49.70871" lon="4.67693">
        <ele>253</ele>
        <time>2011-05-27T12:39:48Z</time>
      </trkpt>
      <trkpt lat="49.70871" lon="4.67688">
        <ele>253</ele>
        <time>2011-05-27T12:39:49Z</time>
      </trkpt>
      <trkpt lat="49.70872" lon="4.67683">
        <ele>254</ele>
        <time>2011-05-27T12:39:50Z</time>
      </trkpt>
      <trkpt lat="49.70872" lon="4.67677">
        <ele>254</ele>
        <time>2011-05-27T12:39:51Z</time>
      </trkpt>
      <trkpt lat="49.70873" lon="4.67672">
        <ele>254</ele>
        <time>2011-05-27T12:39:52Z</time>
      </trkpt>
      <trkpt lat="49.70874" lon="4.67667">
        <ele>254</ele>
        <time>2011-05-27T12:39:53Z</time>
      </trkpt>
      <trkpt lat="49.70874" lon="4.67662">
        <ele>254</ele>
        <time>2011-05-27T12:39:54Z</time>
      </trkpt>
      <trkpt lat="49.70875" lon="4.67656">
        <ele>254</ele>
        <time>2011-05-27T12:39:55Z</time>
      </trkpt>
      <trkpt lat="49.70875" lon="4.67651">
        <ele>254</ele>
        <time>2011-05-27T12:39:56Z</time>
      </trkpt>
      <trkpt lat="49.70876" lon="4.67646">
        <ele>254</ele>
        <time>2011-05-27T12:39:57Z</time>
      </trkpt>
      <trkpt lat="49.70876" lon="4.6764">
        <ele>254</ele>
        <time>2011-05-27T12:39:58Z</time>
      </trkpt>
      <trkpt lat="49.70876" lon="4.67634">
        <ele>254</ele>
        <time>2011-05-27T12:39:59Z</time>
      </trkpt>
      <trkpt lat="49.70877" lon="4.67629">
        <ele>254</ele>
        <time>2011-05-27T12:40:00Z</time>
      </trkpt>
      <trkpt lat="49.70877" lon="4.67623">
        <ele>254</ele>
        <time>2011-05-27T12:40:01Z</time>
      </trkpt>
      <trkpt lat="49.70878" lon="4.67617">
        <ele>254</ele>
        <time>2011-05-27T12:40:02Z</time>
      </trkpt>
      <trkpt lat="49.70878" lon="4.67612">
        <ele>255</ele>
        <time>2011-05-27T12:40:03Z</time>
      </trkpt>
      <trkpt lat="49.70879" lon="4.67606">
        <ele>255</ele>
        <time>2011-05-27T12:40:04Z</time>
      </trkpt>
      <trkpt lat="49.70879" lon="4.67601">
        <ele>255</ele>
        <time>2011-05-27T12:40:05Z</time>
      </trkpt>
      <trkpt lat="49.7088" lon="4.67595">
        <ele>255</ele>
        <time>2011-05-27T12:40:06Z</time>
      </trkpt>
      <trkpt lat="49.7088" lon="4.6759">
        <ele>255</ele>
        <time>2011-05-27T12:40:07Z</time>
      </trkpt>
      <trkpt lat="49.70881" lon="4.67584">
        <ele>255</ele>
        <time>2011-05-27T12:40:08Z</time>
      </trkpt>
      <trkpt lat="49.70881" lon="4.67579">
        <ele>255</ele>
        <time>2011-05-27T12:40:09Z</time>
      </trkpt>
      <trkpt lat="49.70882" lon="4.67573">
        <ele>255</ele>
        <time>2011-05-27T12:40:10Z</time>
      </trkpt>
      <trkpt lat="49.70882" lon="4.67568">
        <ele>255</ele>
        <time>2011-05-27T12:40:11Z</time>
      </trkpt>
      <trkpt lat="49.70883" lon="4.67563">
        <ele>255</ele>
        <time>2011-05-27T12:40:12Z</time>
      </trkpt>
      <trkpt lat="49.70883" lon="4.67558">
        <ele>256</ele>
        <time>2011-05-27T12:40:13Z</time>
      </trkpt>
      <trkpt lat="49.70884" lon="4.67553">
        <ele>256</ele>
        <time>2011-05-27T12:40:14Z</time>
      </trkpt>
      <trkpt lat="49.70884" lon="4.67548">
        <ele>256</ele>
        <time>2011-05-27T12:40:15Z</time>
      </trkpt>
      <trkpt lat="49.70885" lon="4.67543">
        <ele>256</ele>
        <time>2011-05-27T12:40:16Z</time>
      </trkpt>
      <trkpt lat="49.70885" lon="4.67538">
        <ele>256</ele>
        <time>2011-05-27T12:40:17Z</time>
      </trkpt>
      <trkpt lat="49.70886" lon="4.67533">
        <ele>256</ele>
        <time>2011-05-27T12:40:18Z</time>
      </trkpt>
      <trkpt lat="49.70886" lon="4.67527">
        <ele>256</ele>
        <time>2011-05-27T12:40:19Z</time>
      </trkpt>
      <trkpt lat="49.70887" lon="4.67522">
        <ele>256</ele>
        <time>2011-05-27T12:40:20Z</time>
      </trkpt>
      <trkpt lat="49.70887" lon="4.67517">
        <ele>256</ele>
        <time>2011-05-27T12:40:21Z</time>
      </trkpt>
      <trkpt lat="49.70887" lon="4.67512">
        <ele>257</ele>
        <time>2011-05-27T12:40:22Z</time>
      </trkpt>
      <trkpt lat="49.70888" lon="4.67507">
        <ele>257</ele>
        <time>2011-05-27T12:40:23Z</time>
      </trkpt>
      <trkpt lat="49.70889" lon="4.67501">
        <ele>257</ele>
        <time>2011-05-27T12:40:24Z</time>
      </trkpt>
      <trkpt lat="49.70889" lon="4.67496">
        <ele>257</ele>
        <time>2011-05-27T12:40:25Z</time>
      </trkpt>
      <trkpt lat="49.7089" lon="4.6749">
        <ele>257</ele>
        <time>2011-05-27T12:40:26Z</time>
      </trkpt>
      <trkpt lat="49.70891" lon="4.67484">
        <ele>257</ele>
        <time>2011-05-27T12:40:27Z</time>
      </trkpt>
      <trkpt lat="49.70891" lon="4.67478">
        <ele>257</ele>
        <time>2011-05-27T12:40:28Z</time>
      </trkpt>
      <trkpt lat="49.70892" lon="4.67472">
        <ele>258</ele>
        <time>2011-05-27T12:40:29Z</time>
      </trkpt>
      <trkpt lat="49.70893" lon="4.67466">
        <ele>258</ele>
        <time>2011-05-27T12:40:30Z</time>
      </trkpt>
      <trkpt lat="49.70893" lon="4.6746">
        <ele>258</ele>
        <time>2011-05-27T12:40:31Z</time>
      </trkpt>
      <trkpt lat="49.70894" lon="4.67454">
        <ele>258</ele>
        <time>2011-05-27T12:40:32Z</time>
      </trkpt>
      <trkpt lat="49.70895" lon="4.67449">
        <ele>258</ele>
        <time>2011-05-27T12:40:33Z</time>
      </trkpt>
      <trkpt lat="49.70895" lon="4.67443">
        <ele>259</ele>
        <time>2011-05-27T12:40:34Z</time>
      </trkpt>
      <trkpt lat="49.70895" lon="4.67437">
        <ele>259</ele>
        <time>2011-05-27T12:40:35Z</time>
      </trkpt>
      <trkpt lat="49.70896" lon="4.67431">
        <ele>259</ele>
        <time>2011-05-27T12:40:36Z</time>
      </trkpt>
      <trkpt lat="49.70897" lon="4.67425">
        <ele>259</ele>
        <time>2011-05-27T12:40:37Z</time>
      </trkpt>
      <trkpt lat="49.70897" lon="4.67419">
        <ele>259</ele>
        <time>2011-05-27T12:40:38Z</time>
      </trkpt>
      <trkpt lat="49.70897" lon="4.67413">
        <ele>259</ele>
        <time>2011-05-27T12:40:39Z</time>
      </trkpt>
      <trkpt lat="49.70897" lon="4.67407">
        <ele>259</ele>
        <time>2011-05-27T12:40:40Z</time>
      </trkpt>
      <trkpt lat="49.70897" lon="4.674">
        <ele>259</ele>
        <time>2011-05-27T12:40:41Z</time>
      </trkpt>
      <trkpt lat="49.70898" lon="4.67394">
        <ele>260</ele>
        <time>2011-05-27T12:40:42Z</time>
      </trkpt>
      <trkpt lat="49.70898" lon="4.67388">
        <ele>260</ele>
        <time>2011-05-27T12:40:43Z</time>
      </trkpt>
      <trkpt lat="49.70898" lon="4.67382">
        <ele>260</ele>
        <time>2011-05-27T12:40:44Z</time>
      </trkpt>
      <trkpt lat="49.70898" lon="4.67376">
        <ele>260</ele>
        <time>2011-05-27T12:40:45Z</time>
      </trkpt>
      <trkpt lat="49.70898" lon="4.67369">
        <ele>260</ele>
        <time>2011-05-27T12:40:46Z</time>
      </trkpt>
      <trkpt lat="49.70898" lon="4.67363">
        <ele>260</ele>
        <time>2011-05-27T12:40:47Z</time>
      </trkpt>
      <trkpt lat="49.70898" lon="4.67356">
        <ele>260</ele>
        <time>2011-05-27T12:40:48Z</time>
      </trkpt>
      <trkpt lat="49.70898" lon="4.67349">
        <ele>260</ele>
        <time>2011-05-27T12:40:49Z</time>
      </trkpt>
      <trkpt lat="49.70898" lon="4.67343">
        <ele>260</ele>
        <time>2011-05-27T12:40:50Z</time>
      </trkpt>
      <trkpt lat="49.70898" lon="4.67336">
        <ele>260</ele>
        <time>2011-05-27T12:40:51Z</time>
      </trkpt>
      <trkpt lat="49.70898" lon="4.67329">
        <ele>260</ele>
        <time>2011-05-27T12:40:52Z</time>
      </trkpt>
      <trkpt lat="49.70898" lon="4.67321">
        <ele>260</ele>
        <time>2011-05-27T12:40:53Z</time>
      </trkpt>
      <trkpt lat="49.70897" lon="4.67314">
        <ele>260</ele>
        <time>2011-05-27T12:40:54Z</time>
      </trkpt>
      <trkpt lat="49.70897" lon="4.67306">
        <ele>260</ele>
        <time>2011-05-27T12:40:55Z</time>
      </trkpt>
      <trkpt lat="49.70897" lon="4.67298">
        <ele>260</ele>
        <time>2011-05-27T12:40:56Z</time>
      </trkpt>
      <trkpt lat="49.70897" lon="4.67291">
        <ele>260</ele>
        <time>2011-05-27T12:40:57Z</time>
      </trkpt>
      <trkpt lat="49.70896" lon="4.67283">
        <ele>260</ele>
        <time>2011-05-27T12:40:58Z</time>
      </trkpt>
      <trkpt lat="49.70896" lon="4.67275">
        <ele>260</ele>
        <time>2011-05-27T12:40:59Z</time>
      </trkpt>
      <trkpt lat="49.70896" lon="4.67267">
        <ele>260</ele>
        <time>2011-05-27T12:41:00Z</time>
      </trkpt>
      <trkpt lat="49.70895" lon="4.67259">
        <ele>260</ele>
        <time>2011-05-27T12:41:01Z</time>
      </trkpt>
      <trkpt lat="49.70894" lon="4.6725">
        <ele>260</ele>
        <time>2011-05-27T12:41:02Z</time>
      </trkpt>
      <trkpt lat="49.70893" lon="4.67242">
        <ele>260</ele>
        <time>2011-05-27T12:41:03Z</time>
      </trkpt>
      <trkpt lat="49.70893" lon="4.67234">
        <ele>260</ele>
        <time>2011-05-27T12:41:04Z</time>
      </trkpt>
      <trkpt lat="49.70892" lon="4.67226">
        <ele>260</ele>
        <time>2011-05-27T12:41:05Z</time>
      </trkpt>
      <trkpt lat="49.70892" lon="4.67218">
        <ele>260</ele>
        <time>2011-05-27T12:41:06Z</time>
      </trkpt>
      <trkpt lat="49.70891" lon="4.67209">
        <ele>260</ele>
        <time>2011-05-27T12:41:07Z</time>
      </trkpt>
      <trkpt lat="49.70891" lon="4.672">
        <ele>260</ele>
        <time>2011-05-27T12:41:08Z</time>
      </trkpt>
      <trkpt lat="49.7089" lon="4.67192">
        <ele>260</ele>
        <time>2011-05-27T12:41:09Z</time>
      </trkpt>
      <trkpt lat="49.7089" lon="4.67182">
        <ele>260</ele>
        <time>2011-05-27T12:41:10Z</time>
      </trkpt>
      <trkpt lat="49.70889" lon="4.67173">
        <ele>260</ele>
        <time>2011-05-27T12:41:11Z</time>
      </trkpt>
      <trkpt lat="49.70889" lon="4.67164">
        <ele>260</ele>
        <time>2011-05-27T12:41:12Z</time>
      </trkpt>
      <trkpt lat="49.70888" lon="4.67155">
        <ele>260</ele>
        <time>2011-05-27T12:41:13Z</time>
      </trkpt>
      <trkpt lat="49.70888" lon="4.67145">
        <ele>260</ele>
        <time>2011-05-27T12:41:14Z</time>
      </trkpt>
      <trkpt lat="49.70887" lon="4.67136">
        <ele>260</ele>
        <time>2011-05-27T12:41:15Z</time>
      </trkpt>
      <trkpt lat="49.70887" lon="4.67127">
        <ele>260</ele>
        <time>2011-05-27T12:41:16Z</time>
      </trkpt>
      <trkpt lat="49.70887" lon="4.67118">
        <ele>260</ele>
        <time>2011-05-27T12:41:17Z</time>
      </trkpt>
      <trkpt lat="49.70886" lon="4.67108">
        <ele>260</ele>
        <time>2011-05-27T12:41:18Z</time>
      </trkpt>
      <trkpt lat="49.70886" lon="4.67099">
        <ele>260</ele>
        <time>2011-05-27T12:41:19Z</time>
      </trkpt>
      <trkpt lat="49.70885" lon="4.6709">
        <ele>260</ele>
        <time>2011-05-27T12:41:20Z</time>
      </trkpt>
      <trkpt lat="49.70885" lon="4.67081">
        <ele>260</ele>
        <time>2011-05-27T12:41:21Z</time>
      </trkpt>
      <trkpt lat="49.70885" lon="4.67072">
        <ele>260</ele>
        <time>2011-05-27T12:41:22Z</time>
      </trkpt>
      <trkpt lat="49.70885" lon="4.67063">
        <ele>260</ele>
        <time>2011-05-27T12:41:23Z</time>
      </trkpt>
      <trkpt lat="49.70885" lon="4.67054">
        <ele>260</ele>
        <time>2011-05-27T12:41:24Z</time>
      </trkpt>
      <trkpt lat="49.70885" lon="4.67045">
        <ele>260</ele>
        <time>2011-05-27T12:41:25Z</time>
      </trkpt>
      <trkpt lat="49.70885" lon="4.67037">
        <ele>260</ele>
        <time>2011-05-27T12:41:26Z</time>
      </trkpt>
      <trkpt lat="49.70885" lon="4.67028">
        <ele>260</ele>
        <time>2011-05-27T12:41:27Z</time>
      </trkpt>
      <trkpt lat="49.70885" lon="4.6702">
        <ele>260</ele>
        <time>2011-05-27T12:41:28Z</time>
      </trkpt>
      <trkpt lat="49.70885" lon="4.67011">
        <ele>260</ele>
        <time>2011-05-27T12:41:29Z</time>
      </trkpt>
      <trkpt lat="49.70885" lon="4.67003">
        <ele>260</ele>
        <time>2011-05-27T12:41:30Z</time>
      </trkpt>
      <trkpt lat="49.70885" lon="4.66995">
        <ele>260</ele>
        <time>2011-05-27T12:41:31Z</time>
      </trkpt>
      <trkpt lat="49.70885" lon="4.66987">
        <ele>260</ele>
        <time>2011-05-27T12:41:32Z</time>
      </trkpt>
      <trkpt lat="49.70885" lon="4.66978">
        <ele>260</ele>
        <time>2011-05-27T12:41:33Z</time>
      </trkpt>
      <trkpt lat="49.70885" lon="4.6697">
        <ele>260</ele>
        <time>2011-05-27T12:41:34Z</time>
      </trkpt>
      <trkpt lat="49.70885" lon="4.66962">
        <ele>260</ele>
        <time>2011-05-27T12:41:35Z</time>
      </trkpt>
      <trkpt lat="49.70885" lon="4.66954">
        <ele>260</ele>
        <time>2011-05-27T12:41:36Z</time>
      </trkpt>
      <trkpt lat="49.70885" lon="4.66946">
        <ele>260</ele>
        <time>2011-05-27T12:41:37Z</time>
      </trkpt>
      <trkpt lat="49.70885" lon="4.66938">
        <ele>260</ele>
        <time>2011-05-27T12:41:38Z</time>
      </trkpt>
      <trkpt lat="49.70885" lon="4.6693">
        <ele>260</ele>
        <time>2011-05-27T12:41:39Z</time>
      </trkpt>
      <trkpt lat="49.70885" lon="4.66922">
        <ele>260</ele>
        <time>2011-05-27T12:41:40Z</time>
      </trkpt>
      <trkpt lat="49.70885" lon="4.66914">
        <ele>260</ele>
        <time>2011-05-27T12:41:41Z</time>
      </trkpt>
      <trkpt lat="49.70884" lon="4.66906">
        <ele>260</ele>
        <time>2011-05-27T12:41:42Z</time>
      </trkpt>
      <trkpt lat="49.70884" lon="4.66898">
        <ele>260</ele>
        <time>2011-05-27T12:41:43Z</time>
      </trkpt>
      <trkpt lat="49.70884" lon="4.6689">
        <ele>260</ele>
        <time>2011-05-27T12:41:44Z</time>
      </trkpt>
      <trkpt lat="49.70883" lon="4.66883">
        <ele>260</ele>
        <time>2011-05-27T12:41:45Z</time>
      </trkpt>
      <trkpt lat="49.70882" lon="4.66875">
        <ele>260</ele>
        <time>2011-05-27T12:41:46Z</time>
      </trkpt>
      <trkpt lat="49.70881" lon="4.66867">
        <ele>260</ele>
        <time>2011-05-27T12:41:47Z</time>
      </trkpt>
      <trkpt lat="49.7088" lon="4.66859">
        <ele>260</ele>
        <time>2011-05-27T12:41:48Z</time>
      </trkpt>
      <trkpt lat="49.70878" lon="4.66851">
        <ele>260</ele>
        <time>2011-05-27T12:41:49Z</time>
      </trkpt>
      <trkpt lat="49.70876" lon="4.66843">
        <ele>260</ele>
        <time>2011-05-27T12:41:50Z</time>
      </trkpt>
      <trkpt lat="49.70874" lon="4.66836">
        <ele>260</ele>
        <time>2011-05-27T12:41:51Z</time>
      </trkpt>
      <trkpt lat="49.70871" lon="4.66828">
        <ele>260</ele>
        <time>2011-05-27T12:41:52Z</time>
      </trkpt>
      <trkpt lat="49.70869" lon="4.66821">
        <ele>260</ele>
        <time>2011-05-27T12:41:53Z</time>
      </trkpt>
      <trkpt lat="49.70866" lon="4.66814">
        <ele>260</ele>
        <time>2011-05-27T12:41:54Z</time>
      </trkpt>
      <trkpt lat="49.70863" lon="4.66807">
        <ele>260</ele>
        <time>2011-05-27T12:41:55Z</time>
      </trkpt>
      <trkpt lat="49.7086" lon="4.66799">
        <ele>260</ele>
        <time>2011-05-27T12:41:56Z</time>
      </trkpt>
      <trkpt lat="49.70857" lon="4.66792">
        <ele>260</ele>
        <time>2011-05-27T12:41:57Z</time>
      </trkpt>
      <trkpt lat="49.70854" lon="4.66784">
        <ele>260</ele>
        <time>2011-05-27T12:41:58Z</time>
      </trkpt>
      <trkpt lat="49.70851" lon="4.66777">
        <ele>260</ele>
        <time>2011-05-27T12:41:59Z</time>
      </trkpt>
      <trkpt lat="49.70848" lon="4.66769">
        <ele>260</ele>
        <time>2011-05-27T12:42:00Z</time>
      </trkpt>
      <trkpt lat="49.70845" lon="4.66761">
        <ele>260</ele>
        <time>2011-05-27T12:42:01Z</time>
      </trkpt>
      <trkpt lat="49.70842" lon="4.66753">
        <ele>260</ele>
        <time>2011-05-27T12:42:02Z</time>
      </trkpt>
      <trkpt lat="49.7084" lon="4.66745">
        <ele>260</ele>
        <time>2011-05-27T12:42:03Z</time>
      </trkpt>
      <trkpt lat="49.70838" lon="4.66736">
        <ele>260</ele>
        <time>2011-05-27T12:42:04Z</time>
      </trkpt>
      <trkpt lat="49.70836" lon="4.66727">
        <ele>260</ele>
        <time>2011-05-27T12:42:05Z</time>
      </trkpt>
      <trkpt lat="49.70835" lon="4.66718">
        <ele>260</ele>
        <time>2011-05-27T12:42:06Z</time>
      </trkpt>
      <trkpt lat="49.70834" lon="4.6671">
        <ele>260</ele>
        <time>2011-05-27T12:42:07Z</time>
      </trkpt>
      <trkpt lat="49.70834" lon="4.66701">
        <ele>260</ele>
        <time>2011-05-27T12:42:08Z</time>
      </trkpt>
      <trkpt lat="49.70834" lon="4.66691">
        <ele>260</ele>
        <time>2011-05-27T12:42:09Z</time>
      </trkpt>
      <trkpt lat="49.70834" lon="4.66682">
        <ele>260</ele>
        <time>2011-05-27T12:42:10Z</time>
      </trkpt>
      <trkpt lat="49.70835" lon="4.66674">
        <ele>260</ele>
        <time>2011-05-27T12:42:11Z</time>
      </trkpt>
      <trkpt lat="49.70836" lon="4.66665">
        <ele>260</ele>
        <time>2011-05-27T12:42:12Z</time>
      </trkpt>
      <trkpt lat="49.70837" lon="4.66656">
        <ele>260</ele>
        <time>2011-05-27T12:42:13Z</time>
      </trkpt>
      <trkpt lat="49.70837" lon="4.66648">
        <ele>260</ele>
        <time>2011-05-27T12:42:14Z</time>
      </trkpt>
      <trkpt lat="49.70839" lon="4.66639">
        <ele>260</ele>
        <time>2011-05-27T12:42:15Z</time>
      </trkpt>
      <trkpt lat="49.7084" lon="4.66631">
        <ele>260</ele>
        <time>2011-05-27T12:42:16Z</time>
      </trkpt>
      <trkpt lat="49.70841" lon="4.66623">
        <ele>260</ele>
        <time>2011-05-27T12:42:17Z</time>
      </trkpt>
      <trkpt lat="49.70842" lon="4.66615">
        <ele>260</ele>
        <time>2011-05-27T12:42:18Z</time>
      </trkpt>
      <trkpt lat="49.70843" lon="4.66606">
        <ele>260</ele>
        <time>2011-05-27T12:42:19Z</time>
      </trkpt>
      <trkpt lat="49.70844" lon="4.66598">
        <ele>260</ele>
        <time>2011-05-27T12:42:20Z</time>
      </trkpt>
      <trkpt lat="49.70845" lon="4.66589">
        <ele>260</ele>
        <time>2011-05-27T12:42:21Z</time>
      </trkpt>
      <trkpt lat="49.70845" lon="4.66581">
        <ele>260</ele>
        <time>2011-05-27T12:42:22Z</time>
      </trkpt>
      <trkpt lat="49.70845" lon="4.66573">
        <ele>260</ele>
        <time>2011-05-27T12:42:23Z</time>
      </trkpt>
      <trkpt lat="49.70846" lon="4.66564">
        <ele>260</ele>
        <time>2011-05-27T12:42:24Z</time>
      </trkpt>
      <trkpt lat="49.70846" lon="4.66555">
        <ele>260</ele>
        <time>2011-05-27T12:42:25Z</time>
      </trkpt>
      <trkpt lat="49.70845" lon="4.66547">
        <ele>260</ele>
        <time>2011-05-27T12:42:26Z</time>
      </trkpt>
      <trkpt lat="49.70845" lon="4.66538">
        <ele>260</ele>
        <time>2011-05-27T12:42:27Z</time>
      </trkpt>
      <trkpt lat="49.70845" lon="4.6653">
        <ele>260</ele>
        <time>2011-05-27T12:42:28Z</time>
      </trkpt>
      <trkpt lat="49.70844" lon="4.66521">
        <ele>260</ele>
        <time>2011-05-27T12:42:29Z</time>
      </trkpt>
      <trkpt lat="49.70843" lon="4.66512">
        <ele>260</ele>
        <time>2011-05-27T12:42:30Z</time>
      </trkpt>
      <trkpt lat="49.70842" lon="4.66503">
        <ele>260</ele>
        <time>2011-05-27T12:42:31Z</time>
      </trkpt>
      <trkpt lat="49.70842" lon="4.66495">
        <ele>260</ele>
        <time>2011-05-27T12:42:32Z</time>
      </trkpt>
      <trkpt lat="49.70841" lon="4.66486">
        <ele>260</ele>
        <time>2011-05-27T12:42:33Z</time>
      </trkpt>
      <trkpt lat="49.7084" lon="4.66476">
        <ele>260</ele>
        <time>2011-05-27T12:42:34Z</time>
      </trkpt>
      <trkpt lat="49.70839" lon="4.66467">
        <ele>260</ele>
        <time>2011-05-27T12:42:35Z</time>
      </trkpt>
      <trkpt lat="49.70837" lon="4.66458">
        <ele>260</ele>
        <time>2011-05-27T12:42:36Z</time>
      </trkpt>
      <trkpt lat="49.70835" lon="4.66448">
        <ele>260</ele>
        <time>2011-05-27T12:42:37Z</time>
      </trkpt>
      <trkpt lat="49.70834" lon="4.66439">
        <ele>260</ele>
        <time>2011-05-27T12:42:38Z</time>
      </trkpt>
      <trkpt lat="49.70831" lon="4.66431">
        <ele>260</ele>
        <time>2011-05-27T12:42:39Z</time>
      </trkpt>
      <trkpt lat="49.70828" lon="4.66422">
        <ele>260</ele>
        <time>2011-05-27T12:42:40Z</time>
      </trkpt>
      <trkpt lat="49.70825" lon="4.66414">
        <ele>260</ele>
        <time>2011-05-27T12:42:41Z</time>
      </trkpt>
      <trkpt lat="49.70821" lon="4.66406">
        <ele>260</ele>
        <time>2011-05-27T12:42:42Z</time>
      </trkpt>
      <trkpt lat="49.70819" lon="4.66398">
        <ele>260</ele>
        <time>2011-05-27T12:42:43Z</time>
      </trkpt>
      <trkpt lat="49.70818" lon="4.6639">
        <ele>260</ele>
        <time>2011-05-27T12:42:44Z</time>
      </trkpt>
      <trkpt lat="49.70817" lon="4.66382">
        <ele>260</ele>
        <time>2011-05-27T12:42:45Z</time>
      </trkpt>
      <trkpt lat="49.70816" lon="4.66374">
        <ele>260</ele>
        <time>2011-05-27T12:42:46Z</time>
      </trkpt>
      <trkpt lat="49.70816" lon="4.66366">
        <ele>260</ele>
        <time>2011-05-27T12:42:47Z</time>
      </trkpt>
      <trkpt lat="49.70816" lon="4.66359">
        <ele>260</ele>
        <time>2011-05-27T12:42:48Z</time>
      </trkpt>
      <trkpt lat="49.70816" lon="4.66352">
        <ele>260</ele>
        <time>2011-05-27T12:42:49Z</time>
      </trkpt>
      <trkpt lat="49.70816" lon="4.66345">
        <ele>260</ele>
        <time>2011-05-27T12:42:50Z</time>
      </trkpt>
      <trkpt lat="49.70815" lon="4.66338">
        <ele>260</ele>
        <time>2011-05-27T12:42:51Z</time>
      </trkpt>
      <trkpt lat="49.70815" lon="4.66331">
        <ele>260</ele>
        <time>2011-05-27T12:42:52Z</time>
      </trkpt>
      <trkpt lat="49.70816" lon="4.66324">
        <ele>260</ele>
        <time>2011-05-27T12:42:53Z</time>
      </trkpt>
      <trkpt lat="49.70816" lon="4.66317">
        <ele>260</ele>
        <time>2011-05-27T12:42:54Z</time>
      </trkpt>
      <trkpt lat="49.70818" lon="4.6631">
        <ele>260</ele>
        <time>2011-05-27T12:42:55Z</time>
      </trkpt>
      <trkpt lat="49.7082" lon="4.66304">
        <ele>260</ele>
        <time>2011-05-27T12:42:56Z</time>
      </trkpt>
      <trkpt lat="49.70822" lon="4.66298">
        <ele>260</ele>
        <time>2011-05-27T12:42:57Z</time>
      </trkpt>
      <trkpt lat="49.70824" lon="4.66293">
        <ele>260</ele>
        <time>2011-05-27T12:42:58Z</time>
      </trkpt>
      <trkpt lat="49.70826" lon="4.66288">
        <ele>260</ele>
        <time>2011-05-27T12:42:59Z</time>
      </trkpt>
      <trkpt lat="49.70829" lon="4.66283">
        <ele>260</ele>
        <time>2011-05-27T12:43:00Z</time>
      </trkpt>
      <trkpt lat="49.70832" lon="4.66277">
        <ele>260</ele>
        <time>2011-05-27T12:43:01Z</time>
      </trkpt>
      <trkpt lat="49.70834" lon="4.66272">
        <ele>260</ele>
        <time>2011-05-27T12:43:02Z</time>
      </trkpt>
      <trkpt lat="49.70836" lon="4.66267">
        <ele>260</ele>
        <time>2011-05-27T12:43:03Z</time>
      </trkpt>
      <trkpt lat="49.70838" lon="4.66262">
        <ele>260</ele>
        <time>2011-05-27T12:43:04Z</time>
      </trkpt>
      <trkpt lat="49.7084" lon="4.66257">
        <ele>260</ele>
        <time>2011-05-27T12:43:05Z</time>
      </trkpt>
      <trkpt lat="49.70842" lon="4.66252">
        <ele>260</ele>
        <time>2011-05-27T12:43:06Z</time>
      </trkpt>
      <trkpt lat="49.70844" lon="4.66248">
        <ele>260</ele>
        <time>2011-05-27T12:43:07Z</time>
      </trkpt>
      <trkpt lat="49.70845" lon="4.66244">
        <ele>260</ele>
        <time>2011-05-27T12:43:08Z</time>
      </trkpt>
      <trkpt lat="49.70847" lon="4.6624">
        <ele>260</ele>
        <time>2011-05-27T12:43:09Z</time>
      </trkpt>
      <trkpt lat="49.70849" lon="4.66235">
        <ele>260</ele>
        <time>2011-05-27T12:43:10Z</time>
      </trkpt>
      <trkpt lat="49.70851" lon="4.6623">
        <ele>260</ele>
        <time>2011-05-27T12:43:11Z</time>
      </trkpt>
      <trkpt lat="49.70853" lon="4.66225">
        <ele>260</ele>
        <time>2011-05-27T12:43:12Z</time>
      </trkpt>
      <trkpt lat="49.70855" lon="4.66221">
        <ele>260</ele>
        <time>2011-05-27T12:43:13Z</time>
      </trkpt>
      <trkpt lat="49.70857" lon="4.66216">
        <ele>260</ele>
        <time>2011-05-27T12:43:14Z</time>
      </trkpt>
      <trkpt lat="49.70859" lon="4.66211">
        <ele>260</ele>
        <time>2011-05-27T12:43:15Z</time>
      </trkpt>
      <trkpt lat="49.70862" lon="4.66206">
        <ele>260</ele>
        <time>2011-05-27T12:43:16Z</time>
      </trkpt>
      <trkpt lat="49.70864" lon="4.66201">
        <ele>260</ele>
        <time>2011-05-27T12:43:17Z</time>
      </trkpt>
      <trkpt lat="49.70865" lon="4.66196">
        <ele>260</ele>
        <time>2011-05-27T12:43:18Z</time>
      </trkpt>
      <trkpt lat="49.70867" lon="4.66191">
        <ele>260</ele>
        <time>2011-05-27T12:43:19Z</time>
      </trkpt>
      <trkpt lat="49.70868" lon="4.66185">
        <ele>260</ele>
        <time>2011-05-27T12:43:20Z</time>
      </trkpt>
      <trkpt lat="49.70869" lon="4.6618">
        <ele>260</ele>
        <time>2011-05-27T12:43:21Z</time>
      </trkpt>
      <trkpt lat="49.7087" lon="4.66174">
        <ele>260</ele>
        <time>2011-05-27T12:43:22Z</time>
      </trkpt>
      <trkpt lat="49.7087" lon="4.66168">
        <ele>260</ele>
        <time>2011-05-27T12:43:23Z</time>
      </trkpt>
      <trkpt lat="49.70871" lon="4.66162">
        <ele>260</ele>
        <time>2011-05-27T12:43:24Z</time>
      </trkpt>
      <trkpt lat="49.70871" lon="4.66156">
        <ele>260</ele>
        <time>2011-05-27T12:43:25Z</time>
      </trkpt>
      <trkpt lat="49.70871" lon="4.66151">
        <ele>260</ele>
        <time>2011-05-27T12:43:26Z</time>
      </trkpt>
      <trkpt lat="49.70871" lon="4.66145">
        <ele>260</ele>
        <time>2011-05-27T12:43:27Z</time>
      </trkpt>
      <trkpt lat="49.70871" lon="4.66139">
        <ele>260</ele>
        <time>2011-05-27T12:43:28Z</time>
      </trkpt>
      <trkpt lat="49.70871" lon="4.66133">
        <ele>260</ele>
        <time>2011-05-27T12:43:29Z</time>
      </trkpt>
      <trkpt lat="49.70871" lon="4.66128">
        <ele>260</ele>
        <time>2011-05-27T12:43:30Z</time>
      </trkpt>
      <trkpt lat="49.70871" lon="4.66122">
        <ele>260</ele>
        <time>2011-05-27T12:43:31Z</time>
      </trkpt>
      <trkpt lat="49.70871" lon="4.66116">
        <ele>260</ele>
        <time>2011-05-27T12:43:32Z</time>
      </trkpt>
      <trkpt lat="49.7087" lon="4.66111">
        <ele>260</ele>
        <time>2011-05-27T12:43:33Z</time>
      </trkpt>
      <trkpt lat="49.7087" lon="4.66105">
        <ele>260</ele>
        <time>2011-05-27T12:43:34Z</time>
      </trkpt>
      <trkpt lat="49.7087" lon="4.661">
        <ele>260</ele>
        <time>2011-05-27T12:43:35Z</time>
      </trkpt>
      <trkpt lat="49.7087" lon="4.66094">
        <ele>260</ele>
        <time>2011-05-27T12:43:36Z</time>
      </trkpt>
      <trkpt lat="49.70869" lon="4.66088">
        <ele>260</ele>
        <time>2011-05-27T12:43:37Z</time>
      </trkpt>
      <trkpt lat="49.70869" lon="4.66083">
        <ele>260</ele>
        <time>2011-05-27T12:43:38Z</time>
      </trkpt>
      <trkpt lat="49.70869" lon="4.66077">
        <ele>260</ele>
        <time>2011-05-27T12:43:39Z</time>
      </trkpt>
      <trkpt lat="49.70869" lon="4.66071">
        <ele>260</ele>
        <time>2011-05-27T12:43:40Z</time>
      </trkpt>
      <trkpt lat="49.70868" lon="4.66066">
        <ele>260</ele>
        <time>2011-05-27T12:43:41Z</time>
      </trkpt>
      <trkpt lat="49.70868" lon="4.6606">
        <ele>260</ele>
        <time>2011-05-27T12:43:42Z</time>
      </trkpt>
      <trkpt lat="49.70867" lon="4.66054">
        <ele>260</ele>
        <time>2011-05-27T12:43:43Z</time>
      </trkpt>
      <trkpt lat="49.70866" lon="4.66049">
        <ele>260</ele>
        <time>2011-05-27T12:43:44Z</time>
      </trkpt>
      <trkpt lat="49.70866" lon="4.66044">
        <ele>260</ele>
        <time>2011-05-27T12:43:45Z</time>
      </trkpt>
      <trkpt lat="49.70865" lon="4.66038">
        <ele>260</ele>
        <time>2011-05-27T12:43:46Z</time>
      </trkpt>
      <trkpt lat="49.70864" lon="4.66033">
        <ele>260</ele>
        <time>2011-05-27T12:43:47Z</time>
      </trkpt>
      <trkpt lat="49.70863" lon="4.66028">
        <ele>260</ele>
        <time>2011-05-27T12:43:48Z</time>
      </trkpt>
      <trkpt lat="49.70862" lon="4.66022">
        <ele>260</ele>
        <time>2011-05-27T12:43:49Z</time>
      </trkpt>
      <trkpt lat="49.70861" lon="4.66017">
        <ele>260</ele>
        <time>2011-05-27T12:43:50Z</time>
      </trkpt>
      <trkpt lat="49.7086" lon="4.66012">
        <ele>260</ele>
        <time>2011-05-27T12:43:51Z</time>
      </trkpt>
      <trkpt lat="49.70859" lon="4.66007">
        <ele>260</ele>
        <time>2011-05-27T12:43:52Z</time>
      </trkpt>
      <trkpt lat="49.70858" lon="4.66002">
        <ele>260</ele>
        <time>2011-05-27T12:43:53Z</time>
      </trkpt>
      <trkpt lat="49.70856" lon="4.65997">
        <ele>260</ele>
        <time>2011-05-27T12:43:54Z</time>
      </trkpt>
      <trkpt lat="49.70856" lon="4.65991">
        <ele>260</ele>
        <time>2011-05-27T12:43:55Z</time>
      </trkpt>
      <trkpt lat="49.70855" lon="4.65986">
        <ele>260</ele>
        <time>2011-05-27T12:43:56Z</time>
      </trkpt>
      <trkpt lat="49.70854" lon="4.65981">
        <ele>260</ele>
        <time>2011-05-27T12:43:57Z</time>
      </trkpt>
      <trkpt lat="49.70853" lon="4.65976">
        <ele>260</ele>
        <time>2011-05-27T12:43:58Z</time>
      </trkpt>
      <trkpt lat="49.70852" lon="4.65971">
        <ele>260</ele>
        <time>2011-05-27T12:43:59Z</time>
      </trkpt>
      <trkpt lat="49.70851" lon="4.65965">
        <ele>260</ele>
        <time>2011-05-27T12:44:00Z</time>
      </trkpt>
      <trkpt lat="49.7085" lon="4.6596">
        <ele>260</ele>
        <time>2011-05-27T12:44:01Z</time>
      </trkpt>
      <trkpt lat="49.70848" lon="4.65955">
        <ele>260</ele>
        <time>2011-05-27T12:44:02Z</time>
      </trkpt>
      <trkpt lat="49.70847" lon="4.65949">
        <ele>261</ele>
        <time>2011-05-27T12:44:03Z</time>
      </trkpt>
      <trkpt lat="49.70846" lon="4.65944">
        <ele>261</ele>
        <time>2011-05-27T12:44:04Z</time>
      </trkpt>
      <trkpt lat="49.70845" lon="4.65939">
        <ele>261</ele>
        <time>2011-05-27T12:44:05Z</time>
      </trkpt>
      <trkpt lat="49.70844" lon="4.65934">
        <ele>261</ele>
        <time>2011-05-27T12:44:06Z</time>
      </trkpt>
      <trkpt lat="49.70843" lon="4.65929">
        <ele>261</ele>
        <time>2011-05-27T12:44:07Z</time>
      </trkpt>
      <trkpt lat="49.70842" lon="4.65924">
        <ele>262</ele>
        <time>2011-05-27T12:44:08Z</time>
      </trkpt>
      <trkpt lat="49.70841" lon="4.65919">
        <ele>262</ele>
        <time>2011-05-27T12:44:09Z</time>
      </trkpt>
      <trkpt lat="49.7084" lon="4.65914">
        <ele>262</ele>
        <time>2011-05-27T12:44:10Z</time>
      </trkpt>
      <trkpt lat="49.70839" lon="4.65908">
        <ele>262</ele>
        <time>2011-05-27T12:44:11Z</time>
      </trkpt>
      <trkpt lat="49.70838" lon="4.65904">
        <ele>262</ele>
        <time>2011-05-27T12:44:12Z</time>
      </trkpt>
      <trkpt lat="49.70837" lon="4.65899">
        <ele>263</ele>
        <time>2011-05-27T12:44:13Z</time>
      </trkpt>
      <trkpt lat="49.70836" lon="4.65894">
        <ele>263</ele>
        <time>2011-05-27T12:44:14Z</time>
      </trkpt>
      <trkpt lat="49.70835" lon="4.65889">
        <ele>263</ele>
        <time>2011-05-27T12:44:15Z</time>
      </trkpt>
      <trkpt lat="49.70834" lon="4.65884">
        <ele>263</ele>
        <time>2011-05-27T12:44:16Z</time>
      </trkpt>
      <trkpt lat="49.70833" lon="4.6588">
        <ele>263</ele>
        <time>2011-05-27T12:44:17Z</time>
      </trkpt>
      <trkpt lat="49.70832" lon="4.65875">
        <ele>264</ele>
        <time>2011-05-27T12:44:18Z</time>
      </trkpt>
      <trkpt lat="49.70832" lon="4.65871">
        <ele>264</ele>
        <time>2011-05-27T12:44:19Z</time>
      </trkpt>
      <trkpt lat="49.70831" lon="4.65866">
        <ele>264</ele>
        <time>2011-05-27T12:44:20Z</time>
      </trkpt>
      <trkpt lat="49.70829" lon="4.65862">
        <ele>264</ele>
        <time>2011-05-27T12:44:21Z</time>
      </trkpt>
      <trkpt lat="49.70829" lon="4.65857">
        <ele>265</ele>
        <time>2011-05-27T12:44:22Z</time>
      </trkpt>
      <trkpt lat="49.70828" lon="4.65852">
        <ele>265</ele>
        <time>2011-05-27T12:44:23Z</time>
      </trkpt>
      <trkpt lat="49.70827" lon="4.65848">
        <ele>265</ele>
        <time>2011-05-27T12:44:24Z</time>
      </trkpt>
      <trkpt lat="49.70826" lon="4.65843">
        <ele>265</ele>
        <time>2011-05-27T12:44:25Z</time>
      </trkpt>
      <trkpt lat="49.70824" lon="4.65839">
        <ele>265</ele>
        <time>2011-05-27T12:44:26Z</time>
      </trkpt>
      <trkpt lat="49.70824" lon="4.65834">
        <ele>266</ele>
        <time>2011-05-27T12:44:27Z</time>
      </trkpt>
      <trkpt lat="49.70822" lon="4.6583">
        <ele>266</ele>
        <time>2011-05-27T12:44:28Z</time>
      </trkpt>
      <trkpt lat="49.70821" lon="4.65825">
        <ele>266</ele>
        <time>2011-05-27T12:44:29Z</time>
      </trkpt>
      <trkpt lat="49.7082" lon="4.65821">
        <ele>266</ele>
        <time>2011-05-27T12:44:30Z</time>
      </trkpt>
      <trkpt lat="49.70819" lon="4.65817">
        <ele>267</ele>
        <time>2011-05-27T12:44:31Z</time>
      </trkpt>
      <trkpt lat="49.70818" lon="4.65812">
        <ele>267</ele>
        <time>2011-05-27T12:44:32Z</time>
      </trkpt>
      <trkpt lat="49.70816" lon="4.65808">
        <ele>267</ele>
        <time>2011-05-27T12:44:33Z</time>
      </trkpt>
      <trkpt lat="49.70815" lon="4.65804">
        <ele>267</ele>
        <time>2011-05-27T12:44:34Z</time>
      </trkpt>
      <trkpt lat="49.70813" lon="4.658">
        <ele>267</ele>
        <time>2011-05-27T12:44:35Z</time>
      </trkpt>
      <trkpt lat="49.70811" lon="4.65796">
        <ele>268</ele>
        <time>2011-05-27T12:44:36Z</time>
      </trkpt>
      <trkpt lat="49.7081" lon="4.65791">
        <ele>268</ele>
        <time>2011-05-27T12:44:37Z</time>
      </trkpt>
      <trkpt lat="49.70808" lon="4.65787">
        <ele>268</ele>
        <time>2011-05-27T12:44:38Z</time>
      </trkpt>
      <trkpt lat="49.70806" lon="4.65783">
        <ele>268</ele>
        <time>2011-05-27T12:44:39Z</time>
      </trkpt>
      <trkpt lat="49.70804" lon="4.65779">
        <ele>268</ele>
        <time>2011-05-27T12:44:40Z</time>
      </trkpt>
      <trkpt lat="49.70802" lon="4.65775">
        <ele>268</ele>
        <time>2011-05-27T12:44:41Z</time>
      </trkpt>
      <trkpt lat="49.708" lon="4.6577">
        <ele>268</ele>
        <time>2011-05-27T12:44:42Z</time>
      </trkpt>
      <trkpt lat="49.70798" lon="4.65766">
        <ele>268</ele>
        <time>2011-05-27T12:44:43Z</time>
      </trkpt>
      <trkpt lat="49.70795" lon="4.65763">
        <ele>268</ele>
        <time>2011-05-27T12:44:44Z</time>
      </trkpt>
      <trkpt lat="49.70793" lon="4.65759">
        <ele>268</ele>
        <time>2011-05-27T12:44:45Z</time>
      </trkpt>
      <trkpt lat="49.7079" lon="4.65755">
        <ele>268</ele>
        <time>2011-05-27T12:44:46Z</time>
      </trkpt>
      <trkpt lat="49.70788" lon="4.65752">
        <ele>269</ele>
        <time>2011-05-27T12:44:47Z</time>
      </trkpt>
      <trkpt lat="49.70785" lon="4.65748">
        <ele>269</ele>
        <time>2011-05-27T12:44:48Z</time>
      </trkpt>
      <trkpt lat="49.70782" lon="4.65744">
        <ele>269</ele>
        <time>2011-05-27T12:44:49Z</time>
      </trkpt>
      <trkpt lat="49.70779" lon="4.65741">
        <ele>269</ele>
        <time>2011-05-27T12:44:50Z</time>
      </trkpt>
      <trkpt lat="49.70775" lon="4.65739">
        <ele>269</ele>
        <time>2011-05-27T12:44:51Z</time>
      </trkpt>
      <trkpt lat="49.70772" lon="4.65736">
        <ele>269</ele>
        <time>2011-05-27T12:44:52Z</time>
      </trkpt>
      <trkpt lat="49.70768" lon="4.65732">
        <ele>269</ele>
        <time>2011-05-27T12:44:53Z</time>
      </trkpt>
      <trkpt lat="49.70764" lon="4.65729">
        <ele>269</ele>
        <time>2011-05-27T12:44:54Z</time>
      </trkpt>
      <trkpt lat="49.7076" lon="4.65726">
        <ele>269</ele>
        <time>2011-05-27T12:44:55Z</time>
      </trkpt>
      <trkpt lat="49.70757" lon="4.65723">
        <ele>269</ele>
        <time>2011-05-27T12:44:56Z</time>
      </trkpt>
      <trkpt lat="49.70752" lon="4.6572">
        <ele>269</ele>
        <time>2011-05-27T12:44:57Z</time>
      </trkpt>
      <trkpt lat="49.70748" lon="4.65716">
        <ele>269</ele>
        <time>2011-05-27T12:44:58Z</time>
      </trkpt>
      <trkpt lat="49.70744" lon="4.65712">
        <ele>269</ele>
        <time>2011-05-27T12:44:59Z</time>
      </trkpt>
      <trkpt lat="49.70739" lon="4.65709">
        <ele>269</ele>
        <time>2011-05-27T12:45:00Z</time>
      </trkpt>
      <trkpt lat="49.70735" lon="4.65705">
        <ele>269</ele>
        <time>2011-05-27T12:45:01Z</time>
      </trkpt>
      <trkpt lat="49.70731" lon="4.65701">
        <ele>269</ele>
        <time>2011-05-27T12:45:02Z</time>
      </trkpt>
      <trkpt lat="49.70726" lon="4.65696">
        <ele>269</ele>
        <time>2011-05-27T12:45:03Z</time>
      </trkpt>
      <trkpt lat="49.70721" lon="4.65692">
        <ele>269</ele>
        <time>2011-05-27T12:45:04Z</time>
      </trkpt>
      <trkpt lat="49.70716" lon="4.65687">
        <ele>269</ele>
        <time>2011-05-27T12:45:05Z</time>
      </trkpt>
      <trkpt lat="49.70711" lon="4.65683">
        <ele>269</ele>
        <time>2011-05-27T12:45:06Z</time>
      </trkpt>
      <trkpt lat="49.70706" lon="4.65678">
        <ele>269</ele>
        <time>2011-05-27T12:45:07Z</time>
      </trkpt>
      <trkpt lat="49.707" lon="4.65673">
        <ele>269</ele>
        <time>2011-05-27T12:45:08Z</time>
      </trkpt>
      <trkpt lat="49.70695" lon="4.65668">
        <ele>269</ele>
        <time>2011-05-27T12:45:09Z</time>
      </trkpt>
      <trkpt lat="49.70689" lon="4.65663">
        <ele>269</ele>
        <time>2011-05-27T12:45:10Z</time>
      </trkpt>
      <trkpt lat="49.70684" lon="4.65658">
        <ele>269</ele>
        <time>2011-05-27T12:45:11Z</time>
      </trkpt>
      <trkpt lat="49.70678" lon="4.65652">
        <ele>269</ele>
        <time>2011-05-27T12:45:12Z</time>
      </trkpt>
      <trkpt lat="49.70672" lon="4.65647">
        <ele>269</ele>
        <time>2011-05-27T12:45:13Z</time>
      </trkpt>
      <trkpt lat="49.70666" lon="4.65643">
        <ele>269</ele>
        <time>2011-05-27T12:45:14Z</time>
      </trkpt>
      <trkpt lat="49.7066" lon="4.65639">
        <ele>268</ele>
        <time>2011-05-27T12:45:15Z</time>
      </trkpt>
      <trkpt lat="49.70654" lon="4.65635">
        <ele>268</ele>
        <time>2011-05-27T12:45:16Z</time>
      </trkpt>
      <trkpt lat="49.70648" lon="4.65631">
        <ele>268</ele>
        <time>2011-05-27T12:45:17Z</time>
      </trkpt>
      <trkpt lat="49.70641" lon="4.65627">
        <ele>267</ele>
        <time>2011-05-27T12:45:18Z</time>
      </trkpt>
      <trkpt lat="49.70635" lon="4.65623">
        <ele>267</ele>
        <time>2011-05-27T12:45:19Z</time>
      </trkpt>
      <trkpt lat="49.70629" lon="4.65619">
        <ele>267</ele>
        <time>2011-05-27T12:45:20Z</time>
      </trkpt>
      <trkpt lat="49.70623" lon="4.65615">
        <ele>266</ele>
        <time>2011-05-27T12:45:21Z</time>
      </trkpt>
      <trkpt lat="49.70617" lon="4.65611">
        <ele>266</ele>
        <time>2011-05-27T12:45:22Z</time>
      </trkpt>
      <trkpt lat="49.70611" lon="4.65606">
        <ele>266</ele>
        <time>2011-05-27T12:45:23Z</time>
      </trkpt>
      <trkpt lat="49.70605" lon="4.65602">
        <ele>266</ele>
        <time>2011-05-27T12:45:24Z</time>
      </trkpt>
      <trkpt lat="49.70599" lon="4.65598">
        <ele>266</ele>
        <time>2011-05-27T12:45:25Z</time>
      </trkpt>
      <trkpt lat="49.70594" lon="4.65594">
        <ele>265</ele>
        <time>2011-05-27T12:45:26Z</time>
      </trkpt>
      <trkpt lat="49.70589" lon="4.6559">
        <ele>265</ele>
        <time>2011-05-27T12:45:27Z</time>
      </trkpt>
      <trkpt lat="49.70584" lon="4.65587">
        <ele>265</ele>
        <time>2011-05-27T12:45:28Z</time>
      </trkpt>
      <trkpt lat="49.7058" lon="4.65583">
        <ele>265</ele>
        <time>2011-05-27T12:45:29Z</time>
      </trkpt>
      <trkpt lat="49.70576" lon="4.65579">
        <ele>265</ele>
        <time>2011-05-27T12:45:30Z</time>
      </trkpt>
      <trkpt lat="49.70572" lon="4.65576">
        <ele>265</ele>
        <time>2011-05-27T12:45:31Z</time>
      </trkpt>
      <trkpt lat="49.70567" lon="4.65574">
        <ele>265</ele>
        <time>2011-05-27T12:45:32Z</time>
      </trkpt>
      <trkpt lat="49.70563" lon="4.65574">
        <ele>265</ele>
        <time>2011-05-27T12:45:33Z</time>
      </trkpt>
      <trkpt lat="49.7056" lon="4.65573">
        <ele>265</ele>
        <time>2011-05-27T12:45:34Z</time>
      </trkpt>
      <trkpt lat="49.70557" lon="4.6557">
        <ele>265</ele>
        <time>2011-05-27T12:45:35Z</time>
      </trkpt>
      <trkpt lat="49.70555" lon="4.65566">
        <ele>265</ele>
        <time>2011-05-27T12:45:36Z</time>
      </trkpt>
      <trkpt lat="49.70555" lon="4.65562">
        <ele>265</ele>
        <time>2011-05-27T12:45:37Z</time>
      </trkpt>
      <trkpt lat="49.70556" lon="4.65558">
        <ele>265</ele>
        <time>2011-05-27T12:45:38Z</time>
      </trkpt>
      <trkpt lat="49.70557" lon="4.65554">
        <ele>265</ele>
        <time>2011-05-27T12:45:39Z</time>
      </trkpt>
      <trkpt lat="49.70557" lon="4.65549">
        <ele>265</ele>
        <time>2011-05-27T12:45:40Z</time>
      </trkpt>
      <trkpt lat="49.70559" lon="4.65544">
        <ele>265</ele>
        <time>2011-05-27T12:45:41Z</time>
      </trkpt>
      <trkpt lat="49.70559" lon="4.65539">
        <ele>265</ele>
        <time>2011-05-27T12:45:42Z</time>
      </trkpt>
      <trkpt lat="49.7056" lon="4.65534">
        <ele>265</ele>
        <time>2011-05-27T12:45:43Z</time>
      </trkpt>
      <trkpt lat="49.70561" lon="4.65529">
        <ele>265</ele>
        <time>2011-05-27T12:45:44Z</time>
      </trkpt>
      <trkpt lat="49.70562" lon="4.65525">
        <ele>265</ele>
        <time>2011-05-27T12:45:45Z</time>
      </trkpt>
      <trkpt lat="49.70563" lon="4.6552">
        <ele>264</ele>
        <time>2011-05-27T12:45:46Z</time>
      </trkpt>
      <trkpt lat="49.70564" lon="4.65514">
        <ele>264</ele>
        <time>2011-05-27T12:45:47Z</time>
      </trkpt>
      <trkpt lat="49.70565" lon="4.6551">
        <ele>264</ele>
        <time>2011-05-27T12:45:48Z</time>
      </trkpt>
      <trkpt lat="49.70566" lon="4.65504">
        <ele>264</ele>
        <time>2011-05-27T12:45:49Z</time>
      </trkpt>
      <trkpt lat="49.70567" lon="4.65499">
        <ele>263</ele>
        <time>2011-05-27T12:45:50Z</time>
      </trkpt>
      <trkpt lat="49.70568" lon="4.65493">
        <ele>263</ele>
        <time>2011-05-27T12:45:51Z</time>
      </trkpt>
      <trkpt lat="49.70569" lon="4.65487">
        <ele>262</ele>
        <time>2011-05-27T12:45:52Z</time>
      </trkpt>
      <trkpt lat="49.70571" lon="4.65481">
        <ele>261</ele>
        <time>2011-05-27T12:45:53Z</time>
      </trkpt>
      <trkpt lat="49.70572" lon="4.65473">
        <ele>261</ele>
        <time>2011-05-27T12:45:54Z</time>
      </trkpt>
      <trkpt lat="49.70574" lon="4.65465">
        <ele>260</ele>
        <time>2011-05-27T12:45:55Z</time>
      </trkpt>
      <trkpt lat="49.70576" lon="4.65457">
        <ele>259</ele>
        <time>2011-05-27T12:45:56Z</time>
      </trkpt>
      <trkpt lat="49.70577" lon="4.65449">
        <ele>258</ele>
        <time>2011-05-27T12:45:57Z</time>
      </trkpt>
      <trkpt lat="49.70578" lon="4.6544">
        <ele>257</ele>
        <time>2011-05-27T12:45:58Z</time>
      </trkpt>
      <trkpt lat="49.7058" lon="4.65431">
        <ele>256</ele>
        <time>2011-05-27T12:45:59Z</time>
      </trkpt>
      <trkpt lat="49.70582" lon="4.65422">
        <ele>255</ele>
        <time>2011-05-27T12:46:00Z</time>
      </trkpt>
      <trkpt lat="49.70584" lon="4.65414">
        <ele>254</ele>
        <time>2011-05-27T12:46:01Z</time>
      </trkpt>
      <trkpt lat="49.70586" lon="4.65405">
        <ele>253</ele>
        <time>2011-05-27T12:46:02Z</time>
      </trkpt>
      <trkpt lat="49.70588" lon="4.65395">
        <ele>252</ele>
        <time>2011-05-27T12:46:03Z</time>
      </trkpt>
      <trkpt lat="49.70589" lon="4.65385">
        <ele>251</ele>
        <time>2011-05-27T12:46:04Z</time>
      </trkpt>
      <trkpt lat="49.70587" lon="4.65375">
        <ele>250</ele>
        <time>2011-05-27T12:46:05Z</time>
      </trkpt>
      <trkpt lat="49.70583" lon="4.65365">
        <ele>249</ele>
        <time>2011-05-27T12:46:06Z</time>
      </trkpt>
      <trkpt lat="49.70579" lon="4.65355">
        <ele>248</ele>
        <time>2011-05-27T12:46:07Z</time>
      </trkpt>
      <trkpt lat="49.70574" lon="4.65344">
        <ele>247</ele>
        <time>2011-05-27T12:46:08Z</time>
      </trkpt>
      <trkpt lat="49.7057" lon="4.65332">
        <ele>246</ele>
        <time>2011-05-27T12:46:09Z</time>
      </trkpt>
      <trkpt lat="49.70565" lon="4.65319">
        <ele>245</ele>
        <time>2011-05-27T12:46:10Z</time>
      </trkpt>
      <trkpt lat="49.70561" lon="4.65307">
        <ele>244</ele>
        <time>2011-05-27T12:46:11Z</time>
      </trkpt>
      <trkpt lat="49.70556" lon="4.65294">
        <ele>243</ele>
        <time>2011-05-27T12:46:12Z</time>
      </trkpt>
      <trkpt lat="49.70552" lon="4.65281">
        <ele>242</ele>
        <time>2011-05-27T12:46:13Z</time>
      </trkpt>
      <trkpt lat="49.70547" lon="4.65268">
        <ele>241</ele>
        <time>2011-05-27T12:46:14Z</time>
      </trkpt>
      <trkpt lat="49.70542" lon="4.65256">
        <ele>240</ele>
        <time>2011-05-27T12:46:15Z</time>
      </trkpt>
      <trkpt lat="49.70538" lon="4.65243">
        <ele>239</ele>
        <time>2011-05-27T12:46:16Z</time>
      </trkpt>
      <trkpt lat="49.70533" lon="4.65231">
        <ele>238</ele>
        <time>2011-05-27T12:46:17Z</time>
      </trkpt>
      <trkpt lat="49.70529" lon="4.65218">
        <ele>237</ele>
        <time>2011-05-27T12:46:18Z</time>
      </trkpt>
      <trkpt lat="49.70524" lon="4.65206">
        <ele>236</ele>
        <time>2011-05-27T12:46:19Z</time>
      </trkpt>
      <trkpt lat="49.7052" lon="4.65193">
        <ele>235</ele>
        <time>2011-05-27T12:46:20Z</time>
      </trkpt>
      <trkpt lat="49.70515" lon="4.65181">
        <ele>234</ele>
        <time>2011-05-27T12:46:21Z</time>
      </trkpt>
      <trkpt lat="49.70511" lon="4.65169">
        <ele>233</ele>
        <time>2011-05-27T12:46:22Z</time>
      </trkpt>
      <trkpt lat="49.70507" lon="4.65157">
        <ele>232</ele>
        <time>2011-05-27T12:46:23Z</time>
      </trkpt>
      <trkpt lat="49.70502" lon="4.65146">
        <ele>231</ele>
        <time>2011-05-27T12:46:24Z</time>
      </trkpt>
      <trkpt lat="49.70496" lon="4.65136">
        <ele>230</ele>
        <time>2011-05-27T12:46:25Z</time>
      </trkpt>
      <trkpt lat="49.70489" lon="4.65129">
        <ele>229</ele>
        <time>2011-05-27T12:46:26Z</time>
      </trkpt>
      <trkpt lat="49.70481" lon="4.65122">
        <ele>228</ele>
        <time>2011-05-27T12:46:27Z</time>
      </trkpt>
      <trkpt lat="49.70474" lon="4.65116">
        <ele>227</ele>
        <time>2011-05-27T12:46:28Z</time>
      </trkpt>
      <trkpt lat="49.70467" lon="4.6511">
        <ele>227</ele>
        <time>2011-05-27T12:46:29Z</time>
      </trkpt>
      <trkpt lat="49.70459" lon="4.65105">
        <ele>226</ele>
        <time>2011-05-27T12:46:31Z</time>
      </trkpt>
      <trkpt lat="49.70452" lon="4.65099">
        <ele>226</ele>
        <time>2011-05-27T12:46:31Z</time>
      </trkpt>
      <trkpt lat="49.70445" lon="4.65095">
        <ele>226</ele>
        <time>2011-05-27T12:46:32Z</time>
      </trkpt>
      <trkpt lat="49.70438" lon="4.65089">
        <ele>225</ele>
        <time>2011-05-27T12:46:33Z</time>
      </trkpt>
      <trkpt lat="49.70431" lon="4.65084">
        <ele>225</ele>
        <time>2011-05-27T12:46:34Z</time>
      </trkpt>
      <trkpt lat="49.70424" lon="4.65078">
        <ele>225</ele>
        <time>2011-05-27T12:46:35Z</time>
      </trkpt>
      <trkpt lat="49.70418" lon="4.65073">
        <ele>225</ele>
        <time>2011-05-27T12:46:36Z</time>
      </trkpt>
      <trkpt lat="49.70412" lon="4.65068">
        <ele>225</ele>
        <time>2011-05-27T12:46:37Z</time>
      </trkpt>
      <trkpt lat="49.70406" lon="4.65063">
        <ele>225</ele>
        <time>2011-05-27T12:46:38Z</time>
      </trkpt>
      <trkpt lat="49.704" lon="4.65059">
        <ele>225</ele>
        <time>2011-05-27T12:46:39Z</time>
      </trkpt>
      <trkpt lat="49.70394" lon="4.65055">
        <ele>225</ele>
        <time>2011-05-27T12:46:40Z</time>
      </trkpt>
      <trkpt lat="49.70389" lon="4.6505">
        <ele>225</ele>
        <time>2011-05-27T12:46:41Z</time>
      </trkpt>
      <trkpt lat="49.70383" lon="4.65046">
        <ele>225</ele>
        <time>2011-05-27T12:46:42Z</time>
      </trkpt>
      <trkpt lat="49.70378" lon="4.65042">
        <ele>225</ele>
        <time>2011-05-27T12:46:43Z</time>
      </trkpt>
      <trkpt lat="49.70373" lon="4.65039">
        <ele>225</ele>
        <time>2011-05-27T12:46:44Z</time>
      </trkpt>
      <trkpt lat="49.70369" lon="4.65035">
        <ele>225</ele>
        <time>2011-05-27T12:46:45Z</time>
      </trkpt>
      <trkpt lat="49.70364" lon="4.65032">
        <ele>225</ele>
        <time>2011-05-27T12:46:46Z</time>
      </trkpt>
      <trkpt lat="49.70359" lon="4.65028">
        <ele>225</ele>
        <time>2011-05-27T12:46:47Z</time>
      </trkpt>
      <trkpt lat="49.70354" lon="4.65025">
        <ele>225</ele>
        <time>2011-05-27T12:46:48Z</time>
      </trkpt>
      <trkpt lat="49.7035" lon="4.65021">
        <ele>225</ele>
        <time>2011-05-27T12:46:49Z</time>
      </trkpt>
      <trkpt lat="49.70346" lon="4.65018">
        <ele>225</ele>
        <time>2011-05-27T12:46:50Z</time>
      </trkpt>
      <trkpt lat="49.70341" lon="4.65014">
        <ele>225</ele>
        <time>2011-05-27T12:46:51Z</time>
      </trkpt>
      <trkpt lat="49.70337" lon="4.6501">
        <ele>225</ele>
        <time>2011-05-27T12:46:52Z</time>
      </trkpt>
      <trkpt lat="49.70332" lon="4.65007">
        <ele>225</ele>
        <time>2011-05-27T12:46:53Z</time>
      </trkpt>
      <trkpt lat="49.70328" lon="4.65003">
        <ele>225</ele>
        <time>2011-05-27T12:46:54Z</time>
      </trkpt>
      <trkpt lat="49.70323" lon="4.64999">
        <ele>225</ele>
        <time>2011-05-27T12:46:55Z</time>
      </trkpt>
      <trkpt lat="49.70319" lon="4.64995">
        <ele>225</ele>
        <time>2011-05-27T12:46:56Z</time>
      </trkpt>
      <trkpt lat="49.70314" lon="4.64992">
        <ele>225</ele>
        <time>2011-05-27T12:46:57Z</time>
      </trkpt>
      <trkpt lat="49.70309" lon="4.64988">
        <ele>225</ele>
        <time>2011-05-27T12:46:58Z</time>
      </trkpt>
      <trkpt lat="49.70305" lon="4.64984">
        <ele>225</ele>
        <time>2011-05-27T12:46:59Z</time>
      </trkpt>
      <trkpt lat="49.70301" lon="4.6498">
        <ele>225</ele>
        <time>2011-05-27T12:47:00Z</time>
      </trkpt>
      <trkpt lat="49.70296" lon="4.64976">
        <ele>225</ele>
        <time>2011-05-27T12:47:01Z</time>
      </trkpt>
      <trkpt lat="49.70291" lon="4.64972">
        <ele>225</ele>
        <time>2011-05-27T12:47:02Z</time>
      </trkpt>
      <trkpt lat="49.70287" lon="4.64969">
        <ele>225</ele>
        <time>2011-05-27T12:47:03Z</time>
      </trkpt>
      <trkpt lat="49.70282" lon="4.64965">
        <ele>225</ele>
        <time>2011-05-27T12:47:04Z</time>
      </trkpt>
      <trkpt lat="49.70277" lon="4.64962">
        <ele>225</ele>
        <time>2011-05-27T12:47:05Z</time>
      </trkpt>
      <trkpt lat="49.70272" lon="4.64958">
        <ele>225</ele>
        <time>2011-05-27T12:47:06Z</time>
      </trkpt>
      <trkpt lat="49.70267" lon="4.64955">
        <ele>224</ele>
        <time>2011-05-27T12:47:07Z</time>
      </trkpt>
      <trkpt lat="49.70262" lon="4.64952">
        <ele>224</ele>
        <time>2011-05-27T12:47:08Z</time>
      </trkpt>
      <trkpt lat="49.70258" lon="4.6495">
        <ele>224</ele>
        <time>2011-05-27T12:47:09Z</time>
      </trkpt>
      <trkpt lat="49.70254" lon="4.64947">
        <ele>224</ele>
        <time>2011-05-27T12:47:10Z</time>
      </trkpt>
      <trkpt lat="49.7025" lon="4.64943">
        <ele>223</ele>
        <time>2011-05-27T12:47:11Z</time>
      </trkpt>
      <trkpt lat="49.70248" lon="4.64936">
        <ele>223</ele>
        <time>2011-05-27T12:47:12Z</time>
      </trkpt>
      <trkpt lat="49.70248" lon="4.64928">
        <ele>223</ele>
        <time>2011-05-27T12:47:13Z</time>
      </trkpt>
      <trkpt lat="49.70248" lon="4.64919">
        <ele>223</ele>
        <time>2011-05-27T12:47:14Z</time>
      </trkpt>
      <trkpt lat="49.7025" lon="4.6491">
        <ele>222</ele>
        <time>2011-05-27T12:47:15Z</time>
      </trkpt>
      <trkpt lat="49.70251" lon="4.64901">
        <ele>222</ele>
        <time>2011-05-27T12:47:16Z</time>
      </trkpt>
      <trkpt lat="49.70252" lon="4.64891">
        <ele>221</ele>
        <time>2011-05-27T12:47:17Z</time>
      </trkpt>
      <trkpt lat="49.70253" lon="4.64883">
        <ele>220</ele>
        <time>2011-05-27T12:47:18Z</time>
      </trkpt>
      <trkpt lat="49.70253" lon="4.64875">
        <ele>219</ele>
        <time>2011-05-27T12:47:19Z</time>
      </trkpt>
      <trkpt lat="49.70253" lon="4.64866">
        <ele>219</ele>
        <time>2011-05-27T12:47:20Z</time>
      </trkpt>
      <trkpt lat="49.70253" lon="4.64858">
        <ele>218</ele>
        <time>2011-05-27T12:47:21Z</time>
      </trkpt>
      <trkpt lat="49.70253" lon="4.6485">
        <ele>217</ele>
        <time>2011-05-27T12:47:22Z</time>
      </trkpt>
      <trkpt lat="49.70254" lon="4.64841">
        <ele>216</ele>
        <time>2011-05-27T12:47:23Z</time>
      </trkpt>
      <trkpt lat="49.70254" lon="4.64833">
        <ele>216</ele>
        <time>2011-05-27T12:47:24Z</time>
      </trkpt>
      <trkpt lat="49.70254" lon="4.64824">
        <ele>215</ele>
        <time>2011-05-27T12:47:25Z</time>
      </trkpt>
      <trkpt lat="49.70254" lon="4.64815">
        <ele>214</ele>
        <time>2011-05-27T12:47:26Z</time>
      </trkpt>
      <trkpt lat="49.70254" lon="4.64806">
        <ele>213</ele>
        <time>2011-05-27T12:47:27Z</time>
      </trkpt>
      <trkpt lat="49.70254" lon="4.64796">
        <ele>212</ele>
        <time>2011-05-27T12:47:28Z</time>
      </trkpt>
      <trkpt lat="49.70253" lon="4.64786">
        <ele>211</ele>
        <time>2011-05-27T12:47:29Z</time>
      </trkpt>
      <trkpt lat="49.70252" lon="4.64775">
        <ele>210</ele>
        <time>2011-05-27T12:47:30Z</time>
      </trkpt>
      <trkpt lat="49.70251" lon="4.64763">
        <ele>209</ele>
        <time>2011-05-27T12:47:31Z</time>
      </trkpt>
      <trkpt lat="49.7025" lon="4.64751">
        <ele>208</ele>
        <time>2011-05-27T12:47:32Z</time>
      </trkpt>
      <trkpt lat="49.70248" lon="4.64739">
        <ele>207</ele>
        <time>2011-05-27T12:47:33Z</time>
      </trkpt>
      <trkpt lat="49.70247" lon="4.64726">
        <ele>206</ele>
        <time>2011-05-27T12:47:34Z</time>
      </trkpt>
      <trkpt lat="49.70246" lon="4.64714">
        <ele>206</ele>
        <time>2011-05-27T12:47:35Z</time>
      </trkpt>
      <trkpt lat="49.70244" lon="4.64703">
        <ele>206</ele>
        <time>2011-05-27T12:47:36Z</time>
      </trkpt>
      <trkpt lat="49.70242" lon="4.64692">
        <ele>205</ele>
        <time>2011-05-27T12:47:37Z</time>
      </trkpt>
      <trkpt lat="49.70241" lon="4.64682">
        <ele>205</ele>
        <time>2011-05-27T12:47:38Z</time>
      </trkpt>
      <trkpt lat="49.70239" lon="4.64674">
        <ele>205</ele>
        <time>2011-05-27T12:47:39Z</time>
      </trkpt>
      <trkpt lat="49.70236" lon="4.64666">
        <ele>205</ele>
        <time>2011-05-27T12:47:40Z</time>
      </trkpt>
      <trkpt lat="49.70235" lon="4.6466">
        <ele>205</ele>
        <time>2011-05-27T12:47:41Z</time>
      </trkpt>
      <trkpt lat="49.70233" lon="4.64655">
        <ele>205</ele>
        <time>2011-05-27T12:47:42Z</time>
      </trkpt>
      <trkpt lat="49.70231" lon="4.64651">
        <ele>205</ele>
        <time>2011-05-27T12:47:43Z</time>
      </trkpt>
      <trkpt lat="49.70229" lon="4.64648">
        <ele>205</ele>
        <time>2011-05-27T12:47:44Z</time>
      </trkpt>
      <trkpt lat="49.70229" lon="4.64645">
        <ele>205</ele>
        <time>2011-05-27T12:47:45Z</time>
      </trkpt>
      <trkpt lat="49.70228" lon="4.64642">
        <ele>205</ele>
        <time>2011-05-27T12:47:46Z</time>
      </trkpt>
      <trkpt lat="49.70227" lon="4.6464">
        <ele>205</ele>
        <time>2011-05-27T12:47:47Z</time>
      </trkpt>
      <trkpt lat="49.70227" lon="4.64638">
        <ele>205</ele>
        <time>2011-05-27T12:47:48Z</time>
      </trkpt>
      <trkpt lat="49.70226" lon="4.64636">
        <ele>205</ele>
        <time>2011-05-27T12:47:49Z</time>
      </trkpt>
      <trkpt lat="49.70225" lon="4.64634">
        <ele>205</ele>
        <time>2011-05-27T12:47:50Z</time>
      </trkpt>
      <trkpt lat="49.70224" lon="4.64632">
        <ele>205</ele>
        <time>2011-05-27T12:47:51Z</time>
      </trkpt>
      <trkpt lat="49.70223" lon="4.6463">
        <ele>205</ele>
        <time>2011-05-27T12:47:52Z</time>
      </trkpt>
      <trkpt lat="49.70222" lon="4.64627">
        <ele>205</ele>
        <time>2011-05-27T12:47:53Z</time>
      </trkpt>
      <trkpt lat="49.70222" lon="4.64625">
        <ele>205</ele>
        <time>2011-05-27T12:47:54Z</time>
      </trkpt>
      <trkpt lat="49.70221" lon="4.64624">
        <ele>205</ele>
        <time>2011-05-27T12:47:55Z</time>
      </trkpt>
      <trkpt lat="49.70221" lon="4.64622">
        <ele>205</ele>
        <time>2011-05-27T12:47:56Z</time>
      </trkpt>
      <trkpt lat="49.7022" lon="4.6462">
        <ele>205</ele>
        <time>2011-05-27T12:47:57Z</time>
      </trkpt>
      <trkpt lat="49.70219" lon="4.64617">
        <ele>205</ele>
        <time>2011-05-27T12:47:58Z</time>
      </trkpt>
      <trkpt lat="49.70219" lon="4.64615">
        <ele>205</ele>
        <time>2011-05-27T12:47:59Z</time>
      </trkpt>
      <trkpt lat="49.70219" lon="4.64613">
        <ele>205</ele>
        <time>2011-05-27T12:48:00Z</time>
      </trkpt>
      <trkpt lat="49.70219" lon="4.6461">
        <ele>205</ele>
        <time>2011-05-27T12:48:01Z</time>
      </trkpt>
      <trkpt lat="49.70218" lon="4.64607">
        <ele>206</ele>
        <time>2011-05-27T12:48:02Z</time>
      </trkpt>
      <trkpt lat="49.70218" lon="4.64605">
        <ele>206</ele>
        <time>2011-05-27T12:48:03Z</time>
      </trkpt>
      <trkpt lat="49.70218" lon="4.64603">
        <ele>206</ele>
        <time>2011-05-27T12:48:04Z</time>
      </trkpt>
      <trkpt lat="49.70218" lon="4.646">
        <ele>206</ele>
        <time>2011-05-27T12:48:05Z</time>
      </trkpt>
      <trkpt lat="49.70218" lon="4.64598">
        <ele>206</ele>
        <time>2011-05-27T12:48:06Z</time>
      </trkpt>
      <trkpt lat="49.70217" lon="4.64595">
        <ele>206</ele>
        <time>2011-05-27T12:48:07Z</time>
      </trkpt>
      <trkpt lat="49.70217" lon="4.64593">
        <ele>207</ele>
        <time>2011-05-27T12:48:08Z</time>
      </trkpt>
      <trkpt lat="49.70217" lon="4.64591">
        <ele>207</ele>
        <time>2011-05-27T12:48:09Z</time>
      </trkpt>
      <trkpt lat="49.70217" lon="4.64588">
        <ele>207</ele>
        <time>2011-05-27T12:48:10Z</time>
      </trkpt>
      <trkpt lat="49.70217" lon="4.64585">
        <ele>208</ele>
        <time>2011-05-27T12:48:11Z</time>
      </trkpt>
      <trkpt lat="49.70218" lon="4.64582">
        <ele>208</ele>
        <time>2011-05-27T12:48:12Z</time>
      </trkpt>
      <trkpt lat="49.70218" lon="4.64579">
        <ele>208</ele>
        <time>2011-05-27T12:48:13Z</time>
      </trkpt>
      <trkpt lat="49.70218" lon="4.64576">
        <ele>209</ele>
        <time>2011-05-27T12:48:14Z</time>
      </trkpt>
      <trkpt lat="49.70218" lon="4.64573">
        <ele>209</ele>
        <time>2011-05-27T12:48:15Z</time>
      </trkpt>
      <trkpt lat="49.70218" lon="4.6457">
        <ele>209</ele>
        <time>2011-05-27T12:48:16Z</time>
      </trkpt>
      <trkpt lat="49.70218" lon="4.64567">
        <ele>209</ele>
        <time>2011-05-27T12:48:17Z</time>
      </trkpt>
      <trkpt lat="49.70218" lon="4.64564">
        <ele>210</ele>
        <time>2011-05-27T12:48:18Z</time>
      </trkpt>
      <trkpt lat="49.70219" lon="4.64562">
        <ele>210</ele>
        <time>2011-05-27T12:48:19Z</time>
      </trkpt>
      <trkpt lat="49.70219" lon="4.64559">
        <ele>210</ele>
        <time>2011-05-27T12:48:20Z</time>
      </trkpt>
      <trkpt lat="49.70219" lon="4.64556">
        <ele>210</ele>
        <time>2011-05-27T12:48:21Z</time>
      </trkpt>
      <trkpt lat="49.7022" lon="4.64553">
        <ele>211</ele>
        <time>2011-05-27T12:48:22Z</time>
      </trkpt>
      <trkpt lat="49.7022" lon="4.6455">
        <ele>211</ele>
        <time>2011-05-27T12:48:23Z</time>
      </trkpt>
      <trkpt lat="49.70221" lon="4.64546">
        <ele>211</ele>
        <time>2011-05-27T12:48:24Z</time>
      </trkpt>
      <trkpt lat="49.70221" lon="4.64543">
        <ele>211</ele>
        <time>2011-05-27T12:48:25Z</time>
      </trkpt>
      <trkpt lat="49.70221" lon="4.6454">
        <ele>212</ele>
        <time>2011-05-27T12:48:26Z</time>
      </trkpt>
      <trkpt lat="49.70222" lon="4.64537">
        <ele>212</ele>
        <time>2011-05-27T12:48:27Z</time>
      </trkpt>
      <trkpt lat="49.70222" lon="4.64534">
        <ele>212</ele>
        <time>2011-05-27T12:48:28Z</time>
      </trkpt>
      <trkpt lat="49.70223" lon="4.64531">
        <ele>212</ele>
        <time>2011-05-27T12:48:29Z</time>
      </trkpt>
      <trkpt lat="49.70223" lon="4.64529">
        <ele>212</ele>
        <time>2011-05-27T12:48:30Z</time>
      </trkpt>
      <trkpt lat="49.70224" lon="4.64526">
        <ele>213</ele>
        <time>2011-05-27T12:48:31Z</time>
      </trkpt>
      <trkpt lat="49.70224" lon="4.64523">
        <ele>213</ele>
        <time>2011-05-27T12:48:32Z</time>
      </trkpt>
      <trkpt lat="49.70225" lon="4.64521">
        <ele>213</ele>
        <time>2011-05-27T12:48:33Z</time>
      </trkpt>
      <trkpt lat="49.70225" lon="4.64519">
        <ele>213</ele>
        <time>2011-05-27T12:48:34Z</time>
      </trkpt>
      <trkpt lat="49.70226" lon="4.64516">
        <ele>214</ele>
        <time>2011-05-27T12:48:35Z</time>
      </trkpt>
      <trkpt lat="49.70226" lon="4.64513">
        <ele>214</ele>
        <time>2011-05-27T12:48:36Z</time>
      </trkpt>
      <trkpt lat="49.70226" lon="4.6451">
        <ele>214</ele>
        <time>2011-05-27T12:48:37Z</time>
      </trkpt>
      <trkpt lat="49.70227" lon="4.64508">
        <ele>214</ele>
        <time>2011-05-27T12:48:38Z</time>
      </trkpt>
      <trkpt lat="49.70227" lon="4.64505">
        <ele>214</ele>
        <time>2011-05-27T12:48:39Z</time>
      </trkpt>
      <trkpt lat="49.70227" lon="4.64502">
        <ele>215</ele>
        <time>2011-05-27T12:48:40Z</time>
      </trkpt>
      <trkpt lat="49.70228" lon="4.64499">
        <ele>215</ele>
        <time>2011-05-27T12:48:41Z</time>
      </trkpt>
      <trkpt lat="49.70228" lon="4.64496">
        <ele>215</ele>
        <time>2011-05-27T12:48:42Z</time>
      </trkpt>
      <trkpt lat="49.70229" lon="4.64494">
        <ele>215</ele>
        <time>2011-05-27T12:48:43Z</time>
      </trkpt>
      <trkpt lat="49.70229" lon="4.64491">
        <ele>216</ele>
        <time>2011-05-27T12:48:44Z</time>
      </trkpt>
      <trkpt lat="49.70229" lon="4.64488">
        <ele>216</ele>
        <time>2011-05-27T12:48:45Z</time>
      </trkpt>
      <trkpt lat="49.70229" lon="4.64485">
        <ele>216</ele>
        <time>2011-05-27T12:48:46Z</time>
      </trkpt>
      <trkpt lat="49.7023" lon="4.64482">
        <ele>216</ele>
        <time>2011-05-27T12:48:47Z</time>
      </trkpt>
      <trkpt lat="49.7023" lon="4.6448">
        <ele>216</ele>
        <time>2011-05-27T12:48:48Z</time>
      </trkpt>
      <trkpt lat="49.70231" lon="4.64477">
        <ele>216</ele>
        <time>2011-05-27T12:48:49Z</time>
      </trkpt>
      <trkpt lat="49.70231" lon="4.64474">
        <ele>216</ele>
        <time>2011-05-27T12:48:50Z</time>
      </trkpt>
      <trkpt lat="49.70232" lon="4.64471">
        <ele>217</ele>
        <time>2011-05-27T12:48:51Z</time>
      </trkpt>
      <trkpt lat="49.70232" lon="4.64468">
        <ele>217</ele>
        <time>2011-05-27T12:48:52Z</time>
      </trkpt>
      <trkpt lat="49.70232" lon="4.64466">
        <ele>217</ele>
        <time>2011-05-27T12:48:53Z</time>
      </trkpt>
      <trkpt lat="49.70233" lon="4.64463">
        <ele>217</ele>
        <time>2011-05-27T12:48:54Z</time>
      </trkpt>
      <trkpt lat="49.70233" lon="4.6446">
        <ele>217</ele>
        <time>2011-05-27T12:48:55Z</time>
      </trkpt>
      <trkpt lat="49.70233" lon="4.64457">
        <ele>218</ele>
        <time>2011-05-27T12:48:56Z</time>
      </trkpt>
      <trkpt lat="49.70234" lon="4.64454">
        <ele>218</ele>
        <time>2011-05-27T12:48:57Z</time>
      </trkpt>
      <trkpt lat="49.70234" lon="4.64451">
        <ele>218</ele>
        <time>2011-05-27T12:48:58Z</time>
      </trkpt>
      <trkpt lat="49.70234" lon="4.64448">
        <ele>218</ele>
        <time>2011-05-27T12:48:59Z</time>
      </trkpt>
      <trkpt lat="49.70235" lon="4.64446">
        <ele>219</ele>
        <time>2011-05-27T12:49:00Z</time>
      </trkpt>
      <trkpt lat="49.70235" lon="4.64443">
        <ele>219</ele>
        <time>2011-05-27T12:49:01Z</time>
      </trkpt>
      <trkpt lat="49.70236" lon="4.6444">
        <ele>219</ele>
        <time>2011-05-27T12:49:02Z</time>
      </trkpt>
      <trkpt lat="49.70236" lon="4.64438">
        <ele>220</ele>
        <time>2011-05-27T12:49:03Z</time>
      </trkpt>
      <trkpt lat="49.70237" lon="4.64435">
        <ele>220</ele>
        <time>2011-05-27T12:49:04Z</time>
      </trkpt>
      <trkpt lat="49.70237" lon="4.64432">
        <ele>220</ele>
        <time>2011-05-27T12:49:05Z</time>
      </trkpt>
      <trkpt lat="49.70238" lon="4.6443">
        <ele>221</ele>
        <time>2011-05-27T12:49:06Z</time>
      </trkpt>
      <trkpt lat="49.70239" lon="4.64428">
        <ele>221</ele>
        <time>2011-05-27T12:49:07Z</time>
      </trkpt>
      <trkpt lat="49.7024" lon="4.64427">
        <ele>221</ele>
        <time>2011-05-27T12:49:08Z</time>
      </trkpt>
      <trkpt lat="49.70242" lon="4.64427">
        <ele>221</ele>
        <time>2011-05-27T12:49:09Z</time>
      </trkpt>
      <trkpt lat="49.70244" lon="4.64427">
        <ele>222</ele>
        <time>2011-05-27T12:49:10Z</time>
      </trkpt>
      <trkpt lat="49.70246" lon="4.64427">
        <ele>222</ele>
        <time>2011-05-27T12:49:11Z</time>
      </trkpt>
      <trkpt lat="49.70248" lon="4.64426">
        <ele>222</ele>
        <time>2011-05-27T12:49:12Z</time>
      </trkpt>
      <trkpt lat="49.7025" lon="4.64426">
        <ele>222</ele>
        <time>2011-05-27T12:49:13Z</time>
      </trkpt>
      <trkpt lat="49.70253" lon="4.64427">
        <ele>222</ele>
        <time>2011-05-27T12:49:14Z</time>
      </trkpt>
      <trkpt lat="49.70257" lon="4.64427">
        <ele>222</ele>
        <time>2011-05-27T12:49:15Z</time>
      </trkpt>
      <trkpt lat="49.7026" lon="4.64427">
        <ele>222</ele>
        <time>2011-05-27T12:49:16Z</time>
      </trkpt>
      <trkpt lat="49.70264" lon="4.64427">
        <ele>222</ele>
        <time>2011-05-27T12:49:17Z</time>
      </trkpt>
      <trkpt lat="49.70268" lon="4.64427">
        <ele>222</ele>
        <time>2011-05-27T12:49:18Z</time>
      </trkpt>
      <trkpt lat="49.70272" lon="4.64427">
        <ele>222</ele>
        <time>2011-05-27T12:49:19Z</time>
      </trkpt>
      <trkpt lat="49.70277" lon="4.64427">
        <ele>222</ele>
        <time>2011-05-27T12:49:20Z</time>
      </trkpt>
      <trkpt lat="49.70282" lon="4.64428">
        <ele>222</ele>
        <time>2011-05-27T12:49:21Z</time>
      </trkpt>
      <trkpt lat="49.70287" lon="4.64427">
        <ele>222</ele>
        <time>2011-05-27T12:49:22Z</time>
      </trkpt>
      <trkpt lat="49.70293" lon="4.64427">
        <ele>222</ele>
        <time>2011-05-27T12:49:23Z</time>
      </trkpt>
      <trkpt lat="49.70299" lon="4.64427">
        <ele>222</ele>
        <time>2011-05-27T12:49:24Z</time>
      </trkpt>
      <trkpt lat="49.70305" lon="4.64427">
        <ele>222</ele>
        <time>2011-05-27T12:49:25Z</time>
      </trkpt>
      <trkpt lat="49.70312" lon="4.64427">
        <ele>222</ele>
        <time>2011-05-27T12:49:26Z</time>
      </trkpt>
      <trkpt lat="49.70319" lon="4.64426">
        <ele>222</ele>
        <time>2011-05-27T12:49:27Z</time>
      </trkpt>
      <trkpt lat="49.70326" lon="4.64426">
        <ele>222</ele>
        <time>2011-05-27T12:49:28Z</time>
      </trkpt>
      <trkpt lat="49.70333" lon="4.64425">
        <ele>222</ele>
        <time>2011-05-27T12:49:29Z</time>
      </trkpt>
      <trkpt lat="49.70341" lon="4.64425">
        <ele>222</ele>
        <time>2011-05-27T12:49:30Z</time>
      </trkpt>
      <trkpt lat="49.70348" lon="4.64425">
        <ele>222</ele>
        <time>2011-05-27T12:49:31Z</time>
      </trkpt>
      <trkpt lat="49.70355" lon="4.64425">
        <ele>222</ele>
        <time>2011-05-27T12:49:32Z</time>
      </trkpt>
      <trkpt lat="49.70361" lon="4.64425">
        <ele>222</ele>
        <time>2011-05-27T12:49:33Z</time>
      </trkpt>
      <trkpt lat="49.70367" lon="4.64425">
        <ele>222</ele>
        <time>2011-05-27T12:49:34Z</time>
      </trkpt>
      <trkpt lat="49.70372" lon="4.64426">
        <ele>222</ele>
        <time>2011-05-27T12:49:35Z</time>
      </trkpt>
      <trkpt lat="49.70377" lon="4.64427">
        <ele>222</ele>
        <time>2011-05-27T12:49:36Z</time>
      </trkpt>
      <trkpt lat="49.7038" lon="4.64427">
        <ele>222</ele>
        <time>2011-05-27T12:49:37Z</time>
      </trkpt>
      <trkpt lat="49.70383" lon="4.64427">
        <ele>222</ele>
        <time>2011-05-27T12:49:38Z</time>
      </trkpt>
      <trkpt lat="49.70386" lon="4.64428">
        <ele>222</ele>
        <time>2011-05-27T12:49:39Z</time>
      </trkpt>
      <trkpt lat="49.70389" lon="4.64428">
        <ele>222</ele>
        <time>2011-05-27T12:49:40Z</time>
      </trkpt>
      <trkpt lat="49.70392" lon="4.64429">
        <ele>222</ele>
        <time>2011-05-27T12:49:41Z</time>
      </trkpt>
      <trkpt lat="49.70396" lon="4.64429">
        <ele>222</ele>
        <time>2011-05-27T12:49:42Z</time>
      </trkpt>
      <trkpt lat="49.70399" lon="4.6443">
        <ele>222</ele>
        <time>2011-05-27T12:49:43Z</time>
      </trkpt>
      <trkpt lat="49.70402" lon="4.64431">
        <ele>222</ele>
        <time>2011-05-27T12:49:44Z</time>
      </trkpt>
      <trkpt lat="49.70406" lon="4.64431">
        <ele>222</ele>
        <time>2011-05-27T12:49:45Z</time>
      </trkpt>
      <trkpt lat="49.70409" lon="4.64431">
        <ele>222</ele>
        <time>2011-05-27T12:49:46Z</time>
      </trkpt>
      <trkpt lat="49.70412" lon="4.64432">
        <ele>222</ele>
        <time>2011-05-27T12:49:47Z</time>
      </trkpt>
      <trkpt lat="49.70415" lon="4.64432">
        <ele>222</ele>
        <time>2011-05-27T12:49:48Z</time>
      </trkpt>
      <trkpt lat="49.70418" lon="4.64432">
        <ele>222</ele>
        <time>2011-05-27T12:49:49Z</time>
      </trkpt>
      <trkpt lat="49.70421" lon="4.64433">
        <ele>222</ele>
        <time>2011-05-27T12:49:50Z</time>
      </trkpt>
      <trkpt lat="49.70425" lon="4.64434">
        <ele>222</ele>
        <time>2011-05-27T12:49:51Z</time>
      </trkpt>
      <trkpt lat="49.70428" lon="4.64434">
        <ele>222</ele>
        <time>2011-05-27T12:49:52Z</time>
      </trkpt>
      <trkpt lat="49.70431" lon="4.64435">
        <ele>222</ele>
        <time>2011-05-27T12:49:53Z</time>
      </trkpt>
      <trkpt lat="49.70434" lon="4.64435">
        <ele>222</ele>
        <time>2011-05-27T12:49:54Z</time>
      </trkpt>
      <trkpt lat="49.70438" lon="4.64436">
        <ele>222</ele>
        <time>2011-05-27T12:49:55Z</time>
      </trkpt>
      <trkpt lat="49.70441" lon="4.64437">
        <ele>222</ele>
        <time>2011-05-27T12:49:56Z</time>
      </trkpt>
      <trkpt lat="49.70444" lon="4.64438">
        <ele>222</ele>
        <time>2011-05-27T12:49:57Z</time>
      </trkpt>
      <trkpt lat="49.70447" lon="4.64439">
        <ele>222</ele>
        <time>2011-05-27T12:49:58Z</time>
      </trkpt>
      <trkpt lat="49.7045" lon="4.6444">
        <ele>222</ele>
        <time>2011-05-27T12:49:59Z</time>
      </trkpt>
      <trkpt lat="49.70454" lon="4.6444">
        <ele>222</ele>
        <time>2011-05-27T12:50:00Z</time>
      </trkpt>
      <trkpt lat="49.70457" lon="4.6444">
        <ele>222</ele>
        <time>2011-05-27T12:50:01Z</time>
      </trkpt>
      <trkpt lat="49.7046" lon="4.64441">
        <ele>222</ele>
        <time>2011-05-27T12:50:02Z</time>
      </trkpt>
      <trkpt lat="49.70463" lon="4.64442">
        <ele>222</ele>
        <time>2011-05-27T12:50:03Z</time>
      </trkpt>
      <trkpt lat="49.70467" lon="4.64443">
        <ele>223</ele>
        <time>2011-05-27T12:50:04Z</time>
      </trkpt>
      <trkpt lat="49.7047" lon="4.64444">
        <ele>223</ele>
        <time>2011-05-27T12:50:05Z</time>
      </trkpt>
      <trkpt lat="49.70473" lon="4.64445">
        <ele>223</ele>
        <time>2011-05-27T12:50:06Z</time>
      </trkpt>
      <trkpt lat="49.70476" lon="4.64446">
        <ele>223</ele>
        <time>2011-05-27T12:50:07Z</time>
      </trkpt>
      <trkpt lat="49.70479" lon="4.64447">
        <ele>223</ele>
        <time>2011-05-27T12:50:08Z</time>
      </trkpt>
      <trkpt lat="49.70483" lon="4.64447">
        <ele>223</ele>
        <time>2011-05-27T12:50:09Z</time>
      </trkpt>
      <trkpt lat="49.70486" lon="4.64448">
        <ele>224</ele>
        <time>2011-05-27T12:50:10Z</time>
      </trkpt>
      <trkpt lat="49.70489" lon="4.64449">
        <ele>224</ele>
        <time>2011-05-27T12:50:11Z</time>
      </trkpt>
      <trkpt lat="49.70492" lon="4.6445">
        <ele>224</ele>
        <time>2011-05-27T12:50:12Z</time>
      </trkpt>
      <trkpt lat="49.70496" lon="4.64451">
        <ele>224</ele>
        <time>2011-05-27T12:50:13Z</time>
      </trkpt>
      <trkpt lat="49.70499" lon="4.64452">
        <ele>224</ele>
        <time>2011-05-27T12:50:14Z</time>
      </trkpt>
      <trkpt lat="49.70502" lon="4.64453">
        <ele>224</ele>
        <time>2011-05-27T12:50:15Z</time>
      </trkpt>
      <trkpt lat="49.70505" lon="4.64454">
        <ele>224</ele>
        <time>2011-05-27T12:50:16Z</time>
      </trkpt>
      <trkpt lat="49.70509" lon="4.64454">
        <ele>225</ele>
        <time>2011-05-27T12:50:17Z</time>
      </trkpt>
      <trkpt lat="49.70512" lon="4.64455">
        <ele>225</ele>
        <time>2011-05-27T12:50:18Z</time>
      </trkpt>
      <trkpt lat="49.70515" lon="4.64456">
        <ele>225</ele>
        <time>2011-05-27T12:50:19Z</time>
      </trkpt>
      <trkpt lat="49.70518" lon="4.64457">
        <ele>225</ele>
        <time>2011-05-27T12:50:20Z</time>
      </trkpt>
      <trkpt lat="49.70521" lon="4.64458">
        <ele>225</ele>
        <time>2011-05-27T12:50:21Z</time>
      </trkpt>
      <trkpt lat="49.70525" lon="4.64459">
        <ele>225</ele>
        <time>2011-05-27T12:50:22Z</time>
      </trkpt>
      <trkpt lat="49.70528" lon="4.64459">
        <ele>225</ele>
        <time>2011-05-27T12:50:23Z</time>
      </trkpt>
      <trkpt lat="49.70531" lon="4.6446">
        <ele>225</ele>
        <time>2011-05-27T12:50:24Z</time>
      </trkpt>
      <trkpt lat="49.70534" lon="4.64461">
        <ele>225</ele>
        <time>2011-05-27T12:50:25Z</time>
      </trkpt>
      <trkpt lat="49.70537" lon="4.64461">
        <ele>226</ele>
        <time>2011-05-27T12:50:26Z</time>
      </trkpt>
      <trkpt lat="49.70541" lon="4.64461">
        <ele>226</ele>
        <time>2011-05-27T12:50:27Z</time>
      </trkpt>
      <trkpt lat="49.70544" lon="4.64462">
        <ele>226</ele>
        <time>2011-05-27T12:50:28Z</time>
      </trkpt>
      <trkpt lat="49.70547" lon="4.64462">
        <ele>226</ele>
        <time>2011-05-27T12:50:29Z</time>
      </trkpt>
      <trkpt lat="49.7055" lon="4.64462">
        <ele>226</ele>
        <time>2011-05-27T12:50:30Z</time>
      </trkpt>
      <trkpt lat="49.70553" lon="4.64462">
        <ele>226</ele>
        <time>2011-05-27T12:50:31Z</time>
      </trkpt>
      <trkpt lat="49.70556" lon="4.64462">
        <ele>226</ele>
        <time>2011-05-27T12:50:32Z</time>
      </trkpt>
      <trkpt lat="49.70559" lon="4.64462">
        <ele>227</ele>
        <time>2011-05-27T12:50:33Z</time>
      </trkpt>
      <trkpt lat="49.70562" lon="4.64462">
        <ele>227</ele>
        <time>2011-05-27T12:50:34Z</time>
      </trkpt>
      <trkpt lat="49.70565" lon="4.64461">
        <ele>227</ele>
        <time>2011-05-27T12:50:35Z</time>
      </trkpt>
      <trkpt lat="49.70568" lon="4.6446">
        <ele>227</ele>
        <time>2011-05-27T12:50:36Z</time>
      </trkpt>
      <trkpt lat="49.70571" lon="4.64459">
        <ele>227</ele>
        <time>2011-05-27T12:50:37Z</time>
      </trkpt>
      <trkpt lat="49.70574" lon="4.64458">
        <ele>227</ele>
        <time>2011-05-27T12:50:38Z</time>
      </trkpt>
      <trkpt lat="49.70577" lon="4.64456">
        <ele>227</ele>
        <time>2011-05-27T12:50:39Z</time>
      </trkpt>
      <trkpt lat="49.70579" lon="4.64454">
        <ele>228</ele>
        <time>2011-05-27T12:50:40Z</time>
      </trkpt>
      <trkpt lat="49.70582" lon="4.64452">
        <ele>228</ele>
        <time>2011-05-27T12:50:41Z</time>
      </trkpt>
      <trkpt lat="49.70584" lon="4.6445">
        <ele>228</ele>
        <time>2011-05-27T12:50:42Z</time>
      </trkpt>
      <trkpt lat="49.70587" lon="4.64448">
        <ele>228</ele>
        <time>2011-05-27T12:50:43Z</time>
      </trkpt>
      <trkpt lat="49.70589" lon="4.64446">
        <ele>228</ele>
        <time>2011-05-27T12:50:44Z</time>
      </trkpt>
      <trkpt lat="49.70591" lon="4.64443">
        <ele>228</ele>
        <time>2011-05-27T12:50:45Z</time>
      </trkpt>
      <trkpt lat="49.70593" lon="4.64439">
        <ele>228</ele>
        <time>2011-05-27T12:50:46Z</time>
      </trkpt>
      <trkpt lat="49.70595" lon="4.64436">
        <ele>228</ele>
        <time>2011-05-27T12:50:47Z</time>
      </trkpt>
      <trkpt lat="49.70596" lon="4.64433">
        <ele>228</ele>
        <time>2011-05-27T12:50:48Z</time>
      </trkpt>
      <trkpt lat="49.70598" lon="4.64429">
        <ele>228</ele>
        <time>2011-05-27T12:50:49Z</time>
      </trkpt>
      <trkpt lat="49.70599" lon="4.64425">
        <ele>228</ele>
        <time>2011-05-27T12:50:50Z</time>
      </trkpt>
      <trkpt lat="49.706" lon="4.64421">
        <ele>228</ele>
        <time>2011-05-27T12:50:51Z</time>
      </trkpt>
      <trkpt lat="49.70602" lon="4.64417">
        <ele>228</ele>
        <time>2011-05-27T12:50:52Z</time>
      </trkpt>
      <trkpt lat="49.70603" lon="4.64412">
        <ele>228</ele>
        <time>2011-05-27T12:50:53Z</time>
      </trkpt>
      <trkpt lat="49.70605" lon="4.64408">
        <ele>228</ele>
        <time>2011-05-27T12:50:54Z</time>
      </trkpt>
      <trkpt lat="49.70606" lon="4.64403">
        <ele>228</ele>
        <time>2011-05-27T12:50:55Z</time>
      </trkpt>
      <trkpt lat="49.70607" lon="4.64398">
        <ele>228</ele>
        <time>2011-05-27T12:50:56Z</time>
      </trkpt>
      <trkpt lat="49.70609" lon="4.64393">
        <ele>228</ele>
        <time>2011-05-27T12:50:57Z</time>
      </trkpt>
      <trkpt lat="49.7061" lon="4.64389">
        <ele>228</ele>
        <time>2011-05-27T12:50:58Z</time>
      </trkpt>
      <trkpt lat="49.70611" lon="4.64384">
        <ele>228</ele>
        <time>2011-05-27T12:50:59Z</time>
      </trkpt>
      <trkpt lat="49.70613" lon="4.64379">
        <ele>228</ele>
        <time>2011-05-27T12:51:00Z</time>
      </trkpt>
      <trkpt lat="49.70614" lon="4.64374">
        <ele>228</ele>
        <time>2011-05-27T12:51:01Z</time>
      </trkpt>
      <trkpt lat="49.70615" lon="4.6437">
        <ele>228</ele>
        <time>2011-05-27T12:51:02Z</time>
      </trkpt>
      <trkpt lat="49.70616" lon="4.64365">
        <ele>228</ele>
        <time>2011-05-27T12:51:03Z</time>
      </trkpt>
      <trkpt lat="49.70618" lon="4.6436">
        <ele>228</ele>
        <time>2011-05-27T12:51:04Z</time>
      </trkpt>
      <trkpt lat="49.70619" lon="4.64356">
        <ele>228</ele>
        <time>2011-05-27T12:51:05Z</time>
      </trkpt>
      <trkpt lat="49.7062" lon="4.64351">
        <ele>228</ele>
        <time>2011-05-27T12:51:06Z</time>
      </trkpt>
      <trkpt lat="49.70621" lon="4.64346">
        <ele>228</ele>
        <time>2011-05-27T12:51:07Z</time>
      </trkpt>
      <trkpt lat="49.70623" lon="4.64341">
        <ele>228</ele>
        <time>2011-05-27T12:51:08Z</time>
      </trkpt>
      <trkpt lat="49.70624" lon="4.64336">
        <ele>228</ele>
        <time>2011-05-27T12:51:09Z</time>
      </trkpt>
      <trkpt lat="49.70626" lon="4.64331">
        <ele>229</ele>
        <time>2011-05-27T12:51:10Z</time>
      </trkpt>
      <trkpt lat="49.70627" lon="4.64326">
        <ele>229</ele>
        <time>2011-05-27T12:51:11Z</time>
      </trkpt>
      <trkpt lat="49.70628" lon="4.64321">
        <ele>229</ele>
        <time>2011-05-27T12:51:12Z</time>
      </trkpt>
      <trkpt lat="49.7063" lon="4.64316">
        <ele>229</ele>
        <time>2011-05-27T12:51:13Z</time>
      </trkpt>
      <trkpt lat="49.70631" lon="4.64311">
        <ele>229</ele>
        <time>2011-05-27T12:51:14Z</time>
      </trkpt>
      <trkpt lat="49.70633" lon="4.64305">
        <ele>229</ele>
        <time>2011-05-27T12:51:15Z</time>
      </trkpt>
      <trkpt lat="49.70634" lon="4.643">
        <ele>229</ele>
        <time>2011-05-27T12:51:16Z</time>
      </trkpt>
      <trkpt lat="49.70636" lon="4.64295">
        <ele>229</ele>
        <time>2011-05-27T12:51:17Z</time>
      </trkpt>
      <trkpt lat="49.70637" lon="4.64289">
        <ele>229</ele>
        <time>2011-05-27T12:51:18Z</time>
      </trkpt>
      <trkpt lat="49.70639" lon="4.64284">
        <ele>229</ele>
        <time>2011-05-27T12:51:19Z</time>
      </trkpt>
      <trkpt lat="49.7064" lon="4.64278">
        <ele>229</ele>
        <time>2011-05-27T12:51:20Z</time>
      </trkpt>
      <trkpt lat="49.70642" lon="4.64273">
        <ele>229</ele>
        <time>2011-05-27T12:51:21Z</time>
      </trkpt>
      <trkpt lat="49.70644" lon="4.64267">
        <ele>229</ele>
        <time>2011-05-27T12:51:22Z</time>
      </trkpt>
      <trkpt lat="49.70645" lon="4.64261">
        <ele>229</ele>
        <time>2011-05-27T12:51:23Z</time>
      </trkpt>
      <trkpt lat="49.70647" lon="4.64255">
        <ele>229</ele>
        <time>2011-05-27T12:51:24Z</time>
      </trkpt>
      <trkpt lat="49.70649" lon="4.64249">
        <ele>229</ele>
        <time>2011-05-27T12:51:25Z</time>
      </trkpt>
      <trkpt lat="49.7065" lon="4.64243">
        <ele>229</ele>
        <time>2011-05-27T12:51:26Z</time>
      </trkpt>
      <trkpt lat="49.70652" lon="4.64236">
        <ele>229</ele>
        <time>2011-05-27T12:51:27Z</time>
      </trkpt>
      <trkpt lat="49.70654" lon="4.64229">
        <ele>229</ele>
        <time>2011-05-27T12:51:28Z</time>
      </trkpt>
      <trkpt lat="49.70656" lon="4.64222">
        <ele>229</ele>
        <time>2011-05-27T12:51:29Z</time>
      </trkpt>
      <trkpt lat="49.70658" lon="4.64215">
        <ele>229</ele>
        <time>2011-05-27T12:51:30Z</time>
      </trkpt>
      <trkpt lat="49.7066" lon="4.64207">
        <ele>229</ele>
        <time>2011-05-27T12:51:31Z</time>
      </trkpt>
      <trkpt lat="49.70662" lon="4.642">
        <ele>229</ele>
        <time>2011-05-27T12:51:32Z</time>
      </trkpt>
      <trkpt lat="49.70664" lon="4.64193">
        <ele>229</ele>
        <time>2011-05-27T12:51:33Z</time>
      </trkpt>
      <trkpt lat="49.70666" lon="4.64185">
        <ele>229</ele>
        <time>2011-05-27T12:51:34Z</time>
      </trkpt>
      <trkpt lat="49.70668" lon="4.64178">
        <ele>229</ele>
        <time>2011-05-27T12:51:35Z</time>
      </trkpt>
      <trkpt lat="49.70669" lon="4.64171">
        <ele>229</ele>
        <time>2011-05-27T12:51:36Z</time>
      </trkpt>
      <trkpt lat="49.70671" lon="4.64164">
        <ele>229</ele>
        <time>2011-05-27T12:51:37Z</time>
      </trkpt>
      <trkpt lat="49.70673" lon="4.64156">
        <ele>229</ele>
        <time>2011-05-27T12:51:38Z</time>
      </trkpt>
      <trkpt lat="49.70674" lon="4.64149">
        <ele>229</ele>
        <time>2011-05-27T12:51:39Z</time>
      </trkpt>
      <trkpt lat="49.70676" lon="4.64142">
        <ele>229</ele>
        <time>2011-05-27T12:51:40Z</time>
      </trkpt>
      <trkpt lat="49.70677" lon="4.64134">
        <ele>229</ele>
        <time>2011-05-27T12:51:41Z</time>
      </trkpt>
      <trkpt lat="49.70679" lon="4.64126">
        <ele>229</ele>
        <time>2011-05-27T12:51:42Z</time>
      </trkpt>
      <trkpt lat="49.70681" lon="4.64118">
        <ele>229</ele>
        <time>2011-05-27T12:51:43Z</time>
      </trkpt>
      <trkpt lat="49.70683" lon="4.64111">
        <ele>229</ele>
        <time>2011-05-27T12:51:44Z</time>
      </trkpt>
      <trkpt lat="49.70685" lon="4.64104">
        <ele>229</ele>
        <time>2011-05-27T12:51:45Z</time>
      </trkpt>
      <trkpt lat="49.70687" lon="4.64097">
        <ele>229</ele>
        <time>2011-05-27T12:51:46Z</time>
      </trkpt>
      <trkpt lat="49.70689" lon="4.64091">
        <ele>229</ele>
        <time>2011-05-27T12:51:47Z</time>
      </trkpt>
      <trkpt lat="49.70691" lon="4.64085">
        <ele>229</ele>
        <time>2011-05-27T12:51:48Z</time>
      </trkpt>
      <trkpt lat="49.70694" lon="4.6408">
        <ele>229</ele>
        <time>2011-05-27T12:51:49Z</time>
      </trkpt>
      <trkpt lat="49.70696" lon="4.64074">
        <ele>229</ele>
        <time>2011-05-27T12:51:50Z</time>
      </trkpt>
      <trkpt lat="49.70699" lon="4.64069">
        <ele>229</ele>
        <time>2011-05-27T12:51:51Z</time>
      </trkpt>
      <trkpt lat="49.70702" lon="4.64065">
        <ele>229</ele>
        <time>2011-05-27T12:51:52Z</time>
      </trkpt>
      <trkpt lat="49.70705" lon="4.6406">
        <ele>229</ele>
        <time>2011-05-27T12:51:53Z</time>
      </trkpt>
      <trkpt lat="49.70709" lon="4.64057">
        <ele>229</ele>
        <time>2011-05-27T12:51:54Z</time>
      </trkpt>
      <trkpt lat="49.70712" lon="4.64053">
        <ele>229</ele>
        <time>2011-05-27T12:51:55Z</time>
      </trkpt>
      <trkpt lat="49.70716" lon="4.64051">
        <ele>229</ele>
        <time>2011-05-27T12:51:56Z</time>
      </trkpt>
      <trkpt lat="49.7072" lon="4.64049">
        <ele>229</ele>
        <time>2011-05-27T12:51:57Z</time>
      </trkpt>
      <trkpt lat="49.70724" lon="4.64047">
        <ele>229</ele>
        <time>2011-05-27T12:51:58Z</time>
      </trkpt>
      <trkpt lat="49.70729" lon="4.64047">
        <ele>229</ele>
        <time>2011-05-27T12:51:59Z</time>
      </trkpt>
      <trkpt lat="49.70732" lon="4.64048">
        <ele>229</ele>
        <time>2011-05-27T12:52:00Z</time>
      </trkpt>
      <trkpt lat="49.70737" lon="4.64049">
        <ele>229</ele>
        <time>2011-05-27T12:52:01Z</time>
      </trkpt>
      <trkpt lat="49.70741" lon="4.64051">
        <ele>229</ele>
        <time>2011-05-27T12:52:02Z</time>
      </trkpt>
      <trkpt lat="49.70745" lon="4.64053">
        <ele>229</ele>
        <time>2011-05-27T12:52:03Z</time>
      </trkpt>
      <trkpt lat="49.70749" lon="4.64055">
        <ele>229</ele>
        <time>2011-05-27T12:52:04Z</time>
      </trkpt>
      <trkpt lat="49.70752" lon="4.64057">
        <ele>229</ele>
        <time>2011-05-27T12:52:05Z</time>
      </trkpt>
      <trkpt lat="49.70756" lon="4.6406">
        <ele>229</ele>
        <time>2011-05-27T12:52:06Z</time>
      </trkpt>
      <trkpt lat="49.70759" lon="4.64062">
        <ele>229</ele>
        <time>2011-05-27T12:52:07Z</time>
      </trkpt>
      <trkpt lat="49.70762" lon="4.64064">
        <ele>229</ele>
        <time>2011-05-27T12:52:08Z</time>
      </trkpt>
      <trkpt lat="49.70766" lon="4.64066">
        <ele>230</ele>
        <time>2011-05-27T12:52:09Z</time>
      </trkpt>
      <trkpt lat="49.70769" lon="4.64068">
        <ele>230</ele>
        <time>2011-05-27T12:52:10Z</time>
      </trkpt>
      <trkpt lat="49.70772" lon="4.6407">
        <ele>230</ele>
        <time>2011-05-27T12:52:11Z</time>
      </trkpt>
      <trkpt lat="49.70775" lon="4.64072">
        <ele>231</ele>
        <time>2011-05-27T12:52:12Z</time>
      </trkpt>
      <trkpt lat="49.70779" lon="4.64073">
        <ele>231</ele>
        <time>2011-05-27T12:52:13Z</time>
      </trkpt>
      <trkpt lat="49.70782" lon="4.64074">
        <ele>231</ele>
        <time>2011-05-27T12:52:14Z</time>
      </trkpt>
      <trkpt lat="49.70785" lon="4.64075">
        <ele>232</ele>
        <time>2011-05-27T12:52:15Z</time>
      </trkpt>
      <trkpt lat="49.70788" lon="4.64076">
        <ele>232</ele>
        <time>2011-05-27T12:52:16Z</time>
      </trkpt>
      <trkpt lat="49.70792" lon="4.64076">
        <ele>232</ele>
        <time>2011-05-27T12:52:17Z</time>
      </trkpt>
      <trkpt lat="49.70795" lon="4.64076">
        <ele>232</ele>
        <time>2011-05-27T12:52:18Z</time>
      </trkpt>
      <trkpt lat="49.70798" lon="4.64076">
        <ele>233</ele>
        <time>2011-05-27T12:52:19Z</time>
      </trkpt>
      <trkpt lat="49.70801" lon="4.64075">
        <ele>233</ele>
        <time>2011-05-27T12:52:20Z</time>
      </trkpt>
      <trkpt lat="49.70804" lon="4.64075">
        <ele>233</ele>
        <time>2011-05-27T12:52:21Z</time>
      </trkpt>
      <trkpt lat="49.70807" lon="4.64074">
        <ele>233</ele>
        <time>2011-05-27T12:52:22Z</time>
      </trkpt>
      <trkpt lat="49.7081" lon="4.64073">
        <ele>233</ele>
        <time>2011-05-27T12:52:23Z</time>
      </trkpt>
      <trkpt lat="49.70813" lon="4.64072">
        <ele>233</ele>
        <time>2011-05-27T12:52:24Z</time>
      </trkpt>
      <trkpt lat="49.70816" lon="4.64071">
        <ele>234</ele>
        <time>2011-05-27T12:52:25Z</time>
      </trkpt>
      <trkpt lat="49.70819" lon="4.6407">
        <ele>234</ele>
        <time>2011-05-27T12:52:26Z</time>
      </trkpt>
      <trkpt lat="49.70822" lon="4.64068">
        <ele>234</ele>
        <time>2011-05-27T12:52:27Z</time>
      </trkpt>
      <trkpt lat="49.70825" lon="4.64067">
        <ele>234</ele>
        <time>2011-05-27T12:52:28Z</time>
      </trkpt>
      <trkpt lat="49.70828" lon="4.64066">
        <ele>234</ele>
        <time>2011-05-27T12:52:29Z</time>
      </trkpt>
      <trkpt lat="49.70831" lon="4.64064">
        <ele>234</ele>
        <time>2011-05-27T12:52:30Z</time>
      </trkpt>
      <trkpt lat="49.70834" lon="4.64063">
        <ele>234</ele>
        <time>2011-05-27T12:52:31Z</time>
      </trkpt>
      <trkpt lat="49.70837" lon="4.64061">
        <ele>234</ele>
        <time>2011-05-27T12:52:32Z</time>
      </trkpt>
      <trkpt lat="49.7084" lon="4.6406">
        <ele>234</ele>
        <time>2011-05-27T12:52:33Z</time>
      </trkpt>
      <trkpt lat="49.70844" lon="4.64058">
        <ele>234</ele>
        <time>2011-05-27T12:52:34Z</time>
      </trkpt>
      <trkpt lat="49.70847" lon="4.64056">
        <ele>234</ele>
        <time>2011-05-27T12:52:35Z</time>
      </trkpt>
      <trkpt lat="49.7085" lon="4.64055">
        <ele>234</ele>
        <time>2011-05-27T12:52:36Z</time>
      </trkpt>
      <trkpt lat="49.70853" lon="4.64053">
        <ele>234</ele>
        <time>2011-05-27T12:52:37Z</time>
      </trkpt>
      <trkpt lat="49.70856" lon="4.6405">
        <ele>234</ele>
        <time>2011-05-27T12:52:38Z</time>
      </trkpt>
      <trkpt lat="49.7086" lon="4.64048">
        <ele>234</ele>
        <time>2011-05-27T12:52:39Z</time>
      </trkpt>
      <trkpt lat="49.70863" lon="4.64046">
        <ele>234</ele>
        <time>2011-05-27T12:52:40Z</time>
      </trkpt>
      <trkpt lat="49.70866" lon="4.64044">
        <ele>234</ele>
        <time>2011-05-27T12:52:41Z</time>
      </trkpt>
      <trkpt lat="49.7087" lon="4.64042">
        <ele>234</ele>
        <time>2011-05-27T12:52:42Z</time>
      </trkpt>
      <trkpt lat="49.70873" lon="4.6404">
        <ele>234</ele>
        <time>2011-05-27T12:52:43Z</time>
      </trkpt>
      <trkpt lat="49.70877" lon="4.64037">
        <ele>234</ele>
        <time>2011-05-27T12:52:44Z</time>
      </trkpt>
      <trkpt lat="49.70881" lon="4.64035">
        <ele>234</ele>
        <time>2011-05-27T12:52:45Z</time>
      </trkpt>
      <trkpt lat="49.70884" lon="4.64032">
        <ele>234</ele>
        <time>2011-05-27T12:52:46Z</time>
      </trkpt>
      <trkpt lat="49.70887" lon="4.6403">
        <ele>234</ele>
        <time>2011-05-27T12:52:47Z</time>
      </trkpt>
      <trkpt lat="49.70891" lon="4.64026">
        <ele>234</ele>
        <time>2011-05-27T12:52:48Z</time>
      </trkpt>
      <trkpt lat="49.70894" lon="4.64023">
        <ele>234</ele>
        <time>2011-05-27T12:52:49Z</time>
      </trkpt>
      <trkpt lat="49.70897" lon="4.64019">
        <ele>234</ele>
        <time>2011-05-27T12:52:50Z</time>
      </trkpt>
      <trkpt lat="49.70899" lon="4.64014">
        <ele>234</ele>
        <time>2011-05-27T12:52:51Z</time>
      </trkpt>
      <trkpt lat="49.70901" lon="4.6401">
        <ele>234</ele>
        <time>2011-05-27T12:52:52Z</time>
      </trkpt>
      <trkpt lat="49.70903" lon="4.64006">
        <ele>234</ele>
        <time>2011-05-27T12:52:53Z</time>
      </trkpt>
      <trkpt lat="49.70906" lon="4.64003">
        <ele>234</ele>
        <time>2011-05-27T12:52:54Z</time>
      </trkpt>
      <trkpt lat="49.70908" lon="4.63999">
        <ele>234</ele>
        <time>2011-05-27T12:52:55Z</time>
      </trkpt>
      <trkpt lat="49.70909" lon="4.63995">
        <ele>234</ele>
        <time>2011-05-27T12:52:56Z</time>
      </trkpt>
      <trkpt lat="49.70911" lon="4.63991">
        <ele>234</ele>
        <time>2011-05-27T12:52:57Z</time>
      </trkpt>
      <trkpt lat="49.70914" lon="4.63987">
        <ele>234</ele>
        <time>2011-05-27T12:52:58Z</time>
      </trkpt>
      <trkpt lat="49.70916" lon="4.63984">
        <ele>234</ele>
        <time>2011-05-27T12:52:59Z</time>
      </trkpt>
      <trkpt lat="49.70918" lon="4.6398">
        <ele>234</ele>
        <time>2011-05-27T12:53:00Z</time>
      </trkpt>
      <trkpt lat="49.7092" lon="4.63977">
        <ele>234</ele>
        <time>2011-05-27T12:53:01Z</time>
      </trkpt>
      <trkpt lat="49.70922" lon="4.63973">
        <ele>234</ele>
        <time>2011-05-27T12:53:02Z</time>
      </trkpt>
      <trkpt lat="49.70925" lon="4.63969">
        <ele>234</ele>
        <time>2011-05-27T12:53:03Z</time>
      </trkpt>
      <trkpt lat="49.70927" lon="4.63966">
        <ele>234</ele>
        <time>2011-05-27T12:53:04Z</time>
      </trkpt>
      <trkpt lat="49.7093" lon="4.63962">
        <ele>234</ele>
        <time>2011-05-27T12:53:05Z</time>
      </trkpt>
      <trkpt lat="49.70933" lon="4.63958">
        <ele>234</ele>
        <time>2011-05-27T12:53:06Z</time>
      </trkpt>
      <trkpt lat="49.70935" lon="4.63955">
        <ele>234</ele>
        <time>2011-05-27T12:53:07Z</time>
      </trkpt>
      <trkpt lat="49.70937" lon="4.63951">
        <ele>234</ele>
        <time>2011-05-27T12:53:08Z</time>
      </trkpt>
      <trkpt lat="49.7094" lon="4.63947">
        <ele>234</ele>
        <time>2011-05-27T12:53:09Z</time>
      </trkpt>
      <trkpt lat="49.70942" lon="4.63943">
        <ele>234</ele>
        <time>2011-05-27T12:53:10Z</time>
      </trkpt>
      <trkpt lat="49.70943" lon="4.63939">
        <ele>234</ele>
        <time>2011-05-27T12:53:11Z</time>
      </trkpt>
      <trkpt lat="49.70946" lon="4.63935">
        <ele>235</ele>
        <time>2011-05-27T12:53:12Z</time>
      </trkpt>
      <trkpt lat="49.70948" lon="4.63931">
        <ele>235</ele>
        <time>2011-05-27T12:53:13Z</time>
      </trkpt>
      <trkpt lat="49.7095" lon="4.63927">
        <ele>235</ele>
        <time>2011-05-27T12:53:14Z</time>
      </trkpt>
      <trkpt lat="49.70953" lon="4.63923">
        <ele>235</ele>
        <time>2011-05-27T12:53:15Z</time>
      </trkpt>
      <trkpt lat="49.70955" lon="4.63919">
        <ele>235</ele>
        <time>2011-05-27T12:53:16Z</time>
      </trkpt>
      <trkpt lat="49.70958" lon="4.63914">
        <ele>235</ele>
        <time>2011-05-27T12:53:17Z</time>
      </trkpt>
      <trkpt lat="49.70961" lon="4.6391">
        <ele>235</ele>
        <time>2011-05-27T12:53:18Z</time>
      </trkpt>
      <trkpt lat="49.70964" lon="4.63906">
        <ele>235</ele>
        <time>2011-05-27T12:53:19Z</time>
      </trkpt>
      <trkpt lat="49.70968" lon="4.63902">
        <ele>235</ele>
        <time>2011-05-27T12:53:20Z</time>
      </trkpt>
      <trkpt lat="49.70971" lon="4.63898">
        <ele>235</ele>
        <time>2011-05-27T12:53:21Z</time>
      </trkpt>
      <trkpt lat="49.70975" lon="4.63894">
        <ele>235</ele>
        <time>2011-05-27T12:53:22Z</time>
      </trkpt>
      <trkpt lat="49.70979" lon="4.63889">
        <ele>235</ele>
        <time>2011-05-27T12:53:23Z</time>
      </trkpt>
      <trkpt lat="49.70983" lon="4.63884">
        <ele>235</ele>
        <time>2011-05-27T12:53:24Z</time>
      </trkpt>
      <trkpt lat="49.70987" lon="4.6388">
        <ele>235</ele>
        <time>2011-05-27T12:53:25Z</time>
      </trkpt>
      <trkpt lat="49.70992" lon="4.63876">
        <ele>235</ele>
        <time>2011-05-27T12:53:26Z</time>
      </trkpt>
      <trkpt lat="49.70998" lon="4.63872">
        <ele>235</ele>
        <time>2011-05-27T12:53:27Z</time>
      </trkpt>
      <trkpt lat="49.71003" lon="4.6387">
        <ele>235</ele>
        <time>2011-05-27T12:53:28Z</time>
      </trkpt>
      <trkpt lat="49.71008" lon="4.63868">
        <ele>235</ele>
        <time>2011-05-27T12:53:29Z</time>
      </trkpt>
      <trkpt lat="49.71012" lon="4.63866">
        <ele>235</ele>
        <time>2011-05-27T12:53:30Z</time>
      </trkpt>
      <trkpt lat="49.71017" lon="4.63865">
        <ele>235</ele>
        <time>2011-05-27T12:53:31Z</time>
      </trkpt>
      <trkpt lat="49.7102" lon="4.63862">
        <ele>235</ele>
        <time>2011-05-27T12:53:32Z</time>
      </trkpt>
      <trkpt lat="49.71022" lon="4.63856">
        <ele>235</ele>
        <time>2011-05-27T12:53:33Z</time>
      </trkpt>
      <trkpt lat="49.71023" lon="4.63849">
        <ele>235</ele>
        <time>2011-05-27T12:53:34Z</time>
      </trkpt>
      <trkpt lat="49.71023" lon="4.63842">
        <ele>235</ele>
        <time>2011-05-27T12:53:35Z</time>
      </trkpt>
      <trkpt lat="49.71024" lon="4.63835">
        <ele>235</ele>
        <time>2011-05-27T12:53:36Z</time>
      </trkpt>
      <trkpt lat="49.71024" lon="4.63828">
        <ele>235</ele>
        <time>2011-05-27T12:53:37Z</time>
      </trkpt>
      <trkpt lat="49.71024" lon="4.63821">
        <ele>235</ele>
        <time>2011-05-27T12:53:38Z</time>
      </trkpt>
      <trkpt lat="49.71025" lon="4.63813">
        <ele>235</ele>
        <time>2011-05-27T12:53:39Z</time>
      </trkpt>
      <trkpt lat="49.71025" lon="4.63807">
        <ele>235</ele>
        <time>2011-05-27T12:53:40Z</time>
      </trkpt>
      <trkpt lat="49.71024" lon="4.63801">
        <ele>235</ele>
        <time>2011-05-27T12:53:41Z</time>
      </trkpt>
      <trkpt lat="49.71023" lon="4.63795">
        <ele>235</ele>
        <time>2011-05-27T12:53:42Z</time>
      </trkpt>
      <trkpt lat="49.71021" lon="4.63791">
        <ele>235</ele>
        <time>2011-05-27T12:53:43Z</time>
      </trkpt>
      <trkpt lat="49.71018" lon="4.63788">
        <ele>235</ele>
        <time>2011-05-27T12:53:44Z</time>
      </trkpt>
      <trkpt lat="49.71014" lon="4.63787">
        <ele>235</ele>
        <time>2011-05-27T12:53:45Z</time>
      </trkpt>
      <trkpt lat="49.7101" lon="4.63787">
        <ele>235</ele>
        <time>2011-05-27T12:53:46Z</time>
      </trkpt>
      <trkpt lat="49.71006" lon="4.63787">
        <ele>235</ele>
        <time>2011-05-27T12:53:47Z</time>
      </trkpt>
      <trkpt lat="49.71002" lon="4.63786">
        <ele>235</ele>
        <time>2011-05-27T12:53:48Z</time>
      </trkpt>
      <trkpt lat="49.70998" lon="4.63786">
        <ele>235</ele>
        <time>2011-05-27T12:53:49Z</time>
      </trkpt>
      <trkpt lat="49.70995" lon="4.63787">
        <ele>235</ele>
        <time>2011-05-27T12:53:50Z</time>
      </trkpt>
      <trkpt lat="49.70991" lon="4.63787">
        <ele>235</ele>
        <time>2011-05-27T12:53:51Z</time>
      </trkpt>
      <trkpt lat="49.70988" lon="4.63787">
        <ele>235</ele>
        <time>2011-05-27T12:53:52Z</time>
      </trkpt>
      <trkpt lat="49.70984" lon="4.63787">
        <ele>235</ele>
        <time>2011-05-27T12:53:53Z</time>
      </trkpt>
      <trkpt lat="49.70981" lon="4.63787">
        <ele>235</ele>
        <time>2011-05-27T12:53:54Z</time>
      </trkpt>
      <trkpt lat="49.70978" lon="4.63787">
        <ele>235</ele>
        <time>2011-05-27T12:53:55Z</time>
      </trkpt>
      <trkpt lat="49.70975" lon="4.63786">
        <ele>235</ele>
        <time>2011-05-27T12:53:56Z</time>
      </trkpt>
      <trkpt lat="49.70972" lon="4.63786">
        <ele>235</ele>
        <time>2011-05-27T12:53:57Z</time>
      </trkpt>
      <trkpt lat="49.7097" lon="4.63786">
        <ele>235</ele>
        <time>2011-05-27T12:53:58Z</time>
      </trkpt>
      <trkpt lat="49.70968" lon="4.63785">
        <ele>235</ele>
        <time>2011-05-27T12:53:59Z</time>
      </trkpt>
      <trkpt lat="49.70966" lon="4.63785">
        <ele>235</ele>
        <time>2011-05-27T12:54:00Z</time>
      </trkpt>
      <trkpt lat="49.70963" lon="4.63784">
        <ele>235</ele>
        <time>2011-05-27T12:54:01Z</time>
      </trkpt>
      <trkpt lat="49.70961" lon="4.63784">
        <ele>236</ele>
        <time>2011-05-27T12:54:02Z</time>
      </trkpt>
      <trkpt lat="49.70959" lon="4.63783">
        <ele>236</ele>
        <time>2011-05-27T12:54:03Z</time>
      </trkpt>
      <trkpt lat="49.70957" lon="4.63783">
        <ele>236</ele>
        <time>2011-05-27T12:54:04Z</time>
      </trkpt>
      <trkpt lat="49.70955" lon="4.63783">
        <ele>237</ele>
        <time>2011-05-27T12:54:05Z</time>
      </trkpt>
      <trkpt lat="49.70953" lon="4.63782">
        <ele>237</ele>
        <time>2011-05-27T12:54:06Z</time>
      </trkpt>
      <trkpt lat="49.70951" lon="4.63781">
        <ele>237</ele>
        <time>2011-05-27T12:54:07Z</time>
      </trkpt>
      <trkpt lat="49.70949" lon="4.63781">
        <ele>238</ele>
        <time>2011-05-27T12:54:08Z</time>
      </trkpt>
      <trkpt lat="49.70947" lon="4.6378">
        <ele>238</ele>
        <time>2011-05-27T12:54:09Z</time>
      </trkpt>
      <trkpt lat="49.70945" lon="4.6378">
        <ele>238</ele>
        <time>2011-05-27T12:54:10Z</time>
      </trkpt>
      <trkpt lat="49.70943" lon="4.63779">
        <ele>239</ele>
        <time>2011-05-27T12:54:11Z</time>
      </trkpt>
      <trkpt lat="49.70942" lon="4.63779">
        <ele>239</ele>
        <time>2011-05-27T12:54:12Z</time>
      </trkpt>
      <trkpt lat="49.7094" lon="4.63779">
        <ele>239</ele>
        <time>2011-05-27T12:54:13Z</time>
      </trkpt>
      <trkpt lat="49.70938" lon="4.63779">
        <ele>239</ele>
        <time>2011-05-27T12:54:14Z</time>
      </trkpt>
      <trkpt lat="49.70937" lon="4.63779">
        <ele>239</ele>
        <time>2011-05-27T12:54:15Z</time>
      </trkpt>
      <trkpt lat="49.70935" lon="4.63779">
        <ele>240</ele>
        <time>2011-05-27T12:54:16Z</time>
      </trkpt>
      <trkpt lat="49.70934" lon="4.63778">
        <ele>240</ele>
        <time>2011-05-27T12:54:17Z</time>
      </trkpt>
      <trkpt lat="49.70932" lon="4.63778">
        <ele>240</ele>
        <time>2011-05-27T12:54:18Z</time>
      </trkpt>
      <trkpt lat="49.7093" lon="4.63778">
        <ele>240</ele>
        <time>2011-05-27T12:54:19Z</time>
      </trkpt>
      <trkpt lat="49.70929" lon="4.63778">
        <ele>241</ele>
        <time>2011-05-27T12:54:20Z</time>
      </trkpt>
      <trkpt lat="49.70927" lon="4.63778">
        <ele>241</ele>
        <time>2011-05-27T12:54:21Z</time>
      </trkpt>
      <trkpt lat="49.70925" lon="4.63777">
        <ele>241</ele>
        <time>2011-05-27T12:54:22Z</time>
      </trkpt>
      <trkpt lat="49.70923" lon="4.63776">
        <ele>242</ele>
        <time>2011-05-27T12:54:23Z</time>
      </trkpt>
      <trkpt lat="49.70921" lon="4.63776">
        <ele>242</ele>
        <time>2011-05-27T12:54:24Z</time>
      </trkpt>
      <trkpt lat="49.70919" lon="4.63775">
        <ele>242</ele>
        <time>2011-05-27T12:54:25Z</time>
      </trkpt>
      <trkpt lat="49.70918" lon="4.63775">
        <ele>242</ele>
        <time>2011-05-27T12:54:26Z</time>
      </trkpt>
      <trkpt lat="49.70916" lon="4.63774">
        <ele>243</ele>
        <time>2011-05-27T12:54:27Z</time>
      </trkpt>
      <trkpt lat="49.70915" lon="4.63774">
        <ele>243</ele>
        <time>2011-05-27T12:54:28Z</time>
      </trkpt>
      <trkpt lat="49.70914" lon="4.63773">
        <ele>243</ele>
        <time>2011-05-27T12:54:29Z</time>
      </trkpt>
      <trkpt lat="49.70913" lon="4.63772">
        <ele>243</ele>
        <time>2011-05-27T12:54:30Z</time>
      </trkpt>
      <trkpt lat="49.70911" lon="4.63771">
        <ele>244</ele>
        <time>2011-05-27T12:54:31Z</time>
      </trkpt>
      <trkpt lat="49.7091" lon="4.6377">
        <ele>244</ele>
        <time>2011-05-27T12:54:32Z</time>
      </trkpt>
      <trkpt lat="49.70909" lon="4.63769">
        <ele>244</ele>
        <time>2011-05-27T12:54:33Z</time>
      </trkpt>
      <trkpt lat="49.70907" lon="4.63769">
        <ele>245</ele>
        <time>2011-05-27T12:54:34Z</time>
      </trkpt>
      <trkpt lat="49.70906" lon="4.63768">
        <ele>245</ele>
        <time>2011-05-27T12:54:35Z</time>
      </trkpt>
      <trkpt lat="49.70905" lon="4.63767">
        <ele>246</ele>
        <time>2011-05-27T12:54:36Z</time>
      </trkpt>
      <trkpt lat="49.70902" lon="4.63764">
        <ele>246</ele>
        <time>2011-05-27T12:54:38Z</time>
      </trkpt>
      <trkpt lat="49.709" lon="4.63762">
        <ele>247</ele>
        <time>2011-05-27T12:54:40Z</time>
      </trkpt>
      <trkpt lat="49.70899" lon="4.6376">
        <ele>247</ele>
        <time>2011-05-27T12:54:42Z</time>
      </trkpt>
      <trkpt lat="49.70898" lon="4.63759">
        <ele>248</ele>
        <time>2011-05-27T12:54:44Z</time>
      </trkpt>
      <trkpt lat="49.70896" lon="4.63757">
        <ele>248</ele>
        <time>2011-05-27T12:54:49Z</time>
      </trkpt>
      <trkpt lat="49.70896" lon="4.63756">
        <ele>249</ele>
        <time>2011-05-27T12:54:51Z</time>
      </trkpt>
      <trkpt lat="49.70895" lon="4.63753">
        <ele>250</ele>
        <time>2011-05-27T12:54:54Z</time>
      </trkpt>
      <trkpt lat="49.70893" lon="4.63753">
        <ele>251</ele>
        <time>2011-05-27T12:54:57Z</time>
      </trkpt>
      <trkpt lat="49.70891" lon="4.63754">
        <ele>252</ele>
        <time>2011-05-27T12:54:59Z</time>
      </trkpt>
      <trkpt lat="49.7089" lon="4.63755">
        <ele>252</ele>
        <time>2011-05-27T12:55:01Z</time>
      </trkpt>
      <trkpt lat="49.70889" lon="4.63756">
        <ele>253</ele>
        <time>2011-05-27T12:55:03Z</time>
      </trkpt>
      <trkpt lat="49.70887" lon="4.63756">
        <ele>253</ele>
        <time>2011-05-27T12:55:05Z</time>
      </trkpt>
      <trkpt lat="49.70886" lon="4.63754">
        <ele>254</ele>
        <time>2011-05-27T12:55:08Z</time>
      </trkpt>
      <trkpt lat="49.70886" lon="4.63753">
        <ele>254</ele>
        <time>2011-05-27T12:55:09Z</time>
      </trkpt>
      <trkpt lat="49.70886" lon="4.63751">
        <ele>254</ele>
        <time>2011-05-27T12:55:10Z</time>
      </trkpt>
      <trkpt lat="49.70886" lon="4.63749">
        <ele>254</ele>
        <time>2011-05-27T12:55:35Z</time>
      </trkpt>
      <trkpt lat="49.70887" lon="4.63747">
        <ele>254</ele>
        <time>2011-05-27T12:55:41Z</time>
      </trkpt>
      <trkpt lat="49.70886" lon="4.63745">
        <ele>254</ele>
        <time>2011-05-27T12:55:50Z</time>
      </trkpt>
      <trkpt lat="49.70887" lon="4.63746">
        <ele>254</ele>
        <time>2011-05-27T12:56:39Z</time>
      </trkpt>
      <trkpt lat="49.70886" lon="4.63746">
        <ele>254</ele>
        <time>2011-05-27T12:57:04Z</time>
      </trkpt>
      <trkpt lat="49.70885" lon="4.63747">
        <ele>254</ele>
        <time>2011-05-27T12:57:12Z</time>
      </trkpt>
      <trkpt lat="49.70884" lon="4.63746">
        <ele>254</ele>
        <time>2011-05-27T12:57:23Z</time>
      </trkpt>
      <trkpt lat="49.70885" lon="4.63747">
        <ele>254</ele>
        <time>2011-05-27T12:57:39Z</time>
      </trkpt>
      <trkpt lat="49.70884" lon="4.63747">
        <ele>254</ele>
        <time>2011-05-27T12:57:56Z</time>
      </trkpt>
      <trkpt lat="49.70883" lon="4.63748">
        <ele>254</ele>
        <time>2011-05-27T12:57:58Z</time>
      </trkpt>
      <trkpt lat="49.70881" lon="4.63747">
        <ele>254</ele>
        <time>2011-05-27T12:58:17Z</time>
      </trkpt>
      <trkpt lat="49.7088" lon="4.63745">
        <ele>254</ele>
        <time>2011-05-27T12:58:18Z</time>
      </trkpt>
      <trkpt lat="49.70879" lon="4.63744">
        <ele>254</ele>
        <time>2011-05-27T12:58:19Z</time>
      </trkpt>
      <trkpt lat="49.70879" lon="4.6374">
        <ele>254</ele>
        <time>2011-05-27T12:58:21Z</time>
      </trkpt>
      <trkpt lat="49.70878" lon="4.63738">
        <ele>254</ele>
        <time>2011-05-27T12:58:22Z</time>
      </trkpt>
      <trkpt lat="49.70876" lon="4.63736">
        <ele>254</ele>
        <time>2011-05-27T12:58:24Z</time>
      </trkpt>
      <trkpt lat="49.70875" lon="4.63734">
        <ele>254</ele>
        <time>2011-05-27T12:58:25Z</time>
      </trkpt>
      <trkpt lat="49.70874" lon="4.63732">
        <ele>254</ele>
        <time>2011-05-27T12:58:26Z</time>
      </trkpt>
      <trkpt lat="49.70873" lon="4.6373">
        <ele>254</ele>
        <time>2011-05-27T12:58:27Z</time>
      </trkpt>
      <trkpt lat="49.70872" lon="4.63728">
        <ele>254</ele>
        <time>2011-05-27T12:58:28Z</time>
      </trkpt>
      <trkpt lat="49.70871" lon="4.63726">
        <ele>254</ele>
        <time>2011-05-27T12:58:29Z</time>
      </trkpt>
      <trkpt lat="49.70871" lon="4.63724">
        <ele>254</ele>
        <time>2011-05-27T12:58:30Z</time>
      </trkpt>
      <trkpt lat="49.70869" lon="4.63721">
        <ele>254</ele>
        <time>2011-05-27T12:58:31Z</time>
      </trkpt>
      <trkpt lat="49.70868" lon="4.63719">
        <ele>254</ele>
        <time>2011-05-27T12:58:32Z</time>
      </trkpt>
      <trkpt lat="49.70867" lon="4.63717">
        <ele>254</ele>
        <time>2011-05-27T12:58:33Z</time>
      </trkpt>
      <trkpt lat="49.70865" lon="4.63715">
        <ele>254</ele>
        <time>2011-05-27T12:58:34Z</time>
      </trkpt>
      <trkpt lat="49.70864" lon="4.63712">
        <ele>254</ele>
        <time>2011-05-27T12:58:35Z</time>
      </trkpt>
      <trkpt lat="49.70863" lon="4.63709">
        <ele>254</ele>
        <time>2011-05-27T12:58:36Z</time>
      </trkpt>
      <trkpt lat="49.70863" lon="4.63705">
        <ele>254</ele>
        <time>2011-05-27T12:58:37Z</time>
      </trkpt>
      <trkpt lat="49.70862" lon="4.63702">
        <ele>255</ele>
        <time>2011-05-27T12:58:38Z</time>
      </trkpt>
      <trkpt lat="49.70861" lon="4.63699">
        <ele>255</ele>
        <time>2011-05-27T12:58:39Z</time>
      </trkpt>
      <trkpt lat="49.70859" lon="4.63697">
        <ele>255</ele>
        <time>2011-05-27T12:58:40Z</time>
      </trkpt>
      <trkpt lat="49.70858" lon="4.63694">
        <ele>256</ele>
        <time>2011-05-27T12:58:41Z</time>
      </trkpt>
      <trkpt lat="49.70857" lon="4.6369">
        <ele>256</ele>
        <time>2011-05-27T12:58:42Z</time>
      </trkpt>
      <trkpt lat="49.70856" lon="4.63687">
        <ele>256</ele>
        <time>2011-05-27T12:58:43Z</time>
      </trkpt>
      <trkpt lat="49.70855" lon="4.63683">
        <ele>257</ele>
        <time>2011-05-27T12:58:44Z</time>
      </trkpt>
      <trkpt lat="49.70855" lon="4.63679">
        <ele>257</ele>
        <time>2011-05-27T12:58:45Z</time>
      </trkpt>
      <trkpt lat="49.70854" lon="4.63675">
        <ele>257</ele>
        <time>2011-05-27T12:58:46Z</time>
      </trkpt>
      <trkpt lat="49.70853" lon="4.63672">
        <ele>258</ele>
        <time>2011-05-27T12:58:47Z</time>
      </trkpt>
      <trkpt lat="49.70852" lon="4.63669">
        <ele>258</ele>
        <time>2011-05-27T12:58:48Z</time>
      </trkpt>
      <trkpt lat="49.70851" lon="4.63665">
        <ele>258</ele>
        <time>2011-05-27T12:58:49Z</time>
      </trkpt>
      <trkpt lat="49.7085" lon="4.63661">
        <ele>259</ele>
        <time>2011-05-27T12:58:50Z</time>
      </trkpt>
      <trkpt lat="49.70849" lon="4.63658">
        <ele>259</ele>
        <time>2011-05-27T12:58:51Z</time>
      </trkpt>
      <trkpt lat="49.70848" lon="4.63654">
        <ele>259</ele>
        <time>2011-05-27T12:58:52Z</time>
      </trkpt>
      <trkpt lat="49.70847" lon="4.6365">
        <ele>260</ele>
        <time>2011-05-27T12:58:53Z</time>
      </trkpt>
      <trkpt lat="49.70847" lon="4.63647">
        <ele>260</ele>
        <time>2011-05-27T12:58:54Z</time>
      </trkpt>
      <trkpt lat="49.70846" lon="4.63643">
        <ele>260</ele>
        <time>2011-05-27T12:58:55Z</time>
      </trkpt>
      <trkpt lat="49.70845" lon="4.6364">
        <ele>260</ele>
        <time>2011-05-27T12:58:56Z</time>
      </trkpt>
      <trkpt lat="49.70844" lon="4.63636">
        <ele>261</ele>
        <time>2011-05-27T12:58:57Z</time>
      </trkpt>
      <trkpt lat="49.70843" lon="4.63633">
        <ele>261</ele>
        <time>2011-05-27T12:58:58Z</time>
      </trkpt>
      <trkpt lat="49.70842" lon="4.63629">
        <ele>261</ele>
        <time>2011-05-27T12:58:59Z</time>
      </trkpt>
      <trkpt lat="49.70841" lon="4.63625">
        <ele>261</ele>
        <time>2011-05-27T12:59:00Z</time>
      </trkpt>
      <trkpt lat="49.70841" lon="4.63622">
        <ele>262</ele>
        <time>2011-05-27T12:59:01Z</time>
      </trkpt>
      <trkpt lat="49.7084" lon="4.63618">
        <ele>262</ele>
        <time>2011-05-27T12:59:02Z</time>
      </trkpt>
      <trkpt lat="49.70839" lon="4.63615">
        <ele>262</ele>
        <time>2011-05-27T12:59:03Z</time>
      </trkpt>
      <trkpt lat="49.70838" lon="4.63612">
        <ele>262</ele>
        <time>2011-05-27T12:59:04Z</time>
      </trkpt>
      <trkpt lat="49.70837" lon="4.63608">
        <ele>262</ele>
        <time>2011-05-27T12:59:05Z</time>
      </trkpt>
      <trkpt lat="49.70836" lon="4.63605">
        <ele>263</ele>
        <time>2011-05-27T12:59:06Z</time>
      </trkpt>
      <trkpt lat="49.70836" lon="4.63601">
        <ele>263</ele>
        <time>2011-05-27T12:59:07Z</time>
      </trkpt>
      <trkpt lat="49.70835" lon="4.63598">
        <ele>263</ele>
        <time>2011-05-27T12:59:08Z</time>
      </trkpt>
      <trkpt lat="49.70834" lon="4.63594">
        <ele>263</ele>
        <time>2011-05-27T12:59:09Z</time>
      </trkpt>
      <trkpt lat="49.70834" lon="4.63591">
        <ele>263</ele>
        <time>2011-05-27T12:59:10Z</time>
      </trkpt>
      <trkpt lat="49.70833" lon="4.63587">
        <ele>264</ele>
        <time>2011-05-27T12:59:11Z</time>
      </trkpt>
      <trkpt lat="49.70832" lon="4.63584">
        <ele>264</ele>
        <time>2011-05-27T12:59:12Z</time>
      </trkpt>
      <trkpt lat="49.70832" lon="4.6358">
        <ele>264</ele>
        <time>2011-05-27T12:59:13Z</time>
      </trkpt>
      <trkpt lat="49.70831" lon="4.63577">
        <ele>264</ele>
        <time>2011-05-27T12:59:14Z</time>
      </trkpt>
      <trkpt lat="49.7083" lon="4.63573">
        <ele>264</ele>
        <time>2011-05-27T12:59:15Z</time>
      </trkpt>
      <trkpt lat="49.70829" lon="4.6357">
        <ele>265</ele>
        <time>2011-05-27T12:59:16Z</time>
      </trkpt>
      <trkpt lat="49.70829" lon="4.63566">
        <ele>265</ele>
        <time>2011-05-27T12:59:17Z</time>
      </trkpt>
      <trkpt lat="49.70828" lon="4.63563">
        <ele>265</ele>
        <time>2011-05-27T12:59:18Z</time>
      </trkpt>
      <trkpt lat="49.70828" lon="4.63559">
        <ele>265</ele>
        <time>2011-05-27T12:59:19Z</time>
      </trkpt>
      <trkpt lat="49.70827" lon="4.63555">
        <ele>265</ele>
        <time>2011-05-27T12:59:20Z</time>
      </trkpt>
      <trkpt lat="49.70826" lon="4.63552">
        <ele>266</ele>
        <time>2011-05-27T12:59:21Z</time>
      </trkpt>
      <trkpt lat="49.70826" lon="4.63548">
        <ele>266</ele>
        <time>2011-05-27T12:59:22Z</time>
      </trkpt>
      <trkpt lat="49.70825" lon="4.63545">
        <ele>266</ele>
        <time>2011-05-27T12:59:23Z</time>
      </trkpt>
      <trkpt lat="49.70824" lon="4.63541">
        <ele>266</ele>
        <time>2011-05-27T12:59:24Z</time>
      </trkpt>
      <trkpt lat="49.70823" lon="4.63538">
        <ele>267</ele>
        <time>2011-05-27T12:59:25Z</time>
      </trkpt>
      <trkpt lat="49.70822" lon="4.63534">
        <ele>267</ele>
        <time>2011-05-27T12:59:26Z</time>
      </trkpt>
      <trkpt lat="49.70822" lon="4.6353">
        <ele>267</ele>
        <time>2011-05-27T12:59:27Z</time>
      </trkpt>
      <trkpt lat="49.70821" lon="4.63527">
        <ele>267</ele>
        <time>2011-05-27T12:59:28Z</time>
      </trkpt>
      <trkpt lat="49.7082" lon="4.63523">
        <ele>267</ele>
        <time>2011-05-27T12:59:29Z</time>
      </trkpt>
      <trkpt lat="49.70819" lon="4.6352">
        <ele>267</ele>
        <time>2011-05-27T12:59:30Z</time>
      </trkpt>
      <trkpt lat="49.70818" lon="4.63517">
        <ele>267</ele>
        <time>2011-05-27T12:59:31Z</time>
      </trkpt>
      <trkpt lat="49.70818" lon="4.63513">
        <ele>268</ele>
        <time>2011-05-27T12:59:32Z</time>
      </trkpt>
      <trkpt lat="49.70817" lon="4.6351">
        <ele>268</ele>
        <time>2011-05-27T12:59:33Z</time>
      </trkpt>
      <trkpt lat="49.70816" lon="4.63506">
        <ele>268</ele>
        <time>2011-05-27T12:59:34Z</time>
      </trkpt>
      <trkpt lat="49.70815" lon="4.63502">
        <ele>268</ele>
        <time>2011-05-27T12:59:35Z</time>
      </trkpt>
      <trkpt lat="49.70814" lon="4.63499">
        <ele>268</ele>
        <time>2011-05-27T12:59:36Z</time>
      </trkpt>
      <trkpt lat="49.70813" lon="4.63495">
        <ele>268</ele>
        <time>2011-05-27T12:59:37Z</time>
      </trkpt>
      <trkpt lat="49.70813" lon="4.63492">
        <ele>269</ele>
        <time>2011-05-27T12:59:38Z</time>
      </trkpt>
      <trkpt lat="49.70812" lon="4.63488">
        <ele>269</ele>
        <time>2011-05-27T12:59:39Z</time>
      </trkpt>
      <trkpt lat="49.70811" lon="4.63485">
        <ele>269</ele>
        <time>2011-05-27T12:59:40Z</time>
      </trkpt>
      <trkpt lat="49.7081" lon="4.63481">
        <ele>269</ele>
        <time>2011-05-27T12:59:41Z</time>
      </trkpt>
      <trkpt lat="49.7081" lon="4.63478">
        <ele>269</ele>
        <time>2011-05-27T12:59:42Z</time>
      </trkpt>
      <trkpt lat="49.70809" lon="4.63475">
        <ele>270</ele>
        <time>2011-05-27T12:59:43Z</time>
      </trkpt>
      <trkpt lat="49.70808" lon="4.63472">
        <ele>270</ele>
        <time>2011-05-27T12:59:44Z</time>
      </trkpt>
      <trkpt lat="49.70807" lon="4.63469">
        <ele>270</ele>
        <time>2011-05-27T12:59:45Z</time>
      </trkpt>
      <trkpt lat="49.70806" lon="4.63465">
        <ele>270</ele>
        <time>2011-05-27T12:59:46Z</time>
      </trkpt>
      <trkpt lat="49.70805" lon="4.63462">
        <ele>270</ele>
        <time>2011-05-27T12:59:47Z</time>
      </trkpt>
      <trkpt lat="49.70805" lon="4.6346">
        <ele>271</ele>
        <time>2011-05-27T12:59:48Z</time>
      </trkpt>
      <trkpt lat="49.70804" lon="4.63457">
        <ele>271</ele>
        <time>2011-05-27T12:59:49Z</time>
      </trkpt>
      <trkpt lat="49.70803" lon="4.63454">
        <ele>271</ele>
        <time>2011-05-27T12:59:50Z</time>
      </trkpt>
      <trkpt lat="49.70802" lon="4.63452">
        <ele>271</ele>
        <time>2011-05-27T12:59:51Z</time>
      </trkpt>
      <trkpt lat="49.70801" lon="4.6345">
        <ele>271</ele>
        <time>2011-05-27T12:59:52Z</time>
      </trkpt>
      <trkpt lat="49.708" lon="4.63448">
        <ele>271</ele>
        <time>2011-05-27T12:59:53Z</time>
      </trkpt>
      <trkpt lat="49.70798" lon="4.63447">
        <ele>271</ele>
        <time>2011-05-27T12:59:54Z</time>
      </trkpt>
      <trkpt lat="49.70795" lon="4.63447">
        <ele>272</ele>
        <time>2011-05-27T12:59:55Z</time>
      </trkpt>
      <trkpt lat="49.70794" lon="4.63447">
        <ele>272</ele>
        <time>2011-05-27T12:59:56Z</time>
      </trkpt>
      <trkpt lat="49.70792" lon="4.63447">
        <ele>272</ele>
        <time>2011-05-27T12:59:57Z</time>
      </trkpt>
      <trkpt lat="49.7079" lon="4.63448">
        <ele>272</ele>
        <time>2011-05-27T12:59:58Z</time>
      </trkpt>
      <trkpt lat="49.70788" lon="4.6345">
        <ele>272</ele>
        <time>2011-05-27T12:59:59Z</time>
      </trkpt>
      <trkpt lat="49.70787" lon="4.63452">
        <ele>273</ele>
        <time>2011-05-27T13:00:00Z</time>
      </trkpt>
      <trkpt lat="49.70785" lon="4.63454">
        <ele>273</ele>
        <time>2011-05-27T13:00:01Z</time>
      </trkpt>
      <trkpt lat="49.70784" lon="4.63456">
        <ele>273</ele>
        <time>2011-05-27T13:00:02Z</time>
      </trkpt>
      <trkpt lat="49.70782" lon="4.63457">
        <ele>273</ele>
        <time>2011-05-27T13:00:03Z</time>
      </trkpt>
      <trkpt lat="49.70781" lon="4.63459">
        <ele>273</ele>
        <time>2011-05-27T13:00:04Z</time>
      </trkpt>
      <trkpt lat="49.70779" lon="4.63461">
        <ele>274</ele>
        <time>2011-05-27T13:00:05Z</time>
      </trkpt>
      <trkpt lat="49.70777" lon="4.63462">
        <ele>274</ele>
        <time>2011-05-27T13:00:06Z</time>
      </trkpt>
      <trkpt lat="49.70775" lon="4.63464">
        <ele>274</ele>
        <time>2011-05-27T13:00:07Z</time>
      </trkpt>
      <trkpt lat="49.70773" lon="4.63464">
        <ele>274</ele>
        <time>2011-05-27T13:00:08Z</time>
      </trkpt>
      <trkpt lat="49.70771" lon="4.63464">
        <ele>274</ele>
        <time>2011-05-27T13:00:09Z</time>
      </trkpt>
      <trkpt lat="49.70769" lon="4.63464">
        <ele>275</ele>
        <time>2011-05-27T13:00:10Z</time>
      </trkpt>
      <trkpt lat="49.70767" lon="4.63464">
        <ele>275</ele>
        <time>2011-05-27T13:00:11Z</time>
      </trkpt>
      <trkpt lat="49.70764" lon="4.63463">
        <ele>275</ele>
        <time>2011-05-27T13:00:12Z</time>
      </trkpt>
      <trkpt lat="49.70762" lon="4.63462">
        <ele>275</ele>
        <time>2011-05-27T13:00:13Z</time>
      </trkpt>
      <trkpt lat="49.7076" lon="4.6346">
        <ele>275</ele>
        <time>2011-05-27T13:00:14Z</time>
      </trkpt>
      <trkpt lat="49.70758" lon="4.63458">
        <ele>276</ele>
        <time>2011-05-27T13:00:15Z</time>
      </trkpt>
      <trkpt lat="49.70755" lon="4.63456">
        <ele>276</ele>
        <time>2011-05-27T13:00:16Z</time>
      </trkpt>
      <trkpt lat="49.70752" lon="4.63455">
        <ele>276</ele>
        <time>2011-05-27T13:00:17Z</time>
      </trkpt>
      <trkpt lat="49.7075" lon="4.63453">
        <ele>276</ele>
        <time>2011-05-27T13:00:18Z</time>
      </trkpt>
      <trkpt lat="49.70747" lon="4.63451">
        <ele>276</ele>
        <time>2011-05-27T13:00:19Z</time>
      </trkpt>
      <trkpt lat="49.70744" lon="4.63449">
        <ele>276</ele>
        <time>2011-05-27T13:00:20Z</time>
      </trkpt>
      <trkpt lat="49.70742" lon="4.63446">
        <ele>276</ele>
        <time>2011-05-27T13:00:21Z</time>
      </trkpt>
      <trkpt lat="49.70739" lon="4.63444">
        <ele>276</ele>
        <time>2011-05-27T13:00:22Z</time>
      </trkpt>
      <trkpt lat="49.70736" lon="4.63442">
        <ele>276</ele>
        <time>2011-05-27T13:00:23Z</time>
      </trkpt>
      <trkpt lat="49.70733" lon="4.6344">
        <ele>276</ele>
        <time>2011-05-27T13:00:24Z</time>
      </trkpt>
      <trkpt lat="49.7073" lon="4.63438">
        <ele>277</ele>
        <time>2011-05-27T13:00:25Z</time>
      </trkpt>
      <trkpt lat="49.70728" lon="4.63436">
        <ele>277</ele>
        <time>2011-05-27T13:00:26Z</time>
      </trkpt>
      <trkpt lat="49.70725" lon="4.63434">
        <ele>277</ele>
        <time>2011-05-27T13:00:27Z</time>
      </trkpt>
      <trkpt lat="49.70722" lon="4.63432">
        <ele>277</ele>
        <time>2011-05-27T13:00:28Z</time>
      </trkpt>
      <trkpt lat="49.70719" lon="4.63429">
        <ele>277</ele>
        <time>2011-05-27T13:00:29Z</time>
      </trkpt>
      <trkpt lat="49.70716" lon="4.63427">
        <ele>277</ele>
        <time>2011-05-27T13:00:30Z</time>
      </trkpt>
      <trkpt lat="49.70713" lon="4.63424">
        <ele>277</ele>
        <time>2011-05-27T13:00:31Z</time>
      </trkpt>
      <trkpt lat="49.7071" lon="4.63422">
        <ele>277</ele>
        <time>2011-05-27T13:00:32Z</time>
      </trkpt>
      <trkpt lat="49.70707" lon="4.6342">
        <ele>277</ele>
        <time>2011-05-27T13:00:33Z</time>
      </trkpt>
      <trkpt lat="49.70704" lon="4.63417">
        <ele>277</ele>
        <time>2011-05-27T13:00:34Z</time>
      </trkpt>
      <trkpt lat="49.707" lon="4.63415">
        <ele>278</ele>
        <time>2011-05-27T13:00:35Z</time>
      </trkpt>
      <trkpt lat="49.70697" lon="4.63412">
        <ele>278</ele>
        <time>2011-05-27T13:00:36Z</time>
      </trkpt>
      <trkpt lat="49.70694" lon="4.6341">
        <ele>278</ele>
        <time>2011-05-27T13:00:37Z</time>
      </trkpt>
      <trkpt lat="49.70691" lon="4.63407">
        <ele>278</ele>
        <time>2011-05-27T13:00:38Z</time>
      </trkpt>
      <trkpt lat="49.70688" lon="4.63404">
        <ele>278</ele>
        <time>2011-05-27T13:00:39Z</time>
      </trkpt>
      <trkpt lat="49.70685" lon="4.63401">
        <ele>278</ele>
        <time>2011-05-27T13:00:40Z</time>
      </trkpt>
      <trkpt lat="49.70682" lon="4.63399">
        <ele>278</ele>
        <time>2011-05-27T13:00:41Z</time>
      </trkpt>
      <trkpt lat="49.70678" lon="4.63396">
        <ele>278</ele>
        <time>2011-05-27T13:00:42Z</time>
      </trkpt>
      <trkpt lat="49.70675" lon="4.63393">
        <ele>278</ele>
        <time>2011-05-27T13:00:43Z</time>
      </trkpt>
      <trkpt lat="49.70672" lon="4.63391">
        <ele>278</ele>
        <time>2011-05-27T13:00:44Z</time>
      </trkpt>
      <trkpt lat="49.70668" lon="4.63388">
        <ele>278</ele>
        <time>2011-05-27T13:00:45Z</time>
      </trkpt>
      <trkpt lat="49.70665" lon="4.63386">
        <ele>279</ele>
        <time>2011-05-27T13:00:46Z</time>
      </trkpt>
      <trkpt lat="49.70662" lon="4.63383">
        <ele>279</ele>
        <time>2011-05-27T13:00:47Z</time>
      </trkpt>
      <trkpt lat="49.70658" lon="4.6338">
        <ele>279</ele>
        <time>2011-05-27T13:00:48Z</time>
      </trkpt>
      <trkpt lat="49.70655" lon="4.63377">
        <ele>279</ele>
        <time>2011-05-27T13:00:49Z</time>
      </trkpt>
      <trkpt lat="49.70651" lon="4.63375">
        <ele>279</ele>
        <time>2011-05-27T13:00:50Z</time>
      </trkpt>
      <trkpt lat="49.70648" lon="4.63372">
        <ele>279</ele>
        <time>2011-05-27T13:00:51Z</time>
      </trkpt>
      <trkpt lat="49.70645" lon="4.63369">
        <ele>279</ele>
        <time>2011-05-27T13:00:52Z</time>
      </trkpt>
      <trkpt lat="49.70641" lon="4.63367">
        <ele>279</ele>
        <time>2011-05-27T13:00:53Z</time>
      </trkpt>
      <trkpt lat="49.70638" lon="4.63364">
        <ele>279</ele>
        <time>2011-05-27T13:00:54Z</time>
      </trkpt>
      <trkpt lat="49.70635" lon="4.63361">
        <ele>279</ele>
        <time>2011-05-27T13:00:55Z</time>
      </trkpt>
      <trkpt lat="49.70631" lon="4.63358">
        <ele>279</ele>
        <time>2011-05-27T13:00:56Z</time>
      </trkpt>
      <trkpt lat="49.70628" lon="4.63355">
        <ele>279</ele>
        <time>2011-05-27T13:00:57Z</time>
      </trkpt>
      <trkpt lat="49.70624" lon="4.63352">
        <ele>279</ele>
        <time>2011-05-27T13:00:58Z</time>
      </trkpt>
      <trkpt lat="49.70621" lon="4.63349">
        <ele>279</ele>
        <time>2011-05-27T13:00:59Z</time>
      </trkpt>
      <trkpt lat="49.70617" lon="4.63347">
        <ele>279</ele>
        <time>2011-05-27T13:01:00Z</time>
      </trkpt>
      <trkpt lat="49.70614" lon="4.63344">
        <ele>279</ele>
        <time>2011-05-27T13:01:01Z</time>
      </trkpt>
      <trkpt lat="49.7061" lon="4.63341">
        <ele>279</ele>
        <time>2011-05-27T13:01:02Z</time>
      </trkpt>
      <trkpt lat="49.70607" lon="4.63339">
        <ele>279</ele>
        <time>2011-05-27T13:01:03Z</time>
      </trkpt>
      <trkpt lat="49.70603" lon="4.63336">
        <ele>279</ele>
        <time>2011-05-27T13:01:04Z</time>
      </trkpt>
      <trkpt lat="49.706" lon="4.63333">
        <ele>279</ele>
        <time>2011-05-27T13:01:05Z</time>
      </trkpt>
      <trkpt lat="49.70596" lon="4.6333">
        <ele>279</ele>
        <time>2011-05-27T13:01:06Z</time>
      </trkpt>
      <trkpt lat="49.70593" lon="4.63327">
        <ele>280</ele>
        <time>2011-05-27T13:01:07Z</time>
      </trkpt>
      <trkpt lat="49.7059" lon="4.63325">
        <ele>280</ele>
        <time>2011-05-27T13:01:08Z</time>
      </trkpt>
      <trkpt lat="49.70587" lon="4.63322">
        <ele>280</ele>
        <time>2011-05-27T13:01:09Z</time>
      </trkpt>
      <trkpt lat="49.70584" lon="4.63319">
        <ele>280</ele>
        <time>2011-05-27T13:01:10Z</time>
      </trkpt>
      <trkpt lat="49.70581" lon="4.63317">
        <ele>280</ele>
        <time>2011-05-27T13:01:11Z</time>
      </trkpt>
      <trkpt lat="49.70578" lon="4.63315">
        <ele>281</ele>
        <time>2011-05-27T13:01:12Z</time>
      </trkpt>
      <trkpt lat="49.70575" lon="4.63312">
        <ele>281</ele>
        <time>2011-05-27T13:01:13Z</time>
      </trkpt>
      <trkpt lat="49.70572" lon="4.6331">
        <ele>281</ele>
        <time>2011-05-27T13:01:14Z</time>
      </trkpt>
      <trkpt lat="49.7057" lon="4.63308">
        <ele>282</ele>
        <time>2011-05-27T13:01:15Z</time>
      </trkpt>
      <trkpt lat="49.70567" lon="4.63305">
        <ele>282</ele>
        <time>2011-05-27T13:01:16Z</time>
      </trkpt>
      <trkpt lat="49.70564" lon="4.63303">
        <ele>282</ele>
        <time>2011-05-27T13:01:17Z</time>
      </trkpt>
      <trkpt lat="49.70562" lon="4.63301">
        <ele>283</ele>
        <time>2011-05-27T13:01:18Z</time>
      </trkpt>
      <trkpt lat="49.70559" lon="4.63299">
        <ele>283</ele>
        <time>2011-05-27T13:01:19Z</time>
      </trkpt>
      <trkpt lat="49.70557" lon="4.63298">
        <ele>283</ele>
        <time>2011-05-27T13:01:20Z</time>
      </trkpt>
      <trkpt lat="49.70554" lon="4.63296">
        <ele>284</ele>
        <time>2011-05-27T13:01:21Z</time>
      </trkpt>
      <trkpt lat="49.70552" lon="4.63293">
        <ele>284</ele>
        <time>2011-05-27T13:01:22Z</time>
      </trkpt>
      <trkpt lat="49.7055" lon="4.63291">
        <ele>284</ele>
        <time>2011-05-27T13:01:23Z</time>
      </trkpt>
      <trkpt lat="49.70547" lon="4.63289">
        <ele>285</ele>
        <time>2011-05-27T13:01:24Z</time>
      </trkpt>
      <trkpt lat="49.70545" lon="4.63287">
        <ele>285</ele>
        <time>2011-05-27T13:01:25Z</time>
      </trkpt>
      <trkpt lat="49.70542" lon="4.63285">
        <ele>285</ele>
        <time>2011-05-27T13:01:26Z</time>
      </trkpt>
      <trkpt lat="49.7054" lon="4.63283">
        <ele>285</ele>
        <time>2011-05-27T13:01:27Z</time>
      </trkpt>
      <trkpt lat="49.70538" lon="4.63281">
        <ele>286</ele>
        <time>2011-05-27T13:01:28Z</time>
      </trkpt>
      <trkpt lat="49.70535" lon="4.63279">
        <ele>286</ele>
        <time>2011-05-27T13:01:29Z</time>
      </trkpt>
      <trkpt lat="49.70533" lon="4.63277">
        <ele>286</ele>
        <time>2011-05-27T13:01:30Z</time>
      </trkpt>
      <trkpt lat="49.7053" lon="4.63275">
        <ele>286</ele>
        <time>2011-05-27T13:01:31Z</time>
      </trkpt>
      <trkpt lat="49.70528" lon="4.63272">
        <ele>287</ele>
        <time>2011-05-27T13:01:32Z</time>
      </trkpt>
      <trkpt lat="49.70525" lon="4.63271">
        <ele>287</ele>
        <time>2011-05-27T13:01:33Z</time>
      </trkpt>
      <trkpt lat="49.70523" lon="4.63269">
        <ele>287</ele>
        <time>2011-05-27T13:01:34Z</time>
      </trkpt>
      <trkpt lat="49.7052" lon="4.63267">
        <ele>287</ele>
        <time>2011-05-27T13:01:35Z</time>
      </trkpt>
      <trkpt lat="49.70518" lon="4.63264">
        <ele>287</ele>
        <time>2011-05-27T13:01:36Z</time>
      </trkpt>
      <trkpt lat="49.70515" lon="4.63262">
        <ele>288</ele>
        <time>2011-05-27T13:01:37Z</time>
      </trkpt>
      <trkpt lat="49.70513" lon="4.6326">
        <ele>288</ele>
        <time>2011-05-27T13:01:38Z</time>
      </trkpt>
      <trkpt lat="49.70511" lon="4.63258">
        <ele>288</ele>
        <time>2011-05-27T13:01:39Z</time>
      </trkpt>
      <trkpt lat="49.70508" lon="4.63256">
        <ele>288</ele>
        <time>2011-05-27T13:01:40Z</time>
      </trkpt>
      <trkpt lat="49.70506" lon="4.63253">
        <ele>288</ele>
        <time>2011-05-27T13:01:41Z</time>
      </trkpt>
      <trkpt lat="49.70503" lon="4.63251">
        <ele>289</ele>
        <time>2011-05-27T13:01:42Z</time>
      </trkpt>
      <trkpt lat="49.705" lon="4.63248">
        <ele>289</ele>
        <time>2011-05-27T13:01:43Z</time>
      </trkpt>
      <trkpt lat="49.70498" lon="4.63246">
        <ele>289</ele>
        <time>2011-05-27T13:01:44Z</time>
      </trkpt>
      <trkpt lat="49.70495" lon="4.63243">
        <ele>289</ele>
        <time>2011-05-27T13:01:45Z</time>
      </trkpt>
      <trkpt lat="49.70492" lon="4.63241">
        <ele>289</ele>
        <time>2011-05-27T13:01:46Z</time>
      </trkpt>
      <trkpt lat="49.70489" lon="4.63238">
        <ele>289</ele>
        <time>2011-05-27T13:01:47Z</time>
      </trkpt>
      <trkpt lat="49.70486" lon="4.63236">
        <ele>289</ele>
        <time>2011-05-27T13:01:48Z</time>
      </trkpt>
      <trkpt lat="49.70483" lon="4.63233">
        <ele>289</ele>
        <time>2011-05-27T13:01:49Z</time>
      </trkpt>
      <trkpt lat="49.70481" lon="4.6323">
        <ele>289</ele>
        <time>2011-05-27T13:01:50Z</time>
      </trkpt>
      <trkpt lat="49.70478" lon="4.63227">
        <ele>289</ele>
        <time>2011-05-27T13:01:51Z</time>
      </trkpt>
      <trkpt lat="49.70475" lon="4.63225">
        <ele>289</ele>
        <time>2011-05-27T13:01:52Z</time>
      </trkpt>
      <trkpt lat="49.70473" lon="4.63222">
        <ele>289</ele>
        <time>2011-05-27T13:01:53Z</time>
      </trkpt>
      <trkpt lat="49.7047" lon="4.63219">
        <ele>289</ele>
        <time>2011-05-27T13:01:54Z</time>
      </trkpt>
      <trkpt lat="49.70467" lon="4.63216">
        <ele>289</ele>
        <time>2011-05-27T13:01:55Z</time>
      </trkpt>
      <trkpt lat="49.70463" lon="4.63212">
        <ele>289</ele>
        <time>2011-05-27T13:01:56Z</time>
      </trkpt>
      <trkpt lat="49.7046" lon="4.63209">
        <ele>289</ele>
        <time>2011-05-27T13:01:57Z</time>
      </trkpt>
      <trkpt lat="49.70457" lon="4.63205">
        <ele>289</ele>
        <time>2011-05-27T13:01:58Z</time>
      </trkpt>
      <trkpt lat="49.70454" lon="4.63202">
        <ele>289</ele>
        <time>2011-05-27T13:01:59Z</time>
      </trkpt>
      <trkpt lat="49.70451" lon="4.63199">
        <ele>289</ele>
        <time>2011-05-27T13:02:00Z</time>
      </trkpt>
      <trkpt lat="49.70447" lon="4.63195">
        <ele>289</ele>
        <time>2011-05-27T13:02:01Z</time>
      </trkpt>
      <trkpt lat="49.70444" lon="4.63192">
        <ele>289</ele>
        <time>2011-05-27T13:02:02Z</time>
      </trkpt>
      <trkpt lat="49.7044" lon="4.63188">
        <ele>289</ele>
        <time>2011-05-27T13:02:03Z</time>
      </trkpt>
      <trkpt lat="49.70436" lon="4.63185">
        <ele>289</ele>
        <time>2011-05-27T13:02:04Z</time>
      </trkpt>
      <trkpt lat="49.70433" lon="4.63181">
        <ele>289</ele>
        <time>2011-05-27T13:02:05Z</time>
      </trkpt>
      <trkpt lat="49.7043" lon="4.63177">
        <ele>289</ele>
        <time>2011-05-27T13:02:06Z</time>
      </trkpt>
      <trkpt lat="49.70426" lon="4.63174">
        <ele>289</ele>
        <time>2011-05-27T13:02:07Z</time>
      </trkpt>
      <trkpt lat="49.70422" lon="4.6317">
        <ele>289</ele>
        <time>2011-05-27T13:02:08Z</time>
      </trkpt>
      <trkpt lat="49.70418" lon="4.63166">
        <ele>289</ele>
        <time>2011-05-27T13:02:09Z</time>
      </trkpt>
      <trkpt lat="49.70414" lon="4.63162">
        <ele>289</ele>
        <time>2011-05-27T13:02:10Z</time>
      </trkpt>
      <trkpt lat="49.70411" lon="4.63158">
        <ele>289</ele>
        <time>2011-05-27T13:02:11Z</time>
      </trkpt>
      <trkpt lat="49.70406" lon="4.63154">
        <ele>289</ele>
        <time>2011-05-27T13:02:12Z</time>
      </trkpt>
      <trkpt lat="49.70403" lon="4.6315">
        <ele>289</ele>
        <time>2011-05-27T13:02:13Z</time>
      </trkpt>
      <trkpt lat="49.70398" lon="4.63145">
        <ele>289</ele>
        <time>2011-05-27T13:02:14Z</time>
      </trkpt>
      <trkpt lat="49.70394" lon="4.63141">
        <ele>289</ele>
        <time>2011-05-27T13:02:15Z</time>
      </trkpt>
      <trkpt lat="49.70389" lon="4.63136">
        <ele>289</ele>
        <time>2011-05-27T13:02:16Z</time>
      </trkpt>
      <trkpt lat="49.70385" lon="4.63131">
        <ele>289</ele>
        <time>2011-05-27T13:02:17Z</time>
      </trkpt>
      <trkpt lat="49.7038" lon="4.63127">
        <ele>289</ele>
        <time>2011-05-27T13:02:18Z</time>
      </trkpt>
      <trkpt lat="49.70375" lon="4.63122">
        <ele>289</ele>
        <time>2011-05-27T13:02:19Z</time>
      </trkpt>
      <trkpt lat="49.7037" lon="4.63118">
        <ele>289</ele>
        <time>2011-05-27T13:02:20Z</time>
      </trkpt>
      <trkpt lat="49.70366" lon="4.63113">
        <ele>289</ele>
        <time>2011-05-27T13:02:21Z</time>
      </trkpt>
      <trkpt lat="49.70362" lon="4.63109">
        <ele>289</ele>
        <time>2011-05-27T13:02:22Z</time>
      </trkpt>
      <trkpt lat="49.70359" lon="4.63106">
        <ele>289</ele>
        <time>2011-05-27T13:02:23Z</time>
      </trkpt>
      <trkpt lat="49.70356" lon="4.63103">
        <ele>288</ele>
        <time>2011-05-27T13:02:24Z</time>
      </trkpt>
      <trkpt lat="49.70353" lon="4.63102">
        <ele>288</ele>
        <time>2011-05-27T13:02:25Z</time>
      </trkpt>
      <trkpt lat="49.7035" lon="4.63103">
        <ele>288</ele>
        <time>2011-05-27T13:02:26Z</time>
      </trkpt>
      <trkpt lat="49.70346" lon="4.63104">
        <ele>288</ele>
        <time>2011-05-27T13:02:27Z</time>
      </trkpt>
      <trkpt lat="49.70343" lon="4.63104">
        <ele>288</ele>
        <time>2011-05-27T13:02:28Z</time>
      </trkpt>
      <trkpt lat="49.7034" lon="4.63105">
        <ele>288</ele>
        <time>2011-05-27T13:02:29Z</time>
      </trkpt>
      <trkpt lat="49.70336" lon="4.63106">
        <ele>288</ele>
        <time>2011-05-27T13:02:30Z</time>
      </trkpt>
      <trkpt lat="49.70332" lon="4.63107">
        <ele>288</ele>
        <time>2011-05-27T13:02:31Z</time>
      </trkpt>
      <trkpt lat="49.70329" lon="4.63109">
        <ele>288</ele>
        <time>2011-05-27T13:02:32Z</time>
      </trkpt>
      <trkpt lat="49.70325" lon="4.6311">
        <ele>288</ele>
        <time>2011-05-27T13:02:33Z</time>
      </trkpt>
      <trkpt lat="49.70322" lon="4.63111">
        <ele>288</ele>
        <time>2011-05-27T13:02:34Z</time>
      </trkpt>
      <trkpt lat="49.70318" lon="4.63112">
        <ele>288</ele>
        <time>2011-05-27T13:02:35Z</time>
      </trkpt>
      <trkpt lat="49.70314" lon="4.63113">
        <ele>288</ele>
        <time>2011-05-27T13:02:36Z</time>
      </trkpt>
      <trkpt lat="49.70311" lon="4.63114">
        <ele>288</ele>
        <time>2011-05-27T13:02:37Z</time>
      </trkpt>
      <trkpt lat="49.70308" lon="4.63115">
        <ele>288</ele>
        <time>2011-05-27T13:02:38Z</time>
      </trkpt>
      <trkpt lat="49.70305" lon="4.63116">
        <ele>288</ele>
        <time>2011-05-27T13:02:39Z</time>
      </trkpt>
      <trkpt lat="49.70302" lon="4.63117">
        <ele>288</ele>
        <time>2011-05-27T13:02:40Z</time>
      </trkpt>
      <trkpt lat="49.70298" lon="4.63118">
        <ele>288</ele>
        <time>2011-05-27T13:02:41Z</time>
      </trkpt>
      <trkpt lat="49.70295" lon="4.63119">
        <ele>288</ele>
        <time>2011-05-27T13:02:42Z</time>
      </trkpt>
      <trkpt lat="49.70292" lon="4.63121">
        <ele>288</ele>
        <time>2011-05-27T13:02:43Z</time>
      </trkpt>
      <trkpt lat="49.70288" lon="4.63122">
        <ele>288</ele>
        <time>2011-05-27T13:02:44Z</time>
      </trkpt>
      <trkpt lat="49.70285" lon="4.63123">
        <ele>288</ele>
        <time>2011-05-27T13:02:45Z</time>
      </trkpt>
      <trkpt lat="49.70282" lon="4.63124">
        <ele>288</ele>
        <time>2011-05-27T13:02:46Z</time>
      </trkpt>
      <trkpt lat="49.70279" lon="4.63125">
        <ele>288</ele>
        <time>2011-05-27T13:02:47Z</time>
      </trkpt>
      <trkpt lat="49.70277" lon="4.63125">
        <ele>288</ele>
        <time>2011-05-27T13:02:48Z</time>
      </trkpt>
      <trkpt lat="49.70274" lon="4.63126">
        <ele>288</ele>
        <time>2011-05-27T13:02:49Z</time>
      </trkpt>
      <trkpt lat="49.70272" lon="4.63127">
        <ele>288</ele>
        <time>2011-05-27T13:02:50Z</time>
      </trkpt>
      <trkpt lat="49.70269" lon="4.63128">
        <ele>288</ele>
        <time>2011-05-27T13:02:51Z</time>
      </trkpt>
      <trkpt lat="49.70266" lon="4.63128">
        <ele>288</ele>
        <time>2011-05-27T13:02:52Z</time>
      </trkpt>
      <trkpt lat="49.70263" lon="4.63129">
        <ele>288</ele>
        <time>2011-05-27T13:02:53Z</time>
      </trkpt>
      <trkpt lat="49.7026" lon="4.6313">
        <ele>288</ele>
        <time>2011-05-27T13:02:54Z</time>
      </trkpt>
      <trkpt lat="49.70257" lon="4.6313">
        <ele>288</ele>
        <time>2011-05-27T13:02:55Z</time>
      </trkpt>
      <trkpt lat="49.70254" lon="4.63132">
        <ele>289</ele>
        <time>2011-05-27T13:02:56Z</time>
      </trkpt>
      <trkpt lat="49.70251" lon="4.63133">
        <ele>289</ele>
        <time>2011-05-27T13:02:57Z</time>
      </trkpt>
      <trkpt lat="49.70249" lon="4.63134">
        <ele>289</ele>
        <time>2011-05-27T13:02:58Z</time>
      </trkpt>
      <trkpt lat="49.70246" lon="4.63135">
        <ele>290</ele>
        <time>2011-05-27T13:02:59Z</time>
      </trkpt>
      <trkpt lat="49.70243" lon="4.63135">
        <ele>290</ele>
        <time>2011-05-27T13:03:00Z</time>
      </trkpt>
      <trkpt lat="49.7024" lon="4.63136">
        <ele>290</ele>
        <time>2011-05-27T13:03:01Z</time>
      </trkpt>
      <trkpt lat="49.70237" lon="4.63137">
        <ele>290</ele>
        <time>2011-05-27T13:03:02Z</time>
      </trkpt>
      <trkpt lat="49.70234" lon="4.63139">
        <ele>290</ele>
        <time>2011-05-27T13:03:03Z</time>
      </trkpt>
      <trkpt lat="49.7023" lon="4.6314">
        <ele>290</ele>
        <time>2011-05-27T13:03:04Z</time>
      </trkpt>
      <trkpt lat="49.70227" lon="4.63141">
        <ele>290</ele>
        <time>2011-05-27T13:03:05Z</time>
      </trkpt>
      <trkpt lat="49.70224" lon="4.63142">
        <ele>290</ele>
        <time>2011-05-27T13:03:06Z</time>
      </trkpt>
      <trkpt lat="49.70221" lon="4.63142">
        <ele>290</ele>
        <time>2011-05-27T13:03:07Z</time>
      </trkpt>
      <trkpt lat="49.70218" lon="4.63143">
        <ele>290</ele>
        <time>2011-05-27T13:03:08Z</time>
      </trkpt>
      <trkpt lat="49.70215" lon="4.63144">
        <ele>290</ele>
        <time>2011-05-27T13:03:09Z</time>
      </trkpt>
      <trkpt lat="49.70212" lon="4.63146">
        <ele>290</ele>
        <time>2011-05-27T13:03:10Z</time>
      </trkpt>
      <trkpt lat="49.70209" lon="4.63147">
        <ele>290</ele>
        <time>2011-05-27T13:03:11Z</time>
      </trkpt>
      <trkpt lat="49.70206" lon="4.63149">
        <ele>290</ele>
        <time>2011-05-27T13:03:12Z</time>
      </trkpt>
      <trkpt lat="49.70203" lon="4.63151">
        <ele>290</ele>
        <time>2011-05-27T13:03:13Z</time>
      </trkpt>
      <trkpt lat="49.702" lon="4.63153">
        <ele>290</ele>
        <time>2011-05-27T13:03:14Z</time>
      </trkpt>
      <trkpt lat="49.70198" lon="4.63154">
        <ele>290</ele>
        <time>2011-05-27T13:03:15Z</time>
      </trkpt>
      <trkpt lat="49.70195" lon="4.63156">
        <ele>290</ele>
        <time>2011-05-27T13:03:16Z</time>
      </trkpt>
      <trkpt lat="49.70192" lon="4.63157">
        <ele>290</ele>
        <time>2011-05-27T13:03:17Z</time>
      </trkpt>
      <trkpt lat="49.70189" lon="4.63158">
        <ele>291</ele>
        <time>2011-05-27T13:03:18Z</time>
      </trkpt>
      <trkpt lat="49.70186" lon="4.63159">
        <ele>291</ele>
        <time>2011-05-27T13:03:19Z</time>
      </trkpt>
      <trkpt lat="49.70183" lon="4.6316">
        <ele>291</ele>
        <time>2011-05-27T13:03:20Z</time>
      </trkpt>
      <trkpt lat="49.7018" lon="4.63162">
        <ele>291</ele>
        <time>2011-05-27T13:03:21Z</time>
      </trkpt>
      <trkpt lat="49.70176" lon="4.63163">
        <ele>291</ele>
        <time>2011-05-27T13:03:22Z</time>
      </trkpt>
      <trkpt lat="49.70173" lon="4.63165">
        <ele>291</ele>
        <time>2011-05-27T13:03:23Z</time>
      </trkpt>
      <trkpt lat="49.7017" lon="4.63167">
        <ele>291</ele>
        <time>2011-05-27T13:03:24Z</time>
      </trkpt>
      <trkpt lat="49.70167" lon="4.63169">
        <ele>292</ele>
        <time>2011-05-27T13:03:25Z</time>
      </trkpt>
      <trkpt lat="49.70164" lon="4.63171">
        <ele>292</ele>
        <time>2011-05-27T13:03:26Z</time>
      </trkpt>
      <trkpt lat="49.70162" lon="4.63173">
        <ele>292</ele>
        <time>2011-05-27T13:03:27Z</time>
      </trkpt>
      <trkpt lat="49.70159" lon="4.63174">
        <ele>292</ele>
        <time>2011-05-27T13:03:28Z</time>
      </trkpt>
      <trkpt lat="49.70156" lon="4.63176">
        <ele>292</ele>
        <time>2011-05-27T13:03:29Z</time>
      </trkpt>
      <trkpt lat="49.70153" lon="4.63178">
        <ele>292</ele>
        <time>2011-05-27T13:03:30Z</time>
      </trkpt>
      <trkpt lat="49.70149" lon="4.63181">
        <ele>292</ele>
        <time>2011-05-27T13:03:31Z</time>
      </trkpt>
      <trkpt lat="49.70146" lon="4.63183">
        <ele>293</ele>
        <time>2011-05-27T13:03:32Z</time>
      </trkpt>
      <trkpt lat="49.70144" lon="4.63185">
        <ele>293</ele>
        <time>2011-05-27T13:03:33Z</time>
      </trkpt>
      <trkpt lat="49.70141" lon="4.63187">
        <ele>294</ele>
        <time>2011-05-27T13:03:34Z</time>
      </trkpt>
      <trkpt lat="49.70138" lon="4.6319">
        <ele>294</ele>
        <time>2011-05-27T13:03:35Z</time>
      </trkpt>
      <trkpt lat="49.70135" lon="4.63192">
        <ele>294</ele>
        <time>2011-05-27T13:03:36Z</time>
      </trkpt>
      <trkpt lat="49.70132" lon="4.63194">
        <ele>295</ele>
        <time>2011-05-27T13:03:37Z</time>
      </trkpt>
      <trkpt lat="49.70129" lon="4.63196">
        <ele>295</ele>
        <time>2011-05-27T13:03:38Z</time>
      </trkpt>
      <trkpt lat="49.70126" lon="4.63198">
        <ele>295</ele>
        <time>2011-05-27T13:03:39Z</time>
      </trkpt>
      <trkpt lat="49.70123" lon="4.632">
        <ele>295</ele>
        <time>2011-05-27T13:03:40Z</time>
      </trkpt>
      <trkpt lat="49.70119" lon="4.63203">
        <ele>295</ele>
        <time>2011-05-27T13:03:41Z</time>
      </trkpt>
      <trkpt lat="49.70116" lon="4.63205">
        <ele>295</ele>
        <time>2011-05-27T13:03:42Z</time>
      </trkpt>
      <trkpt lat="49.70111" lon="4.63206">
        <ele>295</ele>
        <time>2011-05-27T13:03:43Z</time>
      </trkpt>
      <trkpt lat="49.70107" lon="4.63208">
        <ele>295</ele>
        <time>2011-05-27T13:03:44Z</time>
      </trkpt>
      <trkpt lat="49.70102" lon="4.63211">
        <ele>295</ele>
        <time>2011-05-27T13:03:45Z</time>
      </trkpt>
      <trkpt lat="49.70097" lon="4.63212">
        <ele>295</ele>
        <time>2011-05-27T13:03:46Z</time>
      </trkpt>
      <trkpt lat="49.70093" lon="4.63215">
        <ele>295</ele>
        <time>2011-05-27T13:03:47Z</time>
      </trkpt>
      <trkpt lat="49.70087" lon="4.63217">
        <ele>295</ele>
        <time>2011-05-27T13:03:48Z</time>
      </trkpt>
      <trkpt lat="49.70082" lon="4.63218">
        <ele>295</ele>
        <time>2011-05-27T13:03:49Z</time>
      </trkpt>
      <trkpt lat="49.70076" lon="4.63219">
        <ele>295</ele>
        <time>2011-05-27T13:03:50Z</time>
      </trkpt>
      <trkpt lat="49.7007" lon="4.63219">
        <ele>295</ele>
        <time>2011-05-27T13:03:51Z</time>
      </trkpt>
      <trkpt lat="49.70063" lon="4.63219">
        <ele>295</ele>
        <time>2011-05-27T13:03:52Z</time>
      </trkpt>
      <trkpt lat="49.70058" lon="4.6322">
        <ele>295</ele>
        <time>2011-05-27T13:03:53Z</time>
      </trkpt>
      <trkpt lat="49.70052" lon="4.6322">
        <ele>295</ele>
        <time>2011-05-27T13:03:54Z</time>
      </trkpt>
      <trkpt lat="49.70047" lon="4.63221">
        <ele>295</ele>
        <time>2011-05-27T13:03:55Z</time>
      </trkpt>
      <trkpt lat="49.70041" lon="4.63221">
        <ele>295</ele>
        <time>2011-05-27T13:03:56Z</time>
      </trkpt>
      <trkpt lat="49.70035" lon="4.63222">
        <ele>295</ele>
        <time>2011-05-27T13:03:57Z</time>
      </trkpt>
      <trkpt lat="49.7003" lon="4.63224">
        <ele>295</ele>
        <time>2011-05-27T13:03:58Z</time>
      </trkpt>
      <trkpt lat="49.70025" lon="4.63226">
        <ele>295</ele>
        <time>2011-05-27T13:03:59Z</time>
      </trkpt>
      <trkpt lat="49.7002" lon="4.63228">
        <ele>295</ele>
        <time>2011-05-27T13:04:00Z</time>
      </trkpt>
      <trkpt lat="49.70015" lon="4.6323">
        <ele>295</ele>
        <time>2011-05-27T13:04:01Z</time>
      </trkpt>
      <trkpt lat="49.7001" lon="4.63233">
        <ele>295</ele>
        <time>2011-05-27T13:04:02Z</time>
      </trkpt>
      <trkpt lat="49.70006" lon="4.63235">
        <ele>295</ele>
        <time>2011-05-27T13:04:03Z</time>
      </trkpt>
      <trkpt lat="49.70002" lon="4.63238">
        <ele>295</ele>
        <time>2011-05-27T13:04:04Z</time>
      </trkpt>
      <trkpt lat="49.69997" lon="4.63241">
        <ele>295</ele>
        <time>2011-05-27T13:04:05Z</time>
      </trkpt>
      <trkpt lat="49.69994" lon="4.63244">
        <ele>295</ele>
        <time>2011-05-27T13:04:06Z</time>
      </trkpt>
      <trkpt lat="49.69989" lon="4.63247">
        <ele>295</ele>
        <time>2011-05-27T13:04:07Z</time>
      </trkpt>
      <trkpt lat="49.69985" lon="4.6325">
        <ele>295</ele>
        <time>2011-05-27T13:04:08Z</time>
      </trkpt>
      <trkpt lat="49.69981" lon="4.63253">
        <ele>295</ele>
        <time>2011-05-27T13:04:09Z</time>
      </trkpt>
      <trkpt lat="49.69977" lon="4.63257">
        <ele>295</ele>
        <time>2011-05-27T13:04:10Z</time>
      </trkpt>
      <trkpt lat="49.69973" lon="4.6326">
        <ele>295</ele>
        <time>2011-05-27T13:04:11Z</time>
      </trkpt>
      <trkpt lat="49.69969" lon="4.63263">
        <ele>295</ele>
        <time>2011-05-27T13:04:12Z</time>
      </trkpt>
      <trkpt lat="49.69966" lon="4.63266">
        <ele>295</ele>
        <time>2011-05-27T13:04:13Z</time>
      </trkpt>
      <trkpt lat="49.69963" lon="4.6327">
        <ele>295</ele>
        <time>2011-05-27T13:04:14Z</time>
      </trkpt>
      <trkpt lat="49.6996" lon="4.63273">
        <ele>295</ele>
        <time>2011-05-27T13:04:15Z</time>
      </trkpt>
      <trkpt lat="49.69956" lon="4.63276">
        <ele>295</ele>
        <time>2011-05-27T13:04:16Z</time>
      </trkpt>
      <trkpt lat="49.69954" lon="4.63281">
        <ele>295</ele>
        <time>2011-05-27T13:04:17Z</time>
      </trkpt>
      <trkpt lat="49.6995" lon="4.63284">
        <ele>295</ele>
        <time>2011-05-27T13:04:18Z</time>
      </trkpt>
      <trkpt lat="49.69947" lon="4.63289">
        <ele>295</ele>
        <time>2011-05-27T13:04:19Z</time>
      </trkpt>
      <trkpt lat="49.69944" lon="4.63291">
        <ele>295</ele>
        <time>2011-05-27T13:04:20Z</time>
      </trkpt>
      <trkpt lat="49.69941" lon="4.63294">
        <ele>295</ele>
        <time>2011-05-27T13:04:21Z</time>
      </trkpt>
      <trkpt lat="49.69939" lon="4.63296">
        <ele>296</ele>
        <time>2011-05-27T13:04:22Z</time>
      </trkpt>
      <trkpt lat="49.69936" lon="4.63298">
        <ele>296</ele>
        <time>2011-05-27T13:04:23Z</time>
      </trkpt>
      <trkpt lat="49.69934" lon="4.63301">
        <ele>296</ele>
        <time>2011-05-27T13:04:24Z</time>
      </trkpt>
      <trkpt lat="49.69931" lon="4.63302">
        <ele>297</ele>
        <time>2011-05-27T13:04:25Z</time>
      </trkpt>
      <trkpt lat="49.69927" lon="4.63305">
        <ele>297</ele>
        <time>2011-05-27T13:04:26Z</time>
      </trkpt>
      <trkpt lat="49.69924" lon="4.63307">
        <ele>298</ele>
        <time>2011-05-27T13:04:27Z</time>
      </trkpt>
      <trkpt lat="49.69921" lon="4.63309">
        <ele>299</ele>
        <time>2011-05-27T13:04:28Z</time>
      </trkpt>
      <trkpt lat="49.69918" lon="4.63312">
        <ele>300</ele>
        <time>2011-05-27T13:04:29Z</time>
      </trkpt>
      <trkpt lat="49.69915" lon="4.63315">
        <ele>301</ele>
        <time>2011-05-27T13:04:30Z</time>
      </trkpt>
      <trkpt lat="49.69912" lon="4.63318">
        <ele>302</ele>
        <time>2011-05-27T13:04:31Z</time>
      </trkpt>
      <trkpt lat="49.69908" lon="4.63321">
        <ele>302</ele>
        <time>2011-05-27T13:04:32Z</time>
      </trkpt>
      <trkpt lat="49.69905" lon="4.63324">
        <ele>302</ele>
        <time>2011-05-27T13:04:33Z</time>
      </trkpt>
      <trkpt lat="49.69901" lon="4.63326">
        <ele>302</ele>
        <time>2011-05-27T13:04:34Z</time>
      </trkpt>
      <trkpt lat="49.69898" lon="4.63328">
        <ele>302</ele>
        <time>2011-05-27T13:04:35Z</time>
      </trkpt>
      <trkpt lat="49.69895" lon="4.6333">
        <ele>302</ele>
        <time>2011-05-27T13:04:36Z</time>
      </trkpt>
      <trkpt lat="49.69891" lon="4.63331">
        <ele>302</ele>
        <time>2011-05-27T13:04:37Z</time>
      </trkpt>
      <trkpt lat="49.69888" lon="4.63332">
        <ele>302</ele>
        <time>2011-05-27T13:04:38Z</time>
      </trkpt>
      <trkpt lat="49.69884" lon="4.63334">
        <ele>302</ele>
        <time>2011-05-27T13:04:39Z</time>
      </trkpt>
      <trkpt lat="49.69881" lon="4.63335">
        <ele>302</ele>
        <time>2011-05-27T13:04:40Z</time>
      </trkpt>
      <trkpt lat="49.69878" lon="4.63337">
        <ele>302</ele>
        <time>2011-05-27T13:04:41Z</time>
      </trkpt>
      <trkpt lat="49.69874" lon="4.63338">
        <ele>302</ele>
        <time>2011-05-27T13:04:42Z</time>
      </trkpt>
      <trkpt lat="49.69871" lon="4.6334">
        <ele>302</ele>
        <time>2011-05-27T13:04:43Z</time>
      </trkpt>
      <trkpt lat="49.69868" lon="4.63342">
        <ele>302</ele>
        <time>2011-05-27T13:04:44Z</time>
      </trkpt>
      <trkpt lat="49.69866" lon="4.63344">
        <ele>302</ele>
        <time>2011-05-27T13:04:45Z</time>
      </trkpt>
      <trkpt lat="49.69863" lon="4.63346">
        <ele>302</ele>
        <time>2011-05-27T13:04:46Z</time>
      </trkpt>
      <trkpt lat="49.6986" lon="4.63348">
        <ele>302</ele>
        <time>2011-05-27T13:04:47Z</time>
      </trkpt>
      <trkpt lat="49.69857" lon="4.6335">
        <ele>302</ele>
        <time>2011-05-27T13:04:48Z</time>
      </trkpt>
      <trkpt lat="49.69854" lon="4.63353">
        <ele>302</ele>
        <time>2011-05-27T13:04:49Z</time>
      </trkpt>
      <trkpt lat="49.69849" lon="4.63356">
        <ele>302</ele>
        <time>2011-05-27T13:04:50Z</time>
      </trkpt>
      <trkpt lat="49.69845" lon="4.63358">
        <ele>302</ele>
        <time>2011-05-27T13:04:51Z</time>
      </trkpt>
      <trkpt lat="49.69842" lon="4.63361">
        <ele>302</ele>
        <time>2011-05-27T13:04:52Z</time>
      </trkpt>
      <trkpt lat="49.69839" lon="4.63365">
        <ele>302</ele>
        <time>2011-05-27T13:04:53Z</time>
      </trkpt>
      <trkpt lat="49.69835" lon="4.63369">
        <ele>302</ele>
        <time>2011-05-27T13:04:54Z</time>
      </trkpt>
      <trkpt lat="49.69832" lon="4.63373">
        <ele>303</ele>
        <time>2011-05-27T13:04:55Z</time>
      </trkpt>
      <trkpt lat="49.6983" lon="4.63377">
        <ele>304</ele>
        <time>2011-05-27T13:04:56Z</time>
      </trkpt>
      <trkpt lat="49.69826" lon="4.63381">
        <ele>305</ele>
        <time>2011-05-27T13:04:57Z</time>
      </trkpt>
      <trkpt lat="49.69823" lon="4.63384">
        <ele>306</ele>
        <time>2011-05-27T13:04:58Z</time>
      </trkpt>
      <trkpt lat="49.6982" lon="4.63387">
        <ele>307</ele>
        <time>2011-05-27T13:04:59Z</time>
      </trkpt>
      <trkpt lat="49.69818" lon="4.63391">
        <ele>307</ele>
        <time>2011-05-27T13:05:00Z</time>
      </trkpt>
      <trkpt lat="49.69815" lon="4.63396">
        <ele>308</ele>
        <time>2011-05-27T13:05:01Z</time>
      </trkpt>
      <trkpt lat="49.69814" lon="4.63399">
        <ele>308</ele>
        <time>2011-05-27T13:05:02Z</time>
      </trkpt>
      <trkpt lat="49.6981" lon="4.63403">
        <ele>309</ele>
        <time>2011-05-27T13:05:03Z</time>
      </trkpt>
      <trkpt lat="49.69808" lon="4.63407">
        <ele>310</ele>
        <time>2011-05-27T13:05:04Z</time>
      </trkpt>
      <trkpt lat="49.69805" lon="4.63411">
        <ele>310</ele>
        <time>2011-05-27T13:05:05Z</time>
      </trkpt>
      <trkpt lat="49.69803" lon="4.63415">
        <ele>310</ele>
        <time>2011-05-27T13:05:06Z</time>
      </trkpt>
      <trkpt lat="49.69801" lon="4.63418">
        <ele>310</ele>
        <time>2011-05-27T13:05:07Z</time>
      </trkpt>
      <trkpt lat="49.69799" lon="4.63424">
        <ele>310</ele>
        <time>2011-05-27T13:05:08Z</time>
      </trkpt>
      <trkpt lat="49.69797" lon="4.6343">
        <ele>310</ele>
        <time>2011-05-27T13:05:09Z</time>
      </trkpt>
      <trkpt lat="49.69795" lon="4.63436">
        <ele>311</ele>
        <time>2011-05-27T13:05:10Z</time>
      </trkpt>
      <trkpt lat="49.69793" lon="4.63442">
        <ele>311</ele>
        <time>2011-05-27T13:05:11Z</time>
      </trkpt>
      <trkpt lat="49.6979" lon="4.63446">
        <ele>311</ele>
        <time>2011-05-27T13:05:12Z</time>
      </trkpt>
      <trkpt lat="49.69787" lon="4.6345">
        <ele>312</ele>
        <time>2011-05-27T13:05:13Z</time>
      </trkpt>
      <trkpt lat="49.69785" lon="4.63454">
        <ele>312</ele>
        <time>2011-05-27T13:05:14Z</time>
      </trkpt>
      <trkpt lat="49.69783" lon="4.63459">
        <ele>312</ele>
        <time>2011-05-27T13:05:15Z</time>
      </trkpt>
      <trkpt lat="49.6978" lon="4.63462">
        <ele>312</ele>
        <time>2011-05-27T13:05:16Z</time>
      </trkpt>
      <trkpt lat="49.69777" lon="4.63466">
        <ele>313</ele>
        <time>2011-05-27T13:05:17Z</time>
      </trkpt>
      <trkpt lat="49.69774" lon="4.63471">
        <ele>313</ele>
        <time>2011-05-27T13:05:18Z</time>
      </trkpt>
      <trkpt lat="49.69771" lon="4.63475">
        <ele>313</ele>
        <time>2011-05-27T13:05:19Z</time>
      </trkpt>
      <trkpt lat="49.69768" lon="4.6348">
        <ele>313</ele>
        <time>2011-05-27T13:05:20Z</time>
      </trkpt>
      <trkpt lat="49.69765" lon="4.63486">
        <ele>313</ele>
        <time>2011-05-27T13:05:21Z</time>
      </trkpt>
      <trkpt lat="49.69762" lon="4.63491">
        <ele>313</ele>
        <time>2011-05-27T13:05:22Z</time>
      </trkpt>
      <trkpt lat="49.6976" lon="4.63495">
        <ele>313</ele>
        <time>2011-05-27T13:05:23Z</time>
      </trkpt>
      <trkpt lat="49.69756" lon="4.63499">
        <ele>313</ele>
        <time>2011-05-27T13:05:24Z</time>
      </trkpt>
      <trkpt lat="49.69754" lon="4.63503">
        <ele>313</ele>
        <time>2011-05-27T13:05:25Z</time>
      </trkpt>
      <trkpt lat="49.69752" lon="4.63507">
        <ele>313</ele>
        <time>2011-05-27T13:05:26Z</time>
      </trkpt>
      <trkpt lat="49.69749" lon="4.63511">
        <ele>313</ele>
        <time>2011-05-27T13:05:27Z</time>
      </trkpt>
      <trkpt lat="49.69746" lon="4.63514">
        <ele>313</ele>
        <time>2011-05-27T13:05:28Z</time>
      </trkpt>
      <trkpt lat="49.69743" lon="4.63517">
        <ele>313</ele>
        <time>2011-05-27T13:05:29Z</time>
      </trkpt>
      <trkpt lat="49.69742" lon="4.6352">
        <ele>313</ele>
        <time>2011-05-27T13:05:30Z</time>
      </trkpt>
      <trkpt lat="49.69739" lon="4.63523">
        <ele>313</ele>
        <time>2011-05-27T13:05:31Z</time>
      </trkpt>
      <trkpt lat="49.69737" lon="4.63526">
        <ele>313</ele>
        <time>2011-05-27T13:05:32Z</time>
      </trkpt>
      <trkpt lat="49.69734" lon="4.63528">
        <ele>313</ele>
        <time>2011-05-27T13:05:33Z</time>
      </trkpt>
      <trkpt lat="49.69732" lon="4.63532">
        <ele>313</ele>
        <time>2011-05-27T13:05:34Z</time>
      </trkpt>
      <trkpt lat="49.6973" lon="4.63537">
        <ele>314</ele>
        <time>2011-05-27T13:05:35Z</time>
      </trkpt>
      <trkpt lat="49.69727" lon="4.63541">
        <ele>314</ele>
        <time>2011-05-27T13:05:36Z</time>
      </trkpt>
      <trkpt lat="49.69724" lon="4.63546">
        <ele>314</ele>
        <time>2011-05-27T13:05:37Z</time>
      </trkpt>
      <trkpt lat="49.6972" lon="4.63551">
        <ele>314</ele>
        <time>2011-05-27T13:05:38Z</time>
      </trkpt>
      <trkpt lat="49.69716" lon="4.63555">
        <ele>314</ele>
        <time>2011-05-27T13:05:39Z</time>
      </trkpt>
      <trkpt lat="49.69712" lon="4.63559">
        <ele>314</ele>
        <time>2011-05-27T13:05:40Z</time>
      </trkpt>
      <trkpt lat="49.6971" lon="4.63565">
        <ele>314</ele>
        <time>2011-05-27T13:05:41Z</time>
      </trkpt>
      <trkpt lat="49.69707" lon="4.6357">
        <ele>314</ele>
        <time>2011-05-27T13:05:42Z</time>
      </trkpt>
      <trkpt lat="49.69703" lon="4.63576">
        <ele>314</ele>
        <time>2011-05-27T13:05:43Z</time>
      </trkpt>
      <trkpt lat="49.697" lon="4.63583">
        <ele>314</ele>
        <time>2011-05-27T13:05:44Z</time>
      </trkpt>
      <trkpt lat="49.69697" lon="4.63589">
        <ele>314</ele>
        <time>2011-05-27T13:05:45Z</time>
      </trkpt>
      <trkpt lat="49.69693" lon="4.63595">
        <ele>313</ele>
        <time>2011-05-27T13:05:46Z</time>
      </trkpt>
      <trkpt lat="49.6969" lon="4.636">
        <ele>312</ele>
        <time>2011-05-27T13:05:47Z</time>
      </trkpt>
      <trkpt lat="49.69686" lon="4.63607">
        <ele>311</ele>
        <time>2011-05-27T13:05:48Z</time>
      </trkpt>
      <trkpt lat="49.69683" lon="4.63612">
        <ele>310</ele>
        <time>2011-05-27T13:05:49Z</time>
      </trkpt>
      <trkpt lat="49.69679" lon="4.63618">
        <ele>309</ele>
        <time>2011-05-27T13:05:50Z</time>
      </trkpt>
      <trkpt lat="49.69676" lon="4.63624">
        <ele>308</ele>
        <time>2011-05-27T13:05:51Z</time>
      </trkpt>
      <trkpt lat="49.69673" lon="4.6363">
        <ele>307</ele>
        <time>2011-05-27T13:05:52Z</time>
      </trkpt>
      <trkpt lat="49.6967" lon="4.63636">
        <ele>306</ele>
        <time>2011-05-27T13:05:53Z</time>
      </trkpt>
      <trkpt lat="49.69668" lon="4.63642">
        <ele>305</ele>
        <time>2011-05-27T13:05:54Z</time>
      </trkpt>
      <trkpt lat="49.69665" lon="4.63648">
        <ele>305</ele>
        <time>2011-05-27T13:05:55Z</time>
      </trkpt>
      <trkpt lat="49.69663" lon="4.63653">
        <ele>305</ele>
        <time>2011-05-27T13:05:56Z</time>
      </trkpt>
      <trkpt lat="49.6966" lon="4.63658">
        <ele>305</ele>
        <time>2011-05-27T13:05:57Z</time>
      </trkpt>
      <trkpt lat="49.69656" lon="4.63663">
        <ele>305</ele>
        <time>2011-05-27T13:05:58Z</time>
      </trkpt>
      <trkpt lat="49.69653" lon="4.63668">
        <ele>305</ele>
        <time>2011-05-27T13:05:59Z</time>
      </trkpt>
      <trkpt lat="49.69648" lon="4.63674">
        <ele>304</ele>
        <time>2011-05-27T13:06:00Z</time>
      </trkpt>
      <trkpt lat="49.69643" lon="4.63681">
        <ele>304</ele>
        <time>2011-05-27T13:06:01Z</time>
      </trkpt>
      <trkpt lat="49.69639" lon="4.63688">
        <ele>304</ele>
        <time>2011-05-27T13:06:02Z</time>
      </trkpt>
      <trkpt lat="49.69633" lon="4.63695">
        <ele>303</ele>
        <time>2011-05-27T13:06:03Z</time>
      </trkpt>
      <trkpt lat="49.69629" lon="4.63703">
        <ele>303</ele>
        <time>2011-05-27T13:06:04Z</time>
      </trkpt>
      <trkpt lat="49.69624" lon="4.63712">
        <ele>303</ele>
        <time>2011-05-27T13:06:05Z</time>
      </trkpt>
      <trkpt lat="49.69619" lon="4.63718">
        <ele>302</ele>
        <time>2011-05-27T13:06:06Z</time>
      </trkpt>
      <trkpt lat="49.69614" lon="4.63725">
        <ele>301</ele>
        <time>2011-05-27T13:06:07Z</time>
      </trkpt>
      <trkpt lat="49.69609" lon="4.63733">
        <ele>300</ele>
        <time>2011-05-27T13:06:08Z</time>
      </trkpt>
      <trkpt lat="49.69604" lon="4.63742">
        <ele>299</ele>
        <time>2011-05-27T13:06:09Z</time>
      </trkpt>
      <trkpt lat="49.696" lon="4.63752">
        <ele>299</ele>
        <time>2011-05-27T13:06:10Z</time>
      </trkpt>
      <trkpt lat="49.69596" lon="4.63762">
        <ele>298</ele>
        <time>2011-05-27T13:06:11Z</time>
      </trkpt>
      <trkpt lat="49.6959" lon="4.6377">
        <ele>297</ele>
        <time>2011-05-27T13:06:12Z</time>
      </trkpt>
      <trkpt lat="49.69584" lon="4.6378">
        <ele>296</ele>
        <time>2011-05-27T13:06:13Z</time>
      </trkpt>
      <trkpt lat="49.69577" lon="4.63789">
        <ele>295</ele>
        <time>2011-05-27T13:06:14Z</time>
      </trkpt>
      <trkpt lat="49.69571" lon="4.63798">
        <ele>294</ele>
        <time>2011-05-27T13:06:15Z</time>
      </trkpt>
      <trkpt lat="49.69566" lon="4.63807">
        <ele>293</ele>
        <time>2011-05-27T13:06:16Z</time>
      </trkpt>
      <trkpt lat="49.69561" lon="4.63818">
        <ele>292</ele>
        <time>2011-05-27T13:06:17Z</time>
      </trkpt>
      <trkpt lat="49.69555" lon="4.63831">
        <ele>291</ele>
        <time>2011-05-27T13:06:18Z</time>
      </trkpt>
      <trkpt lat="49.6955" lon="4.63843">
        <ele>290</ele>
        <time>2011-05-27T13:06:19Z</time>
      </trkpt>
      <trkpt lat="49.69546" lon="4.63856">
        <ele>288</ele>
        <time>2011-05-27T13:06:20Z</time>
      </trkpt>
      <trkpt lat="49.69541" lon="4.63868">
        <ele>286</ele>
        <time>2011-05-27T13:06:21Z</time>
      </trkpt>
      <trkpt lat="49.69537" lon="4.63881">
        <ele>284</ele>
        <time>2011-05-27T13:06:22Z</time>
      </trkpt>
      <trkpt lat="49.69532" lon="4.63893">
        <ele>282</ele>
        <time>2011-05-27T13:06:23Z</time>
      </trkpt>
      <trkpt lat="49.69527" lon="4.63904">
        <ele>281</ele>
        <time>2011-05-27T13:06:24Z</time>
      </trkpt>
      <trkpt lat="49.69521" lon="4.63914">
        <ele>280</ele>
        <time>2011-05-27T13:06:25Z</time>
      </trkpt>
      <trkpt lat="49.69515" lon="4.63921">
        <ele>279</ele>
        <time>2011-05-27T13:06:26Z</time>
      </trkpt>
      <trkpt lat="49.6951" lon="4.63929">
        <ele>278</ele>
        <time>2011-05-27T13:06:27Z</time>
      </trkpt>
      <trkpt lat="49.69503" lon="4.63935">
        <ele>277</ele>
        <time>2011-05-27T13:06:28Z</time>
      </trkpt>
      <trkpt lat="49.69498" lon="4.6394">
        <ele>276</ele>
        <time>2011-05-27T13:06:29Z</time>
      </trkpt>
      <trkpt lat="49.69494" lon="4.63945">
        <ele>276</ele>
        <time>2011-05-27T13:06:30Z</time>
      </trkpt>
      <trkpt lat="49.69489" lon="4.63949">
        <ele>276</ele>
        <time>2011-05-27T13:06:31Z</time>
      </trkpt>
      <trkpt lat="49.69486" lon="4.63953">
        <ele>276</ele>
        <time>2011-05-27T13:06:32Z</time>
      </trkpt>
      <trkpt lat="49.69481" lon="4.63956">
        <ele>276</ele>
        <time>2011-05-27T13:06:33Z</time>
      </trkpt>
      <trkpt lat="49.69476" lon="4.63959">
        <ele>276</ele>
        <time>2011-05-27T13:06:34Z</time>
      </trkpt>
      <trkpt lat="49.69471" lon="4.63962">
        <ele>276</ele>
        <time>2011-05-27T13:06:35Z</time>
      </trkpt>
      <trkpt lat="49.69466" lon="4.63963">
        <ele>276</ele>
        <time>2011-05-27T13:06:36Z</time>
      </trkpt>
      <trkpt lat="49.6946" lon="4.63965">
        <ele>276</ele>
        <time>2011-05-27T13:06:37Z</time>
      </trkpt>
      <trkpt lat="49.69454" lon="4.63967">
        <ele>276</ele>
        <time>2011-05-27T13:06:38Z</time>
      </trkpt>
      <trkpt lat="49.69449" lon="4.63969">
        <ele>276</ele>
        <time>2011-05-27T13:06:39Z</time>
      </trkpt>
      <trkpt lat="49.69443" lon="4.63972">
        <ele>277</ele>
        <time>2011-05-27T13:06:40Z</time>
      </trkpt>
      <trkpt lat="49.69438" lon="4.63975">
        <ele>278</ele>
        <time>2011-05-27T13:06:41Z</time>
      </trkpt>
      <trkpt lat="49.69435" lon="4.63979">
        <ele>279</ele>
        <time>2011-05-27T13:06:42Z</time>
      </trkpt>
      <trkpt lat="49.69432" lon="4.63982">
        <ele>280</ele>
        <time>2011-05-27T13:06:43Z</time>
      </trkpt>
      <trkpt lat="49.69427" lon="4.63985">
        <ele>281</ele>
        <time>2011-05-27T13:06:44Z</time>
      </trkpt>
      <trkpt lat="49.69423" lon="4.63988">
        <ele>282</ele>
        <time>2011-05-27T13:06:45Z</time>
      </trkpt>
      <trkpt lat="49.69419" lon="4.63992">
        <ele>283</ele>
        <time>2011-05-27T13:06:46Z</time>
      </trkpt>
      <trkpt lat="49.69415" lon="4.63995">
        <ele>284</ele>
        <time>2011-05-27T13:06:47Z</time>
      </trkpt>
      <trkpt lat="49.6941" lon="4.63999">
        <ele>285</ele>
        <time>2011-05-27T13:06:48Z</time>
      </trkpt>
      <trkpt lat="49.69406" lon="4.64002">
        <ele>286</ele>
        <time>2011-05-27T13:06:49Z</time>
      </trkpt>
      <trkpt lat="49.69402" lon="4.64005">
        <ele>287</ele>
        <time>2011-05-27T13:06:50Z</time>
      </trkpt>
      <trkpt lat="49.69399" lon="4.64009">
        <ele>288</ele>
        <time>2011-05-27T13:06:51Z</time>
      </trkpt>
      <trkpt lat="49.69395" lon="4.64012">
        <ele>289</ele>
        <time>2011-05-27T13:06:52Z</time>
      </trkpt>
      <trkpt lat="49.69391" lon="4.64015">
        <ele>290</ele>
        <time>2011-05-27T13:06:53Z</time>
      </trkpt>
      <trkpt lat="49.69388" lon="4.64017">
        <ele>291</ele>
        <time>2011-05-27T13:06:54Z</time>
      </trkpt>
      <trkpt lat="49.69384" lon="4.64019">
        <ele>292</ele>
        <time>2011-05-27T13:06:55Z</time>
      </trkpt>
      <trkpt lat="49.6938" lon="4.64023">
        <ele>293</ele>
        <time>2011-05-27T13:06:56Z</time>
      </trkpt>
      <trkpt lat="49.69377" lon="4.64026">
        <ele>293</ele>
        <time>2011-05-27T13:06:57Z</time>
      </trkpt>
      <trkpt lat="49.69375" lon="4.64029">
        <ele>293</ele>
        <time>2011-05-27T13:06:58Z</time>
      </trkpt>
      <trkpt lat="49.69373" lon="4.64033">
        <ele>294</ele>
        <time>2011-05-27T13:06:59Z</time>
      </trkpt>
      <trkpt lat="49.69369" lon="4.64036">
        <ele>295</ele>
        <time>2011-05-27T13:07:00Z</time>
      </trkpt>
      <trkpt lat="49.69366" lon="4.64039">
        <ele>295</ele>
        <time>2011-05-27T13:07:01Z</time>
      </trkpt>
      <trkpt lat="49.69364" lon="4.64043">
        <ele>296</ele>
        <time>2011-05-27T13:07:02Z</time>
      </trkpt>
      <trkpt lat="49.69361" lon="4.64047">
        <ele>296</ele>
        <time>2011-05-27T13:07:03Z</time>
      </trkpt>
      <trkpt lat="49.69358" lon="4.64052">
        <ele>296</ele>
        <time>2011-05-27T13:07:04Z</time>
      </trkpt>
      <trkpt lat="49.69355" lon="4.64056">
        <ele>296</ele>
        <time>2011-05-27T13:07:05Z</time>
      </trkpt>
      <trkpt lat="49.69353" lon="4.6406">
        <ele>297</ele>
        <time>2011-05-27T13:07:06Z</time>
      </trkpt>
      <trkpt lat="49.69349" lon="4.64064">
        <ele>297</ele>
        <time>2011-05-27T13:07:07Z</time>
      </trkpt>
      <trkpt lat="49.69345" lon="4.64068">
        <ele>297</ele>
        <time>2011-05-27T13:07:08Z</time>
      </trkpt>
      <trkpt lat="49.69341" lon="4.64072">
        <ele>297</ele>
        <time>2011-05-27T13:07:09Z</time>
      </trkpt>
      <trkpt lat="49.69337" lon="4.64075">
        <ele>297</ele>
        <time>2011-05-27T13:07:10Z</time>
      </trkpt>
      <trkpt lat="49.69333" lon="4.64079">
        <ele>297</ele>
        <time>2011-05-27T13:07:11Z</time>
      </trkpt>
      <trkpt lat="49.6933" lon="4.64082">
        <ele>297</ele>
        <time>2011-05-27T13:07:12Z</time>
      </trkpt>
      <trkpt lat="49.69327" lon="4.64085">
        <ele>297</ele>
        <time>2011-05-27T13:07:13Z</time>
      </trkpt>
      <trkpt lat="49.69325" lon="4.64089">
        <ele>298</ele>
        <time>2011-05-27T13:07:14Z</time>
      </trkpt>
      <trkpt lat="49.69321" lon="4.64092">
        <ele>298</ele>
        <time>2011-05-27T13:07:15Z</time>
      </trkpt>
      <trkpt lat="49.69318" lon="4.64095">
        <ele>299</ele>
        <time>2011-05-27T13:07:16Z</time>
      </trkpt>
      <trkpt lat="49.69315" lon="4.64098">
        <ele>299</ele>
        <time>2011-05-27T13:07:17Z</time>
      </trkpt>
      <trkpt lat="49.69312" lon="4.64101">
        <ele>300</ele>
        <time>2011-05-27T13:07:18Z</time>
      </trkpt>
      <trkpt lat="49.69308" lon="4.64104">
        <ele>300</ele>
        <time>2011-05-27T13:07:19Z</time>
      </trkpt>
      <trkpt lat="49.69304" lon="4.64107">
        <ele>300</ele>
        <time>2011-05-27T13:07:20Z</time>
      </trkpt>
      <trkpt lat="49.69299" lon="4.64111">
        <ele>300</ele>
        <time>2011-05-27T13:07:21Z</time>
      </trkpt>
      <trkpt lat="49.69294" lon="4.64115">
        <ele>300</ele>
        <time>2011-05-27T13:07:22Z</time>
      </trkpt>
      <trkpt lat="49.69289" lon="4.64118">
        <ele>300</ele>
        <time>2011-05-27T13:07:23Z</time>
      </trkpt>
      <trkpt lat="49.69286" lon="4.64123">
        <ele>300</ele>
        <time>2011-05-27T13:07:24Z</time>
      </trkpt>
      <trkpt lat="49.69281" lon="4.64127">
        <ele>300</ele>
        <time>2011-05-27T13:07:25Z</time>
      </trkpt>
      <trkpt lat="49.69277" lon="4.6413">
        <ele>300</ele>
        <time>2011-05-27T13:07:26Z</time>
      </trkpt>
      <trkpt lat="49.69273" lon="4.64134">
        <ele>300</ele>
        <time>2011-05-27T13:07:27Z</time>
      </trkpt>
      <trkpt lat="49.69268" lon="4.64136">
        <ele>300</ele>
        <time>2011-05-27T13:07:28Z</time>
      </trkpt>
      <trkpt lat="49.69264" lon="4.64139">
        <ele>300</ele>
        <time>2011-05-27T13:07:29Z</time>
      </trkpt>
      <trkpt lat="49.6926" lon="4.64142">
        <ele>300</ele>
        <time>2011-05-27T13:07:30Z</time>
      </trkpt>
      <trkpt lat="49.69255" lon="4.64147">
        <ele>300</ele>
        <time>2011-05-27T13:07:31Z</time>
      </trkpt>
      <trkpt lat="49.69251" lon="4.6415">
        <ele>300</ele>
        <time>2011-05-27T13:07:32Z</time>
      </trkpt>
      <trkpt lat="49.69247" lon="4.64154">
        <ele>300</ele>
        <time>2011-05-27T13:07:33Z</time>
      </trkpt>
      <trkpt lat="49.69241" lon="4.64158">
        <ele>300</ele>
        <time>2011-05-27T13:07:34Z</time>
      </trkpt>
      <trkpt lat="49.69237" lon="4.64162">
        <ele>300</ele>
        <time>2011-05-27T13:07:35Z</time>
      </trkpt>
      <trkpt lat="49.69232" lon="4.64166">
        <ele>300</ele>
        <time>2011-05-27T13:07:36Z</time>
      </trkpt>
      <trkpt lat="49.69226" lon="4.64171">
        <ele>300</ele>
        <time>2011-05-27T13:07:37Z</time>
      </trkpt>
      <trkpt lat="49.69222" lon="4.64176">
        <ele>300</ele>
        <time>2011-05-27T13:07:38Z</time>
      </trkpt>
      <trkpt lat="49.69217" lon="4.64181">
        <ele>300</ele>
        <time>2011-05-27T13:07:39Z</time>
      </trkpt>
      <trkpt lat="49.69211" lon="4.64188">
        <ele>299</ele>
        <time>2011-05-27T13:07:40Z</time>
      </trkpt>
      <trkpt lat="49.69205" lon="4.64195">
        <ele>298</ele>
        <time>2011-05-27T13:07:41Z</time>
      </trkpt>
      <trkpt lat="49.692" lon="4.64202">
        <ele>298</ele>
        <time>2011-05-27T13:07:42Z</time>
      </trkpt>
      <trkpt lat="49.69195" lon="4.64211">
        <ele>297</ele>
        <time>2011-05-27T13:07:43Z</time>
      </trkpt>
      <trkpt lat="49.69189" lon="4.6422">
        <ele>296</ele>
        <time>2011-05-27T13:07:44Z</time>
      </trkpt>
      <trkpt lat="49.69184" lon="4.64229">
        <ele>295</ele>
        <time>2011-05-27T13:07:45Z</time>
      </trkpt>
      <trkpt lat="49.69178" lon="4.64238">
        <ele>294</ele>
        <time>2011-05-27T13:07:46Z</time>
      </trkpt>
      <trkpt lat="49.69173" lon="4.64247">
        <ele>293</ele>
        <time>2011-05-27T13:07:47Z</time>
      </trkpt>
      <trkpt lat="49.69167" lon="4.64256">
        <ele>292</ele>
        <time>2011-05-27T13:07:48Z</time>
      </trkpt>
      <trkpt lat="49.69162" lon="4.64265">
        <ele>291</ele>
        <time>2011-05-27T13:07:49Z</time>
      </trkpt>
      <trkpt lat="49.69158" lon="4.64274">
        <ele>290</ele>
        <time>2011-05-27T13:07:50Z</time>
      </trkpt>
      <trkpt lat="49.69154" lon="4.64284">
        <ele>289</ele>
        <time>2011-05-27T13:07:51Z</time>
      </trkpt>
      <trkpt lat="49.69152" lon="4.64294">
        <ele>288</ele>
        <time>2011-05-27T13:07:52Z</time>
      </trkpt>
      <trkpt lat="49.69149" lon="4.64304">
        <ele>286</ele>
        <time>2011-05-27T13:07:53Z</time>
      </trkpt>
      <trkpt lat="49.69146" lon="4.64312">
        <ele>285</ele>
        <time>2011-05-27T13:07:54Z</time>
      </trkpt>
      <trkpt lat="49.69143" lon="4.64321">
        <ele>283</ele>
        <time>2011-05-27T13:07:55Z</time>
      </trkpt>
      <trkpt lat="49.6914" lon="4.64329">
        <ele>282</ele>
        <time>2011-05-27T13:07:56Z</time>
      </trkpt>
      <trkpt lat="49.69136" lon="4.64337">
        <ele>280</ele>
        <time>2011-05-27T13:07:57Z</time>
      </trkpt>
      <trkpt lat="49.69132" lon="4.64345">
        <ele>279</ele>
        <time>2011-05-27T13:07:58Z</time>
      </trkpt>
      <trkpt lat="49.69126" lon="4.64349">
        <ele>278</ele>
        <time>2011-05-27T13:07:59Z</time>
      </trkpt>
      <trkpt lat="49.69118" lon="4.64352">
        <ele>277</ele>
        <time>2011-05-27T13:08:00Z</time>
      </trkpt>
      <trkpt lat="49.69108" lon="4.64354">
        <ele>276</ele>
        <time>2011-05-27T13:08:01Z</time>
      </trkpt>
      <trkpt lat="49.69098" lon="4.64355">
        <ele>274</ele>
        <time>2011-05-27T13:08:02Z</time>
      </trkpt>
      <trkpt lat="49.69088" lon="4.64357">
        <ele>273</ele>
        <time>2011-05-27T13:08:03Z</time>
      </trkpt>
      <trkpt lat="49.69077" lon="4.64358">
        <ele>271</ele>
        <time>2011-05-27T13:08:04Z</time>
      </trkpt>
      <trkpt lat="49.69067" lon="4.6436">
        <ele>270</ele>
        <time>2011-05-27T13:08:05Z</time>
      </trkpt>
      <trkpt lat="49.69058" lon="4.64362">
        <ele>268</ele>
        <time>2011-05-27T13:08:06Z</time>
      </trkpt>
      <trkpt lat="49.69049" lon="4.64363">
        <ele>267</ele>
        <time>2011-05-27T13:08:07Z</time>
      </trkpt>
      <trkpt lat="49.6904" lon="4.64363">
        <ele>265</ele>
        <time>2011-05-27T13:08:08Z</time>
      </trkpt>
      <trkpt lat="49.6903" lon="4.64364">
        <ele>264</ele>
        <time>2011-05-27T13:08:09Z</time>
      </trkpt>
      <trkpt lat="49.69022" lon="4.64365">
        <ele>263</ele>
        <time>2011-05-27T13:08:10Z</time>
      </trkpt>
      <trkpt lat="49.69016" lon="4.64367">
        <ele>261</ele>
        <time>2011-05-27T13:08:11Z</time>
      </trkpt>
      <trkpt lat="49.69008" lon="4.64371">
        <ele>260</ele>
        <time>2011-05-27T13:08:12Z</time>
      </trkpt>
      <trkpt lat="49.69003" lon="4.64378">
        <ele>259</ele>
        <time>2011-05-27T13:08:13Z</time>
      </trkpt>
      <trkpt lat="49.68999" lon="4.64388">
        <ele>258</ele>
        <time>2011-05-27T13:08:14Z</time>
      </trkpt>
      <trkpt lat="49.68996" lon="4.64397">
        <ele>257</ele>
        <time>2011-05-27T13:08:15Z</time>
      </trkpt>
      <trkpt lat="49.68994" lon="4.64404">
        <ele>256</ele>
        <time>2011-05-27T13:08:16Z</time>
      </trkpt>
      <trkpt lat="49.68992" lon="4.6441">
        <ele>255</ele>
        <time>2011-05-27T13:08:17Z</time>
      </trkpt>
      <trkpt lat="49.68991" lon="4.64414">
        <ele>254</ele>
        <time>2011-05-27T13:08:18Z</time>
      </trkpt>
      <trkpt lat="49.68991" lon="4.64416">
        <ele>253</ele>
        <time>2011-05-27T13:08:19Z</time>
      </trkpt>
      <trkpt lat="49.6899" lon="4.64419">
        <ele>252</ele>
        <time>2011-05-27T13:08:20Z</time>
      </trkpt>
      <trkpt lat="49.6899" lon="4.64421">
        <ele>252</ele>
        <time>2011-05-27T13:08:21Z</time>
      </trkpt>
      <trkpt lat="49.6899" lon="4.64424">
        <ele>252</ele>
        <time>2011-05-27T13:08:22Z</time>
      </trkpt>
      <trkpt lat="49.68989" lon="4.64427">
        <ele>252</ele>
        <time>2011-05-27T13:08:23Z</time>
      </trkpt>
      <trkpt lat="49.68988" lon="4.6443">
        <ele>252</ele>
        <time>2011-05-27T13:08:24Z</time>
      </trkpt>
      <trkpt lat="49.68985" lon="4.64431">
        <ele>252</ele>
        <time>2011-05-27T13:08:25Z</time>
      </trkpt>
      <trkpt lat="49.68984" lon="4.64433">
        <ele>252</ele>
        <time>2011-05-27T13:08:26Z</time>
      </trkpt>
      <trkpt lat="49.68983" lon="4.64436">
        <ele>252</ele>
        <time>2011-05-27T13:08:27Z</time>
      </trkpt>
      <trkpt lat="49.68982" lon="4.64438">
        <ele>252</ele>
        <time>2011-05-27T13:08:28Z</time>
      </trkpt>
      <trkpt lat="49.68981" lon="4.6444">
        <ele>252</ele>
        <time>2011-05-27T13:08:29Z</time>
      </trkpt>
      <trkpt lat="49.6898" lon="4.64443">
        <ele>252</ele>
        <time>2011-05-27T13:08:30Z</time>
      </trkpt>
      <trkpt lat="49.6898" lon="4.64446">
        <ele>252</ele>
        <time>2011-05-27T13:08:31Z</time>
      </trkpt>
      <trkpt lat="49.68979" lon="4.64448">
        <ele>252</ele>
        <time>2011-05-27T13:08:32Z</time>
      </trkpt>
      <trkpt lat="49.68979" lon="4.64451">
        <ele>252</ele>
        <time>2011-05-27T13:08:33Z</time>
      </trkpt>
      <trkpt lat="49.68979" lon="4.64453">
        <ele>252</ele>
        <time>2011-05-27T13:08:34Z</time>
      </trkpt>
      <trkpt lat="49.68979" lon="4.64456">
        <ele>253</ele>
        <time>2011-05-27T13:08:35Z</time>
      </trkpt>
      <trkpt lat="49.68979" lon="4.64458">
        <ele>253</ele>
        <time>2011-05-27T13:08:36Z</time>
      </trkpt>
      <trkpt lat="49.6898" lon="4.6446">
        <ele>254</ele>
        <time>2011-05-27T13:08:37Z</time>
      </trkpt>
      <trkpt lat="49.6898" lon="4.64462">
        <ele>254</ele>
        <time>2011-05-27T13:08:38Z</time>
      </trkpt>
      <trkpt lat="49.68982" lon="4.64464">
        <ele>255</ele>
        <time>2011-05-27T13:08:40Z</time>
      </trkpt>
      <trkpt lat="49.68983" lon="4.64466">
        <ele>255</ele>
        <time>2011-05-27T13:08:41Z</time>
      </trkpt>
      <trkpt lat="49.68985" lon="4.64467">
        <ele>255</ele>
        <time>2011-05-27T13:08:42Z</time>
      </trkpt>
      <trkpt lat="49.68988" lon="4.64469">
        <ele>255</ele>
        <time>2011-05-27T13:08:43Z</time>
      </trkpt>
      <trkpt lat="49.68989" lon="4.6447">
        <ele>255</ele>
        <time>2011-05-27T13:08:44Z</time>
      </trkpt>
      <trkpt lat="49.6899" lon="4.64471">
        <ele>255</ele>
        <time>2011-05-27T13:08:45Z</time>
      </trkpt>
      <trkpt lat="49.68992" lon="4.64473">
        <ele>255</ele>
        <time>2011-05-27T13:08:46Z</time>
      </trkpt>
      <trkpt lat="49.68993" lon="4.64474">
        <ele>255</ele>
        <time>2011-05-27T13:08:47Z</time>
      </trkpt>
      <trkpt lat="49.68995" lon="4.64476">
        <ele>255</ele>
        <time>2011-05-27T13:08:48Z</time>
      </trkpt>
      <trkpt lat="49.68997" lon="4.64477">
        <ele>255</ele>
        <time>2011-05-27T13:08:49Z</time>
      </trkpt>
      <trkpt lat="49.68998" lon="4.64478">
        <ele>255</ele>
        <time>2011-05-27T13:08:50Z</time>
      </trkpt>
      <trkpt lat="49.68999" lon="4.64479">
        <ele>255</ele>
        <time>2011-05-27T13:08:51Z</time>
      </trkpt>
      <trkpt lat="49.69001" lon="4.6448">
        <ele>255</ele>
        <time>2011-05-27T13:08:52Z</time>
      </trkpt>
      <trkpt lat="49.69003" lon="4.64483">
        <ele>255</ele>
        <time>2011-05-27T13:08:54Z</time>
      </trkpt>
      <trkpt lat="49.69004" lon="4.64485">
        <ele>255</ele>
        <time>2011-05-27T13:08:55Z</time>
      </trkpt>
      <trkpt lat="49.69006" lon="4.64487">
        <ele>256</ele>
        <time>2011-05-27T13:08:57Z</time>
      </trkpt>
      <trkpt lat="49.69007" lon="4.64489">
        <ele>257</ele>
        <time>2011-05-27T13:08:58Z</time>
      </trkpt>
      <trkpt lat="49.69008" lon="4.64492">
        <ele>258</ele>
        <time>2011-05-27T13:09:00Z</time>
      </trkpt>
      <trkpt lat="49.69008" lon="4.64494">
        <ele>259</ele>
        <time>2011-05-27T13:09:01Z</time>
      </trkpt>
      <trkpt lat="49.69008" lon="4.64496">
        <ele>260</ele>
        <time>2011-05-27T13:09:02Z</time>
      </trkpt>
      <trkpt lat="49.69009" lon="4.64499">
        <ele>260</ele>
        <time>2011-05-27T13:09:03Z</time>
      </trkpt>
      <trkpt lat="49.69009" lon="4.64501">
        <ele>261</ele>
        <time>2011-05-27T13:09:04Z</time>
      </trkpt>
      <trkpt lat="49.69008" lon="4.64503">
        <ele>262</ele>
        <time>2011-05-27T13:09:05Z</time>
      </trkpt>
      <trkpt lat="49.69007" lon="4.64506">
        <ele>263</ele>
        <time>2011-05-27T13:09:07Z</time>
      </trkpt>
      <trkpt lat="49.69006" lon="4.64508">
        <ele>263</ele>
        <time>2011-05-27T13:09:08Z</time>
      </trkpt>
      <trkpt lat="49.69006" lon="4.6451">
        <ele>264</ele>
        <time>2011-05-27T13:09:09Z</time>
      </trkpt>
      <trkpt lat="49.69004" lon="4.64511">
        <ele>264</ele>
        <time>2011-05-27T13:09:10Z</time>
      </trkpt>
      <trkpt lat="49.69004" lon="4.64513">
        <ele>265</ele>
        <time>2011-05-27T13:09:11Z</time>
      </trkpt>
      <trkpt lat="49.69003" lon="4.64515">
        <ele>265</ele>
        <time>2011-05-27T13:09:12Z</time>
      </trkpt>
      <trkpt lat="49.69002" lon="4.64516">
        <ele>266</ele>
        <time>2011-05-27T13:09:13Z</time>
      </trkpt>
      <trkpt lat="49.69" lon="4.64519">
        <ele>268</ele>
        <time>2011-05-27T13:09:15Z</time>
      </trkpt>
      <trkpt lat="49.68998" lon="4.64521">
        <ele>269</ele>
        <time>2011-05-27T13:09:16Z</time>
      </trkpt>
      <trkpt lat="49.68997" lon="4.64522">
        <ele>270</ele>
        <time>2011-05-27T13:09:17Z</time>
      </trkpt>
      <trkpt lat="49.68996" lon="4.64524">
        <ele>270</ele>
        <time>2011-05-27T13:09:18Z</time>
      </trkpt>
      <trkpt lat="49.68995" lon="4.64526">
        <ele>270</ele>
        <time>2011-05-27T13:09:19Z</time>
      </trkpt>
      <trkpt lat="49.68995" lon="4.64528">
        <ele>271</ele>
        <time>2011-05-27T13:09:20Z</time>
      </trkpt>
      <trkpt lat="49.68994" lon="4.6453">
        <ele>271</ele>
        <time>2011-05-27T13:09:21Z</time>
      </trkpt>
      <trkpt lat="49.68992" lon="4.64533">
        <ele>272</ele>
        <time>2011-05-27T13:09:23Z</time>
      </trkpt>
      <trkpt lat="49.68991" lon="4.64535">
        <ele>272</ele>
        <time>2011-05-27T13:09:24Z</time>
      </trkpt>
      <trkpt lat="49.68989" lon="4.64539">
        <ele>273</ele>
        <time>2011-05-27T13:09:26Z</time>
      </trkpt>
      <trkpt lat="49.68988" lon="4.6454">
        <ele>273</ele>
        <time>2011-05-27T13:09:27Z</time>
      </trkpt>
      <trkpt lat="49.68988" lon="4.64544">
        <ele>273</ele>
        <time>2011-05-27T13:09:28Z</time>
      </trkpt>
      <trkpt lat="49.68987" lon="4.64546">
        <ele>273</ele>
        <time>2011-05-27T13:09:29Z</time>
      </trkpt>
      <trkpt lat="49.68986" lon="4.64548">
        <ele>274</ele>
        <time>2011-05-27T13:09:30Z</time>
      </trkpt>
      <trkpt lat="49.68986" lon="4.64551">
        <ele>274</ele>
        <time>2011-05-27T13:09:31Z</time>
      </trkpt>
      <trkpt lat="49.68985" lon="4.64554">
        <ele>275</ele>
        <time>2011-05-27T13:09:32Z</time>
      </trkpt>
      <trkpt lat="49.68985" lon="4.64556">
        <ele>275</ele>
        <time>2011-05-27T13:09:33Z</time>
      </trkpt>
      <trkpt lat="49.68985" lon="4.64558">
        <ele>275</ele>
        <time>2011-05-27T13:09:34Z</time>
      </trkpt>
      <trkpt lat="49.68985" lon="4.64561">
        <ele>275</ele>
        <time>2011-05-27T13:09:35Z</time>
      </trkpt>
      <trkpt lat="49.68985" lon="4.64563">
        <ele>275</ele>
        <time>2011-05-27T13:09:36Z</time>
      </trkpt>
      <trkpt lat="49.68985" lon="4.64566">
        <ele>275</ele>
        <time>2011-05-27T13:09:37Z</time>
      </trkpt>
      <trkpt lat="49.68985" lon="4.64568">
        <ele>275</ele>
        <time>2011-05-27T13:09:38Z</time>
      </trkpt>
      <trkpt lat="49.68985" lon="4.64571">
        <ele>275</ele>
        <time>2011-05-27T13:09:39Z</time>
      </trkpt>
      <trkpt lat="49.68985" lon="4.64573">
        <ele>275</ele>
        <time>2011-05-27T13:09:40Z</time>
      </trkpt>
      <trkpt lat="49.68985" lon="4.64576">
        <ele>275</ele>
        <time>2011-05-27T13:09:41Z</time>
      </trkpt>
      <trkpt lat="49.68985" lon="4.64578">
        <ele>275</ele>
        <time>2011-05-27T13:09:42Z</time>
      </trkpt>
      <trkpt lat="49.68986" lon="4.64581">
        <ele>275</ele>
        <time>2011-05-27T13:09:43Z</time>
      </trkpt>
      <trkpt lat="49.68985" lon="4.64584">
        <ele>276</ele>
        <time>2011-05-27T13:09:44Z</time>
      </trkpt>
      <trkpt lat="49.68985" lon="4.64586">
        <ele>276</ele>
        <time>2011-05-27T13:09:45Z</time>
      </trkpt>
      <trkpt lat="49.68985" lon="4.64589">
        <ele>277</ele>
        <time>2011-05-27T13:09:46Z</time>
      </trkpt>
      <trkpt lat="49.68985" lon="4.64592">
        <ele>277</ele>
        <time>2011-05-27T13:09:47Z</time>
      </trkpt>
      <trkpt lat="49.68985" lon="4.64594">
        <ele>277</ele>
        <time>2011-05-27T13:09:48Z</time>
      </trkpt>
      <trkpt lat="49.68985" lon="4.64595">
        <ele>278</ele>
        <time>2011-05-27T13:09:49Z</time>
      </trkpt>
      <trkpt lat="49.68984" lon="4.64598">
        <ele>278</ele>
        <time>2011-05-27T13:09:50Z</time>
      </trkpt>
      <trkpt lat="49.68984" lon="4.646">
        <ele>278</ele>
        <time>2011-05-27T13:09:51Z</time>
      </trkpt>
      <trkpt lat="49.68983" lon="4.64603">
        <ele>278</ele>
        <time>2011-05-27T13:09:52Z</time>
      </trkpt>
      <trkpt lat="49.68983" lon="4.64605">
        <ele>278</ele>
        <time>2011-05-27T13:09:53Z</time>
      </trkpt>
      <trkpt lat="49.68982" lon="4.64607">
        <ele>279</ele>
        <time>2011-05-27T13:09:54Z</time>
      </trkpt>
      <trkpt lat="49.68982" lon="4.6461">
        <ele>279</ele>
        <time>2011-05-27T13:09:55Z</time>
      </trkpt>
      <trkpt lat="49.68982" lon="4.64613">
        <ele>279</ele>
        <time>2011-05-27T13:09:56Z</time>
      </trkpt>
      <trkpt lat="49.68982" lon="4.64615">
        <ele>279</ele>
        <time>2011-05-27T13:09:57Z</time>
      </trkpt>
      <trkpt lat="49.68982" lon="4.64618">
        <ele>279</ele>
        <time>2011-05-27T13:09:58Z</time>
      </trkpt>
      <trkpt lat="49.68981" lon="4.64622">
        <ele>279</ele>
        <time>2011-05-27T13:09:59Z</time>
      </trkpt>
      <trkpt lat="49.6898" lon="4.64625">
        <ele>279</ele>
        <time>2011-05-27T13:10:00Z</time>
      </trkpt>
      <trkpt lat="49.6898" lon="4.64629">
        <ele>280</ele>
        <time>2011-05-27T13:10:01Z</time>
      </trkpt>
      <trkpt lat="49.6898" lon="4.64633">
        <ele>281</ele>
        <time>2011-05-27T13:10:02Z</time>
      </trkpt>
      <trkpt lat="49.68979" lon="4.64636">
        <ele>282</ele>
        <time>2011-05-27T13:10:03Z</time>
      </trkpt>
      <trkpt lat="49.68979" lon="4.64639">
        <ele>282</ele>
        <time>2011-05-27T13:10:04Z</time>
      </trkpt>
      <trkpt lat="49.68979" lon="4.64643">
        <ele>283</ele>
        <time>2011-05-27T13:10:05Z</time>
      </trkpt>
      <trkpt lat="49.68978" lon="4.64646">
        <ele>283</ele>
        <time>2011-05-27T13:10:06Z</time>
      </trkpt>
      <trkpt lat="49.68977" lon="4.6465">
        <ele>284</ele>
        <time>2011-05-27T13:10:07Z</time>
      </trkpt>
      <trkpt lat="49.68976" lon="4.64653">
        <ele>285</ele>
        <time>2011-05-27T13:10:08Z</time>
      </trkpt>
      <trkpt lat="49.68976" lon="4.64656">
        <ele>286</ele>
        <time>2011-05-27T13:10:09Z</time>
      </trkpt>
      <trkpt lat="49.68975" lon="4.6466">
        <ele>287</ele>
        <time>2011-05-27T13:10:10Z</time>
      </trkpt>
      <trkpt lat="49.68974" lon="4.64663">
        <ele>287</ele>
        <time>2011-05-27T13:10:11Z</time>
      </trkpt>
      <trkpt lat="49.68973" lon="4.64666">
        <ele>288</ele>
        <time>2011-05-27T13:10:12Z</time>
      </trkpt>
      <trkpt lat="49.68972" lon="4.64669">
        <ele>288</ele>
        <time>2011-05-27T13:10:13Z</time>
      </trkpt>
      <trkpt lat="49.68972" lon="4.64672">
        <ele>288</ele>
        <time>2011-05-27T13:10:14Z</time>
      </trkpt>
      <trkpt lat="49.68971" lon="4.64675">
        <ele>288</ele>
        <time>2011-05-27T13:10:15Z</time>
      </trkpt>
      <trkpt lat="49.6897" lon="4.64678">
        <ele>288</ele>
        <time>2011-05-27T13:10:16Z</time>
      </trkpt>
      <trkpt lat="49.68969" lon="4.64681">
        <ele>288</ele>
        <time>2011-05-27T13:10:17Z</time>
      </trkpt>
      <trkpt lat="49.68968" lon="4.64684">
        <ele>288</ele>
        <time>2011-05-27T13:10:18Z</time>
      </trkpt>
      <trkpt lat="49.68967" lon="4.64686">
        <ele>288</ele>
        <time>2011-05-27T13:10:19Z</time>
      </trkpt>
      <trkpt lat="49.68967" lon="4.64689">
        <ele>288</ele>
        <time>2011-05-27T13:10:20Z</time>
      </trkpt>
      <trkpt lat="49.68967" lon="4.64692">
        <ele>288</ele>
        <time>2011-05-27T13:10:21Z</time>
      </trkpt>
      <trkpt lat="49.68966" lon="4.64695">
        <ele>288</ele>
        <time>2011-05-27T13:10:22Z</time>
      </trkpt>
      <trkpt lat="49.68965" lon="4.64698">
        <ele>288</ele>
        <time>2011-05-27T13:10:23Z</time>
      </trkpt>
      <trkpt lat="49.68965" lon="4.64701">
        <ele>288</ele>
        <time>2011-05-27T13:10:24Z</time>
      </trkpt>
      <trkpt lat="49.68964" lon="4.64703">
        <ele>288</ele>
        <time>2011-05-27T13:10:25Z</time>
      </trkpt>
      <trkpt lat="49.68962" lon="4.64705">
        <ele>288</ele>
        <time>2011-05-27T13:10:26Z</time>
      </trkpt>
      <trkpt lat="49.68961" lon="4.64708">
        <ele>288</ele>
        <time>2011-05-27T13:10:27Z</time>
      </trkpt>
      <trkpt lat="49.6896" lon="4.64711">
        <ele>288</ele>
        <time>2011-05-27T13:10:28Z</time>
      </trkpt>
      <trkpt lat="49.6896" lon="4.64713">
        <ele>288</ele>
        <time>2011-05-27T13:10:29Z</time>
      </trkpt>
      <trkpt lat="49.6896" lon="4.64717">
        <ele>289</ele>
        <time>2011-05-27T13:10:30Z</time>
      </trkpt>
      <trkpt lat="49.68961" lon="4.64722">
        <ele>290</ele>
        <time>2011-05-27T13:10:31Z</time>
      </trkpt>
      <trkpt lat="49.6896" lon="4.64726">
        <ele>291</ele>
        <time>2011-05-27T13:10:32Z</time>
      </trkpt>
      <trkpt lat="49.68959" lon="4.64729">
        <ele>291</ele>
        <time>2011-05-27T13:10:33Z</time>
      </trkpt>
      <trkpt lat="49.68958" lon="4.64733">
        <ele>292</ele>
        <time>2011-05-27T13:10:34Z</time>
      </trkpt>
      <trkpt lat="49.68958" lon="4.64737">
        <ele>292</ele>
        <time>2011-05-27T13:10:35Z</time>
      </trkpt>
      <trkpt lat="49.68957" lon="4.6474">
        <ele>292</ele>
        <time>2011-05-27T13:10:36Z</time>
      </trkpt>
      <trkpt lat="49.68957" lon="4.64743">
        <ele>292</ele>
        <time>2011-05-27T13:10:37Z</time>
      </trkpt>
      <trkpt lat="49.68956" lon="4.64747">
        <ele>292</ele>
        <time>2011-05-27T13:10:38Z</time>
      </trkpt>
      <trkpt lat="49.68956" lon="4.6475">
        <ele>292</ele>
        <time>2011-05-27T13:10:39Z</time>
      </trkpt>
      <trkpt lat="49.68955" lon="4.64753">
        <ele>292</ele>
        <time>2011-05-27T13:10:40Z</time>
      </trkpt>
      <trkpt lat="49.68954" lon="4.64757">
        <ele>292</ele>
        <time>2011-05-27T13:10:41Z</time>
      </trkpt>
      <trkpt lat="49.68954" lon="4.64761">
        <ele>292</ele>
        <time>2011-05-27T13:10:42Z</time>
      </trkpt>
      <trkpt lat="49.68953" lon="4.64764">
        <ele>292</ele>
        <time>2011-05-27T13:10:43Z</time>
      </trkpt>
      <trkpt lat="49.68952" lon="4.64768">
        <ele>292</ele>
        <time>2011-05-27T13:10:44Z</time>
      </trkpt>
      <trkpt lat="49.68951" lon="4.64771">
        <ele>292</ele>
        <time>2011-05-27T13:10:45Z</time>
      </trkpt>
      <trkpt lat="49.6895" lon="4.64774">
        <ele>292</ele>
        <time>2011-05-27T13:10:46Z</time>
      </trkpt>
      <trkpt lat="49.68949" lon="4.64777">
        <ele>292</ele>
        <time>2011-05-27T13:10:47Z</time>
      </trkpt>
      <trkpt lat="49.68948" lon="4.6478">
        <ele>292</ele>
        <time>2011-05-27T13:10:48Z</time>
      </trkpt>
      <trkpt lat="49.68947" lon="4.64783">
        <ele>292</ele>
        <time>2011-05-27T13:10:49Z</time>
      </trkpt>
      <trkpt lat="49.68946" lon="4.64785">
        <ele>292</ele>
        <time>2011-05-27T13:10:50Z</time>
      </trkpt>
      <trkpt lat="49.68945" lon="4.64788">
        <ele>292</ele>
        <time>2011-05-27T13:10:51Z</time>
      </trkpt>
      <trkpt lat="49.68944" lon="4.64792">
        <ele>292</ele>
        <time>2011-05-27T13:10:52Z</time>
      </trkpt>
      <trkpt lat="49.68943" lon="4.64795">
        <ele>292</ele>
        <time>2011-05-27T13:10:53Z</time>
      </trkpt>
      <trkpt lat="49.68943" lon="4.64797">
        <ele>291</ele>
        <time>2011-05-27T13:10:54Z</time>
      </trkpt>
      <trkpt lat="49.68941" lon="4.64799">
        <ele>291</ele>
        <time>2011-05-27T13:10:55Z</time>
      </trkpt>
      <trkpt lat="49.6894" lon="4.64801">
        <ele>290</ele>
        <time>2011-05-27T13:10:56Z</time>
      </trkpt>
      <trkpt lat="49.68938" lon="4.64804">
        <ele>289</ele>
        <time>2011-05-27T13:10:57Z</time>
      </trkpt>
      <trkpt lat="49.68938" lon="4.64806">
        <ele>289</ele>
        <time>2011-05-27T13:10:58Z</time>
      </trkpt>
      <trkpt lat="49.68936" lon="4.64809">
        <ele>288</ele>
        <time>2011-05-27T13:10:59Z</time>
      </trkpt>
      <trkpt lat="49.68935" lon="4.64812">
        <ele>288</ele>
        <time>2011-05-27T13:11:00Z</time>
      </trkpt>
      <trkpt lat="49.68932" lon="4.64816">
        <ele>288</ele>
        <time>2011-05-27T13:11:01Z</time>
      </trkpt>
      <trkpt lat="49.6893" lon="4.64822">
        <ele>288</ele>
        <time>2011-05-27T13:11:02Z</time>
      </trkpt>
      <trkpt lat="49.68927" lon="4.64828">
        <ele>288</ele>
        <time>2011-05-27T13:11:03Z</time>
      </trkpt>
      <trkpt lat="49.68924" lon="4.64835">
        <ele>288</ele>
        <time>2011-05-27T13:11:04Z</time>
      </trkpt>
      <trkpt lat="49.68922" lon="4.64843">
        <ele>288</ele>
        <time>2011-05-27T13:11:05Z</time>
      </trkpt>
      <trkpt lat="49.68919" lon="4.64851">
        <ele>288</ele>
        <time>2011-05-27T13:11:06Z</time>
      </trkpt>
      <trkpt lat="49.68917" lon="4.64857">
        <ele>288</ele>
        <time>2011-05-27T13:11:07Z</time>
      </trkpt>
      <trkpt lat="49.68916" lon="4.64864">
        <ele>288</ele>
        <time>2011-05-27T13:11:08Z</time>
      </trkpt>
      <trkpt lat="49.68914" lon="4.64871">
        <ele>288</ele>
        <time>2011-05-27T13:11:09Z</time>
      </trkpt>
      <trkpt lat="49.68913" lon="4.64877">
        <ele>288</ele>
        <time>2011-05-27T13:11:10Z</time>
      </trkpt>
      <trkpt lat="49.68911" lon="4.64884">
        <ele>288</ele>
        <time>2011-05-27T13:11:11Z</time>
      </trkpt>
      <trkpt lat="49.6891" lon="4.6489">
        <ele>288</ele>
        <time>2011-05-27T13:11:12Z</time>
      </trkpt>
      <trkpt lat="49.68908" lon="4.64896">
        <ele>288</ele>
        <time>2011-05-27T13:11:13Z</time>
      </trkpt>
      <trkpt lat="49.68905" lon="4.649">
        <ele>288</ele>
        <time>2011-05-27T13:11:14Z</time>
      </trkpt>
      <trkpt lat="49.68902" lon="4.64903">
        <ele>288</ele>
        <time>2011-05-27T13:11:15Z</time>
      </trkpt>
      <trkpt lat="49.68898" lon="4.64907">
        <ele>288</ele>
        <time>2011-05-27T13:11:16Z</time>
      </trkpt>
      <trkpt lat="49.68896" lon="4.64911">
        <ele>288</ele>
        <time>2011-05-27T13:11:17Z</time>
      </trkpt>
      <trkpt lat="49.68894" lon="4.64914">
        <ele>288</ele>
        <time>2011-05-27T13:11:18Z</time>
      </trkpt>
      <trkpt lat="49.68893" lon="4.64918">
        <ele>288</ele>
        <time>2011-05-27T13:11:19Z</time>
      </trkpt>
      <trkpt lat="49.68891" lon="4.64921">
        <ele>288</ele>
        <time>2011-05-27T13:11:20Z</time>
      </trkpt>
      <trkpt lat="49.6889" lon="4.64924">
        <ele>288</ele>
        <time>2011-05-27T13:11:21Z</time>
      </trkpt>
      <trkpt lat="49.68889" lon="4.64929">
        <ele>288</ele>
        <time>2011-05-27T13:11:22Z</time>
      </trkpt>
      <trkpt lat="49.68887" lon="4.64934">
        <ele>288</ele>
        <time>2011-05-27T13:11:23Z</time>
      </trkpt>
      <trkpt lat="49.68885" lon="4.64938">
        <ele>288</ele>
        <time>2011-05-27T13:11:24Z</time>
      </trkpt>
      <trkpt lat="49.68882" lon="4.64943">
        <ele>288</ele>
        <time>2011-05-27T13:11:25Z</time>
      </trkpt>
      <trkpt lat="49.6888" lon="4.64948">
        <ele>288</ele>
        <time>2011-05-27T13:11:26Z</time>
      </trkpt>
      <trkpt lat="49.68879" lon="4.64953">
        <ele>288</ele>
        <time>2011-05-27T13:11:27Z</time>
      </trkpt>
      <trkpt lat="49.68877" lon="4.64957">
        <ele>288</ele>
        <time>2011-05-27T13:11:28Z</time>
      </trkpt>
      <trkpt lat="49.68875" lon="4.64961">
        <ele>288</ele>
        <time>2011-05-27T13:11:29Z</time>
      </trkpt>
      <trkpt lat="49.68873" lon="4.64965">
        <ele>288</ele>
        <time>2011-05-27T13:11:30Z</time>
      </trkpt>
      <trkpt lat="49.68871" lon="4.6497">
        <ele>288</ele>
        <time>2011-05-27T13:11:31Z</time>
      </trkpt>
      <trkpt lat="49.6887" lon="4.64975">
        <ele>288</ele>
        <time>2011-05-27T13:11:32Z</time>
      </trkpt>
      <trkpt lat="49.68869" lon="4.64979">
        <ele>288</ele>
        <time>2011-05-27T13:11:33Z</time>
      </trkpt>
      <trkpt lat="49.68867" lon="4.64984">
        <ele>288</ele>
        <time>2011-05-27T13:11:34Z</time>
      </trkpt>
      <trkpt lat="49.68864" lon="4.6499">
        <ele>288</ele>
        <time>2011-05-27T13:11:35Z</time>
      </trkpt>
      <trkpt lat="49.68863" lon="4.64996">
        <ele>288</ele>
        <time>2011-05-27T13:11:36Z</time>
      </trkpt>
      <trkpt lat="49.68861" lon="4.65003">
        <ele>288</ele>
        <time>2011-05-27T13:11:37Z</time>
      </trkpt>
      <trkpt lat="49.68859" lon="4.65011">
        <ele>289</ele>
        <time>2011-05-27T13:11:38Z</time>
      </trkpt>
      <trkpt lat="49.68858" lon="4.65016">
        <ele>290</ele>
        <time>2011-05-27T13:11:39Z</time>
      </trkpt>
      <trkpt lat="49.68856" lon="4.6502">
        <ele>291</ele>
        <time>2011-05-27T13:11:40Z</time>
      </trkpt>
      <trkpt lat="49.68853" lon="4.65021">
        <ele>292</ele>
        <time>2011-05-27T13:11:41Z</time>
      </trkpt>
      <trkpt lat="49.68848" lon="4.65024">
        <ele>292</ele>
        <time>2011-05-27T13:11:42Z</time>
      </trkpt>
      <trkpt lat="49.68843" lon="4.65027">
        <ele>292</ele>
        <time>2011-05-27T13:11:43Z</time>
      </trkpt>
      <trkpt lat="49.68838" lon="4.65032">
        <ele>292</ele>
        <time>2011-05-27T13:11:44Z</time>
      </trkpt>
      <trkpt lat="49.68833" lon="4.65038">
        <ele>292</ele>
        <time>2011-05-27T13:11:45Z</time>
      </trkpt>
      <trkpt lat="49.6883" lon="4.65042">
        <ele>292</ele>
        <time>2011-05-27T13:11:46Z</time>
      </trkpt>
      <trkpt lat="49.68825" lon="4.65047">
        <ele>292</ele>
        <time>2011-05-27T13:11:47Z</time>
      </trkpt>
      <trkpt lat="49.6882" lon="4.6505">
        <ele>292</ele>
        <time>2011-05-27T13:11:48Z</time>
      </trkpt>
      <trkpt lat="49.68818" lon="4.65052">
        <ele>292</ele>
        <time>2011-05-27T13:11:49Z</time>
      </trkpt>
      <trkpt lat="49.68816" lon="4.65055">
        <ele>292</ele>
        <time>2011-05-27T13:11:50Z</time>
      </trkpt>
      <trkpt lat="49.68815" lon="4.65057">
        <ele>292</ele>
        <time>2011-05-27T13:11:51Z</time>
      </trkpt>
      <trkpt lat="49.68813" lon="4.65061">
        <ele>292</ele>
        <time>2011-05-27T13:11:52Z</time>
      </trkpt>
      <trkpt lat="49.68809" lon="4.65065">
        <ele>292</ele>
        <time>2011-05-27T13:11:53Z</time>
      </trkpt>
      <trkpt lat="49.68806" lon="4.65069">
        <ele>292</ele>
        <time>2011-05-27T13:11:54Z</time>
      </trkpt>
      <trkpt lat="49.68802" lon="4.65072">
        <ele>291</ele>
        <time>2011-05-27T13:11:55Z</time>
      </trkpt>
      <trkpt lat="49.68798" lon="4.65075">
        <ele>291</ele>
        <time>2011-05-27T13:11:56Z</time>
      </trkpt>
      <trkpt lat="49.68794" lon="4.65078">
        <ele>291</ele>
        <time>2011-05-27T13:11:57Z</time>
      </trkpt>
      <trkpt lat="49.68791" lon="4.65082">
        <ele>291</ele>
        <time>2011-05-27T13:11:58Z</time>
      </trkpt>
      <trkpt lat="49.68786" lon="4.65085">
        <ele>291</ele>
        <time>2011-05-27T13:11:59Z</time>
      </trkpt>
      <trkpt lat="49.68781" lon="4.65088">
        <ele>291</ele>
        <time>2011-05-27T13:12:00Z</time>
      </trkpt>
      <trkpt lat="49.68777" lon="4.65091">
        <ele>291</ele>
        <time>2011-05-27T13:12:01Z</time>
      </trkpt>
      <trkpt lat="49.68773" lon="4.65095">
        <ele>291</ele>
        <time>2011-05-27T13:12:02Z</time>
      </trkpt>
      <trkpt lat="49.6877" lon="4.65098">
        <ele>291</ele>
        <time>2011-05-27T13:12:03Z</time>
      </trkpt>
      <trkpt lat="49.68767" lon="4.65102">
        <ele>291</ele>
        <time>2011-05-27T13:12:04Z</time>
      </trkpt>
      <trkpt lat="49.68762" lon="4.65106">
        <ele>291</ele>
        <time>2011-05-27T13:12:05Z</time>
      </trkpt>
      <trkpt lat="49.68756" lon="4.6511">
        <ele>291</ele>
        <time>2011-05-27T13:12:06Z</time>
      </trkpt>
      <trkpt lat="49.6875" lon="4.65115">
        <ele>291</ele>
        <time>2011-05-27T13:12:07Z</time>
      </trkpt>
      <trkpt lat="49.68745" lon="4.65121">
        <ele>291</ele>
        <time>2011-05-27T13:12:08Z</time>
      </trkpt>
      <trkpt lat="49.68739" lon="4.65126">
        <ele>291</ele>
        <time>2011-05-27T13:12:09Z</time>
      </trkpt>
      <trkpt lat="49.68734" lon="4.65134">
        <ele>290</ele>
        <time>2011-05-27T13:12:10Z</time>
      </trkpt>
      <trkpt lat="49.68729" lon="4.65142">
        <ele>289</ele>
        <time>2011-05-27T13:12:11Z</time>
      </trkpt>
      <trkpt lat="49.68724" lon="4.6515">
        <ele>288</ele>
        <time>2011-05-27T13:12:12Z</time>
      </trkpt>
      <trkpt lat="49.6872" lon="4.65159">
        <ele>287</ele>
        <time>2011-05-27T13:12:13Z</time>
      </trkpt>
      <trkpt lat="49.68714" lon="4.65168">
        <ele>286</ele>
        <time>2011-05-27T13:12:14Z</time>
      </trkpt>
      <trkpt lat="49.68709" lon="4.65177">
        <ele>285</ele>
        <time>2011-05-27T13:12:15Z</time>
      </trkpt>
      <trkpt lat="49.68704" lon="4.65187">
        <ele>284</ele>
        <time>2011-05-27T13:12:16Z</time>
      </trkpt>
      <trkpt lat="49.68698" lon="4.65198">
        <ele>283</ele>
        <time>2011-05-27T13:12:17Z</time>
      </trkpt>
      <trkpt lat="49.68694" lon="4.65209">
        <ele>282</ele>
        <time>2011-05-27T13:12:18Z</time>
      </trkpt>
      <trkpt lat="49.68691" lon="4.65219">
        <ele>282</ele>
        <time>2011-05-27T13:12:19Z</time>
      </trkpt>
      <trkpt lat="49.68687" lon="4.65227">
        <ele>282</ele>
        <time>2011-05-27T13:12:20Z</time>
      </trkpt>
      <trkpt lat="49.68682" lon="4.65235">
        <ele>282</ele>
        <time>2011-05-27T13:12:21Z</time>
      </trkpt>
      <trkpt lat="49.68676" lon="4.65241">
        <ele>282</ele>
        <time>2011-05-27T13:12:22Z</time>
      </trkpt>
      <trkpt lat="49.68671" lon="4.65246">
        <ele>281</ele>
        <time>2011-05-27T13:12:23Z</time>
      </trkpt>
      <trkpt lat="49.68665" lon="4.65251">
        <ele>281</ele>
        <time>2011-05-27T13:12:24Z</time>
      </trkpt>
      <trkpt lat="49.68659" lon="4.65256">
        <ele>280</ele>
        <time>2011-05-27T13:12:25Z</time>
      </trkpt>
      <trkpt lat="49.68655" lon="4.65262">
        <ele>279</ele>
        <time>2011-05-27T13:12:26Z</time>
      </trkpt>
      <trkpt lat="49.6865" lon="4.65267">
        <ele>278</ele>
        <time>2011-05-27T13:12:27Z</time>
      </trkpt>
      <trkpt lat="49.68644" lon="4.65273">
        <ele>277</ele>
        <time>2011-05-27T13:12:28Z</time>
      </trkpt>
      <trkpt lat="49.68639" lon="4.65279">
        <ele>276</ele>
        <time>2011-05-27T13:12:29Z</time>
      </trkpt>
      <trkpt lat="49.68635" lon="4.65284">
        <ele>275</ele>
        <time>2011-05-27T13:12:30Z</time>
      </trkpt>
      <trkpt lat="49.68631" lon="4.65289">
        <ele>274</ele>
        <time>2011-05-27T13:12:31Z</time>
      </trkpt>
      <trkpt lat="49.68626" lon="4.65293">
        <ele>273</ele>
        <time>2011-05-27T13:12:32Z</time>
      </trkpt>
      <trkpt lat="49.68621" lon="4.65296">
        <ele>272</ele>
        <time>2011-05-27T13:12:33Z</time>
      </trkpt>
      <trkpt lat="49.68615" lon="4.65299">
        <ele>271</ele>
        <time>2011-05-27T13:12:34Z</time>
      </trkpt>
      <trkpt lat="49.68609" lon="4.65301">
        <ele>270</ele>
        <time>2011-05-27T13:12:35Z</time>
      </trkpt>
      <trkpt lat="49.68604" lon="4.65305">
        <ele>269</ele>
        <time>2011-05-27T13:12:36Z</time>
      </trkpt>
      <trkpt lat="49.68597" lon="4.65308">
        <ele>268</ele>
        <time>2011-05-27T13:12:37Z</time>
      </trkpt>
      <trkpt lat="49.6859" lon="4.65311">
        <ele>266</ele>
        <time>2011-05-27T13:12:38Z</time>
      </trkpt>
      <trkpt lat="49.68583" lon="4.65314">
        <ele>264</ele>
        <time>2011-05-27T13:12:39Z</time>
      </trkpt>
      <trkpt lat="49.68576" lon="4.65317">
        <ele>262</ele>
        <time>2011-05-27T13:12:40Z</time>
      </trkpt>
      <trkpt lat="49.68568" lon="4.65319">
        <ele>260</ele>
        <time>2011-05-27T13:12:41Z</time>
      </trkpt>
      <trkpt lat="49.68561" lon="4.65321">
        <ele>258</ele>
        <time>2011-05-27T13:12:42Z</time>
      </trkpt>
      <trkpt lat="49.68553" lon="4.65323">
        <ele>256</ele>
        <time>2011-05-27T13:12:43Z</time>
      </trkpt>
      <trkpt lat="49.68546" lon="4.65324">
        <ele>254</ele>
        <time>2011-05-27T13:12:44Z</time>
      </trkpt>
      <trkpt lat="49.68539" lon="4.65326">
        <ele>252</ele>
        <time>2011-05-27T13:12:45Z</time>
      </trkpt>
      <trkpt lat="49.68531" lon="4.65328">
        <ele>250</ele>
        <time>2011-05-27T13:12:46Z</time>
      </trkpt>
      <trkpt lat="49.68525" lon="4.65331">
        <ele>248</ele>
        <time>2011-05-27T13:12:47Z</time>
      </trkpt>
      <trkpt lat="49.68519" lon="4.65335">
        <ele>246</ele>
        <time>2011-05-27T13:12:48Z</time>
      </trkpt>
      <trkpt lat="49.68513" lon="4.6534">
        <ele>244</ele>
        <time>2011-05-27T13:12:49Z</time>
      </trkpt>
      <trkpt lat="49.68508" lon="4.65346">
        <ele>242</ele>
        <time>2011-05-27T13:12:50Z</time>
      </trkpt>
      <trkpt lat="49.68504" lon="4.65353">
        <ele>240</ele>
        <time>2011-05-27T13:12:51Z</time>
      </trkpt>
      <trkpt lat="49.68499" lon="4.6536">
        <ele>238</ele>
        <time>2011-05-27T13:12:52Z</time>
      </trkpt>
      <trkpt lat="49.68495" lon="4.65368">
        <ele>236</ele>
        <time>2011-05-27T13:12:53Z</time>
      </trkpt>
      <trkpt lat="49.68491" lon="4.65376">
        <ele>234</ele>
        <time>2011-05-27T13:12:54Z</time>
      </trkpt>
      <trkpt lat="49.68486" lon="4.65384">
        <ele>233</ele>
        <time>2011-05-27T13:12:55Z</time>
      </trkpt>
      <trkpt lat="49.68483" lon="4.65391">
        <ele>232</ele>
        <time>2011-05-27T13:12:56Z</time>
      </trkpt>
      <trkpt lat="49.6848" lon="4.65398">
        <ele>230</ele>
        <time>2011-05-27T13:12:57Z</time>
      </trkpt>
      <trkpt lat="49.68476" lon="4.65406">
        <ele>229</ele>
        <time>2011-05-27T13:12:58Z</time>
      </trkpt>
      <trkpt lat="49.68472" lon="4.65413">
        <ele>227</ele>
        <time>2011-05-27T13:12:59Z</time>
      </trkpt>
      <trkpt lat="49.68469" lon="4.6542">
        <ele>226</ele>
        <time>2011-05-27T13:13:00Z</time>
      </trkpt>
      <trkpt lat="49.68466" lon="4.65426">
        <ele>225</ele>
        <time>2011-05-27T13:13:01Z</time>
      </trkpt>
      <trkpt lat="49.68463" lon="4.65432">
        <ele>224</ele>
        <time>2011-05-27T13:13:02Z</time>
      </trkpt>
      <trkpt lat="49.68461" lon="4.65437">
        <ele>223</ele>
        <time>2011-05-27T13:13:03Z</time>
      </trkpt>
      <trkpt lat="49.68459" lon="4.65443">
        <ele>222</ele>
        <time>2011-05-27T13:13:04Z</time>
      </trkpt>
      <trkpt lat="49.68456" lon="4.65448">
        <ele>221</ele>
        <time>2011-05-27T13:13:05Z</time>
      </trkpt>
      <trkpt lat="49.68454" lon="4.65453">
        <ele>220</ele>
        <time>2011-05-27T13:13:06Z</time>
      </trkpt>
      <trkpt lat="49.68451" lon="4.65459">
        <ele>219</ele>
        <time>2011-05-27T13:13:07Z</time>
      </trkpt>
      <trkpt lat="49.68447" lon="4.65465">
        <ele>218</ele>
        <time>2011-05-27T13:13:08Z</time>
      </trkpt>
      <trkpt lat="49.68442" lon="4.65471">
        <ele>217</ele>
        <time>2011-05-27T13:13:09Z</time>
      </trkpt>
      <trkpt lat="49.68437" lon="4.65476">
        <ele>216</ele>
        <time>2011-05-27T13:13:10Z</time>
      </trkpt>
      <trkpt lat="49.68431" lon="4.6548">
        <ele>215</ele>
        <time>2011-05-27T13:13:11Z</time>
      </trkpt>
      <trkpt lat="49.68424" lon="4.65482">
        <ele>214</ele>
        <time>2011-05-27T13:13:12Z</time>
      </trkpt>
      <trkpt lat="49.68418" lon="4.65484">
        <ele>213</ele>
        <time>2011-05-27T13:13:13Z</time>
      </trkpt>
      <trkpt lat="49.68412" lon="4.65486">
        <ele>212</ele>
        <time>2011-05-27T13:13:14Z</time>
      </trkpt>
      <trkpt lat="49.68405" lon="4.65488">
        <ele>210</ele>
        <time>2011-05-27T13:13:15Z</time>
      </trkpt>
      <trkpt lat="49.684" lon="4.65489">
        <ele>209</ele>
        <time>2011-05-27T13:13:16Z</time>
      </trkpt>
      <trkpt lat="49.68395" lon="4.65491">
        <ele>208</ele>
        <time>2011-05-27T13:13:17Z</time>
      </trkpt>
      <trkpt lat="49.68392" lon="4.65493">
        <ele>207</ele>
        <time>2011-05-27T13:13:18Z</time>
      </trkpt>
      <trkpt lat="49.68388" lon="4.65495">
        <ele>206</ele>
        <time>2011-05-27T13:13:19Z</time>
      </trkpt>
      <trkpt lat="49.68385" lon="4.65495">
        <ele>205</ele>
        <time>2011-05-27T13:13:20Z</time>
      </trkpt>
      <trkpt lat="49.68381" lon="4.65492">
        <ele>204</ele>
        <time>2011-05-27T13:13:21Z</time>
      </trkpt>
      <trkpt lat="49.68378" lon="4.65488">
        <ele>203</ele>
        <time>2011-05-27T13:13:22Z</time>
      </trkpt>
      <trkpt lat="49.68374" lon="4.65483">
        <ele>202</ele>
        <time>2011-05-27T13:13:23Z</time>
      </trkpt>
      <trkpt lat="49.6837" lon="4.65478">
        <ele>201</ele>
        <time>2011-05-27T13:13:24Z</time>
      </trkpt>
      <trkpt lat="49.68366" lon="4.65472">
        <ele>200</ele>
        <time>2011-05-27T13:13:25Z</time>
      </trkpt>
      <trkpt lat="49.68362" lon="4.65466">
        <ele>199</ele>
        <time>2011-05-27T13:13:26Z</time>
      </trkpt>
      <trkpt lat="49.68358" lon="4.65461">
        <ele>198</ele>
        <time>2011-05-27T13:13:27Z</time>
      </trkpt>
      <trkpt lat="49.68353" lon="4.65455">
        <ele>197</ele>
        <time>2011-05-27T13:13:28Z</time>
      </trkpt>
      <trkpt lat="49.68349" lon="4.6545">
        <ele>196</ele>
        <time>2011-05-27T13:13:29Z</time>
      </trkpt>
      <trkpt lat="49.68343" lon="4.65444">
        <ele>195</ele>
        <time>2011-05-27T13:13:30Z</time>
      </trkpt>
      <trkpt lat="49.68338" lon="4.65438">
        <ele>195</ele>
        <time>2011-05-27T13:13:31Z</time>
      </trkpt>
      <trkpt lat="49.68333" lon="4.65433">
        <ele>194</ele>
        <time>2011-05-27T13:13:32Z</time>
      </trkpt>
      <trkpt lat="49.68327" lon="4.65427">
        <ele>194</ele>
        <time>2011-05-27T13:13:33Z</time>
      </trkpt>
      <trkpt lat="49.6832" lon="4.6542">
        <ele>193</ele>
        <time>2011-05-27T13:13:34Z</time>
      </trkpt>
      <trkpt lat="49.68314" lon="4.65413">
        <ele>192</ele>
        <time>2011-05-27T13:13:35Z</time>
      </trkpt>
      <trkpt lat="49.68307" lon="4.65407">
        <ele>191</ele>
        <time>2011-05-27T13:13:36Z</time>
      </trkpt>
      <trkpt lat="49.683" lon="4.65401">
        <ele>191</ele>
        <time>2011-05-27T13:13:37Z</time>
      </trkpt>
      <trkpt lat="49.68293" lon="4.65396">
        <ele>190</ele>
        <time>2011-05-27T13:13:38Z</time>
      </trkpt>
      <trkpt lat="49.68286" lon="4.65392">
        <ele>189</ele>
        <time>2011-05-27T13:13:39Z</time>
      </trkpt>
      <trkpt lat="49.68279" lon="4.65388">
        <ele>188</ele>
        <time>2011-05-27T13:13:40Z</time>
      </trkpt>
      <trkpt lat="49.68271" lon="4.65385">
        <ele>187</ele>
        <time>2011-05-27T13:13:41Z</time>
      </trkpt>
      <trkpt lat="49.68264" lon="4.65384">
        <ele>186</ele>
        <time>2011-05-27T13:13:42Z</time>
      </trkpt>
      <trkpt lat="49.68256" lon="4.65383">
        <ele>185</ele>
        <time>2011-05-27T13:13:43Z</time>
      </trkpt>
      <trkpt lat="49.68249" lon="4.65382">
        <ele>185</ele>
        <time>2011-05-27T13:13:44Z</time>
      </trkpt>
      <trkpt lat="49.68242" lon="4.6538">
        <ele>184</ele>
        <time>2011-05-27T13:13:45Z</time>
      </trkpt>
      <trkpt lat="49.68236" lon="4.65375">
        <ele>184</ele>
        <time>2011-05-27T13:13:46Z</time>
      </trkpt>
      <trkpt lat="49.6823" lon="4.65367">
        <ele>184</ele>
        <time>2011-05-27T13:13:47Z</time>
      </trkpt>
      <trkpt lat="49.68225" lon="4.65358">
        <ele>183</ele>
        <time>2011-05-27T13:13:48Z</time>
      </trkpt>
      <trkpt lat="49.68219" lon="4.65349">
        <ele>183</ele>
        <time>2011-05-27T13:13:49Z</time>
      </trkpt>
      <trkpt lat="49.68214" lon="4.6534">
        <ele>183</ele>
        <time>2011-05-27T13:13:50Z</time>
      </trkpt>
      <trkpt lat="49.68208" lon="4.6533">
        <ele>183</ele>
        <time>2011-05-27T13:13:51Z</time>
      </trkpt>
      <trkpt lat="49.68202" lon="4.6532">
        <ele>182</ele>
        <time>2011-05-27T13:13:52Z</time>
      </trkpt>
      <trkpt lat="49.68195" lon="4.65309">
        <ele>182</ele>
        <time>2011-05-27T13:13:53Z</time>
      </trkpt>
      <trkpt lat="49.68188" lon="4.65298">
        <ele>181</ele>
        <time>2011-05-27T13:13:54Z</time>
      </trkpt>
      <trkpt lat="49.68182" lon="4.65288">
        <ele>180</ele>
        <time>2011-05-27T13:13:55Z</time>
      </trkpt>
      <trkpt lat="49.68174" lon="4.65277">
        <ele>180</ele>
        <time>2011-05-27T13:13:56Z</time>
      </trkpt>
      <trkpt lat="49.68167" lon="4.65266">
        <ele>179</ele>
        <time>2011-05-27T13:13:57Z</time>
      </trkpt>
      <trkpt lat="49.68161" lon="4.65255">
        <ele>178</ele>
        <time>2011-05-27T13:13:58Z</time>
      </trkpt>
      <trkpt lat="49.68153" lon="4.65246">
        <ele>178</ele>
        <time>2011-05-27T13:13:59Z</time>
      </trkpt>
      <trkpt lat="49.68145" lon="4.65237">
        <ele>177</ele>
        <time>2011-05-27T13:14:00Z</time>
      </trkpt>
      <trkpt lat="49.68137" lon="4.65229">
        <ele>177</ele>
        <time>2011-05-27T13:14:01Z</time>
      </trkpt>
      <trkpt lat="49.68128" lon="4.65221">
        <ele>177</ele>
        <time>2011-05-27T13:14:02Z</time>
      </trkpt>
      <trkpt lat="49.6812" lon="4.65213">
        <ele>176</ele>
        <time>2011-05-27T13:14:03Z</time>
      </trkpt>
      <trkpt lat="49.68112" lon="4.65205">
        <ele>176</ele>
        <time>2011-05-27T13:14:04Z</time>
      </trkpt>
      <trkpt lat="49.68104" lon="4.65198">
        <ele>176</ele>
        <time>2011-05-27T13:14:05Z</time>
      </trkpt>
      <trkpt lat="49.68097" lon="4.65191">
        <ele>176</ele>
        <time>2011-05-27T13:14:06Z</time>
      </trkpt>
      <trkpt lat="49.6809" lon="4.65183">
        <ele>175</ele>
        <time>2011-05-27T13:14:07Z</time>
      </trkpt>
      <trkpt lat="49.68085" lon="4.65174">
        <ele>175</ele>
        <time>2011-05-27T13:14:08Z</time>
      </trkpt>
      <trkpt lat="49.6808" lon="4.65165">
        <ele>175</ele>
        <time>2011-05-27T13:14:09Z</time>
      </trkpt>
      <trkpt lat="49.68075" lon="4.65156">
        <ele>175</ele>
        <time>2011-05-27T13:14:10Z</time>
      </trkpt>
      <trkpt lat="49.6807" lon="4.6515">
        <ele>175</ele>
        <time>2011-05-27T13:14:11Z</time>
      </trkpt>
      <trkpt lat="49.68065" lon="4.65144">
        <ele>174</ele>
        <time>2011-05-27T13:14:12Z</time>
      </trkpt>
      <trkpt lat="49.68061" lon="4.65137">
        <ele>174</ele>
        <time>2011-05-27T13:14:13Z</time>
      </trkpt>
      <trkpt lat="49.68056" lon="4.65131">
        <ele>174</ele>
        <time>2011-05-27T13:14:14Z</time>
      </trkpt>
      <trkpt lat="49.68052" lon="4.65125">
        <ele>174</ele>
        <time>2011-05-27T13:14:15Z</time>
      </trkpt>
      <trkpt lat="49.68047" lon="4.65119">
        <ele>174</ele>
        <time>2011-05-27T13:14:16Z</time>
      </trkpt>
      <trkpt lat="49.68043" lon="4.65113">
        <ele>174</ele>
        <time>2011-05-27T13:14:17Z</time>
      </trkpt>
      <trkpt lat="49.68039" lon="4.65107">
        <ele>174</ele>
        <time>2011-05-27T13:14:18Z</time>
      </trkpt>
      <trkpt lat="49.68036" lon="4.65101">
        <ele>174</ele>
        <time>2011-05-27T13:14:19Z</time>
      </trkpt>
      <trkpt lat="49.68032" lon="4.65096">
        <ele>174</ele>
        <time>2011-05-27T13:14:20Z</time>
      </trkpt>
      <trkpt lat="49.68029" lon="4.65089">
        <ele>174</ele>
        <time>2011-05-27T13:14:21Z</time>
      </trkpt>
      <trkpt lat="49.68026" lon="4.65083">
        <ele>174</ele>
        <time>2011-05-27T13:14:22Z</time>
      </trkpt>
      <trkpt lat="49.68024" lon="4.65076">
        <ele>174</ele>
        <time>2011-05-27T13:14:23Z</time>
      </trkpt>
      <trkpt lat="49.68022" lon="4.6507">
        <ele>174</ele>
        <time>2011-05-27T13:14:24Z</time>
      </trkpt>
      <trkpt lat="49.68018" lon="4.65064">
        <ele>174</ele>
        <time>2011-05-27T13:14:25Z</time>
      </trkpt>
      <trkpt lat="49.68015" lon="4.65059">
        <ele>174</ele>
        <time>2011-05-27T13:14:26Z</time>
      </trkpt>
      <trkpt lat="49.68011" lon="4.65055">
        <ele>174</ele>
        <time>2011-05-27T13:14:27Z</time>
      </trkpt>
      <trkpt lat="49.68007" lon="4.6505">
        <ele>174</ele>
        <time>2011-05-27T13:14:28Z</time>
      </trkpt>
      <trkpt lat="49.68003" lon="4.65045">
        <ele>174</ele>
        <time>2011-05-27T13:14:29Z</time>
      </trkpt>
      <trkpt lat="49.68" lon="4.65041">
        <ele>174</ele>
        <time>2011-05-27T13:14:30Z</time>
      </trkpt>
      <trkpt lat="49.67996" lon="4.65037">
        <ele>174</ele>
        <time>2011-05-27T13:14:31Z</time>
      </trkpt>
      <trkpt lat="49.67993" lon="4.65033">
        <ele>174</ele>
        <time>2011-05-27T13:14:32Z</time>
      </trkpt>
      <trkpt lat="49.67989" lon="4.65029">
        <ele>174</ele>
        <time>2011-05-27T13:14:33Z</time>
      </trkpt>
      <trkpt lat="49.67985" lon="4.65025">
        <ele>174</ele>
        <time>2011-05-27T13:14:34Z</time>
      </trkpt>
      <trkpt lat="49.67982" lon="4.65021">
        <ele>174</ele>
        <time>2011-05-27T13:14:35Z</time>
      </trkpt>
      <trkpt lat="49.67978" lon="4.65016">
        <ele>174</ele>
        <time>2011-05-27T13:14:36Z</time>
      </trkpt>
      <trkpt lat="49.67974" lon="4.65011">
        <ele>174</ele>
        <time>2011-05-27T13:14:37Z</time>
      </trkpt>
      <trkpt lat="49.67971" lon="4.65006">
        <ele>174</ele>
        <time>2011-05-27T13:14:38Z</time>
      </trkpt>
      <trkpt lat="49.67967" lon="4.65001">
        <ele>174</ele>
        <time>2011-05-27T13:14:39Z</time>
      </trkpt>
      <trkpt lat="49.67964" lon="4.64997">
        <ele>174</ele>
        <time>2011-05-27T13:14:40Z</time>
      </trkpt>
      <trkpt lat="49.67962" lon="4.64992">
        <ele>174</ele>
        <time>2011-05-27T13:14:41Z</time>
      </trkpt>
      <trkpt lat="49.67959" lon="4.64987">
        <ele>174</ele>
        <time>2011-05-27T13:14:42Z</time>
      </trkpt>
      <trkpt lat="49.67956" lon="4.64982">
        <ele>174</ele>
        <time>2011-05-27T13:14:43Z</time>
      </trkpt>
      <trkpt lat="49.67954" lon="4.64977">
        <ele>174</ele>
        <time>2011-05-27T13:14:44Z</time>
      </trkpt>
      <trkpt lat="49.67951" lon="4.64973">
        <ele>174</ele>
        <time>2011-05-27T13:14:45Z</time>
      </trkpt>
      <trkpt lat="49.67949" lon="4.64969">
        <ele>174</ele>
        <time>2011-05-27T13:14:46Z</time>
      </trkpt>
      <trkpt lat="49.67946" lon="4.64965">
        <ele>174</ele>
        <time>2011-05-27T13:14:47Z</time>
      </trkpt>
      <trkpt lat="49.67944" lon="4.64962">
        <ele>174</ele>
        <time>2011-05-27T13:14:48Z</time>
      </trkpt>
      <trkpt lat="49.67941" lon="4.64958">
        <ele>174</ele>
        <time>2011-05-27T13:14:49Z</time>
      </trkpt>
      <trkpt lat="49.67939" lon="4.64954">
        <ele>174</ele>
        <time>2011-05-27T13:14:50Z</time>
      </trkpt>
      <trkpt lat="49.67936" lon="4.6495">
        <ele>174</ele>
        <time>2011-05-27T13:14:51Z</time>
      </trkpt>
      <trkpt lat="49.67934" lon="4.64947">
        <ele>174</ele>
        <time>2011-05-27T13:14:52Z</time>
      </trkpt>
      <trkpt lat="49.67932" lon="4.64944">
        <ele>174</ele>
        <time>2011-05-27T13:14:53Z</time>
      </trkpt>
      <trkpt lat="49.67929" lon="4.64941">
        <ele>174</ele>
        <time>2011-05-27T13:14:54Z</time>
      </trkpt>
      <trkpt lat="49.67927" lon="4.64938">
        <ele>174</ele>
        <time>2011-05-27T13:14:55Z</time>
      </trkpt>
      <trkpt lat="49.67925" lon="4.64936">
        <ele>174</ele>
        <time>2011-05-27T13:14:56Z</time>
      </trkpt>
      <trkpt lat="49.67923" lon="4.64933">
        <ele>174</ele>
        <time>2011-05-27T13:14:57Z</time>
      </trkpt>
      <trkpt lat="49.67921" lon="4.6493">
        <ele>174</ele>
        <time>2011-05-27T13:14:58Z</time>
      </trkpt>
      <trkpt lat="49.67918" lon="4.64928">
        <ele>175</ele>
        <time>2011-05-27T13:14:59Z</time>
      </trkpt>
      <trkpt lat="49.67916" lon="4.64925">
        <ele>175</ele>
        <time>2011-05-27T13:15:00Z</time>
      </trkpt>
      <trkpt lat="49.67913" lon="4.64923">
        <ele>175</ele>
        <time>2011-05-27T13:15:01Z</time>
      </trkpt>
      <trkpt lat="49.67911" lon="4.64921">
        <ele>176</ele>
        <time>2011-05-27T13:15:02Z</time>
      </trkpt>
      <trkpt lat="49.67909" lon="4.64919">
        <ele>176</ele>
        <time>2011-05-27T13:15:03Z</time>
      </trkpt>
      <trkpt lat="49.67907" lon="4.64917">
        <ele>176</ele>
        <time>2011-05-27T13:15:04Z</time>
      </trkpt>
      <trkpt lat="49.67904" lon="4.64914">
        <ele>176</ele>
        <time>2011-05-27T13:15:05Z</time>
      </trkpt>
      <trkpt lat="49.67902" lon="4.64912">
        <ele>177</ele>
        <time>2011-05-27T13:15:06Z</time>
      </trkpt>
      <trkpt lat="49.67899" lon="4.64911">
        <ele>177</ele>
        <time>2011-05-27T13:15:07Z</time>
      </trkpt>
      <trkpt lat="49.67897" lon="4.64909">
        <ele>177</ele>
        <time>2011-05-27T13:15:08Z</time>
      </trkpt>
      <trkpt lat="49.67894" lon="4.64909">
        <ele>177</ele>
        <time>2011-05-27T13:15:09Z</time>
      </trkpt>
      <trkpt lat="49.67891" lon="4.64909">
        <ele>177</ele>
        <time>2011-05-27T13:15:10Z</time>
      </trkpt>
      <trkpt lat="49.67888" lon="4.64908">
        <ele>177</ele>
        <time>2011-05-27T13:15:11Z</time>
      </trkpt>
      <trkpt lat="49.67886" lon="4.64908">
        <ele>178</ele>
        <time>2011-05-27T13:15:12Z</time>
      </trkpt>
      <trkpt lat="49.67883" lon="4.64908">
        <ele>178</ele>
        <time>2011-05-27T13:15:13Z</time>
      </trkpt>
      <trkpt lat="49.6788" lon="4.64908">
        <ele>178</ele>
        <time>2011-05-27T13:15:14Z</time>
      </trkpt>
      <trkpt lat="49.67877" lon="4.64908">
        <ele>178</ele>
        <time>2011-05-27T13:15:15Z</time>
      </trkpt>
      <trkpt lat="49.67875" lon="4.64908">
        <ele>178</ele>
        <time>2011-05-27T13:15:16Z</time>
      </trkpt>
      <trkpt lat="49.67872" lon="4.64908">
        <ele>179</ele>
        <time>2011-05-27T13:15:17Z</time>
      </trkpt>
      <trkpt lat="49.67868" lon="4.64908">
        <ele>179</ele>
        <time>2011-05-27T13:15:18Z</time>
      </trkpt>
      <trkpt lat="49.67865" lon="4.64909">
        <ele>179</ele>
        <time>2011-05-27T13:15:19Z</time>
      </trkpt>
      <trkpt lat="49.67862" lon="4.64909">
        <ele>179</ele>
        <time>2011-05-27T13:15:20Z</time>
      </trkpt>
      <trkpt lat="49.67858" lon="4.6491">
        <ele>179</ele>
        <time>2011-05-27T13:15:21Z</time>
      </trkpt>
      <trkpt lat="49.67854" lon="4.6491">
        <ele>179</ele>
        <time>2011-05-27T13:15:22Z</time>
      </trkpt>
      <trkpt lat="49.6785" lon="4.6491">
        <ele>179</ele>
        <time>2011-05-27T13:15:23Z</time>
      </trkpt>
      <trkpt lat="49.67847" lon="4.6491">
        <ele>179</ele>
        <time>2011-05-27T13:15:24Z</time>
      </trkpt>
      <trkpt lat="49.67843" lon="4.64909">
        <ele>179</ele>
        <time>2011-05-27T13:15:25Z</time>
      </trkpt>
      <trkpt lat="49.67839" lon="4.64909">
        <ele>179</ele>
        <time>2011-05-27T13:15:26Z</time>
      </trkpt>
      <trkpt lat="49.67834" lon="4.64909">
        <ele>179</ele>
        <time>2011-05-27T13:15:27Z</time>
      </trkpt>
      <trkpt lat="49.6783" lon="4.64908">
        <ele>179</ele>
        <time>2011-05-27T13:15:28Z</time>
      </trkpt>
      <trkpt lat="49.67826" lon="4.64907">
        <ele>179</ele>
        <time>2011-05-27T13:15:29Z</time>
      </trkpt>
      <trkpt lat="49.67822" lon="4.64906">
        <ele>179</ele>
        <time>2011-05-27T13:15:30Z</time>
      </trkpt>
      <trkpt lat="49.67817" lon="4.64906">
        <ele>179</ele>
        <time>2011-05-27T13:15:31Z</time>
      </trkpt>
      <trkpt lat="49.67812" lon="4.64905">
        <ele>179</ele>
        <time>2011-05-27T13:15:32Z</time>
      </trkpt>
      <trkpt lat="49.67808" lon="4.64904">
        <ele>179</ele>
        <time>2011-05-27T13:15:33Z</time>
      </trkpt>
      <trkpt lat="49.67803" lon="4.64903">
        <ele>179</ele>
        <time>2011-05-27T13:15:34Z</time>
      </trkpt>
      <trkpt lat="49.67798" lon="4.64903">
        <ele>179</ele>
        <time>2011-05-27T13:15:35Z</time>
      </trkpt>
      <trkpt lat="49.67794" lon="4.64902">
        <ele>179</ele>
        <time>2011-05-27T13:15:36Z</time>
      </trkpt>
      <trkpt lat="49.67789" lon="4.64901">
        <ele>179</ele>
        <time>2011-05-27T13:15:37Z</time>
      </trkpt>
      <trkpt lat="49.67784" lon="4.649">
        <ele>179</ele>
        <time>2011-05-27T13:15:38Z</time>
      </trkpt>
      <trkpt lat="49.67779" lon="4.64899">
        <ele>179</ele>
        <time>2011-05-27T13:15:39Z</time>
      </trkpt>
      <trkpt lat="49.67774" lon="4.64898">
        <ele>179</ele>
        <time>2011-05-27T13:15:40Z</time>
      </trkpt>
      <trkpt lat="49.6777" lon="4.64897">
        <ele>179</ele>
        <time>2011-05-27T13:15:41Z</time>
      </trkpt>
      <trkpt lat="49.67765" lon="4.64895">
        <ele>179</ele>
        <time>2011-05-27T13:15:42Z</time>
      </trkpt>
      <trkpt lat="49.6776" lon="4.64894">
        <ele>179</ele>
        <time>2011-05-27T13:15:43Z</time>
      </trkpt>
      <trkpt lat="49.67756" lon="4.64892">
        <ele>179</ele>
        <time>2011-05-27T13:15:44Z</time>
      </trkpt>
      <trkpt lat="49.67751" lon="4.64891">
        <ele>179</ele>
        <time>2011-05-27T13:15:45Z</time>
      </trkpt>
      <trkpt lat="49.67746" lon="4.64889">
        <ele>179</ele>
        <time>2011-05-27T13:15:46Z</time>
      </trkpt>
      <trkpt lat="49.67742" lon="4.64887">
        <ele>179</ele>
        <time>2011-05-27T13:15:47Z</time>
      </trkpt>
      <trkpt lat="49.67738" lon="4.64886">
        <ele>179</ele>
        <time>2011-05-27T13:15:48Z</time>
      </trkpt>
      <trkpt lat="49.67733" lon="4.64884">
        <ele>179</ele>
        <time>2011-05-27T13:15:49Z</time>
      </trkpt>
      <trkpt lat="49.67729" lon="4.64881">
        <ele>179</ele>
        <time>2011-05-27T13:15:50Z</time>
      </trkpt>
      <trkpt lat="49.67725" lon="4.64879">
        <ele>179</ele>
        <time>2011-05-27T13:15:51Z</time>
      </trkpt>
      <trkpt lat="49.6772" lon="4.64877">
        <ele>179</ele>
        <time>2011-05-27T13:15:52Z</time>
      </trkpt>
      <trkpt lat="49.67715" lon="4.64875">
        <ele>179</ele>
        <time>2011-05-27T13:15:53Z</time>
      </trkpt>
      <trkpt lat="49.67711" lon="4.64873">
        <ele>179</ele>
        <time>2011-05-27T13:15:54Z</time>
      </trkpt>
      <trkpt lat="49.67706" lon="4.64871">
        <ele>179</ele>
        <time>2011-05-27T13:15:55Z</time>
      </trkpt>
      <trkpt lat="49.67701" lon="4.64869">
        <ele>179</ele>
        <time>2011-05-27T13:15:56Z</time>
      </trkpt>
      <trkpt lat="49.67697" lon="4.64867">
        <ele>179</ele>
        <time>2011-05-27T13:15:57Z</time>
      </trkpt>
      <trkpt lat="49.67692" lon="4.64865">
        <ele>179</ele>
        <time>2011-05-27T13:15:58Z</time>
      </trkpt>
      <trkpt lat="49.67688" lon="4.64863">
        <ele>179</ele>
        <time>2011-05-27T13:15:59Z</time>
      </trkpt>
      <trkpt lat="49.67683" lon="4.64861">
        <ele>179</ele>
        <time>2011-05-27T13:16:00Z</time>
      </trkpt>
      <trkpt lat="49.67678" lon="4.64858">
        <ele>179</ele>
        <time>2011-05-27T13:16:01Z</time>
      </trkpt>
      <trkpt lat="49.67673" lon="4.64856">
        <ele>179</ele>
        <time>2011-05-27T13:16:02Z</time>
      </trkpt>
      <trkpt lat="49.67668" lon="4.64853">
        <ele>179</ele>
        <time>2011-05-27T13:16:03Z</time>
      </trkpt>
      <trkpt lat="49.67663" lon="4.64851">
        <ele>179</ele>
        <time>2011-05-27T13:16:04Z</time>
      </trkpt>
      <trkpt lat="49.67658" lon="4.64848">
        <ele>179</ele>
        <time>2011-05-27T13:16:05Z</time>
      </trkpt>
      <trkpt lat="49.67653" lon="4.64844">
        <ele>179</ele>
        <time>2011-05-27T13:16:06Z</time>
      </trkpt>
      <trkpt lat="49.67648" lon="4.64841">
        <ele>179</ele>
        <time>2011-05-27T13:16:07Z</time>
      </trkpt>
      <trkpt lat="49.67642" lon="4.64837">
        <ele>179</ele>
        <time>2011-05-27T13:16:08Z</time>
      </trkpt>
      <trkpt lat="49.67637" lon="4.64833">
        <ele>179</ele>
        <time>2011-05-27T13:16:09Z</time>
      </trkpt>
      <trkpt lat="49.67632" lon="4.64829">
        <ele>179</ele>
        <time>2011-05-27T13:16:10Z</time>
      </trkpt>
      <trkpt lat="49.67627" lon="4.64825">
        <ele>179</ele>
        <time>2011-05-27T13:16:11Z</time>
      </trkpt>
      <trkpt lat="49.67622" lon="4.64821">
        <ele>179</ele>
        <time>2011-05-27T13:16:12Z</time>
      </trkpt>
      <trkpt lat="49.67617" lon="4.64817">
        <ele>179</ele>
        <time>2011-05-27T13:16:13Z</time>
      </trkpt>
      <trkpt lat="49.67612" lon="4.64814">
        <ele>179</ele>
        <time>2011-05-27T13:16:14Z</time>
      </trkpt>
      <trkpt lat="49.67607" lon="4.6481">
        <ele>179</ele>
        <time>2011-05-27T13:16:15Z</time>
      </trkpt>
      <trkpt lat="49.67602" lon="4.64807">
        <ele>179</ele>
        <time>2011-05-27T13:16:16Z</time>
      </trkpt>
      <trkpt lat="49.67597" lon="4.64803">
        <ele>179</ele>
        <time>2011-05-27T13:16:17Z</time>
      </trkpt>
      <trkpt lat="49.67592" lon="4.648">
        <ele>179</ele>
        <time>2011-05-27T13:16:18Z</time>
      </trkpt>
      <trkpt lat="49.67587" lon="4.64796">
        <ele>179</ele>
        <time>2011-05-27T13:16:19Z</time>
      </trkpt>
      <trkpt lat="49.67582" lon="4.64793">
        <ele>179</ele>
        <time>2011-05-27T13:16:20Z</time>
      </trkpt>
      <trkpt lat="49.67578" lon="4.6479">
        <ele>179</ele>
        <time>2011-05-27T13:16:21Z</time>
      </trkpt>
      <trkpt lat="49.67573" lon="4.64787">
        <ele>179</ele>
        <time>2011-05-27T13:16:22Z</time>
      </trkpt>
      <trkpt lat="49.67569" lon="4.64785">
        <ele>179</ele>
        <time>2011-05-27T13:16:23Z</time>
      </trkpt>
      <trkpt lat="49.67564" lon="4.64782">
        <ele>179</ele>
        <time>2011-05-27T13:16:24Z</time>
      </trkpt>
      <trkpt lat="49.67559" lon="4.64779">
        <ele>179</ele>
        <time>2011-05-27T13:16:25Z</time>
      </trkpt>
      <trkpt lat="49.67555" lon="4.64777">
        <ele>179</ele>
        <time>2011-05-27T13:16:26Z</time>
      </trkpt>
      <trkpt lat="49.6755" lon="4.64775">
        <ele>179</ele>
        <time>2011-05-27T13:16:27Z</time>
      </trkpt>
      <trkpt lat="49.67546" lon="4.64774">
        <ele>179</ele>
        <time>2011-05-27T13:16:28Z</time>
      </trkpt>
      <trkpt lat="49.67542" lon="4.64772">
        <ele>179</ele>
        <time>2011-05-27T13:16:29Z</time>
      </trkpt>
      <trkpt lat="49.67537" lon="4.6477">
        <ele>179</ele>
        <time>2011-05-27T13:16:30Z</time>
      </trkpt>
      <trkpt lat="49.67533" lon="4.64768">
        <ele>179</ele>
        <time>2011-05-27T13:16:31Z</time>
      </trkpt>
      <trkpt lat="49.67529" lon="4.64766">
        <ele>179</ele>
        <time>2011-05-27T13:16:32Z</time>
      </trkpt>
      <trkpt lat="49.67524" lon="4.64764">
        <ele>179</ele>
        <time>2011-05-27T13:16:33Z</time>
      </trkpt>
      <trkpt lat="49.6752" lon="4.64762">
        <ele>179</ele>
        <time>2011-05-27T13:16:34Z</time>
      </trkpt>
      <trkpt lat="49.67516" lon="4.6476">
        <ele>179</ele>
        <time>2011-05-27T13:16:35Z</time>
      </trkpt>
      <trkpt lat="49.67511" lon="4.64758">
        <ele>179</ele>
        <time>2011-05-27T13:16:36Z</time>
      </trkpt>
      <trkpt lat="49.67507" lon="4.64756">
        <ele>180</ele>
        <time>2011-05-27T13:16:37Z</time>
      </trkpt>
      <trkpt lat="49.67503" lon="4.64754">
        <ele>180</ele>
        <time>2011-05-27T13:16:38Z</time>
      </trkpt>
      <trkpt lat="49.67498" lon="4.64752">
        <ele>180</ele>
        <time>2011-05-27T13:16:39Z</time>
      </trkpt>
      <trkpt lat="49.67494" lon="4.6475">
        <ele>180</ele>
        <time>2011-05-27T13:16:40Z</time>
      </trkpt>
      <trkpt lat="49.67489" lon="4.64749">
        <ele>180</ele>
        <time>2011-05-27T13:16:41Z</time>
      </trkpt>
      <trkpt lat="49.67484" lon="4.64747">
        <ele>180</ele>
        <time>2011-05-27T13:16:42Z</time>
      </trkpt>
      <trkpt lat="49.6748" lon="4.64746">
        <ele>180</ele>
        <time>2011-05-27T13:16:43Z</time>
      </trkpt>
      <trkpt lat="49.67475" lon="4.64744">
        <ele>180</ele>
        <time>2011-05-27T13:16:44Z</time>
      </trkpt>
      <trkpt lat="49.6747" lon="4.64742">
        <ele>180</ele>
        <time>2011-05-27T13:16:45Z</time>
      </trkpt>
      <trkpt lat="49.67466" lon="4.6474">
        <ele>180</ele>
        <time>2011-05-27T13:16:46Z</time>
      </trkpt>
      <trkpt lat="49.67461" lon="4.64738">
        <ele>180</ele>
        <time>2011-05-27T13:16:47Z</time>
      </trkpt>
      <trkpt lat="49.67456" lon="4.64736">
        <ele>180</ele>
        <time>2011-05-27T13:16:48Z</time>
      </trkpt>
      <trkpt lat="49.67451" lon="4.64733">
        <ele>180</ele>
        <time>2011-05-27T13:16:49Z</time>
      </trkpt>
      <trkpt lat="49.67445" lon="4.64731">
        <ele>180</ele>
        <time>2011-05-27T13:16:50Z</time>
      </trkpt>
      <trkpt lat="49.6744" lon="4.64728">
        <ele>180</ele>
        <time>2011-05-27T13:16:51Z</time>
      </trkpt>
      <trkpt lat="49.67434" lon="4.64724">
        <ele>180</ele>
        <time>2011-05-27T13:16:52Z</time>
      </trkpt>
      <trkpt lat="49.67428" lon="4.64721">
        <ele>180</ele>
        <time>2011-05-27T13:16:53Z</time>
      </trkpt>
      <trkpt lat="49.67422" lon="4.64718">
        <ele>180</ele>
        <time>2011-05-27T13:16:54Z</time>
      </trkpt>
      <trkpt lat="49.67416" lon="4.64714">
        <ele>180</ele>
        <time>2011-05-27T13:16:55Z</time>
      </trkpt>
      <trkpt lat="49.67411" lon="4.6471">
        <ele>180</ele>
        <time>2011-05-27T13:16:56Z</time>
      </trkpt>
      <trkpt lat="49.67404" lon="4.64707">
        <ele>180</ele>
        <time>2011-05-27T13:16:57Z</time>
      </trkpt>
      <trkpt lat="49.67398" lon="4.64702">
        <ele>180</ele>
        <time>2011-05-27T13:16:58Z</time>
      </trkpt>
      <trkpt lat="49.67392" lon="4.64698">
        <ele>180</ele>
        <time>2011-05-27T13:16:59Z</time>
      </trkpt>
      <trkpt lat="49.67386" lon="4.64692">
        <ele>180</ele>
        <time>2011-05-27T13:17:00Z</time>
      </trkpt>
      <trkpt lat="49.67381" lon="4.64687">
        <ele>180</ele>
        <time>2011-05-27T13:17:01Z</time>
      </trkpt>
      <trkpt lat="49.67375" lon="4.6468">
        <ele>180</ele>
        <time>2011-05-27T13:17:02Z</time>
      </trkpt>
      <trkpt lat="49.6737" lon="4.64674">
        <ele>179</ele>
        <time>2011-05-27T13:17:03Z</time>
      </trkpt>
      <trkpt lat="49.67365" lon="4.64666">
        <ele>179</ele>
        <time>2011-05-27T13:17:04Z</time>
      </trkpt>
      <trkpt lat="49.6736" lon="4.64658">
        <ele>178</ele>
        <time>2011-05-27T13:17:05Z</time>
      </trkpt>
      <trkpt lat="49.67356" lon="4.6465">
        <ele>178</ele>
        <time>2011-05-27T13:17:06Z</time>
      </trkpt>
      <trkpt lat="49.67353" lon="4.64641">
        <ele>177</ele>
        <time>2011-05-27T13:17:07Z</time>
      </trkpt>
      <trkpt lat="49.67349" lon="4.64631">
        <ele>177</ele>
        <time>2011-05-27T13:17:08Z</time>
      </trkpt>
      <trkpt lat="49.67346" lon="4.64622">
        <ele>177</ele>
        <time>2011-05-27T13:17:09Z</time>
      </trkpt>
      <trkpt lat="49.67343" lon="4.64613">
        <ele>177</ele>
        <time>2011-05-27T13:17:10Z</time>
      </trkpt>
      <trkpt lat="49.6734" lon="4.64605">
        <ele>176</ele>
        <time>2011-05-27T13:17:11Z</time>
      </trkpt>
      <trkpt lat="49.67337" lon="4.64596">
        <ele>176</ele>
        <time>2011-05-27T13:17:12Z</time>
      </trkpt>
      <trkpt lat="49.67334" lon="4.64587">
        <ele>176</ele>
        <time>2011-05-27T13:17:13Z</time>
      </trkpt>
      <trkpt lat="49.67332" lon="4.64579">
        <ele>176</ele>
        <time>2011-05-27T13:17:14Z</time>
      </trkpt>
      <trkpt lat="49.67329" lon="4.64571">
        <ele>176</ele>
        <time>2011-05-27T13:17:15Z</time>
      </trkpt>
      <trkpt lat="49.67326" lon="4.64563">
        <ele>175</ele>
        <time>2011-05-27T13:17:16Z</time>
      </trkpt>
      <trkpt lat="49.67323" lon="4.64557">
        <ele>175</ele>
        <time>2011-05-27T13:17:17Z</time>
      </trkpt>
      <trkpt lat="49.6732" lon="4.6455">
        <ele>175</ele>
        <time>2011-05-27T13:17:18Z</time>
      </trkpt>
      <trkpt lat="49.67316" lon="4.64544">
        <ele>175</ele>
        <time>2011-05-27T13:17:19Z</time>
      </trkpt>
      <trkpt lat="49.67313" lon="4.64538">
        <ele>175</ele>
        <time>2011-05-27T13:17:20Z</time>
      </trkpt>
      <trkpt lat="49.6731" lon="4.64532">
        <ele>175</ele>
        <time>2011-05-27T13:17:21Z</time>
      </trkpt>
      <trkpt lat="49.67307" lon="4.64526">
        <ele>175</ele>
        <time>2011-05-27T13:17:22Z</time>
      </trkpt>
      <trkpt lat="49.67303" lon="4.64521">
        <ele>175</ele>
        <time>2011-05-27T13:17:23Z</time>
      </trkpt>
      <trkpt lat="49.673" lon="4.64515">
        <ele>175</ele>
        <time>2011-05-27T13:17:24Z</time>
      </trkpt>
      <trkpt lat="49.67297" lon="4.6451">
        <ele>175</ele>
        <time>2011-05-27T13:17:25Z</time>
      </trkpt>
      <trkpt lat="49.67295" lon="4.64505">
        <ele>175</ele>
        <time>2011-05-27T13:17:26Z</time>
      </trkpt>
      <trkpt lat="49.67292" lon="4.645">
        <ele>175</ele>
        <time>2011-05-27T13:17:27Z</time>
      </trkpt>
      <trkpt lat="49.67288" lon="4.64496">
        <ele>175</ele>
        <time>2011-05-27T13:17:28Z</time>
      </trkpt>
      <trkpt lat="49.67285" lon="4.6449">
        <ele>175</ele>
        <time>2011-05-27T13:17:29Z</time>
      </trkpt>
      <trkpt lat="49.67282" lon="4.64485">
        <ele>175</ele>
        <time>2011-05-27T13:17:30Z</time>
      </trkpt>
      <trkpt lat="49.67279" lon="4.6448">
        <ele>175</ele>
        <time>2011-05-27T13:17:31Z</time>
      </trkpt>
      <trkpt lat="49.67276" lon="4.64475">
        <ele>175</ele>
        <time>2011-05-27T13:17:32Z</time>
      </trkpt>
      <trkpt lat="49.67273" lon="4.6447">
        <ele>175</ele>
        <time>2011-05-27T13:17:33Z</time>
      </trkpt>
      <trkpt lat="49.6727" lon="4.64466">
        <ele>175</ele>
        <time>2011-05-27T13:17:34Z</time>
      </trkpt>
      <trkpt lat="49.67267" lon="4.64461">
        <ele>175</ele>
        <time>2011-05-27T13:17:35Z</time>
      </trkpt>
      <trkpt lat="49.67264" lon="4.64457">
        <ele>175</ele>
        <time>2011-05-27T13:17:36Z</time>
      </trkpt>
      <trkpt lat="49.67262" lon="4.64453">
        <ele>175</ele>
        <time>2011-05-27T13:17:37Z</time>
      </trkpt>
      <trkpt lat="49.67259" lon="4.64448">
        <ele>175</ele>
        <time>2011-05-27T13:17:38Z</time>
      </trkpt>
      <trkpt lat="49.67257" lon="4.64444">
        <ele>175</ele>
        <time>2011-05-27T13:17:39Z</time>
      </trkpt>
      <trkpt lat="49.67254" lon="4.6444">
        <ele>175</ele>
        <time>2011-05-27T13:17:40Z</time>
      </trkpt>
      <trkpt lat="49.67252" lon="4.64436">
        <ele>175</ele>
        <time>2011-05-27T13:17:41Z</time>
      </trkpt>
      <trkpt lat="49.6725" lon="4.64432">
        <ele>175</ele>
        <time>2011-05-27T13:17:42Z</time>
      </trkpt>
      <trkpt lat="49.67248" lon="4.64428">
        <ele>175</ele>
        <time>2011-05-27T13:17:43Z</time>
      </trkpt>
      <trkpt lat="49.67245" lon="4.64424">
        <ele>175</ele>
        <time>2011-05-27T13:17:44Z</time>
      </trkpt>
      <trkpt lat="49.67243" lon="4.6442">
        <ele>175</ele>
        <time>2011-05-27T13:17:45Z</time>
      </trkpt>
      <trkpt lat="49.6724" lon="4.64417">
        <ele>175</ele>
        <time>2011-05-27T13:17:46Z</time>
      </trkpt>
      <trkpt lat="49.67237" lon="4.64412">
        <ele>175</ele>
        <time>2011-05-27T13:17:47Z</time>
      </trkpt>
      <trkpt lat="49.67234" lon="4.64408">
        <ele>175</ele>
        <time>2011-05-27T13:17:48Z</time>
      </trkpt>
      <trkpt lat="49.67232" lon="4.64404">
        <ele>175</ele>
        <time>2011-05-27T13:17:49Z</time>
      </trkpt>
      <trkpt lat="49.67229" lon="4.64399">
        <ele>175</ele>
        <time>2011-05-27T13:17:50Z</time>
      </trkpt>
      <trkpt lat="49.67226" lon="4.64395">
        <ele>175</ele>
        <time>2011-05-27T13:17:51Z</time>
      </trkpt>
      <trkpt lat="49.67224" lon="4.64391">
        <ele>175</ele>
        <time>2011-05-27T13:17:52Z</time>
      </trkpt>
      <trkpt lat="49.67222" lon="4.64386">
        <ele>175</ele>
        <time>2011-05-27T13:17:53Z</time>
      </trkpt>
      <trkpt lat="49.67219" lon="4.64381">
        <ele>176</ele>
        <time>2011-05-27T13:17:54Z</time>
      </trkpt>
      <trkpt lat="49.67217" lon="4.64376">
        <ele>176</ele>
        <time>2011-05-27T13:17:55Z</time>
      </trkpt>
      <trkpt lat="49.67215" lon="4.64371">
        <ele>176</ele>
        <time>2011-05-27T13:17:56Z</time>
      </trkpt>
      <trkpt lat="49.67213" lon="4.64366">
        <ele>176</ele>
        <time>2011-05-27T13:17:57Z</time>
      </trkpt>
      <trkpt lat="49.67211" lon="4.64361">
        <ele>176</ele>
        <time>2011-05-27T13:17:58Z</time>
      </trkpt>
      <trkpt lat="49.67208" lon="4.64356">
        <ele>176</ele>
        <time>2011-05-27T13:17:59Z</time>
      </trkpt>
      <trkpt lat="49.67207" lon="4.6435">
        <ele>176</ele>
        <time>2011-05-27T13:18:00Z</time>
      </trkpt>
      <trkpt lat="49.67205" lon="4.64345">
        <ele>176</ele>
        <time>2011-05-27T13:18:01Z</time>
      </trkpt>
      <trkpt lat="49.67204" lon="4.6434">
        <ele>176</ele>
        <time>2011-05-27T13:18:02Z</time>
      </trkpt>
      <trkpt lat="49.67202" lon="4.64334">
        <ele>176</ele>
        <time>2011-05-27T13:18:03Z</time>
      </trkpt>
      <trkpt lat="49.672" lon="4.64329">
        <ele>176</ele>
        <time>2011-05-27T13:18:04Z</time>
      </trkpt>
      <trkpt lat="49.67198" lon="4.64324">
        <ele>176</ele>
        <time>2011-05-27T13:18:05Z</time>
      </trkpt>
      <trkpt lat="49.67196" lon="4.64319">
        <ele>176</ele>
        <time>2011-05-27T13:18:06Z</time>
      </trkpt>
      <trkpt lat="49.67194" lon="4.64314">
        <ele>176</ele>
        <time>2011-05-27T13:18:07Z</time>
      </trkpt>
      <trkpt lat="49.67193" lon="4.64309">
        <ele>176</ele>
        <time>2011-05-27T13:18:08Z</time>
      </trkpt>
      <trkpt lat="49.67192" lon="4.64304">
        <ele>176</ele>
        <time>2011-05-27T13:18:09Z</time>
      </trkpt>
      <trkpt lat="49.6719" lon="4.64299">
        <ele>176</ele>
        <time>2011-05-27T13:18:10Z</time>
      </trkpt>
      <trkpt lat="49.67188" lon="4.64294">
        <ele>177</ele>
        <time>2011-05-27T13:18:11Z</time>
      </trkpt>
      <trkpt lat="49.67187" lon="4.64289">
        <ele>177</ele>
        <time>2011-05-27T13:18:12Z</time>
      </trkpt>
      <trkpt lat="49.67185" lon="4.64283">
        <ele>177</ele>
        <time>2011-05-27T13:18:13Z</time>
      </trkpt>
      <trkpt lat="49.67183" lon="4.64278">
        <ele>178</ele>
        <time>2011-05-27T13:18:14Z</time>
      </trkpt>
      <trkpt lat="49.67182" lon="4.64272">
        <ele>178</ele>
        <time>2011-05-27T13:18:15Z</time>
      </trkpt>
      <trkpt lat="49.67181" lon="4.64267">
        <ele>178</ele>
        <time>2011-05-27T13:18:16Z</time>
      </trkpt>
      <trkpt lat="49.67179" lon="4.64262">
        <ele>179</ele>
        <time>2011-05-27T13:18:17Z</time>
      </trkpt>
      <trkpt lat="49.67178" lon="4.64257">
        <ele>179</ele>
        <time>2011-05-27T13:18:18Z</time>
      </trkpt>
      <trkpt lat="49.67176" lon="4.64251">
        <ele>179</ele>
        <time>2011-05-27T13:18:19Z</time>
      </trkpt>
      <trkpt lat="49.67175" lon="4.64246">
        <ele>179</ele>
        <time>2011-05-27T13:18:20Z</time>
      </trkpt>
      <trkpt lat="49.67173" lon="4.64241">
        <ele>179</ele>
        <time>2011-05-27T13:18:21Z</time>
      </trkpt>
      <trkpt lat="49.67172" lon="4.64235">
        <ele>179</ele>
        <time>2011-05-27T13:18:22Z</time>
      </trkpt>
      <trkpt lat="49.67171" lon="4.6423">
        <ele>179</ele>
        <time>2011-05-27T13:18:23Z</time>
      </trkpt>
      <trkpt lat="49.67169" lon="4.64225">
        <ele>180</ele>
        <time>2011-05-27T13:18:24Z</time>
      </trkpt>
      <trkpt lat="49.67168" lon="4.6422">
        <ele>180</ele>
        <time>2011-05-27T13:18:25Z</time>
      </trkpt>
      <trkpt lat="49.67167" lon="4.64215">
        <ele>181</ele>
        <time>2011-05-27T13:18:26Z</time>
      </trkpt>
      <trkpt lat="49.67166" lon="4.64209">
        <ele>181</ele>
        <time>2011-05-27T13:18:27Z</time>
      </trkpt>
      <trkpt lat="49.67164" lon="4.64204">
        <ele>182</ele>
        <time>2011-05-27T13:18:28Z</time>
      </trkpt>
      <trkpt lat="49.67163" lon="4.64198">
        <ele>182</ele>
        <time>2011-05-27T13:18:29Z</time>
      </trkpt>
      <trkpt lat="49.67162" lon="4.64193">
        <ele>182</ele>
        <time>2011-05-27T13:18:30Z</time>
      </trkpt>
      <trkpt lat="49.67161" lon="4.64188">
        <ele>183</ele>
        <time>2011-05-27T13:18:31Z</time>
      </trkpt>
      <trkpt lat="49.67159" lon="4.64182">
        <ele>183</ele>
        <time>2011-05-27T13:18:32Z</time>
      </trkpt>
      <trkpt lat="49.67157" lon="4.64177">
        <ele>183</ele>
        <time>2011-05-27T13:18:33Z</time>
      </trkpt>
      <trkpt lat="49.67155" lon="4.64171">
        <ele>184</ele>
        <time>2011-05-27T13:18:34Z</time>
      </trkpt>
      <trkpt lat="49.67154" lon="4.64165">
        <ele>184</ele>
        <time>2011-05-27T13:18:35Z</time>
      </trkpt>
      <trkpt lat="49.67152" lon="4.64159">
        <ele>184</ele>
        <time>2011-05-27T13:18:36Z</time>
      </trkpt>
      <trkpt lat="49.6715" lon="4.64154">
        <ele>184</ele>
        <time>2011-05-27T13:18:37Z</time>
      </trkpt>
      <trkpt lat="49.67149" lon="4.64148">
        <ele>184</ele>
        <time>2011-05-27T13:18:38Z</time>
      </trkpt>
      <trkpt lat="49.67147" lon="4.64142">
        <ele>184</ele>
        <time>2011-05-27T13:18:39Z</time>
      </trkpt>
      <trkpt lat="49.67145" lon="4.64136">
        <ele>184</ele>
        <time>2011-05-27T13:18:40Z</time>
      </trkpt>
      <trkpt lat="49.67142" lon="4.64129">
        <ele>184</ele>
        <time>2011-05-27T13:18:41Z</time>
      </trkpt>
      <trkpt lat="49.67139" lon="4.64122">
        <ele>184</ele>
        <time>2011-05-27T13:18:42Z</time>
      </trkpt>
      <trkpt lat="49.67137" lon="4.64115">
        <ele>184</ele>
        <time>2011-05-27T13:18:43Z</time>
      </trkpt>
      <trkpt lat="49.67136" lon="4.64109">
        <ele>184</ele>
        <time>2011-05-27T13:18:44Z</time>
      </trkpt>
      <trkpt lat="49.67134" lon="4.64103">
        <ele>184</ele>
        <time>2011-05-27T13:18:45Z</time>
      </trkpt>
      <trkpt lat="49.67132" lon="4.64097">
        <ele>184</ele>
        <time>2011-05-27T13:18:46Z</time>
      </trkpt>
      <trkpt lat="49.67131" lon="4.64091">
        <ele>184</ele>
        <time>2011-05-27T13:18:47Z</time>
      </trkpt>
      <trkpt lat="49.67129" lon="4.64086">
        <ele>184</ele>
        <time>2011-05-27T13:18:48Z</time>
      </trkpt>
      <trkpt lat="49.67127" lon="4.6408">
        <ele>184</ele>
        <time>2011-05-27T13:18:49Z</time>
      </trkpt>
      <trkpt lat="49.67125" lon="4.64074">
        <ele>184</ele>
        <time>2011-05-27T13:18:50Z</time>
      </trkpt>
      <trkpt lat="49.67123" lon="4.64068">
        <ele>184</ele>
        <time>2011-05-27T13:18:51Z</time>
      </trkpt>
      <trkpt lat="49.67121" lon="4.64061">
        <ele>184</ele>
        <time>2011-05-27T13:18:52Z</time>
      </trkpt>
      <trkpt lat="49.6712" lon="4.64055">
        <ele>184</ele>
        <time>2011-05-27T13:18:53Z</time>
      </trkpt>
      <trkpt lat="49.67119" lon="4.64049">
        <ele>184</ele>
        <time>2011-05-27T13:18:54Z</time>
      </trkpt>
      <trkpt lat="49.67118" lon="4.64043">
        <ele>184</ele>
        <time>2011-05-27T13:18:55Z</time>
      </trkpt>
      <trkpt lat="49.67117" lon="4.64036">
        <ele>184</ele>
        <time>2011-05-27T13:18:56Z</time>
      </trkpt>
      <trkpt lat="49.67115" lon="4.64029">
        <ele>184</ele>
        <time>2011-05-27T13:18:57Z</time>
      </trkpt>
      <trkpt lat="49.67114" lon="4.64022">
        <ele>184</ele>
        <time>2011-05-27T13:18:58Z</time>
      </trkpt>
      <trkpt lat="49.67113" lon="4.64015">
        <ele>184</ele>
        <time>2011-05-27T13:18:59Z</time>
      </trkpt>
      <trkpt lat="49.67112" lon="4.64009">
        <ele>184</ele>
        <time>2011-05-27T13:19:00Z</time>
      </trkpt>
      <trkpt lat="49.6711" lon="4.64002">
        <ele>184</ele>
        <time>2011-05-27T13:19:01Z</time>
      </trkpt>
      <trkpt lat="49.67109" lon="4.63994">
        <ele>184</ele>
        <time>2011-05-27T13:19:02Z</time>
      </trkpt>
      <trkpt lat="49.67107" lon="4.63988">
        <ele>184</ele>
        <time>2011-05-27T13:19:03Z</time>
      </trkpt>
      <trkpt lat="49.67105" lon="4.63981">
        <ele>184</ele>
        <time>2011-05-27T13:19:04Z</time>
      </trkpt>
      <trkpt lat="49.67104" lon="4.63973">
        <ele>184</ele>
        <time>2011-05-27T13:19:05Z</time>
      </trkpt>
      <trkpt lat="49.67102" lon="4.63967">
        <ele>184</ele>
        <time>2011-05-27T13:19:06Z</time>
      </trkpt>
      <trkpt lat="49.67101" lon="4.63961">
        <ele>184</ele>
        <time>2011-05-27T13:19:07Z</time>
      </trkpt>
      <trkpt lat="49.671" lon="4.63955">
        <ele>184</ele>
        <time>2011-05-27T13:19:08Z</time>
      </trkpt>
      <trkpt lat="49.67099" lon="4.63948">
        <ele>184</ele>
        <time>2011-05-27T13:19:09Z</time>
      </trkpt>
      <trkpt lat="49.67098" lon="4.63942">
        <ele>184</ele>
        <time>2011-05-27T13:19:10Z</time>
      </trkpt>
      <trkpt lat="49.67097" lon="4.63936">
        <ele>184</ele>
        <time>2011-05-27T13:19:11Z</time>
      </trkpt>
      <trkpt lat="49.67096" lon="4.63929">
        <ele>184</ele>
        <time>2011-05-27T13:19:12Z</time>
      </trkpt>
      <trkpt lat="49.67095" lon="4.63923">
        <ele>184</ele>
        <time>2011-05-27T13:19:13Z</time>
      </trkpt>
      <trkpt lat="49.67094" lon="4.63916">
        <ele>184</ele>
        <time>2011-05-27T13:19:14Z</time>
      </trkpt>
      <trkpt lat="49.67092" lon="4.6391">
        <ele>184</ele>
        <time>2011-05-27T13:19:15Z</time>
      </trkpt>
      <trkpt lat="49.6709" lon="4.63903">
        <ele>184</ele>
        <time>2011-05-27T13:19:16Z</time>
      </trkpt>
      <trkpt lat="49.67088" lon="4.63896">
        <ele>184</ele>
        <time>2011-05-27T13:19:17Z</time>
      </trkpt>
      <trkpt lat="49.67086" lon="4.6389">
        <ele>184</ele>
        <time>2011-05-27T13:19:18Z</time>
      </trkpt>
      <trkpt lat="49.67085" lon="4.63883">
        <ele>184</ele>
        <time>2011-05-27T13:19:19Z</time>
      </trkpt>
      <trkpt lat="49.67082" lon="4.63876">
        <ele>184</ele>
        <time>2011-05-27T13:19:20Z</time>
      </trkpt>
      <trkpt lat="49.67081" lon="4.63869">
        <ele>184</ele>
        <time>2011-05-27T13:19:21Z</time>
      </trkpt>
      <trkpt lat="49.6708" lon="4.63863">
        <ele>184</ele>
        <time>2011-05-27T13:19:22Z</time>
      </trkpt>
      <trkpt lat="49.67078" lon="4.63857">
        <ele>184</ele>
        <time>2011-05-27T13:19:23Z</time>
      </trkpt>
      <trkpt lat="49.67076" lon="4.6385">
        <ele>184</ele>
        <time>2011-05-27T13:19:24Z</time>
      </trkpt>
      <trkpt lat="49.67074" lon="4.63844">
        <ele>184</ele>
        <time>2011-05-27T13:19:25Z</time>
      </trkpt>
      <trkpt lat="49.67071" lon="4.63837">
        <ele>184</ele>
        <time>2011-05-27T13:19:26Z</time>
      </trkpt>
      <trkpt lat="49.67068" lon="4.6383">
        <ele>184</ele>
        <time>2011-05-27T13:19:27Z</time>
      </trkpt>
      <trkpt lat="49.67066" lon="4.63825">
        <ele>185</ele>
        <time>2011-05-27T13:19:28Z</time>
      </trkpt>
      <trkpt lat="49.67063" lon="4.63818">
        <ele>185</ele>
        <time>2011-05-27T13:19:29Z</time>
      </trkpt>
      <trkpt lat="49.67059" lon="4.63812">
        <ele>185</ele>
        <time>2011-05-27T13:19:30Z</time>
      </trkpt>
      <trkpt lat="49.67056" lon="4.63805">
        <ele>185</ele>
        <time>2011-05-27T13:19:31Z</time>
      </trkpt>
      <trkpt lat="49.67052" lon="4.63799">
        <ele>185</ele>
        <time>2011-05-27T13:19:32Z</time>
      </trkpt>
      <trkpt lat="49.67048" lon="4.63793">
        <ele>185</ele>
        <time>2011-05-27T13:19:33Z</time>
      </trkpt>
      <trkpt lat="49.67044" lon="4.63788">
        <ele>185</ele>
        <time>2011-05-27T13:19:34Z</time>
      </trkpt>
      <trkpt lat="49.6704" lon="4.63782">
        <ele>185</ele>
        <time>2011-05-27T13:19:35Z</time>
      </trkpt>
      <trkpt lat="49.67036" lon="4.63778">
        <ele>185</ele>
        <time>2011-05-27T13:19:36Z</time>
      </trkpt>
      <trkpt lat="49.67032" lon="4.63773">
        <ele>185</ele>
        <time>2011-05-27T13:19:37Z</time>
      </trkpt>
      <trkpt lat="49.67029" lon="4.63769">
        <ele>185</ele>
        <time>2011-05-27T13:19:38Z</time>
      </trkpt>
      <trkpt lat="49.67025" lon="4.63766">
        <ele>185</ele>
        <time>2011-05-27T13:19:39Z</time>
      </trkpt>
      <trkpt lat="49.67022" lon="4.63763">
        <ele>185</ele>
        <time>2011-05-27T13:19:40Z</time>
      </trkpt>
      <trkpt lat="49.67018" lon="4.63759">
        <ele>185</ele>
        <time>2011-05-27T13:19:41Z</time>
      </trkpt>
      <trkpt lat="49.67015" lon="4.63754">
        <ele>185</ele>
        <time>2011-05-27T13:19:42Z</time>
      </trkpt>
      <trkpt lat="49.67012" lon="4.6375">
        <ele>185</ele>
        <time>2011-05-27T13:19:43Z</time>
      </trkpt>
      <trkpt lat="49.67008" lon="4.63745">
        <ele>185</ele>
        <time>2011-05-27T13:19:44Z</time>
      </trkpt>
      <trkpt lat="49.67003" lon="4.6374">
        <ele>185</ele>
        <time>2011-05-27T13:19:45Z</time>
      </trkpt>
      <trkpt lat="49.67" lon="4.63736">
        <ele>185</ele>
        <time>2011-05-27T13:19:46Z</time>
      </trkpt>
      <trkpt lat="49.66996" lon="4.63732">
        <ele>185</ele>
        <time>2011-05-27T13:19:47Z</time>
      </trkpt>
      <trkpt lat="49.66992" lon="4.63727">
        <ele>185</ele>
        <time>2011-05-27T13:19:48Z</time>
      </trkpt>
      <trkpt lat="49.66988" lon="4.63722">
        <ele>185</ele>
        <time>2011-05-27T13:19:49Z</time>
      </trkpt>
      <trkpt lat="49.66983" lon="4.63717">
        <ele>185</ele>
        <time>2011-05-27T13:19:50Z</time>
      </trkpt>
      <trkpt lat="49.66979" lon="4.63712">
        <ele>185</ele>
        <time>2011-05-27T13:19:51Z</time>
      </trkpt>
      <trkpt lat="49.66975" lon="4.63707">
        <ele>185</ele>
        <time>2011-05-27T13:19:52Z</time>
      </trkpt>
      <trkpt lat="49.66971" lon="4.63702">
        <ele>185</ele>
        <time>2011-05-27T13:19:53Z</time>
      </trkpt>
      <trkpt lat="49.66967" lon="4.63698">
        <ele>185</ele>
        <time>2011-05-27T13:19:54Z</time>
      </trkpt>
      <trkpt lat="49.66963" lon="4.63694">
        <ele>185</ele>
        <time>2011-05-27T13:19:55Z</time>
      </trkpt>
      <trkpt lat="49.66959" lon="4.6369">
        <ele>185</ele>
        <time>2011-05-27T13:19:56Z</time>
      </trkpt>
      <trkpt lat="49.66955" lon="4.63686">
        <ele>185</ele>
        <time>2011-05-27T13:19:57Z</time>
      </trkpt>
      <trkpt lat="49.66951" lon="4.63682">
        <ele>185</ele>
        <time>2011-05-27T13:19:58Z</time>
      </trkpt>
      <trkpt lat="49.66946" lon="4.63677">
        <ele>185</ele>
        <time>2011-05-27T13:19:59Z</time>
      </trkpt>
      <trkpt lat="49.66943" lon="4.63673">
        <ele>185</ele>
        <time>2011-05-27T13:20:00Z</time>
      </trkpt>
      <trkpt lat="49.66939" lon="4.6367">
        <ele>185</ele>
        <time>2011-05-27T13:20:01Z</time>
      </trkpt>
      <trkpt lat="49.66935" lon="4.63665">
        <ele>185</ele>
        <time>2011-05-27T13:20:02Z</time>
      </trkpt>
      <trkpt lat="49.66931" lon="4.63661">
        <ele>185</ele>
        <time>2011-05-27T13:20:03Z</time>
      </trkpt>
      <trkpt lat="49.66927" lon="4.63659">
        <ele>185</ele>
        <time>2011-05-27T13:20:04Z</time>
      </trkpt>
      <trkpt lat="49.66923" lon="4.63656">
        <ele>185</ele>
        <time>2011-05-27T13:20:05Z</time>
      </trkpt>
      <trkpt lat="49.66919" lon="4.63653">
        <ele>185</ele>
        <time>2011-05-27T13:20:06Z</time>
      </trkpt>
      <trkpt lat="49.66914" lon="4.63651">
        <ele>185</ele>
        <time>2011-05-27T13:20:07Z</time>
      </trkpt>
      <trkpt lat="49.66909" lon="4.63648">
        <ele>185</ele>
        <time>2011-05-27T13:20:08Z</time>
      </trkpt>
      <trkpt lat="49.66905" lon="4.63646">
        <ele>185</ele>
        <time>2011-05-27T13:20:09Z</time>
      </trkpt>
      <trkpt lat="49.669" lon="4.63642">
        <ele>185</ele>
        <time>2011-05-27T13:20:10Z</time>
      </trkpt>
      <trkpt lat="49.66895" lon="4.63639">
        <ele>185</ele>
        <time>2011-05-27T13:20:12Z</time>
      </trkpt>
      <trkpt lat="49.66889" lon="4.63636">
        <ele>185</ele>
        <time>2011-05-27T13:20:12Z</time>
      </trkpt>
      <trkpt lat="49.66884" lon="4.63635">
        <ele>185</ele>
        <time>2011-05-27T13:20:13Z</time>
      </trkpt>
      <trkpt lat="49.66877" lon="4.63634">
        <ele>185</ele>
        <time>2011-05-27T13:20:14Z</time>
      </trkpt>
      <trkpt lat="49.66871" lon="4.63632">
        <ele>185</ele>
        <time>2011-05-27T13:20:15Z</time>
      </trkpt>
      <trkpt lat="49.66864" lon="4.63629">
        <ele>185</ele>
        <time>2011-05-27T13:20:16Z</time>
      </trkpt>
      <trkpt lat="49.66856" lon="4.63627">
        <ele>184</ele>
        <time>2011-05-27T13:20:17Z</time>
      </trkpt>
      <trkpt lat="49.6685" lon="4.63626">
        <ele>183</ele>
        <time>2011-05-27T13:20:18Z</time>
      </trkpt>
      <trkpt lat="49.66843" lon="4.63628">
        <ele>182</ele>
        <time>2011-05-27T13:20:19Z</time>
      </trkpt>
      <trkpt lat="49.66836" lon="4.6363">
        <ele>181</ele>
        <time>2011-05-27T13:20:20Z</time>
      </trkpt>
      <trkpt lat="49.66828" lon="4.63633">
        <ele>181</ele>
        <time>2011-05-27T13:20:21Z</time>
      </trkpt>
      <trkpt lat="49.66822" lon="4.63637">
        <ele>180</ele>
        <time>2011-05-27T13:20:22Z</time>
      </trkpt>
      <trkpt lat="49.66816" lon="4.63644">
        <ele>180</ele>
        <time>2011-05-27T13:20:23Z</time>
      </trkpt>
      <trkpt lat="49.66812" lon="4.63654">
        <ele>179</ele>
        <time>2011-05-27T13:20:24Z</time>
      </trkpt>
      <trkpt lat="49.66811" lon="4.63666">
        <ele>178</ele>
        <time>2011-05-27T13:20:25Z</time>
      </trkpt>
      <trkpt lat="49.66809" lon="4.63679">
        <ele>177</ele>
        <time>2011-05-27T13:20:26Z</time>
      </trkpt>
      <trkpt lat="49.66806" lon="4.6369">
        <ele>176</ele>
        <time>2011-05-27T13:20:27Z</time>
      </trkpt>
      <trkpt lat="49.66803" lon="4.63701">
        <ele>175</ele>
        <time>2011-05-27T13:20:28Z</time>
      </trkpt>
      <trkpt lat="49.66801" lon="4.63712">
        <ele>174</ele>
        <time>2011-05-27T13:20:29Z</time>
      </trkpt>
      <trkpt lat="49.66798" lon="4.63723">
        <ele>173</ele>
        <time>2011-05-27T13:20:30Z</time>
      </trkpt>
      <trkpt lat="49.66795" lon="4.63735">
        <ele>172</ele>
        <time>2011-05-27T13:20:31Z</time>
      </trkpt>
      <trkpt lat="49.66792" lon="4.63749">
        <ele>171</ele>
        <time>2011-05-27T13:20:32Z</time>
      </trkpt>
      <trkpt lat="49.66789" lon="4.6376">
        <ele>170</ele>
        <time>2011-05-27T13:20:33Z</time>
      </trkpt>
      <trkpt lat="49.66785" lon="4.63771">
        <ele>169</ele>
        <time>2011-05-27T13:20:34Z</time>
      </trkpt>
      <trkpt lat="49.66782" lon="4.63783">
        <ele>169</ele>
        <time>2011-05-27T13:20:35Z</time>
      </trkpt>
      <trkpt lat="49.66779" lon="4.63795">
        <ele>169</ele>
        <time>2011-05-27T13:20:36Z</time>
      </trkpt>
      <trkpt lat="49.66776" lon="4.63805">
        <ele>169</ele>
        <time>2011-05-27T13:20:37Z</time>
      </trkpt>
      <trkpt lat="49.66773" lon="4.63816">
        <ele>169</ele>
        <time>2011-05-27T13:20:38Z</time>
      </trkpt>
      <trkpt lat="49.66771" lon="4.63826">
        <ele>169</ele>
        <time>2011-05-27T13:20:39Z</time>
      </trkpt>
      <trkpt lat="49.6677" lon="4.63835">
        <ele>169</ele>
        <time>2011-05-27T13:20:40Z</time>
      </trkpt>
      <trkpt lat="49.66769" lon="4.63844">
        <ele>169</ele>
        <time>2011-05-27T13:20:41Z</time>
      </trkpt>
      <trkpt lat="49.66769" lon="4.63854">
        <ele>169</ele>
        <time>2011-05-27T13:20:42Z</time>
      </trkpt>
      <trkpt lat="49.6677" lon="4.63863">
        <ele>169</ele>
        <time>2011-05-27T13:20:43Z</time>
      </trkpt>
      <trkpt lat="49.66773" lon="4.6387">
        <ele>169</ele>
        <time>2011-05-27T13:20:44Z</time>
      </trkpt>
      <trkpt lat="49.66777" lon="4.63877">
        <ele>169</ele>
        <time>2011-05-27T13:20:45Z</time>
      </trkpt>
      <trkpt lat="49.6678" lon="4.63884">
        <ele>169</ele>
        <time>2011-05-27T13:20:46Z</time>
      </trkpt>
      <trkpt lat="49.66783" lon="4.63891">
        <ele>169</ele>
        <time>2011-05-27T13:20:47Z</time>
      </trkpt>
      <trkpt lat="49.66784" lon="4.63899">
        <ele>169</ele>
        <time>2011-05-27T13:20:48Z</time>
      </trkpt>
      <trkpt lat="49.66785" lon="4.63907">
        <ele>169</ele>
        <time>2011-05-27T13:20:49Z</time>
      </trkpt>
      <trkpt lat="49.66785" lon="4.63916">
        <ele>169</ele>
        <time>2011-05-27T13:20:50Z</time>
      </trkpt>
      <trkpt lat="49.66786" lon="4.63924">
        <ele>169</ele>
        <time>2011-05-27T13:20:51Z</time>
      </trkpt>
      <trkpt lat="49.66788" lon="4.63932">
        <ele>169</ele>
        <time>2011-05-27T13:20:52Z</time>
      </trkpt>
      <trkpt lat="49.6679" lon="4.6394">
        <ele>169</ele>
        <time>2011-05-27T13:20:53Z</time>
      </trkpt>
      <trkpt lat="49.6679" lon="4.63949">
        <ele>169</ele>
        <time>2011-05-27T13:20:54Z</time>
      </trkpt>
      <trkpt lat="49.6679" lon="4.63958">
        <ele>169</ele>
        <time>2011-05-27T13:20:55Z</time>
      </trkpt>
      <trkpt lat="49.66789" lon="4.63968">
        <ele>169</ele>
        <time>2011-05-27T13:20:56Z</time>
      </trkpt>
      <trkpt lat="49.66787" lon="4.63977">
        <ele>169</ele>
        <time>2011-05-27T13:20:57Z</time>
      </trkpt>
      <trkpt lat="49.66785" lon="4.63986">
        <ele>169</ele>
        <time>2011-05-27T13:20:58Z</time>
      </trkpt>
      <trkpt lat="49.66783" lon="4.63994">
        <ele>169</ele>
        <time>2011-05-27T13:20:59Z</time>
      </trkpt>
      <trkpt lat="49.66781" lon="4.64003">
        <ele>169</ele>
        <time>2011-05-27T13:21:00Z</time>
      </trkpt>
      <trkpt lat="49.6678" lon="4.64012">
        <ele>169</ele>
        <time>2011-05-27T13:21:01Z</time>
      </trkpt>
      <trkpt lat="49.66778" lon="4.64021">
        <ele>169</ele>
        <time>2011-05-27T13:21:02Z</time>
      </trkpt>
      <trkpt lat="49.66776" lon="4.64029">
        <ele>169</ele>
        <time>2011-05-27T13:21:03Z</time>
      </trkpt>
      <trkpt lat="49.66774" lon="4.64038">
        <ele>169</ele>
        <time>2011-05-27T13:21:04Z</time>
      </trkpt>
      <trkpt lat="49.66773" lon="4.64046">
        <ele>169</ele>
        <time>2011-05-27T13:21:05Z</time>
      </trkpt>
      <trkpt lat="49.66772" lon="4.64054">
        <ele>169</ele>
        <time>2011-05-27T13:21:06Z</time>
      </trkpt>
      <trkpt lat="49.66771" lon="4.64063">
        <ele>169</ele>
        <time>2011-05-27T13:21:07Z</time>
      </trkpt>
      <trkpt lat="49.6677" lon="4.64072">
        <ele>169</ele>
        <time>2011-05-27T13:21:08Z</time>
      </trkpt>
      <trkpt lat="49.66769" lon="4.6408">
        <ele>169</ele>
        <time>2011-05-27T13:21:09Z</time>
      </trkpt>
      <trkpt lat="49.66768" lon="4.64088">
        <ele>169</ele>
        <time>2011-05-27T13:21:10Z</time>
      </trkpt>
      <trkpt lat="49.66767" lon="4.64096">
        <ele>169</ele>
        <time>2011-05-27T13:21:11Z</time>
      </trkpt>
      <trkpt lat="49.66766" lon="4.64104">
        <ele>169</ele>
        <time>2011-05-27T13:21:12Z</time>
      </trkpt>
      <trkpt lat="49.66765" lon="4.64112">
        <ele>169</ele>
        <time>2011-05-27T13:21:13Z</time>
      </trkpt>
      <trkpt lat="49.66764" lon="4.64119">
        <ele>169</ele>
        <time>2011-05-27T13:21:14Z</time>
      </trkpt>
      <trkpt lat="49.66763" lon="4.64127">
        <ele>169</ele>
        <time>2011-05-27T13:21:15Z</time>
      </trkpt>
      <trkpt lat="49.66762" lon="4.64134">
        <ele>169</ele>
        <time>2011-05-27T13:21:16Z</time>
      </trkpt>
      <trkpt lat="49.66761" lon="4.64142">
        <ele>169</ele>
        <time>2011-05-27T13:21:17Z</time>
      </trkpt>
      <trkpt lat="49.6676" lon="4.64149">
        <ele>169</ele>
        <time>2011-05-27T13:21:18Z</time>
      </trkpt>
      <trkpt lat="49.66759" lon="4.64156">
        <ele>169</ele>
        <time>2011-05-27T13:21:19Z</time>
      </trkpt>
      <trkpt lat="49.66758" lon="4.64163">
        <ele>169</ele>
        <time>2011-05-27T13:21:20Z</time>
      </trkpt>
      <trkpt lat="49.66757" lon="4.6417">
        <ele>169</ele>
        <time>2011-05-27T13:21:21Z</time>
      </trkpt>
      <trkpt lat="49.66757" lon="4.64177">
        <ele>169</ele>
        <time>2011-05-27T13:21:22Z</time>
      </trkpt>
      <trkpt lat="49.66758" lon="4.64184">
        <ele>170</ele>
        <time>2011-05-27T13:21:23Z</time>
      </trkpt>
      <trkpt lat="49.6676" lon="4.6419">
        <ele>170</ele>
        <time>2011-05-27T13:21:24Z</time>
      </trkpt>
      <trkpt lat="49.66762" lon="4.64195">
        <ele>170</ele>
        <time>2011-05-27T13:21:25Z</time>
      </trkpt>
      <trkpt lat="49.66765" lon="4.642">
        <ele>170</ele>
        <time>2011-05-27T13:21:26Z</time>
      </trkpt>
      <trkpt lat="49.66769" lon="4.64204">
        <ele>171</ele>
        <time>2011-05-27T13:21:27Z</time>
      </trkpt>
      <trkpt lat="49.66772" lon="4.64207">
        <ele>171</ele>
        <time>2011-05-27T13:21:28Z</time>
      </trkpt>
      <trkpt lat="49.66777" lon="4.64209">
        <ele>171</ele>
        <time>2011-05-27T13:21:29Z</time>
      </trkpt>
      <trkpt lat="49.66781" lon="4.64211">
        <ele>171</ele>
        <time>2011-05-27T13:21:30Z</time>
      </trkpt>
      <trkpt lat="49.66785" lon="4.64213">
        <ele>171</ele>
        <time>2011-05-27T13:21:31Z</time>
      </trkpt>
      <trkpt lat="49.66789" lon="4.64215">
        <ele>171</ele>
        <time>2011-05-27T13:21:32Z</time>
      </trkpt>
      <trkpt lat="49.66793" lon="4.64216">
        <ele>172</ele>
        <time>2011-05-27T13:21:33Z</time>
      </trkpt>
      <trkpt lat="49.66797" lon="4.64218">
        <ele>172</ele>
        <time>2011-05-27T13:21:34Z</time>
      </trkpt>
      <trkpt lat="49.66801" lon="4.64221">
        <ele>173</ele>
        <time>2011-05-27T13:21:35Z</time>
      </trkpt>
      <trkpt lat="49.66804" lon="4.64225">
        <ele>173</ele>
        <time>2011-05-27T13:21:36Z</time>
      </trkpt>
      <trkpt lat="49.66806" lon="4.64229">
        <ele>174</ele>
        <time>2011-05-27T13:21:37Z</time>
      </trkpt>
      <trkpt lat="49.66807" lon="4.64234">
        <ele>174</ele>
        <time>2011-05-27T13:21:38Z</time>
      </trkpt>
      <trkpt lat="49.66806" lon="4.64239">
        <ele>174</ele>
        <time>2011-05-27T13:21:39Z</time>
      </trkpt>
      <trkpt lat="49.66805" lon="4.64244">
        <ele>175</ele>
        <time>2011-05-27T13:21:40Z</time>
      </trkpt>
      <trkpt lat="49.66804" lon="4.64249">
        <ele>175</ele>
        <time>2011-05-27T13:21:41Z</time>
      </trkpt>
      <trkpt lat="49.66803" lon="4.64254">
        <ele>175</ele>
        <time>2011-05-27T13:21:42Z</time>
      </trkpt>
      <trkpt lat="49.66801" lon="4.64259">
        <ele>175</ele>
        <time>2011-05-27T13:21:43Z</time>
      </trkpt>
      <trkpt lat="49.668" lon="4.64264">
        <ele>175</ele>
        <time>2011-05-27T13:21:44Z</time>
      </trkpt>
      <trkpt lat="49.66798" lon="4.64269">
        <ele>175</ele>
        <time>2011-05-27T13:21:45Z</time>
      </trkpt>
      <trkpt lat="49.66797" lon="4.64274">
        <ele>176</ele>
        <time>2011-05-27T13:21:46Z</time>
      </trkpt>
      <trkpt lat="49.66795" lon="4.64279">
        <ele>176</ele>
        <time>2011-05-27T13:21:47Z</time>
      </trkpt>
      <trkpt lat="49.66794" lon="4.64284">
        <ele>176</ele>
        <time>2011-05-27T13:21:48Z</time>
      </trkpt>
      <trkpt lat="49.66792" lon="4.64288">
        <ele>176</ele>
        <time>2011-05-27T13:21:49Z</time>
      </trkpt>
      <trkpt lat="49.6679" lon="4.64292">
        <ele>176</ele>
        <time>2011-05-27T13:21:50Z</time>
      </trkpt>
      <trkpt lat="49.66788" lon="4.64296">
        <ele>177</ele>
        <time>2011-05-27T13:21:51Z</time>
      </trkpt>
      <trkpt lat="49.66787" lon="4.64301">
        <ele>177</ele>
        <time>2011-05-27T13:21:52Z</time>
      </trkpt>
      <trkpt lat="49.66787" lon="4.64306">
        <ele>177</ele>
        <time>2011-05-27T13:21:53Z</time>
      </trkpt>
      <trkpt lat="49.66788" lon="4.64311">
        <ele>177</ele>
        <time>2011-05-27T13:21:54Z</time>
      </trkpt>
      <trkpt lat="49.66789" lon="4.64315">
        <ele>177</ele>
        <time>2011-05-27T13:21:55Z</time>
      </trkpt>
      <trkpt lat="49.66791" lon="4.64319">
        <ele>177</ele>
        <time>2011-05-27T13:21:56Z</time>
      </trkpt>
      <trkpt lat="49.66794" lon="4.64322">
        <ele>177</ele>
        <time>2011-05-27T13:21:57Z</time>
      </trkpt>
      <trkpt lat="49.66797" lon="4.64326">
        <ele>177</ele>
        <time>2011-05-27T13:21:58Z</time>
      </trkpt>
      <trkpt lat="49.66801" lon="4.6433">
        <ele>177</ele>
        <time>2011-05-27T13:21:59Z</time>
      </trkpt>
      <trkpt lat="49.66804" lon="4.64333">
        <ele>177</ele>
        <time>2011-05-27T13:22:00Z</time>
      </trkpt>
      <trkpt lat="49.66808" lon="4.64337">
        <ele>177</ele>
        <time>2011-05-27T13:22:01Z</time>
      </trkpt>
      <trkpt lat="49.66811" lon="4.64341">
        <ele>177</ele>
        <time>2011-05-27T13:22:02Z</time>
      </trkpt>
      <trkpt lat="49.66815" lon="4.64345">
        <ele>177</ele>
        <time>2011-05-27T13:22:03Z</time>
      </trkpt>
      <trkpt lat="49.66819" lon="4.64349">
        <ele>177</ele>
        <time>2011-05-27T13:22:04Z</time>
      </trkpt>
      <trkpt lat="49.66822" lon="4.64353">
        <ele>177</ele>
        <time>2011-05-27T13:22:05Z</time>
      </trkpt>
      <trkpt lat="49.66826" lon="4.64356">
        <ele>177</ele>
        <time>2011-05-27T13:22:06Z</time>
      </trkpt>
      <trkpt lat="49.66829" lon="4.6436">
        <ele>177</ele>
        <time>2011-05-27T13:22:07Z</time>
      </trkpt>
      <trkpt lat="49.66833" lon="4.64364">
        <ele>177</ele>
        <time>2011-05-27T13:22:08Z</time>
      </trkpt>
      <trkpt lat="49.66836" lon="4.64368">
        <ele>177</ele>
        <time>2011-05-27T13:22:09Z</time>
      </trkpt>
      <trkpt lat="49.6684" lon="4.64373">
        <ele>177</ele>
        <time>2011-05-27T13:22:10Z</time>
      </trkpt>
      <trkpt lat="49.66843" lon="4.64377">
        <ele>177</ele>
        <time>2011-05-27T13:22:11Z</time>
      </trkpt>
      <trkpt lat="49.66846" lon="4.64382">
        <ele>177</ele>
        <time>2011-05-27T13:22:12Z</time>
      </trkpt>
      <trkpt lat="49.66849" lon="4.64387">
        <ele>177</ele>
        <time>2011-05-27T13:22:13Z</time>
      </trkpt>
      <trkpt lat="49.66852" lon="4.64391">
        <ele>177</ele>
        <time>2011-05-27T13:22:14Z</time>
      </trkpt>
      <trkpt lat="49.66855" lon="4.64396">
        <ele>177</ele>
        <time>2011-05-27T13:22:15Z</time>
      </trkpt>
      <trkpt lat="49.66858" lon="4.64402">
        <ele>177</ele>
        <time>2011-05-27T13:22:16Z</time>
      </trkpt>
      <trkpt lat="49.66861" lon="4.64407">
        <ele>177</ele>
        <time>2011-05-27T13:22:17Z</time>
      </trkpt>
      <trkpt lat="49.66864" lon="4.64413">
        <ele>177</ele>
        <time>2011-05-27T13:22:18Z</time>
      </trkpt>
      <trkpt lat="49.66867" lon="4.64418">
        <ele>177</ele>
        <time>2011-05-27T13:22:19Z</time>
      </trkpt>
      <trkpt lat="49.66869" lon="4.64424">
        <ele>177</ele>
        <time>2011-05-27T13:22:20Z</time>
      </trkpt>
      <trkpt lat="49.66872" lon="4.6443">
        <ele>177</ele>
        <time>2011-05-27T13:22:21Z</time>
      </trkpt>
      <trkpt lat="49.66875" lon="4.64435">
        <ele>177</ele>
        <time>2011-05-27T13:22:22Z</time>
      </trkpt>
      <trkpt lat="49.66878" lon="4.6444">
        <ele>177</ele>
        <time>2011-05-27T13:22:23Z</time>
      </trkpt>
      <trkpt lat="49.66881" lon="4.64446">
        <ele>177</ele>
        <time>2011-05-27T13:22:24Z</time>
      </trkpt>
      <trkpt lat="49.66884" lon="4.64452">
        <ele>177</ele>
        <time>2011-05-27T13:22:25Z</time>
      </trkpt>
      <trkpt lat="49.66887" lon="4.64457">
        <ele>177</ele>
        <time>2011-05-27T13:22:26Z</time>
      </trkpt>
      <trkpt lat="49.6689" lon="4.64462">
        <ele>177</ele>
        <time>2011-05-27T13:22:27Z</time>
      </trkpt>
      <trkpt lat="49.66894" lon="4.64467">
        <ele>177</ele>
        <time>2011-05-27T13:22:28Z</time>
      </trkpt>
      <trkpt lat="49.66898" lon="4.64472">
        <ele>177</ele>
        <time>2011-05-27T13:22:29Z</time>
      </trkpt>
      <trkpt lat="49.66902" lon="4.64478">
        <ele>177</ele>
        <time>2011-05-27T13:22:30Z</time>
      </trkpt>
      <trkpt lat="49.66906" lon="4.64484">
        <ele>177</ele>
        <time>2011-05-27T13:22:31Z</time>
      </trkpt>
      <trkpt lat="49.6691" lon="4.6449">
        <ele>177</ele>
        <time>2011-05-27T13:22:32Z</time>
      </trkpt>
      <trkpt lat="49.66915" lon="4.64496">
        <ele>177</ele>
        <time>2011-05-27T13:22:33Z</time>
      </trkpt>
      <trkpt lat="49.66919" lon="4.64503">
        <ele>177</ele>
        <time>2011-05-27T13:22:34Z</time>
      </trkpt>
      <trkpt lat="49.66923" lon="4.64509">
        <ele>177</ele>
        <time>2011-05-27T13:22:35Z</time>
      </trkpt>
      <trkpt lat="49.66928" lon="4.64517">
        <ele>177</ele>
        <time>2011-05-27T13:22:36Z</time>
      </trkpt>
      <trkpt lat="49.66932" lon="4.64524">
        <ele>177</ele>
        <time>2011-05-27T13:22:37Z</time>
      </trkpt>
      <trkpt lat="49.66936" lon="4.64531">
        <ele>177</ele>
        <time>2011-05-27T13:22:38Z</time>
      </trkpt>
      <trkpt lat="49.66941" lon="4.64539">
        <ele>176</ele>
        <time>2011-05-27T13:22:39Z</time>
      </trkpt>
      <trkpt lat="49.66946" lon="4.64547">
        <ele>176</ele>
        <time>2011-05-27T13:22:40Z</time>
      </trkpt>
      <trkpt lat="49.6695" lon="4.64555">
        <ele>175</ele>
        <time>2011-05-27T13:22:41Z</time>
      </trkpt>
      <trkpt lat="49.66954" lon="4.64564">
        <ele>175</ele>
        <time>2011-05-27T13:22:42Z</time>
      </trkpt>
      <trkpt lat="49.66959" lon="4.64572">
        <ele>175</ele>
        <time>2011-05-27T13:22:43Z</time>
      </trkpt>
      <trkpt lat="49.66964" lon="4.64581">
        <ele>174</ele>
        <time>2011-05-27T13:22:44Z</time>
      </trkpt>
      <trkpt lat="49.66969" lon="4.6459">
        <ele>174</ele>
        <time>2011-05-27T13:22:45Z</time>
      </trkpt>
      <trkpt lat="49.66974" lon="4.646">
        <ele>174</ele>
        <time>2011-05-27T13:22:46Z</time>
      </trkpt>
      <trkpt lat="49.66979" lon="4.64609">
        <ele>173</ele>
        <time>2011-05-27T13:22:47Z</time>
      </trkpt>
      <trkpt lat="49.66983" lon="4.64618">
        <ele>173</ele>
        <time>2011-05-27T13:22:48Z</time>
      </trkpt>
      <trkpt lat="49.66988" lon="4.64628">
        <ele>173</ele>
        <time>2011-05-27T13:22:49Z</time>
      </trkpt>
      <trkpt lat="49.66991" lon="4.64637">
        <ele>173</ele>
        <time>2011-05-27T13:22:50Z</time>
      </trkpt>
      <trkpt lat="49.66995" lon="4.64647">
        <ele>173</ele>
        <time>2011-05-27T13:22:51Z</time>
      </trkpt>
      <trkpt lat="49.66998" lon="4.64656">
        <ele>173</ele>
        <time>2011-05-27T13:22:52Z</time>
      </trkpt>
      <trkpt lat="49.67002" lon="4.64665">
        <ele>173</ele>
        <time>2011-05-27T13:22:53Z</time>
      </trkpt>
      <trkpt lat="49.67005" lon="4.64674">
        <ele>173</ele>
        <time>2011-05-27T13:22:54Z</time>
      </trkpt>
      <trkpt lat="49.67009" lon="4.64683">
        <ele>173</ele>
        <time>2011-05-27T13:22:55Z</time>
      </trkpt>
      <trkpt lat="49.67012" lon="4.64692">
        <ele>173</ele>
        <time>2011-05-27T13:22:56Z</time>
      </trkpt>
      <trkpt lat="49.67016" lon="4.64701">
        <ele>173</ele>
        <time>2011-05-27T13:22:57Z</time>
      </trkpt>
      <trkpt lat="49.67019" lon="4.6471">
        <ele>173</ele>
        <time>2011-05-27T13:22:58Z</time>
      </trkpt>
      <trkpt lat="49.67023" lon="4.64719">
        <ele>172</ele>
        <time>2011-05-27T13:22:59Z</time>
      </trkpt>
      <trkpt lat="49.67026" lon="4.64728">
        <ele>172</ele>
        <time>2011-05-27T13:23:00Z</time>
      </trkpt>
      <trkpt lat="49.67029" lon="4.64736">
        <ele>172</ele>
        <time>2011-05-27T13:23:01Z</time>
      </trkpt>
      <trkpt lat="49.67033" lon="4.64745">
        <ele>172</ele>
        <time>2011-05-27T13:23:02Z</time>
      </trkpt>
      <trkpt lat="49.67036" lon="4.64753">
        <ele>172</ele>
        <time>2011-05-27T13:23:03Z</time>
      </trkpt>
      <trkpt lat="49.67039" lon="4.64761">
        <ele>172</ele>
        <time>2011-05-27T13:23:04Z</time>
      </trkpt>
      <trkpt lat="49.67042" lon="4.6477">
        <ele>172</ele>
        <time>2011-05-27T13:23:05Z</time>
      </trkpt>
      <trkpt lat="49.67044" lon="4.64778">
        <ele>172</ele>
        <time>2011-05-27T13:23:06Z</time>
      </trkpt>
      <trkpt lat="49.67047" lon="4.64786">
        <ele>172</ele>
        <time>2011-05-27T13:23:07Z</time>
      </trkpt>
      <trkpt lat="49.6705" lon="4.64794">
        <ele>172</ele>
        <time>2011-05-27T13:23:08Z</time>
      </trkpt>
      <trkpt lat="49.67053" lon="4.64802">
        <ele>172</ele>
        <time>2011-05-27T13:23:09Z</time>
      </trkpt>
      <trkpt lat="49.67055" lon="4.64809">
        <ele>172</ele>
        <time>2011-05-27T13:23:10Z</time>
      </trkpt>
      <trkpt lat="49.67058" lon="4.64817">
        <ele>172</ele>
        <time>2011-05-27T13:23:11Z</time>
      </trkpt>
      <trkpt lat="49.6706" lon="4.64824">
        <ele>172</ele>
        <time>2011-05-27T13:23:12Z</time>
      </trkpt>
      <trkpt lat="49.67063" lon="4.64832">
        <ele>172</ele>
        <time>2011-05-27T13:23:13Z</time>
      </trkpt>
      <trkpt lat="49.67065" lon="4.64839">
        <ele>172</ele>
        <time>2011-05-27T13:23:14Z</time>
      </trkpt>
      <trkpt lat="49.67068" lon="4.64847">
        <ele>172</ele>
        <time>2011-05-27T13:23:15Z</time>
      </trkpt>
      <trkpt lat="49.6707" lon="4.64855">
        <ele>172</ele>
        <time>2011-05-27T13:23:16Z</time>
      </trkpt>
      <trkpt lat="49.67073" lon="4.64862">
        <ele>172</ele>
        <time>2011-05-27T13:23:17Z</time>
      </trkpt>
      <trkpt lat="49.67076" lon="4.64869">
        <ele>172</ele>
        <time>2011-05-27T13:23:18Z</time>
      </trkpt>
      <trkpt lat="49.67078" lon="4.64876">
        <ele>172</ele>
        <time>2011-05-27T13:23:19Z</time>
      </trkpt>
      <trkpt lat="49.6708" lon="4.64882">
        <ele>172</ele>
        <time>2011-05-27T13:23:20Z</time>
      </trkpt>
      <trkpt lat="49.67083" lon="4.64888">
        <ele>172</ele>
        <time>2011-05-27T13:23:21Z</time>
      </trkpt>
      <trkpt lat="49.67085" lon="4.64893">
        <ele>172</ele>
        <time>2011-05-27T13:23:22Z</time>
      </trkpt>
      <trkpt lat="49.67086" lon="4.64899">
        <ele>172</ele>
        <time>2011-05-27T13:23:23Z</time>
      </trkpt>
      <trkpt lat="49.67088" lon="4.64906">
        <ele>172</ele>
        <time>2011-05-27T13:23:24Z</time>
      </trkpt>
      <trkpt lat="49.67091" lon="4.64912">
        <ele>172</ele>
        <time>2011-05-27T13:23:25Z</time>
      </trkpt>
      <trkpt lat="49.67093" lon="4.64918">
        <ele>172</ele>
        <time>2011-05-27T13:23:26Z</time>
      </trkpt>
      <trkpt lat="49.67095" lon="4.64924">
        <ele>172</ele>
        <time>2011-05-27T13:23:27Z</time>
      </trkpt>
      <trkpt lat="49.67097" lon="4.6493">
        <ele>172</ele>
        <time>2011-05-27T13:23:28Z</time>
      </trkpt>
      <trkpt lat="49.67099" lon="4.64936">
        <ele>172</ele>
        <time>2011-05-27T13:23:29Z</time>
      </trkpt>
      <trkpt lat="49.67101" lon="4.64943">
        <ele>172</ele>
        <time>2011-05-27T13:23:30Z</time>
      </trkpt>
      <trkpt lat="49.67103" lon="4.6495">
        <ele>172</ele>
        <time>2011-05-27T13:23:31Z</time>
      </trkpt>
      <trkpt lat="49.67106" lon="4.64956">
        <ele>172</ele>
        <time>2011-05-27T13:23:32Z</time>
      </trkpt>
      <trkpt lat="49.67108" lon="4.64962">
        <ele>172</ele>
        <time>2011-05-27T13:23:33Z</time>
      </trkpt>
      <trkpt lat="49.6711" lon="4.64968">
        <ele>172</ele>
        <time>2011-05-27T13:23:34Z</time>
      </trkpt>
      <trkpt lat="49.67112" lon="4.64975">
        <ele>172</ele>
        <time>2011-05-27T13:23:35Z</time>
      </trkpt>
      <trkpt lat="49.67115" lon="4.64981">
        <ele>172</ele>
        <time>2011-05-27T13:23:36Z</time>
      </trkpt>
      <trkpt lat="49.67117" lon="4.64987">
        <ele>172</ele>
        <time>2011-05-27T13:23:37Z</time>
      </trkpt>
      <trkpt lat="49.6712" lon="4.64993">
        <ele>172</ele>
        <time>2011-05-27T13:23:38Z</time>
      </trkpt>
      <trkpt lat="49.67122" lon="4.64999">
        <ele>172</ele>
        <time>2011-05-27T13:23:39Z</time>
      </trkpt>
      <trkpt lat="49.67125" lon="4.65004">
        <ele>172</ele>
        <time>2011-05-27T13:23:40Z</time>
      </trkpt>
      <trkpt lat="49.67127" lon="4.6501">
        <ele>172</ele>
        <time>2011-05-27T13:23:41Z</time>
      </trkpt>
      <trkpt lat="49.67129" lon="4.65016">
        <ele>172</ele>
        <time>2011-05-27T13:23:42Z</time>
      </trkpt>
      <trkpt lat="49.67132" lon="4.65021">
        <ele>172</ele>
        <time>2011-05-27T13:23:43Z</time>
      </trkpt>
      <trkpt lat="49.67135" lon="4.65027">
        <ele>172</ele>
        <time>2011-05-27T13:23:44Z</time>
      </trkpt>
      <trkpt lat="49.67137" lon="4.65033">
        <ele>172</ele>
        <time>2011-05-27T13:23:45Z</time>
      </trkpt>
      <trkpt lat="49.6714" lon="4.65038">
        <ele>172</ele>
        <time>2011-05-27T13:23:46Z</time>
      </trkpt>
      <trkpt lat="49.67143" lon="4.65044">
        <ele>172</ele>
        <time>2011-05-27T13:23:47Z</time>
      </trkpt>
      <trkpt lat="49.67145" lon="4.6505">
        <ele>172</ele>
        <time>2011-05-27T13:23:48Z</time>
      </trkpt>
      <trkpt lat="49.67148" lon="4.65056">
        <ele>172</ele>
        <time>2011-05-27T13:23:49Z</time>
      </trkpt>
      <trkpt lat="49.67151" lon="4.65061">
        <ele>172</ele>
        <time>2011-05-27T13:23:50Z</time>
      </trkpt>
      <trkpt lat="49.67154" lon="4.65067">
        <ele>172</ele>
        <time>2011-05-27T13:23:51Z</time>
      </trkpt>
      <trkpt lat="49.67157" lon="4.65073">
        <ele>172</ele>
        <time>2011-05-27T13:23:52Z</time>
      </trkpt>
      <trkpt lat="49.6716" lon="4.65079">
        <ele>172</ele>
        <time>2011-05-27T13:23:53Z</time>
      </trkpt>
      <trkpt lat="49.67163" lon="4.65085">
        <ele>172</ele>
        <time>2011-05-27T13:23:54Z</time>
      </trkpt>
      <trkpt lat="49.67167" lon="4.65091">
        <ele>172</ele>
        <time>2011-05-27T13:23:55Z</time>
      </trkpt>
      <trkpt lat="49.6717" lon="4.65097">
        <ele>172</ele>
        <time>2011-05-27T13:23:56Z</time>
      </trkpt>
      <trkpt lat="49.67173" lon="4.65103">
        <ele>172</ele>
        <time>2011-05-27T13:23:57Z</time>
      </trkpt>
      <trkpt lat="49.67177" lon="4.65109">
        <ele>172</ele>
        <time>2011-05-27T13:23:58Z</time>
      </trkpt>
      <trkpt lat="49.67181" lon="4.65115">
        <ele>172</ele>
        <time>2011-05-27T13:23:59Z</time>
      </trkpt>
      <trkpt lat="49.67184" lon="4.65121">
        <ele>172</ele>
        <time>2011-05-27T13:24:00Z</time>
      </trkpt>
      <trkpt lat="49.67188" lon="4.65127">
        <ele>172</ele>
        <time>2011-05-27T13:24:01Z</time>
      </trkpt>
      <trkpt lat="49.67191" lon="4.65133">
        <ele>172</ele>
        <time>2011-05-27T13:24:02Z</time>
      </trkpt>
      <trkpt lat="49.67195" lon="4.65139">
        <ele>172</ele>
        <time>2011-05-27T13:24:03Z</time>
      </trkpt>
      <trkpt lat="49.67198" lon="4.65145">
        <ele>172</ele>
        <time>2011-05-27T13:24:04Z</time>
      </trkpt>
      <trkpt lat="49.67202" lon="4.65151">
        <ele>172</ele>
        <time>2011-05-27T13:24:05Z</time>
      </trkpt>
      <trkpt lat="49.67206" lon="4.65157">
        <ele>172</ele>
        <time>2011-05-27T13:24:06Z</time>
      </trkpt>
      <trkpt lat="49.67209" lon="4.65163">
        <ele>172</ele>
        <time>2011-05-27T13:24:07Z</time>
      </trkpt>
      <trkpt lat="49.67213" lon="4.65169">
        <ele>172</ele>
        <time>2011-05-27T13:24:08Z</time>
      </trkpt>
      <trkpt lat="49.67216" lon="4.65174">
        <ele>172</ele>
        <time>2011-05-27T13:24:09Z</time>
      </trkpt>
      <trkpt lat="49.6722" lon="4.6518">
        <ele>172</ele>
        <time>2011-05-27T13:24:10Z</time>
      </trkpt>
      <trkpt lat="49.67223" lon="4.65186">
        <ele>172</ele>
        <time>2011-05-27T13:24:11Z</time>
      </trkpt>
      <trkpt lat="49.67227" lon="4.65192">
        <ele>172</ele>
        <time>2011-05-27T13:24:12Z</time>
      </trkpt>
      <trkpt lat="49.67231" lon="4.65198">
        <ele>172</ele>
        <time>2011-05-27T13:24:13Z</time>
      </trkpt>
      <trkpt lat="49.67234" lon="4.65204">
        <ele>172</ele>
        <time>2011-05-27T13:24:14Z</time>
      </trkpt>
      <trkpt lat="49.67238" lon="4.6521">
        <ele>172</ele>
        <time>2011-05-27T13:24:15Z</time>
      </trkpt>
      <trkpt lat="49.67242" lon="4.65216">
        <ele>172</ele>
        <time>2011-05-27T13:24:16Z</time>
      </trkpt>
      <trkpt lat="49.67245" lon="4.65222">
        <ele>172</ele>
        <time>2011-05-27T13:24:17Z</time>
      </trkpt>
      <trkpt lat="49.67249" lon="4.65227">
        <ele>172</ele>
        <time>2011-05-27T13:24:18Z</time>
      </trkpt>
      <trkpt lat="49.67252" lon="4.65233">
        <ele>172</ele>
        <time>2011-05-27T13:24:19Z</time>
      </trkpt>
      <trkpt lat="49.67256" lon="4.65238">
        <ele>172</ele>
        <time>2011-05-27T13:24:20Z</time>
      </trkpt>
      <trkpt lat="49.6726" lon="4.65244">
        <ele>172</ele>
        <time>2011-05-27T13:24:21Z</time>
      </trkpt>
      <trkpt lat="49.67264" lon="4.6525">
        <ele>172</ele>
        <time>2011-05-27T13:24:22Z</time>
      </trkpt>
      <trkpt lat="49.67268" lon="4.65256">
        <ele>172</ele>
        <time>2011-05-27T13:24:23Z</time>
      </trkpt>
      <trkpt lat="49.67272" lon="4.65261">
        <ele>172</ele>
        <time>2011-05-27T13:24:24Z</time>
      </trkpt>
      <trkpt lat="49.67277" lon="4.65266">
        <ele>172</ele>
        <time>2011-05-27T13:24:25Z</time>
      </trkpt>
      <trkpt lat="49.67281" lon="4.65271">
        <ele>172</ele>
        <time>2011-05-27T13:24:26Z</time>
      </trkpt>
      <trkpt lat="49.67286" lon="4.65276">
        <ele>172</ele>
        <time>2011-05-27T13:24:27Z</time>
      </trkpt>
      <trkpt lat="49.6729" lon="4.65281">
        <ele>172</ele>
        <time>2011-05-27T13:24:28Z</time>
      </trkpt>
      <trkpt lat="49.67295" lon="4.65286">
        <ele>172</ele>
        <time>2011-05-27T13:24:29Z</time>
      </trkpt>
      <trkpt lat="49.67299" lon="4.65291">
        <ele>172</ele>
        <time>2011-05-27T13:24:30Z</time>
      </trkpt>
      <trkpt lat="49.67303" lon="4.65295">
        <ele>172</ele>
        <time>2011-05-27T13:24:31Z</time>
      </trkpt>
      <trkpt lat="49.67307" lon="4.65299">
        <ele>172</ele>
        <time>2011-05-27T13:24:32Z</time>
      </trkpt>
      <trkpt lat="49.67311" lon="4.65303">
        <ele>172</ele>
        <time>2011-05-27T13:24:33Z</time>
      </trkpt>
      <trkpt lat="49.67315" lon="4.65307">
        <ele>172</ele>
        <time>2011-05-27T13:24:34Z</time>
      </trkpt>
      <trkpt lat="49.67319" lon="4.65312">
        <ele>172</ele>
        <time>2011-05-27T13:24:35Z</time>
      </trkpt>
      <trkpt lat="49.67323" lon="4.65317">
        <ele>172</ele>
        <time>2011-05-27T13:24:36Z</time>
      </trkpt>
      <trkpt lat="49.67327" lon="4.65321">
        <ele>172</ele>
        <time>2011-05-27T13:24:37Z</time>
      </trkpt>
      <trkpt lat="49.67332" lon="4.65326">
        <ele>171</ele>
        <time>2011-05-27T13:24:38Z</time>
      </trkpt>
      <trkpt lat="49.67337" lon="4.65331">
        <ele>171</ele>
        <time>2011-05-27T13:24:39Z</time>
      </trkpt>
      <trkpt lat="49.67341" lon="4.65336">
        <ele>171</ele>
        <time>2011-05-27T13:24:40Z</time>
      </trkpt>
      <trkpt lat="49.67346" lon="4.65341">
        <ele>171</ele>
        <time>2011-05-27T13:24:41Z</time>
      </trkpt>
      <trkpt lat="49.6735" lon="4.65346">
        <ele>170</ele>
        <time>2011-05-27T13:24:42Z</time>
      </trkpt>
      <trkpt lat="49.67355" lon="4.65352">
        <ele>170</ele>
        <time>2011-05-27T13:24:43Z</time>
      </trkpt>
      <trkpt lat="49.6736" lon="4.65357">
        <ele>170</ele>
        <time>2011-05-27T13:24:44Z</time>
      </trkpt>
      <trkpt lat="49.67365" lon="4.65363">
        <ele>170</ele>
        <time>2011-05-27T13:24:45Z</time>
      </trkpt>
      <trkpt lat="49.67369" lon="4.65368">
        <ele>170</ele>
        <time>2011-05-27T13:24:46Z</time>
      </trkpt>
      <trkpt lat="49.67374" lon="4.65373">
        <ele>170</ele>
        <time>2011-05-27T13:24:47Z</time>
      </trkpt>
      <trkpt lat="49.67379" lon="4.65379">
        <ele>170</ele>
        <time>2011-05-27T13:24:48Z</time>
      </trkpt>
      <trkpt lat="49.67383" lon="4.65383">
        <ele>170</ele>
        <time>2011-05-27T13:24:49Z</time>
      </trkpt>
      <trkpt lat="49.67387" lon="4.65388">
        <ele>170</ele>
        <time>2011-05-27T13:24:50Z</time>
      </trkpt>
      <trkpt lat="49.67391" lon="4.65392">
        <ele>170</ele>
        <time>2011-05-27T13:24:51Z</time>
      </trkpt>
      <trkpt lat="49.67395" lon="4.65395">
        <ele>170</ele>
        <time>2011-05-27T13:24:52Z</time>
      </trkpt>
      <trkpt lat="49.67397" lon="4.65399">
        <ele>170</ele>
        <time>2011-05-27T13:24:53Z</time>
      </trkpt>
      <trkpt lat="49.67398" lon="4.65404">
        <ele>170</ele>
        <time>2011-05-27T13:24:54Z</time>
      </trkpt>
      <trkpt lat="49.67397" lon="4.6541">
        <ele>170</ele>
        <time>2011-05-27T13:24:55Z</time>
      </trkpt>
      <trkpt lat="49.67395" lon="4.65414">
        <ele>170</ele>
        <time>2011-05-27T13:24:56Z</time>
      </trkpt>
      <trkpt lat="49.67392" lon="4.65417">
        <ele>170</ele>
        <time>2011-05-27T13:24:57Z</time>
      </trkpt>
      <trkpt lat="49.67363" lon="4.65438">
        <ele>170</ele>
        <time>2011-05-27T13:25:03Z</time>
      </trkpt>
      <trkpt lat="49.67353" lon="4.65444">
        <ele>170</ele>
        <time>2011-05-27T13:25:04Z</time>
      </trkpt>
      <trkpt lat="49.67348" lon="4.65449">
        <ele>169</ele>
        <time>2011-05-27T13:25:05Z</time>
      </trkpt>
      <trkpt lat="49.67342" lon="4.65451">
        <ele>169</ele>
        <time>2011-05-27T13:25:06Z</time>
      </trkpt>
      <trkpt lat="49.67339" lon="4.65455">
        <ele>168</ele>
        <time>2011-05-27T13:25:07Z</time>
      </trkpt>
      <trkpt lat="49.67336" lon="4.65457">
        <ele>168</ele>
        <time>2011-05-27T13:25:08Z</time>
      </trkpt>
      <trkpt lat="49.67333" lon="4.65459">
        <ele>168</ele>
        <time>2011-05-27T13:25:09Z</time>
      </trkpt>
      <trkpt lat="49.6733" lon="4.65462">
        <ele>168</ele>
        <time>2011-05-27T13:25:10Z</time>
      </trkpt>
      <trkpt lat="49.67329" lon="4.65464">
        <ele>168</ele>
        <time>2011-05-27T13:25:11Z</time>
      </trkpt>
      <trkpt lat="49.67326" lon="4.65465">
        <ele>168</ele>
        <time>2011-05-27T13:25:12Z</time>
      </trkpt>
      <trkpt lat="49.67324" lon="4.65465">
        <ele>168</ele>
        <time>2011-05-27T13:25:13Z</time>
      </trkpt>
      <trkpt lat="49.67322" lon="4.65462">
        <ele>168</ele>
        <time>2011-05-27T13:25:14Z</time>
      </trkpt>
      <trkpt lat="49.67319" lon="4.65457">
        <ele>168</ele>
        <time>2011-05-27T13:25:15Z</time>
      </trkpt>
      <trkpt lat="49.67317" lon="4.6545">
        <ele>168</ele>
        <time>2011-05-27T13:25:16Z</time>
      </trkpt>
      <trkpt lat="49.67316" lon="4.65443">
        <ele>168</ele>
        <time>2011-05-27T13:25:17Z</time>
      </trkpt>
      <trkpt lat="49.67316" lon="4.65436">
        <ele>168</ele>
        <time>2011-05-27T13:25:18Z</time>
      </trkpt>
      <trkpt lat="49.67317" lon="4.65429">
        <ele>168</ele>
        <time>2011-05-27T13:25:19Z</time>
      </trkpt>
      <trkpt lat="49.6732" lon="4.65424">
        <ele>168</ele>
        <time>2011-05-27T13:25:20Z</time>
      </trkpt>
      <trkpt lat="49.67324" lon="4.6542">
        <ele>168</ele>
        <time>2011-05-27T13:25:21Z</time>
      </trkpt>
      <trkpt lat="49.67328" lon="4.65417">
        <ele>168</ele>
        <time>2011-05-27T13:25:22Z</time>
      </trkpt>
      <trkpt lat="49.67332" lon="4.65415">
        <ele>168</ele>
        <time>2011-05-27T13:25:23Z</time>
      </trkpt>
      <trkpt lat="49.67336" lon="4.65416">
        <ele>168</ele>
        <time>2011-05-27T13:25:24Z</time>
      </trkpt>
      <trkpt lat="49.6734" lon="4.65417">
        <ele>168</ele>
        <time>2011-05-27T13:25:25Z</time>
      </trkpt>
      <trkpt lat="49.67344" lon="4.65419">
        <ele>168</ele>
        <time>2011-05-27T13:25:26Z</time>
      </trkpt>
      <trkpt lat="49.67348" lon="4.65423">
        <ele>168</ele>
        <time>2011-05-27T13:25:27Z</time>
      </trkpt>
      <trkpt lat="49.67352" lon="4.65426">
        <ele>168</ele>
        <time>2011-05-27T13:25:28Z</time>
      </trkpt>
      <trkpt lat="49.67355" lon="4.6543">
        <ele>168</ele>
        <time>2011-05-27T13:25:29Z</time>
      </trkpt>
      <trkpt lat="49.6736" lon="4.65435">
        <ele>168</ele>
        <time>2011-05-27T13:25:30Z</time>
      </trkpt>
      <trkpt lat="49.67363" lon="4.65439">
        <ele>168</ele>
        <time>2011-05-27T13:25:31Z</time>
      </trkpt>
      <trkpt lat="49.67367" lon="4.65444">
        <ele>168</ele>
        <time>2011-05-27T13:25:32Z</time>
      </trkpt>
      <trkpt lat="49.67371" lon="4.65448">
        <ele>168</ele>
        <time>2011-05-27T13:25:33Z</time>
      </trkpt>
      <trkpt lat="49.67375" lon="4.65453">
        <ele>169</ele>
        <time>2011-05-27T13:25:34Z</time>
      </trkpt>
      <trkpt lat="49.67379" lon="4.65457">
        <ele>169</ele>
        <time>2011-05-27T13:25:35Z</time>
      </trkpt>
      <trkpt lat="49.67382" lon="4.65461">
        <ele>169</ele>
        <time>2011-05-27T13:25:36Z</time>
      </trkpt>
      <trkpt lat="49.67386" lon="4.65466">
        <ele>169</ele>
        <time>2011-05-27T13:25:37Z</time>
      </trkpt>
      <trkpt lat="49.67389" lon="4.6547">
        <ele>169</ele>
        <time>2011-05-27T13:25:38Z</time>
      </trkpt>
      <trkpt lat="49.67393" lon="4.65475">
        <ele>170</ele>
        <time>2011-05-27T13:25:39Z</time>
      </trkpt>
      <trkpt lat="49.67397" lon="4.6548">
        <ele>170</ele>
        <time>2011-05-27T13:25:40Z</time>
      </trkpt>
      <trkpt lat="49.674" lon="4.65485">
        <ele>170</ele>
        <time>2011-05-27T13:25:41Z</time>
      </trkpt>
      <trkpt lat="49.67404" lon="4.65491">
        <ele>170</ele>
        <time>2011-05-27T13:25:42Z</time>
      </trkpt>
      <trkpt lat="49.67407" lon="4.65496">
        <ele>170</ele>
        <time>2011-05-27T13:25:43Z</time>
      </trkpt>
      <trkpt lat="49.67411" lon="4.655">
        <ele>170</ele>
        <time>2011-05-27T13:25:44Z</time>
      </trkpt>
      <trkpt lat="49.67415" lon="4.65505">
        <ele>170</ele>
        <time>2011-05-27T13:25:45Z</time>
      </trkpt>
      <trkpt lat="49.67419" lon="4.6551">
        <ele>170</ele>
        <time>2011-05-27T13:25:46Z</time>
      </trkpt>
      <trkpt lat="49.67422" lon="4.65514">
        <ele>171</ele>
        <time>2011-05-27T13:25:47Z</time>
      </trkpt>
      <trkpt lat="49.67426" lon="4.65518">
        <ele>171</ele>
        <time>2011-05-27T13:25:48Z</time>
      </trkpt>
      <trkpt lat="49.67429" lon="4.65522">
        <ele>171</ele>
        <time>2011-05-27T13:25:49Z</time>
      </trkpt>
      <trkpt lat="49.67432" lon="4.65526">
        <ele>171</ele>
        <time>2011-05-27T13:25:50Z</time>
      </trkpt>
      <trkpt lat="49.67435" lon="4.6553">
        <ele>172</ele>
        <time>2011-05-27T13:25:51Z</time>
      </trkpt>
      <trkpt lat="49.67439" lon="4.65534">
        <ele>172</ele>
        <time>2011-05-27T13:25:52Z</time>
      </trkpt>
      <trkpt lat="49.67442" lon="4.65538">
        <ele>172</ele>
        <time>2011-05-27T13:25:53Z</time>
      </trkpt>
      <trkpt lat="49.67445" lon="4.65543">
        <ele>172</ele>
        <time>2011-05-27T13:25:54Z</time>
      </trkpt>
      <trkpt lat="49.67448" lon="4.65547">
        <ele>173</ele>
        <time>2011-05-27T13:25:55Z</time>
      </trkpt>
      <trkpt lat="49.67451" lon="4.65551">
        <ele>173</ele>
        <time>2011-05-27T13:25:56Z</time>
      </trkpt>
      <trkpt lat="49.67455" lon="4.65554">
        <ele>173</ele>
        <time>2011-05-27T13:25:57Z</time>
      </trkpt>
      <trkpt lat="49.67458" lon="4.65558">
        <ele>173</ele>
        <time>2011-05-27T13:25:58Z</time>
      </trkpt>
      <trkpt lat="49.67461" lon="4.65562">
        <ele>173</ele>
        <time>2011-05-27T13:25:59Z</time>
      </trkpt>
      <trkpt lat="49.67464" lon="4.65566">
        <ele>173</ele>
        <time>2011-05-27T13:26:00Z</time>
      </trkpt>
      <trkpt lat="49.67467" lon="4.65571">
        <ele>173</ele>
        <time>2011-05-27T13:26:01Z</time>
      </trkpt>
      <trkpt lat="49.6747" lon="4.65575">
        <ele>174</ele>
        <time>2011-05-27T13:26:02Z</time>
      </trkpt>
      <trkpt lat="49.67473" lon="4.65579">
        <ele>174</ele>
        <time>2011-05-27T13:26:03Z</time>
      </trkpt>
      <trkpt lat="49.67476" lon="4.65584">
        <ele>174</ele>
        <time>2011-05-27T13:26:04Z</time>
      </trkpt>
      <trkpt lat="49.67479" lon="4.65588">
        <ele>174</ele>
        <time>2011-05-27T13:26:05Z</time>
      </trkpt>
      <trkpt lat="49.67481" lon="4.65593">
        <ele>174</ele>
        <time>2011-05-27T13:26:06Z</time>
      </trkpt>
      <trkpt lat="49.67484" lon="4.65597">
        <ele>174</ele>
        <time>2011-05-27T13:26:07Z</time>
      </trkpt>
      <trkpt lat="49.67486" lon="4.65602">
        <ele>174</ele>
        <time>2011-05-27T13:26:08Z</time>
      </trkpt>
      <trkpt lat="49.67488" lon="4.65606">
        <ele>174</ele>
        <time>2011-05-27T13:26:09Z</time>
      </trkpt>
      <trkpt lat="49.67491" lon="4.6561">
        <ele>175</ele>
        <time>2011-05-27T13:26:10Z</time>
      </trkpt>
      <trkpt lat="49.67493" lon="4.65615">
        <ele>175</ele>
        <time>2011-05-27T13:26:11Z</time>
      </trkpt>
      <trkpt lat="49.67495" lon="4.65619">
        <ele>175</ele>
        <time>2011-05-27T13:26:12Z</time>
      </trkpt>
      <trkpt lat="49.67498" lon="4.65623">
        <ele>175</ele>
        <time>2011-05-27T13:26:13Z</time>
      </trkpt>
      <trkpt lat="49.675" lon="4.65627">
        <ele>175</ele>
        <time>2011-05-27T13:26:14Z</time>
      </trkpt>
      <trkpt lat="49.67503" lon="4.65631">
        <ele>176</ele>
        <time>2011-05-27T13:26:15Z</time>
      </trkpt>
      <trkpt lat="49.67505" lon="4.65635">
        <ele>176</ele>
        <time>2011-05-27T13:26:16Z</time>
      </trkpt>
      <trkpt lat="49.67508" lon="4.65639">
        <ele>176</ele>
        <time>2011-05-27T13:26:17Z</time>
      </trkpt>
      <trkpt lat="49.6751" lon="4.65644">
        <ele>176</ele>
        <time>2011-05-27T13:26:18Z</time>
      </trkpt>
      <trkpt lat="49.67513" lon="4.65648">
        <ele>176</ele>
        <time>2011-05-27T13:26:19Z</time>
      </trkpt>
      <trkpt lat="49.67515" lon="4.65652">
        <ele>176</ele>
        <time>2011-05-27T13:26:20Z</time>
      </trkpt>
      <trkpt lat="49.67517" lon="4.65656">
        <ele>177</ele>
        <time>2011-05-27T13:26:21Z</time>
      </trkpt>
      <trkpt lat="49.6752" lon="4.6566">
        <ele>177</ele>
        <time>2011-05-27T13:26:22Z</time>
      </trkpt>
      <trkpt lat="49.67522" lon="4.65664">
        <ele>177</ele>
        <time>2011-05-27T13:26:23Z</time>
      </trkpt>
      <trkpt lat="49.67524" lon="4.65668">
        <ele>177</ele>
        <time>2011-05-27T13:26:24Z</time>
      </trkpt>
      <trkpt lat="49.67527" lon="4.65672">
        <ele>177</ele>
        <time>2011-05-27T13:26:25Z</time>
      </trkpt>
      <trkpt lat="49.67529" lon="4.65676">
        <ele>177</ele>
        <time>2011-05-27T13:26:26Z</time>
      </trkpt>
      <trkpt lat="49.67532" lon="4.65681">
        <ele>178</ele>
        <time>2011-05-27T13:26:27Z</time>
      </trkpt>
      <trkpt lat="49.67534" lon="4.65685">
        <ele>178</ele>
        <time>2011-05-27T13:26:28Z</time>
      </trkpt>
      <trkpt lat="49.67536" lon="4.65689">
        <ele>178</ele>
        <time>2011-05-27T13:26:29Z</time>
      </trkpt>
      <trkpt lat="49.67538" lon="4.65693">
        <ele>178</ele>
        <time>2011-05-27T13:26:30Z</time>
      </trkpt>
      <trkpt lat="49.67541" lon="4.65697">
        <ele>179</ele>
        <time>2011-05-27T13:26:31Z</time>
      </trkpt>
      <trkpt lat="49.67543" lon="4.65701">
        <ele>179</ele>
        <time>2011-05-27T13:26:32Z</time>
      </trkpt>
      <trkpt lat="49.67545" lon="4.65705">
        <ele>179</ele>
        <time>2011-05-27T13:26:33Z</time>
      </trkpt>
      <trkpt lat="49.67548" lon="4.65709">
        <ele>179</ele>
        <time>2011-05-27T13:26:34Z</time>
      </trkpt>
      <trkpt lat="49.6755" lon="4.65713">
        <ele>179</ele>
        <time>2011-05-27T13:26:35Z</time>
      </trkpt>
      <trkpt lat="49.67552" lon="4.65717">
        <ele>180</ele>
        <time>2011-05-27T13:26:36Z</time>
      </trkpt>
      <trkpt lat="49.67555" lon="4.65722">
        <ele>180</ele>
        <time>2011-05-27T13:26:37Z</time>
      </trkpt>
      <trkpt lat="49.67557" lon="4.65726">
        <ele>180</ele>
        <time>2011-05-27T13:26:38Z</time>
      </trkpt>
      <trkpt lat="49.67559" lon="4.6573">
        <ele>180</ele>
        <time>2011-05-27T13:26:39Z</time>
      </trkpt>
      <trkpt lat="49.67561" lon="4.65734">
        <ele>180</ele>
        <time>2011-05-27T13:26:40Z</time>
      </trkpt>
      <trkpt lat="49.67564" lon="4.65737">
        <ele>181</ele>
        <time>2011-05-27T13:26:41Z</time>
      </trkpt>
      <trkpt lat="49.67566" lon="4.65741">
        <ele>181</ele>
        <time>2011-05-27T13:26:42Z</time>
      </trkpt>
      <trkpt lat="49.67568" lon="4.65745">
        <ele>181</ele>
        <time>2011-05-27T13:26:43Z</time>
      </trkpt>
      <trkpt lat="49.6757" lon="4.65749">
        <ele>181</ele>
        <time>2011-05-27T13:26:44Z</time>
      </trkpt>
      <trkpt lat="49.67573" lon="4.65753">
        <ele>181</ele>
        <time>2011-05-27T13:26:45Z</time>
      </trkpt>
      <trkpt lat="49.67575" lon="4.65757">
        <ele>182</ele>
        <time>2011-05-27T13:26:46Z</time>
      </trkpt>
      <trkpt lat="49.67577" lon="4.65761">
        <ele>182</ele>
        <time>2011-05-27T13:26:47Z</time>
      </trkpt>
      <trkpt lat="49.6758" lon="4.65765">
        <ele>182</ele>
        <time>2011-05-27T13:26:48Z</time>
      </trkpt>
      <trkpt lat="49.67582" lon="4.65769">
        <ele>182</ele>
        <time>2011-05-27T13:26:49Z</time>
      </trkpt>
      <trkpt lat="49.67584" lon="4.65773">
        <ele>182</ele>
        <time>2011-05-27T13:26:50Z</time>
      </trkpt>
      <trkpt lat="49.67586" lon="4.65777">
        <ele>182</ele>
        <time>2011-05-27T13:26:51Z</time>
      </trkpt>
      <trkpt lat="49.67588" lon="4.65781">
        <ele>183</ele>
        <time>2011-05-27T13:26:52Z</time>
      </trkpt>
      <trkpt lat="49.6759" lon="4.65784">
        <ele>183</ele>
        <time>2011-05-27T13:26:53Z</time>
      </trkpt>
      <trkpt lat="49.67593" lon="4.65788">
        <ele>183</ele>
        <time>2011-05-27T13:26:54Z</time>
      </trkpt>
      <trkpt lat="49.67595" lon="4.65792">
        <ele>183</ele>
        <time>2011-05-27T13:26:55Z</time>
      </trkpt>
      <trkpt lat="49.67597" lon="4.65796">
        <ele>183</ele>
        <time>2011-05-27T13:26:56Z</time>
      </trkpt>
      <trkpt lat="49.67599" lon="4.658">
        <ele>183</ele>
        <time>2011-05-27T13:26:57Z</time>
      </trkpt>
      <trkpt lat="49.67601" lon="4.65803">
        <ele>184</ele>
        <time>2011-05-27T13:26:58Z</time>
      </trkpt>
      <trkpt lat="49.67603" lon="4.65807">
        <ele>184</ele>
        <time>2011-05-27T13:26:59Z</time>
      </trkpt>
      <trkpt lat="49.67605" lon="4.65811">
        <ele>184</ele>
        <time>2011-05-27T13:27:00Z</time>
      </trkpt>
      <trkpt lat="49.67607" lon="4.65814">
        <ele>184</ele>
        <time>2011-05-27T13:27:01Z</time>
      </trkpt>
      <trkpt lat="49.67609" lon="4.65818">
        <ele>184</ele>
        <time>2011-05-27T13:27:02Z</time>
      </trkpt>
      <trkpt lat="49.67611" lon="4.65822">
        <ele>185</ele>
        <time>2011-05-27T13:27:03Z</time>
      </trkpt>
      <trkpt lat="49.67613" lon="4.65826">
        <ele>185</ele>
        <time>2011-05-27T13:27:04Z</time>
      </trkpt>
      <trkpt lat="49.67616" lon="4.65829">
        <ele>185</ele>
        <time>2011-05-27T13:27:05Z</time>
      </trkpt>
      <trkpt lat="49.67617" lon="4.65833">
        <ele>185</ele>
        <time>2011-05-27T13:27:06Z</time>
      </trkpt>
      <trkpt lat="49.67619" lon="4.65836">
        <ele>185</ele>
        <time>2011-05-27T13:27:07Z</time>
      </trkpt>
      <trkpt lat="49.67622" lon="4.6584">
        <ele>185</ele>
        <time>2011-05-27T13:27:08Z</time>
      </trkpt>
      <trkpt lat="49.67623" lon="4.65844">
        <ele>185</ele>
        <time>2011-05-27T13:27:09Z</time>
      </trkpt>
      <trkpt lat="49.67625" lon="4.65848">
        <ele>185</ele>
        <time>2011-05-27T13:27:10Z</time>
      </trkpt>
      <trkpt lat="49.67627" lon="4.65851">
        <ele>185</ele>
        <time>2011-05-27T13:27:11Z</time>
      </trkpt>
      <trkpt lat="49.67629" lon="4.65855">
        <ele>185</ele>
        <time>2011-05-27T13:27:12Z</time>
      </trkpt>
      <trkpt lat="49.67631" lon="4.65859">
        <ele>185</ele>
        <time>2011-05-27T13:27:13Z</time>
      </trkpt>
      <trkpt lat="49.67633" lon="4.65863">
        <ele>185</ele>
        <time>2011-05-27T13:27:14Z</time>
      </trkpt>
      <trkpt lat="49.67635" lon="4.65867">
        <ele>186</ele>
        <time>2011-05-27T13:27:15Z</time>
      </trkpt>
      <trkpt lat="49.67637" lon="4.6587">
        <ele>186</ele>
        <time>2011-05-27T13:27:16Z</time>
      </trkpt>
      <trkpt lat="49.67639" lon="4.65874">
        <ele>186</ele>
        <time>2011-05-27T13:27:17Z</time>
      </trkpt>
      <trkpt lat="49.6764" lon="4.65878">
        <ele>186</ele>
        <time>2011-05-27T13:27:18Z</time>
      </trkpt>
      <trkpt lat="49.67642" lon="4.65882">
        <ele>186</ele>
        <time>2011-05-27T13:27:19Z</time>
      </trkpt>
      <trkpt lat="49.67644" lon="4.65885">
        <ele>186</ele>
        <time>2011-05-27T13:27:20Z</time>
      </trkpt>
      <trkpt lat="49.67645" lon="4.65888">
        <ele>187</ele>
        <time>2011-05-27T13:27:21Z</time>
      </trkpt>
      <trkpt lat="49.67646" lon="4.65891">
        <ele>187</ele>
        <time>2011-05-27T13:27:22Z</time>
      </trkpt>
      <trkpt lat="49.67648" lon="4.65893">
        <ele>187</ele>
        <time>2011-05-27T13:27:23Z</time>
      </trkpt>
      <trkpt lat="49.67649" lon="4.65896">
        <ele>187</ele>
        <time>2011-05-27T13:27:24Z</time>
      </trkpt>
      <trkpt lat="49.67651" lon="4.659">
        <ele>187</ele>
        <time>2011-05-27T13:27:25Z</time>
      </trkpt>
      <trkpt lat="49.67652" lon="4.65903">
        <ele>187</ele>
        <time>2011-05-27T13:27:26Z</time>
      </trkpt>
      <trkpt lat="49.67654" lon="4.65906">
        <ele>188</ele>
        <time>2011-05-27T13:27:27Z</time>
      </trkpt>
      <trkpt lat="49.67655" lon="4.65908">
        <ele>188</ele>
        <time>2011-05-27T13:27:28Z</time>
      </trkpt>
      <trkpt lat="49.67657" lon="4.65911">
        <ele>188</ele>
        <time>2011-05-27T13:27:29Z</time>
      </trkpt>
      <trkpt lat="49.67658" lon="4.65914">
        <ele>188</ele>
        <time>2011-05-27T13:27:30Z</time>
      </trkpt>
      <trkpt lat="49.6766" lon="4.65917">
        <ele>188</ele>
        <time>2011-05-27T13:27:31Z</time>
      </trkpt>
      <trkpt lat="49.67661" lon="4.6592">
        <ele>188</ele>
        <time>2011-05-27T13:27:32Z</time>
      </trkpt>
      <trkpt lat="49.67663" lon="4.65923">
        <ele>189</ele>
        <time>2011-05-27T13:27:33Z</time>
      </trkpt>
      <trkpt lat="49.67664" lon="4.65926">
        <ele>189</ele>
        <time>2011-05-27T13:27:34Z</time>
      </trkpt>
      <trkpt lat="49.67666" lon="4.65928">
        <ele>189</ele>
        <time>2011-05-27T13:27:35Z</time>
      </trkpt>
      <trkpt lat="49.67667" lon="4.65931">
        <ele>189</ele>
        <time>2011-05-27T13:27:36Z</time>
      </trkpt>
      <trkpt lat="49.67669" lon="4.65934">
        <ele>189</ele>
        <time>2011-05-27T13:27:37Z</time>
      </trkpt>
      <trkpt lat="49.6767" lon="4.65937">
        <ele>189</ele>
        <time>2011-05-27T13:27:38Z</time>
      </trkpt>
      <trkpt lat="49.67672" lon="4.6594">
        <ele>189</ele>
        <time>2011-05-27T13:27:39Z</time>
      </trkpt>
      <trkpt lat="49.67673" lon="4.65943">
        <ele>189</ele>
        <time>2011-05-27T13:27:40Z</time>
      </trkpt>
      <trkpt lat="49.67675" lon="4.65946">
        <ele>189</ele>
        <time>2011-05-27T13:27:41Z</time>
      </trkpt>
      <trkpt lat="49.67676" lon="4.65949">
        <ele>190</ele>
        <time>2011-05-27T13:27:42Z</time>
      </trkpt>
      <trkpt lat="49.67678" lon="4.65952">
        <ele>190</ele>
        <time>2011-05-27T13:27:43Z</time>
      </trkpt>
      <trkpt lat="49.67679" lon="4.65955">
        <ele>190</ele>
        <time>2011-05-27T13:27:44Z</time>
      </trkpt>
      <trkpt lat="49.67681" lon="4.65957">
        <ele>190</ele>
        <time>2011-05-27T13:27:45Z</time>
      </trkpt>
      <trkpt lat="49.67682" lon="4.6596">
        <ele>190</ele>
        <time>2011-05-27T13:27:46Z</time>
      </trkpt>
      <trkpt lat="49.67684" lon="4.65963">
        <ele>190</ele>
        <time>2011-05-27T13:27:47Z</time>
      </trkpt>
      <trkpt lat="49.67686" lon="4.65966">
        <ele>190</ele>
        <time>2011-05-27T13:27:48Z</time>
      </trkpt>
      <trkpt lat="49.67688" lon="4.6597">
        <ele>190</ele>
        <time>2011-05-27T13:27:49Z</time>
      </trkpt>
      <trkpt lat="49.6769" lon="4.65974">
        <ele>191</ele>
        <time>2011-05-27T13:27:50Z</time>
      </trkpt>
      <trkpt lat="49.67691" lon="4.65977">
        <ele>191</ele>
        <time>2011-05-27T13:27:51Z</time>
      </trkpt>
      <trkpt lat="49.67693" lon="4.6598">
        <ele>191</ele>
        <time>2011-05-27T13:27:52Z</time>
      </trkpt>
      <trkpt lat="49.67695" lon="4.65984">
        <ele>191</ele>
        <time>2011-05-27T13:27:53Z</time>
      </trkpt>
      <trkpt lat="49.67696" lon="4.65987">
        <ele>191</ele>
        <time>2011-05-27T13:27:54Z</time>
      </trkpt>
      <trkpt lat="49.67698" lon="4.6599">
        <ele>192</ele>
        <time>2011-05-27T13:27:55Z</time>
      </trkpt>
      <trkpt lat="49.67699" lon="4.65994">
        <ele>192</ele>
        <time>2011-05-27T13:27:56Z</time>
      </trkpt>
      <trkpt lat="49.67701" lon="4.65997">
        <ele>192</ele>
        <time>2011-05-27T13:27:57Z</time>
      </trkpt>
      <trkpt lat="49.67702" lon="4.66001">
        <ele>192</ele>
        <time>2011-05-27T13:27:58Z</time>
      </trkpt>
      <trkpt lat="49.67704" lon="4.66004">
        <ele>193</ele>
        <time>2011-05-27T13:27:59Z</time>
      </trkpt>
      <trkpt lat="49.67706" lon="4.66008">
        <ele>193</ele>
        <time>2011-05-27T13:28:00Z</time>
      </trkpt>
      <trkpt lat="49.67707" lon="4.66012">
        <ele>193</ele>
        <time>2011-05-27T13:28:01Z</time>
      </trkpt>
      <trkpt lat="49.67708" lon="4.66015">
        <ele>193</ele>
        <time>2011-05-27T13:28:02Z</time>
      </trkpt>
      <trkpt lat="49.6771" lon="4.66019">
        <ele>194</ele>
        <time>2011-05-27T13:28:03Z</time>
      </trkpt>
      <trkpt lat="49.67712" lon="4.66022">
        <ele>194</ele>
        <time>2011-05-27T13:28:04Z</time>
      </trkpt>
      <trkpt lat="49.67714" lon="4.66025">
        <ele>194</ele>
        <time>2011-05-27T13:28:05Z</time>
      </trkpt>
      <trkpt lat="49.67715" lon="4.66028">
        <ele>194</ele>
        <time>2011-05-27T13:28:06Z</time>
      </trkpt>
      <trkpt lat="49.67717" lon="4.66031">
        <ele>195</ele>
        <time>2011-05-27T13:28:07Z</time>
      </trkpt>
      <trkpt lat="49.67718" lon="4.66035">
        <ele>195</ele>
        <time>2011-05-27T13:28:08Z</time>
      </trkpt>
      <trkpt lat="49.6772" lon="4.66038">
        <ele>195</ele>
        <time>2011-05-27T13:28:09Z</time>
      </trkpt>
      <trkpt lat="49.67721" lon="4.66041">
        <ele>195</ele>
        <time>2011-05-27T13:28:10Z</time>
      </trkpt>
      <trkpt lat="49.67722" lon="4.66044">
        <ele>195</ele>
        <time>2011-05-27T13:28:11Z</time>
      </trkpt>
      <trkpt lat="49.67724" lon="4.66047">
        <ele>196</ele>
        <time>2011-05-27T13:28:12Z</time>
      </trkpt>
      <trkpt lat="49.67726" lon="4.6605">
        <ele>196</ele>
        <time>2011-05-27T13:28:13Z</time>
      </trkpt>
      <trkpt lat="49.67727" lon="4.66053">
        <ele>196</ele>
        <time>2011-05-27T13:28:14Z</time>
      </trkpt>
      <trkpt lat="49.67729" lon="4.66056">
        <ele>196</ele>
        <time>2011-05-27T13:28:15Z</time>
      </trkpt>
      <trkpt lat="49.6773" lon="4.66059">
        <ele>196</ele>
        <time>2011-05-27T13:28:16Z</time>
      </trkpt>
      <trkpt lat="49.67732" lon="4.66062">
        <ele>196</ele>
        <time>2011-05-27T13:28:17Z</time>
      </trkpt>
      <trkpt lat="49.67733" lon="4.66066">
        <ele>196</ele>
        <time>2011-05-27T13:28:18Z</time>
      </trkpt>
      <trkpt lat="49.67735" lon="4.66069">
        <ele>196</ele>
        <time>2011-05-27T13:28:19Z</time>
      </trkpt>
      <trkpt lat="49.67737" lon="4.66072">
        <ele>197</ele>
        <time>2011-05-27T13:28:20Z</time>
      </trkpt>
      <trkpt lat="49.67739" lon="4.66075">
        <ele>197</ele>
        <time>2011-05-27T13:28:21Z</time>
      </trkpt>
      <trkpt lat="49.6774" lon="4.66078">
        <ele>197</ele>
        <time>2011-05-27T13:28:22Z</time>
      </trkpt>
      <trkpt lat="49.67742" lon="4.66081">
        <ele>197</ele>
        <time>2011-05-27T13:28:23Z</time>
      </trkpt>
      <trkpt lat="49.67744" lon="4.66085">
        <ele>197</ele>
        <time>2011-05-27T13:28:24Z</time>
      </trkpt>
      <trkpt lat="49.67746" lon="4.66088">
        <ele>197</ele>
        <time>2011-05-27T13:28:25Z</time>
      </trkpt>
      <trkpt lat="49.67748" lon="4.66091">
        <ele>197</ele>
        <time>2011-05-27T13:28:26Z</time>
      </trkpt>
      <trkpt lat="49.6775" lon="4.66095">
        <ele>197</ele>
        <time>2011-05-27T13:28:27Z</time>
      </trkpt>
      <trkpt lat="49.67752" lon="4.66099">
        <ele>197</ele>
        <time>2011-05-27T13:28:28Z</time>
      </trkpt>
      <trkpt lat="49.67754" lon="4.66103">
        <ele>197</ele>
        <time>2011-05-27T13:28:29Z</time>
      </trkpt>
      <trkpt lat="49.67757" lon="4.66107">
        <ele>198</ele>
        <time>2011-05-27T13:28:30Z</time>
      </trkpt>
      <trkpt lat="49.67759" lon="4.6611">
        <ele>198</ele>
        <time>2011-05-27T13:28:31Z</time>
      </trkpt>
      <trkpt lat="49.67762" lon="4.66114">
        <ele>198</ele>
        <time>2011-05-27T13:28:32Z</time>
      </trkpt>
      <trkpt lat="49.67764" lon="4.66118">
        <ele>198</ele>
        <time>2011-05-27T13:28:33Z</time>
      </trkpt>
      <trkpt lat="49.67767" lon="4.66122">
        <ele>198</ele>
        <time>2011-05-27T13:28:34Z</time>
      </trkpt>
      <trkpt lat="49.67769" lon="4.66126">
        <ele>198</ele>
        <time>2011-05-27T13:28:35Z</time>
      </trkpt>
      <trkpt lat="49.67772" lon="4.66131">
        <ele>198</ele>
        <time>2011-05-27T13:28:36Z</time>
      </trkpt>
      <trkpt lat="49.67773" lon="4.66136">
        <ele>198</ele>
        <time>2011-05-27T13:28:37Z</time>
      </trkpt>
      <trkpt lat="49.67774" lon="4.66142">
        <ele>198</ele>
        <time>2011-05-27T13:28:38Z</time>
      </trkpt>
      <trkpt lat="49.67775" lon="4.66147">
        <ele>198</ele>
        <time>2011-05-27T13:28:39Z</time>
      </trkpt>
      <trkpt lat="49.67775" lon="4.66152">
        <ele>198</ele>
        <time>2011-05-27T13:28:40Z</time>
      </trkpt>
      <trkpt lat="49.67774" lon="4.66157">
        <ele>198</ele>
        <time>2011-05-27T13:28:41Z</time>
      </trkpt>
      <trkpt lat="49.67773" lon="4.6616">
        <ele>198</ele>
        <time>2011-05-27T13:28:42Z</time>
      </trkpt>
      <trkpt lat="49.67772" lon="4.66164">
        <ele>198</ele>
        <time>2011-05-27T13:28:43Z</time>
      </trkpt>
      <trkpt lat="49.67771" lon="4.66166">
        <ele>199</ele>
        <time>2011-05-27T13:28:44Z</time>
      </trkpt>
      <trkpt lat="49.6777" lon="4.66169">
        <ele>199</ele>
        <time>2011-05-27T13:28:45Z</time>
      </trkpt>
      <trkpt lat="49.67769" lon="4.66172">
        <ele>199</ele>
        <time>2011-05-27T13:28:46Z</time>
      </trkpt>
      <trkpt lat="49.67768" lon="4.66175">
        <ele>200</ele>
        <time>2011-05-27T13:28:47Z</time>
      </trkpt>
      <trkpt lat="49.67766" lon="4.66178">
        <ele>200</ele>
        <time>2011-05-27T13:28:48Z</time>
      </trkpt>
      <trkpt lat="49.67765" lon="4.6618">
        <ele>200</ele>
        <time>2011-05-27T13:28:49Z</time>
      </trkpt>
      <trkpt lat="49.67764" lon="4.66183">
        <ele>201</ele>
        <time>2011-05-27T13:28:50Z</time>
      </trkpt>
      <trkpt lat="49.67764" lon="4.66185">
        <ele>201</ele>
        <time>2011-05-27T13:28:51Z</time>
      </trkpt>
      <trkpt lat="49.67763" lon="4.66187">
        <ele>202</ele>
        <time>2011-05-27T13:28:55Z</time>
      </trkpt>
      <trkpt lat="49.67763" lon="4.66188">
        <ele>202</ele>
        <time>2011-05-27T13:28:56Z</time>
      </trkpt>
      <trkpt lat="49.67763" lon="4.66191">
        <ele>203</ele>
        <time>2011-05-27T13:28:57Z</time>
      </trkpt>
      <trkpt lat="49.67763" lon="4.66194">
        <ele>203</ele>
        <time>2011-05-27T13:28:58Z</time>
      </trkpt>
      <trkpt lat="49.67764" lon="4.66199">
        <ele>203</ele>
        <time>2011-05-27T13:28:59Z</time>
      </trkpt>
      <trkpt lat="49.67766" lon="4.66204">
        <ele>203</ele>
        <time>2011-05-27T13:29:00Z</time>
      </trkpt>
      <trkpt lat="49.67768" lon="4.6621">
        <ele>203</ele>
        <time>2011-05-27T13:29:01Z</time>
      </trkpt>
      <trkpt lat="49.6777" lon="4.66217">
        <ele>203</ele>
        <time>2011-05-27T13:29:02Z</time>
      </trkpt>
      <trkpt lat="49.67773" lon="4.66224">
        <ele>203</ele>
        <time>2011-05-27T13:29:03Z</time>
      </trkpt>
      <trkpt lat="49.67775" lon="4.66232">
        <ele>203</ele>
        <time>2011-05-27T13:29:04Z</time>
      </trkpt>
      <trkpt lat="49.67779" lon="4.6624">
        <ele>203</ele>
        <time>2011-05-27T13:29:05Z</time>
      </trkpt>
      <trkpt lat="49.67783" lon="4.66249">
        <ele>203</ele>
        <time>2011-05-27T13:29:06Z</time>
      </trkpt>
      <trkpt lat="49.67788" lon="4.66258">
        <ele>203</ele>
        <time>2011-05-27T13:29:07Z</time>
      </trkpt>
      <trkpt lat="49.67793" lon="4.66265">
        <ele>202</ele>
        <time>2011-05-27T13:29:08Z</time>
      </trkpt>
      <trkpt lat="49.678" lon="4.66271">
        <ele>201</ele>
        <time>2011-05-27T13:29:09Z</time>
      </trkpt>
      <trkpt lat="49.67807" lon="4.66273">
        <ele>200</ele>
        <time>2011-05-27T13:29:10Z</time>
      </trkpt>
      <trkpt lat="49.67813" lon="4.66273">
        <ele>199</ele>
        <time>2011-05-27T13:29:11Z</time>
      </trkpt>
      <trkpt lat="49.6782" lon="4.66272">
        <ele>198</ele>
        <time>2011-05-27T13:29:12Z</time>
      </trkpt>
      <trkpt lat="49.67826" lon="4.66268">
        <ele>197</ele>
        <time>2011-05-27T13:29:13Z</time>
      </trkpt>
      <trkpt lat="49.67833" lon="4.66263">
        <ele>196</ele>
        <time>2011-05-27T13:29:14Z</time>
      </trkpt>
      <trkpt lat="49.67838" lon="4.66256">
        <ele>195</ele>
        <time>2011-05-27T13:29:15Z</time>
      </trkpt>
      <trkpt lat="49.67842" lon="4.66249">
        <ele>194</ele>
        <time>2011-05-27T13:29:16Z</time>
      </trkpt>
      <trkpt lat="49.67846" lon="4.66243">
        <ele>193</ele>
        <time>2011-05-27T13:29:17Z</time>
      </trkpt>
      <trkpt lat="49.67849" lon="4.66238">
        <ele>192</ele>
        <time>2011-05-27T13:29:18Z</time>
      </trkpt>
      <trkpt lat="49.67851" lon="4.66236">
        <ele>191</ele>
        <time>2011-05-27T13:29:19Z</time>
      </trkpt>
      <trkpt lat="49.67853" lon="4.66235">
        <ele>190</ele>
        <time>2011-05-27T13:29:20Z</time>
      </trkpt>
      <trkpt lat="49.67855" lon="4.66237">
        <ele>189</ele>
        <time>2011-05-27T13:29:21Z</time>
      </trkpt>
      <trkpt lat="49.67857" lon="4.66241">
        <ele>188</ele>
        <time>2011-05-27T13:29:22Z</time>
      </trkpt>
      <trkpt lat="49.67859" lon="4.66247">
        <ele>187</ele>
        <time>2011-05-27T13:29:23Z</time>
      </trkpt>
      <trkpt lat="49.6786" lon="4.66254">
        <ele>186</ele>
        <time>2011-05-27T13:29:24Z</time>
      </trkpt>
      <trkpt lat="49.6786" lon="4.66261">
        <ele>185</ele>
        <time>2011-05-27T13:29:25Z</time>
      </trkpt>
      <trkpt lat="49.67861" lon="4.6627">
        <ele>185</ele>
        <time>2011-05-27T13:29:26Z</time>
      </trkpt>
      <trkpt lat="49.67863" lon="4.66278">
        <ele>185</ele>
        <time>2011-05-27T13:29:27Z</time>
      </trkpt>
      <trkpt lat="49.67865" lon="4.66287">
        <ele>184</ele>
        <time>2011-05-27T13:29:28Z</time>
      </trkpt>
      <trkpt lat="49.67868" lon="4.66295">
        <ele>184</ele>
        <time>2011-05-27T13:29:29Z</time>
      </trkpt>
      <trkpt lat="49.67871" lon="4.66305">
        <ele>184</ele>
        <time>2011-05-27T13:29:30Z</time>
      </trkpt>
      <trkpt lat="49.67874" lon="4.66315">
        <ele>183</ele>
        <time>2011-05-27T13:29:31Z</time>
      </trkpt>
      <trkpt lat="49.67877" lon="4.66324">
        <ele>183</ele>
        <time>2011-05-27T13:29:32Z</time>
      </trkpt>
      <trkpt lat="49.67881" lon="4.66333">
        <ele>183</ele>
        <time>2011-05-27T13:29:33Z</time>
      </trkpt>
      <trkpt lat="49.67884" lon="4.66342">
        <ele>183</ele>
        <time>2011-05-27T13:29:34Z</time>
      </trkpt>
      <trkpt lat="49.67889" lon="4.66352">
        <ele>182</ele>
        <time>2011-05-27T13:29:35Z</time>
      </trkpt>
      <trkpt lat="49.67893" lon="4.6636">
        <ele>182</ele>
        <time>2011-05-27T13:29:36Z</time>
      </trkpt>
      <trkpt lat="49.67897" lon="4.66368">
        <ele>182</ele>
        <time>2011-05-27T13:29:37Z</time>
      </trkpt>
      <trkpt lat="49.67902" lon="4.66375">
        <ele>182</ele>
        <time>2011-05-27T13:29:38Z</time>
      </trkpt>
      <trkpt lat="49.67906" lon="4.66382">
        <ele>181</ele>
        <time>2011-05-27T13:29:39Z</time>
      </trkpt>
      <trkpt lat="49.6791" lon="4.66388">
        <ele>181</ele>
        <time>2011-05-27T13:29:40Z</time>
      </trkpt>
      <trkpt lat="49.67914" lon="4.66394">
        <ele>180</ele>
        <time>2011-05-27T13:29:41Z</time>
      </trkpt>
      <trkpt lat="49.67918" lon="4.664">
        <ele>179</ele>
        <time>2011-05-27T13:29:42Z</time>
      </trkpt>
      <trkpt lat="49.67922" lon="4.66405">
        <ele>179</ele>
        <time>2011-05-27T13:29:43Z</time>
      </trkpt>
      <trkpt lat="49.67927" lon="4.66409">
        <ele>179</ele>
        <time>2011-05-27T13:29:44Z</time>
      </trkpt>
      <trkpt lat="49.67931" lon="4.66413">
        <ele>179</ele>
        <time>2011-05-27T13:29:45Z</time>
      </trkpt>
      <trkpt lat="49.67936" lon="4.66417">
        <ele>178</ele>
        <time>2011-05-27T13:29:46Z</time>
      </trkpt>
      <trkpt lat="49.67941" lon="4.66421">
        <ele>178</ele>
        <time>2011-05-27T13:29:47Z</time>
      </trkpt>
      <trkpt lat="49.67947" lon="4.66424">
        <ele>178</ele>
        <time>2011-05-27T13:29:48Z</time>
      </trkpt>
      <trkpt lat="49.67952" lon="4.66427">
        <ele>177</ele>
        <time>2011-05-27T13:29:49Z</time>
      </trkpt>
      <trkpt lat="49.67957" lon="4.66429">
        <ele>176</ele>
        <time>2011-05-27T13:29:50Z</time>
      </trkpt>
      <trkpt lat="49.67963" lon="4.66432">
        <ele>176</ele>
        <time>2011-05-27T13:29:51Z</time>
      </trkpt>
      <trkpt lat="49.67968" lon="4.66435">
        <ele>175</ele>
        <time>2011-05-27T13:29:52Z</time>
      </trkpt>
      <trkpt lat="49.67974" lon="4.66439">
        <ele>175</ele>
        <time>2011-05-27T13:29:53Z</time>
      </trkpt>
      <trkpt lat="49.67981" lon="4.66442">
        <ele>174</ele>
        <time>2011-05-27T13:29:54Z</time>
      </trkpt>
      <trkpt lat="49.67987" lon="4.66447">
        <ele>173</ele>
        <time>2011-05-27T13:29:55Z</time>
      </trkpt>
      <trkpt lat="49.67993" lon="4.66453">
        <ele>173</ele>
        <time>2011-05-27T13:29:56Z</time>
      </trkpt>
      <trkpt lat="49.68" lon="4.66458">
        <ele>172</ele>
        <time>2011-05-27T13:29:57Z</time>
      </trkpt>
      <trkpt lat="49.68007" lon="4.66464">
        <ele>171</ele>
        <time>2011-05-27T13:29:58Z</time>
      </trkpt>
      <trkpt lat="49.68013" lon="4.66471">
        <ele>170</ele>
        <time>2011-05-27T13:29:59Z</time>
      </trkpt>
      <trkpt lat="49.6802" lon="4.66479">
        <ele>169</ele>
        <time>2011-05-27T13:30:00Z</time>
      </trkpt>
      <trkpt lat="49.68026" lon="4.66488">
        <ele>168</ele>
        <time>2011-05-27T13:30:01Z</time>
      </trkpt>
      <trkpt lat="49.68032" lon="4.66497">
        <ele>168</ele>
        <time>2011-05-27T13:30:02Z</time>
      </trkpt>
      <trkpt lat="49.68039" lon="4.66506">
        <ele>167</ele>
        <time>2011-05-27T13:30:03Z</time>
      </trkpt>
      <trkpt lat="49.68045" lon="4.66515">
        <ele>166</ele>
        <time>2011-05-27T13:30:04Z</time>
      </trkpt>
      <trkpt lat="49.68052" lon="4.66524">
        <ele>166</ele>
        <time>2011-05-27T13:30:05Z</time>
      </trkpt>
      <trkpt lat="49.68058" lon="4.66533">
        <ele>166</ele>
        <time>2011-05-27T13:30:06Z</time>
      </trkpt>
      <trkpt lat="49.68064" lon="4.66541">
        <ele>165</ele>
        <time>2011-05-27T13:30:07Z</time>
      </trkpt>
      <trkpt lat="49.6807" lon="4.6655">
        <ele>165</ele>
        <time>2011-05-27T13:30:08Z</time>
      </trkpt>
      <trkpt lat="49.68076" lon="4.66558">
        <ele>165</ele>
        <time>2011-05-27T13:30:09Z</time>
      </trkpt>
      <trkpt lat="49.68082" lon="4.66566">
        <ele>165</ele>
        <time>2011-05-27T13:30:10Z</time>
      </trkpt>
      <trkpt lat="49.68087" lon="4.66574">
        <ele>165</ele>
        <time>2011-05-27T13:30:11Z</time>
      </trkpt>
      <trkpt lat="49.68092" lon="4.66583">
        <ele>164</ele>
        <time>2011-05-27T13:30:12Z</time>
      </trkpt>
      <trkpt lat="49.68097" lon="4.66591">
        <ele>164</ele>
        <time>2011-05-27T13:30:13Z</time>
      </trkpt>
      <trkpt lat="49.68102" lon="4.66599">
        <ele>164</ele>
        <time>2011-05-27T13:30:14Z</time>
      </trkpt>
      <trkpt lat="49.68106" lon="4.66606">
        <ele>164</ele>
        <time>2011-05-27T13:30:15Z</time>
      </trkpt>
      <trkpt lat="49.68111" lon="4.66611">
        <ele>164</ele>
        <time>2011-05-27T13:30:16Z</time>
      </trkpt>
      <trkpt lat="49.68115" lon="4.66616">
        <ele>164</ele>
        <time>2011-05-27T13:30:17Z</time>
      </trkpt>
      <trkpt lat="49.68118" lon="4.66621">
        <ele>164</ele>
        <time>2011-05-27T13:30:18Z</time>
      </trkpt>
      <trkpt lat="49.68121" lon="4.66625">
        <ele>164</ele>
        <time>2011-05-27T13:30:19Z</time>
      </trkpt>
      <trkpt lat="49.68124" lon="4.66629">
        <ele>164</ele>
        <time>2011-05-27T13:30:20Z</time>
      </trkpt>
      <trkpt lat="49.68127" lon="4.66633">
        <ele>164</ele>
        <time>2011-05-27T13:30:21Z</time>
      </trkpt>
      <trkpt lat="49.6813" lon="4.66636">
        <ele>164</ele>
        <time>2011-05-27T13:30:22Z</time>
      </trkpt>
      <trkpt lat="49.68133" lon="4.6664">
        <ele>164</ele>
        <time>2011-05-27T13:30:23Z</time>
      </trkpt>
      <trkpt lat="49.68135" lon="4.66644">
        <ele>164</ele>
        <time>2011-05-27T13:30:24Z</time>
      </trkpt>
      <trkpt lat="49.68138" lon="4.66648">
        <ele>164</ele>
        <time>2011-05-27T13:30:25Z</time>
      </trkpt>
      <trkpt lat="49.68141" lon="4.66652">
        <ele>164</ele>
        <time>2011-05-27T13:30:26Z</time>
      </trkpt>
      <trkpt lat="49.68144" lon="4.66656">
        <ele>164</ele>
        <time>2011-05-27T13:30:27Z</time>
      </trkpt>
      <trkpt lat="49.68147" lon="4.6666">
        <ele>164</ele>
        <time>2011-05-27T13:30:28Z</time>
      </trkpt>
      <trkpt lat="49.68149" lon="4.66664">
        <ele>164</ele>
        <time>2011-05-27T13:30:29Z</time>
      </trkpt>
      <trkpt lat="49.68152" lon="4.66668">
        <ele>164</ele>
        <time>2011-05-27T13:30:30Z</time>
      </trkpt>
      <trkpt lat="49.68154" lon="4.66672">
        <ele>164</ele>
        <time>2011-05-27T13:30:31Z</time>
      </trkpt>
      <trkpt lat="49.68156" lon="4.66675">
        <ele>164</ele>
        <time>2011-05-27T13:30:32Z</time>
      </trkpt>
      <trkpt lat="49.68159" lon="4.66679">
        <ele>164</ele>
        <time>2011-05-27T13:30:33Z</time>
      </trkpt>
      <trkpt lat="49.68162" lon="4.66684">
        <ele>164</ele>
        <time>2011-05-27T13:30:34Z</time>
      </trkpt>
      <trkpt lat="49.68164" lon="4.66688">
        <ele>164</ele>
        <time>2011-05-27T13:30:35Z</time>
      </trkpt>
      <trkpt lat="49.68167" lon="4.66693">
        <ele>164</ele>
        <time>2011-05-27T13:30:36Z</time>
      </trkpt>
      <trkpt lat="49.68169" lon="4.66697">
        <ele>164</ele>
        <time>2011-05-27T13:30:37Z</time>
      </trkpt>
      <trkpt lat="49.68171" lon="4.66701">
        <ele>164</ele>
        <time>2011-05-27T13:30:38Z</time>
      </trkpt>
      <trkpt lat="49.68174" lon="4.66705">
        <ele>164</ele>
        <time>2011-05-27T13:30:39Z</time>
      </trkpt>
      <trkpt lat="49.68176" lon="4.66709">
        <ele>164</ele>
        <time>2011-05-27T13:30:40Z</time>
      </trkpt>
      <trkpt lat="49.68178" lon="4.66713">
        <ele>164</ele>
        <time>2011-05-27T13:30:41Z</time>
      </trkpt>
      <trkpt lat="49.6818" lon="4.66717">
        <ele>164</ele>
        <time>2011-05-27T13:30:42Z</time>
      </trkpt>
      <trkpt lat="49.68182" lon="4.6672">
        <ele>164</ele>
        <time>2011-05-27T13:30:43Z</time>
      </trkpt>
      <trkpt lat="49.68184" lon="4.66723">
        <ele>164</ele>
        <time>2011-05-27T13:30:44Z</time>
      </trkpt>
      <trkpt lat="49.68186" lon="4.66726">
        <ele>164</ele>
        <time>2011-05-27T13:30:45Z</time>
      </trkpt>
      <trkpt lat="49.68188" lon="4.6673">
        <ele>165</ele>
        <time>2011-05-27T13:30:46Z</time>
      </trkpt>
      <trkpt lat="49.6819" lon="4.66734">
        <ele>165</ele>
        <time>2011-05-27T13:30:47Z</time>
      </trkpt>
      <trkpt lat="49.68193" lon="4.66737">
        <ele>165</ele>
        <time>2011-05-27T13:30:48Z</time>
      </trkpt>
      <trkpt lat="49.68195" lon="4.66741">
        <ele>165</ele>
        <time>2011-05-27T13:30:49Z</time>
      </trkpt>
      <trkpt lat="49.68198" lon="4.66745">
        <ele>165</ele>
        <time>2011-05-27T13:30:50Z</time>
      </trkpt>
      <trkpt lat="49.68201" lon="4.66749">
        <ele>165</ele>
        <time>2011-05-27T13:30:51Z</time>
      </trkpt>
      <trkpt lat="49.68204" lon="4.66752">
        <ele>165</ele>
        <time>2011-05-27T13:30:52Z</time>
      </trkpt>
      <trkpt lat="49.68206" lon="4.66756">
        <ele>165</ele>
        <time>2011-05-27T13:30:53Z</time>
      </trkpt>
      <trkpt lat="49.6821" lon="4.66761">
        <ele>165</ele>
        <time>2011-05-27T13:30:54Z</time>
      </trkpt>
      <trkpt lat="49.68213" lon="4.66766">
        <ele>165</ele>
        <time>2011-05-27T13:30:55Z</time>
      </trkpt>
      <trkpt lat="49.68217" lon="4.66771">
        <ele>165</ele>
        <time>2011-05-27T13:30:56Z</time>
      </trkpt>
      <trkpt lat="49.68221" lon="4.66777">
        <ele>165</ele>
        <time>2011-05-27T13:30:57Z</time>
      </trkpt>
      <trkpt lat="49.68225" lon="4.66783">
        <ele>165</ele>
        <time>2011-05-27T13:30:58Z</time>
      </trkpt>
      <trkpt lat="49.6823" lon="4.66789">
        <ele>165</ele>
        <time>2011-05-27T13:30:59Z</time>
      </trkpt>
      <trkpt lat="49.68234" lon="4.66796">
        <ele>165</ele>
        <time>2011-05-27T13:31:00Z</time>
      </trkpt>
      <trkpt lat="49.68239" lon="4.66802">
        <ele>165</ele>
        <time>2011-05-27T13:31:01Z</time>
      </trkpt>
      <trkpt lat="49.68244" lon="4.66809">
        <ele>165</ele>
        <time>2011-05-27T13:31:02Z</time>
      </trkpt>
      <trkpt lat="49.68248" lon="4.66815">
        <ele>165</ele>
        <time>2011-05-27T13:31:03Z</time>
      </trkpt>
      <trkpt lat="49.68252" lon="4.66821">
        <ele>165</ele>
        <time>2011-05-27T13:31:04Z</time>
      </trkpt>
      <trkpt lat="49.68256" lon="4.66826">
        <ele>165</ele>
        <time>2011-05-27T13:31:05Z</time>
      </trkpt>
      <trkpt lat="49.6826" lon="4.66832">
        <ele>165</ele>
        <time>2011-05-27T13:31:06Z</time>
      </trkpt>
      <trkpt lat="49.68264" lon="4.66837">
        <ele>165</ele>
        <time>2011-05-27T13:31:07Z</time>
      </trkpt>
      <trkpt lat="49.68268" lon="4.66843">
        <ele>165</ele>
        <time>2011-05-27T13:31:08Z</time>
      </trkpt>
      <trkpt lat="49.68272" lon="4.66848">
        <ele>165</ele>
        <time>2011-05-27T13:31:09Z</time>
      </trkpt>
      <trkpt lat="49.68276" lon="4.66854">
        <ele>165</ele>
        <time>2011-05-27T13:31:10Z</time>
      </trkpt>
      <trkpt lat="49.6828" lon="4.66859">
        <ele>165</ele>
        <time>2011-05-27T13:31:11Z</time>
      </trkpt>
      <trkpt lat="49.68284" lon="4.66864">
        <ele>165</ele>
        <time>2011-05-27T13:31:12Z</time>
      </trkpt>
      <trkpt lat="49.68288" lon="4.6687">
        <ele>165</ele>
        <time>2011-05-27T13:31:13Z</time>
      </trkpt>
      <trkpt lat="49.68292" lon="4.66875">
        <ele>165</ele>
        <time>2011-05-27T13:31:14Z</time>
      </trkpt>
      <trkpt lat="49.68295" lon="4.6688">
        <ele>165</ele>
        <time>2011-05-27T13:31:15Z</time>
      </trkpt>
      <trkpt lat="49.68299" lon="4.66885">
        <ele>165</ele>
        <time>2011-05-27T13:31:16Z</time>
      </trkpt>
      <trkpt lat="49.68303" lon="4.66889">
        <ele>165</ele>
        <time>2011-05-27T13:31:17Z</time>
      </trkpt>
      <trkpt lat="49.68306" lon="4.66894">
        <ele>165</ele>
        <time>2011-05-27T13:31:18Z</time>
      </trkpt>
      <trkpt lat="49.6831" lon="4.66898">
        <ele>165</ele>
        <time>2011-05-27T13:31:19Z</time>
      </trkpt>
      <trkpt lat="49.68314" lon="4.66903">
        <ele>165</ele>
        <time>2011-05-27T13:31:20Z</time>
      </trkpt>
      <trkpt lat="49.68318" lon="4.66908">
        <ele>165</ele>
        <time>2011-05-27T13:31:21Z</time>
      </trkpt>
      <trkpt lat="49.68323" lon="4.66913">
        <ele>165</ele>
        <time>2011-05-27T13:31:22Z</time>
      </trkpt>
      <trkpt lat="49.68327" lon="4.66919">
        <ele>165</ele>
        <time>2011-05-27T13:31:23Z</time>
      </trkpt>
      <trkpt lat="49.68332" lon="4.66925">
        <ele>165</ele>
        <time>2011-05-27T13:31:24Z</time>
      </trkpt>
      <trkpt lat="49.68336" lon="4.66931">
        <ele>165</ele>
        <time>2011-05-27T13:31:25Z</time>
      </trkpt>
      <trkpt lat="49.68341" lon="4.66937">
        <ele>165</ele>
        <time>2011-05-27T13:31:26Z</time>
      </trkpt>
      <trkpt lat="49.68345" lon="4.66943">
        <ele>165</ele>
        <time>2011-05-27T13:31:27Z</time>
      </trkpt>
      <trkpt lat="49.6835" lon="4.66948">
        <ele>165</ele>
        <time>2011-05-27T13:31:28Z</time>
      </trkpt>
      <trkpt lat="49.68354" lon="4.66954">
        <ele>165</ele>
        <time>2011-05-27T13:31:29Z</time>
      </trkpt>
      <trkpt lat="49.68359" lon="4.66959">
        <ele>165</ele>
        <time>2011-05-27T13:31:30Z</time>
      </trkpt>
      <trkpt lat="49.68363" lon="4.66965">
        <ele>165</ele>
        <time>2011-05-27T13:31:31Z</time>
      </trkpt>
      <trkpt lat="49.68368" lon="4.66971">
        <ele>165</ele>
        <time>2011-05-27T13:31:32Z</time>
      </trkpt>
      <trkpt lat="49.68373" lon="4.66977">
        <ele>165</ele>
        <time>2011-05-27T13:31:33Z</time>
      </trkpt>
      <trkpt lat="49.68378" lon="4.66983">
        <ele>165</ele>
        <time>2011-05-27T13:31:34Z</time>
      </trkpt>
      <trkpt lat="49.68383" lon="4.66989">
        <ele>165</ele>
        <time>2011-05-27T13:31:35Z</time>
      </trkpt>
      <trkpt lat="49.68389" lon="4.66995">
        <ele>165</ele>
        <time>2011-05-27T13:31:36Z</time>
      </trkpt>
      <trkpt lat="49.68394" lon="4.67001">
        <ele>165</ele>
        <time>2011-05-27T13:31:37Z</time>
      </trkpt>
      <trkpt lat="49.68399" lon="4.67007">
        <ele>165</ele>
        <time>2011-05-27T13:31:38Z</time>
      </trkpt>
      <trkpt lat="49.68405" lon="4.67012">
        <ele>165</ele>
        <time>2011-05-27T13:31:39Z</time>
      </trkpt>
      <trkpt lat="49.6841" lon="4.67018">
        <ele>165</ele>
        <time>2011-05-27T13:31:40Z</time>
      </trkpt>
      <trkpt lat="49.68415" lon="4.67023">
        <ele>165</ele>
        <time>2011-05-27T13:31:41Z</time>
      </trkpt>
      <trkpt lat="49.6842" lon="4.67028">
        <ele>165</ele>
        <time>2011-05-27T13:31:42Z</time>
      </trkpt>
      <trkpt lat="49.68425" lon="4.67032">
        <ele>165</ele>
        <time>2011-05-27T13:31:43Z</time>
      </trkpt>
      <trkpt lat="49.6843" lon="4.67036">
        <ele>165</ele>
        <time>2011-05-27T13:31:44Z</time>
      </trkpt>
      <trkpt lat="49.68434" lon="4.67041">
        <ele>165</ele>
        <time>2011-05-27T13:31:45Z</time>
      </trkpt>
      <trkpt lat="49.68439" lon="4.67045">
        <ele>165</ele>
        <time>2011-05-27T13:31:46Z</time>
      </trkpt>
      <trkpt lat="49.68443" lon="4.67048">
        <ele>165</ele>
        <time>2011-05-27T13:31:47Z</time>
      </trkpt>
      <trkpt lat="49.68448" lon="4.67052">
        <ele>165</ele>
        <time>2011-05-27T13:31:48Z</time>
      </trkpt>
      <trkpt lat="49.68453" lon="4.67056">
        <ele>165</ele>
        <time>2011-05-27T13:31:49Z</time>
      </trkpt>
      <trkpt lat="49.68458" lon="4.6706">
        <ele>165</ele>
        <time>2011-05-27T13:31:50Z</time>
      </trkpt>
      <trkpt lat="49.68462" lon="4.67065">
        <ele>165</ele>
        <time>2011-05-27T13:31:51Z</time>
      </trkpt>
      <trkpt lat="49.68466" lon="4.67071">
        <ele>165</ele>
        <time>2011-05-27T13:31:52Z</time>
      </trkpt>
      <trkpt lat="49.6847" lon="4.67077">
        <ele>165</ele>
        <time>2011-05-27T13:31:53Z</time>
      </trkpt>
      <trkpt lat="49.68474" lon="4.67084">
        <ele>165</ele>
        <time>2011-05-27T13:31:54Z</time>
      </trkpt>
      <trkpt lat="49.68477" lon="4.67091">
        <ele>165</ele>
        <time>2011-05-27T13:31:55Z</time>
      </trkpt>
      <trkpt lat="49.6848" lon="4.67097">
        <ele>165</ele>
        <time>2011-05-27T13:31:56Z</time>
      </trkpt>
      <trkpt lat="49.68483" lon="4.67102">
        <ele>165</ele>
        <time>2011-05-27T13:31:57Z</time>
      </trkpt>
      <trkpt lat="49.68486" lon="4.67108">
        <ele>165</ele>
        <time>2011-05-27T13:31:58Z</time>
      </trkpt>
      <trkpt lat="49.6849" lon="4.67112">
        <ele>165</ele>
        <time>2011-05-27T13:31:59Z</time>
      </trkpt>
      <trkpt lat="49.68493" lon="4.67117">
        <ele>165</ele>
        <time>2011-05-27T13:32:00Z</time>
      </trkpt>
      <trkpt lat="49.68496" lon="4.67122">
        <ele>165</ele>
        <time>2011-05-27T13:32:01Z</time>
      </trkpt>
      <trkpt lat="49.68499" lon="4.67127">
        <ele>165</ele>
        <time>2011-05-27T13:32:02Z</time>
      </trkpt>
      <trkpt lat="49.68501" lon="4.67131">
        <ele>165</ele>
        <time>2011-05-27T13:32:03Z</time>
      </trkpt>
      <trkpt lat="49.68504" lon="4.67136">
        <ele>165</ele>
        <time>2011-05-27T13:32:04Z</time>
      </trkpt>
      <trkpt lat="49.68507" lon="4.67142">
        <ele>165</ele>
        <time>2011-05-27T13:32:05Z</time>
      </trkpt>
      <trkpt lat="49.6851" lon="4.67148">
        <ele>165</ele>
        <time>2011-05-27T13:32:06Z</time>
      </trkpt>
      <trkpt lat="49.68513" lon="4.67153">
        <ele>165</ele>
        <time>2011-05-27T13:32:07Z</time>
      </trkpt>
      <trkpt lat="49.68517" lon="4.67158">
        <ele>165</ele>
        <time>2011-05-27T13:32:08Z</time>
      </trkpt>
      <trkpt lat="49.6852" lon="4.67164">
        <ele>165</ele>
        <time>2011-05-27T13:32:09Z</time>
      </trkpt>
      <trkpt lat="49.68524" lon="4.67169">
        <ele>165</ele>
        <time>2011-05-27T13:32:10Z</time>
      </trkpt>
      <trkpt lat="49.68527" lon="4.67175">
        <ele>165</ele>
        <time>2011-05-27T13:32:11Z</time>
      </trkpt>
      <trkpt lat="49.68531" lon="4.6718">
        <ele>165</ele>
        <time>2011-05-27T13:32:12Z</time>
      </trkpt>
      <trkpt lat="49.68534" lon="4.67186">
        <ele>165</ele>
        <time>2011-05-27T13:32:13Z</time>
      </trkpt>
      <trkpt lat="49.68537" lon="4.67192">
        <ele>165</ele>
        <time>2011-05-27T13:32:14Z</time>
      </trkpt>
      <trkpt lat="49.68541" lon="4.67198">
        <ele>165</ele>
        <time>2011-05-27T13:32:15Z</time>
      </trkpt>
      <trkpt lat="49.68544" lon="4.67204">
        <ele>165</ele>
        <time>2011-05-27T13:32:16Z</time>
      </trkpt>
      <trkpt lat="49.68548" lon="4.6721">
        <ele>165</ele>
        <time>2011-05-27T13:32:17Z</time>
      </trkpt>
      <trkpt lat="49.68552" lon="4.67216">
        <ele>165</ele>
        <time>2011-05-27T13:32:18Z</time>
      </trkpt>
      <trkpt lat="49.68555" lon="4.67222">
        <ele>165</ele>
        <time>2011-05-27T13:32:19Z</time>
      </trkpt>
      <trkpt lat="49.68559" lon="4.67228">
        <ele>165</ele>
        <time>2011-05-27T13:32:20Z</time>
      </trkpt>
      <trkpt lat="49.68562" lon="4.67234">
        <ele>165</ele>
        <time>2011-05-27T13:32:21Z</time>
      </trkpt>
      <trkpt lat="49.68566" lon="4.67239">
        <ele>165</ele>
        <time>2011-05-27T13:32:22Z</time>
      </trkpt>
      <trkpt lat="49.68569" lon="4.67245">
        <ele>165</ele>
        <time>2011-05-27T13:32:23Z</time>
      </trkpt>
      <trkpt lat="49.68572" lon="4.67251">
        <ele>164</ele>
        <time>2011-05-27T13:32:24Z</time>
      </trkpt>
      <trkpt lat="49.68576" lon="4.67256">
        <ele>164</ele>
        <time>2011-05-27T13:32:25Z</time>
      </trkpt>
      <trkpt lat="49.68579" lon="4.67262">
        <ele>164</ele>
        <time>2011-05-27T13:32:26Z</time>
      </trkpt>
      <trkpt lat="49.68582" lon="4.67268">
        <ele>164</ele>
        <time>2011-05-27T13:32:27Z</time>
      </trkpt>
      <trkpt lat="49.68586" lon="4.67273">
        <ele>164</ele>
        <time>2011-05-27T13:32:28Z</time>
      </trkpt>
      <trkpt lat="49.68589" lon="4.67279">
        <ele>164</ele>
        <time>2011-05-27T13:32:29Z</time>
      </trkpt>
      <trkpt lat="49.68592" lon="4.67284">
        <ele>164</ele>
        <time>2011-05-27T13:32:30Z</time>
      </trkpt>
      <trkpt lat="49.68595" lon="4.67289">
        <ele>163</ele>
        <time>2011-05-27T13:32:31Z</time>
      </trkpt>
      <trkpt lat="49.68599" lon="4.67295">
        <ele>163</ele>
        <time>2011-05-27T13:32:32Z</time>
      </trkpt>
      <trkpt lat="49.68602" lon="4.67301">
        <ele>163</ele>
        <time>2011-05-27T13:32:33Z</time>
      </trkpt>
      <trkpt lat="49.68605" lon="4.67307">
        <ele>163</ele>
        <time>2011-05-27T13:32:34Z</time>
      </trkpt>
      <trkpt lat="49.68607" lon="4.67313">
        <ele>163</ele>
        <time>2011-05-27T13:32:35Z</time>
      </trkpt>
      <trkpt lat="49.68608" lon="4.6732">
        <ele>163</ele>
        <time>2011-05-27T13:32:36Z</time>
      </trkpt>
      <trkpt lat="49.68609" lon="4.67326">
        <ele>163</ele>
        <time>2011-05-27T13:32:37Z</time>
      </trkpt>
      <trkpt lat="49.6861" lon="4.67332">
        <ele>163</ele>
        <time>2011-05-27T13:32:38Z</time>
      </trkpt>
      <trkpt lat="49.68611" lon="4.67338">
        <ele>162</ele>
        <time>2011-05-27T13:32:39Z</time>
      </trkpt>
      <trkpt lat="49.68614" lon="4.67343">
        <ele>162</ele>
        <time>2011-05-27T13:32:40Z</time>
      </trkpt>
      <trkpt lat="49.68617" lon="4.67348">
        <ele>162</ele>
        <time>2011-05-27T13:32:41Z</time>
      </trkpt>
      <trkpt lat="49.68621" lon="4.67351">
        <ele>162</ele>
        <time>2011-05-27T13:32:42Z</time>
      </trkpt>
      <trkpt lat="49.68626" lon="4.67355">
        <ele>162</ele>
        <time>2011-05-27T13:32:43Z</time>
      </trkpt>
      <trkpt lat="49.6863" lon="4.67357">
        <ele>162</ele>
        <time>2011-05-27T13:32:44Z</time>
      </trkpt>
      <trkpt lat="49.68635" lon="4.6736">
        <ele>162</ele>
        <time>2011-05-27T13:32:45Z</time>
      </trkpt>
      <trkpt lat="49.68639" lon="4.67363">
        <ele>162</ele>
        <time>2011-05-27T13:32:46Z</time>
      </trkpt>
      <trkpt lat="49.68644" lon="4.67367">
        <ele>162</ele>
        <time>2011-05-27T13:32:47Z</time>
      </trkpt>
      <trkpt lat="49.68649" lon="4.6737">
        <ele>162</ele>
        <time>2011-05-27T13:32:48Z</time>
      </trkpt>
      <trkpt lat="49.68653" lon="4.67374">
        <ele>162</ele>
        <time>2011-05-27T13:32:49Z</time>
      </trkpt>
      <trkpt lat="49.68658" lon="4.67376">
        <ele>162</ele>
        <time>2011-05-27T13:32:50Z</time>
      </trkpt>
      <trkpt lat="49.68663" lon="4.67378">
        <ele>162</ele>
        <time>2011-05-27T13:32:51Z</time>
      </trkpt>
      <trkpt lat="49.68668" lon="4.67381">
        <ele>162</ele>
        <time>2011-05-27T13:32:52Z</time>
      </trkpt>
      <trkpt lat="49.68673" lon="4.67382">
        <ele>162</ele>
        <time>2011-05-27T13:32:53Z</time>
      </trkpt>
      <trkpt lat="49.68679" lon="4.67383">
        <ele>162</ele>
        <time>2011-05-27T13:32:54Z</time>
      </trkpt>
      <trkpt lat="49.68684" lon="4.67385">
        <ele>162</ele>
        <time>2011-05-27T13:32:55Z</time>
      </trkpt>
      <trkpt lat="49.68688" lon="4.67386">
        <ele>162</ele>
        <time>2011-05-27T13:32:56Z</time>
      </trkpt>
      <trkpt lat="49.68693" lon="4.67388">
        <ele>162</ele>
        <time>2011-05-27T13:32:57Z</time>
      </trkpt>
      <trkpt lat="49.68697" lon="4.67389">
        <ele>162</ele>
        <time>2011-05-27T13:32:58Z</time>
      </trkpt>
      <trkpt lat="49.68702" lon="4.67391">
        <ele>162</ele>
        <time>2011-05-27T13:32:59Z</time>
      </trkpt>
      <trkpt lat="49.68706" lon="4.67392">
        <ele>162</ele>
        <time>2011-05-27T13:33:00Z</time>
      </trkpt>
      <trkpt lat="49.6871" lon="4.67393">
        <ele>162</ele>
        <time>2011-05-27T13:33:01Z</time>
      </trkpt>
      <trkpt lat="49.68714" lon="4.67395">
        <ele>162</ele>
        <time>2011-05-27T13:33:02Z</time>
      </trkpt>
      <trkpt lat="49.68717" lon="4.67396">
        <ele>162</ele>
        <time>2011-05-27T13:33:03Z</time>
      </trkpt>
      <trkpt lat="49.6872" lon="4.67397">
        <ele>162</ele>
        <time>2011-05-27T13:33:04Z</time>
      </trkpt>
      <trkpt lat="49.68724" lon="4.67399">
        <ele>162</ele>
        <time>2011-05-27T13:33:05Z</time>
      </trkpt>
      <trkpt lat="49.68727" lon="4.674">
        <ele>162</ele>
        <time>2011-05-27T13:33:06Z</time>
      </trkpt>
      <trkpt lat="49.6873" lon="4.67401">
        <ele>162</ele>
        <time>2011-05-27T13:33:07Z</time>
      </trkpt>
      <trkpt lat="49.68733" lon="4.67402">
        <ele>162</ele>
        <time>2011-05-27T13:33:08Z</time>
      </trkpt>
      <trkpt lat="49.68736" lon="4.67404">
        <ele>163</ele>
        <time>2011-05-27T13:33:09Z</time>
      </trkpt>
      <trkpt lat="49.68739" lon="4.67405">
        <ele>163</ele>
        <time>2011-05-27T13:33:10Z</time>
      </trkpt>
      <trkpt lat="49.68742" lon="4.67407">
        <ele>163</ele>
        <time>2011-05-27T13:33:11Z</time>
      </trkpt>
      <trkpt lat="49.68746" lon="4.67408">
        <ele>163</ele>
        <time>2011-05-27T13:33:12Z</time>
      </trkpt>
      <trkpt lat="49.68749" lon="4.67409">
        <ele>163</ele>
        <time>2011-05-27T13:33:13Z</time>
      </trkpt>
      <trkpt lat="49.68752" lon="4.6741">
        <ele>164</ele>
        <time>2011-05-27T13:33:14Z</time>
      </trkpt>
      <trkpt lat="49.68755" lon="4.67412">
        <ele>164</ele>
        <time>2011-05-27T13:33:15Z</time>
      </trkpt>
      <trkpt lat="49.68758" lon="4.67413">
        <ele>164</ele>
        <time>2011-05-27T13:33:16Z</time>
      </trkpt>
      <trkpt lat="49.68762" lon="4.67414">
        <ele>164</ele>
        <time>2011-05-27T13:33:17Z</time>
      </trkpt>
      <trkpt lat="49.68765" lon="4.67416">
        <ele>164</ele>
        <time>2011-05-27T13:33:18Z</time>
      </trkpt>
      <trkpt lat="49.68768" lon="4.67416">
        <ele>164</ele>
        <time>2011-05-27T13:33:19Z</time>
      </trkpt>
      <trkpt lat="49.68771" lon="4.67417">
        <ele>164</ele>
        <time>2011-05-27T13:33:20Z</time>
      </trkpt>
      <trkpt lat="49.68775" lon="4.67418">
        <ele>165</ele>
        <time>2011-05-27T13:33:21Z</time>
      </trkpt>
      <trkpt lat="49.68778" lon="4.6742">
        <ele>165</ele>
        <time>2011-05-27T13:33:22Z</time>
      </trkpt>
      <trkpt lat="49.68781" lon="4.67421">
        <ele>165</ele>
        <time>2011-05-27T13:33:23Z</time>
      </trkpt>
      <trkpt lat="49.68784" lon="4.67422">
        <ele>165</ele>
        <time>2011-05-27T13:33:24Z</time>
      </trkpt>
      <trkpt lat="49.68788" lon="4.67424">
        <ele>165</ele>
        <time>2011-05-27T13:33:25Z</time>
      </trkpt>
      <trkpt lat="49.68791" lon="4.67425">
        <ele>166</ele>
        <time>2011-05-27T13:33:26Z</time>
      </trkpt>
      <trkpt lat="49.68794" lon="4.67427">
        <ele>166</ele>
        <time>2011-05-27T13:33:27Z</time>
      </trkpt>
      <trkpt lat="49.68798" lon="4.67429">
        <ele>166</ele>
        <time>2011-05-27T13:33:28Z</time>
      </trkpt>
      <trkpt lat="49.68801" lon="4.67431">
        <ele>167</ele>
        <time>2011-05-27T13:33:29Z</time>
      </trkpt>
      <trkpt lat="49.68804" lon="4.67433">
        <ele>167</ele>
        <time>2011-05-27T13:33:30Z</time>
      </trkpt>
      <trkpt lat="49.68807" lon="4.67436">
        <ele>167</ele>
        <time>2011-05-27T13:33:31Z</time>
      </trkpt>
      <trkpt lat="49.6881" lon="4.67438">
        <ele>167</ele>
        <time>2011-05-27T13:33:32Z</time>
      </trkpt>
      <trkpt lat="49.68813" lon="4.67441">
        <ele>168</ele>
        <time>2011-05-27T13:33:33Z</time>
      </trkpt>
      <trkpt lat="49.68816" lon="4.67444">
        <ele>168</ele>
        <time>2011-05-27T13:33:34Z</time>
      </trkpt>
      <trkpt lat="49.68818" lon="4.67447">
        <ele>168</ele>
        <time>2011-05-27T13:33:35Z</time>
      </trkpt>
      <trkpt lat="49.6882" lon="4.67451">
        <ele>168</ele>
        <time>2011-05-27T13:33:36Z</time>
      </trkpt>
      <trkpt lat="49.68822" lon="4.67454">
        <ele>169</ele>
        <time>2011-05-27T13:33:37Z</time>
      </trkpt>
      <trkpt lat="49.68825" lon="4.67457">
        <ele>169</ele>
        <time>2011-05-27T13:33:38Z</time>
      </trkpt>
      <trkpt lat="49.68827" lon="4.67459">
        <ele>170</ele>
        <time>2011-05-27T13:33:39Z</time>
      </trkpt>
      <trkpt lat="49.68829" lon="4.67463">
        <ele>170</ele>
        <time>2011-05-27T13:33:40Z</time>
      </trkpt>
      <trkpt lat="49.68831" lon="4.67466">
        <ele>170</ele>
        <time>2011-05-27T13:33:41Z</time>
      </trkpt>
      <trkpt lat="49.68834" lon="4.67469">
        <ele>170</ele>
        <time>2011-05-27T13:33:42Z</time>
      </trkpt>
      <trkpt lat="49.68836" lon="4.67472">
        <ele>171</ele>
        <time>2011-05-27T13:33:43Z</time>
      </trkpt>
      <trkpt lat="49.68838" lon="4.67475">
        <ele>171</ele>
        <time>2011-05-27T13:33:44Z</time>
      </trkpt>
      <trkpt lat="49.6884" lon="4.67478">
        <ele>171</ele>
        <time>2011-05-27T13:33:45Z</time>
      </trkpt>
      <trkpt lat="49.68842" lon="4.67482">
        <ele>171</ele>
        <time>2011-05-27T13:33:46Z</time>
      </trkpt>
      <trkpt lat="49.68844" lon="4.67485">
        <ele>172</ele>
        <time>2011-05-27T13:33:47Z</time>
      </trkpt>
      <trkpt lat="49.68846" lon="4.67488">
        <ele>172</ele>
        <time>2011-05-27T13:33:48Z</time>
      </trkpt>
      <trkpt lat="49.68848" lon="4.67491">
        <ele>172</ele>
        <time>2011-05-27T13:33:49Z</time>
      </trkpt>
      <trkpt lat="49.6885" lon="4.67495">
        <ele>172</ele>
        <time>2011-05-27T13:33:50Z</time>
      </trkpt>
      <trkpt lat="49.68853" lon="4.67498">
        <ele>172</ele>
        <time>2011-05-27T13:33:51Z</time>
      </trkpt>
      <trkpt lat="49.68855" lon="4.67501">
        <ele>173</ele>
        <time>2011-05-27T13:33:52Z</time>
      </trkpt>
      <trkpt lat="49.68857" lon="4.67505">
        <ele>173</ele>
        <time>2011-05-27T13:33:53Z</time>
      </trkpt>
      <trkpt lat="49.68859" lon="4.67508">
        <ele>173</ele>
        <time>2011-05-27T13:33:54Z</time>
      </trkpt>
      <trkpt lat="49.68861" lon="4.67511">
        <ele>173</ele>
        <time>2011-05-27T13:33:55Z</time>
      </trkpt>
      <trkpt lat="49.68863" lon="4.67514">
        <ele>173</ele>
        <time>2011-05-27T13:33:56Z</time>
      </trkpt>
      <trkpt lat="49.68865" lon="4.67518">
        <ele>173</ele>
        <time>2011-05-27T13:33:57Z</time>
      </trkpt>
      <trkpt lat="49.68867" lon="4.67521">
        <ele>173</ele>
        <time>2011-05-27T13:33:58Z</time>
      </trkpt>
      <trkpt lat="49.68869" lon="4.67525">
        <ele>173</ele>
        <time>2011-05-27T13:33:59Z</time>
      </trkpt>
      <trkpt lat="49.68871" lon="4.67529">
        <ele>174</ele>
        <time>2011-05-27T13:34:00Z</time>
      </trkpt>
      <trkpt lat="49.68873" lon="4.67533">
        <ele>174</ele>
        <time>2011-05-27T13:34:01Z</time>
      </trkpt>
      <trkpt lat="49.68874" lon="4.67536">
        <ele>174</ele>
        <time>2011-05-27T13:34:02Z</time>
      </trkpt>
      <trkpt lat="49.68876" lon="4.67541">
        <ele>174</ele>
        <time>2011-05-27T13:34:03Z</time>
      </trkpt>
      <trkpt lat="49.68877" lon="4.67546">
        <ele>174</ele>
        <time>2011-05-27T13:34:04Z</time>
      </trkpt>
      <trkpt lat="49.68877" lon="4.67551">
        <ele>174</ele>
        <time>2011-05-27T13:34:05Z</time>
      </trkpt>
      <trkpt lat="49.68876" lon="4.67555">
        <ele>174</ele>
        <time>2011-05-27T13:34:06Z</time>
      </trkpt>
      <trkpt lat="49.68875" lon="4.67558">
        <ele>174</ele>
        <time>2011-05-27T13:34:07Z</time>
      </trkpt>
      <trkpt lat="49.68874" lon="4.67561">
        <ele>174</ele>
        <time>2011-05-27T13:34:08Z</time>
      </trkpt>
      <trkpt lat="49.68873" lon="4.67564">
        <ele>174</ele>
        <time>2011-05-27T13:34:09Z</time>
      </trkpt>
      <trkpt lat="49.68872" lon="4.67566">
        <ele>174</ele>
        <time>2011-05-27T13:34:10Z</time>
      </trkpt>
      <trkpt lat="49.68871" lon="4.67568">
        <ele>175</ele>
        <time>2011-05-27T13:34:11Z</time>
      </trkpt>
      <trkpt lat="49.6887" lon="4.6757">
        <ele>175</ele>
        <time>2011-05-27T13:34:12Z</time>
      </trkpt>
      <trkpt lat="49.68869" lon="4.67573">
        <ele>175</ele>
        <time>2011-05-27T13:34:13Z</time>
      </trkpt>
      <trkpt lat="49.68867" lon="4.67577">
        <ele>175</ele>
        <time>2011-05-27T13:34:14Z</time>
      </trkpt>
      <trkpt lat="49.68866" lon="4.67579">
        <ele>175</ele>
        <time>2011-05-27T13:34:15Z</time>
      </trkpt>
      <trkpt lat="49.68865" lon="4.67582">
        <ele>175</ele>
        <time>2011-05-27T13:34:16Z</time>
      </trkpt>
      <trkpt lat="49.68864" lon="4.67584">
        <ele>176</ele>
        <time>2011-05-27T13:34:17Z</time>
      </trkpt>
      <trkpt lat="49.68863" lon="4.67586">
        <ele>176</ele>
        <time>2011-05-27T13:34:18Z</time>
      </trkpt>
      <trkpt lat="49.68862" lon="4.67588">
        <ele>176</ele>
        <time>2011-05-27T13:34:19Z</time>
      </trkpt>
      <trkpt lat="49.68861" lon="4.6759">
        <ele>176</ele>
        <time>2011-05-27T13:34:20Z</time>
      </trkpt>
      <trkpt lat="49.6886" lon="4.67593">
        <ele>177</ele>
        <time>2011-05-27T13:34:21Z</time>
      </trkpt>
      <trkpt lat="49.68859" lon="4.67595">
        <ele>177</ele>
        <time>2011-05-27T13:34:22Z</time>
      </trkpt>
      <trkpt lat="49.68859" lon="4.67597">
        <ele>177</ele>
        <time>2011-05-27T13:34:23Z</time>
      </trkpt>
      <trkpt lat="49.68858" lon="4.67599">
        <ele>177</ele>
        <time>2011-05-27T13:34:24Z</time>
      </trkpt>
      <trkpt lat="49.68857" lon="4.67601">
        <ele>177</ele>
        <time>2011-05-27T13:34:25Z</time>
      </trkpt>
      <trkpt lat="49.68856" lon="4.67604">
        <ele>178</ele>
        <time>2011-05-27T13:34:26Z</time>
      </trkpt>
      <trkpt lat="49.68855" lon="4.67606">
        <ele>178</ele>
        <time>2011-05-27T13:34:27Z</time>
      </trkpt>
      <trkpt lat="49.68855" lon="4.67608">
        <ele>178</ele>
        <time>2011-05-27T13:34:28Z</time>
      </trkpt>
      <trkpt lat="49.68854" lon="4.67611">
        <ele>178</ele>
        <time>2011-05-27T13:34:29Z</time>
      </trkpt>
      <trkpt lat="49.68853" lon="4.67613">
        <ele>178</ele>
        <time>2011-05-27T13:34:30Z</time>
      </trkpt>
      <trkpt lat="49.68852" lon="4.67615">
        <ele>178</ele>
        <time>2011-05-27T13:34:31Z</time>
      </trkpt>
      <trkpt lat="49.68851" lon="4.67618">
        <ele>179</ele>
        <time>2011-05-27T13:34:32Z</time>
      </trkpt>
      <trkpt lat="49.68851" lon="4.6762">
        <ele>179</ele>
        <time>2011-05-27T13:34:33Z</time>
      </trkpt>
      <trkpt lat="49.6885" lon="4.67622">
        <ele>179</ele>
        <time>2011-05-27T13:34:34Z</time>
      </trkpt>
      <trkpt lat="49.68849" lon="4.67624">
        <ele>179</ele>
        <time>2011-05-27T13:34:35Z</time>
      </trkpt>
      <trkpt lat="49.68849" lon="4.67627">
        <ele>179</ele>
        <time>2011-05-27T13:34:36Z</time>
      </trkpt>
      <trkpt lat="49.68848" lon="4.67629">
        <ele>179</ele>
        <time>2011-05-27T13:34:37Z</time>
      </trkpt>
      <trkpt lat="49.68847" lon="4.67631">
        <ele>179</ele>
        <time>2011-05-27T13:34:38Z</time>
      </trkpt>
      <trkpt lat="49.68846" lon="4.67633">
        <ele>180</ele>
        <time>2011-05-27T13:34:39Z</time>
      </trkpt>
      <trkpt lat="49.68845" lon="4.67635">
        <ele>180</ele>
        <time>2011-05-27T13:34:40Z</time>
      </trkpt>
      <trkpt lat="49.68845" lon="4.67637">
        <ele>180</ele>
        <time>2011-05-27T13:34:41Z</time>
      </trkpt>
      <trkpt lat="49.68844" lon="4.67639">
        <ele>180</ele>
        <time>2011-05-27T13:34:42Z</time>
      </trkpt>
      <trkpt lat="49.68843" lon="4.67642">
        <ele>180</ele>
        <time>2011-05-27T13:34:43Z</time>
      </trkpt>
      <trkpt lat="49.68842" lon="4.67644">
        <ele>180</ele>
        <time>2011-05-27T13:34:44Z</time>
      </trkpt>
      <trkpt lat="49.68842" lon="4.67647">
        <ele>180</ele>
        <time>2011-05-27T13:34:45Z</time>
      </trkpt>
      <trkpt lat="49.68841" lon="4.67649">
        <ele>181</ele>
        <time>2011-05-27T13:34:46Z</time>
      </trkpt>
      <trkpt lat="49.6884" lon="4.67651">
        <ele>181</ele>
        <time>2011-05-27T13:34:47Z</time>
      </trkpt>
      <trkpt lat="49.68839" lon="4.67653">
        <ele>181</ele>
        <time>2011-05-27T13:34:48Z</time>
      </trkpt>
      <trkpt lat="49.68838" lon="4.67655">
        <ele>181</ele>
        <time>2011-05-27T13:34:49Z</time>
      </trkpt>
      <trkpt lat="49.68837" lon="4.67658">
        <ele>181</ele>
        <time>2011-05-27T13:34:50Z</time>
      </trkpt>
      <trkpt lat="49.68837" lon="4.6766">
        <ele>181</ele>
        <time>2011-05-27T13:34:51Z</time>
      </trkpt>
      <trkpt lat="49.68836" lon="4.67662">
        <ele>181</ele>
        <time>2011-05-27T13:34:52Z</time>
      </trkpt>
      <trkpt lat="49.68835" lon="4.67664">
        <ele>181</ele>
        <time>2011-05-27T13:34:53Z</time>
      </trkpt>
      <trkpt lat="49.68835" lon="4.67666">
        <ele>182</ele>
        <time>2011-05-27T13:34:54Z</time>
      </trkpt>
      <trkpt lat="49.68834" lon="4.67668">
        <ele>182</ele>
        <time>2011-05-27T13:34:55Z</time>
      </trkpt>
      <trkpt lat="49.68833" lon="4.67671">
        <ele>182</ele>
        <time>2011-05-27T13:34:56Z</time>
      </trkpt>
      <trkpt lat="49.68833" lon="4.67673">
        <ele>182</ele>
        <time>2011-05-27T13:34:57Z</time>
      </trkpt>
      <trkpt lat="49.68832" lon="4.67675">
        <ele>182</ele>
        <time>2011-05-27T13:34:58Z</time>
      </trkpt>
      <trkpt lat="49.68831" lon="4.67677">
        <ele>182</ele>
        <time>2011-05-27T13:34:59Z</time>
      </trkpt>
      <trkpt lat="49.6883" lon="4.67679">
        <ele>182</ele>
        <time>2011-05-27T13:35:00Z</time>
      </trkpt>
      <trkpt lat="49.6883" lon="4.67682">
        <ele>182</ele>
        <time>2011-05-27T13:35:01Z</time>
      </trkpt>
      <trkpt lat="49.68829" lon="4.67684">
        <ele>182</ele>
        <time>2011-05-27T13:35:02Z</time>
      </trkpt>
      <trkpt lat="49.68828" lon="4.67686">
        <ele>182</ele>
        <time>2011-05-27T13:35:03Z</time>
      </trkpt>
      <trkpt lat="49.68827" lon="4.67689">
        <ele>182</ele>
        <time>2011-05-27T13:35:04Z</time>
      </trkpt>
      <trkpt lat="49.68827" lon="4.67691">
        <ele>182</ele>
        <time>2011-05-27T13:35:05Z</time>
      </trkpt>
      <trkpt lat="49.68826" lon="4.67693">
        <ele>183</ele>
        <time>2011-05-27T13:35:06Z</time>
      </trkpt>
      <trkpt lat="49.68825" lon="4.67695">
        <ele>183</ele>
        <time>2011-05-27T13:35:07Z</time>
      </trkpt>
      <trkpt lat="49.68824" lon="4.67697">
        <ele>183</ele>
        <time>2011-05-27T13:35:08Z</time>
      </trkpt>
      <trkpt lat="49.68824" lon="4.677">
        <ele>183</ele>
        <time>2011-05-27T13:35:09Z</time>
      </trkpt>
      <trkpt lat="49.68823" lon="4.67702">
        <ele>183</ele>
        <time>2011-05-27T13:35:10Z</time>
      </trkpt>
      <trkpt lat="49.68822" lon="4.67704">
        <ele>183</ele>
        <time>2011-05-27T13:35:11Z</time>
      </trkpt>
      <trkpt lat="49.68821" lon="4.67707">
        <ele>183</ele>
        <time>2011-05-27T13:35:12Z</time>
      </trkpt>
      <trkpt lat="49.68821" lon="4.67709">
        <ele>184</ele>
        <time>2011-05-27T13:35:13Z</time>
      </trkpt>
      <trkpt lat="49.6882" lon="4.67712">
        <ele>184</ele>
        <time>2011-05-27T13:35:14Z</time>
      </trkpt>
      <trkpt lat="49.68819" lon="4.67714">
        <ele>184</ele>
        <time>2011-05-27T13:35:15Z</time>
      </trkpt>
      <trkpt lat="49.68818" lon="4.67716">
        <ele>184</ele>
        <time>2011-05-27T13:35:16Z</time>
      </trkpt>
      <trkpt lat="49.68817" lon="4.67718">
        <ele>184</ele>
        <time>2011-05-27T13:35:17Z</time>
      </trkpt>
      <trkpt lat="49.68816" lon="4.6772">
        <ele>185</ele>
        <time>2011-05-27T13:35:18Z</time>
      </trkpt>
      <trkpt lat="49.68816" lon="4.67723">
        <ele>185</ele>
        <time>2011-05-27T13:35:19Z</time>
      </trkpt>
      <trkpt lat="49.68815" lon="4.67725">
        <ele>185</ele>
        <time>2011-05-27T13:35:20Z</time>
      </trkpt>
      <trkpt lat="49.68814" lon="4.67727">
        <ele>185</ele>
        <time>2011-05-27T13:35:21Z</time>
      </trkpt>
      <trkpt lat="49.68813" lon="4.67729">
        <ele>186</ele>
        <time>2011-05-27T13:35:22Z</time>
      </trkpt>
      <trkpt lat="49.68813" lon="4.67732">
        <ele>186</ele>
        <time>2011-05-27T13:35:23Z</time>
      </trkpt>
      <trkpt lat="49.68812" lon="4.67734">
        <ele>186</ele>
        <time>2011-05-27T13:35:24Z</time>
      </trkpt>
      <trkpt lat="49.68811" lon="4.67736">
        <ele>186</ele>
        <time>2011-05-27T13:35:25Z</time>
      </trkpt>
      <trkpt lat="49.6881" lon="4.67738">
        <ele>186</ele>
        <time>2011-05-27T13:35:26Z</time>
      </trkpt>
      <trkpt lat="49.6881" lon="4.6774">
        <ele>187</ele>
        <time>2011-05-27T13:35:27Z</time>
      </trkpt>
      <trkpt lat="49.68809" lon="4.67743">
        <ele>187</ele>
        <time>2011-05-27T13:35:28Z</time>
      </trkpt>
      <trkpt lat="49.68808" lon="4.67745">
        <ele>187</ele>
        <time>2011-05-27T13:35:29Z</time>
      </trkpt>
      <trkpt lat="49.68807" lon="4.67747">
        <ele>188</ele>
        <time>2011-05-27T13:35:30Z</time>
      </trkpt>
      <trkpt lat="49.68806" lon="4.67749">
        <ele>188</ele>
        <time>2011-05-27T13:35:31Z</time>
      </trkpt>
      <trkpt lat="49.68806" lon="4.67752">
        <ele>188</ele>
        <time>2011-05-27T13:35:32Z</time>
      </trkpt>
      <trkpt lat="49.68805" lon="4.67754">
        <ele>189</ele>
        <time>2011-05-27T13:35:33Z</time>
      </trkpt>
      <trkpt lat="49.68804" lon="4.67756">
        <ele>189</ele>
        <time>2011-05-27T13:35:34Z</time>
      </trkpt>
      <trkpt lat="49.68803" lon="4.67757">
        <ele>189</ele>
        <time>2011-05-27T13:35:35Z</time>
      </trkpt>
      <trkpt lat="49.68801" lon="4.67759">
        <ele>189</ele>
        <time>2011-05-27T13:35:36Z</time>
      </trkpt>
      <trkpt lat="49.688" lon="4.6776">
        <ele>190</ele>
        <time>2011-05-27T13:35:37Z</time>
      </trkpt>
      <trkpt lat="49.68798" lon="4.67761">
        <ele>190</ele>
        <time>2011-05-27T13:35:38Z</time>
      </trkpt>
      <trkpt lat="49.68797" lon="4.67763">
        <ele>190</ele>
        <time>2011-05-27T13:35:39Z</time>
      </trkpt>
      <trkpt lat="49.68795" lon="4.67765">
        <ele>190</ele>
        <time>2011-05-27T13:35:41Z</time>
      </trkpt>
      <trkpt lat="49.68794" lon="4.67766">
        <ele>191</ele>
        <time>2011-05-27T13:35:42Z</time>
      </trkpt>
      <trkpt lat="49.68792" lon="4.67767">
        <ele>191</ele>
        <time>2011-05-27T13:35:43Z</time>
      </trkpt>
      <trkpt lat="49.68791" lon="4.67767">
        <ele>191</ele>
        <time>2011-05-27T13:35:44Z</time>
      </trkpt>
      <trkpt lat="49.68789" lon="4.67769">
        <ele>191</ele>
        <time>2011-05-27T13:35:45Z</time>
      </trkpt>
      <trkpt lat="49.68788" lon="4.6777">
        <ele>191</ele>
        <time>2011-05-27T13:35:46Z</time>
      </trkpt>
      <trkpt lat="49.68786" lon="4.67771">
        <ele>191</ele>
        <time>2011-05-27T13:35:47Z</time>
      </trkpt>
      <trkpt lat="49.68784" lon="4.67772">
        <ele>191</ele>
        <time>2011-05-27T13:35:48Z</time>
      </trkpt>
      <trkpt lat="49.68782" lon="4.67773">
        <ele>191</ele>
        <time>2011-05-27T13:35:49Z</time>
      </trkpt>
      <trkpt lat="49.68781" lon="4.67775">
        <ele>191</ele>
        <time>2011-05-27T13:35:50Z</time>
      </trkpt>
      <trkpt lat="49.68779" lon="4.67777">
        <ele>191</ele>
        <time>2011-05-27T13:35:51Z</time>
      </trkpt>
      <trkpt lat="49.68777" lon="4.67778">
        <ele>192</ele>
        <time>2011-05-27T13:35:52Z</time>
      </trkpt>
      <trkpt lat="49.68775" lon="4.6778">
        <ele>192</ele>
        <time>2011-05-27T13:35:53Z</time>
      </trkpt>
      <trkpt lat="49.68773" lon="4.67781">
        <ele>192</ele>
        <time>2011-05-27T13:35:54Z</time>
      </trkpt>
      <trkpt lat="49.68771" lon="4.67782">
        <ele>192</ele>
        <time>2011-05-27T13:35:55Z</time>
      </trkpt>
      <trkpt lat="49.68769" lon="4.67783">
        <ele>192</ele>
        <time>2011-05-27T13:35:56Z</time>
      </trkpt>
      <trkpt lat="49.68768" lon="4.67785">
        <ele>192</ele>
        <time>2011-05-27T13:35:57Z</time>
      </trkpt>
      <trkpt lat="49.68766" lon="4.67786">
        <ele>192</ele>
        <time>2011-05-27T13:35:58Z</time>
      </trkpt>
      <trkpt lat="49.68764" lon="4.67787">
        <ele>193</ele>
        <time>2011-05-27T13:35:59Z</time>
      </trkpt>
      <trkpt lat="49.68762" lon="4.67788">
        <ele>193</ele>
        <time>2011-05-27T13:36:00Z</time>
      </trkpt>
      <trkpt lat="49.68761" lon="4.67789">
        <ele>193</ele>
        <time>2011-05-27T13:36:01Z</time>
      </trkpt>
      <trkpt lat="49.68759" lon="4.67789">
        <ele>193</ele>
        <time>2011-05-27T13:36:02Z</time>
      </trkpt>
      <trkpt lat="49.68757" lon="4.6779">
        <ele>193</ele>
        <time>2011-05-27T13:36:03Z</time>
      </trkpt>
      <trkpt lat="49.68755" lon="4.67791">
        <ele>193</ele>
        <time>2011-05-27T13:36:04Z</time>
      </trkpt>
      <trkpt lat="49.68753" lon="4.67792">
        <ele>193</ele>
        <time>2011-05-27T13:36:05Z</time>
      </trkpt>
      <trkpt lat="49.68752" lon="4.67794">
        <ele>193</ele>
        <time>2011-05-27T13:36:06Z</time>
      </trkpt>
      <trkpt lat="49.6875" lon="4.67795">
        <ele>193</ele>
        <time>2011-05-27T13:36:07Z</time>
      </trkpt>
      <trkpt lat="49.68748" lon="4.67796">
        <ele>193</ele>
        <time>2011-05-27T13:36:08Z</time>
      </trkpt>
      <trkpt lat="49.68747" lon="4.67798">
        <ele>193</ele>
        <time>2011-05-27T13:36:09Z</time>
      </trkpt>
      <trkpt lat="49.68745" lon="4.67799">
        <ele>193</ele>
        <time>2011-05-27T13:36:10Z</time>
      </trkpt>
      <trkpt lat="49.68743" lon="4.678">
        <ele>193</ele>
        <time>2011-05-27T13:36:11Z</time>
      </trkpt>
      <trkpt lat="49.68742" lon="4.67802">
        <ele>193</ele>
        <time>2011-05-27T13:36:12Z</time>
      </trkpt>
      <trkpt lat="49.6874" lon="4.67803">
        <ele>193</ele>
        <time>2011-05-27T13:36:13Z</time>
      </trkpt>
      <trkpt lat="49.68738" lon="4.67805">
        <ele>193</ele>
        <time>2011-05-27T13:36:14Z</time>
      </trkpt>
      <trkpt lat="49.68736" lon="4.67806">
        <ele>194</ele>
        <time>2011-05-27T13:36:15Z</time>
      </trkpt>
      <trkpt lat="49.68734" lon="4.67807">
        <ele>194</ele>
        <time>2011-05-27T13:36:16Z</time>
      </trkpt>
      <trkpt lat="49.68733" lon="4.67809">
        <ele>194</ele>
        <time>2011-05-27T13:36:17Z</time>
      </trkpt>
      <trkpt lat="49.68731" lon="4.6781">
        <ele>194</ele>
        <time>2011-05-27T13:36:18Z</time>
      </trkpt>
      <trkpt lat="49.68729" lon="4.67812">
        <ele>195</ele>
        <time>2011-05-27T13:36:19Z</time>
      </trkpt>
      <trkpt lat="49.68728" lon="4.67814">
        <ele>195</ele>
        <time>2011-05-27T13:36:20Z</time>
      </trkpt>
      <trkpt lat="49.68726" lon="4.67816">
        <ele>195</ele>
        <time>2011-05-27T13:36:21Z</time>
      </trkpt>
      <trkpt lat="49.68724" lon="4.67818">
        <ele>195</ele>
        <time>2011-05-27T13:36:22Z</time>
      </trkpt>
      <trkpt lat="49.68723" lon="4.67819">
        <ele>196</ele>
        <time>2011-05-27T13:36:23Z</time>
      </trkpt>
      <trkpt lat="49.68721" lon="4.67821">
        <ele>196</ele>
        <time>2011-05-27T13:36:24Z</time>
      </trkpt>
      <trkpt lat="49.68719" lon="4.67823">
        <ele>196</ele>
        <time>2011-05-27T13:36:25Z</time>
      </trkpt>
      <trkpt lat="49.68718" lon="4.67825">
        <ele>196</ele>
        <time>2011-05-27T13:36:26Z</time>
      </trkpt>
      <trkpt lat="49.68716" lon="4.67826">
        <ele>196</ele>
        <time>2011-05-27T13:36:27Z</time>
      </trkpt>
      <trkpt lat="49.68714" lon="4.67828">
        <ele>196</ele>
        <time>2011-05-27T13:36:28Z</time>
      </trkpt>
      <trkpt lat="49.68713" lon="4.6783">
        <ele>196</ele>
        <time>2011-05-27T13:36:29Z</time>
      </trkpt>
      <trkpt lat="49.68711" lon="4.67832">
        <ele>197</ele>
        <time>2011-05-27T13:36:30Z</time>
      </trkpt>
      <trkpt lat="49.68709" lon="4.67833">
        <ele>197</ele>
        <time>2011-05-27T13:36:31Z</time>
      </trkpt>
      <trkpt lat="49.68707" lon="4.67835">
        <ele>197</ele>
        <time>2011-05-27T13:36:32Z</time>
      </trkpt>
      <trkpt lat="49.68705" lon="4.67836">
        <ele>197</ele>
        <time>2011-05-27T13:36:33Z</time>
      </trkpt>
      <trkpt lat="49.68704" lon="4.67838">
        <ele>197</ele>
        <time>2011-05-27T13:36:34Z</time>
      </trkpt>
      <trkpt lat="49.68702" lon="4.67839">
        <ele>197</ele>
        <time>2011-05-27T13:36:35Z</time>
      </trkpt>
      <trkpt lat="49.687" lon="4.67841">
        <ele>197</ele>
        <time>2011-05-27T13:36:36Z</time>
      </trkpt>
      <trkpt lat="49.68699" lon="4.67842">
        <ele>197</ele>
        <time>2011-05-27T13:36:37Z</time>
      </trkpt>
      <trkpt lat="49.68697" lon="4.67844">
        <ele>197</ele>
        <time>2011-05-27T13:36:38Z</time>
      </trkpt>
      <trkpt lat="49.68695" lon="4.67845">
        <ele>197</ele>
        <time>2011-05-27T13:36:39Z</time>
      </trkpt>
      <trkpt lat="49.68693" lon="4.67847">
        <ele>197</ele>
        <time>2011-05-27T13:36:40Z</time>
      </trkpt>
      <trkpt lat="49.68692" lon="4.67849">
        <ele>197</ele>
        <time>2011-05-27T13:36:41Z</time>
      </trkpt>
      <trkpt lat="49.6869" lon="4.6785">
        <ele>197</ele>
        <time>2011-05-27T13:36:42Z</time>
      </trkpt>
      <trkpt lat="49.68688" lon="4.67852">
        <ele>197</ele>
        <time>2011-05-27T13:36:43Z</time>
      </trkpt>
      <trkpt lat="49.68687" lon="4.67853">
        <ele>197</ele>
        <time>2011-05-27T13:36:44Z</time>
      </trkpt>
      <trkpt lat="49.68685" lon="4.67855">
        <ele>197</ele>
        <time>2011-05-27T13:36:45Z</time>
      </trkpt>
      <trkpt lat="49.68683" lon="4.67857">
        <ele>197</ele>
        <time>2011-05-27T13:36:46Z</time>
      </trkpt>
      <trkpt lat="49.68681" lon="4.67858">
        <ele>198</ele>
        <time>2011-05-27T13:36:47Z</time>
      </trkpt>
      <trkpt lat="49.68679" lon="4.6786">
        <ele>198</ele>
        <time>2011-05-27T13:36:48Z</time>
      </trkpt>
      <trkpt lat="49.68678" lon="4.67861">
        <ele>198</ele>
        <time>2011-05-27T13:36:49Z</time>
      </trkpt>
      <trkpt lat="49.68676" lon="4.67863">
        <ele>198</ele>
        <time>2011-05-27T13:36:50Z</time>
      </trkpt>
      <trkpt lat="49.68675" lon="4.67864">
        <ele>198</ele>
        <time>2011-05-27T13:36:51Z</time>
      </trkpt>
      <trkpt lat="49.68673" lon="4.67866">
        <ele>198</ele>
        <time>2011-05-27T13:36:52Z</time>
      </trkpt>
      <trkpt lat="49.68671" lon="4.67867">
        <ele>198</ele>
        <time>2011-05-27T13:36:53Z</time>
      </trkpt>
      <trkpt lat="49.6867" lon="4.67868">
        <ele>198</ele>
        <time>2011-05-27T13:36:54Z</time>
      </trkpt>
      <trkpt lat="49.68668" lon="4.6787">
        <ele>199</ele>
        <time>2011-05-27T13:36:55Z</time>
      </trkpt>
      <trkpt lat="49.68666" lon="4.67872">
        <ele>199</ele>
        <time>2011-05-27T13:36:56Z</time>
      </trkpt>
      <trkpt lat="49.68665" lon="4.67874">
        <ele>199</ele>
        <time>2011-05-27T13:36:57Z</time>
      </trkpt>
      <trkpt lat="49.68663" lon="4.67876">
        <ele>199</ele>
        <time>2011-05-27T13:36:58Z</time>
      </trkpt>
      <trkpt lat="49.68661" lon="4.67878">
        <ele>200</ele>
        <time>2011-05-27T13:36:59Z</time>
      </trkpt>
      <trkpt lat="49.6866" lon="4.6788">
        <ele>200</ele>
        <time>2011-05-27T13:37:00Z</time>
      </trkpt>
      <trkpt lat="49.68658" lon="4.67882">
        <ele>200</ele>
        <time>2011-05-27T13:37:01Z</time>
      </trkpt>
      <trkpt lat="49.68656" lon="4.67884">
        <ele>200</ele>
        <time>2011-05-27T13:37:02Z</time>
      </trkpt>
      <trkpt lat="49.68654" lon="4.67886">
        <ele>200</ele>
        <time>2011-05-27T13:37:03Z</time>
      </trkpt>
      <trkpt lat="49.68652" lon="4.67888">
        <ele>201</ele>
        <time>2011-05-27T13:37:04Z</time>
      </trkpt>
      <trkpt lat="49.6865" lon="4.67891">
        <ele>201</ele>
        <time>2011-05-27T13:37:05Z</time>
      </trkpt>
      <trkpt lat="49.68648" lon="4.67893">
        <ele>201</ele>
        <time>2011-05-27T13:37:06Z</time>
      </trkpt>
      <trkpt lat="49.68646" lon="4.67896">
        <ele>202</ele>
        <time>2011-05-27T13:37:07Z</time>
      </trkpt>
      <trkpt lat="49.68644" lon="4.67898">
        <ele>202</ele>
        <time>2011-05-27T13:37:08Z</time>
      </trkpt>
      <trkpt lat="49.68642" lon="4.67901">
        <ele>202</ele>
        <time>2011-05-27T13:37:09Z</time>
      </trkpt>
      <trkpt lat="49.68641" lon="4.67903">
        <ele>203</ele>
        <time>2011-05-27T13:37:10Z</time>
      </trkpt>
      <trkpt lat="49.68639" lon="4.67906">
        <ele>203</ele>
        <time>2011-05-27T13:37:11Z</time>
      </trkpt>
      <trkpt lat="49.68637" lon="4.67909">
        <ele>203</ele>
        <time>2011-05-27T13:37:12Z</time>
      </trkpt>
      <trkpt lat="49.68636" lon="4.67911">
        <ele>203</ele>
        <time>2011-05-27T13:37:13Z</time>
      </trkpt>
      <trkpt lat="49.68634" lon="4.67914">
        <ele>204</ele>
        <time>2011-05-27T13:37:14Z</time>
      </trkpt>
      <trkpt lat="49.68632" lon="4.67917">
        <ele>204</ele>
        <time>2011-05-27T13:37:15Z</time>
      </trkpt>
      <trkpt lat="49.68631" lon="4.67919">
        <ele>204</ele>
        <time>2011-05-27T13:37:16Z</time>
      </trkpt>
      <trkpt lat="49.68629" lon="4.67921">
        <ele>204</ele>
        <time>2011-05-27T13:37:17Z</time>
      </trkpt>
      <trkpt lat="49.68627" lon="4.67924">
        <ele>205</ele>
        <time>2011-05-27T13:37:18Z</time>
      </trkpt>
      <trkpt lat="49.68626" lon="4.67926">
        <ele>205</ele>
        <time>2011-05-27T13:37:19Z</time>
      </trkpt>
      <trkpt lat="49.68624" lon="4.67929">
        <ele>205</ele>
        <time>2011-05-27T13:37:20Z</time>
      </trkpt>
      <trkpt lat="49.68623" lon="4.67932">
        <ele>205</ele>
        <time>2011-05-27T13:37:21Z</time>
      </trkpt>
      <trkpt lat="49.68622" lon="4.67934">
        <ele>205</ele>
        <time>2011-05-27T13:37:22Z</time>
      </trkpt>
      <trkpt lat="49.6862" lon="4.67937">
        <ele>205</ele>
        <time>2011-05-27T13:37:23Z</time>
      </trkpt>
      <trkpt lat="49.68619" lon="4.6794">
        <ele>205</ele>
        <time>2011-05-27T13:37:24Z</time>
      </trkpt>
      <trkpt lat="49.68618" lon="4.67943">
        <ele>205</ele>
        <time>2011-05-27T13:37:25Z</time>
      </trkpt>
      <trkpt lat="49.68616" lon="4.67946">
        <ele>206</ele>
        <time>2011-05-27T13:37:26Z</time>
      </trkpt>
      <trkpt lat="49.68615" lon="4.67949">
        <ele>206</ele>
        <time>2011-05-27T13:37:27Z</time>
      </trkpt>
      <trkpt lat="49.68613" lon="4.67951">
        <ele>206</ele>
        <time>2011-05-27T13:37:28Z</time>
      </trkpt>
      <trkpt lat="49.68612" lon="4.67954">
        <ele>206</ele>
        <time>2011-05-27T13:37:29Z</time>
      </trkpt>
      <trkpt lat="49.6861" lon="4.67957">
        <ele>206</ele>
        <time>2011-05-27T13:37:30Z</time>
      </trkpt>
      <trkpt lat="49.68609" lon="4.6796">
        <ele>206</ele>
        <time>2011-05-27T13:37:31Z</time>
      </trkpt>
      <trkpt lat="49.68607" lon="4.67962">
        <ele>206</ele>
        <time>2011-05-27T13:37:32Z</time>
      </trkpt>
      <trkpt lat="49.68605" lon="4.67965">
        <ele>207</ele>
        <time>2011-05-27T13:37:33Z</time>
      </trkpt>
      <trkpt lat="49.68604" lon="4.67968">
        <ele>207</ele>
        <time>2011-05-27T13:37:34Z</time>
      </trkpt>
      <trkpt lat="49.68602" lon="4.67971">
        <ele>207</ele>
        <time>2011-05-27T13:37:35Z</time>
      </trkpt>
      <trkpt lat="49.68601" lon="4.67974">
        <ele>207</ele>
        <time>2011-05-27T13:37:36Z</time>
      </trkpt>
      <trkpt lat="49.68599" lon="4.67977">
        <ele>208</ele>
        <time>2011-05-27T13:37:37Z</time>
      </trkpt>
      <trkpt lat="49.68598" lon="4.6798">
        <ele>208</ele>
        <time>2011-05-27T13:37:38Z</time>
      </trkpt>
      <trkpt lat="49.68596" lon="4.67983">
        <ele>208</ele>
        <time>2011-05-27T13:37:39Z</time>
      </trkpt>
      <trkpt lat="49.68595" lon="4.67987">
        <ele>208</ele>
        <time>2011-05-27T13:37:40Z</time>
      </trkpt>
      <trkpt lat="49.68593" lon="4.6799">
        <ele>209</ele>
        <time>2011-05-27T13:37:41Z</time>
      </trkpt>
      <trkpt lat="49.68592" lon="4.67994">
        <ele>209</ele>
        <time>2011-05-27T13:37:42Z</time>
      </trkpt>
      <trkpt lat="49.6859" lon="4.67998">
        <ele>209</ele>
        <time>2011-05-27T13:37:43Z</time>
      </trkpt>
      <trkpt lat="49.68589" lon="4.68001">
        <ele>209</ele>
        <time>2011-05-27T13:37:44Z</time>
      </trkpt>
      <trkpt lat="49.68587" lon="4.68004">
        <ele>209</ele>
        <time>2011-05-27T13:37:45Z</time>
      </trkpt>
      <trkpt lat="49.68585" lon="4.68008">
        <ele>210</ele>
        <time>2011-05-27T13:37:46Z</time>
      </trkpt>
      <trkpt lat="49.68584" lon="4.68012">
        <ele>210</ele>
        <time>2011-05-27T13:37:47Z</time>
      </trkpt>
      <trkpt lat="49.68582" lon="4.68015">
        <ele>210</ele>
        <time>2011-05-27T13:37:48Z</time>
      </trkpt>
      <trkpt lat="49.6858" lon="4.68019">
        <ele>210</ele>
        <time>2011-05-27T13:37:49Z</time>
      </trkpt>
      <trkpt lat="49.68578" lon="4.68023">
        <ele>210</ele>
        <time>2011-05-27T13:37:50Z</time>
      </trkpt>
      <trkpt lat="49.68577" lon="4.68027">
        <ele>210</ele>
        <time>2011-05-27T13:37:51Z</time>
      </trkpt>
      <trkpt lat="49.68575" lon="4.68032">
        <ele>210</ele>
        <time>2011-05-27T13:37:52Z</time>
      </trkpt>
      <trkpt lat="49.68573" lon="4.68036">
        <ele>210</ele>
        <time>2011-05-27T13:37:53Z</time>
      </trkpt>
      <trkpt lat="49.68571" lon="4.6804">
        <ele>210</ele>
        <time>2011-05-27T13:37:54Z</time>
      </trkpt>
      <trkpt lat="49.6857" lon="4.68044">
        <ele>210</ele>
        <time>2011-05-27T13:37:55Z</time>
      </trkpt>
      <trkpt lat="49.68568" lon="4.68048">
        <ele>211</ele>
        <time>2011-05-27T13:37:56Z</time>
      </trkpt>
      <trkpt lat="49.68567" lon="4.68052">
        <ele>211</ele>
        <time>2011-05-27T13:37:57Z</time>
      </trkpt>
      <trkpt lat="49.68565" lon="4.68056">
        <ele>211</ele>
        <time>2011-05-27T13:37:58Z</time>
      </trkpt>
      <trkpt lat="49.68563" lon="4.6806">
        <ele>211</ele>
        <time>2011-05-27T13:37:59Z</time>
      </trkpt>
      <trkpt lat="49.68562" lon="4.68064">
        <ele>211</ele>
        <time>2011-05-27T13:38:00Z</time>
      </trkpt>
      <trkpt lat="49.6856" lon="4.68068">
        <ele>211</ele>
        <time>2011-05-27T13:38:01Z</time>
      </trkpt>
      <trkpt lat="49.68558" lon="4.68072">
        <ele>211</ele>
        <time>2011-05-27T13:38:02Z</time>
      </trkpt>
      <trkpt lat="49.68557" lon="4.68077">
        <ele>212</ele>
        <time>2011-05-27T13:38:03Z</time>
      </trkpt>
      <trkpt lat="49.68556" lon="4.68081">
        <ele>212</ele>
        <time>2011-05-27T13:38:04Z</time>
      </trkpt>
      <trkpt lat="49.68554" lon="4.68085">
        <ele>212</ele>
        <time>2011-05-27T13:38:05Z</time>
      </trkpt>
      <trkpt lat="49.68553" lon="4.6809">
        <ele>212</ele>
        <time>2011-05-27T13:38:06Z</time>
      </trkpt>
      <trkpt lat="49.68552" lon="4.68094">
        <ele>212</ele>
        <time>2011-05-27T13:38:07Z</time>
      </trkpt>
      <trkpt lat="49.6855" lon="4.68098">
        <ele>213</ele>
        <time>2011-05-27T13:38:08Z</time>
      </trkpt>
      <trkpt lat="49.68549" lon="4.68103">
        <ele>213</ele>
        <time>2011-05-27T13:38:09Z</time>
      </trkpt>
      <trkpt lat="49.68547" lon="4.68107">
        <ele>213</ele>
        <time>2011-05-27T13:38:10Z</time>
      </trkpt>
      <trkpt lat="49.68546" lon="4.68111">
        <ele>213</ele>
        <time>2011-05-27T13:38:11Z</time>
      </trkpt>
      <trkpt lat="49.68545" lon="4.68115">
        <ele>213</ele>
        <time>2011-05-27T13:38:12Z</time>
      </trkpt>
      <trkpt lat="49.68543" lon="4.68119">
        <ele>213</ele>
        <time>2011-05-27T13:38:13Z</time>
      </trkpt>
      <trkpt lat="49.68542" lon="4.68122">
        <ele>213</ele>
        <time>2011-05-27T13:38:14Z</time>
      </trkpt>
      <trkpt lat="49.68541" lon="4.68126">
        <ele>213</ele>
        <time>2011-05-27T13:38:15Z</time>
      </trkpt>
      <trkpt lat="49.6854" lon="4.6813">
        <ele>213</ele>
        <time>2011-05-27T13:38:16Z</time>
      </trkpt>
      <trkpt lat="49.68539" lon="4.68134">
        <ele>213</ele>
        <time>2011-05-27T13:38:17Z</time>
      </trkpt>
      <trkpt lat="49.68537" lon="4.68138">
        <ele>213</ele>
        <time>2011-05-27T13:38:18Z</time>
      </trkpt>
      <trkpt lat="49.68536" lon="4.68141">
        <ele>213</ele>
        <time>2011-05-27T13:38:19Z</time>
      </trkpt>
      <trkpt lat="49.68535" lon="4.68145">
        <ele>213</ele>
        <time>2011-05-27T13:38:20Z</time>
      </trkpt>
      <trkpt lat="49.68533" lon="4.6815">
        <ele>213</ele>
        <time>2011-05-27T13:38:21Z</time>
      </trkpt>
      <trkpt lat="49.68532" lon="4.68154">
        <ele>214</ele>
        <time>2011-05-27T13:38:22Z</time>
      </trkpt>
      <trkpt lat="49.68531" lon="4.68158">
        <ele>214</ele>
        <time>2011-05-27T13:38:23Z</time>
      </trkpt>
      <trkpt lat="49.6853" lon="4.68161">
        <ele>214</ele>
        <time>2011-05-27T13:38:24Z</time>
      </trkpt>
      <trkpt lat="49.68529" lon="4.68165">
        <ele>215</ele>
        <time>2011-05-27T13:38:25Z</time>
      </trkpt>
      <trkpt lat="49.68528" lon="4.68169">
        <ele>215</ele>
        <time>2011-05-27T13:38:26Z</time>
      </trkpt>
      <trkpt lat="49.68527" lon="4.68174">
        <ele>215</ele>
        <time>2011-05-27T13:38:27Z</time>
      </trkpt>
      <trkpt lat="49.68526" lon="4.68178">
        <ele>215</ele>
        <time>2011-05-27T13:38:28Z</time>
      </trkpt>
      <trkpt lat="49.68525" lon="4.68182">
        <ele>215</ele>
        <time>2011-05-27T13:38:29Z</time>
      </trkpt>
      <trkpt lat="49.68525" lon="4.68186">
        <ele>216</ele>
        <time>2011-05-27T13:38:30Z</time>
      </trkpt>
      <trkpt lat="49.68524" lon="4.6819">
        <ele>216</ele>
        <time>2011-05-27T13:38:31Z</time>
      </trkpt>
      <trkpt lat="49.68523" lon="4.68194">
        <ele>216</ele>
        <time>2011-05-27T13:38:32Z</time>
      </trkpt>
      <trkpt lat="49.68522" lon="4.68199">
        <ele>216</ele>
        <time>2011-05-27T13:38:33Z</time>
      </trkpt>
      <trkpt lat="49.68521" lon="4.68204">
        <ele>216</ele>
        <time>2011-05-27T13:38:34Z</time>
      </trkpt>
      <trkpt lat="49.6852" lon="4.68209">
        <ele>217</ele>
        <time>2011-05-27T13:38:35Z</time>
      </trkpt>
      <trkpt lat="49.68519" lon="4.68214">
        <ele>217</ele>
        <time>2011-05-27T13:38:36Z</time>
      </trkpt>
      <trkpt lat="49.68518" lon="4.68218">
        <ele>217</ele>
        <time>2011-05-27T13:38:37Z</time>
      </trkpt>
      <trkpt lat="49.68517" lon="4.68223">
        <ele>217</ele>
        <time>2011-05-27T13:38:38Z</time>
      </trkpt>
      <trkpt lat="49.68515" lon="4.68227">
        <ele>217</ele>
        <time>2011-05-27T13:38:39Z</time>
      </trkpt>
      <trkpt lat="49.68515" lon="4.68232">
        <ele>218</ele>
        <time>2011-05-27T13:38:40Z</time>
      </trkpt>
      <trkpt lat="49.68514" lon="4.68236">
        <ele>218</ele>
        <time>2011-05-27T13:38:41Z</time>
      </trkpt>
      <trkpt lat="49.68513" lon="4.68241">
        <ele>219</ele>
        <time>2011-05-27T13:38:42Z</time>
      </trkpt>
      <trkpt lat="49.68512" lon="4.68246">
        <ele>219</ele>
        <time>2011-05-27T13:38:43Z</time>
      </trkpt>
      <trkpt lat="49.6851" lon="4.6825">
        <ele>219</ele>
        <time>2011-05-27T13:38:44Z</time>
      </trkpt>
      <trkpt lat="49.68509" lon="4.68255">
        <ele>220</ele>
        <time>2011-05-27T13:38:45Z</time>
      </trkpt>
      <trkpt lat="49.68508" lon="4.68259">
        <ele>220</ele>
        <time>2011-05-27T13:38:46Z</time>
      </trkpt>
      <trkpt lat="49.68507" lon="4.68264">
        <ele>220</ele>
        <time>2011-05-27T13:38:47Z</time>
      </trkpt>
      <trkpt lat="49.68506" lon="4.68268">
        <ele>221</ele>
        <time>2011-05-27T13:38:48Z</time>
      </trkpt>
      <trkpt lat="49.68505" lon="4.68273">
        <ele>221</ele>
        <time>2011-05-27T13:38:49Z</time>
      </trkpt>
      <trkpt lat="49.68504" lon="4.68278">
        <ele>221</ele>
        <time>2011-05-27T13:38:50Z</time>
      </trkpt>
      <trkpt lat="49.68503" lon="4.68283">
        <ele>222</ele>
        <time>2011-05-27T13:38:51Z</time>
      </trkpt>
      <trkpt lat="49.68502" lon="4.68288">
        <ele>222</ele>
        <time>2011-05-27T13:38:52Z</time>
      </trkpt>
      <trkpt lat="49.68502" lon="4.68293">
        <ele>222</ele>
        <time>2011-05-27T13:38:53Z</time>
      </trkpt>
      <trkpt lat="49.68501" lon="4.68298">
        <ele>222</ele>
        <time>2011-05-27T13:38:54Z</time>
      </trkpt>
      <trkpt lat="49.685" lon="4.68302">
        <ele>223</ele>
        <time>2011-05-27T13:38:55Z</time>
      </trkpt>
      <trkpt lat="49.685" lon="4.68306">
        <ele>223</ele>
        <time>2011-05-27T13:38:56Z</time>
      </trkpt>
      <trkpt lat="49.68499" lon="4.6831">
        <ele>223</ele>
        <time>2011-05-27T13:38:57Z</time>
      </trkpt>
      <trkpt lat="49.68498" lon="4.68315">
        <ele>223</ele>
        <time>2011-05-27T13:38:58Z</time>
      </trkpt>
      <trkpt lat="49.68497" lon="4.6832">
        <ele>223</ele>
        <time>2011-05-27T13:38:59Z</time>
      </trkpt>
      <trkpt lat="49.68496" lon="4.68326">
        <ele>223</ele>
        <time>2011-05-27T13:39:00Z</time>
      </trkpt>
      <trkpt lat="49.68495" lon="4.68331">
        <ele>223</ele>
        <time>2011-05-27T13:39:01Z</time>
      </trkpt>
      <trkpt lat="49.68494" lon="4.68336">
        <ele>223</ele>
        <time>2011-05-27T13:39:02Z</time>
      </trkpt>
      <trkpt lat="49.68494" lon="4.68341">
        <ele>224</ele>
        <time>2011-05-27T13:39:03Z</time>
      </trkpt>
      <trkpt lat="49.68493" lon="4.68347">
        <ele>224</ele>
        <time>2011-05-27T13:39:04Z</time>
      </trkpt>
      <trkpt lat="49.68492" lon="4.68352">
        <ele>224</ele>
        <time>2011-05-27T13:39:05Z</time>
      </trkpt>
      <trkpt lat="49.68491" lon="4.68357">
        <ele>224</ele>
        <time>2011-05-27T13:39:06Z</time>
      </trkpt>
      <trkpt lat="49.68491" lon="4.68362">
        <ele>224</ele>
        <time>2011-05-27T13:39:07Z</time>
      </trkpt>
      <trkpt lat="49.6849" lon="4.68367">
        <ele>224</ele>
        <time>2011-05-27T13:39:08Z</time>
      </trkpt>
      <trkpt lat="49.68489" lon="4.68372">
        <ele>225</ele>
        <time>2011-05-27T13:39:09Z</time>
      </trkpt>
      <trkpt lat="49.68488" lon="4.68377">
        <ele>225</ele>
        <time>2011-05-27T13:39:10Z</time>
      </trkpt>
      <trkpt lat="49.68487" lon="4.68382">
        <ele>225</ele>
        <time>2011-05-27T13:39:11Z</time>
      </trkpt>
      <trkpt lat="49.68486" lon="4.68386">
        <ele>225</ele>
        <time>2011-05-27T13:39:12Z</time>
      </trkpt>
      <trkpt lat="49.68486" lon="4.68391">
        <ele>225</ele>
        <time>2011-05-27T13:39:13Z</time>
      </trkpt>
      <trkpt lat="49.68486" lon="4.68395">
        <ele>225</ele>
        <time>2011-05-27T13:39:14Z</time>
      </trkpt>
      <trkpt lat="49.68487" lon="4.68399">
        <ele>225</ele>
        <time>2011-05-27T13:39:15Z</time>
      </trkpt>
      <trkpt lat="49.68488" lon="4.68405">
        <ele>225</ele>
        <time>2011-05-27T13:39:16Z</time>
      </trkpt>
      <trkpt lat="49.68488" lon="4.68409">
        <ele>225</ele>
        <time>2011-05-27T13:39:17Z</time>
      </trkpt>
      <trkpt lat="49.68489" lon="4.68414">
        <ele>225</ele>
        <time>2011-05-27T13:39:18Z</time>
      </trkpt>
      <trkpt lat="49.68488" lon="4.68419">
        <ele>225</ele>
        <time>2011-05-27T13:39:19Z</time>
      </trkpt>
      <trkpt lat="49.68488" lon="4.68423">
        <ele>225</ele>
        <time>2011-05-27T13:39:20Z</time>
      </trkpt>
      <trkpt lat="49.68488" lon="4.68427">
        <ele>225</ele>
        <time>2011-05-27T13:39:21Z</time>
      </trkpt>
      <trkpt lat="49.68488" lon="4.68431">
        <ele>225</ele>
        <time>2011-05-27T13:39:22Z</time>
      </trkpt>
      <trkpt lat="49.68488" lon="4.68434">
        <ele>225</ele>
        <time>2011-05-27T13:39:23Z</time>
      </trkpt>
      <trkpt lat="49.68487" lon="4.68438">
        <ele>225</ele>
        <time>2011-05-27T13:39:24Z</time>
      </trkpt>
      <trkpt lat="49.68487" lon="4.68441">
        <ele>225</ele>
        <time>2011-05-27T13:39:25Z</time>
      </trkpt>
      <trkpt lat="49.68487" lon="4.68445">
        <ele>225</ele>
        <time>2011-05-27T13:39:26Z</time>
      </trkpt>
      <trkpt lat="49.68487" lon="4.68448">
        <ele>225</ele>
        <time>2011-05-27T13:39:27Z</time>
      </trkpt>
      <trkpt lat="49.68486" lon="4.68452">
        <ele>225</ele>
        <time>2011-05-27T13:39:28Z</time>
      </trkpt>
      <trkpt lat="49.68487" lon="4.68456">
        <ele>225</ele>
        <time>2011-05-27T13:39:29Z</time>
      </trkpt>
      <trkpt lat="49.68488" lon="4.6846">
        <ele>225</ele>
        <time>2011-05-27T13:39:30Z</time>
      </trkpt>
      <trkpt lat="49.68488" lon="4.68464">
        <ele>225</ele>
        <time>2011-05-27T13:39:31Z</time>
      </trkpt>
      <trkpt lat="49.68489" lon="4.68468">
        <ele>225</ele>
        <time>2011-05-27T13:39:32Z</time>
      </trkpt>
      <trkpt lat="49.68489" lon="4.68472">
        <ele>225</ele>
        <time>2011-05-27T13:39:33Z</time>
      </trkpt>
      <trkpt lat="49.6849" lon="4.68476">
        <ele>225</ele>
        <time>2011-05-27T13:39:34Z</time>
      </trkpt>
      <trkpt lat="49.6849" lon="4.6848">
        <ele>225</ele>
        <time>2011-05-27T13:39:35Z</time>
      </trkpt>
      <trkpt lat="49.6849" lon="4.68483">
        <ele>225</ele>
        <time>2011-05-27T13:39:36Z</time>
      </trkpt>
      <trkpt lat="49.6849" lon="4.68487">
        <ele>225</ele>
        <time>2011-05-27T13:39:37Z</time>
      </trkpt>
      <trkpt lat="49.68491" lon="4.68492">
        <ele>225</ele>
        <time>2011-05-27T13:39:38Z</time>
      </trkpt>
      <trkpt lat="49.68492" lon="4.68496">
        <ele>225</ele>
        <time>2011-05-27T13:39:39Z</time>
      </trkpt>
      <trkpt lat="49.68493" lon="4.685">
        <ele>225</ele>
        <time>2011-05-27T13:39:40Z</time>
      </trkpt>
      <trkpt lat="49.68494" lon="4.68504">
        <ele>225</ele>
        <time>2011-05-27T13:39:41Z</time>
      </trkpt>
      <trkpt lat="49.68494" lon="4.68509">
        <ele>225</ele>
        <time>2011-05-27T13:39:42Z</time>
      </trkpt>
      <trkpt lat="49.68495" lon="4.68513">
        <ele>225</ele>
        <time>2011-05-27T13:39:43Z</time>
      </trkpt>
      <trkpt lat="49.68494" lon="4.68516">
        <ele>225</ele>
        <time>2011-05-27T13:39:44Z</time>
      </trkpt>
      <trkpt lat="49.68494" lon="4.6852">
        <ele>225</ele>
        <time>2011-05-27T13:39:45Z</time>
      </trkpt>
      <trkpt lat="49.68493" lon="4.68524">
        <ele>225</ele>
        <time>2011-05-27T13:39:46Z</time>
      </trkpt>
      <trkpt lat="49.68493" lon="4.68528">
        <ele>225</ele>
        <time>2011-05-27T13:39:47Z</time>
      </trkpt>
      <trkpt lat="49.68493" lon="4.68532">
        <ele>225</ele>
        <time>2011-05-27T13:39:48Z</time>
      </trkpt>
      <trkpt lat="49.68493" lon="4.68536">
        <ele>225</ele>
        <time>2011-05-27T13:39:49Z</time>
      </trkpt>
      <trkpt lat="49.68494" lon="4.6854">
        <ele>225</ele>
        <time>2011-05-27T13:39:50Z</time>
      </trkpt>
      <trkpt lat="49.68495" lon="4.68544">
        <ele>225</ele>
        <time>2011-05-27T13:39:51Z</time>
      </trkpt>
      <trkpt lat="49.68496" lon="4.68549">
        <ele>225</ele>
        <time>2011-05-27T13:39:52Z</time>
      </trkpt>
      <trkpt lat="49.68496" lon="4.68553">
        <ele>225</ele>
        <time>2011-05-27T13:39:53Z</time>
      </trkpt>
      <trkpt lat="49.68497" lon="4.68558">
        <ele>225</ele>
        <time>2011-05-27T13:39:54Z</time>
      </trkpt>
      <trkpt lat="49.68497" lon="4.68563">
        <ele>225</ele>
        <time>2011-05-27T13:39:55Z</time>
      </trkpt>
      <trkpt lat="49.68497" lon="4.68567">
        <ele>225</ele>
        <time>2011-05-27T13:39:56Z</time>
      </trkpt>
      <trkpt lat="49.68497" lon="4.68571">
        <ele>225</ele>
        <time>2011-05-27T13:39:57Z</time>
      </trkpt>
      <trkpt lat="49.68497" lon="4.68575">
        <ele>225</ele>
        <time>2011-05-27T13:39:58Z</time>
      </trkpt>
      <trkpt lat="49.68497" lon="4.6858">
        <ele>225</ele>
        <time>2011-05-27T13:39:59Z</time>
      </trkpt>
      <trkpt lat="49.68496" lon="4.68584">
        <ele>225</ele>
        <time>2011-05-27T13:40:00Z</time>
      </trkpt>
      <trkpt lat="49.68496" lon="4.68588">
        <ele>225</ele>
        <time>2011-05-27T13:40:01Z</time>
      </trkpt>
      <trkpt lat="49.68496" lon="4.68592">
        <ele>225</ele>
        <time>2011-05-27T13:40:02Z</time>
      </trkpt>
      <trkpt lat="49.68496" lon="4.68596">
        <ele>225</ele>
        <time>2011-05-27T13:40:03Z</time>
      </trkpt>
      <trkpt lat="49.68495" lon="4.68601">
        <ele>225</ele>
        <time>2011-05-27T13:40:04Z</time>
      </trkpt>
      <trkpt lat="49.68494" lon="4.68605">
        <ele>225</ele>
        <time>2011-05-27T13:40:05Z</time>
      </trkpt>
      <trkpt lat="49.68494" lon="4.68609">
        <ele>225</ele>
        <time>2011-05-27T13:40:06Z</time>
      </trkpt>
      <trkpt lat="49.68493" lon="4.68613">
        <ele>225</ele>
        <time>2011-05-27T13:40:07Z</time>
      </trkpt>
      <trkpt lat="49.68493" lon="4.68617">
        <ele>225</ele>
        <time>2011-05-27T13:40:08Z</time>
      </trkpt>
      <trkpt lat="49.68493" lon="4.68622">
        <ele>225</ele>
        <time>2011-05-27T13:40:09Z</time>
      </trkpt>
      <trkpt lat="49.68493" lon="4.68626">
        <ele>225</ele>
        <time>2011-05-27T13:40:10Z</time>
      </trkpt>
      <trkpt lat="49.68493" lon="4.6863">
        <ele>225</ele>
        <time>2011-05-27T13:40:11Z</time>
      </trkpt>
      <trkpt lat="49.68493" lon="4.68635">
        <ele>225</ele>
        <time>2011-05-27T13:40:12Z</time>
      </trkpt>
      <trkpt lat="49.68493" lon="4.68638">
        <ele>225</ele>
        <time>2011-05-27T13:40:13Z</time>
      </trkpt>
      <trkpt lat="49.68493" lon="4.68642">
        <ele>225</ele>
        <time>2011-05-27T13:40:14Z</time>
      </trkpt>
      <trkpt lat="49.68493" lon="4.68646">
        <ele>226</ele>
        <time>2011-05-27T13:40:15Z</time>
      </trkpt>
      <trkpt lat="49.68493" lon="4.68649">
        <ele>226</ele>
        <time>2011-05-27T13:40:16Z</time>
      </trkpt>
      <trkpt lat="49.68492" lon="4.68653">
        <ele>226</ele>
        <time>2011-05-27T13:40:17Z</time>
      </trkpt>
      <trkpt lat="49.68492" lon="4.68656">
        <ele>226</ele>
        <time>2011-05-27T13:40:18Z</time>
      </trkpt>
      <trkpt lat="49.68491" lon="4.68659">
        <ele>227</ele>
        <time>2011-05-27T13:40:19Z</time>
      </trkpt>
      <trkpt lat="49.68491" lon="4.68662">
        <ele>227</ele>
        <time>2011-05-27T13:40:20Z</time>
      </trkpt>
      <trkpt lat="49.6849" lon="4.68665">
        <ele>227</ele>
        <time>2011-05-27T13:40:21Z</time>
      </trkpt>
      <trkpt lat="49.68489" lon="4.68669">
        <ele>227</ele>
        <time>2011-05-27T13:40:22Z</time>
      </trkpt>
      <trkpt lat="49.68489" lon="4.68673">
        <ele>227</ele>
        <time>2011-05-27T13:40:23Z</time>
      </trkpt>
      <trkpt lat="49.68488" lon="4.68677">
        <ele>228</ele>
        <time>2011-05-27T13:40:24Z</time>
      </trkpt>
      <trkpt lat="49.68488" lon="4.6868">
        <ele>228</ele>
        <time>2011-05-27T13:40:25Z</time>
      </trkpt>
      <trkpt lat="49.68487" lon="4.68684">
        <ele>228</ele>
        <time>2011-05-27T13:40:26Z</time>
      </trkpt>
      <trkpt lat="49.68486" lon="4.68687">
        <ele>229</ele>
        <time>2011-05-27T13:40:27Z</time>
      </trkpt>
      <trkpt lat="49.68484" lon="4.6869">
        <ele>229</ele>
        <time>2011-05-27T13:40:28Z</time>
      </trkpt>
      <trkpt lat="49.68483" lon="4.68693">
        <ele>230</ele>
        <time>2011-05-27T13:40:29Z</time>
      </trkpt>
      <trkpt lat="49.68482" lon="4.68695">
        <ele>230</ele>
        <time>2011-05-27T13:40:30Z</time>
      </trkpt>
      <trkpt lat="49.6848" lon="4.68699">
        <ele>231</ele>
        <time>2011-05-27T13:40:31Z</time>
      </trkpt>
      <trkpt lat="49.68479" lon="4.68702">
        <ele>231</ele>
        <time>2011-05-27T13:40:32Z</time>
      </trkpt>
      <trkpt lat="49.68478" lon="4.68706">
        <ele>231</ele>
        <time>2011-05-27T13:40:33Z</time>
      </trkpt>
      <trkpt lat="49.68478" lon="4.68709">
        <ele>232</ele>
        <time>2011-05-27T13:40:34Z</time>
      </trkpt>
      <trkpt lat="49.68477" lon="4.68712">
        <ele>232</ele>
        <time>2011-05-27T13:40:35Z</time>
      </trkpt>
      <trkpt lat="49.68476" lon="4.68715">
        <ele>233</ele>
        <time>2011-05-27T13:40:36Z</time>
      </trkpt>
      <trkpt lat="49.68475" lon="4.68718">
        <ele>233</ele>
        <time>2011-05-27T13:40:37Z</time>
      </trkpt>
      <trkpt lat="49.68473" lon="4.6872">
        <ele>233</ele>
        <time>2011-05-27T13:40:38Z</time>
      </trkpt>
      <trkpt lat="49.68472" lon="4.68723">
        <ele>233</ele>
        <time>2011-05-27T13:40:39Z</time>
      </trkpt>
      <trkpt lat="49.68471" lon="4.68726">
        <ele>234</ele>
        <time>2011-05-27T13:40:40Z</time>
      </trkpt>
      <trkpt lat="49.68469" lon="4.68728">
        <ele>234</ele>
        <time>2011-05-27T13:40:41Z</time>
      </trkpt>
      <trkpt lat="49.68468" lon="4.68731">
        <ele>234</ele>
        <time>2011-05-27T13:40:42Z</time>
      </trkpt>
      <trkpt lat="49.68467" lon="4.68734">
        <ele>234</ele>
        <time>2011-05-27T13:40:43Z</time>
      </trkpt>
      <trkpt lat="49.68465" lon="4.68736">
        <ele>234</ele>
        <time>2011-05-27T13:40:44Z</time>
      </trkpt>
      <trkpt lat="49.68464" lon="4.68739">
        <ele>234</ele>
        <time>2011-05-27T13:40:45Z</time>
      </trkpt>
      <trkpt lat="49.68462" lon="4.68742">
        <ele>234</ele>
        <time>2011-05-27T13:40:46Z</time>
      </trkpt>
      <trkpt lat="49.6846" lon="4.68744">
        <ele>235</ele>
        <time>2011-05-27T13:40:47Z</time>
      </trkpt>
      <trkpt lat="49.68459" lon="4.68746">
        <ele>235</ele>
        <time>2011-05-27T13:40:48Z</time>
      </trkpt>
      <trkpt lat="49.68458" lon="4.68749">
        <ele>236</ele>
        <time>2011-05-27T13:40:49Z</time>
      </trkpt>
      <trkpt lat="49.68457" lon="4.68751">
        <ele>236</ele>
        <time>2011-05-27T13:40:50Z</time>
      </trkpt>
      <trkpt lat="49.68456" lon="4.68754">
        <ele>236</ele>
        <time>2011-05-27T13:40:51Z</time>
      </trkpt>
      <trkpt lat="49.68454" lon="4.68756">
        <ele>236</ele>
        <time>2011-05-27T13:40:52Z</time>
      </trkpt>
      <trkpt lat="49.68452" lon="4.68758">
        <ele>237</ele>
        <time>2011-05-27T13:40:53Z</time>
      </trkpt>
      <trkpt lat="49.68451" lon="4.68761">
        <ele>237</ele>
        <time>2011-05-27T13:40:54Z</time>
      </trkpt>
      <trkpt lat="49.68449" lon="4.68763">
        <ele>237</ele>
        <time>2011-05-27T13:40:55Z</time>
      </trkpt>
      <trkpt lat="49.68448" lon="4.68765">
        <ele>237</ele>
        <time>2011-05-27T13:40:56Z</time>
      </trkpt>
      <trkpt lat="49.68446" lon="4.68767">
        <ele>238</ele>
        <time>2011-05-27T13:40:57Z</time>
      </trkpt>
      <trkpt lat="49.68445" lon="4.6877">
        <ele>238</ele>
        <time>2011-05-27T13:40:58Z</time>
      </trkpt>
      <trkpt lat="49.68444" lon="4.68772">
        <ele>238</ele>
        <time>2011-05-27T13:40:59Z</time>
      </trkpt>
      <trkpt lat="49.68441" lon="4.68773">
        <ele>238</ele>
        <time>2011-05-27T13:41:00Z</time>
      </trkpt>
      <trkpt lat="49.6844" lon="4.68776">
        <ele>238</ele>
        <time>2011-05-27T13:41:01Z</time>
      </trkpt>
      <trkpt lat="49.68439" lon="4.68778">
        <ele>238</ele>
        <time>2011-05-27T13:41:02Z</time>
      </trkpt>
      <trkpt lat="49.68436" lon="4.6878">
        <ele>238</ele>
        <time>2011-05-27T13:41:03Z</time>
      </trkpt>
      <trkpt lat="49.68435" lon="4.68782">
        <ele>239</ele>
        <time>2011-05-27T13:41:04Z</time>
      </trkpt>
      <trkpt lat="49.68433" lon="4.68784">
        <ele>240</ele>
        <time>2011-05-27T13:41:05Z</time>
      </trkpt>
      <trkpt lat="49.68431" lon="4.68786">
        <ele>240</ele>
        <time>2011-05-27T13:41:06Z</time>
      </trkpt>
      <trkpt lat="49.68429" lon="4.68788">
        <ele>241</ele>
        <time>2011-05-27T13:41:07Z</time>
      </trkpt>
      <trkpt lat="49.68427" lon="4.6879">
        <ele>241</ele>
        <time>2011-05-27T13:41:08Z</time>
      </trkpt>
      <trkpt lat="49.68425" lon="4.68792">
        <ele>242</ele>
        <time>2011-05-27T13:41:09Z</time>
      </trkpt>
      <trkpt lat="49.68423" lon="4.68794">
        <ele>242</ele>
        <time>2011-05-27T13:41:10Z</time>
      </trkpt>
      <trkpt lat="49.68421" lon="4.68796">
        <ele>242</ele>
        <time>2011-05-27T13:41:11Z</time>
      </trkpt>
      <trkpt lat="49.6842" lon="4.68799">
        <ele>242</ele>
        <time>2011-05-27T13:41:12Z</time>
      </trkpt>
      <trkpt lat="49.68419" lon="4.68802">
        <ele>243</ele>
        <time>2011-05-27T13:41:13Z</time>
      </trkpt>
      <trkpt lat="49.68417" lon="4.68805">
        <ele>243</ele>
        <time>2011-05-27T13:41:14Z</time>
      </trkpt>
      <trkpt lat="49.68415" lon="4.68806">
        <ele>244</ele>
        <time>2011-05-27T13:41:15Z</time>
      </trkpt>
      <trkpt lat="49.68413" lon="4.68808">
        <ele>244</ele>
        <time>2011-05-27T13:41:16Z</time>
      </trkpt>
      <trkpt lat="49.68412" lon="4.68811">
        <ele>244</ele>
        <time>2011-05-27T13:41:17Z</time>
      </trkpt>
      <trkpt lat="49.6841" lon="4.68813">
        <ele>244</ele>
        <time>2011-05-27T13:41:18Z</time>
      </trkpt>
      <trkpt lat="49.68408" lon="4.68815">
        <ele>244</ele>
        <time>2011-05-27T13:41:19Z</time>
      </trkpt>
      <trkpt lat="49.68406" lon="4.68817">
        <ele>244</ele>
        <time>2011-05-27T13:41:20Z</time>
      </trkpt>
      <trkpt lat="49.68405" lon="4.6882">
        <ele>244</ele>
        <time>2011-05-27T13:41:21Z</time>
      </trkpt>
      <trkpt lat="49.68404" lon="4.68822">
        <ele>244</ele>
        <time>2011-05-27T13:41:22Z</time>
      </trkpt>
      <trkpt lat="49.68402" lon="4.68825">
        <ele>244</ele>
        <time>2011-05-27T13:41:23Z</time>
      </trkpt>
      <trkpt lat="49.68401" lon="4.68827">
        <ele>244</ele>
        <time>2011-05-27T13:41:24Z</time>
      </trkpt>
      <trkpt lat="49.68399" lon="4.68829">
        <ele>244</ele>
        <time>2011-05-27T13:41:25Z</time>
      </trkpt>
      <trkpt lat="49.68399" lon="4.68832">
        <ele>244</ele>
        <time>2011-05-27T13:41:26Z</time>
      </trkpt>
      <trkpt lat="49.68397" lon="4.68835">
        <ele>244</ele>
        <time>2011-05-27T13:41:27Z</time>
      </trkpt>
      <trkpt lat="49.68396" lon="4.68837">
        <ele>244</ele>
        <time>2011-05-27T13:41:28Z</time>
      </trkpt>
      <trkpt lat="49.68395" lon="4.6884">
        <ele>244</ele>
        <time>2011-05-27T13:41:29Z</time>
      </trkpt>
      <trkpt lat="49.68393" lon="4.68842">
        <ele>244</ele>
        <time>2011-05-27T13:41:30Z</time>
      </trkpt>
      <trkpt lat="49.68392" lon="4.68845">
        <ele>244</ele>
        <time>2011-05-27T13:41:31Z</time>
      </trkpt>
      <trkpt lat="49.68391" lon="4.68849">
        <ele>244</ele>
        <time>2011-05-27T13:41:32Z</time>
      </trkpt>
      <trkpt lat="49.68391" lon="4.68853">
        <ele>244</ele>
        <time>2011-05-27T13:41:33Z</time>
      </trkpt>
      <trkpt lat="49.68391" lon="4.68856">
        <ele>244</ele>
        <time>2011-05-27T13:41:34Z</time>
      </trkpt>
      <trkpt lat="49.6839" lon="4.68859">
        <ele>244</ele>
        <time>2011-05-27T13:41:35Z</time>
      </trkpt>
      <trkpt lat="49.68389" lon="4.68863">
        <ele>244</ele>
        <time>2011-05-27T13:41:36Z</time>
      </trkpt>
      <trkpt lat="49.68389" lon="4.68867">
        <ele>244</ele>
        <time>2011-05-27T13:41:37Z</time>
      </trkpt>
      <trkpt lat="49.68388" lon="4.6887">
        <ele>244</ele>
        <time>2011-05-27T13:41:38Z</time>
      </trkpt>
      <trkpt lat="49.68386" lon="4.68872">
        <ele>244</ele>
        <time>2011-05-27T13:41:39Z</time>
      </trkpt>
      <trkpt lat="49.68385" lon="4.68876">
        <ele>244</ele>
        <time>2011-05-27T13:41:40Z</time>
      </trkpt>
      <trkpt lat="49.68384" lon="4.68879">
        <ele>244</ele>
        <time>2011-05-27T13:41:41Z</time>
      </trkpt>
      <trkpt lat="49.68382" lon="4.68881">
        <ele>244</ele>
        <time>2011-05-27T13:41:42Z</time>
      </trkpt>
      <trkpt lat="49.6838" lon="4.68884">
        <ele>244</ele>
        <time>2011-05-27T13:41:43Z</time>
      </trkpt>
      <trkpt lat="49.68378" lon="4.68886">
        <ele>244</ele>
        <time>2011-05-27T13:41:44Z</time>
      </trkpt>
      <trkpt lat="49.68377" lon="4.68888">
        <ele>244</ele>
        <time>2011-05-27T13:41:45Z</time>
      </trkpt>
      <trkpt lat="49.68375" lon="4.68891">
        <ele>245</ele>
        <time>2011-05-27T13:41:46Z</time>
      </trkpt>
      <trkpt lat="49.68373" lon="4.68894">
        <ele>245</ele>
        <time>2011-05-27T13:41:47Z</time>
      </trkpt>
      <trkpt lat="49.68372" lon="4.68896">
        <ele>245</ele>
        <time>2011-05-27T13:41:48Z</time>
      </trkpt>
      <trkpt lat="49.6837" lon="4.68899">
        <ele>246</ele>
        <time>2011-05-27T13:41:49Z</time>
      </trkpt>
      <trkpt lat="49.68369" lon="4.68902">
        <ele>246</ele>
        <time>2011-05-27T13:41:50Z</time>
      </trkpt>
      <trkpt lat="49.68368" lon="4.68904">
        <ele>247</ele>
        <time>2011-05-27T13:41:51Z</time>
      </trkpt>
      <trkpt lat="49.68367" lon="4.68907">
        <ele>247</ele>
        <time>2011-05-27T13:41:52Z</time>
      </trkpt>
      <trkpt lat="49.68365" lon="4.6891">
        <ele>248</ele>
        <time>2011-05-27T13:41:53Z</time>
      </trkpt>
      <trkpt lat="49.68364" lon="4.68913">
        <ele>248</ele>
        <time>2011-05-27T13:41:54Z</time>
      </trkpt>
      <trkpt lat="49.68363" lon="4.68915">
        <ele>248</ele>
        <time>2011-05-27T13:41:55Z</time>
      </trkpt>
      <trkpt lat="49.68361" lon="4.68918">
        <ele>248</ele>
        <time>2011-05-27T13:41:56Z</time>
      </trkpt>
      <trkpt lat="49.6836" lon="4.6892">
        <ele>249</ele>
        <time>2011-05-27T13:41:57Z</time>
      </trkpt>
      <trkpt lat="49.68358" lon="4.68922">
        <ele>249</ele>
        <time>2011-05-27T13:41:58Z</time>
      </trkpt>
      <trkpt lat="49.68356" lon="4.68924">
        <ele>249</ele>
        <time>2011-05-27T13:41:59Z</time>
      </trkpt>
      <trkpt lat="49.68354" lon="4.68926">
        <ele>249</ele>
        <time>2011-05-27T13:42:00Z</time>
      </trkpt>
      <trkpt lat="49.68352" lon="4.68927">
        <ele>249</ele>
        <time>2011-05-27T13:42:01Z</time>
      </trkpt>
      <trkpt lat="49.6835" lon="4.6893">
        <ele>249</ele>
        <time>2011-05-27T13:42:02Z</time>
      </trkpt>
      <trkpt lat="49.68348" lon="4.68932">
        <ele>249</ele>
        <time>2011-05-27T13:42:03Z</time>
      </trkpt>
      <trkpt lat="49.68346" lon="4.68934">
        <ele>249</ele>
        <time>2011-05-27T13:42:04Z</time>
      </trkpt>
      <trkpt lat="49.68345" lon="4.68937">
        <ele>249</ele>
        <time>2011-05-27T13:42:05Z</time>
      </trkpt>
      <trkpt lat="49.68343" lon="4.68939">
        <ele>250</ele>
        <time>2011-05-27T13:42:06Z</time>
      </trkpt>
      <trkpt lat="49.68341" lon="4.68941">
        <ele>250</ele>
        <time>2011-05-27T13:42:07Z</time>
      </trkpt>
      <trkpt lat="49.6834" lon="4.68944">
        <ele>250</ele>
        <time>2011-05-27T13:42:08Z</time>
      </trkpt>
      <trkpt lat="49.68338" lon="4.68947">
        <ele>250</ele>
        <time>2011-05-27T13:42:09Z</time>
      </trkpt>
      <trkpt lat="49.68337" lon="4.68949">
        <ele>250</ele>
        <time>2011-05-27T13:42:10Z</time>
      </trkpt>
      <trkpt lat="49.68335" lon="4.68951">
        <ele>250</ele>
        <time>2011-05-27T13:42:11Z</time>
      </trkpt>
      <trkpt lat="49.68333" lon="4.68953">
        <ele>250</ele>
        <time>2011-05-27T13:42:12Z</time>
      </trkpt>
      <trkpt lat="49.68331" lon="4.68954">
        <ele>250</ele>
        <time>2011-05-27T13:42:13Z</time>
      </trkpt>
      <trkpt lat="49.6833" lon="4.68956">
        <ele>250</ele>
        <time>2011-05-27T13:42:14Z</time>
      </trkpt>
      <trkpt lat="49.68328" lon="4.68959">
        <ele>250</ele>
        <time>2011-05-27T13:42:15Z</time>
      </trkpt>
      <trkpt lat="49.68327" lon="4.68961">
        <ele>251</ele>
        <time>2011-05-27T13:42:16Z</time>
      </trkpt>
      <trkpt lat="49.68326" lon="4.68964">
        <ele>251</ele>
        <time>2011-05-27T13:42:17Z</time>
      </trkpt>
      <trkpt lat="49.68325" lon="4.68966">
        <ele>251</ele>
        <time>2011-05-27T13:42:18Z</time>
      </trkpt>
      <trkpt lat="49.68324" lon="4.68968">
        <ele>251</ele>
        <time>2011-05-27T13:42:19Z</time>
      </trkpt>
      <trkpt lat="49.68322" lon="4.6897">
        <ele>251</ele>
        <time>2011-05-27T13:42:20Z</time>
      </trkpt>
      <trkpt lat="49.6832" lon="4.68972">
        <ele>251</ele>
        <time>2011-05-27T13:42:21Z</time>
      </trkpt>
      <trkpt lat="49.68318" lon="4.68975">
        <ele>251</ele>
        <time>2011-05-27T13:42:22Z</time>
      </trkpt>
      <trkpt lat="49.68316" lon="4.68977">
        <ele>252</ele>
        <time>2011-05-27T13:42:23Z</time>
      </trkpt>
      <trkpt lat="49.68314" lon="4.68979">
        <ele>253</ele>
        <time>2011-05-27T13:42:24Z</time>
      </trkpt>
      <trkpt lat="49.68314" lon="4.68982">
        <ele>254</ele>
        <time>2011-05-27T13:42:25Z</time>
      </trkpt>
      <trkpt lat="49.68312" lon="4.68984">
        <ele>255</ele>
        <time>2011-05-27T13:42:26Z</time>
      </trkpt>
      <trkpt lat="49.6831" lon="4.68985">
        <ele>256</ele>
        <time>2011-05-27T13:42:27Z</time>
      </trkpt>
      <trkpt lat="49.68308" lon="4.68987">
        <ele>256</ele>
        <time>2011-05-27T13:42:28Z</time>
      </trkpt>
      <trkpt lat="49.68307" lon="4.68989">
        <ele>256</ele>
        <time>2011-05-27T13:42:29Z</time>
      </trkpt>
      <trkpt lat="49.68305" lon="4.68991">
        <ele>256</ele>
        <time>2011-05-27T13:42:30Z</time>
      </trkpt>
      <trkpt lat="49.68304" lon="4.68994">
        <ele>257</ele>
        <time>2011-05-27T13:42:31Z</time>
      </trkpt>
      <trkpt lat="49.68303" lon="4.68996">
        <ele>257</ele>
        <time>2011-05-27T13:42:32Z</time>
      </trkpt>
      <trkpt lat="49.68301" lon="4.68997">
        <ele>257</ele>
        <time>2011-05-27T13:42:33Z</time>
      </trkpt>
      <trkpt lat="49.683" lon="4.68999">
        <ele>257</ele>
        <time>2011-05-27T13:42:34Z</time>
      </trkpt>
      <trkpt lat="49.68298" lon="4.69001">
        <ele>258</ele>
        <time>2011-05-27T13:42:35Z</time>
      </trkpt>
      <trkpt lat="49.68298" lon="4.69004">
        <ele>258</ele>
        <time>2011-05-27T13:42:36Z</time>
      </trkpt>
      <trkpt lat="49.68296" lon="4.69006">
        <ele>258</ele>
        <time>2011-05-27T13:42:37Z</time>
      </trkpt>
      <trkpt lat="49.68295" lon="4.69009">
        <ele>258</ele>
        <time>2011-05-27T13:42:38Z</time>
      </trkpt>
      <trkpt lat="49.68295" lon="4.69012">
        <ele>258</ele>
        <time>2011-05-27T13:42:39Z</time>
      </trkpt>
      <trkpt lat="49.68293" lon="4.69016">
        <ele>258</ele>
        <time>2011-05-27T13:42:40Z</time>
      </trkpt>
      <trkpt lat="49.68293" lon="4.69019">
        <ele>258</ele>
        <time>2011-05-27T13:42:41Z</time>
      </trkpt>
      <trkpt lat="49.68292" lon="4.69022">
        <ele>258</ele>
        <time>2011-05-27T13:42:42Z</time>
      </trkpt>
      <trkpt lat="49.68291" lon="4.69025">
        <ele>258</ele>
        <time>2011-05-27T13:42:43Z</time>
      </trkpt>
      <trkpt lat="49.6829" lon="4.69028">
        <ele>258</ele>
        <time>2011-05-27T13:42:44Z</time>
      </trkpt>
      <trkpt lat="49.6829" lon="4.6903">
        <ele>258</ele>
        <time>2011-05-27T13:42:45Z</time>
      </trkpt>
      <trkpt lat="49.6829" lon="4.69034">
        <ele>258</ele>
        <time>2011-05-27T13:42:46Z</time>
      </trkpt>
      <trkpt lat="49.68289" lon="4.69037">
        <ele>258</ele>
        <time>2011-05-27T13:42:47Z</time>
      </trkpt>
      <trkpt lat="49.68288" lon="4.69039">
        <ele>258</ele>
        <time>2011-05-27T13:42:48Z</time>
      </trkpt>
      <trkpt lat="49.68288" lon="4.69043">
        <ele>258</ele>
        <time>2011-05-27T13:42:49Z</time>
      </trkpt>
      <trkpt lat="49.68288" lon="4.69046">
        <ele>258</ele>
        <time>2011-05-27T13:42:50Z</time>
      </trkpt>
      <trkpt lat="49.68287" lon="4.69049">
        <ele>258</ele>
        <time>2011-05-27T13:42:51Z</time>
      </trkpt>
      <trkpt lat="49.68286" lon="4.69052">
        <ele>258</ele>
        <time>2011-05-27T13:42:52Z</time>
      </trkpt>
      <trkpt lat="49.68285" lon="4.69055">
        <ele>258</ele>
        <time>2011-05-27T13:42:53Z</time>
      </trkpt>
      <trkpt lat="49.68284" lon="4.69057">
        <ele>258</ele>
        <time>2011-05-27T13:42:54Z</time>
      </trkpt>
      <trkpt lat="49.68283" lon="4.6906">
        <ele>258</ele>
        <time>2011-05-27T13:42:55Z</time>
      </trkpt>
      <trkpt lat="49.68283" lon="4.69062">
        <ele>258</ele>
        <time>2011-05-27T13:42:56Z</time>
      </trkpt>
      <trkpt lat="49.68282" lon="4.69064">
        <ele>258</ele>
        <time>2011-05-27T13:42:57Z</time>
      </trkpt>
      <trkpt lat="49.68281" lon="4.69067">
        <ele>258</ele>
        <time>2011-05-27T13:42:58Z</time>
      </trkpt>
      <trkpt lat="49.6828" lon="4.69069">
        <ele>258</ele>
        <time>2011-05-27T13:42:59Z</time>
      </trkpt>
      <trkpt lat="49.6828" lon="4.69072">
        <ele>259</ele>
        <time>2011-05-27T13:43:00Z</time>
      </trkpt>
      <trkpt lat="49.6828" lon="4.69074">
        <ele>259</ele>
        <time>2011-05-27T13:43:01Z</time>
      </trkpt>
      <trkpt lat="49.68279" lon="4.69077">
        <ele>260</ele>
        <time>2011-05-27T13:43:02Z</time>
      </trkpt>
      <trkpt lat="49.68278" lon="4.69079">
        <ele>260</ele>
        <time>2011-05-27T13:43:03Z</time>
      </trkpt>
      <trkpt lat="49.68278" lon="4.69081">
        <ele>260</ele>
        <time>2011-05-27T13:43:04Z</time>
      </trkpt>
      <trkpt lat="49.68277" lon="4.69083">
        <ele>260</ele>
        <time>2011-05-27T13:43:05Z</time>
      </trkpt>
      <trkpt lat="49.68277" lon="4.69086">
        <ele>261</ele>
        <time>2011-05-27T13:43:06Z</time>
      </trkpt>
      <trkpt lat="49.68276" lon="4.69088">
        <ele>261</ele>
        <time>2011-05-27T13:43:07Z</time>
      </trkpt>
      <trkpt lat="49.68276" lon="4.69091">
        <ele>261</ele>
        <time>2011-05-27T13:43:08Z</time>
      </trkpt>
      <trkpt lat="49.68275" lon="4.69093">
        <ele>261</ele>
        <time>2011-05-27T13:43:09Z</time>
      </trkpt>
      <trkpt lat="49.68275" lon="4.69095">
        <ele>262</ele>
        <time>2011-05-27T13:43:10Z</time>
      </trkpt>
      <trkpt lat="49.68275" lon="4.69097">
        <ele>262</ele>
        <time>2011-05-27T13:43:11Z</time>
      </trkpt>
      <trkpt lat="49.68274" lon="4.691">
        <ele>262</ele>
        <time>2011-05-27T13:43:12Z</time>
      </trkpt>
      <trkpt lat="49.68274" lon="4.69102">
        <ele>262</ele>
        <time>2011-05-27T13:43:13Z</time>
      </trkpt>
      <trkpt lat="49.68274" lon="4.69104">
        <ele>262</ele>
        <time>2011-05-27T13:43:14Z</time>
      </trkpt>
      <trkpt lat="49.68273" lon="4.69106">
        <ele>262</ele>
        <time>2011-05-27T13:43:15Z</time>
      </trkpt>
      <trkpt lat="49.68273" lon="4.69108">
        <ele>262</ele>
        <time>2011-05-27T13:43:16Z</time>
      </trkpt>
      <trkpt lat="49.68272" lon="4.69111">
        <ele>262</ele>
        <time>2011-05-27T13:43:17Z</time>
      </trkpt>
      <trkpt lat="49.68272" lon="4.69113">
        <ele>263</ele>
        <time>2011-05-27T13:43:18Z</time>
      </trkpt>
      <trkpt lat="49.68271" lon="4.69115">
        <ele>263</ele>
        <time>2011-05-27T13:43:19Z</time>
      </trkpt>
      <trkpt lat="49.68271" lon="4.69117">
        <ele>263</ele>
        <time>2011-05-27T13:43:20Z</time>
      </trkpt>
      <trkpt lat="49.6827" lon="4.69119">
        <ele>263</ele>
        <time>2011-05-27T13:43:21Z</time>
      </trkpt>
      <trkpt lat="49.68269" lon="4.69121">
        <ele>263</ele>
        <time>2011-05-27T13:43:22Z</time>
      </trkpt>
      <trkpt lat="49.68269" lon="4.69123">
        <ele>263</ele>
        <time>2011-05-27T13:43:23Z</time>
      </trkpt>
      <trkpt lat="49.68269" lon="4.69126">
        <ele>263</ele>
        <time>2011-05-27T13:43:24Z</time>
      </trkpt>
      <trkpt lat="49.68269" lon="4.69128">
        <ele>263</ele>
        <time>2011-05-27T13:43:25Z</time>
      </trkpt>
      <trkpt lat="49.68268" lon="4.6913">
        <ele>263</ele>
        <time>2011-05-27T13:43:26Z</time>
      </trkpt>
      <trkpt lat="49.68267" lon="4.69132">
        <ele>263</ele>
        <time>2011-05-27T13:43:27Z</time>
      </trkpt>
      <trkpt lat="49.68267" lon="4.69135">
        <ele>264</ele>
        <time>2011-05-27T13:43:28Z</time>
      </trkpt>
      <trkpt lat="49.68266" lon="4.69137">
        <ele>264</ele>
        <time>2011-05-27T13:43:29Z</time>
      </trkpt>
      <trkpt lat="49.68266" lon="4.69139">
        <ele>264</ele>
        <time>2011-05-27T13:43:30Z</time>
      </trkpt>
      <trkpt lat="49.68265" lon="4.69141">
        <ele>264</ele>
        <time>2011-05-27T13:43:31Z</time>
      </trkpt>
      <trkpt lat="49.68264" lon="4.69143">
        <ele>265</ele>
        <time>2011-05-27T13:43:32Z</time>
      </trkpt>
      <trkpt lat="49.68263" lon="4.69145">
        <ele>265</ele>
        <time>2011-05-27T13:43:33Z</time>
      </trkpt>
      <trkpt lat="49.68262" lon="4.69147">
        <ele>265</ele>
        <time>2011-05-27T13:43:34Z</time>
      </trkpt>
      <trkpt lat="49.68261" lon="4.69148">
        <ele>265</ele>
        <time>2011-05-27T13:43:35Z</time>
      </trkpt>
      <trkpt lat="49.6826" lon="4.6915">
        <ele>266</ele>
        <time>2011-05-27T13:43:36Z</time>
      </trkpt>
      <trkpt lat="49.6826" lon="4.69153">
        <ele>266</ele>
        <time>2011-05-27T13:43:37Z</time>
      </trkpt>
      <trkpt lat="49.68259" lon="4.69155">
        <ele>266</ele>
        <time>2011-05-27T13:43:38Z</time>
      </trkpt>
      <trkpt lat="49.68257" lon="4.69157">
        <ele>266</ele>
        <time>2011-05-27T13:43:39Z</time>
      </trkpt>
      <trkpt lat="49.68256" lon="4.69159">
        <ele>267</ele>
        <time>2011-05-27T13:43:40Z</time>
      </trkpt>
      <trkpt lat="49.68256" lon="4.69161">
        <ele>267</ele>
        <time>2011-05-27T13:43:41Z</time>
      </trkpt>
      <trkpt lat="49.68254" lon="4.69162">
        <ele>267</ele>
        <time>2011-05-27T13:43:42Z</time>
      </trkpt>
      <trkpt lat="49.68253" lon="4.69165">
        <ele>268</ele>
        <time>2011-05-27T13:43:43Z</time>
      </trkpt>
      <trkpt lat="49.68253" lon="4.69167">
        <ele>268</ele>
        <time>2011-05-27T13:43:44Z</time>
      </trkpt>
      <trkpt lat="49.68252" lon="4.69169">
        <ele>269</ele>
        <time>2011-05-27T13:43:45Z</time>
      </trkpt>
      <trkpt lat="49.68251" lon="4.69172">
        <ele>269</ele>
        <time>2011-05-27T13:43:46Z</time>
      </trkpt>
      <trkpt lat="49.6825" lon="4.69173">
        <ele>270</ele>
        <time>2011-05-27T13:43:47Z</time>
      </trkpt>
      <trkpt lat="49.68249" lon="4.69175">
        <ele>270</ele>
        <time>2011-05-27T13:43:48Z</time>
      </trkpt>
      <trkpt lat="49.68248" lon="4.69177">
        <ele>271</ele>
        <time>2011-05-27T13:43:49Z</time>
      </trkpt>
      <trkpt lat="49.68247" lon="4.6918">
        <ele>271</ele>
        <time>2011-05-27T13:43:50Z</time>
      </trkpt>
      <trkpt lat="49.68246" lon="4.69181">
        <ele>272</ele>
        <time>2011-05-27T13:43:51Z</time>
      </trkpt>
      <trkpt lat="49.68245" lon="4.69184">
        <ele>272</ele>
        <time>2011-05-27T13:43:52Z</time>
      </trkpt>
      <trkpt lat="49.68244" lon="4.69186">
        <ele>272</ele>
        <time>2011-05-27T13:43:53Z</time>
      </trkpt>
      <trkpt lat="49.68243" lon="4.69188">
        <ele>272</ele>
        <time>2011-05-27T13:43:54Z</time>
      </trkpt>
      <trkpt lat="49.68242" lon="4.6919">
        <ele>273</ele>
        <time>2011-05-27T13:43:55Z</time>
      </trkpt>
      <trkpt lat="49.68241" lon="4.69192">
        <ele>273</ele>
        <time>2011-05-27T13:43:56Z</time>
      </trkpt>
      <trkpt lat="49.6824" lon="4.69194">
        <ele>273</ele>
        <time>2011-05-27T13:43:57Z</time>
      </trkpt>
      <trkpt lat="49.6824" lon="4.69196">
        <ele>273</ele>
        <time>2011-05-27T13:43:58Z</time>
      </trkpt>
      <trkpt lat="49.68239" lon="4.69198">
        <ele>274</ele>
        <time>2011-05-27T13:43:59Z</time>
      </trkpt>
      <trkpt lat="49.68237" lon="4.69201">
        <ele>274</ele>
        <time>2011-05-27T13:44:01Z</time>
      </trkpt>
      <trkpt lat="49.68236" lon="4.69204">
        <ele>274</ele>
        <time>2011-05-27T13:44:02Z</time>
      </trkpt>
      <trkpt lat="49.68235" lon="4.69207">
        <ele>274</ele>
        <time>2011-05-27T13:44:03Z</time>
      </trkpt>
      <trkpt lat="49.68234" lon="4.69209">
        <ele>274</ele>
        <time>2011-05-27T13:44:04Z</time>
      </trkpt>
      <trkpt lat="49.68233" lon="4.69212">
        <ele>274</ele>
        <time>2011-05-27T13:44:05Z</time>
      </trkpt>
      <trkpt lat="49.68233" lon="4.69215">
        <ele>275</ele>
        <time>2011-05-27T13:44:06Z</time>
      </trkpt>
      <trkpt lat="49.68233" lon="4.69218">
        <ele>275</ele>
        <time>2011-05-27T13:44:07Z</time>
      </trkpt>
      <trkpt lat="49.68233" lon="4.69222">
        <ele>275</ele>
        <time>2011-05-27T13:44:08Z</time>
      </trkpt>
      <trkpt lat="49.68233" lon="4.69226">
        <ele>275</ele>
        <time>2011-05-27T13:44:09Z</time>
      </trkpt>
      <trkpt lat="49.68233" lon="4.69229">
        <ele>275</ele>
        <time>2011-05-27T13:44:10Z</time>
      </trkpt>
      <trkpt lat="49.68232" lon="4.69232">
        <ele>275</ele>
        <time>2011-05-27T13:44:11Z</time>
      </trkpt>
      <trkpt lat="49.68232" lon="4.69235">
        <ele>275</ele>
        <time>2011-05-27T13:44:12Z</time>
      </trkpt>
      <trkpt lat="49.68232" lon="4.69238">
        <ele>275</ele>
        <time>2011-05-27T13:44:13Z</time>
      </trkpt>
      <trkpt lat="49.68232" lon="4.69241">
        <ele>275</ele>
        <time>2011-05-27T13:44:14Z</time>
      </trkpt>
      <trkpt lat="49.68231" lon="4.69244">
        <ele>275</ele>
        <time>2011-05-27T13:44:15Z</time>
      </trkpt>
      <trkpt lat="49.68231" lon="4.69246">
        <ele>275</ele>
        <time>2011-05-27T13:44:16Z</time>
      </trkpt>
      <trkpt lat="49.6823" lon="4.69249">
        <ele>275</ele>
        <time>2011-05-27T13:44:17Z</time>
      </trkpt>
      <trkpt lat="49.6823" lon="4.69252">
        <ele>275</ele>
        <time>2011-05-27T13:44:18Z</time>
      </trkpt>
      <trkpt lat="49.6823" lon="4.69255">
        <ele>275</ele>
        <time>2011-05-27T13:44:19Z</time>
      </trkpt>
      <trkpt lat="49.68229" lon="4.69257">
        <ele>275</ele>
        <time>2011-05-27T13:44:20Z</time>
      </trkpt>
      <trkpt lat="49.68229" lon="4.6926">
        <ele>275</ele>
        <time>2011-05-27T13:44:21Z</time>
      </trkpt>
      <trkpt lat="49.68228" lon="4.69264">
        <ele>275</ele>
        <time>2011-05-27T13:44:22Z</time>
      </trkpt>
      <trkpt lat="49.68228" lon="4.69267">
        <ele>275</ele>
        <time>2011-05-27T13:44:23Z</time>
      </trkpt>
      <trkpt lat="49.68226" lon="4.69269">
        <ele>275</ele>
        <time>2011-05-27T13:44:24Z</time>
      </trkpt>
      <trkpt lat="49.68225" lon="4.69272">
        <ele>275</ele>
        <time>2011-05-27T13:44:25Z</time>
      </trkpt>
      <trkpt lat="49.68224" lon="4.69274">
        <ele>275</ele>
        <time>2011-05-27T13:44:26Z</time>
      </trkpt>
      <trkpt lat="49.68223" lon="4.69277">
        <ele>275</ele>
        <time>2011-05-27T13:44:27Z</time>
      </trkpt>
      <trkpt lat="49.68222" lon="4.69279">
        <ele>275</ele>
        <time>2011-05-27T13:44:28Z</time>
      </trkpt>
      <trkpt lat="49.68222" lon="4.69282">
        <ele>275</ele>
        <time>2011-05-27T13:44:29Z</time>
      </trkpt>
      <trkpt lat="49.68221" lon="4.69284">
        <ele>275</ele>
        <time>2011-05-27T13:44:30Z</time>
      </trkpt>
      <trkpt lat="49.6822" lon="4.69287">
        <ele>275</ele>
        <time>2011-05-27T13:44:31Z</time>
      </trkpt>
      <trkpt lat="49.68219" lon="4.6929">
        <ele>275</ele>
        <time>2011-05-27T13:44:32Z</time>
      </trkpt>
      <trkpt lat="49.68217" lon="4.69292">
        <ele>275</ele>
        <time>2011-05-27T13:44:33Z</time>
      </trkpt>
      <trkpt lat="49.68216" lon="4.69295">
        <ele>275</ele>
        <time>2011-05-27T13:44:34Z</time>
      </trkpt>
      <trkpt lat="49.68216" lon="4.69298">
        <ele>275</ele>
        <time>2011-05-27T13:44:35Z</time>
      </trkpt>
      <trkpt lat="49.68216" lon="4.69302">
        <ele>275</ele>
        <time>2011-05-27T13:44:36Z</time>
      </trkpt>
      <trkpt lat="49.68215" lon="4.69305">
        <ele>275</ele>
        <time>2011-05-27T13:44:37Z</time>
      </trkpt>
      <trkpt lat="49.68215" lon="4.69307">
        <ele>275</ele>
        <time>2011-05-27T13:44:38Z</time>
      </trkpt>
      <trkpt lat="49.68214" lon="4.6931">
        <ele>275</ele>
        <time>2011-05-27T13:44:39Z</time>
      </trkpt>
      <trkpt lat="49.68214" lon="4.69312">
        <ele>275</ele>
        <time>2011-05-27T13:44:40Z</time>
      </trkpt>
      <trkpt lat="49.68214" lon="4.69314">
        <ele>275</ele>
        <time>2011-05-27T13:44:41Z</time>
      </trkpt>
      <trkpt lat="49.68214" lon="4.69317">
        <ele>275</ele>
        <time>2011-05-27T13:44:42Z</time>
      </trkpt>
      <trkpt lat="49.68214" lon="4.69319">
        <ele>275</ele>
        <time>2011-05-27T13:44:43Z</time>
      </trkpt>
      <trkpt lat="49.68213" lon="4.69322">
        <ele>275</ele>
        <time>2011-05-27T13:44:44Z</time>
      </trkpt>
      <trkpt lat="49.68213" lon="4.69325">
        <ele>275</ele>
        <time>2011-05-27T13:44:45Z</time>
      </trkpt>
      <trkpt lat="49.68213" lon="4.69327">
        <ele>275</ele>
        <time>2011-05-27T13:44:46Z</time>
      </trkpt>
      <trkpt lat="49.68213" lon="4.6933">
        <ele>275</ele>
        <time>2011-05-27T13:44:47Z</time>
      </trkpt>
      <trkpt lat="49.68213" lon="4.69332">
        <ele>275</ele>
        <time>2011-05-27T13:44:48Z</time>
      </trkpt>
      <trkpt lat="49.68213" lon="4.69335">
        <ele>275</ele>
        <time>2011-05-27T13:44:49Z</time>
      </trkpt>
      <trkpt lat="49.68213" lon="4.69337">
        <ele>275</ele>
        <time>2011-05-27T13:44:50Z</time>
      </trkpt>
      <trkpt lat="49.68213" lon="4.6934">
        <ele>275</ele>
        <time>2011-05-27T13:44:51Z</time>
      </trkpt>
      <trkpt lat="49.68213" lon="4.69342">
        <ele>275</ele>
        <time>2011-05-27T13:44:52Z</time>
      </trkpt>
      <trkpt lat="49.68213" lon="4.69345">
        <ele>275</ele>
        <time>2011-05-27T13:44:53Z</time>
      </trkpt>
      <trkpt lat="49.68213" lon="4.69347">
        <ele>275</ele>
        <time>2011-05-27T13:44:54Z</time>
      </trkpt>
      <trkpt lat="49.68213" lon="4.6935">
        <ele>275</ele>
        <time>2011-05-27T13:44:55Z</time>
      </trkpt>
      <trkpt lat="49.68213" lon="4.69353">
        <ele>275</ele>
        <time>2011-05-27T13:44:56Z</time>
      </trkpt>
      <trkpt lat="49.68213" lon="4.69356">
        <ele>275</ele>
        <time>2011-05-27T13:44:57Z</time>
      </trkpt>
      <trkpt lat="49.68213" lon="4.6936">
        <ele>275</ele>
        <time>2011-05-27T13:44:58Z</time>
      </trkpt>
      <trkpt lat="49.68213" lon="4.69363">
        <ele>275</ele>
        <time>2011-05-27T13:44:59Z</time>
      </trkpt>
      <trkpt lat="49.68213" lon="4.69366">
        <ele>275</ele>
        <time>2011-05-27T13:45:00Z</time>
      </trkpt>
      <trkpt lat="49.68214" lon="4.69369">
        <ele>275</ele>
        <time>2011-05-27T13:45:01Z</time>
      </trkpt>
      <trkpt lat="49.68214" lon="4.69372">
        <ele>275</ele>
        <time>2011-05-27T13:45:02Z</time>
      </trkpt>
      <trkpt lat="49.68214" lon="4.69375">
        <ele>275</ele>
        <time>2011-05-27T13:45:03Z</time>
      </trkpt>
      <trkpt lat="49.68214" lon="4.69378">
        <ele>275</ele>
        <time>2011-05-27T13:45:04Z</time>
      </trkpt>
      <trkpt lat="49.68214" lon="4.69381">
        <ele>275</ele>
        <time>2011-05-27T13:45:05Z</time>
      </trkpt>
      <trkpt lat="49.68214" lon="4.69384">
        <ele>275</ele>
        <time>2011-05-27T13:45:06Z</time>
      </trkpt>
      <trkpt lat="49.68214" lon="4.69388">
        <ele>275</ele>
        <time>2011-05-27T13:45:07Z</time>
      </trkpt>
      <trkpt lat="49.68214" lon="4.69391">
        <ele>275</ele>
        <time>2011-05-27T13:45:08Z</time>
      </trkpt>
      <trkpt lat="49.68215" lon="4.69394">
        <ele>275</ele>
        <time>2011-05-27T13:45:09Z</time>
      </trkpt>
      <trkpt lat="49.68215" lon="4.69398">
        <ele>275</ele>
        <time>2011-05-27T13:45:10Z</time>
      </trkpt>
      <trkpt lat="49.68215" lon="4.69401">
        <ele>276</ele>
        <time>2011-05-27T13:45:11Z</time>
      </trkpt>
      <trkpt lat="49.68215" lon="4.69404">
        <ele>276</ele>
        <time>2011-05-27T13:45:12Z</time>
      </trkpt>
      <trkpt lat="49.68215" lon="4.69407">
        <ele>276</ele>
        <time>2011-05-27T13:45:13Z</time>
      </trkpt>
      <trkpt lat="49.68215" lon="4.6941">
        <ele>276</ele>
        <time>2011-05-27T13:45:14Z</time>
      </trkpt>
      <trkpt lat="49.68216" lon="4.69413">
        <ele>276</ele>
        <time>2011-05-27T13:45:15Z</time>
      </trkpt>
      <trkpt lat="49.68216" lon="4.69416">
        <ele>276</ele>
        <time>2011-05-27T13:45:16Z</time>
      </trkpt>
      <trkpt lat="49.68215" lon="4.69419">
        <ele>276</ele>
        <time>2011-05-27T13:45:17Z</time>
      </trkpt>
      <trkpt lat="49.68215" lon="4.69421">
        <ele>276</ele>
        <time>2011-05-27T13:45:18Z</time>
      </trkpt>
      <trkpt lat="49.68215" lon="4.69424">
        <ele>276</ele>
        <time>2011-05-27T13:45:19Z</time>
      </trkpt>
      <trkpt lat="49.68215" lon="4.69427">
        <ele>276</ele>
        <time>2011-05-27T13:45:20Z</time>
      </trkpt>
      <trkpt lat="49.68215" lon="4.6943">
        <ele>276</ele>
        <time>2011-05-27T13:45:21Z</time>
      </trkpt>
      <trkpt lat="49.68215" lon="4.69433">
        <ele>276</ele>
        <time>2011-05-27T13:45:22Z</time>
      </trkpt>
      <trkpt lat="49.68214" lon="4.69436">
        <ele>276</ele>
        <time>2011-05-27T13:45:23Z</time>
      </trkpt>
      <trkpt lat="49.68214" lon="4.69439">
        <ele>276</ele>
        <time>2011-05-27T13:45:24Z</time>
      </trkpt>
      <trkpt lat="49.68214" lon="4.69441">
        <ele>276</ele>
        <time>2011-05-27T13:45:25Z</time>
      </trkpt>
      <trkpt lat="49.68214" lon="4.69445">
        <ele>276</ele>
        <time>2011-05-27T13:45:26Z</time>
      </trkpt>
      <trkpt lat="49.68213" lon="4.69448">
        <ele>276</ele>
        <time>2011-05-27T13:45:27Z</time>
      </trkpt>
      <trkpt lat="49.68213" lon="4.69451">
        <ele>276</ele>
        <time>2011-05-27T13:45:28Z</time>
      </trkpt>
      <trkpt lat="49.68212" lon="4.69454">
        <ele>276</ele>
        <time>2011-05-27T13:45:29Z</time>
      </trkpt>
      <trkpt lat="49.68211" lon="4.69457">
        <ele>276</ele>
        <time>2011-05-27T13:45:30Z</time>
      </trkpt>
      <trkpt lat="49.68211" lon="4.69459">
        <ele>277</ele>
        <time>2011-05-27T13:45:31Z</time>
      </trkpt>
      <trkpt lat="49.6821" lon="4.69462">
        <ele>277</ele>
        <time>2011-05-27T13:45:32Z</time>
      </trkpt>
      <trkpt lat="49.68209" lon="4.69465">
        <ele>277</ele>
        <time>2011-05-27T13:45:33Z</time>
      </trkpt>
      <trkpt lat="49.68209" lon="4.69468">
        <ele>277</ele>
        <time>2011-05-27T13:45:34Z</time>
      </trkpt>
      <trkpt lat="49.68208" lon="4.69471">
        <ele>277</ele>
        <time>2011-05-27T13:45:35Z</time>
      </trkpt>
      <trkpt lat="49.68208" lon="4.69474">
        <ele>277</ele>
        <time>2011-05-27T13:45:36Z</time>
      </trkpt>
      <trkpt lat="49.68207" lon="4.69476">
        <ele>277</ele>
        <time>2011-05-27T13:45:37Z</time>
      </trkpt>
      <trkpt lat="49.68207" lon="4.69479">
        <ele>277</ele>
        <time>2011-05-27T13:45:38Z</time>
      </trkpt>
      <trkpt lat="49.68206" lon="4.69482">
        <ele>277</ele>
        <time>2011-05-27T13:45:39Z</time>
      </trkpt>
      <trkpt lat="49.68206" lon="4.69485">
        <ele>277</ele>
        <time>2011-05-27T13:45:40Z</time>
      </trkpt>
      <trkpt lat="49.68205" lon="4.69488">
        <ele>277</ele>
        <time>2011-05-27T13:45:41Z</time>
      </trkpt>
      <trkpt lat="49.68204" lon="4.6949">
        <ele>277</ele>
        <time>2011-05-27T13:45:42Z</time>
      </trkpt>
      <trkpt lat="49.68204" lon="4.69493">
        <ele>277</ele>
        <time>2011-05-27T13:45:43Z</time>
      </trkpt>
      <trkpt lat="49.68203" lon="4.69496">
        <ele>277</ele>
        <time>2011-05-27T13:45:44Z</time>
      </trkpt>
      <trkpt lat="49.68202" lon="4.69499">
        <ele>277</ele>
        <time>2011-05-27T13:45:45Z</time>
      </trkpt>
      <trkpt lat="49.68201" lon="4.69503">
        <ele>277</ele>
        <time>2011-05-27T13:45:46Z</time>
      </trkpt>
      <trkpt lat="49.68201" lon="4.69506">
        <ele>277</ele>
        <time>2011-05-27T13:45:47Z</time>
      </trkpt>
      <trkpt lat="49.682" lon="4.69508">
        <ele>277</ele>
        <time>2011-05-27T13:45:48Z</time>
      </trkpt>
      <trkpt lat="49.682" lon="4.69512">
        <ele>277</ele>
        <time>2011-05-27T13:45:49Z</time>
      </trkpt>
      <trkpt lat="49.682" lon="4.69515">
        <ele>278</ele>
        <time>2011-05-27T13:45:50Z</time>
      </trkpt>
      <trkpt lat="49.68199" lon="4.69518">
        <ele>278</ele>
        <time>2011-05-27T13:45:51Z</time>
      </trkpt>
      <trkpt lat="49.68198" lon="4.6952">
        <ele>278</ele>
        <time>2011-05-27T13:45:52Z</time>
      </trkpt>
      <trkpt lat="49.68198" lon="4.69523">
        <ele>278</ele>
        <time>2011-05-27T13:45:53Z</time>
      </trkpt>
      <trkpt lat="49.68197" lon="4.69526">
        <ele>278</ele>
        <time>2011-05-27T13:45:54Z</time>
      </trkpt>
      <trkpt lat="49.68196" lon="4.69529">
        <ele>278</ele>
        <time>2011-05-27T13:45:55Z</time>
      </trkpt>
      <trkpt lat="49.68195" lon="4.69532">
        <ele>278</ele>
        <time>2011-05-27T13:45:56Z</time>
      </trkpt>
      <trkpt lat="49.68194" lon="4.69535">
        <ele>278</ele>
        <time>2011-05-27T13:45:57Z</time>
      </trkpt>
      <trkpt lat="49.68193" lon="4.69539">
        <ele>279</ele>
        <time>2011-05-27T13:45:58Z</time>
      </trkpt>
      <trkpt lat="49.68192" lon="4.69542">
        <ele>280</ele>
        <time>2011-05-27T13:45:59Z</time>
      </trkpt>
      <trkpt lat="49.68192" lon="4.69545">
        <ele>280</ele>
        <time>2011-05-27T13:46:00Z</time>
      </trkpt>
      <trkpt lat="49.68191" lon="4.69548">
        <ele>281</ele>
        <time>2011-05-27T13:46:01Z</time>
      </trkpt>
      <trkpt lat="49.6819" lon="4.69551">
        <ele>281</ele>
        <time>2011-05-27T13:46:02Z</time>
      </trkpt>
      <trkpt lat="49.68188" lon="4.69553">
        <ele>282</ele>
        <time>2011-05-27T13:46:03Z</time>
      </trkpt>
      <trkpt lat="49.68188" lon="4.69556">
        <ele>282</ele>
        <time>2011-05-27T13:46:04Z</time>
      </trkpt>
      <trkpt lat="49.68187" lon="4.69559">
        <ele>282</ele>
        <time>2011-05-27T13:46:05Z</time>
      </trkpt>
      <trkpt lat="49.68187" lon="4.69562">
        <ele>282</ele>
        <time>2011-05-27T13:46:06Z</time>
      </trkpt>
      <trkpt lat="49.68187" lon="4.69565">
        <ele>283</ele>
        <time>2011-05-27T13:46:07Z</time>
      </trkpt>
      <trkpt lat="49.68186" lon="4.69567">
        <ele>283</ele>
        <time>2011-05-27T13:46:08Z</time>
      </trkpt>
      <trkpt lat="49.68185" lon="4.69571">
        <ele>283</ele>
        <time>2011-05-27T13:46:09Z</time>
      </trkpt>
      <trkpt lat="49.68185" lon="4.69574">
        <ele>283</ele>
        <time>2011-05-27T13:46:10Z</time>
      </trkpt>
      <trkpt lat="49.68184" lon="4.69577">
        <ele>283</ele>
        <time>2011-05-27T13:46:11Z</time>
      </trkpt>
      <trkpt lat="49.68183" lon="4.69579">
        <ele>283</ele>
        <time>2011-05-27T13:46:12Z</time>
      </trkpt>
      <trkpt lat="49.68182" lon="4.69581">
        <ele>284</ele>
        <time>2011-05-27T13:46:13Z</time>
      </trkpt>
      <trkpt lat="49.68182" lon="4.69583">
        <ele>284</ele>
        <time>2011-05-27T13:46:14Z</time>
      </trkpt>
      <trkpt lat="49.6818" lon="4.69585">
        <ele>284</ele>
        <time>2011-05-27T13:46:15Z</time>
      </trkpt>
      <trkpt lat="49.6818" lon="4.69588">
        <ele>284</ele>
        <time>2011-05-27T13:46:16Z</time>
      </trkpt>
      <trkpt lat="49.68179" lon="4.69591">
        <ele>284</ele>
        <time>2011-05-27T13:46:17Z</time>
      </trkpt>
      <trkpt lat="49.68178" lon="4.69594">
        <ele>284</ele>
        <time>2011-05-27T13:46:18Z</time>
      </trkpt>
      <trkpt lat="49.68177" lon="4.69597">
        <ele>284</ele>
        <time>2011-05-27T13:46:19Z</time>
      </trkpt>
      <trkpt lat="49.68176" lon="4.696">
        <ele>284</ele>
        <time>2011-05-27T13:46:20Z</time>
      </trkpt>
      <trkpt lat="49.68175" lon="4.69603">
        <ele>284</ele>
        <time>2011-05-27T13:46:21Z</time>
      </trkpt>
      <trkpt lat="49.68174" lon="4.69606">
        <ele>285</ele>
        <time>2011-05-27T13:46:22Z</time>
      </trkpt>
      <trkpt lat="49.68173" lon="4.69609">
        <ele>285</ele>
        <time>2011-05-27T13:46:23Z</time>
      </trkpt>
      <trkpt lat="49.68172" lon="4.69612">
        <ele>285</ele>
        <time>2011-05-27T13:46:24Z</time>
      </trkpt>
      <trkpt lat="49.68171" lon="4.69614">
        <ele>286</ele>
        <time>2011-05-27T13:46:25Z</time>
      </trkpt>
      <trkpt lat="49.6817" lon="4.69617">
        <ele>286</ele>
        <time>2011-05-27T13:46:26Z</time>
      </trkpt>
      <trkpt lat="49.68169" lon="4.6962">
        <ele>286</ele>
        <time>2011-05-27T13:46:27Z</time>
      </trkpt>
      <trkpt lat="49.68168" lon="4.69623">
        <ele>286</ele>
        <time>2011-05-27T13:46:28Z</time>
      </trkpt>
      <trkpt lat="49.68167" lon="4.69624">
        <ele>286</ele>
        <time>2011-05-27T13:46:29Z</time>
      </trkpt>
      <trkpt lat="49.68167" lon="4.69626">
        <ele>286</ele>
        <time>2011-05-27T13:46:30Z</time>
      </trkpt>
      <trkpt lat="49.68166" lon="4.69629">
        <ele>286</ele>
        <time>2011-05-27T13:46:31Z</time>
      </trkpt>
      <trkpt lat="49.68165" lon="4.69633">
        <ele>287</ele>
        <time>2011-05-27T13:46:32Z</time>
      </trkpt>
      <trkpt lat="49.68164" lon="4.69637">
        <ele>287</ele>
        <time>2011-05-27T13:46:33Z</time>
      </trkpt>
      <trkpt lat="49.68164" lon="4.6964">
        <ele>287</ele>
        <time>2011-05-27T13:46:34Z</time>
      </trkpt>
      <trkpt lat="49.68163" lon="4.69643">
        <ele>287</ele>
        <time>2011-05-27T13:46:35Z</time>
      </trkpt>
      <trkpt lat="49.68161" lon="4.69647">
        <ele>287</ele>
        <time>2011-05-27T13:46:36Z</time>
      </trkpt>
      <trkpt lat="49.68161" lon="4.69651">
        <ele>288</ele>
        <time>2011-05-27T13:46:37Z</time>
      </trkpt>
      <trkpt lat="49.6816" lon="4.69654">
        <ele>288</ele>
        <time>2011-05-27T13:46:38Z</time>
      </trkpt>
      <trkpt lat="49.6816" lon="4.69658">
        <ele>288</ele>
        <time>2011-05-27T13:46:39Z</time>
      </trkpt>
      <trkpt lat="49.68159" lon="4.69661">
        <ele>288</ele>
        <time>2011-05-27T13:46:40Z</time>
      </trkpt>
      <trkpt lat="49.68159" lon="4.69665">
        <ele>288</ele>
        <time>2011-05-27T13:46:41Z</time>
      </trkpt>
      <trkpt lat="49.68158" lon="4.69668">
        <ele>288</ele>
        <time>2011-05-27T13:46:42Z</time>
      </trkpt>
      <trkpt lat="49.68158" lon="4.69671">
        <ele>288</ele>
        <time>2011-05-27T13:46:43Z</time>
      </trkpt>
      <trkpt lat="49.68158" lon="4.69675">
        <ele>289</ele>
        <time>2011-05-27T13:46:44Z</time>
      </trkpt>
      <trkpt lat="49.68157" lon="4.69678">
        <ele>289</ele>
        <time>2011-05-27T13:46:45Z</time>
      </trkpt>
      <trkpt lat="49.68157" lon="4.69682">
        <ele>289</ele>
        <time>2011-05-27T13:46:46Z</time>
      </trkpt>
      <trkpt lat="49.68156" lon="4.69685">
        <ele>290</ele>
        <time>2011-05-27T13:46:47Z</time>
      </trkpt>
      <trkpt lat="49.68155" lon="4.69689">
        <ele>290</ele>
        <time>2011-05-27T13:46:48Z</time>
      </trkpt>
      <trkpt lat="49.68155" lon="4.69692">
        <ele>290</ele>
        <time>2011-05-27T13:46:49Z</time>
      </trkpt>
      <trkpt lat="49.68155" lon="4.69696">
        <ele>290</ele>
        <time>2011-05-27T13:46:50Z</time>
      </trkpt>
      <trkpt lat="49.68154" lon="4.69699">
        <ele>291</ele>
        <time>2011-05-27T13:46:51Z</time>
      </trkpt>
      <trkpt lat="49.68154" lon="4.69702">
        <ele>291</ele>
        <time>2011-05-27T13:46:52Z</time>
      </trkpt>
      <trkpt lat="49.68153" lon="4.69706">
        <ele>291</ele>
        <time>2011-05-27T13:46:53Z</time>
      </trkpt>
      <trkpt lat="49.68153" lon="4.69709">
        <ele>291</ele>
        <time>2011-05-27T13:46:54Z</time>
      </trkpt>
      <trkpt lat="49.68153" lon="4.69712">
        <ele>291</ele>
        <time>2011-05-27T13:46:55Z</time>
      </trkpt>
      <trkpt lat="49.68153" lon="4.69716">
        <ele>292</ele>
        <time>2011-05-27T13:46:56Z</time>
      </trkpt>
      <trkpt lat="49.68152" lon="4.6972">
        <ele>292</ele>
        <time>2011-05-27T13:46:57Z</time>
      </trkpt>
      <trkpt lat="49.68152" lon="4.69723">
        <ele>292</ele>
        <time>2011-05-27T13:46:58Z</time>
      </trkpt>
      <trkpt lat="49.68152" lon="4.69726">
        <ele>292</ele>
        <time>2011-05-27T13:46:59Z</time>
      </trkpt>
      <trkpt lat="49.68151" lon="4.6973">
        <ele>293</ele>
        <time>2011-05-27T13:47:00Z</time>
      </trkpt>
      <trkpt lat="49.68151" lon="4.69733">
        <ele>293</ele>
        <time>2011-05-27T13:47:01Z</time>
      </trkpt>
      <trkpt lat="49.6815" lon="4.69736">
        <ele>293</ele>
        <time>2011-05-27T13:47:02Z</time>
      </trkpt>
      <trkpt lat="49.6815" lon="4.6974">
        <ele>293</ele>
        <time>2011-05-27T13:47:03Z</time>
      </trkpt>
      <trkpt lat="49.6815" lon="4.69743">
        <ele>293</ele>
        <time>2011-05-27T13:47:04Z</time>
      </trkpt>
      <trkpt lat="49.6815" lon="4.69747">
        <ele>293</ele>
        <time>2011-05-27T13:47:05Z</time>
      </trkpt>
      <trkpt lat="49.68149" lon="4.6975">
        <ele>294</ele>
        <time>2011-05-27T13:47:06Z</time>
      </trkpt>
      <trkpt lat="49.68149" lon="4.69754">
        <ele>294</ele>
        <time>2011-05-27T13:47:07Z</time>
      </trkpt>
      <trkpt lat="49.68149" lon="4.69757">
        <ele>294</ele>
        <time>2011-05-27T13:47:08Z</time>
      </trkpt>
      <trkpt lat="49.68148" lon="4.69761">
        <ele>294</ele>
        <time>2011-05-27T13:47:09Z</time>
      </trkpt>
      <trkpt lat="49.68148" lon="4.69764">
        <ele>294</ele>
        <time>2011-05-27T13:47:10Z</time>
      </trkpt>
      <trkpt lat="49.68147" lon="4.69767">
        <ele>295</ele>
        <time>2011-05-27T13:47:11Z</time>
      </trkpt>
      <trkpt lat="49.68146" lon="4.6977">
        <ele>295</ele>
        <time>2011-05-27T13:47:12Z</time>
      </trkpt>
      <trkpt lat="49.68145" lon="4.69773">
        <ele>296</ele>
        <time>2011-05-27T13:47:13Z</time>
      </trkpt>
      <trkpt lat="49.68145" lon="4.69776">
        <ele>296</ele>
        <time>2011-05-27T13:47:14Z</time>
      </trkpt>
      <trkpt lat="49.68145" lon="4.6978">
        <ele>297</ele>
        <time>2011-05-27T13:47:15Z</time>
      </trkpt>
      <trkpt lat="49.68145" lon="4.69784">
        <ele>297</ele>
        <time>2011-05-27T13:47:16Z</time>
      </trkpt>
      <trkpt lat="49.68145" lon="4.69788">
        <ele>298</ele>
        <time>2011-05-27T13:47:17Z</time>
      </trkpt>
      <trkpt lat="49.68145" lon="4.69792">
        <ele>298</ele>
        <time>2011-05-27T13:47:18Z</time>
      </trkpt>
      <trkpt lat="49.68145" lon="4.69795">
        <ele>299</ele>
        <time>2011-05-27T13:47:19Z</time>
      </trkpt>
      <trkpt lat="49.68146" lon="4.698">
        <ele>299</ele>
        <time>2011-05-27T13:47:20Z</time>
      </trkpt>
      <trkpt lat="49.68147" lon="4.69803">
        <ele>300</ele>
        <time>2011-05-27T13:47:21Z</time>
      </trkpt>
      <trkpt lat="49.68147" lon="4.69807">
        <ele>300</ele>
        <time>2011-05-27T13:47:22Z</time>
      </trkpt>
      <trkpt lat="49.68147" lon="4.69811">
        <ele>301</ele>
        <time>2011-05-27T13:47:23Z</time>
      </trkpt>
      <trkpt lat="49.68148" lon="4.69815">
        <ele>301</ele>
        <time>2011-05-27T13:47:24Z</time>
      </trkpt>
      <trkpt lat="49.68148" lon="4.69818">
        <ele>302</ele>
        <time>2011-05-27T13:47:25Z</time>
      </trkpt>
      <trkpt lat="49.68148" lon="4.69822">
        <ele>302</ele>
        <time>2011-05-27T13:47:26Z</time>
      </trkpt>
      <trkpt lat="49.68148" lon="4.69826">
        <ele>302</ele>
        <time>2011-05-27T13:47:27Z</time>
      </trkpt>
      <trkpt lat="49.68148" lon="4.69829">
        <ele>302</ele>
        <time>2011-05-27T13:47:28Z</time>
      </trkpt>
      <trkpt lat="49.68149" lon="4.69833">
        <ele>302</ele>
        <time>2011-05-27T13:47:29Z</time>
      </trkpt>
      <trkpt lat="49.68148" lon="4.69836">
        <ele>302</ele>
        <time>2011-05-27T13:47:30Z</time>
      </trkpt>
      <trkpt lat="49.68149" lon="4.6984">
        <ele>302</ele>
        <time>2011-05-27T13:47:31Z</time>
      </trkpt>
      <trkpt lat="49.68149" lon="4.69844">
        <ele>302</ele>
        <time>2011-05-27T13:47:32Z</time>
      </trkpt>
      <trkpt lat="49.68149" lon="4.69848">
        <ele>302</ele>
        <time>2011-05-27T13:47:33Z</time>
      </trkpt>
      <trkpt lat="49.68149" lon="4.69851">
        <ele>302</ele>
        <time>2011-05-27T13:47:34Z</time>
      </trkpt>
      <trkpt lat="49.6815" lon="4.69855">
        <ele>302</ele>
        <time>2011-05-27T13:47:35Z</time>
      </trkpt>
      <trkpt lat="49.6815" lon="4.69858">
        <ele>302</ele>
        <time>2011-05-27T13:47:36Z</time>
      </trkpt>
      <trkpt lat="49.6815" lon="4.69862">
        <ele>302</ele>
        <time>2011-05-27T13:47:37Z</time>
      </trkpt>
      <trkpt lat="49.6815" lon="4.69866">
        <ele>302</ele>
        <time>2011-05-27T13:47:38Z</time>
      </trkpt>
      <trkpt lat="49.68149" lon="4.69869">
        <ele>302</ele>
        <time>2011-05-27T13:47:39Z</time>
      </trkpt>
      <trkpt lat="49.68148" lon="4.69872">
        <ele>303</ele>
        <time>2011-05-27T13:47:40Z</time>
      </trkpt>
      <trkpt lat="49.68146" lon="4.69875">
        <ele>304</ele>
        <time>2011-05-27T13:47:41Z</time>
      </trkpt>
      <trkpt lat="49.68145" lon="4.69878">
        <ele>304</ele>
        <time>2011-05-27T13:47:42Z</time>
      </trkpt>
      <trkpt lat="49.68143" lon="4.69881">
        <ele>305</ele>
        <time>2011-05-27T13:47:43Z</time>
      </trkpt>
      <trkpt lat="49.68142" lon="4.69884">
        <ele>305</ele>
        <time>2011-05-27T13:47:44Z</time>
      </trkpt>
      <trkpt lat="49.6814" lon="4.69887">
        <ele>306</ele>
        <time>2011-05-27T13:47:45Z</time>
      </trkpt>
      <trkpt lat="49.68139" lon="4.69891">
        <ele>306</ele>
        <time>2011-05-27T13:47:46Z</time>
      </trkpt>
      <trkpt lat="49.68137" lon="4.69894">
        <ele>307</ele>
        <time>2011-05-27T13:47:47Z</time>
      </trkpt>
      <trkpt lat="49.68136" lon="4.69897">
        <ele>307</ele>
        <time>2011-05-27T13:47:48Z</time>
      </trkpt>
      <trkpt lat="49.68135" lon="4.699">
        <ele>308</ele>
        <time>2011-05-27T13:47:49Z</time>
      </trkpt>
      <trkpt lat="49.68133" lon="4.69902">
        <ele>309</ele>
        <time>2011-05-27T13:47:50Z</time>
      </trkpt>
      <trkpt lat="49.68132" lon="4.69905">
        <ele>310</ele>
        <time>2011-05-27T13:47:51Z</time>
      </trkpt>
      <trkpt lat="49.6813" lon="4.69908">
        <ele>310</ele>
        <time>2011-05-27T13:47:52Z</time>
      </trkpt>
      <trkpt lat="49.68128" lon="4.69912">
        <ele>311</ele>
        <time>2011-05-27T13:47:53Z</time>
      </trkpt>
      <trkpt lat="49.68126" lon="4.69916">
        <ele>311</ele>
        <time>2011-05-27T13:47:54Z</time>
      </trkpt>
      <trkpt lat="49.68124" lon="4.6992">
        <ele>311</ele>
        <time>2011-05-27T13:47:55Z</time>
      </trkpt>
      <trkpt lat="49.68122" lon="4.69924">
        <ele>312</ele>
        <time>2011-05-27T13:47:56Z</time>
      </trkpt>
      <trkpt lat="49.6812" lon="4.69928">
        <ele>312</ele>
        <time>2011-05-27T13:47:57Z</time>
      </trkpt>
      <trkpt lat="49.68118" lon="4.69932">
        <ele>312</ele>
        <time>2011-05-27T13:47:58Z</time>
      </trkpt>
      <trkpt lat="49.68116" lon="4.69937">
        <ele>312</ele>
        <time>2011-05-27T13:47:59Z</time>
      </trkpt>
      <trkpt lat="49.68113" lon="4.69941">
        <ele>313</ele>
        <time>2011-05-27T13:48:00Z</time>
      </trkpt>
      <trkpt lat="49.6811" lon="4.69944">
        <ele>314</ele>
        <time>2011-05-27T13:48:01Z</time>
      </trkpt>
      <trkpt lat="49.68107" lon="4.69947">
        <ele>315</ele>
        <time>2011-05-27T13:48:02Z</time>
      </trkpt>
      <trkpt lat="49.68104" lon="4.6995">
        <ele>316</ele>
        <time>2011-05-27T13:48:03Z</time>
      </trkpt>
      <trkpt lat="49.68101" lon="4.69952">
        <ele>317</ele>
        <time>2011-05-27T13:48:04Z</time>
      </trkpt>
      <trkpt lat="49.68099" lon="4.69954">
        <ele>318</ele>
        <time>2011-05-27T13:48:05Z</time>
      </trkpt>
      <trkpt lat="49.68096" lon="4.69958">
        <ele>319</ele>
        <time>2011-05-27T13:48:06Z</time>
      </trkpt>
      <trkpt lat="49.68094" lon="4.6996">
        <ele>320</ele>
        <time>2011-05-27T13:48:07Z</time>
      </trkpt>
      <trkpt lat="49.68092" lon="4.69963">
        <ele>321</ele>
        <time>2011-05-27T13:48:08Z</time>
      </trkpt>
      <trkpt lat="49.6809" lon="4.69965">
        <ele>322</ele>
        <time>2011-05-27T13:48:09Z</time>
      </trkpt>
      <trkpt lat="49.68086" lon="4.69966">
        <ele>322</ele>
        <time>2011-05-27T13:48:10Z</time>
      </trkpt>
      <trkpt lat="49.68083" lon="4.69968">
        <ele>322</ele>
        <time>2011-05-27T13:48:11Z</time>
      </trkpt>
      <trkpt lat="49.6808" lon="4.69971">
        <ele>322</ele>
        <time>2011-05-27T13:48:12Z</time>
      </trkpt>
      <trkpt lat="49.68076" lon="4.69974">
        <ele>323</ele>
        <time>2011-05-27T13:48:13Z</time>
      </trkpt>
      <trkpt lat="49.68073" lon="4.69976">
        <ele>324</ele>
        <time>2011-05-27T13:48:14Z</time>
      </trkpt>
      <trkpt lat="49.6807" lon="4.6998">
        <ele>324</ele>
        <time>2011-05-27T13:48:15Z</time>
      </trkpt>
      <trkpt lat="49.68068" lon="4.69985">
        <ele>324</ele>
        <time>2011-05-27T13:48:16Z</time>
      </trkpt>
      <trkpt lat="49.68066" lon="4.6999">
        <ele>324</ele>
        <time>2011-05-27T13:48:17Z</time>
      </trkpt>
      <trkpt lat="49.68063" lon="4.69994">
        <ele>324</ele>
        <time>2011-05-27T13:48:18Z</time>
      </trkpt>
      <trkpt lat="49.68061" lon="4.69998">
        <ele>324</ele>
        <time>2011-05-27T13:48:19Z</time>
      </trkpt>
      <trkpt lat="49.68058" lon="4.70003">
        <ele>324</ele>
        <time>2011-05-27T13:48:20Z</time>
      </trkpt>
      <trkpt lat="49.68055" lon="4.70007">
        <ele>324</ele>
        <time>2011-05-27T13:48:21Z</time>
      </trkpt>
      <trkpt lat="49.68052" lon="4.7001">
        <ele>324</ele>
        <time>2011-05-27T13:48:22Z</time>
      </trkpt>
      <trkpt lat="49.6805" lon="4.70014">
        <ele>324</ele>
        <time>2011-05-27T13:48:23Z</time>
      </trkpt>
      <trkpt lat="49.68048" lon="4.70019">
        <ele>325</ele>
        <time>2011-05-27T13:48:24Z</time>
      </trkpt>
      <trkpt lat="49.68047" lon="4.70024">
        <ele>325</ele>
        <time>2011-05-27T13:48:25Z</time>
      </trkpt>
      <trkpt lat="49.68045" lon="4.70028">
        <ele>325</ele>
        <time>2011-05-27T13:48:26Z</time>
      </trkpt>
      <trkpt lat="49.68044" lon="4.70032">
        <ele>325</ele>
        <time>2011-05-27T13:48:27Z</time>
      </trkpt>
      <trkpt lat="49.68043" lon="4.70036">
        <ele>325</ele>
        <time>2011-05-27T13:48:28Z</time>
      </trkpt>
      <trkpt lat="49.68042" lon="4.70039">
        <ele>325</ele>
        <time>2011-05-27T13:48:29Z</time>
      </trkpt>
      <trkpt lat="49.68041" lon="4.70042">
        <ele>325</ele>
        <time>2011-05-27T13:48:30Z</time>
      </trkpt>
      <trkpt lat="49.6804" lon="4.70045">
        <ele>325</ele>
        <time>2011-05-27T13:48:31Z</time>
      </trkpt>
      <trkpt lat="49.6804" lon="4.70048">
        <ele>325</ele>
        <time>2011-05-27T13:48:32Z</time>
      </trkpt>
      <trkpt lat="49.68039" lon="4.7005">
        <ele>325</ele>
        <time>2011-05-27T13:48:33Z</time>
      </trkpt>
      <trkpt lat="49.68038" lon="4.70054">
        <ele>325</ele>
        <time>2011-05-27T13:48:34Z</time>
      </trkpt>
      <trkpt lat="49.68037" lon="4.70057">
        <ele>325</ele>
        <time>2011-05-27T13:48:35Z</time>
      </trkpt>
      <trkpt lat="49.68036" lon="4.7006">
        <ele>325</ele>
        <time>2011-05-27T13:48:36Z</time>
      </trkpt>
      <trkpt lat="49.68034" lon="4.70064">
        <ele>325</ele>
        <time>2011-05-27T13:48:37Z</time>
      </trkpt>
      <trkpt lat="49.68034" lon="4.70067">
        <ele>325</ele>
        <time>2011-05-27T13:48:38Z</time>
      </trkpt>
      <trkpt lat="49.68032" lon="4.70071">
        <ele>325</ele>
        <time>2011-05-27T13:48:39Z</time>
      </trkpt>
      <trkpt lat="49.68031" lon="4.70074">
        <ele>325</ele>
        <time>2011-05-27T13:48:40Z</time>
      </trkpt>
      <trkpt lat="49.6803" lon="4.70078">
        <ele>324</ele>
        <time>2011-05-27T13:48:41Z</time>
      </trkpt>
      <trkpt lat="49.68028" lon="4.70081">
        <ele>323</ele>
        <time>2011-05-27T13:48:42Z</time>
      </trkpt>
      <trkpt lat="49.68026" lon="4.70084">
        <ele>322</ele>
        <time>2011-05-27T13:48:43Z</time>
      </trkpt>
      <trkpt lat="49.68024" lon="4.70087">
        <ele>322</ele>
        <time>2011-05-27T13:48:44Z</time>
      </trkpt>
      <trkpt lat="49.68023" lon="4.7009">
        <ele>321</ele>
        <time>2011-05-27T13:48:45Z</time>
      </trkpt>
      <trkpt lat="49.68021" lon="4.70092">
        <ele>321</ele>
        <time>2011-05-27T13:48:46Z</time>
      </trkpt>
      <trkpt lat="49.68019" lon="4.70095">
        <ele>321</ele>
        <time>2011-05-27T13:48:47Z</time>
      </trkpt>
      <trkpt lat="49.68016" lon="4.70097">
        <ele>320</ele>
        <time>2011-05-27T13:48:48Z</time>
      </trkpt>
      <trkpt lat="49.68014" lon="4.701">
        <ele>320</ele>
        <time>2011-05-27T13:48:49Z</time>
      </trkpt>
      <trkpt lat="49.68011" lon="4.70102">
        <ele>320</ele>
        <time>2011-05-27T13:48:50Z</time>
      </trkpt>
      <trkpt lat="49.68009" lon="4.70104">
        <ele>320</ele>
        <time>2011-05-27T13:48:51Z</time>
      </trkpt>
      <trkpt lat="49.68006" lon="4.70106">
        <ele>320</ele>
        <time>2011-05-27T13:48:52Z</time>
      </trkpt>
      <trkpt lat="49.68003" lon="4.70109">
        <ele>320</ele>
        <time>2011-05-27T13:48:53Z</time>
      </trkpt>
      <trkpt lat="49.68" lon="4.70112">
        <ele>320</ele>
        <time>2011-05-27T13:48:54Z</time>
      </trkpt>
      <trkpt lat="49.67998" lon="4.70115">
        <ele>320</ele>
        <time>2011-05-27T13:48:55Z</time>
      </trkpt>
      <trkpt lat="49.67995" lon="4.70118">
        <ele>320</ele>
        <time>2011-05-27T13:48:56Z</time>
      </trkpt>
      <trkpt lat="49.67992" lon="4.7012">
        <ele>320</ele>
        <time>2011-05-27T13:48:57Z</time>
      </trkpt>
      <trkpt lat="49.67989" lon="4.70123">
        <ele>321</ele>
        <time>2011-05-27T13:48:58Z</time>
      </trkpt>
      <trkpt lat="49.67987" lon="4.70126">
        <ele>322</ele>
        <time>2011-05-27T13:48:59Z</time>
      </trkpt>
      <trkpt lat="49.67985" lon="4.7013">
        <ele>323</ele>
        <time>2011-05-27T13:49:00Z</time>
      </trkpt>
      <trkpt lat="49.67983" lon="4.70133">
        <ele>324</ele>
        <time>2011-05-27T13:49:01Z</time>
      </trkpt>
      <trkpt lat="49.67982" lon="4.70136">
        <ele>325</ele>
        <time>2011-05-27T13:49:02Z</time>
      </trkpt>
      <trkpt lat="49.67981" lon="4.7014">
        <ele>326</ele>
        <time>2011-05-27T13:49:03Z</time>
      </trkpt>
      <trkpt lat="49.6798" lon="4.70144">
        <ele>327</ele>
        <time>2011-05-27T13:49:04Z</time>
      </trkpt>
      <trkpt lat="49.67979" lon="4.70148">
        <ele>327</ele>
        <time>2011-05-27T13:49:05Z</time>
      </trkpt>
      <trkpt lat="49.67978" lon="4.70152">
        <ele>327</ele>
        <time>2011-05-27T13:49:06Z</time>
      </trkpt>
      <trkpt lat="49.67976" lon="4.70156">
        <ele>327</ele>
        <time>2011-05-27T13:49:07Z</time>
      </trkpt>
      <trkpt lat="49.67974" lon="4.70159">
        <ele>327</ele>
        <time>2011-05-27T13:49:08Z</time>
      </trkpt>
      <trkpt lat="49.67973" lon="4.70163">
        <ele>327</ele>
        <time>2011-05-27T13:49:09Z</time>
      </trkpt>
      <trkpt lat="49.67971" lon="4.70166">
        <ele>327</ele>
        <time>2011-05-27T13:49:10Z</time>
      </trkpt>
      <trkpt lat="49.6797" lon="4.7017">
        <ele>327</ele>
        <time>2011-05-27T13:49:11Z</time>
      </trkpt>
      <trkpt lat="49.67969" lon="4.70174">
        <ele>327</ele>
        <time>2011-05-27T13:49:12Z</time>
      </trkpt>
      <trkpt lat="49.67967" lon="4.70177">
        <ele>327</ele>
        <time>2011-05-27T13:49:13Z</time>
      </trkpt>
      <trkpt lat="49.67965" lon="4.7018">
        <ele>327</ele>
        <time>2011-05-27T13:49:14Z</time>
      </trkpt>
      <trkpt lat="49.67963" lon="4.70183">
        <ele>327</ele>
        <time>2011-05-27T13:49:15Z</time>
      </trkpt>
      <trkpt lat="49.6796" lon="4.70187">
        <ele>326</ele>
        <time>2011-05-27T13:49:16Z</time>
      </trkpt>
      <trkpt lat="49.67957" lon="4.7019">
        <ele>326</ele>
        <time>2011-05-27T13:49:17Z</time>
      </trkpt>
      <trkpt lat="49.67953" lon="4.70193">
        <ele>325</ele>
        <time>2011-05-27T13:49:18Z</time>
      </trkpt>
      <trkpt lat="49.6795" lon="4.70196">
        <ele>324</ele>
        <time>2011-05-27T13:49:19Z</time>
      </trkpt>
      <trkpt lat="49.67947" lon="4.70199">
        <ele>324</ele>
        <time>2011-05-27T13:49:20Z</time>
      </trkpt>
      <trkpt lat="49.67944" lon="4.70202">
        <ele>323</ele>
        <time>2011-05-27T13:49:21Z</time>
      </trkpt>
      <trkpt lat="49.67941" lon="4.70205">
        <ele>323</ele>
        <time>2011-05-27T13:49:22Z</time>
      </trkpt>
      <trkpt lat="49.67937" lon="4.70209">
        <ele>323</ele>
        <time>2011-05-27T13:49:23Z</time>
      </trkpt>
      <trkpt lat="49.67934" lon="4.70212">
        <ele>322</ele>
        <time>2011-05-27T13:49:24Z</time>
      </trkpt>
      <trkpt lat="49.67931" lon="4.70216">
        <ele>322</ele>
        <time>2011-05-27T13:49:25Z</time>
      </trkpt>
      <trkpt lat="49.67929" lon="4.7022">
        <ele>321</ele>
        <time>2011-05-27T13:49:26Z</time>
      </trkpt>
      <trkpt lat="49.67926" lon="4.70224">
        <ele>321</ele>
        <time>2011-05-27T13:49:27Z</time>
      </trkpt>
      <trkpt lat="49.67923" lon="4.70229">
        <ele>320</ele>
        <time>2011-05-27T13:49:28Z</time>
      </trkpt>
      <trkpt lat="49.67919" lon="4.70233">
        <ele>320</ele>
        <time>2011-05-27T13:49:29Z</time>
      </trkpt>
      <trkpt lat="49.67916" lon="4.70236">
        <ele>320</ele>
        <time>2011-05-27T13:49:30Z</time>
      </trkpt>
      <trkpt lat="49.67913" lon="4.7024">
        <ele>320</ele>
        <time>2011-05-27T13:49:31Z</time>
      </trkpt>
      <trkpt lat="49.6791" lon="4.70243">
        <ele>319</ele>
        <time>2011-05-27T13:49:32Z</time>
      </trkpt>
      <trkpt lat="49.67908" lon="4.70248">
        <ele>319</ele>
        <time>2011-05-27T13:49:33Z</time>
      </trkpt>
      <trkpt lat="49.67905" lon="4.70252">
        <ele>319</ele>
        <time>2011-05-27T13:49:34Z</time>
      </trkpt>
      <trkpt lat="49.67902" lon="4.70255">
        <ele>319</ele>
        <time>2011-05-27T13:49:35Z</time>
      </trkpt>
      <trkpt lat="49.67899" lon="4.70258">
        <ele>319</ele>
        <time>2011-05-27T13:49:36Z</time>
      </trkpt>
      <trkpt lat="49.67897" lon="4.70261">
        <ele>319</ele>
        <time>2011-05-27T13:49:37Z</time>
      </trkpt>
      <trkpt lat="49.67894" lon="4.70265">
        <ele>319</ele>
        <time>2011-05-27T13:49:38Z</time>
      </trkpt>
      <trkpt lat="49.67892" lon="4.70269">
        <ele>319</ele>
        <time>2011-05-27T13:49:39Z</time>
      </trkpt>
      <trkpt lat="49.67889" lon="4.70274">
        <ele>319</ele>
        <time>2011-05-27T13:49:40Z</time>
      </trkpt>
      <trkpt lat="49.67885" lon="4.70277">
        <ele>319</ele>
        <time>2011-05-27T13:49:41Z</time>
      </trkpt>
      <trkpt lat="49.67882" lon="4.70281">
        <ele>319</ele>
        <time>2011-05-27T13:49:42Z</time>
      </trkpt>
      <trkpt lat="49.6788" lon="4.70285">
        <ele>319</ele>
        <time>2011-05-27T13:49:43Z</time>
      </trkpt>
      <trkpt lat="49.67876" lon="4.70288">
        <ele>319</ele>
        <time>2011-05-27T13:49:44Z</time>
      </trkpt>
      <trkpt lat="49.67873" lon="4.70291">
        <ele>319</ele>
        <time>2011-05-27T13:49:45Z</time>
      </trkpt>
      <trkpt lat="49.67871" lon="4.70295">
        <ele>319</ele>
        <time>2011-05-27T13:49:46Z</time>
      </trkpt>
      <trkpt lat="49.67868" lon="4.70298">
        <ele>319</ele>
        <time>2011-05-27T13:49:47Z</time>
      </trkpt>
      <trkpt lat="49.67867" lon="4.70302">
        <ele>319</ele>
        <time>2011-05-27T13:49:48Z</time>
      </trkpt>
      <trkpt lat="49.67864" lon="4.70306">
        <ele>319</ele>
        <time>2011-05-27T13:49:49Z</time>
      </trkpt>
      <trkpt lat="49.67861" lon="4.70309">
        <ele>319</ele>
        <time>2011-05-27T13:49:50Z</time>
      </trkpt>
      <trkpt lat="49.67858" lon="4.70314">
        <ele>319</ele>
        <time>2011-05-27T13:49:51Z</time>
      </trkpt>
      <trkpt lat="49.67855" lon="4.70317">
        <ele>319</ele>
        <time>2011-05-27T13:49:52Z</time>
      </trkpt>
      <trkpt lat="49.67851" lon="4.70319">
        <ele>319</ele>
        <time>2011-05-27T13:49:53Z</time>
      </trkpt>
      <trkpt lat="49.67848" lon="4.70322">
        <ele>319</ele>
        <time>2011-05-27T13:49:54Z</time>
      </trkpt>
      <trkpt lat="49.67845" lon="4.70327">
        <ele>319</ele>
        <time>2011-05-27T13:49:55Z</time>
      </trkpt>
      <trkpt lat="49.67841" lon="4.7033">
        <ele>319</ele>
        <time>2011-05-27T13:49:56Z</time>
      </trkpt>
      <trkpt lat="49.67838" lon="4.70333">
        <ele>319</ele>
        <time>2011-05-27T13:49:57Z</time>
      </trkpt>
      <trkpt lat="49.67835" lon="4.70338">
        <ele>320</ele>
        <time>2011-05-27T13:49:58Z</time>
      </trkpt>
      <trkpt lat="49.67831" lon="4.70341">
        <ele>321</ele>
        <time>2011-05-27T13:49:59Z</time>
      </trkpt>
      <trkpt lat="49.67828" lon="4.70344">
        <ele>321</ele>
        <time>2011-05-27T13:50:00Z</time>
      </trkpt>
      <trkpt lat="49.67824" lon="4.70346">
        <ele>322</ele>
        <time>2011-05-27T13:50:01Z</time>
      </trkpt>
      <trkpt lat="49.67821" lon="4.70349">
        <ele>322</ele>
        <time>2011-05-27T13:50:02Z</time>
      </trkpt>
      <trkpt lat="49.67819" lon="4.70352">
        <ele>322</ele>
        <time>2011-05-27T13:50:03Z</time>
      </trkpt>
      <trkpt lat="49.67818" lon="4.70355">
        <ele>322</ele>
        <time>2011-05-27T13:50:04Z</time>
      </trkpt>
      <trkpt lat="49.67816" lon="4.70358">
        <ele>322</ele>
        <time>2011-05-27T13:50:05Z</time>
      </trkpt>
      <trkpt lat="49.67813" lon="4.7036">
        <ele>323</ele>
        <time>2011-05-27T13:50:06Z</time>
      </trkpt>
      <trkpt lat="49.67811" lon="4.70362">
        <ele>323</ele>
        <time>2011-05-27T13:50:07Z</time>
      </trkpt>
      <trkpt lat="49.67808" lon="4.70365">
        <ele>323</ele>
        <time>2011-05-27T13:50:08Z</time>
      </trkpt>
      <trkpt lat="49.67806" lon="4.70369">
        <ele>324</ele>
        <time>2011-05-27T13:50:09Z</time>
      </trkpt>
      <trkpt lat="49.67803" lon="4.7037">
        <ele>324</ele>
        <time>2011-05-27T13:50:10Z</time>
      </trkpt>
      <trkpt lat="49.678" lon="4.70374">
        <ele>325</ele>
        <time>2011-05-27T13:50:11Z</time>
      </trkpt>
      <trkpt lat="49.67797" lon="4.70376">
        <ele>325</ele>
        <time>2011-05-27T13:50:12Z</time>
      </trkpt>
      <trkpt lat="49.67795" lon="4.70379">
        <ele>326</ele>
        <time>2011-05-27T13:50:13Z</time>
      </trkpt>
      <trkpt lat="49.67793" lon="4.70381">
        <ele>326</ele>
        <time>2011-05-27T13:50:14Z</time>
      </trkpt>
      <trkpt lat="49.67791" lon="4.70383">
        <ele>326</ele>
        <time>2011-05-27T13:50:15Z</time>
      </trkpt>
      <trkpt lat="49.6779" lon="4.70387">
        <ele>326</ele>
        <time>2011-05-27T13:50:16Z</time>
      </trkpt>
      <trkpt lat="49.6779" lon="4.70391">
        <ele>326</ele>
        <time>2011-05-27T13:50:17Z</time>
      </trkpt>
      <trkpt lat="49.67791" lon="4.70395">
        <ele>326</ele>
        <time>2011-05-27T13:50:18Z</time>
      </trkpt>
      <trkpt lat="49.67792" lon="4.704">
        <ele>326</ele>
        <time>2011-05-27T13:50:19Z</time>
      </trkpt>
      <trkpt lat="49.67795" lon="4.70404">
        <ele>326</ele>
        <time>2011-05-27T13:50:20Z</time>
      </trkpt>
      <trkpt lat="49.67796" lon="4.7041">
        <ele>326</ele>
        <time>2011-05-27T13:50:21Z</time>
      </trkpt>
      <trkpt lat="49.67798" lon="4.70415">
        <ele>326</ele>
        <time>2011-05-27T13:50:22Z</time>
      </trkpt>
      <trkpt lat="49.67799" lon="4.70421">
        <ele>326</ele>
        <time>2011-05-27T13:50:23Z</time>
      </trkpt>
      <trkpt lat="49.678" lon="4.70426">
        <ele>326</ele>
        <time>2011-05-27T13:50:24Z</time>
      </trkpt>
      <trkpt lat="49.67801" lon="4.70431">
        <ele>326</ele>
        <time>2011-05-27T13:50:25Z</time>
      </trkpt>
      <trkpt lat="49.678" lon="4.70436">
        <ele>326</ele>
        <time>2011-05-27T13:50:26Z</time>
      </trkpt>
      <trkpt lat="49.67799" lon="4.70441">
        <ele>325</ele>
        <time>2011-05-27T13:50:27Z</time>
      </trkpt>
      <trkpt lat="49.67795" lon="4.70446">
        <ele>325</ele>
        <time>2011-05-27T13:50:28Z</time>
      </trkpt>
      <trkpt lat="49.67793" lon="4.70451">
        <ele>324</ele>
        <time>2011-05-27T13:50:29Z</time>
      </trkpt>
      <trkpt lat="49.6779" lon="4.70456">
        <ele>324</ele>
        <time>2011-05-27T13:50:30Z</time>
      </trkpt>
      <trkpt lat="49.67789" lon="4.70462">
        <ele>324</ele>
        <time>2011-05-27T13:50:31Z</time>
      </trkpt>
      <trkpt lat="49.67786" lon="4.70467">
        <ele>323</ele>
        <time>2011-05-27T13:50:32Z</time>
      </trkpt>
      <trkpt lat="49.67782" lon="4.70477">
        <ele>323</ele>
        <time>2011-05-27T13:50:34Z</time>
      </trkpt>
      <trkpt lat="49.67778" lon="4.70481">
        <ele>323</ele>
        <time>2011-05-27T13:50:35Z</time>
      </trkpt>
      <trkpt lat="49.67775" lon="4.70486">
        <ele>323</ele>
        <time>2011-05-27T13:50:36Z</time>
      </trkpt>
      <trkpt lat="49.67773" lon="4.7049">
        <ele>323</ele>
        <time>2011-05-27T13:50:37Z</time>
      </trkpt>
      <trkpt lat="49.6777" lon="4.70497">
        <ele>323</ele>
        <time>2011-05-27T13:50:38Z</time>
      </trkpt>
      <trkpt lat="49.67768" lon="4.70504">
        <ele>322</ele>
        <time>2011-05-27T13:50:39Z</time>
      </trkpt>
      <trkpt lat="49.67765" lon="4.70509">
        <ele>321</ele>
        <time>2011-05-27T13:50:40Z</time>
      </trkpt>
      <trkpt lat="49.67762" lon="4.70514">
        <ele>321</ele>
        <time>2011-05-27T13:50:41Z</time>
      </trkpt>
      <trkpt lat="49.6776" lon="4.70517">
        <ele>321</ele>
        <time>2011-05-27T13:50:42Z</time>
      </trkpt>
      <trkpt lat="49.67758" lon="4.70521">
        <ele>320</ele>
        <time>2011-05-27T13:50:43Z</time>
      </trkpt>
      <trkpt lat="49.67755" lon="4.70529">
        <ele>319</ele>
        <time>2011-05-27T13:50:44Z</time>
      </trkpt>
      <trkpt lat="49.67751" lon="4.70536">
        <ele>318</ele>
        <time>2011-05-27T13:50:45Z</time>
      </trkpt>
      <trkpt lat="49.67746" lon="4.70544">
        <ele>317</ele>
        <time>2011-05-27T13:50:46Z</time>
      </trkpt>
      <trkpt lat="49.67743" lon="4.70553">
        <ele>316</ele>
        <time>2011-05-27T13:50:47Z</time>
      </trkpt>
      <trkpt lat="49.67738" lon="4.70562">
        <ele>315</ele>
        <time>2011-05-27T13:50:48Z</time>
      </trkpt>
      <trkpt lat="49.67736" lon="4.70572">
        <ele>314</ele>
        <time>2011-05-27T13:50:49Z</time>
      </trkpt>
      <trkpt lat="49.67733" lon="4.70583">
        <ele>313</ele>
        <time>2011-05-27T13:50:50Z</time>
      </trkpt>
      <trkpt lat="49.67729" lon="4.70594">
        <ele>312</ele>
        <time>2011-05-27T13:50:51Z</time>
      </trkpt>
      <trkpt lat="49.67726" lon="4.70602">
        <ele>311</ele>
        <time>2011-05-27T13:50:52Z</time>
      </trkpt>
      <trkpt lat="49.67723" lon="4.70608">
        <ele>310</ele>
        <time>2011-05-27T13:50:53Z</time>
      </trkpt>
      <trkpt lat="49.6772" lon="4.70613">
        <ele>310</ele>
        <time>2011-05-27T13:50:54Z</time>
      </trkpt>
      <trkpt lat="49.67717" lon="4.70617">
        <ele>310</ele>
        <time>2011-05-27T13:50:55Z</time>
      </trkpt>
      <trkpt lat="49.67715" lon="4.70621">
        <ele>310</ele>
        <time>2011-05-27T13:50:56Z</time>
      </trkpt>
      <trkpt lat="49.67713" lon="4.70626">
        <ele>310</ele>
        <time>2011-05-27T13:50:57Z</time>
      </trkpt>
      <trkpt lat="49.6771" lon="4.70632">
        <ele>310</ele>
        <time>2011-05-27T13:50:58Z</time>
      </trkpt>
      <trkpt lat="49.67707" lon="4.70637">
        <ele>310</ele>
        <time>2011-05-27T13:50:59Z</time>
      </trkpt>
      <trkpt lat="49.67705" lon="4.70642">
        <ele>310</ele>
        <time>2011-05-27T13:51:00Z</time>
      </trkpt>
      <trkpt lat="49.67703" lon="4.70649">
        <ele>310</ele>
        <time>2011-05-27T13:51:01Z</time>
      </trkpt>
      <trkpt lat="49.67701" lon="4.70656">
        <ele>310</ele>
        <time>2011-05-27T13:51:02Z</time>
      </trkpt>
      <trkpt lat="49.67699" lon="4.70664">
        <ele>310</ele>
        <time>2011-05-27T13:51:03Z</time>
      </trkpt>
      <trkpt lat="49.67697" lon="4.70671">
        <ele>310</ele>
        <time>2011-05-27T13:51:04Z</time>
      </trkpt>
      <trkpt lat="49.67694" lon="4.70678">
        <ele>310</ele>
        <time>2011-05-27T13:51:05Z</time>
      </trkpt>
      <trkpt lat="49.67692" lon="4.70685">
        <ele>310</ele>
        <time>2011-05-27T13:51:06Z</time>
      </trkpt>
      <trkpt lat="49.6769" lon="4.70692">
        <ele>310</ele>
        <time>2011-05-27T13:51:07Z</time>
      </trkpt>
      <trkpt lat="49.67687" lon="4.70699">
        <ele>309</ele>
        <time>2011-05-27T13:51:08Z</time>
      </trkpt>
      <trkpt lat="49.67684" lon="4.70705">
        <ele>309</ele>
        <time>2011-05-27T13:51:09Z</time>
      </trkpt>
      <trkpt lat="49.67681" lon="4.70713">
        <ele>309</ele>
        <time>2011-05-27T13:51:10Z</time>
      </trkpt>
      <trkpt lat="49.67678" lon="4.7072">
        <ele>309</ele>
        <time>2011-05-27T13:51:11Z</time>
      </trkpt>
      <trkpt lat="49.67674" lon="4.70729">
        <ele>309</ele>
        <time>2011-05-27T13:51:12Z</time>
      </trkpt>
      <trkpt lat="49.6767" lon="4.70736">
        <ele>309</ele>
        <time>2011-05-27T13:51:13Z</time>
      </trkpt>
      <trkpt lat="49.67666" lon="4.70745">
        <ele>309</ele>
        <time>2011-05-27T13:51:14Z</time>
      </trkpt>
      <trkpt lat="49.67662" lon="4.70753">
        <ele>309</ele>
        <time>2011-05-27T13:51:15Z</time>
      </trkpt>
      <trkpt lat="49.67659" lon="4.70761">
        <ele>309</ele>
        <time>2011-05-27T13:51:16Z</time>
      </trkpt>
      <trkpt lat="49.67655" lon="4.70768">
        <ele>308</ele>
        <time>2011-05-27T13:51:17Z</time>
      </trkpt>
      <trkpt lat="49.67651" lon="4.70776">
        <ele>307</ele>
        <time>2011-05-27T13:51:18Z</time>
      </trkpt>
      <trkpt lat="49.67648" lon="4.70783">
        <ele>306</ele>
        <time>2011-05-27T13:51:19Z</time>
      </trkpt>
      <trkpt lat="49.67645" lon="4.70791">
        <ele>305</ele>
        <time>2011-05-27T13:51:20Z</time>
      </trkpt>
      <trkpt lat="49.67642" lon="4.70798">
        <ele>304</ele>
        <time>2011-05-27T13:51:21Z</time>
      </trkpt>
      <trkpt lat="49.67638" lon="4.70805">
        <ele>303</ele>
        <time>2011-05-27T13:51:22Z</time>
      </trkpt>
      <trkpt lat="49.67636" lon="4.70813">
        <ele>302</ele>
        <time>2011-05-27T13:51:23Z</time>
      </trkpt>
      <trkpt lat="49.67633" lon="4.7082">
        <ele>302</ele>
        <time>2011-05-27T13:51:24Z</time>
      </trkpt>
      <trkpt lat="49.6763" lon="4.70827">
        <ele>301</ele>
        <time>2011-05-27T13:51:25Z</time>
      </trkpt>
      <trkpt lat="49.67628" lon="4.70834">
        <ele>301</ele>
        <time>2011-05-27T13:51:26Z</time>
      </trkpt>
      <trkpt lat="49.67625" lon="4.7084">
        <ele>300</ele>
        <time>2011-05-27T13:51:27Z</time>
      </trkpt>
      <trkpt lat="49.67623" lon="4.70846">
        <ele>300</ele>
        <time>2011-05-27T13:51:28Z</time>
      </trkpt>
      <trkpt lat="49.67621" lon="4.70854">
        <ele>300</ele>
        <time>2011-05-27T13:51:29Z</time>
      </trkpt>
      <trkpt lat="49.67617" lon="4.70861">
        <ele>299</ele>
        <time>2011-05-27T13:51:30Z</time>
      </trkpt>
      <trkpt lat="49.67614" lon="4.70869">
        <ele>299</ele>
        <time>2011-05-27T13:51:31Z</time>
      </trkpt>
      <trkpt lat="49.67611" lon="4.70876">
        <ele>299</ele>
        <time>2011-05-27T13:51:32Z</time>
      </trkpt>
      <trkpt lat="49.67607" lon="4.70884">
        <ele>299</ele>
        <time>2011-05-27T13:51:33Z</time>
      </trkpt>
      <trkpt lat="49.67604" lon="4.70892">
        <ele>299</ele>
        <time>2011-05-27T13:51:34Z</time>
      </trkpt>
      <trkpt lat="49.67601" lon="4.70901">
        <ele>299</ele>
        <time>2011-05-27T13:51:35Z</time>
      </trkpt>
      <trkpt lat="49.67599" lon="4.70911">
        <ele>299</ele>
        <time>2011-05-27T13:51:36Z</time>
      </trkpt>
      <trkpt lat="49.67597" lon="4.70922">
        <ele>299</ele>
        <time>2011-05-27T13:51:37Z</time>
      </trkpt>
      <trkpt lat="49.67596" lon="4.70932">
        <ele>299</ele>
        <time>2011-05-27T13:51:38Z</time>
      </trkpt>
      <trkpt lat="49.67596" lon="4.70944">
        <ele>299</ele>
        <time>2011-05-27T13:51:39Z</time>
      </trkpt>
      <trkpt lat="49.67596" lon="4.70956">
        <ele>299</ele>
        <time>2011-05-27T13:51:40Z</time>
      </trkpt>
      <trkpt lat="49.67596" lon="4.70968">
        <ele>299</ele>
        <time>2011-05-27T13:51:41Z</time>
      </trkpt>
      <trkpt lat="49.67596" lon="4.7098">
        <ele>299</ele>
        <time>2011-05-27T13:51:42Z</time>
      </trkpt>
      <trkpt lat="49.67598" lon="4.70991">
        <ele>299</ele>
        <time>2011-05-27T13:51:43Z</time>
      </trkpt>
      <trkpt lat="49.67601" lon="4.71003">
        <ele>299</ele>
        <time>2011-05-27T13:51:44Z</time>
      </trkpt>
      <trkpt lat="49.67604" lon="4.71014">
        <ele>299</ele>
        <time>2011-05-27T13:51:45Z</time>
      </trkpt>
      <trkpt lat="49.67608" lon="4.71024">
        <ele>299</ele>
        <time>2011-05-27T13:51:46Z</time>
      </trkpt>
      <trkpt lat="49.67612" lon="4.71033">
        <ele>299</ele>
        <time>2011-05-27T13:51:47Z</time>
      </trkpt>
      <trkpt lat="49.67615" lon="4.7104">
        <ele>299</ele>
        <time>2011-05-27T13:51:48Z</time>
      </trkpt>
      <trkpt lat="49.67618" lon="4.71047">
        <ele>299</ele>
        <time>2011-05-27T13:51:49Z</time>
      </trkpt>
      <trkpt lat="49.67621" lon="4.71053">
        <ele>299</ele>
        <time>2011-05-27T13:51:50Z</time>
      </trkpt>
      <trkpt lat="49.67625" lon="4.71059">
        <ele>299</ele>
        <time>2011-05-27T13:51:51Z</time>
      </trkpt>
      <trkpt lat="49.67629" lon="4.71063">
        <ele>299</ele>
        <time>2011-05-27T13:51:52Z</time>
      </trkpt>
      <trkpt lat="49.67634" lon="4.71066">
        <ele>299</ele>
        <time>2011-05-27T13:51:53Z</time>
      </trkpt>
      <trkpt lat="49.67638" lon="4.71067">
        <ele>299</ele>
        <time>2011-05-27T13:51:54Z</time>
      </trkpt>
      <trkpt lat="49.67644" lon="4.71067">
        <ele>299</ele>
        <time>2011-05-27T13:51:55Z</time>
      </trkpt>
      <trkpt lat="49.67649" lon="4.71065">
        <ele>299</ele>
        <time>2011-05-27T13:51:56Z</time>
      </trkpt>
      <trkpt lat="49.67654" lon="4.71063">
        <ele>299</ele>
        <time>2011-05-27T13:51:57Z</time>
      </trkpt>
      <trkpt lat="49.67659" lon="4.71059">
        <ele>299</ele>
        <time>2011-05-27T13:51:58Z</time>
      </trkpt>
      <trkpt lat="49.67665" lon="4.71057">
        <ele>299</ele>
        <time>2011-05-27T13:51:59Z</time>
      </trkpt>
      <trkpt lat="49.6767" lon="4.71054">
        <ele>299</ele>
        <time>2011-05-27T13:52:00Z</time>
      </trkpt>
      <trkpt lat="49.67676" lon="4.71049">
        <ele>299</ele>
        <time>2011-05-27T13:52:01Z</time>
      </trkpt>
      <trkpt lat="49.67682" lon="4.71043">
        <ele>299</ele>
        <time>2011-05-27T13:52:02Z</time>
      </trkpt>
      <trkpt lat="49.67688" lon="4.71036">
        <ele>298</ele>
        <time>2011-05-27T13:52:03Z</time>
      </trkpt>
      <trkpt lat="49.67696" lon="4.71027">
        <ele>298</ele>
        <time>2011-05-27T13:52:04Z</time>
      </trkpt>
      <trkpt lat="49.67704" lon="4.71019">
        <ele>298</ele>
        <time>2011-05-27T13:52:05Z</time>
      </trkpt>
      <trkpt lat="49.67712" lon="4.71013">
        <ele>297</ele>
        <time>2011-05-27T13:52:06Z</time>
      </trkpt>
      <trkpt lat="49.67721" lon="4.71006">
        <ele>296</ele>
        <time>2011-05-27T13:52:07Z</time>
      </trkpt>
      <trkpt lat="49.6773" lon="4.71">
        <ele>296</ele>
        <time>2011-05-27T13:52:08Z</time>
      </trkpt>
      <trkpt lat="49.67741" lon="4.70994">
        <ele>296</ele>
        <time>2011-05-27T13:52:09Z</time>
      </trkpt>
      <trkpt lat="49.67751" lon="4.70986">
        <ele>296</ele>
        <time>2011-05-27T13:52:10Z</time>
      </trkpt>
      <trkpt lat="49.67761" lon="4.70978">
        <ele>296</ele>
        <time>2011-05-27T13:52:11Z</time>
      </trkpt>
      <trkpt lat="49.67773" lon="4.7097">
        <ele>296</ele>
        <time>2011-05-27T13:52:12Z</time>
      </trkpt>
      <trkpt lat="49.67785" lon="4.70964">
        <ele>296</ele>
        <time>2011-05-27T13:52:13Z</time>
      </trkpt>
      <trkpt lat="49.67796" lon="4.70964">
        <ele>296</ele>
        <time>2011-05-27T13:52:14Z</time>
      </trkpt>
      <trkpt lat="49.67807" lon="4.70966">
        <ele>296</ele>
        <time>2011-05-27T13:52:15Z</time>
      </trkpt>
      <trkpt lat="49.67817" lon="4.70969">
        <ele>296</ele>
        <time>2011-05-27T13:52:16Z</time>
      </trkpt>
      <trkpt lat="49.67828" lon="4.70969">
        <ele>296</ele>
        <time>2011-05-27T13:52:17Z</time>
      </trkpt>
      <trkpt lat="49.67839" lon="4.70969">
        <ele>296</ele>
        <time>2011-05-27T13:52:18Z</time>
      </trkpt>
      <trkpt lat="49.6785" lon="4.70967">
        <ele>296</ele>
        <time>2011-05-27T13:52:19Z</time>
      </trkpt>
      <trkpt lat="49.6786" lon="4.70965">
        <ele>296</ele>
        <time>2011-05-27T13:52:20Z</time>
      </trkpt>
      <trkpt lat="49.67871" lon="4.70963">
        <ele>295</ele>
        <time>2011-05-27T13:52:21Z</time>
      </trkpt>
      <trkpt lat="49.67881" lon="4.70962">
        <ele>294</ele>
        <time>2011-05-27T13:52:22Z</time>
      </trkpt>
      <trkpt lat="49.67891" lon="4.70962">
        <ele>293</ele>
        <time>2011-05-27T13:52:23Z</time>
      </trkpt>
      <trkpt lat="49.67902" lon="4.70962">
        <ele>292</ele>
        <time>2011-05-27T13:52:24Z</time>
      </trkpt>
      <trkpt lat="49.67912" lon="4.7096">
        <ele>291</ele>
        <time>2011-05-27T13:52:25Z</time>
      </trkpt>
      <trkpt lat="49.67921" lon="4.70958">
        <ele>291</ele>
        <time>2011-05-27T13:52:26Z</time>
      </trkpt>
      <trkpt lat="49.6793" lon="4.70957">
        <ele>291</ele>
        <time>2011-05-27T13:52:27Z</time>
      </trkpt>
      <trkpt lat="49.67938" lon="4.70955">
        <ele>290</ele>
        <time>2011-05-27T13:52:28Z</time>
      </trkpt>
      <trkpt lat="49.67947" lon="4.70953">
        <ele>290</ele>
        <time>2011-05-27T13:52:29Z</time>
      </trkpt>
      <trkpt lat="49.67953" lon="4.70953">
        <ele>289</ele>
        <time>2011-05-27T13:52:30Z</time>
      </trkpt>
      <trkpt lat="49.67957" lon="4.70953">
        <ele>289</ele>
        <time>2011-05-27T13:52:31Z</time>
      </trkpt>
      <trkpt lat="49.67963" lon="4.70953">
        <ele>288</ele>
        <time>2011-05-27T13:52:32Z</time>
      </trkpt>
      <trkpt lat="49.67969" lon="4.70954">
        <ele>288</ele>
        <time>2011-05-27T13:52:33Z</time>
      </trkpt>
      <trkpt lat="49.67975" lon="4.70957">
        <ele>288</ele>
        <time>2011-05-27T13:52:34Z</time>
      </trkpt>
      <trkpt lat="49.67979" lon="4.70958">
        <ele>288</ele>
        <time>2011-05-27T13:52:35Z</time>
      </trkpt>
      <trkpt lat="49.67983" lon="4.7096">
        <ele>288</ele>
        <time>2011-05-27T13:52:36Z</time>
      </trkpt>
      <trkpt lat="49.67987" lon="4.70961">
        <ele>288</ele>
        <time>2011-05-27T13:52:37Z</time>
      </trkpt>
      <trkpt lat="49.67989" lon="4.70962">
        <ele>288</ele>
        <time>2011-05-27T13:52:38Z</time>
      </trkpt>
      <trkpt lat="49.67993" lon="4.70964">
        <ele>288</ele>
        <time>2011-05-27T13:52:39Z</time>
      </trkpt>
      <trkpt lat="49.67996" lon="4.70964">
        <ele>288</ele>
        <time>2011-05-27T13:52:40Z</time>
      </trkpt>
      <trkpt lat="49.67999" lon="4.70966">
        <ele>288</ele>
        <time>2011-05-27T13:52:41Z</time>
      </trkpt>
      <trkpt lat="49.68002" lon="4.70968">
        <ele>289</ele>
        <time>2011-05-27T13:52:42Z</time>
      </trkpt>
      <trkpt lat="49.68004" lon="4.70969">
        <ele>289</ele>
        <time>2011-05-27T13:52:43Z</time>
      </trkpt>
      <trkpt lat="49.68007" lon="4.7097">
        <ele>290</ele>
        <time>2011-05-27T13:52:44Z</time>
      </trkpt>
      <trkpt lat="49.6801" lon="4.70972">
        <ele>291</ele>
        <time>2011-05-27T13:52:45Z</time>
      </trkpt>
      <trkpt lat="49.68014" lon="4.70973">
        <ele>292</ele>
        <time>2011-05-27T13:52:46Z</time>
      </trkpt>
      <trkpt lat="49.68017" lon="4.70974">
        <ele>293</ele>
        <time>2011-05-27T13:52:47Z</time>
      </trkpt>
      <trkpt lat="49.68019" lon="4.70975">
        <ele>294</ele>
        <time>2011-05-27T13:52:48Z</time>
      </trkpt>
      <trkpt lat="49.68022" lon="4.70977">
        <ele>295</ele>
        <time>2011-05-27T13:52:49Z</time>
      </trkpt>
      <trkpt lat="49.68024" lon="4.70978">
        <ele>295</ele>
        <time>2011-05-27T13:52:50Z</time>
      </trkpt>
      <trkpt lat="49.68027" lon="4.70979">
        <ele>296</ele>
        <time>2011-05-27T13:52:51Z</time>
      </trkpt>
      <trkpt lat="49.68029" lon="4.7098">
        <ele>296</ele>
        <time>2011-05-27T13:52:52Z</time>
      </trkpt>
      <trkpt lat="49.68031" lon="4.70982">
        <ele>296</ele>
        <time>2011-05-27T13:52:53Z</time>
      </trkpt>
      <trkpt lat="49.68033" lon="4.70985">
        <ele>296</ele>
        <time>2011-05-27T13:52:54Z</time>
      </trkpt>
      <trkpt lat="49.68036" lon="4.70986">
        <ele>296</ele>
        <time>2011-05-27T13:52:55Z</time>
      </trkpt>
      <trkpt lat="49.68038" lon="4.70986">
        <ele>297</ele>
        <time>2011-05-27T13:52:56Z</time>
      </trkpt>
      <trkpt lat="49.68041" lon="4.70987">
        <ele>297</ele>
        <time>2011-05-27T13:52:57Z</time>
      </trkpt>
      <trkpt lat="49.68045" lon="4.70987">
        <ele>298</ele>
        <time>2011-05-27T13:52:58Z</time>
      </trkpt>
      <trkpt lat="49.68047" lon="4.70987">
        <ele>298</ele>
        <time>2011-05-27T13:52:59Z</time>
      </trkpt>
      <trkpt lat="49.6805" lon="4.70988">
        <ele>298</ele>
        <time>2011-05-27T13:53:00Z</time>
      </trkpt>
      <trkpt lat="49.68053" lon="4.70988">
        <ele>298</ele>
        <time>2011-05-27T13:53:01Z</time>
      </trkpt>
      <trkpt lat="49.68056" lon="4.70989">
        <ele>298</ele>
        <time>2011-05-27T13:53:02Z</time>
      </trkpt>
      <trkpt lat="49.68059" lon="4.70989">
        <ele>298</ele>
        <time>2011-05-27T13:53:03Z</time>
      </trkpt>
      <trkpt lat="49.68061" lon="4.70989">
        <ele>298</ele>
        <time>2011-05-27T13:53:04Z</time>
      </trkpt>
      <trkpt lat="49.68065" lon="4.70989">
        <ele>298</ele>
        <time>2011-05-27T13:53:05Z</time>
      </trkpt>
      <trkpt lat="49.68068" lon="4.7099">
        <ele>298</ele>
        <time>2011-05-27T13:53:06Z</time>
      </trkpt>
      <trkpt lat="49.68071" lon="4.7099">
        <ele>298</ele>
        <time>2011-05-27T13:53:07Z</time>
      </trkpt>
      <trkpt lat="49.68074" lon="4.7099">
        <ele>298</ele>
        <time>2011-05-27T13:53:08Z</time>
      </trkpt>
      <trkpt lat="49.68077" lon="4.7099">
        <ele>298</ele>
        <time>2011-05-27T13:53:09Z</time>
      </trkpt>
      <trkpt lat="49.68081" lon="4.7099">
        <ele>298</ele>
        <time>2011-05-27T13:53:10Z</time>
      </trkpt>
      <trkpt lat="49.68084" lon="4.70991">
        <ele>298</ele>
        <time>2011-05-27T13:53:11Z</time>
      </trkpt>
      <trkpt lat="49.68088" lon="4.70992">
        <ele>297</ele>
        <time>2011-05-27T13:53:12Z</time>
      </trkpt>
      <trkpt lat="49.68091" lon="4.70993">
        <ele>297</ele>
        <time>2011-05-27T13:53:13Z</time>
      </trkpt>
      <trkpt lat="49.68095" lon="4.70994">
        <ele>297</ele>
        <time>2011-05-27T13:53:14Z</time>
      </trkpt>
      <trkpt lat="49.68099" lon="4.70995">
        <ele>297</ele>
        <time>2011-05-27T13:53:15Z</time>
      </trkpt>
      <trkpt lat="49.68102" lon="4.70995">
        <ele>297</ele>
        <time>2011-05-27T13:53:16Z</time>
      </trkpt>
      <trkpt lat="49.68104" lon="4.70996">
        <ele>297</ele>
        <time>2011-05-27T13:53:17Z</time>
      </trkpt>
      <trkpt lat="49.68108" lon="4.70995">
        <ele>297</ele>
        <time>2011-05-27T13:53:18Z</time>
      </trkpt>
      <trkpt lat="49.68112" lon="4.70995">
        <ele>297</ele>
        <time>2011-05-27T13:53:19Z</time>
      </trkpt>
      <trkpt lat="49.68116" lon="4.70996">
        <ele>296</ele>
        <time>2011-05-27T13:53:20Z</time>
      </trkpt>
      <trkpt lat="49.6812" lon="4.70995">
        <ele>295</ele>
        <time>2011-05-27T13:53:21Z</time>
      </trkpt>
      <trkpt lat="49.68125" lon="4.70995">
        <ele>295</ele>
        <time>2011-05-27T13:53:22Z</time>
      </trkpt>
      <trkpt lat="49.6813" lon="4.70993">
        <ele>294</ele>
        <time>2011-05-27T13:53:23Z</time>
      </trkpt>
      <trkpt lat="49.68135" lon="4.70991">
        <ele>294</ele>
        <time>2011-05-27T13:53:24Z</time>
      </trkpt>
      <trkpt lat="49.68141" lon="4.7099">
        <ele>293</ele>
        <time>2011-05-27T13:53:25Z</time>
      </trkpt>
      <trkpt lat="49.68147" lon="4.70988">
        <ele>293</ele>
        <time>2011-05-27T13:53:26Z</time>
      </trkpt>
      <trkpt lat="49.68153" lon="4.70985">
        <ele>292</ele>
        <time>2011-05-27T13:53:27Z</time>
      </trkpt>
      <trkpt lat="49.68159" lon="4.7098">
        <ele>291</ele>
        <time>2011-05-27T13:53:28Z</time>
      </trkpt>
      <trkpt lat="49.68167" lon="4.70975">
        <ele>290</ele>
        <time>2011-05-27T13:53:29Z</time>
      </trkpt>
      <trkpt lat="49.68175" lon="4.7097">
        <ele>289</ele>
        <time>2011-05-27T13:53:30Z</time>
      </trkpt>
      <trkpt lat="49.68184" lon="4.70967">
        <ele>288</ele>
        <time>2011-05-27T13:53:31Z</time>
      </trkpt>
      <trkpt lat="49.68193" lon="4.70962">
        <ele>287</ele>
        <time>2011-05-27T13:53:32Z</time>
      </trkpt>
      <trkpt lat="49.68203" lon="4.70956">
        <ele>286</ele>
        <time>2011-05-27T13:53:33Z</time>
      </trkpt>
      <trkpt lat="49.68213" lon="4.70952">
        <ele>285</ele>
        <time>2011-05-27T13:53:34Z</time>
      </trkpt>
      <trkpt lat="49.68224" lon="4.70946">
        <ele>284</ele>
        <time>2011-05-27T13:53:35Z</time>
      </trkpt>
      <trkpt lat="49.68237" lon="4.7094">
        <ele>283</ele>
        <time>2011-05-27T13:53:36Z</time>
      </trkpt>
      <trkpt lat="49.68248" lon="4.70934">
        <ele>283</ele>
        <time>2011-05-27T13:53:37Z</time>
      </trkpt>
      <trkpt lat="49.68261" lon="4.70928">
        <ele>283</ele>
        <time>2011-05-27T13:53:38Z</time>
      </trkpt>
      <trkpt lat="49.68272" lon="4.70923">
        <ele>283</ele>
        <time>2011-05-27T13:53:39Z</time>
      </trkpt>
      <trkpt lat="49.68283" lon="4.70915">
        <ele>283</ele>
        <time>2011-05-27T13:53:40Z</time>
      </trkpt>
      <trkpt lat="49.68295" lon="4.70908">
        <ele>283</ele>
        <time>2011-05-27T13:53:41Z</time>
      </trkpt>
      <trkpt lat="49.68306" lon="4.70903">
        <ele>283</ele>
        <time>2011-05-27T13:53:42Z</time>
      </trkpt>
      <trkpt lat="49.68321" lon="4.70896">
        <ele>283</ele>
        <time>2011-05-27T13:53:43Z</time>
      </trkpt>
      <trkpt lat="49.68333" lon="4.70891">
        <ele>283</ele>
        <time>2011-05-27T13:53:44Z</time>
      </trkpt>
      <trkpt lat="49.6834" lon="4.7089">
        <ele>283</ele>
        <time>2011-05-27T13:53:45Z</time>
      </trkpt>
      <trkpt lat="49.68347" lon="4.70892">
        <ele>283</ele>
        <time>2011-05-27T13:53:46Z</time>
      </trkpt>
      <trkpt lat="49.68355" lon="4.70895">
        <ele>283</ele>
        <time>2011-05-27T13:53:47Z</time>
      </trkpt>
      <trkpt lat="49.68362" lon="4.709">
        <ele>283</ele>
        <time>2011-05-27T13:53:48Z</time>
      </trkpt>
      <trkpt lat="49.68369" lon="4.70905">
        <ele>283</ele>
        <time>2011-05-27T13:53:49Z</time>
      </trkpt>
      <trkpt lat="49.68376" lon="4.7091">
        <ele>283</ele>
        <time>2011-05-27T13:53:50Z</time>
      </trkpt>
      <trkpt lat="49.68381" lon="4.70917">
        <ele>283</ele>
        <time>2011-05-27T13:53:51Z</time>
      </trkpt>
      <trkpt lat="49.68385" lon="4.70922">
        <ele>283</ele>
        <time>2011-05-27T13:53:52Z</time>
      </trkpt>
      <trkpt lat="49.6839" lon="4.70928">
        <ele>283</ele>
        <time>2011-05-27T13:53:53Z</time>
      </trkpt>
      <trkpt lat="49.68394" lon="4.70932">
        <ele>283</ele>
        <time>2011-05-27T13:53:54Z</time>
      </trkpt>
      <trkpt lat="49.68398" lon="4.70936">
        <ele>283</ele>
        <time>2011-05-27T13:53:55Z</time>
      </trkpt>
      <trkpt lat="49.68401" lon="4.7094">
        <ele>283</ele>
        <time>2011-05-27T13:53:56Z</time>
      </trkpt>
      <trkpt lat="49.68405" lon="4.70944">
        <ele>283</ele>
        <time>2011-05-27T13:53:57Z</time>
      </trkpt>
      <trkpt lat="49.68408" lon="4.70948">
        <ele>283</ele>
        <time>2011-05-27T13:53:58Z</time>
      </trkpt>
      <trkpt lat="49.68412" lon="4.70951">
        <ele>283</ele>
        <time>2011-05-27T13:53:59Z</time>
      </trkpt>
      <trkpt lat="49.68415" lon="4.70954">
        <ele>283</ele>
        <time>2011-05-27T13:54:00Z</time>
      </trkpt>
      <trkpt lat="49.68418" lon="4.70957">
        <ele>283</ele>
        <time>2011-05-27T13:54:01Z</time>
      </trkpt>
      <trkpt lat="49.68421" lon="4.70961">
        <ele>283</ele>
        <time>2011-05-27T13:54:02Z</time>
      </trkpt>
      <trkpt lat="49.68424" lon="4.70965">
        <ele>283</ele>
        <time>2011-05-27T13:54:03Z</time>
      </trkpt>
      <trkpt lat="49.68427" lon="4.70968">
        <ele>283</ele>
        <time>2011-05-27T13:54:04Z</time>
      </trkpt>
      <trkpt lat="49.6843" lon="4.7097">
        <ele>283</ele>
        <time>2011-05-27T13:54:05Z</time>
      </trkpt>
      <trkpt lat="49.68433" lon="4.70973">
        <ele>283</ele>
        <time>2011-05-27T13:54:06Z</time>
      </trkpt>
      <trkpt lat="49.68436" lon="4.70976">
        <ele>283</ele>
        <time>2011-05-27T13:54:07Z</time>
      </trkpt>
      <trkpt lat="49.68438" lon="4.70979">
        <ele>282</ele>
        <time>2011-05-27T13:54:08Z</time>
      </trkpt>
      <trkpt lat="49.68441" lon="4.70983">
        <ele>282</ele>
        <time>2011-05-27T13:54:09Z</time>
      </trkpt>
      <trkpt lat="49.68443" lon="4.70986">
        <ele>281</ele>
        <time>2011-05-27T13:54:10Z</time>
      </trkpt>
      <trkpt lat="49.68445" lon="4.7099">
        <ele>281</ele>
        <time>2011-05-27T13:54:11Z</time>
      </trkpt>
      <trkpt lat="49.68448" lon="4.70993">
        <ele>281</ele>
        <time>2011-05-27T13:54:12Z</time>
      </trkpt>
      <trkpt lat="49.68451" lon="4.70996">
        <ele>281</ele>
        <time>2011-05-27T13:54:13Z</time>
      </trkpt>
      <trkpt lat="49.68454" lon="4.71">
        <ele>281</ele>
        <time>2011-05-27T13:54:14Z</time>
      </trkpt>
      <trkpt lat="49.68456" lon="4.71003">
        <ele>281</ele>
        <time>2011-05-27T13:54:15Z</time>
      </trkpt>
      <trkpt lat="49.68458" lon="4.71007">
        <ele>281</ele>
        <time>2011-05-27T13:54:16Z</time>
      </trkpt>
      <trkpt lat="49.68461" lon="4.7101">
        <ele>281</ele>
        <time>2011-05-27T13:54:17Z</time>
      </trkpt>
      <trkpt lat="49.68463" lon="4.71014">
        <ele>281</ele>
        <time>2011-05-27T13:54:18Z</time>
      </trkpt>
      <trkpt lat="49.68465" lon="4.71018">
        <ele>281</ele>
        <time>2011-05-27T13:54:19Z</time>
      </trkpt>
      <trkpt lat="49.68467" lon="4.71021">
        <ele>281</ele>
        <time>2011-05-27T13:54:20Z</time>
      </trkpt>
      <trkpt lat="49.68468" lon="4.71024">
        <ele>281</ele>
        <time>2011-05-27T13:54:21Z</time>
      </trkpt>
      <trkpt lat="49.68471" lon="4.71028">
        <ele>281</ele>
        <time>2011-05-27T13:54:22Z</time>
      </trkpt>
      <trkpt lat="49.68473" lon="4.71032">
        <ele>281</ele>
        <time>2011-05-27T13:54:23Z</time>
      </trkpt>
      <trkpt lat="49.68476" lon="4.71035">
        <ele>281</ele>
        <time>2011-05-27T13:54:24Z</time>
      </trkpt>
      <trkpt lat="49.68479" lon="4.71038">
        <ele>281</ele>
        <time>2011-05-27T13:54:25Z</time>
      </trkpt>
      <trkpt lat="49.68482" lon="4.71041">
        <ele>280</ele>
        <time>2011-05-27T13:54:26Z</time>
      </trkpt>
      <trkpt lat="49.68484" lon="4.71045">
        <ele>280</ele>
        <time>2011-05-27T13:54:27Z</time>
      </trkpt>
      <trkpt lat="49.68487" lon="4.71051">
        <ele>280</ele>
        <time>2011-05-27T13:54:28Z</time>
      </trkpt>
      <trkpt lat="49.6849" lon="4.71054">
        <ele>280</ele>
        <time>2011-05-27T13:54:29Z</time>
      </trkpt>
      <trkpt lat="49.68493" lon="4.71058">
        <ele>280</ele>
        <time>2011-05-27T13:54:30Z</time>
      </trkpt>
      <trkpt lat="49.68495" lon="4.71062">
        <ele>280</ele>
        <time>2011-05-27T13:54:31Z</time>
      </trkpt>
      <trkpt lat="49.68498" lon="4.71066">
        <ele>280</ele>
        <time>2011-05-27T13:54:32Z</time>
      </trkpt>
      <trkpt lat="49.68501" lon="4.71069">
        <ele>280</ele>
        <time>2011-05-27T13:54:33Z</time>
      </trkpt>
      <trkpt lat="49.68503" lon="4.71073">
        <ele>280</ele>
        <time>2011-05-27T13:54:34Z</time>
      </trkpt>
      <trkpt lat="49.68506" lon="4.71076">
        <ele>280</ele>
        <time>2011-05-27T13:54:35Z</time>
      </trkpt>
      <trkpt lat="49.68508" lon="4.7108">
        <ele>280</ele>
        <time>2011-05-27T13:54:36Z</time>
      </trkpt>
      <trkpt lat="49.6851" lon="4.71084">
        <ele>279</ele>
        <time>2011-05-27T13:54:37Z</time>
      </trkpt>
      <trkpt lat="49.68512" lon="4.71088">
        <ele>279</ele>
        <time>2011-05-27T13:54:38Z</time>
      </trkpt>
      <trkpt lat="49.68515" lon="4.71092">
        <ele>278</ele>
        <time>2011-05-27T13:54:39Z</time>
      </trkpt>
      <trkpt lat="49.68518" lon="4.71096">
        <ele>277</ele>
        <time>2011-05-27T13:54:40Z</time>
      </trkpt>
      <trkpt lat="49.6852" lon="4.711">
        <ele>277</ele>
        <time>2011-05-27T13:54:41Z</time>
      </trkpt>
      <trkpt lat="49.68523" lon="4.71104">
        <ele>276</ele>
        <time>2011-05-27T13:54:42Z</time>
      </trkpt>
      <trkpt lat="49.68525" lon="4.71107">
        <ele>276</ele>
        <time>2011-05-27T13:54:43Z</time>
      </trkpt>
      <trkpt lat="49.68528" lon="4.71111">
        <ele>275</ele>
        <time>2011-05-27T13:54:44Z</time>
      </trkpt>
      <trkpt lat="49.6853" lon="4.71114">
        <ele>275</ele>
        <time>2011-05-27T13:54:45Z</time>
      </trkpt>
      <trkpt lat="49.68533" lon="4.71117">
        <ele>275</ele>
        <time>2011-05-27T13:54:46Z</time>
      </trkpt>
      <trkpt lat="49.68535" lon="4.71122">
        <ele>274</ele>
        <time>2011-05-27T13:54:47Z</time>
      </trkpt>
      <trkpt lat="49.68538" lon="4.71127">
        <ele>274</ele>
        <time>2011-05-27T13:54:48Z</time>
      </trkpt>
      <trkpt lat="49.68541" lon="4.71131">
        <ele>274</ele>
        <time>2011-05-27T13:54:49Z</time>
      </trkpt>
      <trkpt lat="49.68543" lon="4.71134">
        <ele>274</ele>
        <time>2011-05-27T13:54:50Z</time>
      </trkpt>
      <trkpt lat="49.68545" lon="4.71138">
        <ele>274</ele>
        <time>2011-05-27T13:54:51Z</time>
      </trkpt>
      <trkpt lat="49.68548" lon="4.71142">
        <ele>274</ele>
        <time>2011-05-27T13:54:52Z</time>
      </trkpt>
      <trkpt lat="49.6855" lon="4.71145">
        <ele>274</ele>
        <time>2011-05-27T13:54:53Z</time>
      </trkpt>
      <trkpt lat="49.68552" lon="4.7115">
        <ele>274</ele>
        <time>2011-05-27T13:54:54Z</time>
      </trkpt>
      <trkpt lat="49.68553" lon="4.71156">
        <ele>274</ele>
        <time>2011-05-27T13:54:55Z</time>
      </trkpt>
      <trkpt lat="49.68553" lon="4.71161">
        <ele>273</ele>
        <time>2011-05-27T13:54:56Z</time>
      </trkpt>
      <trkpt lat="49.68553" lon="4.71165">
        <ele>273</ele>
        <time>2011-05-27T13:54:57Z</time>
      </trkpt>
      <trkpt lat="49.68552" lon="4.7117">
        <ele>272</ele>
        <time>2011-05-27T13:54:58Z</time>
      </trkpt>
      <trkpt lat="49.68551" lon="4.71176">
        <ele>272</ele>
        <time>2011-05-27T13:54:59Z</time>
      </trkpt>
      <trkpt lat="49.6855" lon="4.71181">
        <ele>272</ele>
        <time>2011-05-27T13:55:00Z</time>
      </trkpt>
      <trkpt lat="49.68549" lon="4.71187">
        <ele>272</ele>
        <time>2011-05-27T13:55:01Z</time>
      </trkpt>
      <trkpt lat="49.68547" lon="4.71193">
        <ele>272</ele>
        <time>2011-05-27T13:55:02Z</time>
      </trkpt>
      <trkpt lat="49.68545" lon="4.71201">
        <ele>272</ele>
        <time>2011-05-27T13:55:03Z</time>
      </trkpt>
      <trkpt lat="49.68543" lon="4.71207">
        <ele>272</ele>
        <time>2011-05-27T13:55:04Z</time>
      </trkpt>
      <trkpt lat="49.68541" lon="4.71214">
        <ele>273</ele>
        <time>2011-05-27T13:55:05Z</time>
      </trkpt>
      <trkpt lat="49.68538" lon="4.71221">
        <ele>274</ele>
        <time>2011-05-27T13:55:06Z</time>
      </trkpt>
      <trkpt lat="49.68535" lon="4.71228">
        <ele>274</ele>
        <time>2011-05-27T13:55:07Z</time>
      </trkpt>
      <trkpt lat="49.68533" lon="4.71236">
        <ele>274</ele>
        <time>2011-05-27T13:55:08Z</time>
      </trkpt>
      <trkpt lat="49.68531" lon="4.71245">
        <ele>274</ele>
        <time>2011-05-27T13:55:09Z</time>
      </trkpt>
      <trkpt lat="49.68529" lon="4.71253">
        <ele>274</ele>
        <time>2011-05-27T13:55:10Z</time>
      </trkpt>
      <trkpt lat="49.68528" lon="4.71262">
        <ele>274</ele>
        <time>2011-05-27T13:55:11Z</time>
      </trkpt>
      <trkpt lat="49.68527" lon="4.7127">
        <ele>274</ele>
        <time>2011-05-27T13:55:12Z</time>
      </trkpt>
      <trkpt lat="49.6853" lon="4.7128">
        <ele>274</ele>
        <time>2011-05-27T13:55:13Z</time>
      </trkpt>
      <trkpt lat="49.68531" lon="4.71288">
        <ele>274</ele>
        <time>2011-05-27T13:55:14Z</time>
      </trkpt>
      <trkpt lat="49.6853" lon="4.71295">
        <ele>274</ele>
        <time>2011-05-27T13:55:15Z</time>
      </trkpt>
      <trkpt lat="49.6853" lon="4.71303">
        <ele>274</ele>
        <time>2011-05-27T13:55:16Z</time>
      </trkpt>
      <trkpt lat="49.6853" lon="4.7131">
        <ele>274</ele>
        <time>2011-05-27T13:55:17Z</time>
      </trkpt>
      <trkpt lat="49.68531" lon="4.71317">
        <ele>274</ele>
        <time>2011-05-27T13:55:18Z</time>
      </trkpt>
      <trkpt lat="49.68531" lon="4.71326">
        <ele>274</ele>
        <time>2011-05-27T13:55:19Z</time>
      </trkpt>
      <trkpt lat="49.68532" lon="4.71335">
        <ele>274</ele>
        <time>2011-05-27T13:55:20Z</time>
      </trkpt>
      <trkpt lat="49.68533" lon="4.71343">
        <ele>273</ele>
        <time>2011-05-27T13:55:21Z</time>
      </trkpt>
      <trkpt lat="49.68534" lon="4.71352">
        <ele>273</ele>
        <time>2011-05-27T13:55:22Z</time>
      </trkpt>
      <trkpt lat="49.68535" lon="4.71359">
        <ele>273</ele>
        <time>2011-05-27T13:55:23Z</time>
      </trkpt>
      <trkpt lat="49.68536" lon="4.71366">
        <ele>273</ele>
        <time>2011-05-27T13:55:24Z</time>
      </trkpt>
      <trkpt lat="49.68536" lon="4.71373">
        <ele>272</ele>
        <time>2011-05-27T13:55:25Z</time>
      </trkpt>
      <trkpt lat="49.68537" lon="4.7138">
        <ele>271</ele>
        <time>2011-05-27T13:55:26Z</time>
      </trkpt>
      <trkpt lat="49.68538" lon="4.71387">
        <ele>270</ele>
        <time>2011-05-27T13:55:27Z</time>
      </trkpt>
      <trkpt lat="49.68538" lon="4.71394">
        <ele>269</ele>
        <time>2011-05-27T13:55:28Z</time>
      </trkpt>
      <trkpt lat="49.68537" lon="4.714">
        <ele>269</ele>
        <time>2011-05-27T13:55:29Z</time>
      </trkpt>
      <trkpt lat="49.68536" lon="4.71409">
        <ele>268</ele>
        <time>2011-05-27T13:55:30Z</time>
      </trkpt>
      <trkpt lat="49.68534" lon="4.71416">
        <ele>268</ele>
        <time>2011-05-27T13:55:31Z</time>
      </trkpt>
      <trkpt lat="49.68533" lon="4.71423">
        <ele>268</ele>
        <time>2011-05-27T13:55:32Z</time>
      </trkpt>
      <trkpt lat="49.68533" lon="4.7143">
        <ele>268</ele>
        <time>2011-05-27T13:55:33Z</time>
      </trkpt>
      <trkpt lat="49.68532" lon="4.71438">
        <ele>268</ele>
        <time>2011-05-27T13:55:34Z</time>
      </trkpt>
      <trkpt lat="49.68531" lon="4.71447">
        <ele>268</ele>
        <time>2011-05-27T13:55:35Z</time>
      </trkpt>
      <trkpt lat="49.68532" lon="4.71456">
        <ele>268</ele>
        <time>2011-05-27T13:55:36Z</time>
      </trkpt>
      <trkpt lat="49.68531" lon="4.71465">
        <ele>268</ele>
        <time>2011-05-27T13:55:37Z</time>
      </trkpt>
      <trkpt lat="49.68531" lon="4.71472">
        <ele>268</ele>
        <time>2011-05-27T13:55:38Z</time>
      </trkpt>
      <trkpt lat="49.68531" lon="4.71479">
        <ele>269</ele>
        <time>2011-05-27T13:55:39Z</time>
      </trkpt>
      <trkpt lat="49.6853" lon="4.71486">
        <ele>270</ele>
        <time>2011-05-27T13:55:40Z</time>
      </trkpt>
      <trkpt lat="49.68529" lon="4.71492">
        <ele>271</ele>
        <time>2011-05-27T13:55:41Z</time>
      </trkpt>
      <trkpt lat="49.6853" lon="4.71499">
        <ele>272</ele>
        <time>2011-05-27T13:55:42Z</time>
      </trkpt>
      <trkpt lat="49.68532" lon="4.71508">
        <ele>273</ele>
        <time>2011-05-27T13:55:43Z</time>
      </trkpt>
      <trkpt lat="49.68531" lon="4.71516">
        <ele>274</ele>
        <time>2011-05-27T13:55:44Z</time>
      </trkpt>
      <trkpt lat="49.68532" lon="4.71522">
        <ele>274</ele>
        <time>2011-05-27T13:55:45Z</time>
      </trkpt>
      <trkpt lat="49.68533" lon="4.71529">
        <ele>274</ele>
        <time>2011-05-27T13:55:46Z</time>
      </trkpt>
      <trkpt lat="49.68533" lon="4.71535">
        <ele>274</ele>
        <time>2011-05-27T13:55:47Z</time>
      </trkpt>
      <trkpt lat="49.68533" lon="4.71541">
        <ele>274</ele>
        <time>2011-05-27T13:55:48Z</time>
      </trkpt>
      <trkpt lat="49.68533" lon="4.71547">
        <ele>274</ele>
        <time>2011-05-27T13:55:49Z</time>
      </trkpt>
      <trkpt lat="49.68533" lon="4.71553">
        <ele>274</ele>
        <time>2011-05-27T13:55:50Z</time>
      </trkpt>
      <trkpt lat="49.68533" lon="4.71559">
        <ele>274</ele>
        <time>2011-05-27T13:55:51Z</time>
      </trkpt>
      <trkpt lat="49.68533" lon="4.71565">
        <ele>274</ele>
        <time>2011-05-27T13:55:52Z</time>
      </trkpt>
      <trkpt lat="49.68533" lon="4.71571">
        <ele>274</ele>
        <time>2011-05-27T13:55:53Z</time>
      </trkpt>
      <trkpt lat="49.68534" lon="4.71578">
        <ele>274</ele>
        <time>2011-05-27T13:55:54Z</time>
      </trkpt>
      <trkpt lat="49.68534" lon="4.71584">
        <ele>274</ele>
        <time>2011-05-27T13:55:55Z</time>
      </trkpt>
      <trkpt lat="49.68535" lon="4.7159">
        <ele>274</ele>
        <time>2011-05-27T13:55:56Z</time>
      </trkpt>
      <trkpt lat="49.68536" lon="4.71596">
        <ele>274</ele>
        <time>2011-05-27T13:55:57Z</time>
      </trkpt>
      <trkpt lat="49.68537" lon="4.71602">
        <ele>274</ele>
        <time>2011-05-27T13:55:58Z</time>
      </trkpt>
      <trkpt lat="49.68538" lon="4.71609">
        <ele>274</ele>
        <time>2011-05-27T13:55:59Z</time>
      </trkpt>
      <trkpt lat="49.68539" lon="4.71615">
        <ele>274</ele>
        <time>2011-05-27T13:56:00Z</time>
      </trkpt>
      <trkpt lat="49.68539" lon="4.71621">
        <ele>274</ele>
        <time>2011-05-27T13:56:01Z</time>
      </trkpt>
      <trkpt lat="49.68539" lon="4.71626">
        <ele>274</ele>
        <time>2011-05-27T13:56:02Z</time>
      </trkpt>
      <trkpt lat="49.6854" lon="4.71632">
        <ele>274</ele>
        <time>2011-05-27T13:56:03Z</time>
      </trkpt>
      <trkpt lat="49.68541" lon="4.71639">
        <ele>274</ele>
        <time>2011-05-27T13:56:04Z</time>
      </trkpt>
      <trkpt lat="49.68541" lon="4.71646">
        <ele>274</ele>
        <time>2011-05-27T13:56:05Z</time>
      </trkpt>
      <trkpt lat="49.68541" lon="4.71653">
        <ele>274</ele>
        <time>2011-05-27T13:56:06Z</time>
      </trkpt>
      <trkpt lat="49.68541" lon="4.71659">
        <ele>274</ele>
        <time>2011-05-27T13:56:07Z</time>
      </trkpt>
      <trkpt lat="49.68542" lon="4.71665">
        <ele>274</ele>
        <time>2011-05-27T13:56:08Z</time>
      </trkpt>
      <trkpt lat="49.68542" lon="4.71671">
        <ele>274</ele>
        <time>2011-05-27T13:56:09Z</time>
      </trkpt>
      <trkpt lat="49.68544" lon="4.71677">
        <ele>274</ele>
        <time>2011-05-27T13:56:10Z</time>
      </trkpt>
      <trkpt lat="49.68544" lon="4.71683">
        <ele>274</ele>
        <time>2011-05-27T13:56:11Z</time>
      </trkpt>
      <trkpt lat="49.68545" lon="4.71689">
        <ele>274</ele>
        <time>2011-05-27T13:56:12Z</time>
      </trkpt>
      <trkpt lat="49.68546" lon="4.71695">
        <ele>274</ele>
        <time>2011-05-27T13:56:13Z</time>
      </trkpt>
      <trkpt lat="49.68546" lon="4.717">
        <ele>274</ele>
        <time>2011-05-27T13:56:14Z</time>
      </trkpt>
      <trkpt lat="49.68545" lon="4.71704">
        <ele>274</ele>
        <time>2011-05-27T13:56:15Z</time>
      </trkpt>
      <trkpt lat="49.68544" lon="4.71709">
        <ele>274</ele>
        <time>2011-05-27T13:56:16Z</time>
      </trkpt>
      <trkpt lat="49.68544" lon="4.71714">
        <ele>274</ele>
        <time>2011-05-27T13:56:17Z</time>
      </trkpt>
      <trkpt lat="49.68545" lon="4.71719">
        <ele>274</ele>
        <time>2011-05-27T13:56:18Z</time>
      </trkpt>
      <trkpt lat="49.68545" lon="4.71724">
        <ele>274</ele>
        <time>2011-05-27T13:56:19Z</time>
      </trkpt>
      <trkpt lat="49.68546" lon="4.7173">
        <ele>274</ele>
        <time>2011-05-27T13:56:20Z</time>
      </trkpt>
      <trkpt lat="49.68546" lon="4.71734">
        <ele>274</ele>
        <time>2011-05-27T13:56:21Z</time>
      </trkpt>
      <trkpt lat="49.68547" lon="4.7174">
        <ele>274</ele>
        <time>2011-05-27T13:56:22Z</time>
      </trkpt>
      <trkpt lat="49.68547" lon="4.71745">
        <ele>274</ele>
        <time>2011-05-27T13:56:23Z</time>
      </trkpt>
      <trkpt lat="49.68548" lon="4.71751">
        <ele>274</ele>
        <time>2011-05-27T13:56:24Z</time>
      </trkpt>
      <trkpt lat="49.68549" lon="4.71756">
        <ele>274</ele>
        <time>2011-05-27T13:56:25Z</time>
      </trkpt>
      <trkpt lat="49.6855" lon="4.71762">
        <ele>274</ele>
        <time>2011-05-27T13:56:26Z</time>
      </trkpt>
      <trkpt lat="49.6855" lon="4.71768">
        <ele>274</ele>
        <time>2011-05-27T13:56:27Z</time>
      </trkpt>
      <trkpt lat="49.68551" lon="4.71773">
        <ele>274</ele>
        <time>2011-05-27T13:56:28Z</time>
      </trkpt>
      <trkpt lat="49.68552" lon="4.71778">
        <ele>274</ele>
        <time>2011-05-27T13:56:29Z</time>
      </trkpt>
      <trkpt lat="49.68552" lon="4.71782">
        <ele>274</ele>
        <time>2011-05-27T13:56:30Z</time>
      </trkpt>
      <trkpt lat="49.68552" lon="4.71788">
        <ele>274</ele>
        <time>2011-05-27T13:56:31Z</time>
      </trkpt>
      <trkpt lat="49.68552" lon="4.71792">
        <ele>274</ele>
        <time>2011-05-27T13:56:32Z</time>
      </trkpt>
      <trkpt lat="49.68552" lon="4.71797">
        <ele>274</ele>
        <time>2011-05-27T13:56:33Z</time>
      </trkpt>
      <trkpt lat="49.68554" lon="4.71804">
        <ele>274</ele>
        <time>2011-05-27T13:56:34Z</time>
      </trkpt>
      <trkpt lat="49.68554" lon="4.71809">
        <ele>274</ele>
        <time>2011-05-27T13:56:35Z</time>
      </trkpt>
      <trkpt lat="49.68555" lon="4.71815">
        <ele>274</ele>
        <time>2011-05-27T13:56:36Z</time>
      </trkpt>
      <trkpt lat="49.68556" lon="4.71819">
        <ele>274</ele>
        <time>2011-05-27T13:56:37Z</time>
      </trkpt>
      <trkpt lat="49.68557" lon="4.71824">
        <ele>274</ele>
        <time>2011-05-27T13:56:38Z</time>
      </trkpt>
      <trkpt lat="49.68557" lon="4.7183">
        <ele>274</ele>
        <time>2011-05-27T13:56:39Z</time>
      </trkpt>
      <trkpt lat="49.68559" lon="4.71836">
        <ele>274</ele>
        <time>2011-05-27T13:56:40Z</time>
      </trkpt>
      <trkpt lat="49.6856" lon="4.71841">
        <ele>274</ele>
        <time>2011-05-27T13:56:41Z</time>
      </trkpt>
      <trkpt lat="49.68561" lon="4.71846">
        <ele>274</ele>
        <time>2011-05-27T13:56:42Z</time>
      </trkpt>
      <trkpt lat="49.68562" lon="4.71852">
        <ele>274</ele>
        <time>2011-05-27T13:56:43Z</time>
      </trkpt>
      <trkpt lat="49.68564" lon="4.71858">
        <ele>274</ele>
        <time>2011-05-27T13:56:44Z</time>
      </trkpt>
      <trkpt lat="49.68565" lon="4.71864">
        <ele>274</ele>
        <time>2011-05-27T13:56:45Z</time>
      </trkpt>
      <trkpt lat="49.68568" lon="4.71869">
        <ele>274</ele>
        <time>2011-05-27T13:56:46Z</time>
      </trkpt>
      <trkpt lat="49.68569" lon="4.71873">
        <ele>274</ele>
        <time>2011-05-27T13:56:47Z</time>
      </trkpt>
      <trkpt lat="49.68571" lon="4.71877">
        <ele>274</ele>
        <time>2011-05-27T13:56:48Z</time>
      </trkpt>
      <trkpt lat="49.68573" lon="4.71881">
        <ele>274</ele>
        <time>2011-05-27T13:56:49Z</time>
      </trkpt>
      <trkpt lat="49.68574" lon="4.71885">
        <ele>274</ele>
        <time>2011-05-27T13:56:50Z</time>
      </trkpt>
      <trkpt lat="49.68576" lon="4.71889">
        <ele>274</ele>
        <time>2011-05-27T13:56:51Z</time>
      </trkpt>
      <trkpt lat="49.68578" lon="4.71893">
        <ele>274</ele>
        <time>2011-05-27T13:56:52Z</time>
      </trkpt>
      <trkpt lat="49.6858" lon="4.71897">
        <ele>274</ele>
        <time>2011-05-27T13:56:53Z</time>
      </trkpt>
      <trkpt lat="49.68583" lon="4.71901">
        <ele>274</ele>
        <time>2011-05-27T13:56:54Z</time>
      </trkpt>
      <trkpt lat="49.68586" lon="4.71906">
        <ele>274</ele>
        <time>2011-05-27T13:56:55Z</time>
      </trkpt>
      <trkpt lat="49.68588" lon="4.71909">
        <ele>273</ele>
        <time>2011-05-27T13:56:56Z</time>
      </trkpt>
      <trkpt lat="49.68591" lon="4.71913">
        <ele>272</ele>
        <time>2011-05-27T13:56:57Z</time>
      </trkpt>
      <trkpt lat="49.68593" lon="4.71917">
        <ele>272</ele>
        <time>2011-05-27T13:56:58Z</time>
      </trkpt>
      <trkpt lat="49.68595" lon="4.71921">
        <ele>271</ele>
        <time>2011-05-27T13:56:59Z</time>
      </trkpt>
      <trkpt lat="49.68597" lon="4.71925">
        <ele>270</ele>
        <time>2011-05-27T13:57:00Z</time>
      </trkpt>
      <trkpt lat="49.68598" lon="4.71928">
        <ele>270</ele>
        <time>2011-05-27T13:57:01Z</time>
      </trkpt>
      <trkpt lat="49.686" lon="4.71932">
        <ele>270</ele>
        <time>2011-05-27T13:57:02Z</time>
      </trkpt>
      <trkpt lat="49.68603" lon="4.71935">
        <ele>270</ele>
        <time>2011-05-27T13:57:03Z</time>
      </trkpt>
      <trkpt lat="49.68606" lon="4.71939">
        <ele>270</ele>
        <time>2011-05-27T13:57:04Z</time>
      </trkpt>
      <trkpt lat="49.6861" lon="4.71943">
        <ele>270</ele>
        <time>2011-05-27T13:57:05Z</time>
      </trkpt>
      <trkpt lat="49.68613" lon="4.71947">
        <ele>270</ele>
        <time>2011-05-27T13:57:06Z</time>
      </trkpt>
      <trkpt lat="49.68616" lon="4.7195">
        <ele>270</ele>
        <time>2011-05-27T13:57:07Z</time>
      </trkpt>
      <trkpt lat="49.68618" lon="4.71954">
        <ele>270</ele>
        <time>2011-05-27T13:57:08Z</time>
      </trkpt>
      <trkpt lat="49.68621" lon="4.71958">
        <ele>270</ele>
        <time>2011-05-27T13:57:09Z</time>
      </trkpt>
      <trkpt lat="49.68624" lon="4.71961">
        <ele>270</ele>
        <time>2011-05-27T13:57:10Z</time>
      </trkpt>
      <trkpt lat="49.68626" lon="4.71965">
        <ele>270</ele>
        <time>2011-05-27T13:57:11Z</time>
      </trkpt>
      <trkpt lat="49.68629" lon="4.71969">
        <ele>270</ele>
        <time>2011-05-27T13:57:12Z</time>
      </trkpt>
      <trkpt lat="49.68632" lon="4.71973">
        <ele>270</ele>
        <time>2011-05-27T13:57:13Z</time>
      </trkpt>
      <trkpt lat="49.68635" lon="4.71977">
        <ele>270</ele>
        <time>2011-05-27T13:57:14Z</time>
      </trkpt>
      <trkpt lat="49.68637" lon="4.71981">
        <ele>270</ele>
        <time>2011-05-27T13:57:15Z</time>
      </trkpt>
      <trkpt lat="49.6864" lon="4.71984">
        <ele>270</ele>
        <time>2011-05-27T13:57:16Z</time>
      </trkpt>
      <trkpt lat="49.68642" lon="4.71988">
        <ele>270</ele>
        <time>2011-05-27T13:57:17Z</time>
      </trkpt>
      <trkpt lat="49.68645" lon="4.71993">
        <ele>270</ele>
        <time>2011-05-27T13:57:18Z</time>
      </trkpt>
      <trkpt lat="49.68648" lon="4.71997">
        <ele>270</ele>
        <time>2011-05-27T13:57:19Z</time>
      </trkpt>
      <trkpt lat="49.6865" lon="4.72002">
        <ele>270</ele>
        <time>2011-05-27T13:57:20Z</time>
      </trkpt>
      <trkpt lat="49.68653" lon="4.72006">
        <ele>270</ele>
        <time>2011-05-27T13:57:21Z</time>
      </trkpt>
      <trkpt lat="49.68656" lon="4.72011">
        <ele>270</ele>
        <time>2011-05-27T13:57:22Z</time>
      </trkpt>
      <trkpt lat="49.68659" lon="4.72015">
        <ele>270</ele>
        <time>2011-05-27T13:57:23Z</time>
      </trkpt>
      <trkpt lat="49.68661" lon="4.72019">
        <ele>270</ele>
        <time>2011-05-27T13:57:24Z</time>
      </trkpt>
      <trkpt lat="49.68664" lon="4.72023">
        <ele>270</ele>
        <time>2011-05-27T13:57:25Z</time>
      </trkpt>
      <trkpt lat="49.68668" lon="4.72027">
        <ele>270</ele>
        <time>2011-05-27T13:57:26Z</time>
      </trkpt>
      <trkpt lat="49.68671" lon="4.7203">
        <ele>270</ele>
        <time>2011-05-27T13:57:27Z</time>
      </trkpt>
      <trkpt lat="49.68674" lon="4.72034">
        <ele>270</ele>
        <time>2011-05-27T13:57:28Z</time>
      </trkpt>
      <trkpt lat="49.68677" lon="4.72037">
        <ele>271</ele>
        <time>2011-05-27T13:57:29Z</time>
      </trkpt>
      <trkpt lat="49.6868" lon="4.72041">
        <ele>272</ele>
        <time>2011-05-27T13:57:30Z</time>
      </trkpt>
      <trkpt lat="49.68682" lon="4.72044">
        <ele>273</ele>
        <time>2011-05-27T13:57:31Z</time>
      </trkpt>
      <trkpt lat="49.68684" lon="4.72048">
        <ele>273</ele>
        <time>2011-05-27T13:57:32Z</time>
      </trkpt>
      <trkpt lat="49.68687" lon="4.72052">
        <ele>273</ele>
        <time>2011-05-27T13:57:33Z</time>
      </trkpt>
      <trkpt lat="49.68689" lon="4.72057">
        <ele>273</ele>
        <time>2011-05-27T13:57:34Z</time>
      </trkpt>
      <trkpt lat="49.68691" lon="4.72061">
        <ele>273</ele>
        <time>2011-05-27T13:57:35Z</time>
      </trkpt>
      <trkpt lat="49.68694" lon="4.72066">
        <ele>273</ele>
        <time>2011-05-27T13:57:36Z</time>
      </trkpt>
      <trkpt lat="49.68696" lon="4.72071">
        <ele>273</ele>
        <time>2011-05-27T13:57:37Z</time>
      </trkpt>
      <trkpt lat="49.68699" lon="4.72076">
        <ele>273</ele>
        <time>2011-05-27T13:57:38Z</time>
      </trkpt>
      <trkpt lat="49.68702" lon="4.72081">
        <ele>273</ele>
        <time>2011-05-27T13:57:39Z</time>
      </trkpt>
      <trkpt lat="49.68704" lon="4.72086">
        <ele>273</ele>
        <time>2011-05-27T13:57:40Z</time>
      </trkpt>
      <trkpt lat="49.68706" lon="4.7209">
        <ele>273</ele>
        <time>2011-05-27T13:57:41Z</time>
      </trkpt>
      <trkpt lat="49.68709" lon="4.72095">
        <ele>273</ele>
        <time>2011-05-27T13:57:42Z</time>
      </trkpt>
      <trkpt lat="49.68711" lon="4.72101">
        <ele>273</ele>
        <time>2011-05-27T13:57:43Z</time>
      </trkpt>
      <trkpt lat="49.68714" lon="4.72107">
        <ele>273</ele>
        <time>2011-05-27T13:57:44Z</time>
      </trkpt>
      <trkpt lat="49.68717" lon="4.72112">
        <ele>273</ele>
        <time>2011-05-27T13:57:45Z</time>
      </trkpt>
      <trkpt lat="49.68721" lon="4.72117">
        <ele>273</ele>
        <time>2011-05-27T13:57:46Z</time>
      </trkpt>
      <trkpt lat="49.68724" lon="4.72122">
        <ele>273</ele>
        <time>2011-05-27T13:57:47Z</time>
      </trkpt>
      <trkpt lat="49.68727" lon="4.72128">
        <ele>273</ele>
        <time>2011-05-27T13:57:48Z</time>
      </trkpt>
      <trkpt lat="49.68732" lon="4.72135">
        <ele>273</ele>
        <time>2011-05-27T13:57:49Z</time>
      </trkpt>
      <trkpt lat="49.68736" lon="4.72142">
        <ele>273</ele>
        <time>2011-05-27T13:57:50Z</time>
      </trkpt>
      <trkpt lat="49.6874" lon="4.72149">
        <ele>273</ele>
        <time>2011-05-27T13:57:51Z</time>
      </trkpt>
      <trkpt lat="49.68744" lon="4.72156">
        <ele>273</ele>
        <time>2011-05-27T13:57:52Z</time>
      </trkpt>
      <trkpt lat="49.68748" lon="4.72164">
        <ele>273</ele>
        <time>2011-05-27T13:57:53Z</time>
      </trkpt>
      <trkpt lat="49.68753" lon="4.72171">
        <ele>273</ele>
        <time>2011-05-27T13:57:54Z</time>
      </trkpt>
      <trkpt lat="49.68759" lon="4.72179">
        <ele>273</ele>
        <time>2011-05-27T13:57:55Z</time>
      </trkpt>
      <trkpt lat="49.68764" lon="4.72186">
        <ele>273</ele>
        <time>2011-05-27T13:57:56Z</time>
      </trkpt>
      <trkpt lat="49.68769" lon="4.72193">
        <ele>273</ele>
        <time>2011-05-27T13:57:57Z</time>
      </trkpt>
      <trkpt lat="49.68776" lon="4.72199">
        <ele>273</ele>
        <time>2011-05-27T13:57:58Z</time>
      </trkpt>
      <trkpt lat="49.68781" lon="4.72203">
        <ele>273</ele>
        <time>2011-05-27T13:57:59Z</time>
      </trkpt>
      <trkpt lat="49.68787" lon="4.72207">
        <ele>273</ele>
        <time>2011-05-27T13:58:00Z</time>
      </trkpt>
      <trkpt lat="49.68793" lon="4.7221">
        <ele>272</ele>
        <time>2011-05-27T13:58:01Z</time>
      </trkpt>
      <trkpt lat="49.68797" lon="4.72214">
        <ele>271</ele>
        <time>2011-05-27T13:58:02Z</time>
      </trkpt>
      <trkpt lat="49.68802" lon="4.72218">
        <ele>270</ele>
        <time>2011-05-27T13:58:03Z</time>
      </trkpt>
      <trkpt lat="49.68808" lon="4.72221">
        <ele>269</ele>
        <time>2011-05-27T13:58:04Z</time>
      </trkpt>
      <trkpt lat="49.68812" lon="4.72225">
        <ele>268</ele>
        <time>2011-05-27T13:58:05Z</time>
      </trkpt>
      <trkpt lat="49.68816" lon="4.7223">
        <ele>268</ele>
        <time>2011-05-27T13:58:06Z</time>
      </trkpt>
      <trkpt lat="49.68821" lon="4.72235">
        <ele>268</ele>
        <time>2011-05-27T13:58:07Z</time>
      </trkpt>
      <trkpt lat="49.68827" lon="4.72238">
        <ele>267</ele>
        <time>2011-05-27T13:58:08Z</time>
      </trkpt>
      <trkpt lat="49.68834" lon="4.72241">
        <ele>267</ele>
        <time>2011-05-27T13:58:09Z</time>
      </trkpt>
      <trkpt lat="49.68842" lon="4.72243">
        <ele>266</ele>
        <time>2011-05-27T13:58:10Z</time>
      </trkpt>
      <trkpt lat="49.68849" lon="4.72246">
        <ele>265</ele>
        <time>2011-05-27T13:58:11Z</time>
      </trkpt>
      <trkpt lat="49.68856" lon="4.72251">
        <ele>264</ele>
        <time>2011-05-27T13:58:12Z</time>
      </trkpt>
      <trkpt lat="49.68863" lon="4.72254">
        <ele>263</ele>
        <time>2011-05-27T13:58:13Z</time>
      </trkpt>
      <trkpt lat="49.68869" lon="4.72258">
        <ele>262</ele>
        <time>2011-05-27T13:58:14Z</time>
      </trkpt>
      <trkpt lat="49.68874" lon="4.7226">
        <ele>261</ele>
        <time>2011-05-27T13:58:15Z</time>
      </trkpt>
      <trkpt lat="49.68878" lon="4.72264">
        <ele>260</ele>
        <time>2011-05-27T13:58:16Z</time>
      </trkpt>
      <trkpt lat="49.68882" lon="4.72269">
        <ele>259</ele>
        <time>2011-05-27T13:58:17Z</time>
      </trkpt>
      <trkpt lat="49.68886" lon="4.72275">
        <ele>258</ele>
        <time>2011-05-27T13:58:18Z</time>
      </trkpt>
      <trkpt lat="49.68891" lon="4.72283">
        <ele>257</ele>
        <time>2011-05-27T13:58:19Z</time>
      </trkpt>
      <trkpt lat="49.68895" lon="4.7229">
        <ele>256</ele>
        <time>2011-05-27T13:58:20Z</time>
      </trkpt>
      <trkpt lat="49.689" lon="4.72297">
        <ele>255</ele>
        <time>2011-05-27T13:58:21Z</time>
      </trkpt>
      <trkpt lat="49.68904" lon="4.72304">
        <ele>254</ele>
        <time>2011-05-27T13:58:22Z</time>
      </trkpt>
      <trkpt lat="49.68909" lon="4.7231">
        <ele>253</ele>
        <time>2011-05-27T13:58:23Z</time>
      </trkpt>
      <trkpt lat="49.68915" lon="4.72319">
        <ele>252</ele>
        <time>2011-05-27T13:58:24Z</time>
      </trkpt>
      <trkpt lat="49.68921" lon="4.72325">
        <ele>251</ele>
        <time>2011-05-27T13:58:25Z</time>
      </trkpt>
      <trkpt lat="49.68927" lon="4.72334">
        <ele>251</ele>
        <time>2011-05-27T13:58:26Z</time>
      </trkpt>
      <trkpt lat="49.68931" lon="4.7234">
        <ele>251</ele>
        <time>2011-05-27T13:58:27Z</time>
      </trkpt>
      <trkpt lat="49.68936" lon="4.72345">
        <ele>251</ele>
        <time>2011-05-27T13:58:28Z</time>
      </trkpt>
      <trkpt lat="49.68942" lon="4.72349">
        <ele>251</ele>
        <time>2011-05-27T13:58:29Z</time>
      </trkpt>
      <trkpt lat="49.68948" lon="4.72354">
        <ele>251</ele>
        <time>2011-05-27T13:58:30Z</time>
      </trkpt>
      <trkpt lat="49.68956" lon="4.72359">
        <ele>250</ele>
        <time>2011-05-27T13:58:31Z</time>
      </trkpt>
      <trkpt lat="49.68962" lon="4.72364">
        <ele>249</ele>
        <time>2011-05-27T13:58:32Z</time>
      </trkpt>
      <trkpt lat="49.68969" lon="4.72371">
        <ele>248</ele>
        <time>2011-05-27T13:58:33Z</time>
      </trkpt>
      <trkpt lat="49.68975" lon="4.72379">
        <ele>247</ele>
        <time>2011-05-27T13:58:34Z</time>
      </trkpt>
      <trkpt lat="49.68981" lon="4.72387">
        <ele>246</ele>
        <time>2011-05-27T13:58:35Z</time>
      </trkpt>
      <trkpt lat="49.68987" lon="4.72395">
        <ele>245</ele>
        <time>2011-05-27T13:58:36Z</time>
      </trkpt>
      <trkpt lat="49.68993" lon="4.72403">
        <ele>244</ele>
        <time>2011-05-27T13:58:37Z</time>
      </trkpt>
      <trkpt lat="49.68998" lon="4.72411">
        <ele>243</ele>
        <time>2011-05-27T13:58:38Z</time>
      </trkpt>
      <trkpt lat="49.69002" lon="4.72421">
        <ele>242</ele>
        <time>2011-05-27T13:58:39Z</time>
      </trkpt>
      <trkpt lat="49.69006" lon="4.7243">
        <ele>241</ele>
        <time>2011-05-27T13:58:40Z</time>
      </trkpt>
      <trkpt lat="49.6901" lon="4.72437">
        <ele>240</ele>
        <time>2011-05-27T13:58:41Z</time>
      </trkpt>
      <trkpt lat="49.69015" lon="4.72443">
        <ele>239</ele>
        <time>2011-05-27T13:58:42Z</time>
      </trkpt>
      <trkpt lat="49.6902" lon="4.72449">
        <ele>238</ele>
        <time>2011-05-27T13:58:43Z</time>
      </trkpt>
      <trkpt lat="49.69026" lon="4.72453">
        <ele>237</ele>
        <time>2011-05-27T13:58:44Z</time>
      </trkpt>
      <trkpt lat="49.69031" lon="4.72458">
        <ele>236</ele>
        <time>2011-05-27T13:58:45Z</time>
      </trkpt>
      <trkpt lat="49.69036" lon="4.72464">
        <ele>235</ele>
        <time>2011-05-27T13:58:46Z</time>
      </trkpt>
      <trkpt lat="49.69041" lon="4.72469">
        <ele>234</ele>
        <time>2011-05-27T13:58:47Z</time>
      </trkpt>
      <trkpt lat="49.69047" lon="4.72474">
        <ele>233</ele>
        <time>2011-05-27T13:58:48Z</time>
      </trkpt>
      <trkpt lat="49.69053" lon="4.7248">
        <ele>233</ele>
        <time>2011-05-27T13:58:49Z</time>
      </trkpt>
      <trkpt lat="49.69059" lon="4.72485">
        <ele>233</ele>
        <time>2011-05-27T13:58:50Z</time>
      </trkpt>
      <trkpt lat="49.69064" lon="4.72491">
        <ele>233</ele>
        <time>2011-05-27T13:58:51Z</time>
      </trkpt>
      <trkpt lat="49.69069" lon="4.72497">
        <ele>233</ele>
        <time>2011-05-27T13:58:52Z</time>
      </trkpt>
      <trkpt lat="49.69075" lon="4.72502">
        <ele>233</ele>
        <time>2011-05-27T13:58:53Z</time>
      </trkpt>
      <trkpt lat="49.6908" lon="4.72507">
        <ele>233</ele>
        <time>2011-05-27T13:58:54Z</time>
      </trkpt>
      <trkpt lat="49.69086" lon="4.72512">
        <ele>233</ele>
        <time>2011-05-27T13:58:55Z</time>
      </trkpt>
      <trkpt lat="49.69094" lon="4.72517">
        <ele>233</ele>
        <time>2011-05-27T13:58:56Z</time>
      </trkpt>
      <trkpt lat="49.69101" lon="4.72522">
        <ele>233</ele>
        <time>2011-05-27T13:58:57Z</time>
      </trkpt>
      <trkpt lat="49.69108" lon="4.72526">
        <ele>233</ele>
        <time>2011-05-27T13:58:58Z</time>
      </trkpt>
      <trkpt lat="49.69115" lon="4.72531">
        <ele>233</ele>
        <time>2011-05-27T13:58:59Z</time>
      </trkpt>
      <trkpt lat="49.69122" lon="4.72535">
        <ele>233</ele>
        <time>2011-05-27T13:59:00Z</time>
      </trkpt>
      <trkpt lat="49.69128" lon="4.72541">
        <ele>233</ele>
        <time>2011-05-27T13:59:01Z</time>
      </trkpt>
      <trkpt lat="49.69135" lon="4.72546">
        <ele>233</ele>
        <time>2011-05-27T13:59:02Z</time>
      </trkpt>
      <trkpt lat="49.6914" lon="4.72551">
        <ele>233</ele>
        <time>2011-05-27T13:59:03Z</time>
      </trkpt>
      <trkpt lat="49.69147" lon="4.72555">
        <ele>233</ele>
        <time>2011-05-27T13:59:04Z</time>
      </trkpt>
      <trkpt lat="49.69153" lon="4.72558">
        <ele>233</ele>
        <time>2011-05-27T13:59:05Z</time>
      </trkpt>
      <trkpt lat="49.69158" lon="4.72562">
        <ele>232</ele>
        <time>2011-05-27T13:59:06Z</time>
      </trkpt>
      <trkpt lat="49.69163" lon="4.72567">
        <ele>231</ele>
        <time>2011-05-27T13:59:07Z</time>
      </trkpt>
      <trkpt lat="49.69168" lon="4.72571">
        <ele>230</ele>
        <time>2011-05-27T13:59:08Z</time>
      </trkpt>
      <trkpt lat="49.69174" lon="4.72576">
        <ele>229</ele>
        <time>2011-05-27T13:59:09Z</time>
      </trkpt>
      <trkpt lat="49.69181" lon="4.72582">
        <ele>228</ele>
        <time>2011-05-27T13:59:10Z</time>
      </trkpt>
      <trkpt lat="49.69188" lon="4.72587">
        <ele>227</ele>
        <time>2011-05-27T13:59:11Z</time>
      </trkpt>
      <trkpt lat="49.69195" lon="4.72592">
        <ele>226</ele>
        <time>2011-05-27T13:59:12Z</time>
      </trkpt>
      <trkpt lat="49.692" lon="4.72595">
        <ele>225</ele>
        <time>2011-05-27T13:59:13Z</time>
      </trkpt>
      <trkpt lat="49.69207" lon="4.72598">
        <ele>224</ele>
        <time>2011-05-27T13:59:14Z</time>
      </trkpt>
      <trkpt lat="49.69212" lon="4.726">
        <ele>224</ele>
        <time>2011-05-27T13:59:15Z</time>
      </trkpt>
      <trkpt lat="49.69218" lon="4.72602">
        <ele>224</ele>
        <time>2011-05-27T13:59:16Z</time>
      </trkpt>
      <trkpt lat="49.69225" lon="4.72604">
        <ele>224</ele>
        <time>2011-05-27T13:59:17Z</time>
      </trkpt>
      <trkpt lat="49.69233" lon="4.72608">
        <ele>224</ele>
        <time>2011-05-27T13:59:18Z</time>
      </trkpt>
      <trkpt lat="49.69241" lon="4.72611">
        <ele>224</ele>
        <time>2011-05-27T13:59:19Z</time>
      </trkpt>
      <trkpt lat="49.69249" lon="4.72614">
        <ele>224</ele>
        <time>2011-05-27T13:59:20Z</time>
      </trkpt>
      <trkpt lat="49.69256" lon="4.72618">
        <ele>224</ele>
        <time>2011-05-27T13:59:21Z</time>
      </trkpt>
      <trkpt lat="49.69263" lon="4.72621">
        <ele>223</ele>
        <time>2011-05-27T13:59:22Z</time>
      </trkpt>
      <trkpt lat="49.69269" lon="4.72624">
        <ele>223</ele>
        <time>2011-05-27T13:59:23Z</time>
      </trkpt>
      <trkpt lat="49.69275" lon="4.72628">
        <ele>222</ele>
        <time>2011-05-27T13:59:24Z</time>
      </trkpt>
      <trkpt lat="49.69281" lon="4.72631">
        <ele>221</ele>
        <time>2011-05-27T13:59:25Z</time>
      </trkpt>
      <trkpt lat="49.69287" lon="4.72637">
        <ele>220</ele>
        <time>2011-05-27T13:59:26Z</time>
      </trkpt>
      <trkpt lat="49.69294" lon="4.72642">
        <ele>219</ele>
        <time>2011-05-27T13:59:27Z</time>
      </trkpt>
      <trkpt lat="49.69301" lon="4.72647">
        <ele>218</ele>
        <time>2011-05-27T13:59:28Z</time>
      </trkpt>
      <trkpt lat="49.69308" lon="4.72654">
        <ele>217</ele>
        <time>2011-05-27T13:59:29Z</time>
      </trkpt>
      <trkpt lat="49.69315" lon="4.7266">
        <ele>216</ele>
        <time>2011-05-27T13:59:30Z</time>
      </trkpt>
      <trkpt lat="49.69321" lon="4.72667">
        <ele>215</ele>
        <time>2011-05-27T13:59:31Z</time>
      </trkpt>
      <trkpt lat="49.69327" lon="4.72675">
        <ele>214</ele>
        <time>2011-05-27T13:59:32Z</time>
      </trkpt>
      <trkpt lat="49.69333" lon="4.72683">
        <ele>213</ele>
        <time>2011-05-27T13:59:33Z</time>
      </trkpt>
      <trkpt lat="49.69338" lon="4.72692">
        <ele>212</ele>
        <time>2011-05-27T13:59:34Z</time>
      </trkpt>
      <trkpt lat="49.69344" lon="4.72702">
        <ele>212</ele>
        <time>2011-05-27T13:59:35Z</time>
      </trkpt>
      <trkpt lat="49.6935" lon="4.72711">
        <ele>211</ele>
        <time>2011-05-27T13:59:36Z</time>
      </trkpt>
      <trkpt lat="49.69355" lon="4.72721">
        <ele>210</ele>
        <time>2011-05-27T13:59:37Z</time>
      </trkpt>
      <trkpt lat="49.6936" lon="4.7273">
        <ele>209</ele>
        <time>2011-05-27T13:59:38Z</time>
      </trkpt>
      <trkpt lat="49.69365" lon="4.72739">
        <ele>209</ele>
        <time>2011-05-27T13:59:39Z</time>
      </trkpt>
      <trkpt lat="49.69371" lon="4.72748">
        <ele>208</ele>
        <time>2011-05-27T13:59:40Z</time>
      </trkpt>
      <trkpt lat="49.69376" lon="4.72756">
        <ele>207</ele>
        <time>2011-05-27T13:59:41Z</time>
      </trkpt>
      <trkpt lat="49.69381" lon="4.72764">
        <ele>207</ele>
        <time>2011-05-27T13:59:42Z</time>
      </trkpt>
      <trkpt lat="49.69386" lon="4.72773">
        <ele>206</ele>
        <time>2011-05-27T13:59:43Z</time>
      </trkpt>
      <trkpt lat="49.6939" lon="4.7278">
        <ele>206</ele>
        <time>2011-05-27T13:59:44Z</time>
      </trkpt>
      <trkpt lat="49.69395" lon="4.72788">
        <ele>205</ele>
        <time>2011-05-27T13:59:45Z</time>
      </trkpt>
      <trkpt lat="49.69399" lon="4.72795">
        <ele>205</ele>
        <time>2011-05-27T13:59:46Z</time>
      </trkpt>
      <trkpt lat="49.69404" lon="4.72803">
        <ele>204</ele>
        <time>2011-05-27T13:59:47Z</time>
      </trkpt>
      <trkpt lat="49.69409" lon="4.7281">
        <ele>203</ele>
        <time>2011-05-27T13:59:48Z</time>
      </trkpt>
      <trkpt lat="49.69414" lon="4.72816">
        <ele>203</ele>
        <time>2011-05-27T13:59:49Z</time>
      </trkpt>
      <trkpt lat="49.6942" lon="4.72821">
        <ele>202</ele>
        <time>2011-05-27T13:59:50Z</time>
      </trkpt>
      <trkpt lat="49.69426" lon="4.72825">
        <ele>202</ele>
        <time>2011-05-27T13:59:51Z</time>
      </trkpt>
      <trkpt lat="49.69431" lon="4.72829">
        <ele>202</ele>
        <time>2011-05-27T13:59:52Z</time>
      </trkpt>
      <trkpt lat="49.69436" lon="4.72832">
        <ele>201</ele>
        <time>2011-05-27T13:59:53Z</time>
      </trkpt>
      <trkpt lat="49.69441" lon="4.72835">
        <ele>201</ele>
        <time>2011-05-27T13:59:54Z</time>
      </trkpt>
      <trkpt lat="49.69445" lon="4.72838">
        <ele>200</ele>
        <time>2011-05-27T13:59:55Z</time>
      </trkpt>
      <trkpt lat="49.69449" lon="4.72841">
        <ele>200</ele>
        <time>2011-05-27T13:59:56Z</time>
      </trkpt>
      <trkpt lat="49.69453" lon="4.72844">
        <ele>200</ele>
        <time>2011-05-27T13:59:57Z</time>
      </trkpt>
      <trkpt lat="49.69455" lon="4.72845">
        <ele>199</ele>
        <time>2011-05-27T13:59:58Z</time>
      </trkpt>
      <trkpt lat="49.69458" lon="4.72846">
        <ele>199</ele>
        <time>2011-05-27T13:59:59Z</time>
      </trkpt>
      <trkpt lat="49.6946" lon="4.72847">
        <ele>199</ele>
        <time>2011-05-27T14:00:00Z</time>
      </trkpt>
      <trkpt lat="49.69461" lon="4.72847">
        <ele>199</ele>
        <time>2011-05-27T14:00:01Z</time>
      </trkpt>
      <trkpt lat="49.69463" lon="4.72848">
        <ele>199</ele>
        <time>2011-05-27T14:00:16Z</time>
      </trkpt>
      <trkpt lat="49.69464" lon="4.72847">
        <ele>199</ele>
        <time>2011-05-27T14:00:53Z</time>
      </trkpt>
      <trkpt lat="49.69463" lon="4.72846">
        <ele>201</ele>
        <time>2011-05-27T14:01:02Z</time>
      </trkpt>
      <trkpt lat="49.69465" lon="4.72846">
        <ele>200</ele>
        <time>2011-05-27T14:01:08Z</time>
      </trkpt>
      <trkpt lat="49.69466" lon="4.72846">
        <ele>200</ele>
        <time>2011-05-27T14:01:09Z</time>
      </trkpt>
      <trkpt lat="49.69468" lon="4.72846">
        <ele>199</ele>
        <time>2011-05-27T14:01:10Z</time>
      </trkpt>
      <trkpt lat="49.69471" lon="4.72847">
        <ele>199</ele>
        <time>2011-05-27T14:01:11Z</time>
      </trkpt>
      <trkpt lat="49.69473" lon="4.72846">
        <ele>199</ele>
        <time>2011-05-27T14:01:12Z</time>
      </trkpt>
      <trkpt lat="49.69475" lon="4.72845">
        <ele>199</ele>
        <time>2011-05-27T14:01:13Z</time>
      </trkpt>
      <trkpt lat="49.69478" lon="4.72843">
        <ele>199</ele>
        <time>2011-05-27T14:01:14Z</time>
      </trkpt>
      <trkpt lat="49.69481" lon="4.72841">
        <ele>199</ele>
        <time>2011-05-27T14:01:15Z</time>
      </trkpt>
      <trkpt lat="49.69484" lon="4.72839">
        <ele>199</ele>
        <time>2011-05-27T14:01:16Z</time>
      </trkpt>
      <trkpt lat="49.69487" lon="4.72838">
        <ele>198</ele>
        <time>2011-05-27T14:01:17Z</time>
      </trkpt>
      <trkpt lat="49.6949" lon="4.72836">
        <ele>198</ele>
        <time>2011-05-27T14:01:18Z</time>
      </trkpt>
      <trkpt lat="49.69494" lon="4.72834">
        <ele>198</ele>
        <time>2011-05-27T14:01:19Z</time>
      </trkpt>
      <trkpt lat="49.69498" lon="4.72832">
        <ele>198</ele>
        <time>2011-05-27T14:01:20Z</time>
      </trkpt>
      <trkpt lat="49.69502" lon="4.7283">
        <ele>197</ele>
        <time>2011-05-27T14:01:21Z</time>
      </trkpt>
      <trkpt lat="49.69506" lon="4.72828">
        <ele>197</ele>
        <time>2011-05-27T14:01:22Z</time>
      </trkpt>
      <trkpt lat="49.6951" lon="4.72825">
        <ele>197</ele>
        <time>2011-05-27T14:01:23Z</time>
      </trkpt>
      <trkpt lat="49.69514" lon="4.72823">
        <ele>197</ele>
        <time>2011-05-27T14:01:24Z</time>
      </trkpt>
      <trkpt lat="49.69519" lon="4.7282">
        <ele>197</ele>
        <time>2011-05-27T14:01:25Z</time>
      </trkpt>
      <trkpt lat="49.69523" lon="4.72818">
        <ele>197</ele>
        <time>2011-05-27T14:01:26Z</time>
      </trkpt>
      <trkpt lat="49.69528" lon="4.72816">
        <ele>197</ele>
        <time>2011-05-27T14:01:27Z</time>
      </trkpt>
      <trkpt lat="49.69532" lon="4.72813">
        <ele>197</ele>
        <time>2011-05-27T14:01:28Z</time>
      </trkpt>
      <trkpt lat="49.69537" lon="4.7281">
        <ele>196</ele>
        <time>2011-05-27T14:01:29Z</time>
      </trkpt>
      <trkpt lat="49.69542" lon="4.72808">
        <ele>196</ele>
        <time>2011-05-27T14:01:30Z</time>
      </trkpt>
      <trkpt lat="49.69546" lon="4.72805">
        <ele>196</ele>
        <time>2011-05-27T14:01:31Z</time>
      </trkpt>
      <trkpt lat="49.69551" lon="4.72802">
        <ele>196</ele>
        <time>2011-05-27T14:01:32Z</time>
      </trkpt>
      <trkpt lat="49.69556" lon="4.72799">
        <ele>196</ele>
        <time>2011-05-27T14:01:33Z</time>
      </trkpt>
      <trkpt lat="49.69561" lon="4.72796">
        <ele>196</ele>
        <time>2011-05-27T14:01:34Z</time>
      </trkpt>
      <trkpt lat="49.69566" lon="4.72794">
        <ele>196</ele>
        <time>2011-05-27T14:01:35Z</time>
      </trkpt>
      <trkpt lat="49.69571" lon="4.72791">
        <ele>196</ele>
        <time>2011-05-27T14:01:36Z</time>
      </trkpt>
      <trkpt lat="49.69575" lon="4.72789">
        <ele>196</ele>
        <time>2011-05-27T14:01:37Z</time>
      </trkpt>
      <trkpt lat="49.6958" lon="4.72786">
        <ele>196</ele>
        <time>2011-05-27T14:01:38Z</time>
      </trkpt>
      <trkpt lat="49.69584" lon="4.72784">
        <ele>196</ele>
        <time>2011-05-27T14:01:39Z</time>
      </trkpt>
      <trkpt lat="49.69589" lon="4.72782">
        <ele>196</ele>
        <time>2011-05-27T14:01:40Z</time>
      </trkpt>
      <trkpt lat="49.69593" lon="4.7278">
        <ele>196</ele>
        <time>2011-05-27T14:01:41Z</time>
      </trkpt>
      <trkpt lat="49.69598" lon="4.72777">
        <ele>196</ele>
        <time>2011-05-27T14:01:42Z</time>
      </trkpt>
      <trkpt lat="49.69602" lon="4.72775">
        <ele>196</ele>
        <time>2011-05-27T14:01:43Z</time>
      </trkpt>
      <trkpt lat="49.69606" lon="4.72772">
        <ele>196</ele>
        <time>2011-05-27T14:01:44Z</time>
      </trkpt>
      <trkpt lat="49.69611" lon="4.7277">
        <ele>196</ele>
        <time>2011-05-27T14:01:45Z</time>
      </trkpt>
      <trkpt lat="49.69615" lon="4.72768">
        <ele>195</ele>
        <time>2011-05-27T14:01:46Z</time>
      </trkpt>
      <trkpt lat="49.69618" lon="4.72767">
        <ele>195</ele>
        <time>2011-05-27T14:01:47Z</time>
      </trkpt>
      <trkpt lat="49.6962" lon="4.72767">
        <ele>195</ele>
        <time>2011-05-27T14:01:48Z</time>
      </trkpt>
      <trkpt lat="49.69622" lon="4.72766">
        <ele>195</ele>
        <time>2011-05-27T14:01:49Z</time>
      </trkpt>
      <trkpt lat="49.69624" lon="4.72765">
        <ele>195</ele>
        <time>2011-05-27T14:01:50Z</time>
      </trkpt>
      <trkpt lat="49.69627" lon="4.72763">
        <ele>195</ele>
        <time>2011-05-27T14:01:51Z</time>
      </trkpt>
      <trkpt lat="49.6963" lon="4.72761">
        <ele>195</ele>
        <time>2011-05-27T14:01:52Z</time>
      </trkpt>
      <trkpt lat="49.69634" lon="4.72758">
        <ele>195</ele>
        <time>2011-05-27T14:01:53Z</time>
      </trkpt>
      <trkpt lat="49.69637" lon="4.72756">
        <ele>195</ele>
        <time>2011-05-27T14:01:54Z</time>
      </trkpt>
      <trkpt lat="49.6964" lon="4.72754">
        <ele>195</ele>
        <time>2011-05-27T14:01:55Z</time>
      </trkpt>
      <trkpt lat="49.69643" lon="4.72753">
        <ele>195</ele>
        <time>2011-05-27T14:01:56Z</time>
      </trkpt>
      <trkpt lat="49.69645" lon="4.72751">
        <ele>195</ele>
        <time>2011-05-27T14:01:57Z</time>
      </trkpt>
      <trkpt lat="49.69648" lon="4.72749">
        <ele>195</ele>
        <time>2011-05-27T14:01:58Z</time>
      </trkpt>
      <trkpt lat="49.69652" lon="4.72747">
        <ele>195</ele>
        <time>2011-05-27T14:01:59Z</time>
      </trkpt>
      <trkpt lat="49.69655" lon="4.72745">
        <ele>195</ele>
        <time>2011-05-27T14:02:00Z</time>
      </trkpt>
      <trkpt lat="49.69658" lon="4.72743">
        <ele>195</ele>
        <time>2011-05-27T14:02:01Z</time>
      </trkpt>
      <trkpt lat="49.69661" lon="4.7274">
        <ele>195</ele>
        <time>2011-05-27T14:02:02Z</time>
      </trkpt>
      <trkpt lat="49.69665" lon="4.72738">
        <ele>195</ele>
        <time>2011-05-27T14:02:03Z</time>
      </trkpt>
      <trkpt lat="49.69669" lon="4.72735">
        <ele>195</ele>
        <time>2011-05-27T14:02:04Z</time>
      </trkpt>
      <trkpt lat="49.69673" lon="4.72733">
        <ele>195</ele>
        <time>2011-05-27T14:02:05Z</time>
      </trkpt>
      <trkpt lat="49.69678" lon="4.7273">
        <ele>195</ele>
        <time>2011-05-27T14:02:06Z</time>
      </trkpt>
      <trkpt lat="49.69682" lon="4.72727">
        <ele>195</ele>
        <time>2011-05-27T14:02:07Z</time>
      </trkpt>
      <trkpt lat="49.69687" lon="4.72724">
        <ele>195</ele>
        <time>2011-05-27T14:02:08Z</time>
      </trkpt>
      <trkpt lat="49.69691" lon="4.72721">
        <ele>195</ele>
        <time>2011-05-27T14:02:09Z</time>
      </trkpt>
      <trkpt lat="49.69696" lon="4.72719">
        <ele>195</ele>
        <time>2011-05-27T14:02:10Z</time>
      </trkpt>
      <trkpt lat="49.697" lon="4.72716">
        <ele>195</ele>
        <time>2011-05-27T14:02:11Z</time>
      </trkpt>
      <trkpt lat="49.69704" lon="4.72713">
        <ele>195</ele>
        <time>2011-05-27T14:02:12Z</time>
      </trkpt>
      <trkpt lat="49.69709" lon="4.7271">
        <ele>195</ele>
        <time>2011-05-27T14:02:13Z</time>
      </trkpt>
      <trkpt lat="49.69714" lon="4.72706">
        <ele>195</ele>
        <time>2011-05-27T14:02:14Z</time>
      </trkpt>
      <trkpt lat="49.69719" lon="4.72703">
        <ele>195</ele>
        <time>2011-05-27T14:02:15Z</time>
      </trkpt>
      <trkpt lat="49.69723" lon="4.727">
        <ele>195</ele>
        <time>2011-05-27T14:02:16Z</time>
      </trkpt>
      <trkpt lat="49.69728" lon="4.72697">
        <ele>195</ele>
        <time>2011-05-27T14:02:17Z</time>
      </trkpt>
      <trkpt lat="49.69732" lon="4.72693">
        <ele>195</ele>
        <time>2011-05-27T14:02:18Z</time>
      </trkpt>
      <trkpt lat="49.69736" lon="4.7269">
        <ele>195</ele>
        <time>2011-05-27T14:02:19Z</time>
      </trkpt>
      <trkpt lat="49.69741" lon="4.72688">
        <ele>195</ele>
        <time>2011-05-27T14:02:20Z</time>
      </trkpt>
      <trkpt lat="49.69744" lon="4.72685">
        <ele>195</ele>
        <time>2011-05-27T14:02:21Z</time>
      </trkpt>
      <trkpt lat="49.69749" lon="4.72682">
        <ele>195</ele>
        <time>2011-05-27T14:02:22Z</time>
      </trkpt>
      <trkpt lat="49.69753" lon="4.7268">
        <ele>195</ele>
        <time>2011-05-27T14:02:23Z</time>
      </trkpt>
      <trkpt lat="49.69757" lon="4.72677">
        <ele>195</ele>
        <time>2011-05-27T14:02:24Z</time>
      </trkpt>
      <trkpt lat="49.69762" lon="4.72674">
        <ele>195</ele>
        <time>2011-05-27T14:02:25Z</time>
      </trkpt>
      <trkpt lat="49.69766" lon="4.72671">
        <ele>195</ele>
        <time>2011-05-27T14:02:26Z</time>
      </trkpt>
      <trkpt lat="49.6977" lon="4.72668">
        <ele>195</ele>
        <time>2011-05-27T14:02:27Z</time>
      </trkpt>
      <trkpt lat="49.69775" lon="4.72664">
        <ele>195</ele>
        <time>2011-05-27T14:02:28Z</time>
      </trkpt>
      <trkpt lat="49.6978" lon="4.72661">
        <ele>195</ele>
        <time>2011-05-27T14:02:29Z</time>
      </trkpt>
      <trkpt lat="49.69785" lon="4.72658">
        <ele>195</ele>
        <time>2011-05-27T14:02:30Z</time>
      </trkpt>
      <trkpt lat="49.69789" lon="4.72655">
        <ele>195</ele>
        <time>2011-05-27T14:02:31Z</time>
      </trkpt>
      <trkpt lat="49.69794" lon="4.72652">
        <ele>195</ele>
        <time>2011-05-27T14:02:32Z</time>
      </trkpt>
      <trkpt lat="49.69799" lon="4.72649">
        <ele>195</ele>
        <time>2011-05-27T14:02:33Z</time>
      </trkpt>
      <trkpt lat="49.69803" lon="4.72646">
        <ele>195</ele>
        <time>2011-05-27T14:02:34Z</time>
      </trkpt>
      <trkpt lat="49.69808" lon="4.72643">
        <ele>195</ele>
        <time>2011-05-27T14:02:35Z</time>
      </trkpt>
      <trkpt lat="49.69812" lon="4.72641">
        <ele>195</ele>
        <time>2011-05-27T14:02:36Z</time>
      </trkpt>
      <trkpt lat="49.69817" lon="4.72639">
        <ele>195</ele>
        <time>2011-05-27T14:02:37Z</time>
      </trkpt>
      <trkpt lat="49.69822" lon="4.72639">
        <ele>195</ele>
        <time>2011-05-27T14:02:38Z</time>
      </trkpt>
      <trkpt lat="49.69826" lon="4.72638">
        <ele>195</ele>
        <time>2011-05-27T14:02:39Z</time>
      </trkpt>
      <trkpt lat="49.6983" lon="4.72639">
        <ele>195</ele>
        <time>2011-05-27T14:02:40Z</time>
      </trkpt>
      <trkpt lat="49.69835" lon="4.7264">
        <ele>195</ele>
        <time>2011-05-27T14:02:41Z</time>
      </trkpt>
      <trkpt lat="49.69839" lon="4.72642">
        <ele>195</ele>
        <time>2011-05-27T14:02:42Z</time>
      </trkpt>
      <trkpt lat="49.69844" lon="4.72644">
        <ele>195</ele>
        <time>2011-05-27T14:02:43Z</time>
      </trkpt>
      <trkpt lat="49.69847" lon="4.72647">
        <ele>195</ele>
        <time>2011-05-27T14:02:44Z</time>
      </trkpt>
      <trkpt lat="49.69852" lon="4.7265">
        <ele>195</ele>
        <time>2011-05-27T14:02:45Z</time>
      </trkpt>
      <trkpt lat="49.69856" lon="4.72653">
        <ele>195</ele>
        <time>2011-05-27T14:02:46Z</time>
      </trkpt>
      <trkpt lat="49.6986" lon="4.72656">
        <ele>195</ele>
        <time>2011-05-27T14:02:47Z</time>
      </trkpt>
      <trkpt lat="49.69864" lon="4.72659">
        <ele>195</ele>
        <time>2011-05-27T14:02:48Z</time>
      </trkpt>
      <trkpt lat="49.69868" lon="4.72662">
        <ele>195</ele>
        <time>2011-05-27T14:02:49Z</time>
      </trkpt>
      <trkpt lat="49.69872" lon="4.72665">
        <ele>195</ele>
        <time>2011-05-27T14:02:50Z</time>
      </trkpt>
      <trkpt lat="49.69877" lon="4.72667">
        <ele>195</ele>
        <time>2011-05-27T14:02:51Z</time>
      </trkpt>
      <trkpt lat="49.69881" lon="4.72669">
        <ele>195</ele>
        <time>2011-05-27T14:02:52Z</time>
      </trkpt>
      <trkpt lat="49.69886" lon="4.72669">
        <ele>195</ele>
        <time>2011-05-27T14:02:53Z</time>
      </trkpt>
      <trkpt lat="49.69891" lon="4.72669">
        <ele>195</ele>
        <time>2011-05-27T14:02:54Z</time>
      </trkpt>
      <trkpt lat="49.69895" lon="4.72667">
        <ele>195</ele>
        <time>2011-05-27T14:02:55Z</time>
      </trkpt>
      <trkpt lat="49.69899" lon="4.72664">
        <ele>195</ele>
        <time>2011-05-27T14:02:56Z</time>
      </trkpt>
      <trkpt lat="49.69903" lon="4.72661">
        <ele>195</ele>
        <time>2011-05-27T14:02:57Z</time>
      </trkpt>
      <trkpt lat="49.69906" lon="4.72657">
        <ele>195</ele>
        <time>2011-05-27T14:02:58Z</time>
      </trkpt>
      <trkpt lat="49.6991" lon="4.72653">
        <ele>195</ele>
        <time>2011-05-27T14:02:59Z</time>
      </trkpt>
      <trkpt lat="49.69914" lon="4.72649">
        <ele>195</ele>
        <time>2011-05-27T14:03:00Z</time>
      </trkpt>
      <trkpt lat="49.69918" lon="4.72644">
        <ele>195</ele>
        <time>2011-05-27T14:03:01Z</time>
      </trkpt>
      <trkpt lat="49.69921" lon="4.7264">
        <ele>195</ele>
        <time>2011-05-27T14:03:02Z</time>
      </trkpt>
      <trkpt lat="49.69925" lon="4.72635">
        <ele>195</ele>
        <time>2011-05-27T14:03:03Z</time>
      </trkpt>
      <trkpt lat="49.69929" lon="4.72631">
        <ele>195</ele>
        <time>2011-05-27T14:03:04Z</time>
      </trkpt>
      <trkpt lat="49.69933" lon="4.72627">
        <ele>195</ele>
        <time>2011-05-27T14:03:05Z</time>
      </trkpt>
      <trkpt lat="49.69937" lon="4.72624">
        <ele>195</ele>
        <time>2011-05-27T14:03:06Z</time>
      </trkpt>
      <trkpt lat="49.69941" lon="4.72621">
        <ele>195</ele>
        <time>2011-05-27T14:03:07Z</time>
      </trkpt>
      <trkpt lat="49.69944" lon="4.72618">
        <ele>195</ele>
        <time>2011-05-27T14:03:08Z</time>
      </trkpt>
      <trkpt lat="49.69948" lon="4.72615">
        <ele>196</ele>
        <time>2011-05-27T14:03:09Z</time>
      </trkpt>
      <trkpt lat="49.69952" lon="4.72612">
        <ele>196</ele>
        <time>2011-05-27T14:03:10Z</time>
      </trkpt>
      <trkpt lat="49.69956" lon="4.7261">
        <ele>197</ele>
        <time>2011-05-27T14:03:11Z</time>
      </trkpt>
      <trkpt lat="49.6996" lon="4.72608">
        <ele>197</ele>
        <time>2011-05-27T14:03:12Z</time>
      </trkpt>
      <trkpt lat="49.69963" lon="4.72605">
        <ele>197</ele>
        <time>2011-05-27T14:03:13Z</time>
      </trkpt>
      <trkpt lat="49.69968" lon="4.72603">
        <ele>197</ele>
        <time>2011-05-27T14:03:14Z</time>
      </trkpt>
      <trkpt lat="49.69971" lon="4.72601">
        <ele>198</ele>
        <time>2011-05-27T14:03:15Z</time>
      </trkpt>
      <trkpt lat="49.69975" lon="4.72599">
        <ele>198</ele>
        <time>2011-05-27T14:03:16Z</time>
      </trkpt>
      <trkpt lat="49.69979" lon="4.72597">
        <ele>198</ele>
        <time>2011-05-27T14:03:17Z</time>
      </trkpt>
      <trkpt lat="49.69983" lon="4.72595">
        <ele>198</ele>
        <time>2011-05-27T14:03:18Z</time>
      </trkpt>
      <trkpt lat="49.69987" lon="4.72593">
        <ele>198</ele>
        <time>2011-05-27T14:03:19Z</time>
      </trkpt>
      <trkpt lat="49.69991" lon="4.72591">
        <ele>198</ele>
        <time>2011-05-27T14:03:20Z</time>
      </trkpt>
      <trkpt lat="49.69995" lon="4.72588">
        <ele>198</ele>
        <time>2011-05-27T14:03:21Z</time>
      </trkpt>
      <trkpt lat="49.69999" lon="4.72586">
        <ele>198</ele>
        <time>2011-05-27T14:03:22Z</time>
      </trkpt>
      <trkpt lat="49.70004" lon="4.72584">
        <ele>198</ele>
        <time>2011-05-27T14:03:23Z</time>
      </trkpt>
      <trkpt lat="49.70008" lon="4.72582">
        <ele>198</ele>
        <time>2011-05-27T14:03:24Z</time>
      </trkpt>
      <trkpt lat="49.70013" lon="4.72579">
        <ele>198</ele>
        <time>2011-05-27T14:03:25Z</time>
      </trkpt>
      <trkpt lat="49.70017" lon="4.72577">
        <ele>198</ele>
        <time>2011-05-27T14:03:26Z</time>
      </trkpt>
      <trkpt lat="49.70022" lon="4.72574">
        <ele>198</ele>
        <time>2011-05-27T14:03:27Z</time>
      </trkpt>
      <trkpt lat="49.70026" lon="4.72572">
        <ele>198</ele>
        <time>2011-05-27T14:03:28Z</time>
      </trkpt>
      <trkpt lat="49.70031" lon="4.72569">
        <ele>199</ele>
        <time>2011-05-27T14:03:29Z</time>
      </trkpt>
      <trkpt lat="49.70036" lon="4.72567">
        <ele>199</ele>
        <time>2011-05-27T14:03:30Z</time>
      </trkpt>
      <trkpt lat="49.70041" lon="4.72565">
        <ele>199</ele>
        <time>2011-05-27T14:03:31Z</time>
      </trkpt>
      <trkpt lat="49.70045" lon="4.72563">
        <ele>199</ele>
        <time>2011-05-27T14:03:32Z</time>
      </trkpt>
      <trkpt lat="49.7005" lon="4.72561">
        <ele>199</ele>
        <time>2011-05-27T14:03:33Z</time>
      </trkpt>
      <trkpt lat="49.70055" lon="4.72559">
        <ele>199</ele>
        <time>2011-05-27T14:03:34Z</time>
      </trkpt>
      <trkpt lat="49.70059" lon="4.72557">
        <ele>199</ele>
        <time>2011-05-27T14:03:35Z</time>
      </trkpt>
      <trkpt lat="49.70064" lon="4.72555">
        <ele>199</ele>
        <time>2011-05-27T14:03:36Z</time>
      </trkpt>
      <trkpt lat="49.70069" lon="4.72553">
        <ele>200</ele>
        <time>2011-05-27T14:03:37Z</time>
      </trkpt>
      <trkpt lat="49.70074" lon="4.72551">
        <ele>200</ele>
        <time>2011-05-27T14:03:38Z</time>
      </trkpt>
      <trkpt lat="49.70079" lon="4.72549">
        <ele>200</ele>
        <time>2011-05-27T14:03:39Z</time>
      </trkpt>
      <trkpt lat="49.70083" lon="4.72547">
        <ele>200</ele>
        <time>2011-05-27T14:03:40Z</time>
      </trkpt>
      <trkpt lat="49.70088" lon="4.72545">
        <ele>200</ele>
        <time>2011-05-27T14:03:41Z</time>
      </trkpt>
      <trkpt lat="49.70092" lon="4.72542">
        <ele>200</ele>
        <time>2011-05-27T14:03:42Z</time>
      </trkpt>
      <trkpt lat="49.70097" lon="4.72541">
        <ele>200</ele>
        <time>2011-05-27T14:03:43Z</time>
      </trkpt>
      <trkpt lat="49.70102" lon="4.72538">
        <ele>200</ele>
        <time>2011-05-27T14:03:44Z</time>
      </trkpt>
      <trkpt lat="49.70107" lon="4.72536">
        <ele>200</ele>
        <time>2011-05-27T14:03:45Z</time>
      </trkpt>
      <trkpt lat="49.70111" lon="4.72534">
        <ele>200</ele>
        <time>2011-05-27T14:03:46Z</time>
      </trkpt>
      <trkpt lat="49.70116" lon="4.72532">
        <ele>200</ele>
        <time>2011-05-27T14:03:47Z</time>
      </trkpt>
      <trkpt lat="49.70121" lon="4.72529">
        <ele>200</ele>
        <time>2011-05-27T14:03:48Z</time>
      </trkpt>
      <trkpt lat="49.70125" lon="4.72526">
        <ele>200</ele>
        <time>2011-05-27T14:03:49Z</time>
      </trkpt>
      <trkpt lat="49.7013" lon="4.72524">
        <ele>200</ele>
        <time>2011-05-27T14:03:50Z</time>
      </trkpt>
      <trkpt lat="49.70134" lon="4.72521">
        <ele>200</ele>
        <time>2011-05-27T14:03:51Z</time>
      </trkpt>
      <trkpt lat="49.70139" lon="4.72519">
        <ele>200</ele>
        <time>2011-05-27T14:03:52Z</time>
      </trkpt>
      <trkpt lat="49.70143" lon="4.72516">
        <ele>200</ele>
        <time>2011-05-27T14:03:53Z</time>
      </trkpt>
      <trkpt lat="49.70148" lon="4.72514">
        <ele>200</ele>
        <time>2011-05-27T14:03:54Z</time>
      </trkpt>
      <trkpt lat="49.70152" lon="4.72511">
        <ele>200</ele>
        <time>2011-05-27T14:03:55Z</time>
      </trkpt>
      <trkpt lat="49.70157" lon="4.72509">
        <ele>200</ele>
        <time>2011-05-27T14:03:56Z</time>
      </trkpt>
      <trkpt lat="49.70161" lon="4.72507">
        <ele>200</ele>
        <time>2011-05-27T14:03:57Z</time>
      </trkpt>
      <trkpt lat="49.70166" lon="4.72505">
        <ele>200</ele>
        <time>2011-05-27T14:03:58Z</time>
      </trkpt>
      <trkpt lat="49.70171" lon="4.72503">
        <ele>200</ele>
        <time>2011-05-27T14:03:59Z</time>
      </trkpt>
      <trkpt lat="49.70175" lon="4.72501">
        <ele>200</ele>
        <time>2011-05-27T14:04:00Z</time>
      </trkpt>
      <trkpt lat="49.70179" lon="4.725">
        <ele>200</ele>
        <time>2011-05-27T14:04:01Z</time>
      </trkpt>
      <trkpt lat="49.70183" lon="4.72498">
        <ele>200</ele>
        <time>2011-05-27T14:04:02Z</time>
      </trkpt>
      <trkpt lat="49.70188" lon="4.72497">
        <ele>200</ele>
        <time>2011-05-27T14:04:03Z</time>
      </trkpt>
      <trkpt lat="49.70192" lon="4.72495">
        <ele>200</ele>
        <time>2011-05-27T14:04:04Z</time>
      </trkpt>
      <trkpt lat="49.70196" lon="4.72494">
        <ele>201</ele>
        <time>2011-05-27T14:04:05Z</time>
      </trkpt>
      <trkpt lat="49.702" lon="4.72493">
        <ele>201</ele>
        <time>2011-05-27T14:04:06Z</time>
      </trkpt>
      <trkpt lat="49.70204" lon="4.72492">
        <ele>201</ele>
        <time>2011-05-27T14:04:07Z</time>
      </trkpt>
      <trkpt lat="49.70208" lon="4.72491">
        <ele>201</ele>
        <time>2011-05-27T14:04:08Z</time>
      </trkpt>
      <trkpt lat="49.70213" lon="4.7249">
        <ele>201</ele>
        <time>2011-05-27T14:04:09Z</time>
      </trkpt>
      <trkpt lat="49.70217" lon="4.72488">
        <ele>201</ele>
        <time>2011-05-27T14:04:10Z</time>
      </trkpt>
      <trkpt lat="49.70221" lon="4.72487">
        <ele>201</ele>
        <time>2011-05-27T14:04:11Z</time>
      </trkpt>
      <trkpt lat="49.70225" lon="4.72486">
        <ele>201</ele>
        <time>2011-05-27T14:04:12Z</time>
      </trkpt>
      <trkpt lat="49.70229" lon="4.72485">
        <ele>202</ele>
        <time>2011-05-27T14:04:13Z</time>
      </trkpt>
      <trkpt lat="49.70233" lon="4.72484">
        <ele>202</ele>
        <time>2011-05-27T14:04:14Z</time>
      </trkpt>
      <trkpt lat="49.70237" lon="4.72483">
        <ele>202</ele>
        <time>2011-05-27T14:04:15Z</time>
      </trkpt>
      <trkpt lat="49.7024" lon="4.72482">
        <ele>202</ele>
        <time>2011-05-27T14:04:16Z</time>
      </trkpt>
      <trkpt lat="49.70244" lon="4.72481">
        <ele>202</ele>
        <time>2011-05-27T14:04:17Z</time>
      </trkpt>
      <trkpt lat="49.70248" lon="4.7248">
        <ele>202</ele>
        <time>2011-05-27T14:04:18Z</time>
      </trkpt>
      <trkpt lat="49.70252" lon="4.72479">
        <ele>202</ele>
        <time>2011-05-27T14:04:19Z</time>
      </trkpt>
      <trkpt lat="49.70255" lon="4.72478">
        <ele>203</ele>
        <time>2011-05-27T14:04:20Z</time>
      </trkpt>
      <trkpt lat="49.70259" lon="4.72478">
        <ele>203</ele>
        <time>2011-05-27T14:04:21Z</time>
      </trkpt>
      <trkpt lat="49.70262" lon="4.72477">
        <ele>203</ele>
        <time>2011-05-27T14:04:22Z</time>
      </trkpt>
      <trkpt lat="49.70266" lon="4.72476">
        <ele>203</ele>
        <time>2011-05-27T14:04:23Z</time>
      </trkpt>
      <trkpt lat="49.70269" lon="4.72475">
        <ele>203</ele>
        <time>2011-05-27T14:04:24Z</time>
      </trkpt>
      <trkpt lat="49.70273" lon="4.72474">
        <ele>204</ele>
        <time>2011-05-27T14:04:25Z</time>
      </trkpt>
      <trkpt lat="49.70277" lon="4.72473">
        <ele>204</ele>
        <time>2011-05-27T14:04:26Z</time>
      </trkpt>
      <trkpt lat="49.7028" lon="4.72472">
        <ele>204</ele>
        <time>2011-05-27T14:04:27Z</time>
      </trkpt>
      <trkpt lat="49.70284" lon="4.72472">
        <ele>204</ele>
        <time>2011-05-27T14:04:28Z</time>
      </trkpt>
      <trkpt lat="49.70287" lon="4.72471">
        <ele>204</ele>
        <time>2011-05-27T14:04:29Z</time>
      </trkpt>
      <trkpt lat="49.70291" lon="4.7247">
        <ele>204</ele>
        <time>2011-05-27T14:04:30Z</time>
      </trkpt>
      <trkpt lat="49.70295" lon="4.72469">
        <ele>205</ele>
        <time>2011-05-27T14:04:31Z</time>
      </trkpt>
      <trkpt lat="49.70298" lon="4.72468">
        <ele>205</ele>
        <time>2011-05-27T14:04:32Z</time>
      </trkpt>
      <trkpt lat="49.70302" lon="4.72467">
        <ele>205</ele>
        <time>2011-05-27T14:04:33Z</time>
      </trkpt>
      <trkpt lat="49.70306" lon="4.72466">
        <ele>205</ele>
        <time>2011-05-27T14:04:34Z</time>
      </trkpt>
      <trkpt lat="49.70309" lon="4.72465">
        <ele>205</ele>
        <time>2011-05-27T14:04:35Z</time>
      </trkpt>
      <trkpt lat="49.70312" lon="4.72464">
        <ele>205</ele>
        <time>2011-05-27T14:04:36Z</time>
      </trkpt>
      <trkpt lat="49.70316" lon="4.72463">
        <ele>206</ele>
        <time>2011-05-27T14:04:37Z</time>
      </trkpt>
      <trkpt lat="49.70319" lon="4.72462">
        <ele>206</ele>
        <time>2011-05-27T14:04:38Z</time>
      </trkpt>
      <trkpt lat="49.70323" lon="4.72461">
        <ele>206</ele>
        <time>2011-05-27T14:04:39Z</time>
      </trkpt>
      <trkpt lat="49.70326" lon="4.7246">
        <ele>206</ele>
        <time>2011-05-27T14:04:40Z</time>
      </trkpt>
      <trkpt lat="49.7033" lon="4.72458">
        <ele>206</ele>
        <time>2011-05-27T14:04:41Z</time>
      </trkpt>
      <trkpt lat="49.70333" lon="4.72457">
        <ele>207</ele>
        <time>2011-05-27T14:04:42Z</time>
      </trkpt>
      <trkpt lat="49.70337" lon="4.72456">
        <ele>207</ele>
        <time>2011-05-27T14:04:43Z</time>
      </trkpt>
      <trkpt lat="49.7034" lon="4.72454">
        <ele>207</ele>
        <time>2011-05-27T14:04:44Z</time>
      </trkpt>
      <trkpt lat="49.70344" lon="4.72453">
        <ele>207</ele>
        <time>2011-05-27T14:04:45Z</time>
      </trkpt>
      <trkpt lat="49.70348" lon="4.72451">
        <ele>207</ele>
        <time>2011-05-27T14:04:46Z</time>
      </trkpt>
      <trkpt lat="49.70351" lon="4.7245">
        <ele>207</ele>
        <time>2011-05-27T14:04:47Z</time>
      </trkpt>
      <trkpt lat="49.70355" lon="4.72448">
        <ele>207</ele>
        <time>2011-05-27T14:04:48Z</time>
      </trkpt>
      <trkpt lat="49.70358" lon="4.72446">
        <ele>208</ele>
        <time>2011-05-27T14:04:49Z</time>
      </trkpt>
      <trkpt lat="49.70362" lon="4.72444">
        <ele>208</ele>
        <time>2011-05-27T14:04:50Z</time>
      </trkpt>
      <trkpt lat="49.70366" lon="4.72442">
        <ele>208</ele>
        <time>2011-05-27T14:04:51Z</time>
      </trkpt>
      <trkpt lat="49.70369" lon="4.7244">
        <ele>208</ele>
        <time>2011-05-27T14:04:52Z</time>
      </trkpt>
      <trkpt lat="49.70372" lon="4.72438">
        <ele>208</ele>
        <time>2011-05-27T14:04:53Z</time>
      </trkpt>
      <trkpt lat="49.70376" lon="4.72436">
        <ele>208</ele>
        <time>2011-05-27T14:04:54Z</time>
      </trkpt>
      <trkpt lat="49.70379" lon="4.72434">
        <ele>209</ele>
        <time>2011-05-27T14:04:55Z</time>
      </trkpt>
      <trkpt lat="49.70383" lon="4.72432">
        <ele>209</ele>
        <time>2011-05-27T14:04:56Z</time>
      </trkpt>
      <trkpt lat="49.70386" lon="4.7243">
        <ele>209</ele>
        <time>2011-05-27T14:04:57Z</time>
      </trkpt>
      <trkpt lat="49.7039" lon="4.72428">
        <ele>209</ele>
        <time>2011-05-27T14:04:58Z</time>
      </trkpt>
      <trkpt lat="49.70393" lon="4.72426">
        <ele>209</ele>
        <time>2011-05-27T14:04:59Z</time>
      </trkpt>
      <trkpt lat="49.70397" lon="4.72423">
        <ele>209</ele>
        <time>2011-05-27T14:05:00Z</time>
      </trkpt>
      <trkpt lat="49.70401" lon="4.72421">
        <ele>209</ele>
        <time>2011-05-27T14:05:01Z</time>
      </trkpt>
      <trkpt lat="49.70404" lon="4.72419">
        <ele>209</ele>
        <time>2011-05-27T14:05:02Z</time>
      </trkpt>
      <trkpt lat="49.70408" lon="4.72417">
        <ele>209</ele>
        <time>2011-05-27T14:05:03Z</time>
      </trkpt>
      <trkpt lat="49.70412" lon="4.72415">
        <ele>209</ele>
        <time>2011-05-27T14:05:04Z</time>
      </trkpt>
      <trkpt lat="49.70416" lon="4.72413">
        <ele>209</ele>
        <time>2011-05-27T14:05:05Z</time>
      </trkpt>
      <trkpt lat="49.7042" lon="4.72411">
        <ele>209</ele>
        <time>2011-05-27T14:05:06Z</time>
      </trkpt>
      <trkpt lat="49.70424" lon="4.72409">
        <ele>209</ele>
        <time>2011-05-27T14:05:07Z</time>
      </trkpt>
      <trkpt lat="49.70428" lon="4.72407">
        <ele>209</ele>
        <time>2011-05-27T14:05:08Z</time>
      </trkpt>
      <trkpt lat="49.70432" lon="4.72405">
        <ele>209</ele>
        <time>2011-05-27T14:05:09Z</time>
      </trkpt>
      <trkpt lat="49.70435" lon="4.72403">
        <ele>209</ele>
        <time>2011-05-27T14:05:10Z</time>
      </trkpt>
      <trkpt lat="49.7044" lon="4.72401">
        <ele>209</ele>
        <time>2011-05-27T14:05:11Z</time>
      </trkpt>
      <trkpt lat="49.70444" lon="4.72399">
        <ele>209</ele>
        <time>2011-05-27T14:05:12Z</time>
      </trkpt>
      <trkpt lat="49.70448" lon="4.72396">
        <ele>209</ele>
        <time>2011-05-27T14:05:13Z</time>
      </trkpt>
      <trkpt lat="49.70452" lon="4.72394">
        <ele>209</ele>
        <time>2011-05-27T14:05:14Z</time>
      </trkpt>
      <trkpt lat="49.70456" lon="4.72391">
        <ele>209</ele>
        <time>2011-05-27T14:05:15Z</time>
      </trkpt>
      <trkpt lat="49.70461" lon="4.72389">
        <ele>209</ele>
        <time>2011-05-27T14:05:16Z</time>
      </trkpt>
      <trkpt lat="49.70465" lon="4.72387">
        <ele>209</ele>
        <time>2011-05-27T14:05:17Z</time>
      </trkpt>
      <trkpt lat="49.70469" lon="4.72384">
        <ele>209</ele>
        <time>2011-05-27T14:05:18Z</time>
      </trkpt>
      <trkpt lat="49.70473" lon="4.72382">
        <ele>210</ele>
        <time>2011-05-27T14:05:19Z</time>
      </trkpt>
      <trkpt lat="49.70477" lon="4.7238">
        <ele>210</ele>
        <time>2011-05-27T14:05:20Z</time>
      </trkpt>
      <trkpt lat="49.70481" lon="4.72377">
        <ele>210</ele>
        <time>2011-05-27T14:05:21Z</time>
      </trkpt>
      <trkpt lat="49.70485" lon="4.72375">
        <ele>210</ele>
        <time>2011-05-27T14:05:22Z</time>
      </trkpt>
      <trkpt lat="49.70489" lon="4.72372">
        <ele>210</ele>
        <time>2011-05-27T14:05:23Z</time>
      </trkpt>
      <trkpt lat="49.70493" lon="4.7237">
        <ele>210</ele>
        <time>2011-05-27T14:05:24Z</time>
      </trkpt>
      <trkpt lat="49.70498" lon="4.72368">
        <ele>210</ele>
        <time>2011-05-27T14:05:25Z</time>
      </trkpt>
      <trkpt lat="49.70502" lon="4.72365">
        <ele>210</ele>
        <time>2011-05-27T14:05:26Z</time>
      </trkpt>
      <trkpt lat="49.70506" lon="4.72363">
        <ele>210</ele>
        <time>2011-05-27T14:05:27Z</time>
      </trkpt>
      <trkpt lat="49.7051" lon="4.7236">
        <ele>210</ele>
        <time>2011-05-27T14:05:28Z</time>
      </trkpt>
      <trkpt lat="49.70515" lon="4.72358">
        <ele>210</ele>
        <time>2011-05-27T14:05:29Z</time>
      </trkpt>
      <trkpt lat="49.70518" lon="4.72355">
        <ele>210</ele>
        <time>2011-05-27T14:05:30Z</time>
      </trkpt>
      <trkpt lat="49.70523" lon="4.72353">
        <ele>210</ele>
        <time>2011-05-27T14:05:31Z</time>
      </trkpt>
      <trkpt lat="49.70527" lon="4.7235">
        <ele>210</ele>
        <time>2011-05-27T14:05:32Z</time>
      </trkpt>
      <trkpt lat="49.7053" lon="4.72347">
        <ele>210</ele>
        <time>2011-05-27T14:05:33Z</time>
      </trkpt>
      <trkpt lat="49.70535" lon="4.72344">
        <ele>210</ele>
        <time>2011-05-27T14:05:34Z</time>
      </trkpt>
      <trkpt lat="49.70538" lon="4.72341">
        <ele>211</ele>
        <time>2011-05-27T14:05:35Z</time>
      </trkpt>
      <trkpt lat="49.70542" lon="4.72339">
        <ele>211</ele>
        <time>2011-05-27T14:05:36Z</time>
      </trkpt>
      <trkpt lat="49.70546" lon="4.72336">
        <ele>211</ele>
        <time>2011-05-27T14:05:37Z</time>
      </trkpt>
      <trkpt lat="49.7055" lon="4.72333">
        <ele>211</ele>
        <time>2011-05-27T14:05:38Z</time>
      </trkpt>
      <trkpt lat="49.70554" lon="4.72331">
        <ele>211</ele>
        <time>2011-05-27T14:05:39Z</time>
      </trkpt>
      <trkpt lat="49.70557" lon="4.72328">
        <ele>211</ele>
        <time>2011-05-27T14:05:40Z</time>
      </trkpt>
      <trkpt lat="49.70561" lon="4.72326">
        <ele>211</ele>
        <time>2011-05-27T14:05:41Z</time>
      </trkpt>
      <trkpt lat="49.70565" lon="4.72323">
        <ele>211</ele>
        <time>2011-05-27T14:05:42Z</time>
      </trkpt>
      <trkpt lat="49.70569" lon="4.7232">
        <ele>211</ele>
        <time>2011-05-27T14:05:43Z</time>
      </trkpt>
      <trkpt lat="49.70573" lon="4.72317">
        <ele>211</ele>
        <time>2011-05-27T14:05:44Z</time>
      </trkpt>
      <trkpt lat="49.70577" lon="4.72314">
        <ele>211</ele>
        <time>2011-05-27T14:05:45Z</time>
      </trkpt>
      <trkpt lat="49.70581" lon="4.72311">
        <ele>211</ele>
        <time>2011-05-27T14:05:46Z</time>
      </trkpt>
      <trkpt lat="49.70585" lon="4.72308">
        <ele>212</ele>
        <time>2011-05-27T14:05:47Z</time>
      </trkpt>
      <trkpt lat="49.70589" lon="4.72305">
        <ele>212</ele>
        <time>2011-05-27T14:05:48Z</time>
      </trkpt>
      <trkpt lat="49.70592" lon="4.72302">
        <ele>212</ele>
        <time>2011-05-27T14:05:49Z</time>
      </trkpt>
      <trkpt lat="49.70596" lon="4.723">
        <ele>212</ele>
        <time>2011-05-27T14:05:50Z</time>
      </trkpt>
      <trkpt lat="49.706" lon="4.72296">
        <ele>213</ele>
        <time>2011-05-27T14:05:51Z</time>
      </trkpt>
      <trkpt lat="49.70604" lon="4.72294">
        <ele>213</ele>
        <time>2011-05-27T14:05:52Z</time>
      </trkpt>
      <trkpt lat="49.70607" lon="4.72291">
        <ele>213</ele>
        <time>2011-05-27T14:05:53Z</time>
      </trkpt>
      <trkpt lat="49.70611" lon="4.72288">
        <ele>213</ele>
        <time>2011-05-27T14:05:54Z</time>
      </trkpt>
      <trkpt lat="49.70615" lon="4.72285">
        <ele>214</ele>
        <time>2011-05-27T14:05:55Z</time>
      </trkpt>
      <trkpt lat="49.70618" lon="4.72282">
        <ele>214</ele>
        <time>2011-05-27T14:05:56Z</time>
      </trkpt>
      <trkpt lat="49.70622" lon="4.72279">
        <ele>214</ele>
        <time>2011-05-27T14:05:57Z</time>
      </trkpt>
      <trkpt lat="49.70625" lon="4.72276">
        <ele>214</ele>
        <time>2011-05-27T14:05:58Z</time>
      </trkpt>
      <trkpt lat="49.70628" lon="4.72273">
        <ele>214</ele>
        <time>2011-05-27T14:05:59Z</time>
      </trkpt>
      <trkpt lat="49.70632" lon="4.7227">
        <ele>215</ele>
        <time>2011-05-27T14:06:00Z</time>
      </trkpt>
      <trkpt lat="49.70635" lon="4.72267">
        <ele>215</ele>
        <time>2011-05-27T14:06:01Z</time>
      </trkpt>
      <trkpt lat="49.70638" lon="4.72265">
        <ele>215</ele>
        <time>2011-05-27T14:06:02Z</time>
      </trkpt>
      <trkpt lat="49.70642" lon="4.72262">
        <ele>215</ele>
        <time>2011-05-27T14:06:03Z</time>
      </trkpt>
      <trkpt lat="49.70645" lon="4.7226">
        <ele>215</ele>
        <time>2011-05-27T14:06:04Z</time>
      </trkpt>
      <trkpt lat="49.70648" lon="4.72257">
        <ele>216</ele>
        <time>2011-05-27T14:06:05Z</time>
      </trkpt>
      <trkpt lat="49.70652" lon="4.72254">
        <ele>216</ele>
        <time>2011-05-27T14:06:06Z</time>
      </trkpt>
      <trkpt lat="49.70655" lon="4.72252">
        <ele>216</ele>
        <time>2011-05-27T14:06:07Z</time>
      </trkpt>
      <trkpt lat="49.70658" lon="4.7225">
        <ele>217</ele>
        <time>2011-05-27T14:06:08Z</time>
      </trkpt>
      <trkpt lat="49.70662" lon="4.72248">
        <ele>217</ele>
        <time>2011-05-27T14:06:09Z</time>
      </trkpt>
      <trkpt lat="49.70665" lon="4.72246">
        <ele>217</ele>
        <time>2011-05-27T14:06:10Z</time>
      </trkpt>
      <trkpt lat="49.70668" lon="4.72244">
        <ele>217</ele>
        <time>2011-05-27T14:06:11Z</time>
      </trkpt>
      <trkpt lat="49.70672" lon="4.72242">
        <ele>218</ele>
        <time>2011-05-27T14:06:12Z</time>
      </trkpt>
      <trkpt lat="49.70676" lon="4.72241">
        <ele>218</ele>
        <time>2011-05-27T14:06:13Z</time>
      </trkpt>
      <trkpt lat="49.70679" lon="4.72239">
        <ele>218</ele>
        <time>2011-05-27T14:06:14Z</time>
      </trkpt>
      <trkpt lat="49.70683" lon="4.72237">
        <ele>218</ele>
        <time>2011-05-27T14:06:15Z</time>
      </trkpt>
      <trkpt lat="49.70686" lon="4.72236">
        <ele>219</ele>
        <time>2011-05-27T14:06:16Z</time>
      </trkpt>
      <trkpt lat="49.7069" lon="4.72234">
        <ele>219</ele>
        <time>2011-05-27T14:06:17Z</time>
      </trkpt>
      <trkpt lat="49.70694" lon="4.72233">
        <ele>219</ele>
        <time>2011-05-27T14:06:18Z</time>
      </trkpt>
      <trkpt lat="49.70697" lon="4.72231">
        <ele>220</ele>
        <time>2011-05-27T14:06:19Z</time>
      </trkpt>
      <trkpt lat="49.707" lon="4.72229">
        <ele>220</ele>
        <time>2011-05-27T14:06:20Z</time>
      </trkpt>
      <trkpt lat="49.70704" lon="4.72227">
        <ele>220</ele>
        <time>2011-05-27T14:06:21Z</time>
      </trkpt>
      <trkpt lat="49.70707" lon="4.72225">
        <ele>220</ele>
        <time>2011-05-27T14:06:22Z</time>
      </trkpt>
      <trkpt lat="49.70711" lon="4.72224">
        <ele>221</ele>
        <time>2011-05-27T14:06:23Z</time>
      </trkpt>
      <trkpt lat="49.70714" lon="4.72222">
        <ele>221</ele>
        <time>2011-05-27T14:06:24Z</time>
      </trkpt>
      <trkpt lat="49.70717" lon="4.72221">
        <ele>221</ele>
        <time>2011-05-27T14:06:25Z</time>
      </trkpt>
      <trkpt lat="49.70721" lon="4.72219">
        <ele>221</ele>
        <time>2011-05-27T14:06:26Z</time>
      </trkpt>
      <trkpt lat="49.70724" lon="4.72217">
        <ele>221</ele>
        <time>2011-05-27T14:06:27Z</time>
      </trkpt>
      <trkpt lat="49.70727" lon="4.72215">
        <ele>222</ele>
        <time>2011-05-27T14:06:28Z</time>
      </trkpt>
      <trkpt lat="49.7073" lon="4.72213">
        <ele>222</ele>
        <time>2011-05-27T14:06:29Z</time>
      </trkpt>
      <trkpt lat="49.70734" lon="4.72212">
        <ele>222</ele>
        <time>2011-05-27T14:06:30Z</time>
      </trkpt>
      <trkpt lat="49.70737" lon="4.7221">
        <ele>222</ele>
        <time>2011-05-27T14:06:31Z</time>
      </trkpt>
      <trkpt lat="49.7074" lon="4.72207">
        <ele>222</ele>
        <time>2011-05-27T14:06:32Z</time>
      </trkpt>
      <trkpt lat="49.70743" lon="4.72205">
        <ele>222</ele>
        <time>2011-05-27T14:06:33Z</time>
      </trkpt>
      <trkpt lat="49.70747" lon="4.72203">
        <ele>222</ele>
        <time>2011-05-27T14:06:34Z</time>
      </trkpt>
      <trkpt lat="49.7075" lon="4.72201">
        <ele>222</ele>
        <time>2011-05-27T14:06:35Z</time>
      </trkpt>
      <trkpt lat="49.70753" lon="4.722">
        <ele>222</ele>
        <time>2011-05-27T14:06:36Z</time>
      </trkpt>
      <trkpt lat="49.70757" lon="4.72198">
        <ele>222</ele>
        <time>2011-05-27T14:06:37Z</time>
      </trkpt>
      <trkpt lat="49.7076" lon="4.72196">
        <ele>222</ele>
        <time>2011-05-27T14:06:38Z</time>
      </trkpt>
      <trkpt lat="49.70763" lon="4.72194">
        <ele>222</ele>
        <time>2011-05-27T14:06:39Z</time>
      </trkpt>
      <trkpt lat="49.70766" lon="4.72192">
        <ele>222</ele>
        <time>2011-05-27T14:06:40Z</time>
      </trkpt>
      <trkpt lat="49.7077" lon="4.72191">
        <ele>222</ele>
        <time>2011-05-27T14:06:41Z</time>
      </trkpt>
      <trkpt lat="49.70773" lon="4.7219">
        <ele>222</ele>
        <time>2011-05-27T14:06:42Z</time>
      </trkpt>
      <trkpt lat="49.70776" lon="4.72188">
        <ele>222</ele>
        <time>2011-05-27T14:06:43Z</time>
      </trkpt>
      <trkpt lat="49.70779" lon="4.72186">
        <ele>222</ele>
        <time>2011-05-27T14:06:44Z</time>
      </trkpt>
      <trkpt lat="49.70783" lon="4.72185">
        <ele>222</ele>
        <time>2011-05-27T14:06:45Z</time>
      </trkpt>
      <trkpt lat="49.70786" lon="4.72183">
        <ele>222</ele>
        <time>2011-05-27T14:06:46Z</time>
      </trkpt>
      <trkpt lat="49.70789" lon="4.72182">
        <ele>223</ele>
        <time>2011-05-27T14:06:47Z</time>
      </trkpt>
      <trkpt lat="49.70792" lon="4.72181">
        <ele>223</ele>
        <time>2011-05-27T14:06:48Z</time>
      </trkpt>
      <trkpt lat="49.70796" lon="4.72179">
        <ele>223</ele>
        <time>2011-05-27T14:06:49Z</time>
      </trkpt>
      <trkpt lat="49.708" lon="4.72177">
        <ele>223</ele>
        <time>2011-05-27T14:06:50Z</time>
      </trkpt>
      <trkpt lat="49.70803" lon="4.72176">
        <ele>223</ele>
        <time>2011-05-27T14:06:51Z</time>
      </trkpt>
      <trkpt lat="49.70807" lon="4.72174">
        <ele>224</ele>
        <time>2011-05-27T14:06:52Z</time>
      </trkpt>
      <trkpt lat="49.7081" lon="4.72172">
        <ele>224</ele>
        <time>2011-05-27T14:06:53Z</time>
      </trkpt>
      <trkpt lat="49.70814" lon="4.72171">
        <ele>224</ele>
        <time>2011-05-27T14:06:54Z</time>
      </trkpt>
      <trkpt lat="49.70818" lon="4.72169">
        <ele>224</ele>
        <time>2011-05-27T14:06:55Z</time>
      </trkpt>
      <trkpt lat="49.70821" lon="4.72168">
        <ele>225</ele>
        <time>2011-05-27T14:06:56Z</time>
      </trkpt>
      <trkpt lat="49.70825" lon="4.72167">
        <ele>225</ele>
        <time>2011-05-27T14:06:57Z</time>
      </trkpt>
      <trkpt lat="49.70829" lon="4.72165">
        <ele>226</ele>
        <time>2011-05-27T14:06:58Z</time>
      </trkpt>
      <trkpt lat="49.70833" lon="4.72164">
        <ele>226</ele>
        <time>2011-05-27T14:06:59Z</time>
      </trkpt>
      <trkpt lat="49.70837" lon="4.72162">
        <ele>226</ele>
        <time>2011-05-27T14:07:00Z</time>
      </trkpt>
      <trkpt lat="49.70841" lon="4.72161">
        <ele>226</ele>
        <time>2011-05-27T14:07:01Z</time>
      </trkpt>
      <trkpt lat="49.70845" lon="4.72159">
        <ele>227</ele>
        <time>2011-05-27T14:07:02Z</time>
      </trkpt>
      <trkpt lat="49.70849" lon="4.72158">
        <ele>227</ele>
        <time>2011-05-27T14:07:03Z</time>
      </trkpt>
      <trkpt lat="49.70853" lon="4.72156">
        <ele>227</ele>
        <time>2011-05-27T14:07:04Z</time>
      </trkpt>
      <trkpt lat="49.70856" lon="4.72153">
        <ele>227</ele>
        <time>2011-05-27T14:07:05Z</time>
      </trkpt>
      <trkpt lat="49.7086" lon="4.72151">
        <ele>228</ele>
        <time>2011-05-27T14:07:06Z</time>
      </trkpt>
      <trkpt lat="49.70864" lon="4.72148">
        <ele>228</ele>
        <time>2011-05-27T14:07:07Z</time>
      </trkpt>
      <trkpt lat="49.70867" lon="4.72144">
        <ele>228</ele>
        <time>2011-05-27T14:07:08Z</time>
      </trkpt>
      <trkpt lat="49.7087" lon="4.7214">
        <ele>228</ele>
        <time>2011-05-27T14:07:09Z</time>
      </trkpt>
      <trkpt lat="49.70873" lon="4.72136">
        <ele>228</ele>
        <time>2011-05-27T14:07:10Z</time>
      </trkpt>
      <trkpt lat="49.70875" lon="4.7213">
        <ele>228</ele>
        <time>2011-05-27T14:07:11Z</time>
      </trkpt>
      <trkpt lat="49.70877" lon="4.72125">
        <ele>228</ele>
        <time>2011-05-27T14:07:12Z</time>
      </trkpt>
      <trkpt lat="49.70879" lon="4.7212">
        <ele>228</ele>
        <time>2011-05-27T14:07:13Z</time>
      </trkpt>
      <trkpt lat="49.70882" lon="4.72115">
        <ele>228</ele>
        <time>2011-05-27T14:07:14Z</time>
      </trkpt>
      <trkpt lat="49.70885" lon="4.72111">
        <ele>228</ele>
        <time>2011-05-27T14:07:15Z</time>
      </trkpt>
      <trkpt lat="49.70889" lon="4.72108">
        <ele>228</ele>
        <time>2011-05-27T14:07:16Z</time>
      </trkpt>
      <trkpt lat="49.70894" lon="4.72105">
        <ele>228</ele>
        <time>2011-05-27T14:07:17Z</time>
      </trkpt>
      <trkpt lat="49.70898" lon="4.72104">
        <ele>228</ele>
        <time>2011-05-27T14:07:18Z</time>
      </trkpt>
      <trkpt lat="49.70902" lon="4.72102">
        <ele>228</ele>
        <time>2011-05-27T14:07:19Z</time>
      </trkpt>
      <trkpt lat="49.70906" lon="4.721">
        <ele>228</ele>
        <time>2011-05-27T14:07:20Z</time>
      </trkpt>
      <trkpt lat="49.70909" lon="4.72096">
        <ele>228</ele>
        <time>2011-05-27T14:07:21Z</time>
      </trkpt>
      <trkpt lat="49.70913" lon="4.72095">
        <ele>228</ele>
        <time>2011-05-27T14:07:22Z</time>
      </trkpt>
      <trkpt lat="49.70918" lon="4.72094">
        <ele>228</ele>
        <time>2011-05-27T14:07:23Z</time>
      </trkpt>
      <trkpt lat="49.70923" lon="4.72093">
        <ele>228</ele>
        <time>2011-05-27T14:07:24Z</time>
      </trkpt>
      <trkpt lat="49.70929" lon="4.72091">
        <ele>228</ele>
        <time>2011-05-27T14:07:25Z</time>
      </trkpt>
      <trkpt lat="49.70934" lon="4.7209">
        <ele>228</ele>
        <time>2011-05-27T14:07:26Z</time>
      </trkpt>
      <trkpt lat="49.70937" lon="4.72089">
        <ele>228</ele>
        <time>2011-05-27T14:07:27Z</time>
      </trkpt>
      <trkpt lat="49.7094" lon="4.72089">
        <ele>228</ele>
        <time>2011-05-27T14:07:28Z</time>
      </trkpt>
      <trkpt lat="49.70941" lon="4.72089">
        <ele>228</ele>
        <time>2011-05-27T14:07:29Z</time>
      </trkpt>
      <trkpt lat="49.70943" lon="4.72088">
        <ele>228</ele>
        <time>2011-05-27T14:07:30Z</time>
      </trkpt>
      <trkpt lat="49.70945" lon="4.72088">
        <ele>228</ele>
        <time>2011-05-27T14:07:31Z</time>
      </trkpt>
      <trkpt lat="49.70947" lon="4.72089">
        <ele>228</ele>
        <time>2011-05-27T14:07:33Z</time>
      </trkpt>
      <trkpt lat="49.70948" lon="4.72086">
        <ele>228</ele>
        <time>2011-05-27T14:07:41Z</time>
      </trkpt>
      <trkpt lat="49.7095" lon="4.72086">
        <ele>228</ele>
        <time>2011-05-27T14:07:42Z</time>
      </trkpt>
      <trkpt lat="49.70952" lon="4.72086">
        <ele>228</ele>
        <time>2011-05-27T14:07:43Z</time>
      </trkpt>
      <trkpt lat="49.70954" lon="4.72086">
        <ele>228</ele>
        <time>2011-05-27T14:07:44Z</time>
      </trkpt>
      <trkpt lat="49.70956" lon="4.72087">
        <ele>228</ele>
        <time>2011-05-27T14:07:45Z</time>
      </trkpt>
      <trkpt lat="49.7096" lon="4.72088">
        <ele>228</ele>
        <time>2011-05-27T14:07:46Z</time>
      </trkpt>
      <trkpt lat="49.70964" lon="4.72089">
        <ele>229</ele>
        <time>2011-05-27T14:07:47Z</time>
      </trkpt>
      <trkpt lat="49.70968" lon="4.7209">
        <ele>229</ele>
        <time>2011-05-27T14:07:48Z</time>
      </trkpt>
      <trkpt lat="49.70972" lon="4.7209">
        <ele>230</ele>
        <time>2011-05-27T14:07:49Z</time>
      </trkpt>
      <trkpt lat="49.70977" lon="4.72092">
        <ele>230</ele>
        <time>2011-05-27T14:07:50Z</time>
      </trkpt>
      <trkpt lat="49.70982" lon="4.72094">
        <ele>230</ele>
        <time>2011-05-27T14:07:51Z</time>
      </trkpt>
      <trkpt lat="49.70988" lon="4.72095">
        <ele>230</ele>
        <time>2011-05-27T14:07:52Z</time>
      </trkpt>
      <trkpt lat="49.70993" lon="4.72096">
        <ele>231</ele>
        <time>2011-05-27T14:07:53Z</time>
      </trkpt>
      <trkpt lat="49.70998" lon="4.72097">
        <ele>231</ele>
        <time>2011-05-27T14:07:54Z</time>
      </trkpt>
      <trkpt lat="49.71002" lon="4.72098">
        <ele>231</ele>
        <time>2011-05-27T14:07:55Z</time>
      </trkpt>
      <trkpt lat="49.71006" lon="4.72099">
        <ele>231</ele>
        <time>2011-05-27T14:07:56Z</time>
      </trkpt>
      <trkpt lat="49.71012" lon="4.721">
        <ele>231</ele>
        <time>2011-05-27T14:07:57Z</time>
      </trkpt>
      <trkpt lat="49.71017" lon="4.72101">
        <ele>231</ele>
        <time>2011-05-27T14:07:58Z</time>
      </trkpt>
      <trkpt lat="49.71022" lon="4.721">
        <ele>231</ele>
        <time>2011-05-27T14:07:59Z</time>
      </trkpt>
      <trkpt lat="49.71027" lon="4.721">
        <ele>231</ele>
        <time>2011-05-27T14:08:00Z</time>
      </trkpt>
      <trkpt lat="49.71033" lon="4.721">
        <ele>231</ele>
        <time>2011-05-27T14:08:01Z</time>
      </trkpt>
      <trkpt lat="49.71038" lon="4.721">
        <ele>231</ele>
        <time>2011-05-27T14:08:02Z</time>
      </trkpt>
      <trkpt lat="49.71043" lon="4.721">
        <ele>231</ele>
        <time>2011-05-27T14:08:03Z</time>
      </trkpt>
      <trkpt lat="49.71048" lon="4.721">
        <ele>231</ele>
        <time>2011-05-27T14:08:04Z</time>
      </trkpt>
      <trkpt lat="49.71054" lon="4.72099">
        <ele>231</ele>
        <time>2011-05-27T14:08:05Z</time>
      </trkpt>
      <trkpt lat="49.7106" lon="4.72098">
        <ele>231</ele>
        <time>2011-05-27T14:08:06Z</time>
      </trkpt>
      <trkpt lat="49.71066" lon="4.72097">
        <ele>231</ele>
        <time>2011-05-27T14:08:07Z</time>
      </trkpt>
      <trkpt lat="49.71072" lon="4.72096">
        <ele>230</ele>
        <time>2011-05-27T14:08:08Z</time>
      </trkpt>
      <trkpt lat="49.71078" lon="4.72096">
        <ele>230</ele>
        <time>2011-05-27T14:08:09Z</time>
      </trkpt>
      <trkpt lat="49.71083" lon="4.72097">
        <ele>229</ele>
        <time>2011-05-27T14:08:10Z</time>
      </trkpt>
      <trkpt lat="49.71088" lon="4.72097">
        <ele>229</ele>
        <time>2011-05-27T14:08:11Z</time>
      </trkpt>
      <trkpt lat="49.71094" lon="4.72099">
        <ele>229</ele>
        <time>2011-05-27T14:08:12Z</time>
      </trkpt>
      <trkpt lat="49.71101" lon="4.72101">
        <ele>229</ele>
        <time>2011-05-27T14:08:13Z</time>
      </trkpt>
      <trkpt lat="49.71107" lon="4.72104">
        <ele>229</ele>
        <time>2011-05-27T14:08:14Z</time>
      </trkpt>
      <trkpt lat="49.71114" lon="4.72108">
        <ele>228</ele>
        <time>2011-05-27T14:08:15Z</time>
      </trkpt>
      <trkpt lat="49.7112" lon="4.72111">
        <ele>228</ele>
        <time>2011-05-27T14:08:16Z</time>
      </trkpt>
      <trkpt lat="49.71127" lon="4.72115">
        <ele>228</ele>
        <time>2011-05-27T14:08:17Z</time>
      </trkpt>
      <trkpt lat="49.71135" lon="4.72119">
        <ele>228</ele>
        <time>2011-05-27T14:08:18Z</time>
      </trkpt>
      <trkpt lat="49.71142" lon="4.72124">
        <ele>227</ele>
        <time>2011-05-27T14:08:19Z</time>
      </trkpt>
      <trkpt lat="49.7115" lon="4.72128">
        <ele>227</ele>
        <time>2011-05-27T14:08:20Z</time>
      </trkpt>
      <trkpt lat="49.71157" lon="4.72133">
        <ele>226</ele>
        <time>2011-05-27T14:08:21Z</time>
      </trkpt>
      <trkpt lat="49.71166" lon="4.72138">
        <ele>225</ele>
        <time>2011-05-27T14:08:22Z</time>
      </trkpt>
      <trkpt lat="49.71174" lon="4.72143">
        <ele>225</ele>
        <time>2011-05-27T14:08:23Z</time>
      </trkpt>
      <trkpt lat="49.71182" lon="4.72149">
        <ele>224</ele>
        <time>2011-05-27T14:08:24Z</time>
      </trkpt>
      <trkpt lat="49.71189" lon="4.72154">
        <ele>223</ele>
        <time>2011-05-27T14:08:25Z</time>
      </trkpt>
      <trkpt lat="49.71196" lon="4.72159">
        <ele>222</ele>
        <time>2011-05-27T14:08:26Z</time>
      </trkpt>
      <trkpt lat="49.71204" lon="4.72165">
        <ele>222</ele>
        <time>2011-05-27T14:08:27Z</time>
      </trkpt>
      <trkpt lat="49.7121" lon="4.72171">
        <ele>221</ele>
        <time>2011-05-27T14:08:28Z</time>
      </trkpt>
      <trkpt lat="49.71216" lon="4.72178">
        <ele>220</ele>
        <time>2011-05-27T14:08:29Z</time>
      </trkpt>
      <trkpt lat="49.71221" lon="4.72185">
        <ele>220</ele>
        <time>2011-05-27T14:08:30Z</time>
      </trkpt>
      <trkpt lat="49.71225" lon="4.72192">
        <ele>219</ele>
        <time>2011-05-27T14:08:31Z</time>
      </trkpt>
      <trkpt lat="49.71229" lon="4.72199">
        <ele>218</ele>
        <time>2011-05-27T14:08:32Z</time>
      </trkpt>
      <trkpt lat="49.71232" lon="4.72205">
        <ele>217</ele>
        <time>2011-05-27T14:08:33Z</time>
      </trkpt>
      <trkpt lat="49.71235" lon="4.72212">
        <ele>217</ele>
        <time>2011-05-27T14:08:34Z</time>
      </trkpt>
      <trkpt lat="49.71238" lon="4.72219">
        <ele>216</ele>
        <time>2011-05-27T14:08:35Z</time>
      </trkpt>
      <trkpt lat="49.7124" lon="4.72227">
        <ele>215</ele>
        <time>2011-05-27T14:08:36Z</time>
      </trkpt>
      <trkpt lat="49.71241" lon="4.72237">
        <ele>215</ele>
        <time>2011-05-27T14:08:37Z</time>
      </trkpt>
      <trkpt lat="49.71243" lon="4.72246">
        <ele>214</ele>
        <time>2011-05-27T14:08:38Z</time>
      </trkpt>
      <trkpt lat="49.71244" lon="4.72256">
        <ele>214</ele>
        <time>2011-05-27T14:08:39Z</time>
      </trkpt>
      <trkpt lat="49.71246" lon="4.72265">
        <ele>213</ele>
        <time>2011-05-27T14:08:40Z</time>
      </trkpt>
      <trkpt lat="49.71249" lon="4.72273">
        <ele>212</ele>
        <time>2011-05-27T14:08:41Z</time>
      </trkpt>
      <trkpt lat="49.71252" lon="4.72279">
        <ele>212</ele>
        <time>2011-05-27T14:08:42Z</time>
      </trkpt>
      <trkpt lat="49.71256" lon="4.72285">
        <ele>211</ele>
        <time>2011-05-27T14:08:43Z</time>
      </trkpt>
      <trkpt lat="49.71261" lon="4.72289">
        <ele>210</ele>
        <time>2011-05-27T14:08:44Z</time>
      </trkpt>
      <trkpt lat="49.71265" lon="4.72293">
        <ele>210</ele>
        <time>2011-05-27T14:08:45Z</time>
      </trkpt>
      <trkpt lat="49.7127" lon="4.72297">
        <ele>209</ele>
        <time>2011-05-27T14:08:46Z</time>
      </trkpt>
      <trkpt lat="49.71274" lon="4.72302">
        <ele>209</ele>
        <time>2011-05-27T14:08:47Z</time>
      </trkpt>
      <trkpt lat="49.71279" lon="4.72307">
        <ele>208</ele>
        <time>2011-05-27T14:08:48Z</time>
      </trkpt>
      <trkpt lat="49.71283" lon="4.72312">
        <ele>207</ele>
        <time>2011-05-27T14:08:49Z</time>
      </trkpt>
      <trkpt lat="49.71288" lon="4.72317">
        <ele>207</ele>
        <time>2011-05-27T14:08:50Z</time>
      </trkpt>
      <trkpt lat="49.71292" lon="4.72322">
        <ele>206</ele>
        <time>2011-05-27T14:08:51Z</time>
      </trkpt>
      <trkpt lat="49.71297" lon="4.72327">
        <ele>206</ele>
        <time>2011-05-27T14:08:52Z</time>
      </trkpt>
      <trkpt lat="49.71302" lon="4.72332">
        <ele>205</ele>
        <time>2011-05-27T14:08:53Z</time>
      </trkpt>
      <trkpt lat="49.71308" lon="4.72337">
        <ele>204</ele>
        <time>2011-05-27T14:08:54Z</time>
      </trkpt>
      <trkpt lat="49.71313" lon="4.72342">
        <ele>204</ele>
        <time>2011-05-27T14:08:55Z</time>
      </trkpt>
      <trkpt lat="49.71319" lon="4.72347">
        <ele>203</ele>
        <time>2011-05-27T14:08:56Z</time>
      </trkpt>
      <trkpt lat="49.71325" lon="4.72353">
        <ele>202</ele>
        <time>2011-05-27T14:08:57Z</time>
      </trkpt>
      <trkpt lat="49.71331" lon="4.72358">
        <ele>201</ele>
        <time>2011-05-27T14:08:58Z</time>
      </trkpt>
      <trkpt lat="49.71337" lon="4.72364">
        <ele>200</ele>
        <time>2011-05-27T14:08:59Z</time>
      </trkpt>
      <trkpt lat="49.71343" lon="4.72369">
        <ele>199</ele>
        <time>2011-05-27T14:09:00Z</time>
      </trkpt>
      <trkpt lat="49.71349" lon="4.72375">
        <ele>198</ele>
        <time>2011-05-27T14:09:01Z</time>
      </trkpt>
      <trkpt lat="49.71354" lon="4.72383">
        <ele>197</ele>
        <time>2011-05-27T14:09:02Z</time>
      </trkpt>
      <trkpt lat="49.7136" lon="4.72391">
        <ele>196</ele>
        <time>2011-05-27T14:09:03Z</time>
      </trkpt>
      <trkpt lat="49.71367" lon="4.72399">
        <ele>195</ele>
        <time>2011-05-27T14:09:04Z</time>
      </trkpt>
      <trkpt lat="49.71373" lon="4.72406">
        <ele>194</ele>
        <time>2011-05-27T14:09:05Z</time>
      </trkpt>
      <trkpt lat="49.71381" lon="4.72414">
        <ele>194</ele>
        <time>2011-05-27T14:09:06Z</time>
      </trkpt>
      <trkpt lat="49.71388" lon="4.72421">
        <ele>193</ele>
        <time>2011-05-27T14:09:07Z</time>
      </trkpt>
      <trkpt lat="49.71394" lon="4.72428">
        <ele>192</ele>
        <time>2011-05-27T14:09:08Z</time>
      </trkpt>
      <trkpt lat="49.71401" lon="4.72435">
        <ele>191</ele>
        <time>2011-05-27T14:09:09Z</time>
      </trkpt>
      <trkpt lat="49.71407" lon="4.72442">
        <ele>191</ele>
        <time>2011-05-27T14:09:10Z</time>
      </trkpt>
      <trkpt lat="49.71414" lon="4.72449">
        <ele>191</ele>
        <time>2011-05-27T14:09:11Z</time>
      </trkpt>
      <trkpt lat="49.7142" lon="4.72456">
        <ele>191</ele>
        <time>2011-05-27T14:09:12Z</time>
      </trkpt>
      <trkpt lat="49.71426" lon="4.72462">
        <ele>191</ele>
        <time>2011-05-27T14:09:13Z</time>
      </trkpt>
      <trkpt lat="49.71432" lon="4.72469">
        <ele>190</ele>
        <time>2011-05-27T14:09:14Z</time>
      </trkpt>
      <trkpt lat="49.71438" lon="4.72476">
        <ele>190</ele>
        <time>2011-05-27T14:09:15Z</time>
      </trkpt>
      <trkpt lat="49.71443" lon="4.72483">
        <ele>189</ele>
        <time>2011-05-27T14:09:16Z</time>
      </trkpt>
      <trkpt lat="49.71449" lon="4.72491">
        <ele>189</ele>
        <time>2011-05-27T14:09:17Z</time>
      </trkpt>
      <trkpt lat="49.71455" lon="4.72499">
        <ele>188</ele>
        <time>2011-05-27T14:09:18Z</time>
      </trkpt>
      <trkpt lat="49.71461" lon="4.72507">
        <ele>188</ele>
        <time>2011-05-27T14:09:19Z</time>
      </trkpt>
      <trkpt lat="49.71468" lon="4.72514">
        <ele>188</ele>
        <time>2011-05-27T14:09:20Z</time>
      </trkpt>
      <trkpt lat="49.71475" lon="4.72522">
        <ele>188</ele>
        <time>2011-05-27T14:09:21Z</time>
      </trkpt>
      <trkpt lat="49.71482" lon="4.7253">
        <ele>188</ele>
        <time>2011-05-27T14:09:22Z</time>
      </trkpt>
      <trkpt lat="49.71488" lon="4.72537">
        <ele>187</ele>
        <time>2011-05-27T14:09:23Z</time>
      </trkpt>
      <trkpt lat="49.71495" lon="4.72544">
        <ele>186</ele>
        <time>2011-05-27T14:09:24Z</time>
      </trkpt>
      <trkpt lat="49.71502" lon="4.72551">
        <ele>186</ele>
        <time>2011-05-27T14:09:25Z</time>
      </trkpt>
      <trkpt lat="49.71508" lon="4.72558">
        <ele>185</ele>
        <time>2011-05-27T14:09:26Z</time>
      </trkpt>
      <trkpt lat="49.71514" lon="4.72564">
        <ele>185</ele>
        <time>2011-05-27T14:09:27Z</time>
      </trkpt>
      <trkpt lat="49.7152" lon="4.7257">
        <ele>184</ele>
        <time>2011-05-27T14:09:28Z</time>
      </trkpt>
      <trkpt lat="49.71527" lon="4.72579">
        <ele>184</ele>
        <time>2011-05-27T14:09:29Z</time>
      </trkpt>
      <trkpt lat="49.71532" lon="4.72585">
        <ele>184</ele>
        <time>2011-05-27T14:09:30Z</time>
      </trkpt>
      <trkpt lat="49.71538" lon="4.72591">
        <ele>184</ele>
        <time>2011-05-27T14:09:31Z</time>
      </trkpt>
      <trkpt lat="49.71544" lon="4.72598">
        <ele>184</ele>
        <time>2011-05-27T14:09:32Z</time>
      </trkpt>
      <trkpt lat="49.71552" lon="4.72604">
        <ele>184</ele>
        <time>2011-05-27T14:09:33Z</time>
      </trkpt>
      <trkpt lat="49.71558" lon="4.7261">
        <ele>184</ele>
        <time>2011-05-27T14:09:34Z</time>
      </trkpt>
      <trkpt lat="49.71565" lon="4.72614">
        <ele>184</ele>
        <time>2011-05-27T14:09:35Z</time>
      </trkpt>
      <trkpt lat="49.71572" lon="4.72618">
        <ele>185</ele>
        <time>2011-05-27T14:09:36Z</time>
      </trkpt>
      <trkpt lat="49.71578" lon="4.72621">
        <ele>186</ele>
        <time>2011-05-27T14:09:37Z</time>
      </trkpt>
      <trkpt lat="49.71584" lon="4.72626">
        <ele>187</ele>
        <time>2011-05-27T14:09:38Z</time>
      </trkpt>
      <trkpt lat="49.71589" lon="4.72633">
        <ele>187</ele>
        <time>2011-05-27T14:09:39Z</time>
      </trkpt>
      <trkpt lat="49.71593" lon="4.72639">
        <ele>187</ele>
        <time>2011-05-27T14:09:40Z</time>
      </trkpt>
      <trkpt lat="49.71597" lon="4.72644">
        <ele>187</ele>
        <time>2011-05-27T14:09:41Z</time>
      </trkpt>
      <trkpt lat="49.71601" lon="4.72649">
        <ele>187</ele>
        <time>2011-05-27T14:09:42Z</time>
      </trkpt>
      <trkpt lat="49.71607" lon="4.72653">
        <ele>187</ele>
        <time>2011-05-27T14:09:43Z</time>
      </trkpt>
      <trkpt lat="49.71613" lon="4.72656">
        <ele>187</ele>
        <time>2011-05-27T14:09:44Z</time>
      </trkpt>
      <trkpt lat="49.71618" lon="4.72658">
        <ele>187</ele>
        <time>2011-05-27T14:09:45Z</time>
      </trkpt>
      <trkpt lat="49.71624" lon="4.72659">
        <ele>187</ele>
        <time>2011-05-27T14:09:46Z</time>
      </trkpt>
      <trkpt lat="49.71629" lon="4.7266">
        <ele>187</ele>
        <time>2011-05-27T14:09:47Z</time>
      </trkpt>
      <trkpt lat="49.71635" lon="4.72661">
        <ele>187</ele>
        <time>2011-05-27T14:09:48Z</time>
      </trkpt>
      <trkpt lat="49.71639" lon="4.72662">
        <ele>187</ele>
        <time>2011-05-27T14:09:49Z</time>
      </trkpt>
      <trkpt lat="49.71644" lon="4.72664">
        <ele>187</ele>
        <time>2011-05-27T14:09:50Z</time>
      </trkpt>
      <trkpt lat="49.71649" lon="4.72666">
        <ele>187</ele>
        <time>2011-05-27T14:09:51Z</time>
      </trkpt>
      <trkpt lat="49.71654" lon="4.72667">
        <ele>187</ele>
        <time>2011-05-27T14:09:52Z</time>
      </trkpt>
      <trkpt lat="49.71659" lon="4.72668">
        <ele>187</ele>
        <time>2011-05-27T14:09:53Z</time>
      </trkpt>
      <trkpt lat="49.71664" lon="4.7267">
        <ele>187</ele>
        <time>2011-05-27T14:09:54Z</time>
      </trkpt>
      <trkpt lat="49.71669" lon="4.72673">
        <ele>187</ele>
        <time>2011-05-27T14:09:55Z</time>
      </trkpt>
      <trkpt lat="49.71673" lon="4.72677">
        <ele>187</ele>
        <time>2011-05-27T14:09:56Z</time>
      </trkpt>
      <trkpt lat="49.71677" lon="4.72682">
        <ele>187</ele>
        <time>2011-05-27T14:09:57Z</time>
      </trkpt>
      <trkpt lat="49.71681" lon="4.72687">
        <ele>187</ele>
        <time>2011-05-27T14:09:58Z</time>
      </trkpt>
      <trkpt lat="49.71685" lon="4.72692">
        <ele>187</ele>
        <time>2011-05-27T14:09:59Z</time>
      </trkpt>
      <trkpt lat="49.71688" lon="4.72698">
        <ele>187</ele>
        <time>2011-05-27T14:10:00Z</time>
      </trkpt>
      <trkpt lat="49.71692" lon="4.72705">
        <ele>186</ele>
        <time>2011-05-27T14:10:01Z</time>
      </trkpt>
      <trkpt lat="49.71695" lon="4.72711">
        <ele>185</ele>
        <time>2011-05-27T14:10:02Z</time>
      </trkpt>
      <trkpt lat="49.71699" lon="4.72718">
        <ele>184</ele>
        <time>2011-05-27T14:10:03Z</time>
      </trkpt>
      <trkpt lat="49.71703" lon="4.72726">
        <ele>183</ele>
        <time>2011-05-27T14:10:04Z</time>
      </trkpt>
      <trkpt lat="49.71707" lon="4.72734">
        <ele>182</ele>
        <time>2011-05-27T14:10:05Z</time>
      </trkpt>
      <trkpt lat="49.71711" lon="4.72742">
        <ele>181</ele>
        <time>2011-05-27T14:10:06Z</time>
      </trkpt>
      <trkpt lat="49.71716" lon="4.7275">
        <ele>180</ele>
        <time>2011-05-27T14:10:07Z</time>
      </trkpt>
      <trkpt lat="49.71719" lon="4.72758">
        <ele>179</ele>
        <time>2011-05-27T14:10:08Z</time>
      </trkpt>
      <trkpt lat="49.71723" lon="4.72767">
        <ele>178</ele>
        <time>2011-05-27T14:10:09Z</time>
      </trkpt>
      <trkpt lat="49.71727" lon="4.72774">
        <ele>177</ele>
        <time>2011-05-27T14:10:10Z</time>
      </trkpt>
      <trkpt lat="49.71731" lon="4.72781">
        <ele>176</ele>
        <time>2011-05-27T14:10:11Z</time>
      </trkpt>
      <trkpt lat="49.71734" lon="4.72788">
        <ele>175</ele>
        <time>2011-05-27T14:10:12Z</time>
      </trkpt>
      <trkpt lat="49.71738" lon="4.72795">
        <ele>174</ele>
        <time>2011-05-27T14:10:13Z</time>
      </trkpt>
      <trkpt lat="49.71742" lon="4.72802">
        <ele>173</ele>
        <time>2011-05-27T14:10:14Z</time>
      </trkpt>
      <trkpt lat="49.71745" lon="4.7281">
        <ele>172</ele>
        <time>2011-05-27T14:10:15Z</time>
      </trkpt>
      <trkpt lat="49.71748" lon="4.72817">
        <ele>171</ele>
        <time>2011-05-27T14:10:16Z</time>
      </trkpt>
      <trkpt lat="49.71753" lon="4.72826">
        <ele>170</ele>
        <time>2011-05-27T14:10:17Z</time>
      </trkpt>
      <trkpt lat="49.71758" lon="4.72835">
        <ele>169</ele>
        <time>2011-05-27T14:10:18Z</time>
      </trkpt>
      <trkpt lat="49.71762" lon="4.72844">
        <ele>169</ele>
        <time>2011-05-27T14:10:19Z</time>
      </trkpt>
      <trkpt lat="49.71766" lon="4.72852">
        <ele>168</ele>
        <time>2011-05-27T14:10:20Z</time>
      </trkpt>
      <trkpt lat="49.71771" lon="4.7286">
        <ele>167</ele>
        <time>2011-05-27T14:10:21Z</time>
      </trkpt>
      <trkpt lat="49.71775" lon="4.72868">
        <ele>166</ele>
        <time>2011-05-27T14:10:22Z</time>
      </trkpt>
      <trkpt lat="49.71779" lon="4.72878">
        <ele>165</ele>
        <time>2011-05-27T14:10:23Z</time>
      </trkpt>
      <trkpt lat="49.71782" lon="4.72886">
        <ele>164</ele>
        <time>2011-05-27T14:10:24Z</time>
      </trkpt>
      <trkpt lat="49.71785" lon="4.72894">
        <ele>164</ele>
        <time>2011-05-27T14:10:25Z</time>
      </trkpt>
      <trkpt lat="49.71788" lon="4.729">
        <ele>164</ele>
        <time>2011-05-27T14:10:26Z</time>
      </trkpt>
      <trkpt lat="49.71791" lon="4.72905">
        <ele>164</ele>
        <time>2011-05-27T14:10:27Z</time>
      </trkpt>
      <trkpt lat="49.71794" lon="4.72911">
        <ele>164</ele>
        <time>2011-05-27T14:10:28Z</time>
      </trkpt>
      <trkpt lat="49.71797" lon="4.72917">
        <ele>164</ele>
        <time>2011-05-27T14:10:29Z</time>
      </trkpt>
      <trkpt lat="49.71801" lon="4.72924">
        <ele>164</ele>
        <time>2011-05-27T14:10:30Z</time>
      </trkpt>
      <trkpt lat="49.71804" lon="4.72929">
        <ele>164</ele>
        <time>2011-05-27T14:10:31Z</time>
      </trkpt>
      <trkpt lat="49.71806" lon="4.72929">
        <ele>165</ele>
        <time>2011-05-27T14:10:32Z</time>
      </trkpt>
      <trkpt lat="49.71809" lon="4.72927">
        <ele>166</ele>
        <time>2011-05-27T14:10:33Z</time>
      </trkpt>
      <trkpt lat="49.71812" lon="4.72923">
        <ele>167</ele>
        <time>2011-05-27T14:10:34Z</time>
      </trkpt>
      <trkpt lat="49.71818" lon="4.72921">
        <ele>168</ele>
        <time>2011-05-27T14:10:35Z</time>
      </trkpt>
      <trkpt lat="49.71822" lon="4.72917">
        <ele>169</ele>
        <time>2011-05-27T14:10:36Z</time>
      </trkpt>
      <trkpt lat="49.71827" lon="4.72915">
        <ele>170</ele>
        <time>2011-05-27T14:10:37Z</time>
      </trkpt>
      <trkpt lat="49.71831" lon="4.7291">
        <ele>171</ele>
        <time>2011-05-27T14:10:38Z</time>
      </trkpt>
      <trkpt lat="49.71834" lon="4.72905">
        <ele>172</ele>
        <time>2011-05-27T14:10:39Z</time>
      </trkpt>
      <trkpt lat="49.71837" lon="4.72901">
        <ele>173</ele>
        <time>2011-05-27T14:10:40Z</time>
      </trkpt>
      <trkpt lat="49.7184" lon="4.72898">
        <ele>174</ele>
        <time>2011-05-27T14:10:41Z</time>
      </trkpt>
      <trkpt lat="49.71844" lon="4.72894">
        <ele>175</ele>
        <time>2011-05-27T14:10:42Z</time>
      </trkpt>
      <trkpt lat="49.71848" lon="4.72891">
        <ele>176</ele>
        <time>2011-05-27T14:10:43Z</time>
      </trkpt>
      <trkpt lat="49.71852" lon="4.72887">
        <ele>177</ele>
        <time>2011-05-27T14:10:44Z</time>
      </trkpt>
      <trkpt lat="49.71856" lon="4.72881">
        <ele>178</ele>
        <time>2011-05-27T14:10:45Z</time>
      </trkpt>
      <trkpt lat="49.71859" lon="4.72876">
        <ele>179</ele>
        <time>2011-05-27T14:10:46Z</time>
      </trkpt>
      <trkpt lat="49.71863" lon="4.72874">
        <ele>180</ele>
        <time>2011-05-27T14:10:47Z</time>
      </trkpt>
      <trkpt lat="49.71867" lon="4.72871">
        <ele>181</ele>
        <time>2011-05-27T14:10:48Z</time>
      </trkpt>
      <trkpt lat="49.7187" lon="4.72867">
        <ele>182</ele>
        <time>2011-05-27T14:10:49Z</time>
      </trkpt>
      <trkpt lat="49.71873" lon="4.72862">
        <ele>183</ele>
        <time>2011-05-27T14:10:50Z</time>
      </trkpt>
      <trkpt lat="49.71877" lon="4.72857">
        <ele>184</ele>
        <time>2011-05-27T14:10:51Z</time>
      </trkpt>
      <trkpt lat="49.7188" lon="4.7285">
        <ele>185</ele>
        <time>2011-05-27T14:10:52Z</time>
      </trkpt>
      <trkpt lat="49.71883" lon="4.72846">
        <ele>186</ele>
        <time>2011-05-27T14:10:53Z</time>
      </trkpt>
      <trkpt lat="49.71887" lon="4.72842">
        <ele>187</ele>
        <time>2011-05-27T14:10:54Z</time>
      </trkpt>
      <trkpt lat="49.7189" lon="4.72841">
        <ele>188</ele>
        <time>2011-05-27T14:10:55Z</time>
      </trkpt>
      <trkpt lat="49.71896" lon="4.72844">
        <ele>189</ele>
        <time>2011-05-27T14:10:56Z</time>
      </trkpt>
      <trkpt lat="49.71901" lon="4.72845">
        <ele>190</ele>
        <time>2011-05-27T14:10:57Z</time>
      </trkpt>
      <trkpt lat="49.71906" lon="4.72845">
        <ele>191</ele>
        <time>2011-05-27T14:10:58Z</time>
      </trkpt>
      <trkpt lat="49.71912" lon="4.72848">
        <ele>192</ele>
        <time>2011-05-27T14:10:59Z</time>
      </trkpt>
      <trkpt lat="49.71916" lon="4.72849">
        <ele>193</ele>
        <time>2011-05-27T14:11:00Z</time>
      </trkpt>
      <trkpt lat="49.7192" lon="4.72852">
        <ele>194</ele>
        <time>2011-05-27T14:11:01Z</time>
      </trkpt>
      <trkpt lat="49.71924" lon="4.72855">
        <ele>195</ele>
        <time>2011-05-27T14:11:02Z</time>
      </trkpt>
      <trkpt lat="49.71928" lon="4.72856">
        <ele>196</ele>
        <time>2011-05-27T14:11:03Z</time>
      </trkpt>
      <trkpt lat="49.71932" lon="4.72859">
        <ele>196</ele>
        <time>2011-05-27T14:11:04Z</time>
      </trkpt>
      <trkpt lat="49.71935" lon="4.7286">
        <ele>196</ele>
        <time>2011-05-27T14:11:05Z</time>
      </trkpt>
      <trkpt lat="49.71938" lon="4.72864">
        <ele>196</ele>
        <time>2011-05-27T14:11:06Z</time>
      </trkpt>
      <trkpt lat="49.71941" lon="4.72867">
        <ele>196</ele>
        <time>2011-05-27T14:11:07Z</time>
      </trkpt>
      <trkpt lat="49.71944" lon="4.72871">
        <ele>196</ele>
        <time>2011-05-27T14:11:08Z</time>
      </trkpt>
      <trkpt lat="49.71947" lon="4.72875">
        <ele>196</ele>
        <time>2011-05-27T14:11:09Z</time>
      </trkpt>
      <trkpt lat="49.7195" lon="4.72878">
        <ele>196</ele>
        <time>2011-05-27T14:11:10Z</time>
      </trkpt>
      <trkpt lat="49.71954" lon="4.72882">
        <ele>196</ele>
        <time>2011-05-27T14:11:11Z</time>
      </trkpt>
      <trkpt lat="49.71956" lon="4.72886">
        <ele>196</ele>
        <time>2011-05-27T14:11:12Z</time>
      </trkpt>
      <trkpt lat="49.71959" lon="4.7289">
        <ele>196</ele>
        <time>2011-05-27T14:11:13Z</time>
      </trkpt>
      <trkpt lat="49.71963" lon="4.72894">
        <ele>196</ele>
        <time>2011-05-27T14:11:14Z</time>
      </trkpt>
      <trkpt lat="49.71966" lon="4.72898">
        <ele>196</ele>
        <time>2011-05-27T14:11:15Z</time>
      </trkpt>
      <trkpt lat="49.7197" lon="4.72902">
        <ele>196</ele>
        <time>2011-05-27T14:11:16Z</time>
      </trkpt>
      <trkpt lat="49.71973" lon="4.72907">
        <ele>196</ele>
        <time>2011-05-27T14:11:17Z</time>
      </trkpt>
      <trkpt lat="49.71977" lon="4.72912">
        <ele>196</ele>
        <time>2011-05-27T14:11:18Z</time>
      </trkpt>
      <trkpt lat="49.71979" lon="4.72915">
        <ele>196</ele>
        <time>2011-05-27T14:11:19Z</time>
      </trkpt>
      <trkpt lat="49.71983" lon="4.72918">
        <ele>196</ele>
        <time>2011-05-27T14:11:20Z</time>
      </trkpt>
      <trkpt lat="49.71986" lon="4.72921">
        <ele>196</ele>
        <time>2011-05-27T14:11:21Z</time>
      </trkpt>
      <trkpt lat="49.71988" lon="4.72925">
        <ele>196</ele>
        <time>2011-05-27T14:11:22Z</time>
      </trkpt>
      <trkpt lat="49.71989" lon="4.72928">
        <ele>196</ele>
        <time>2011-05-27T14:11:23Z</time>
      </trkpt>
      <trkpt lat="49.71992" lon="4.72933">
        <ele>196</ele>
        <time>2011-05-27T14:11:24Z</time>
      </trkpt>
      <trkpt lat="49.71995" lon="4.72934">
        <ele>196</ele>
        <time>2011-05-27T14:11:25Z</time>
      </trkpt>
      <trkpt lat="49.71999" lon="4.72936">
        <ele>196</ele>
        <time>2011-05-27T14:11:26Z</time>
      </trkpt>
      <trkpt lat="49.72001" lon="4.72932">
        <ele>196</ele>
        <time>2011-05-27T14:11:27Z</time>
      </trkpt>
      <trkpt lat="49.72003" lon="4.72926">
        <ele>196</ele>
        <time>2011-05-27T14:11:28Z</time>
      </trkpt>
      <trkpt lat="49.72005" lon="4.72921">
        <ele>196</ele>
        <time>2011-05-27T14:11:29Z</time>
      </trkpt>
      <trkpt lat="49.7201" lon="4.72916">
        <ele>196</ele>
        <time>2011-05-27T14:11:31Z</time>
      </trkpt>
      <trkpt lat="49.72013" lon="4.72913">
        <ele>196</ele>
        <time>2011-05-27T14:11:32Z</time>
      </trkpt>
      <trkpt lat="49.72017" lon="4.72912">
        <ele>196</ele>
        <time>2011-05-27T14:11:33Z</time>
      </trkpt>
      <trkpt lat="49.72022" lon="4.72909">
        <ele>196</ele>
        <time>2011-05-27T14:11:34Z</time>
      </trkpt>
      <trkpt lat="49.72027" lon="4.72905">
        <ele>195</ele>
        <time>2011-05-27T14:11:35Z</time>
      </trkpt>
      <trkpt lat="49.72032" lon="4.729">
        <ele>194</ele>
        <time>2011-05-27T14:11:36Z</time>
      </trkpt>
      <trkpt lat="49.72037" lon="4.72897">
        <ele>193</ele>
        <time>2011-05-27T14:11:37Z</time>
      </trkpt>
      <trkpt lat="49.72043" lon="4.72892">
        <ele>193</ele>
        <time>2011-05-27T14:11:38Z</time>
      </trkpt>
      <trkpt lat="49.72048" lon="4.72889">
        <ele>193</ele>
        <time>2011-05-27T14:11:39Z</time>
      </trkpt>
      <trkpt lat="49.72053" lon="4.72888">
        <ele>193</ele>
        <time>2011-05-27T14:11:40Z</time>
      </trkpt>
      <trkpt lat="49.72057" lon="4.72887">
        <ele>193</ele>
        <time>2011-05-27T14:11:41Z</time>
      </trkpt>
      <trkpt lat="49.7206" lon="4.72885">
        <ele>193</ele>
        <time>2011-05-27T14:11:42Z</time>
      </trkpt>
      <trkpt lat="49.72064" lon="4.72882">
        <ele>194</ele>
        <time>2011-05-27T14:11:43Z</time>
      </trkpt>
      <trkpt lat="49.72068" lon="4.72876">
        <ele>194</ele>
        <time>2011-05-27T14:11:44Z</time>
      </trkpt>
      <trkpt lat="49.7207" lon="4.72873">
        <ele>194</ele>
        <time>2011-05-27T14:11:45Z</time>
      </trkpt>
      <trkpt lat="49.72073" lon="4.7287">
        <ele>194</ele>
        <time>2011-05-27T14:11:46Z</time>
      </trkpt>
      <trkpt lat="49.72076" lon="4.72868">
        <ele>194</ele>
        <time>2011-05-27T14:11:47Z</time>
      </trkpt>
      <trkpt lat="49.72081" lon="4.72865">
        <ele>194</ele>
        <time>2011-05-27T14:11:48Z</time>
      </trkpt>
      <trkpt lat="49.72084" lon="4.72863">
        <ele>194</ele>
        <time>2011-05-27T14:11:49Z</time>
      </trkpt>
      <trkpt lat="49.72089" lon="4.7286">
        <ele>194</ele>
        <time>2011-05-27T14:11:50Z</time>
      </trkpt>
      <trkpt lat="49.72092" lon="4.72857">
        <ele>194</ele>
        <time>2011-05-27T14:11:51Z</time>
      </trkpt>
      <trkpt lat="49.72096" lon="4.72855">
        <ele>194</ele>
        <time>2011-05-27T14:11:52Z</time>
      </trkpt>
      <trkpt lat="49.721" lon="4.72852">
        <ele>194</ele>
        <time>2011-05-27T14:11:53Z</time>
      </trkpt>
      <trkpt lat="49.72103" lon="4.72849">
        <ele>194</ele>
        <time>2011-05-27T14:11:54Z</time>
      </trkpt>
      <trkpt lat="49.72107" lon="4.72847">
        <ele>194</ele>
        <time>2011-05-27T14:11:55Z</time>
      </trkpt>
      <trkpt lat="49.7211" lon="4.72844">
        <ele>194</ele>
        <time>2011-05-27T14:11:56Z</time>
      </trkpt>
      <trkpt lat="49.72113" lon="4.72842">
        <ele>193</ele>
        <time>2011-05-27T14:11:57Z</time>
      </trkpt>
      <trkpt lat="49.72118" lon="4.72839">
        <ele>193</ele>
        <time>2011-05-27T14:11:58Z</time>
      </trkpt>
      <trkpt lat="49.72121" lon="4.72836">
        <ele>192</ele>
        <time>2011-05-27T14:11:59Z</time>
      </trkpt>
      <trkpt lat="49.72124" lon="4.72832">
        <ele>192</ele>
        <time>2011-05-27T14:12:00Z</time>
      </trkpt>
      <trkpt lat="49.72127" lon="4.72829">
        <ele>192</ele>
        <time>2011-05-27T14:12:01Z</time>
      </trkpt>
      <trkpt lat="49.72131" lon="4.72825">
        <ele>191</ele>
        <time>2011-05-27T14:12:02Z</time>
      </trkpt>
      <trkpt lat="49.72135" lon="4.72823">
        <ele>191</ele>
        <time>2011-05-27T14:12:03Z</time>
      </trkpt>
      <trkpt lat="49.72139" lon="4.72821">
        <ele>191</ele>
        <time>2011-05-27T14:12:04Z</time>
      </trkpt>
      <trkpt lat="49.72143" lon="4.7282">
        <ele>191</ele>
        <time>2011-05-27T14:12:05Z</time>
      </trkpt>
      <trkpt lat="49.72146" lon="4.72819">
        <ele>191</ele>
        <time>2011-05-27T14:12:06Z</time>
      </trkpt>
      <trkpt lat="49.72149" lon="4.72816">
        <ele>191</ele>
        <time>2011-05-27T14:12:07Z</time>
      </trkpt>
      <trkpt lat="49.72153" lon="4.72814">
        <ele>191</ele>
        <time>2011-05-27T14:12:08Z</time>
      </trkpt>
      <trkpt lat="49.72157" lon="4.72813">
        <ele>191</ele>
        <time>2011-05-27T14:12:09Z</time>
      </trkpt>
      <trkpt lat="49.7216" lon="4.72813">
        <ele>191</ele>
        <time>2011-05-27T14:12:10Z</time>
      </trkpt>
      <trkpt lat="49.72162" lon="4.72813">
        <ele>191</ele>
        <time>2011-05-27T14:12:11Z</time>
      </trkpt>
      <trkpt lat="49.72165" lon="4.72815">
        <ele>191</ele>
        <time>2011-05-27T14:12:12Z</time>
      </trkpt>
      <trkpt lat="49.72168" lon="4.72816">
        <ele>191</ele>
        <time>2011-05-27T14:12:13Z</time>
      </trkpt>
      <trkpt lat="49.72171" lon="4.72815">
        <ele>191</ele>
        <time>2011-05-27T14:12:14Z</time>
      </trkpt>
      <trkpt lat="49.72174" lon="4.72814">
        <ele>191</ele>
        <time>2011-05-27T14:12:15Z</time>
      </trkpt>
      <trkpt lat="49.72177" lon="4.72812">
        <ele>191</ele>
        <time>2011-05-27T14:12:16Z</time>
      </trkpt>
      <trkpt lat="49.72181" lon="4.72811">
        <ele>192</ele>
        <time>2011-05-27T14:12:17Z</time>
      </trkpt>
      <trkpt lat="49.72185" lon="4.72809">
        <ele>193</ele>
        <time>2011-05-27T14:12:18Z</time>
      </trkpt>
      <trkpt lat="49.72189" lon="4.72806">
        <ele>194</ele>
        <time>2011-05-27T14:12:19Z</time>
      </trkpt>
      <trkpt lat="49.72192" lon="4.72802">
        <ele>195</ele>
        <time>2011-05-27T14:12:20Z</time>
      </trkpt>
      <trkpt lat="49.72196" lon="4.728">
        <ele>196</ele>
        <time>2011-05-27T14:12:21Z</time>
      </trkpt>
      <trkpt lat="49.722" lon="4.72798">
        <ele>197</ele>
        <time>2011-05-27T14:12:22Z</time>
      </trkpt>
      <trkpt lat="49.72202" lon="4.72797">
        <ele>198</ele>
        <time>2011-05-27T14:12:23Z</time>
      </trkpt>
      <trkpt lat="49.72205" lon="4.72795">
        <ele>199</ele>
        <time>2011-05-27T14:12:24Z</time>
      </trkpt>
      <trkpt lat="49.72207" lon="4.72793">
        <ele>200</ele>
        <time>2011-05-27T14:12:25Z</time>
      </trkpt>
      <trkpt lat="49.72209" lon="4.72791">
        <ele>201</ele>
        <time>2011-05-27T14:12:26Z</time>
      </trkpt>
      <trkpt lat="49.72213" lon="4.72789">
        <ele>202</ele>
        <time>2011-05-27T14:12:27Z</time>
      </trkpt>
      <trkpt lat="49.72216" lon="4.72787">
        <ele>203</ele>
        <time>2011-05-27T14:12:28Z</time>
      </trkpt>
      <trkpt lat="49.72218" lon="4.72786">
        <ele>204</ele>
        <time>2011-05-27T14:12:29Z</time>
      </trkpt>
      <trkpt lat="49.72222" lon="4.72784">
        <ele>204</ele>
        <time>2011-05-27T14:12:30Z</time>
      </trkpt>
      <trkpt lat="49.72225" lon="4.72782">
        <ele>205</ele>
        <time>2011-05-27T14:12:31Z</time>
      </trkpt>
      <trkpt lat="49.72228" lon="4.72781">
        <ele>205</ele>
        <time>2011-05-27T14:12:32Z</time>
      </trkpt>
      <trkpt lat="49.72231" lon="4.7278">
        <ele>205</ele>
        <time>2011-05-27T14:12:33Z</time>
      </trkpt>
      <trkpt lat="49.72233" lon="4.72779">
        <ele>206</ele>
        <time>2011-05-27T14:12:34Z</time>
      </trkpt>
      <trkpt lat="49.72236" lon="4.72777">
        <ele>206</ele>
        <time>2011-05-27T14:12:35Z</time>
      </trkpt>
      <trkpt lat="49.72239" lon="4.72774">
        <ele>206</ele>
        <time>2011-05-27T14:12:36Z</time>
      </trkpt>
      <trkpt lat="49.72242" lon="4.72771">
        <ele>206</ele>
        <time>2011-05-27T14:12:37Z</time>
      </trkpt>
      <trkpt lat="49.72245" lon="4.72769">
        <ele>206</ele>
        <time>2011-05-27T14:12:38Z</time>
      </trkpt>
      <trkpt lat="49.72248" lon="4.72767">
        <ele>206</ele>
        <time>2011-05-27T14:12:39Z</time>
      </trkpt>
      <trkpt lat="49.7225" lon="4.72765">
        <ele>206</ele>
        <time>2011-05-27T14:12:40Z</time>
      </trkpt>
      <trkpt lat="49.72253" lon="4.72764">
        <ele>206</ele>
        <time>2011-05-27T14:12:41Z</time>
      </trkpt>
      <trkpt lat="49.72256" lon="4.72762">
        <ele>206</ele>
        <time>2011-05-27T14:12:42Z</time>
      </trkpt>
      <trkpt lat="49.72258" lon="4.72761">
        <ele>206</ele>
        <time>2011-05-27T14:12:43Z</time>
      </trkpt>
      <trkpt lat="49.7226" lon="4.72759">
        <ele>206</ele>
        <time>2011-05-27T14:12:44Z</time>
      </trkpt>
      <trkpt lat="49.72263" lon="4.72757">
        <ele>206</ele>
        <time>2011-05-27T14:12:45Z</time>
      </trkpt>
      <trkpt lat="49.72265" lon="4.72754">
        <ele>206</ele>
        <time>2011-05-27T14:12:46Z</time>
      </trkpt>
      <trkpt lat="49.72267" lon="4.72753">
        <ele>206</ele>
        <time>2011-05-27T14:12:47Z</time>
      </trkpt>
      <trkpt lat="49.7227" lon="4.72751">
        <ele>206</ele>
        <time>2011-05-27T14:12:48Z</time>
      </trkpt>
      <trkpt lat="49.72273" lon="4.72751">
        <ele>206</ele>
        <time>2011-05-27T14:12:49Z</time>
      </trkpt>
      <trkpt lat="49.72276" lon="4.7275">
        <ele>206</ele>
        <time>2011-05-27T14:12:50Z</time>
      </trkpt>
      <trkpt lat="49.72278" lon="4.72749">
        <ele>206</ele>
        <time>2011-05-27T14:12:51Z</time>
      </trkpt>
      <trkpt lat="49.72282" lon="4.72746">
        <ele>206</ele>
        <time>2011-05-27T14:12:52Z</time>
      </trkpt>
      <trkpt lat="49.72284" lon="4.72745">
        <ele>206</ele>
        <time>2011-05-27T14:12:53Z</time>
      </trkpt>
      <trkpt lat="49.72286" lon="4.72743">
        <ele>206</ele>
        <time>2011-05-27T14:12:54Z</time>
      </trkpt>
      <trkpt lat="49.72288" lon="4.72741">
        <ele>206</ele>
        <time>2011-05-27T14:12:55Z</time>
      </trkpt>
      <trkpt lat="49.7229" lon="4.7274">
        <ele>206</ele>
        <time>2011-05-27T14:12:56Z</time>
      </trkpt>
      <trkpt lat="49.72293" lon="4.72739">
        <ele>206</ele>
        <time>2011-05-27T14:12:57Z</time>
      </trkpt>
      <trkpt lat="49.72295" lon="4.72737">
        <ele>206</ele>
        <time>2011-05-27T14:12:58Z</time>
      </trkpt>
      <trkpt lat="49.72298" lon="4.72736">
        <ele>206</ele>
        <time>2011-05-27T14:12:59Z</time>
      </trkpt>
      <trkpt lat="49.72301" lon="4.72735">
        <ele>206</ele>
        <time>2011-05-27T14:13:00Z</time>
      </trkpt>
      <trkpt lat="49.72305" lon="4.72733">
        <ele>206</ele>
        <time>2011-05-27T14:13:01Z</time>
      </trkpt>
      <trkpt lat="49.72307" lon="4.72732">
        <ele>206</ele>
        <time>2011-05-27T14:13:02Z</time>
      </trkpt>
      <trkpt lat="49.72309" lon="4.7273">
        <ele>206</ele>
        <time>2011-05-27T14:13:03Z</time>
      </trkpt>
      <trkpt lat="49.72311" lon="4.72727">
        <ele>206</ele>
        <time>2011-05-27T14:13:04Z</time>
      </trkpt>
      <trkpt lat="49.72313" lon="4.72724">
        <ele>206</ele>
        <time>2011-05-27T14:13:05Z</time>
      </trkpt>
      <trkpt lat="49.72314" lon="4.72719">
        <ele>206</ele>
        <time>2011-05-27T14:13:06Z</time>
      </trkpt>
      <trkpt lat="49.72316" lon="4.72715">
        <ele>206</ele>
        <time>2011-05-27T14:13:07Z</time>
      </trkpt>
      <trkpt lat="49.72318" lon="4.7271">
        <ele>206</ele>
        <time>2011-05-27T14:13:08Z</time>
      </trkpt>
      <trkpt lat="49.72319" lon="4.72706">
        <ele>205</ele>
        <time>2011-05-27T14:13:09Z</time>
      </trkpt>
      <trkpt lat="49.72322" lon="4.72701">
        <ele>204</ele>
        <time>2011-05-27T14:13:10Z</time>
      </trkpt>
      <trkpt lat="49.72323" lon="4.72698">
        <ele>203</ele>
        <time>2011-05-27T14:13:11Z</time>
      </trkpt>
      <trkpt lat="49.72325" lon="4.72695">
        <ele>202</ele>
        <time>2011-05-27T14:13:12Z</time>
      </trkpt>
      <trkpt lat="49.72327" lon="4.72693">
        <ele>201</ele>
        <time>2011-05-27T14:13:13Z</time>
      </trkpt>
      <trkpt lat="49.72331" lon="4.72691">
        <ele>200</ele>
        <time>2011-05-27T14:13:14Z</time>
      </trkpt>
      <trkpt lat="49.72334" lon="4.7269">
        <ele>199</ele>
        <time>2011-05-27T14:13:15Z</time>
      </trkpt>
      <trkpt lat="49.72337" lon="4.72688">
        <ele>199</ele>
        <time>2011-05-27T14:13:16Z</time>
      </trkpt>
      <trkpt lat="49.7234" lon="4.72684">
        <ele>198</ele>
        <time>2011-05-27T14:13:17Z</time>
      </trkpt>
      <trkpt lat="49.72343" lon="4.7268">
        <ele>198</ele>
        <time>2011-05-27T14:13:18Z</time>
      </trkpt>
      <trkpt lat="49.72346" lon="4.72677">
        <ele>197</ele>
        <time>2011-05-27T14:13:19Z</time>
      </trkpt>
      <trkpt lat="49.72349" lon="4.72674">
        <ele>197</ele>
        <time>2011-05-27T14:13:20Z</time>
      </trkpt>
      <trkpt lat="49.72352" lon="4.7267">
        <ele>196</ele>
        <time>2011-05-27T14:13:21Z</time>
      </trkpt>
      <trkpt lat="49.72355" lon="4.72666">
        <ele>196</ele>
        <time>2011-05-27T14:13:22Z</time>
      </trkpt>
      <trkpt lat="49.72359" lon="4.72661">
        <ele>195</ele>
        <time>2011-05-27T14:13:23Z</time>
      </trkpt>
      <trkpt lat="49.72363" lon="4.72658">
        <ele>195</ele>
        <time>2011-05-27T14:13:24Z</time>
      </trkpt>
      <trkpt lat="49.72367" lon="4.72655">
        <ele>195</ele>
        <time>2011-05-27T14:13:25Z</time>
      </trkpt>
      <trkpt lat="49.72372" lon="4.72652">
        <ele>195</ele>
        <time>2011-05-27T14:13:26Z</time>
      </trkpt>
      <trkpt lat="49.72376" lon="4.7265">
        <ele>195</ele>
        <time>2011-05-27T14:13:27Z</time>
      </trkpt>
      <trkpt lat="49.7238" lon="4.7265">
        <ele>195</ele>
        <time>2011-05-27T14:13:28Z</time>
      </trkpt>
      <trkpt lat="49.72385" lon="4.7265">
        <ele>195</ele>
        <time>2011-05-27T14:13:29Z</time>
      </trkpt>
      <trkpt lat="49.7239" lon="4.7265">
        <ele>195</ele>
        <time>2011-05-27T14:13:30Z</time>
      </trkpt>
      <trkpt lat="49.72395" lon="4.7265">
        <ele>195</ele>
        <time>2011-05-27T14:13:31Z</time>
      </trkpt>
      <trkpt lat="49.724" lon="4.72651">
        <ele>195</ele>
        <time>2011-05-27T14:13:32Z</time>
      </trkpt>
      <trkpt lat="49.72405" lon="4.72651">
        <ele>195</ele>
        <time>2011-05-27T14:13:33Z</time>
      </trkpt>
      <trkpt lat="49.7241" lon="4.72651">
        <ele>195</ele>
        <time>2011-05-27T14:13:34Z</time>
      </trkpt>
      <trkpt lat="49.72415" lon="4.72651">
        <ele>195</ele>
        <time>2011-05-27T14:13:35Z</time>
      </trkpt>
      <trkpt lat="49.72421" lon="4.72652">
        <ele>195</ele>
        <time>2011-05-27T14:13:36Z</time>
      </trkpt>
      <trkpt lat="49.72427" lon="4.72651">
        <ele>195</ele>
        <time>2011-05-27T14:13:37Z</time>
      </trkpt>
      <trkpt lat="49.72432" lon="4.7265">
        <ele>195</ele>
        <time>2011-05-27T14:13:38Z</time>
      </trkpt>
      <trkpt lat="49.72438" lon="4.72648">
        <ele>195</ele>
        <time>2011-05-27T14:13:39Z</time>
      </trkpt>
      <trkpt lat="49.72444" lon="4.72645">
        <ele>195</ele>
        <time>2011-05-27T14:13:40Z</time>
      </trkpt>
      <trkpt lat="49.72449" lon="4.72642">
        <ele>195</ele>
        <time>2011-05-27T14:13:41Z</time>
      </trkpt>
      <trkpt lat="49.72454" lon="4.72639">
        <ele>195</ele>
        <time>2011-05-27T14:13:42Z</time>
      </trkpt>
      <trkpt lat="49.7246" lon="4.72637">
        <ele>195</ele>
        <time>2011-05-27T14:13:43Z</time>
      </trkpt>
      <trkpt lat="49.72464" lon="4.72634">
        <ele>195</ele>
        <time>2011-05-27T14:13:44Z</time>
      </trkpt>
      <trkpt lat="49.72468" lon="4.72632">
        <ele>195</ele>
        <time>2011-05-27T14:13:45Z</time>
      </trkpt>
      <trkpt lat="49.72472" lon="4.72629">
        <ele>195</ele>
        <time>2011-05-27T14:13:46Z</time>
      </trkpt>
      <trkpt lat="49.72475" lon="4.72627">
        <ele>195</ele>
        <time>2011-05-27T14:13:47Z</time>
      </trkpt>
      <trkpt lat="49.72478" lon="4.72626">
        <ele>195</ele>
        <time>2011-05-27T14:13:48Z</time>
      </trkpt>
      <trkpt lat="49.72482" lon="4.72625">
        <ele>194</ele>
        <time>2011-05-27T14:13:49Z</time>
      </trkpt>
      <trkpt lat="49.72485" lon="4.72625">
        <ele>194</ele>
        <time>2011-05-27T14:13:50Z</time>
      </trkpt>
      <trkpt lat="49.72488" lon="4.72625">
        <ele>194</ele>
        <time>2011-05-27T14:13:51Z</time>
      </trkpt>
      <trkpt lat="49.72491" lon="4.72624">
        <ele>194</ele>
        <time>2011-05-27T14:13:52Z</time>
      </trkpt>
      <trkpt lat="49.72494" lon="4.72622">
        <ele>194</ele>
        <time>2011-05-27T14:13:53Z</time>
      </trkpt>
      <trkpt lat="49.72497" lon="4.72619">
        <ele>194</ele>
        <time>2011-05-27T14:13:54Z</time>
      </trkpt>
      <trkpt lat="49.725" lon="4.72617">
        <ele>194</ele>
        <time>2011-05-27T14:13:55Z</time>
      </trkpt>
      <trkpt lat="49.72503" lon="4.72613">
        <ele>194</ele>
        <time>2011-05-27T14:13:56Z</time>
      </trkpt>
      <trkpt lat="49.72505" lon="4.72608">
        <ele>193</ele>
        <time>2011-05-27T14:13:57Z</time>
      </trkpt>
      <trkpt lat="49.72506" lon="4.72602">
        <ele>193</ele>
        <time>2011-05-27T14:13:58Z</time>
      </trkpt>
      <trkpt lat="49.72508" lon="4.72595">
        <ele>193</ele>
        <time>2011-05-27T14:13:59Z</time>
      </trkpt>
      <trkpt lat="49.72511" lon="4.72589">
        <ele>193</ele>
        <time>2011-05-27T14:14:00Z</time>
      </trkpt>
      <trkpt lat="49.72516" lon="4.72586">
        <ele>193</ele>
        <time>2011-05-27T14:14:01Z</time>
      </trkpt>
      <trkpt lat="49.7252" lon="4.72583">
        <ele>192</ele>
        <time>2011-05-27T14:14:02Z</time>
      </trkpt>
      <trkpt lat="49.72525" lon="4.7258">
        <ele>192</ele>
        <time>2011-05-27T14:14:03Z</time>
      </trkpt>
      <trkpt lat="49.72529" lon="4.72577">
        <ele>192</ele>
        <time>2011-05-27T14:14:04Z</time>
      </trkpt>
      <trkpt lat="49.72533" lon="4.72574">
        <ele>192</ele>
        <time>2011-05-27T14:14:05Z</time>
      </trkpt>
      <trkpt lat="49.72538" lon="4.72572">
        <ele>191</ele>
        <time>2011-05-27T14:14:06Z</time>
      </trkpt>
      <trkpt lat="49.72542" lon="4.72569">
        <ele>191</ele>
        <time>2011-05-27T14:14:07Z</time>
      </trkpt>
      <trkpt lat="49.72546" lon="4.72567">
        <ele>191</ele>
        <time>2011-05-27T14:14:08Z</time>
      </trkpt>
      <trkpt lat="49.72551" lon="4.72564">
        <ele>191</ele>
        <time>2011-05-27T14:14:09Z</time>
      </trkpt>
      <trkpt lat="49.72555" lon="4.72561">
        <ele>191</ele>
        <time>2011-05-27T14:14:10Z</time>
      </trkpt>
      <trkpt lat="49.72559" lon="4.72558">
        <ele>191</ele>
        <time>2011-05-27T14:14:11Z</time>
      </trkpt>
      <trkpt lat="49.72564" lon="4.72555">
        <ele>190</ele>
        <time>2011-05-27T14:14:12Z</time>
      </trkpt>
      <trkpt lat="49.72568" lon="4.72552">
        <ele>190</ele>
        <time>2011-05-27T14:14:13Z</time>
      </trkpt>
      <trkpt lat="49.72573" lon="4.72549">
        <ele>190</ele>
        <time>2011-05-27T14:14:14Z</time>
      </trkpt>
      <trkpt lat="49.72578" lon="4.72546">
        <ele>190</ele>
        <time>2011-05-27T14:14:15Z</time>
      </trkpt>
      <trkpt lat="49.72583" lon="4.72543">
        <ele>190</ele>
        <time>2011-05-27T14:14:16Z</time>
      </trkpt>
      <trkpt lat="49.72588" lon="4.7254">
        <ele>190</ele>
        <time>2011-05-27T14:14:17Z</time>
      </trkpt>
      <trkpt lat="49.72594" lon="4.72537">
        <ele>189</ele>
        <time>2011-05-27T14:14:18Z</time>
      </trkpt>
      <trkpt lat="49.72599" lon="4.72533">
        <ele>189</ele>
        <time>2011-05-27T14:14:19Z</time>
      </trkpt>
      <trkpt lat="49.72604" lon="4.7253">
        <ele>189</ele>
        <time>2011-05-27T14:14:20Z</time>
      </trkpt>
      <trkpt lat="49.72609" lon="4.72527">
        <ele>188</ele>
        <time>2011-05-27T14:14:21Z</time>
      </trkpt>
      <trkpt lat="49.72615" lon="4.72523">
        <ele>188</ele>
        <time>2011-05-27T14:14:22Z</time>
      </trkpt>
      <trkpt lat="49.7262" lon="4.72519">
        <ele>188</ele>
        <time>2011-05-27T14:14:23Z</time>
      </trkpt>
      <trkpt lat="49.72625" lon="4.72516">
        <ele>187</ele>
        <time>2011-05-27T14:14:24Z</time>
      </trkpt>
      <trkpt lat="49.7263" lon="4.72513">
        <ele>187</ele>
        <time>2011-05-27T14:14:25Z</time>
      </trkpt>
      <trkpt lat="49.72635" lon="4.7251">
        <ele>187</ele>
        <time>2011-05-27T14:14:26Z</time>
      </trkpt>
      <trkpt lat="49.7264" lon="4.72506">
        <ele>186</ele>
        <time>2011-05-27T14:14:27Z</time>
      </trkpt>
      <trkpt lat="49.72645" lon="4.72503">
        <ele>186</ele>
        <time>2011-05-27T14:14:28Z</time>
      </trkpt>
      <trkpt lat="49.7265" lon="4.72499">
        <ele>185</ele>
        <time>2011-05-27T14:14:29Z</time>
      </trkpt>
      <trkpt lat="49.72656" lon="4.72495">
        <ele>185</ele>
        <time>2011-05-27T14:14:30Z</time>
      </trkpt>
      <trkpt lat="49.72662" lon="4.72492">
        <ele>184</ele>
        <time>2011-05-27T14:14:31Z</time>
      </trkpt>
      <trkpt lat="49.72667" lon="4.72488">
        <ele>184</ele>
        <time>2011-05-27T14:14:32Z</time>
      </trkpt>
      <trkpt lat="49.72673" lon="4.72484">
        <ele>183</ele>
        <time>2011-05-27T14:14:33Z</time>
      </trkpt>
      <trkpt lat="49.7268" lon="4.7248">
        <ele>183</ele>
        <time>2011-05-27T14:14:34Z</time>
      </trkpt>
      <trkpt lat="49.72686" lon="4.72475">
        <ele>182</ele>
        <time>2011-05-27T14:14:35Z</time>
      </trkpt>
      <trkpt lat="49.72692" lon="4.72472">
        <ele>182</ele>
        <time>2011-05-27T14:14:36Z</time>
      </trkpt>
      <trkpt lat="49.72699" lon="4.72468">
        <ele>181</ele>
        <time>2011-05-27T14:14:37Z</time>
      </trkpt>
      <trkpt lat="49.72705" lon="4.72463">
        <ele>181</ele>
        <time>2011-05-27T14:14:38Z</time>
      </trkpt>
      <trkpt lat="49.72712" lon="4.72459">
        <ele>180</ele>
        <time>2011-05-27T14:14:39Z</time>
      </trkpt>
      <trkpt lat="49.72718" lon="4.72455">
        <ele>179</ele>
        <time>2011-05-27T14:14:40Z</time>
      </trkpt>
      <trkpt lat="49.72725" lon="4.72451">
        <ele>179</ele>
        <time>2011-05-27T14:14:41Z</time>
      </trkpt>
      <trkpt lat="49.72731" lon="4.72447">
        <ele>178</ele>
        <time>2011-05-27T14:14:42Z</time>
      </trkpt>
      <trkpt lat="49.72738" lon="4.72442">
        <ele>177</ele>
        <time>2011-05-27T14:14:43Z</time>
      </trkpt>
      <trkpt lat="49.72745" lon="4.72438">
        <ele>176</ele>
        <time>2011-05-27T14:14:44Z</time>
      </trkpt>
      <trkpt lat="49.72752" lon="4.72433">
        <ele>175</ele>
        <time>2011-05-27T14:14:45Z</time>
      </trkpt>
      <trkpt lat="49.72759" lon="4.72429">
        <ele>174</ele>
        <time>2011-05-27T14:14:46Z</time>
      </trkpt>
      <trkpt lat="49.72766" lon="4.72424">
        <ele>173</ele>
        <time>2011-05-27T14:14:47Z</time>
      </trkpt>
      <trkpt lat="49.72774" lon="4.7242">
        <ele>173</ele>
        <time>2011-05-27T14:14:48Z</time>
      </trkpt>
      <trkpt lat="49.72781" lon="4.72415">
        <ele>172</ele>
        <time>2011-05-27T14:14:49Z</time>
      </trkpt>
      <trkpt lat="49.72789" lon="4.72411">
        <ele>171</ele>
        <time>2011-05-27T14:14:50Z</time>
      </trkpt>
      <trkpt lat="49.72796" lon="4.72406">
        <ele>171</ele>
        <time>2011-05-27T14:14:51Z</time>
      </trkpt>
      <trkpt lat="49.72802" lon="4.72402">
        <ele>170</ele>
        <time>2011-05-27T14:14:52Z</time>
      </trkpt>
      <trkpt lat="49.72807" lon="4.72398">
        <ele>169</ele>
        <time>2011-05-27T14:14:53Z</time>
      </trkpt>
      <trkpt lat="49.72812" lon="4.72394">
        <ele>169</ele>
        <time>2011-05-27T14:14:54Z</time>
      </trkpt>
      <trkpt lat="49.72815" lon="4.7239">
        <ele>168</ele>
        <time>2011-05-27T14:14:55Z</time>
      </trkpt>
      <trkpt lat="49.72819" lon="4.72387">
        <ele>168</ele>
        <time>2011-05-27T14:14:56Z</time>
      </trkpt>
      <trkpt lat="49.72821" lon="4.72385">
        <ele>168</ele>
        <time>2011-05-27T14:14:57Z</time>
      </trkpt>
      <trkpt lat="49.72822" lon="4.72383">
        <ele>168</ele>
        <time>2011-05-27T14:14:58Z</time>
      </trkpt>
      <trkpt lat="49.72825" lon="4.72382">
        <ele>168</ele>
        <time>2011-05-27T14:14:59Z</time>
      </trkpt>
      <trkpt lat="49.72829" lon="4.72381">
        <ele>167</ele>
        <time>2011-05-27T14:15:00Z</time>
      </trkpt>
      <trkpt lat="49.72833" lon="4.72379">
        <ele>167</ele>
        <time>2011-05-27T14:15:01Z</time>
      </trkpt>
      <trkpt lat="49.72838" lon="4.72376">
        <ele>167</ele>
        <time>2011-05-27T14:15:02Z</time>
      </trkpt>
      <trkpt lat="49.72844" lon="4.72374">
        <ele>166</ele>
        <time>2011-05-27T14:15:03Z</time>
      </trkpt>
      <trkpt lat="49.7285" lon="4.72371">
        <ele>166</ele>
        <time>2011-05-27T14:15:04Z</time>
      </trkpt>
      <trkpt lat="49.72856" lon="4.72367">
        <ele>165</ele>
        <time>2011-05-27T14:15:05Z</time>
      </trkpt>
      <trkpt lat="49.72863" lon="4.72363">
        <ele>165</ele>
        <time>2011-05-27T14:15:06Z</time>
      </trkpt>
      <trkpt lat="49.72868" lon="4.72359">
        <ele>164</ele>
        <time>2011-05-27T14:15:07Z</time>
      </trkpt>
      <trkpt lat="49.72874" lon="4.72356">
        <ele>164</ele>
        <time>2011-05-27T14:15:08Z</time>
      </trkpt>
      <trkpt lat="49.72878" lon="4.72353">
        <ele>164</ele>
        <time>2011-05-27T14:15:09Z</time>
      </trkpt>
      <trkpt lat="49.72881" lon="4.72349">
        <ele>164</ele>
        <time>2011-05-27T14:15:10Z</time>
      </trkpt>
      <trkpt lat="49.72883" lon="4.72346">
        <ele>164</ele>
        <time>2011-05-27T14:15:11Z</time>
      </trkpt>
      <trkpt lat="49.72885" lon="4.72344">
        <ele>164</ele>
        <time>2011-05-27T14:15:12Z</time>
      </trkpt>
      <trkpt lat="49.72886" lon="4.72342">
        <ele>164</ele>
        <time>2011-05-27T14:15:13Z</time>
      </trkpt>
      <trkpt lat="49.72888" lon="4.7234">
        <ele>164</ele>
        <time>2011-05-27T14:15:14Z</time>
      </trkpt>
      <trkpt lat="49.7289" lon="4.72338">
        <ele>164</ele>
        <time>2011-05-27T14:15:15Z</time>
      </trkpt>
      <trkpt lat="49.72893" lon="4.72337">
        <ele>164</ele>
        <time>2011-05-27T14:15:16Z</time>
      </trkpt>
      <trkpt lat="49.72896" lon="4.72336">
        <ele>164</ele>
        <time>2011-05-27T14:15:17Z</time>
      </trkpt>
      <trkpt lat="49.72902" lon="4.72334">
        <ele>164</ele>
        <time>2011-05-27T14:15:18Z</time>
      </trkpt>
      <trkpt lat="49.72907" lon="4.72331">
        <ele>164</ele>
        <time>2011-05-27T14:15:19Z</time>
      </trkpt>
      <trkpt lat="49.72912" lon="4.72329">
        <ele>163</ele>
        <time>2011-05-27T14:15:20Z</time>
      </trkpt>
      <trkpt lat="49.72918" lon="4.72327">
        <ele>163</ele>
        <time>2011-05-27T14:15:21Z</time>
      </trkpt>
      <trkpt lat="49.72924" lon="4.72326">
        <ele>163</ele>
        <time>2011-05-27T14:15:22Z</time>
      </trkpt>
      <trkpt lat="49.7293" lon="4.72324">
        <ele>162</ele>
        <time>2011-05-27T14:15:23Z</time>
      </trkpt>
      <trkpt lat="49.72935" lon="4.7232">
        <ele>162</ele>
        <time>2011-05-27T14:15:24Z</time>
      </trkpt>
      <trkpt lat="49.7294" lon="4.72315">
        <ele>161</ele>
        <time>2011-05-27T14:15:25Z</time>
      </trkpt>
      <trkpt lat="49.72945" lon="4.72309">
        <ele>161</ele>
        <time>2011-05-27T14:15:26Z</time>
      </trkpt>
      <trkpt lat="49.7295" lon="4.72303">
        <ele>160</ele>
        <time>2011-05-27T14:15:27Z</time>
      </trkpt>
      <trkpt lat="49.72956" lon="4.72297">
        <ele>160</ele>
        <time>2011-05-27T14:15:28Z</time>
      </trkpt>
      <trkpt lat="49.72961" lon="4.72292">
        <ele>160</ele>
        <time>2011-05-27T14:15:29Z</time>
      </trkpt>
      <trkpt lat="49.72966" lon="4.72285">
        <ele>159</ele>
        <time>2011-05-27T14:15:30Z</time>
      </trkpt>
      <trkpt lat="49.7297" lon="4.72277">
        <ele>159</ele>
        <time>2011-05-27T14:15:31Z</time>
      </trkpt>
      <trkpt lat="49.72974" lon="4.72269">
        <ele>158</ele>
        <time>2011-05-27T14:15:32Z</time>
      </trkpt>
      <trkpt lat="49.72978" lon="4.72261">
        <ele>158</ele>
        <time>2011-05-27T14:15:33Z</time>
      </trkpt>
      <trkpt lat="49.72982" lon="4.72255">
        <ele>157</ele>
        <time>2011-05-27T14:15:34Z</time>
      </trkpt>
      <trkpt lat="49.72985" lon="4.72251">
        <ele>157</ele>
        <time>2011-05-27T14:15:35Z</time>
      </trkpt>
      <trkpt lat="49.72989" lon="4.72247">
        <ele>157</ele>
        <time>2011-05-27T14:15:36Z</time>
      </trkpt>
      <trkpt lat="49.72991" lon="4.72243">
        <ele>156</ele>
        <time>2011-05-27T14:15:37Z</time>
      </trkpt>
      <trkpt lat="49.7299" lon="4.72238">
        <ele>155</ele>
        <time>2011-05-27T14:15:38Z</time>
      </trkpt>
      <trkpt lat="49.7299" lon="4.72233">
        <ele>155</ele>
        <time>2011-05-27T14:15:39Z</time>
      </trkpt>
      <trkpt lat="49.72988" lon="4.7223">
        <ele>154</ele>
        <time>2011-05-27T14:15:40Z</time>
      </trkpt>
      <trkpt lat="49.72986" lon="4.72226">
        <ele>153</ele>
        <time>2011-05-27T14:15:41Z</time>
      </trkpt>
      <trkpt lat="49.72985" lon="4.72224">
        <ele>152</ele>
        <time>2011-05-27T14:15:42Z</time>
      </trkpt>
      <trkpt lat="49.72983" lon="4.72222">
        <ele>152</ele>
        <time>2011-05-27T14:15:43Z</time>
      </trkpt>
      <trkpt lat="49.72982" lon="4.72219">
        <ele>152</ele>
        <time>2011-05-27T14:15:44Z</time>
      </trkpt>
      <trkpt lat="49.72979" lon="4.72217">
        <ele>152</ele>
        <time>2011-05-27T14:15:45Z</time>
      </trkpt>
      <trkpt lat="49.72977" lon="4.72215">
        <ele>152</ele>
        <time>2011-05-27T14:15:46Z</time>
      </trkpt>
      <trkpt lat="49.72976" lon="4.72212">
        <ele>152</ele>
        <time>2011-05-27T14:15:47Z</time>
      </trkpt>
      <trkpt lat="49.72974" lon="4.72209">
        <ele>152</ele>
        <time>2011-05-27T14:15:48Z</time>
      </trkpt>
      <trkpt lat="49.72972" lon="4.72206">
        <ele>152</ele>
        <time>2011-05-27T14:15:49Z</time>
      </trkpt>
      <trkpt lat="49.72971" lon="4.72202">
        <ele>152</ele>
        <time>2011-05-27T14:15:50Z</time>
      </trkpt>
      <trkpt lat="49.72971" lon="4.72198">
        <ele>152</ele>
        <time>2011-05-27T14:15:51Z</time>
      </trkpt>
      <trkpt lat="49.72969" lon="4.72194">
        <ele>152</ele>
        <time>2011-05-27T14:15:52Z</time>
      </trkpt>
      <trkpt lat="49.72967" lon="4.7219">
        <ele>152</ele>
        <time>2011-05-27T14:15:53Z</time>
      </trkpt>
      <trkpt lat="49.72965" lon="4.72186">
        <ele>152</ele>
        <time>2011-05-27T14:15:54Z</time>
      </trkpt>
      <trkpt lat="49.72963" lon="4.72183">
        <ele>152</ele>
        <time>2011-05-27T14:15:55Z</time>
      </trkpt>
      <trkpt lat="49.7296" lon="4.72181">
        <ele>152</ele>
        <time>2011-05-27T14:15:56Z</time>
      </trkpt>
      <trkpt lat="49.72958" lon="4.72179">
        <ele>152</ele>
        <time>2011-05-27T14:15:57Z</time>
      </trkpt>
      <trkpt lat="49.72955" lon="4.72178">
        <ele>152</ele>
        <time>2011-05-27T14:15:58Z</time>
      </trkpt>
      <trkpt lat="49.72953" lon="4.72176">
        <ele>152</ele>
        <time>2011-05-27T14:15:59Z</time>
      </trkpt>
      <trkpt lat="49.7295" lon="4.72175">
        <ele>152</ele>
        <time>2011-05-27T14:16:00Z</time>
      </trkpt>
      <trkpt lat="49.72947" lon="4.72171">
        <ele>152</ele>
        <time>2011-05-27T14:16:01Z</time>
      </trkpt>
      <trkpt lat="49.72944" lon="4.72166">
        <ele>152</ele>
        <time>2011-05-27T14:16:02Z</time>
      </trkpt>
      <trkpt lat="49.72941" lon="4.72162">
        <ele>152</ele>
        <time>2011-05-27T14:16:03Z</time>
      </trkpt>
      <trkpt lat="49.72938" lon="4.72161">
        <ele>152</ele>
        <time>2011-05-27T14:16:04Z</time>
      </trkpt>
      <trkpt lat="49.72935" lon="4.72159">
        <ele>152</ele>
        <time>2011-05-27T14:16:05Z</time>
      </trkpt>
      <trkpt lat="49.72933" lon="4.72157">
        <ele>152</ele>
        <time>2011-05-27T14:16:06Z</time>
      </trkpt>
      <trkpt lat="49.72931" lon="4.72152">
        <ele>152</ele>
        <time>2011-05-27T14:16:07Z</time>
      </trkpt>
      <trkpt lat="49.72929" lon="4.72149">
        <ele>153</ele>
        <time>2011-05-27T14:16:08Z</time>
      </trkpt>
      <trkpt lat="49.72926" lon="4.72147">
        <ele>153</ele>
        <time>2011-05-27T14:16:09Z</time>
      </trkpt>
      <trkpt lat="49.72924" lon="4.72142">
        <ele>153</ele>
        <time>2011-05-27T14:16:10Z</time>
      </trkpt>
      <trkpt lat="49.72923" lon="4.72137">
        <ele>154</ele>
        <time>2011-05-27T14:16:11Z</time>
      </trkpt>
      <trkpt lat="49.72922" lon="4.72133">
        <ele>154</ele>
        <time>2011-05-27T14:16:12Z</time>
      </trkpt>
      <trkpt lat="49.72921" lon="4.72128">
        <ele>155</ele>
        <time>2011-05-27T14:16:13Z</time>
      </trkpt>
      <trkpt lat="49.72919" lon="4.72123">
        <ele>156</ele>
        <time>2011-05-27T14:16:14Z</time>
      </trkpt>
      <trkpt lat="49.72916" lon="4.72118">
        <ele>156</ele>
        <time>2011-05-27T14:16:15Z</time>
      </trkpt>
      <trkpt lat="49.72914" lon="4.72112">
        <ele>157</ele>
        <time>2011-05-27T14:16:16Z</time>
      </trkpt>
      <trkpt lat="49.72912" lon="4.72107">
        <ele>158</ele>
        <time>2011-05-27T14:16:17Z</time>
      </trkpt>
      <trkpt lat="49.7291" lon="4.72103">
        <ele>159</ele>
        <time>2011-05-27T14:16:18Z</time>
      </trkpt>
      <trkpt lat="49.72908" lon="4.72099">
        <ele>159</ele>
        <time>2011-05-27T14:16:19Z</time>
      </trkpt>
      <trkpt lat="49.72905" lon="4.72094">
        <ele>160</ele>
        <time>2011-05-27T14:16:20Z</time>
      </trkpt>
      <trkpt lat="49.72903" lon="4.72091">
        <ele>160</ele>
        <time>2011-05-27T14:16:21Z</time>
      </trkpt>
      <trkpt lat="49.72901" lon="4.72089">
        <ele>161</ele>
        <time>2011-05-27T14:16:22Z</time>
      </trkpt>
      <trkpt lat="49.72899" lon="4.72086">
        <ele>161</ele>
        <time>2011-05-27T14:16:23Z</time>
      </trkpt>
      <trkpt lat="49.72897" lon="4.72083">
        <ele>161</ele>
        <time>2011-05-27T14:16:24Z</time>
      </trkpt>
      <trkpt lat="49.72895" lon="4.72078">
        <ele>161</ele>
        <time>2011-05-27T14:16:25Z</time>
      </trkpt>
      <trkpt lat="49.72893" lon="4.72074">
        <ele>161</ele>
        <time>2011-05-27T14:16:26Z</time>
      </trkpt>
      <trkpt lat="49.72892" lon="4.7207">
        <ele>161</ele>
        <time>2011-05-27T14:16:27Z</time>
      </trkpt>
      <trkpt lat="49.7289" lon="4.72066">
        <ele>161</ele>
        <time>2011-05-27T14:16:28Z</time>
      </trkpt>
      <trkpt lat="49.72887" lon="4.72062">
        <ele>161</ele>
        <time>2011-05-27T14:16:29Z</time>
      </trkpt>
      <trkpt lat="49.72885" lon="4.72059">
        <ele>161</ele>
        <time>2011-05-27T14:16:30Z</time>
      </trkpt>
      <trkpt lat="49.72882" lon="4.72054">
        <ele>161</ele>
        <time>2011-05-27T14:16:31Z</time>
      </trkpt>
      <trkpt lat="49.72881" lon="4.72051">
        <ele>161</ele>
        <time>2011-05-27T14:16:32Z</time>
      </trkpt>
      <trkpt lat="49.72879" lon="4.72048">
        <ele>161</ele>
        <time>2011-05-27T14:16:33Z</time>
      </trkpt>
      <trkpt lat="49.72878" lon="4.72044">
        <ele>161</ele>
        <time>2011-05-27T14:16:34Z</time>
      </trkpt>
      <trkpt lat="49.72876" lon="4.72041">
        <ele>161</ele>
        <time>2011-05-27T14:16:35Z</time>
      </trkpt>
      <trkpt lat="49.72873" lon="4.72038">
        <ele>161</ele>
        <time>2011-05-27T14:16:36Z</time>
      </trkpt>
      <trkpt lat="49.7287" lon="4.72035">
        <ele>161</ele>
        <time>2011-05-27T14:16:37Z</time>
      </trkpt>
      <trkpt lat="49.72867" lon="4.72032">
        <ele>161</ele>
        <time>2011-05-27T14:16:38Z</time>
      </trkpt>
      <trkpt lat="49.72863" lon="4.72031">
        <ele>161</ele>
        <time>2011-05-27T14:16:39Z</time>
      </trkpt>
      <trkpt lat="49.72859" lon="4.72028">
        <ele>160</ele>
        <time>2011-05-27T14:16:40Z</time>
      </trkpt>
      <trkpt lat="49.72856" lon="4.72026">
        <ele>160</ele>
        <time>2011-05-27T14:16:41Z</time>
      </trkpt>
      <trkpt lat="49.72853" lon="4.72024">
        <ele>160</ele>
        <time>2011-05-27T14:16:42Z</time>
      </trkpt>
      <trkpt lat="49.7285" lon="4.72024">
        <ele>160</ele>
        <time>2011-05-27T14:16:43Z</time>
      </trkpt>
      <trkpt lat="49.72847" lon="4.72023">
        <ele>160</ele>
        <time>2011-05-27T14:16:44Z</time>
      </trkpt>
      <trkpt lat="49.72845" lon="4.72023">
        <ele>160</ele>
        <time>2011-05-27T14:16:45Z</time>
      </trkpt>
      <trkpt lat="49.72843" lon="4.72021">
        <ele>160</ele>
        <time>2011-05-27T14:16:46Z</time>
      </trkpt>
      <trkpt lat="49.72841" lon="4.7202">
        <ele>160</ele>
        <time>2011-05-27T14:16:47Z</time>
      </trkpt>
      <trkpt lat="49.72839" lon="4.72019">
        <ele>160</ele>
        <time>2011-05-27T14:16:48Z</time>
      </trkpt>
      <trkpt lat="49.72836" lon="4.72017">
        <ele>160</ele>
        <time>2011-05-27T14:16:49Z</time>
      </trkpt>
      <trkpt lat="49.72834" lon="4.72014">
        <ele>160</ele>
        <time>2011-05-27T14:16:50Z</time>
      </trkpt>
      <trkpt lat="49.72832" lon="4.7201">
        <ele>160</ele>
        <time>2011-05-27T14:16:51Z</time>
      </trkpt>
      <trkpt lat="49.7283" lon="4.72005">
        <ele>160</ele>
        <time>2011-05-27T14:16:52Z</time>
      </trkpt>
      <trkpt lat="49.72828" lon="4.72001">
        <ele>160</ele>
        <time>2011-05-27T14:16:53Z</time>
      </trkpt>
      <trkpt lat="49.72826" lon="4.71998">
        <ele>160</ele>
        <time>2011-05-27T14:16:54Z</time>
      </trkpt>
      <trkpt lat="49.72824" lon="4.71994">
        <ele>160</ele>
        <time>2011-05-27T14:16:55Z</time>
      </trkpt>
      <trkpt lat="49.72822" lon="4.71992">
        <ele>160</ele>
        <time>2011-05-27T14:16:56Z</time>
      </trkpt>
      <trkpt lat="49.7282" lon="4.71989">
        <ele>160</ele>
        <time>2011-05-27T14:16:57Z</time>
      </trkpt>
      <trkpt lat="49.72817" lon="4.71988">
        <ele>160</ele>
        <time>2011-05-27T14:16:58Z</time>
      </trkpt>
      <trkpt lat="49.72814" lon="4.71987">
        <ele>160</ele>
        <time>2011-05-27T14:16:59Z</time>
      </trkpt>
      <trkpt lat="49.72812" lon="4.71987">
        <ele>160</ele>
        <time>2011-05-27T14:17:00Z</time>
      </trkpt>
      <trkpt lat="49.72809" lon="4.71987">
        <ele>160</ele>
        <time>2011-05-27T14:17:01Z</time>
      </trkpt>
      <trkpt lat="49.72807" lon="4.71989">
        <ele>160</ele>
        <time>2011-05-27T14:17:02Z</time>
      </trkpt>
      <trkpt lat="49.72805" lon="4.71991">
        <ele>160</ele>
        <time>2011-05-27T14:17:03Z</time>
      </trkpt>
      <trkpt lat="49.72803" lon="4.71993">
        <ele>160</ele>
        <time>2011-05-27T14:17:04Z</time>
      </trkpt>
      <trkpt lat="49.72801" lon="4.71996">
        <ele>160</ele>
        <time>2011-05-27T14:17:05Z</time>
      </trkpt>
      <trkpt lat="49.728" lon="4.71999">
        <ele>160</ele>
        <time>2011-05-27T14:17:06Z</time>
      </trkpt>
      <trkpt lat="49.72797" lon="4.72002">
        <ele>160</ele>
        <time>2011-05-27T14:17:07Z</time>
      </trkpt>
      <trkpt lat="49.72795" lon="4.72005">
        <ele>160</ele>
        <time>2011-05-27T14:17:08Z</time>
      </trkpt>
      <trkpt lat="49.72794" lon="4.72008">
        <ele>160</ele>
        <time>2011-05-27T14:17:09Z</time>
      </trkpt>
      <trkpt lat="49.72792" lon="4.72011">
        <ele>160</ele>
        <time>2011-05-27T14:17:10Z</time>
      </trkpt>
      <trkpt lat="49.72791" lon="4.72015">
        <ele>160</ele>
        <time>2011-05-27T14:17:11Z</time>
      </trkpt>
      <trkpt lat="49.72789" lon="4.72018">
        <ele>160</ele>
        <time>2011-05-27T14:17:12Z</time>
      </trkpt>
      <trkpt lat="49.72788" lon="4.72022">
        <ele>160</ele>
        <time>2011-05-27T14:17:13Z</time>
      </trkpt>
      <trkpt lat="49.72786" lon="4.72025">
        <ele>160</ele>
        <time>2011-05-27T14:17:14Z</time>
      </trkpt>
      <trkpt lat="49.72785" lon="4.72026">
        <ele>160</ele>
        <time>2011-05-27T14:17:15Z</time>
      </trkpt>
      <trkpt lat="49.72783" lon="4.72027">
        <ele>160</ele>
        <time>2011-05-27T14:17:16Z</time>
      </trkpt>
      <trkpt lat="49.72782" lon="4.72025">
        <ele>160</ele>
        <time>2011-05-27T14:17:17Z</time>
      </trkpt>
      <trkpt lat="49.72781" lon="4.72022">
        <ele>160</ele>
        <time>2011-05-27T14:17:18Z</time>
      </trkpt>
      <trkpt lat="49.7278" lon="4.7202">
        <ele>160</ele>
        <time>2011-05-27T14:17:19Z</time>
      </trkpt>
      <trkpt lat="49.72778" lon="4.72018">
        <ele>160</ele>
        <time>2011-05-27T14:17:20Z</time>
      </trkpt>
      <trkpt lat="49.72777" lon="4.72015">
        <ele>160</ele>
        <time>2011-05-27T14:17:21Z</time>
      </trkpt>
      <trkpt lat="49.72776" lon="4.72013">
        <ele>160</ele>
        <time>2011-05-27T14:17:22Z</time>
      </trkpt>
      <trkpt lat="49.72776" lon="4.72012">
        <ele>160</ele>
        <time>2011-05-27T14:17:23Z</time>
      </trkpt>
      <trkpt lat="49.72776" lon="4.72011">
        <ele>160</ele>
        <time>2011-05-27T14:17:26Z</time>
      </trkpt>
    </trkseg>
  </trk>
</gpx>